/* DATA DESCRIPTION:
Citation:	Saito, Atsushi (2026): Meteorological synoptical observations from station Tateno (2026-02) [dataset]. Aerological Observatory, Japan Meteorological Agency, PANGAEA, https://doi.org/10.1594/PANGAEA.993240
Other version:	Saito, Atsushi (2026): BSRN Station-to-archive file for station Tateno (2026-02) [dataset]. ftp://ftp.bsrn.awi.de/tat/tat0226.dat.gz
Project(s):	Baseline Surface Radiation Network (BSRN) (URI: https://bsrn.awi.de/)
Coverage:	LATITUDE: 36.058100 * LONGITUDE: 140.125800
	DATE/TIME START: 2026-02-01T00:00:00 * DATE/TIME END: 2026-02-28T23:59:00
	MINIMUM ELEVATION: 25.0 m * MAXIMUM ELEVATION: 25.0 m
Event(s):	TAT (Tateno) * LATITUDE: 36.058100 * LONGITUDE: 140.125800 * DATE/TIME: 1996-02-01T00:00:00 * ELEVATION: 25.0 m * STATION INFO: https://hdl.handle.net/10013/epic.44630.d027, update 2022: https://download.pangaea.de/reference/115429/attachments/Tateno.pdf * LOCATION: Japan * METHOD/DEVICE: Monitoring station (MONS) * COMMENT: BSRN station no: 16; Surface type: grass; Topography type: flat, urban; Horizon: doi:10.1594/PANGAEA.669527; Station scientist: Atsushi Saito (saito-atsushi@met.kishou.go.jp)
Parameter(s):	DATE/TIME (Date/Time) * GEOCODE * PI: Saito, Atsushi (saito-atsushi@met.kishou.go.jp)
	Temperature, air [°C] (TTT) * PI: Saito, Atsushi (saito-atsushi@met.kishou.go.jp) * METHOD/DEVICE: Thermometer
	Pressure, atmospheric [hPa] (PPPP) * PI: Saito, Atsushi (saito-atsushi@met.kishou.go.jp) * METHOD/DEVICE: Barometer (BARO) * COMMENT: Station pressure reduced to sea level
	Dew/frost point [°C] (TdTdTd) * PI: Saito, Atsushi (saito-atsushi@met.kishou.go.jp) * METHOD/DEVICE: Hygrometer (HYGRO)
	Wind direction [deg] (dd) * PI: Saito, Atsushi (saito-atsushi@met.kishou.go.jp) * METHOD/DEVICE: Anemometer
	Wind speed [m/s] (ff) * PI: Saito, Atsushi (saito-atsushi@met.kishou.go.jp) * METHOD/DEVICE: Anemometer
	Horizontal visibility [code] (VV) * PI: Saito, Atsushi (saito-atsushi@met.kishou.go.jp) * METHOD/DEVICE: Visibility sensor
License:	Baseline Surface Radiation Network License 1.0 (BSRN-1.0) (URI: https://bsrn.awi.de/data/conditions-of-data-release/)
Status:	Curation Level: Enhanced curation (URI: https://wiki.pangaea.de/wiki/Curation_levels)
Size:	241843 data points
*/
Date/Time	TTT [°C]	PPPP [hPa]	TdTdTd [°C]	dd [deg]	ff [m/s]	VV [code]
2026-02-01T00:00	2.7	1013	-7.5	270	2	70
2026-02-01T00:01	2.3	1013	-8.1	270	2	70
2026-02-01T00:02	2.2	1013	-8.2	280	2	70
2026-02-01T00:03	2.3	1013	-7.8	280	2	70
2026-02-01T00:04	2.7	1013	-7.5	290	2	70
2026-02-01T00:05	2.9	1013	-7.3	290	2	70
2026-02-01T00:06	2.6	1013	-8.1	290	2	70
2026-02-01T00:07	2.6	1013	-8.1	300	2	70
2026-02-01T00:08	2.6	1013	-7.8	300	2	70
2026-02-01T00:09	2.7	1013	-7.8	310	2	70
2026-02-01T00:10	2.6	1013	-7.8	310	2	70
2026-02-01T00:11	2.6	1013	-7.8	310	2	70
2026-02-01T00:12	2.8	1013	-7.7	310	2	70
2026-02-01T00:13	2.7	1013	-7.8	310	2	70
2026-02-01T00:14	2.5	1013	-7.9	300	2	70
2026-02-01T00:15	2.9	1013	-7.6	300	2	70
2026-02-01T00:16	3.2	1013	-7.3	300	2	70
2026-02-01T00:17	3.3	1013	-7.2	290	2	70
2026-02-01T00:18	3.4	1013	-7.1	280	2	70
2026-02-01T00:19	3.2	1013	-7.6	280	2	70
2026-02-01T00:20	3.0	1013	-8.1	270	2	70
2026-02-01T00:21	3.3	1013	-7.5	270	2	70
2026-02-01T00:22	3.2	1013	-7.6	270	2	70
2026-02-01T00:23	3.1	1013	-8.0	270	2	70
2026-02-01T00:24	3.2	1013	-7.6	260	2	70
2026-02-01T00:25	3.0	1013	-8.1	260	2	70
2026-02-01T00:26	3.1	1013	-8.0	270	2	70
2026-02-01T00:27	3.2	1013	-7.6	270	2	70
2026-02-01T00:28	3.5	1013	-7.3	280	2	70
2026-02-01T00:29	3.3	1013	-7.8	290	2	70
2026-02-01T00:30	3.5	1013	-7.6	300	2	70
2026-02-01T00:31	3.4	1013	-7.7	300	2	70
2026-02-01T00:32	3.5	1013	-7.6	310	2	70
2026-02-01T00:33	3.8	1013	-7.3	310	2	70
2026-02-01T00:34	4.0	1013	-7.1	310	2	70
2026-02-01T00:35	4.0	1013	-7.1	320	2	70
2026-02-01T00:36	3.9	1013	-7.5	320	2	70
2026-02-01T00:37	4.1	1013	-7.3	320	2	70
2026-02-01T00:38	4.2	1013	-7.3	310	2	70
2026-02-01T00:39	4.2	1013	-7.6	310	2	70
2026-02-01T00:40	4.0	1013	-7.7	310	2	70
2026-02-01T00:41	4.2	1013	-7.3	310	2	70
2026-02-01T00:42	4.1	1013	-7.7	300	2	70
2026-02-01T00:43	4.1	1013	-7.7	310	3	70
2026-02-01T00:44	4.2	1013	-7.6	310	3	70
2026-02-01T00:45	4.1	1013	-7.7	310	2	70
2026-02-01T00:46	4.2	1013	-7.6	310	2	70
2026-02-01T00:47	4.2	1013	-7.6	310	3	70
2026-02-01T00:48	4.2	1013	-7.6	310	3	70
2026-02-01T00:49	4.5	1013	-7.3	310	3	70
2026-02-01T00:50	4.8	1013	-7.0	310	2	70
2026-02-01T00:51	4.8	1013	-7.3	300	3	70
2026-02-01T00:52	4.5	1013	-7.6	300	3	70
2026-02-01T00:53	4.2	1013	-7.9	290	2	70
2026-02-01T00:54	4.6	1013	-7.2	300	2	70
2026-02-01T00:55	4.8	1013	-7.0	290	2	70
2026-02-01T00:56	5.0	1013	-6.8	290	2	70
2026-02-01T00:57	4.7	1013	-7.7	290	2	70
2026-02-01T00:58	4.9	1013	-7.6	290	3	70
2026-02-01T00:59	5.0	1013	-7.5	290	3	70
2026-02-01T01:00	4.9	1013	-7.6	290	3	70
2026-02-01T01:01	4.8	1013	-7.7	290	3	70
2026-02-01T01:02	4.9	1013	-7.6	300	3	70
2026-02-01T01:03	4.9	1013	-7.6	300	3	70
2026-02-01T01:04	5.0	1013	-7.5	300	3	70
2026-02-01T01:05	5.0	1013	-7.5	300	3	70
2026-02-01T01:06	5.2	1013	-7.3	310	3	70
2026-02-01T01:07	5.1	1013	-7.4	300	3	70
2026-02-01T01:08	5.1	1013	-7.4	300	2	69
2026-02-01T01:09	5.2	1013	-7.3	300	2	69
2026-02-01T01:10	5.1	1013	-7.4	290	2	70
2026-02-01T01:11	5.3	1013	-7.2	290	2	70
2026-02-01T01:12	5.4	1013	-7.1	290	2	70
2026-02-01T01:13	5.7	1013	-6.8	300	2	70
2026-02-01T01:14	5.6	1013	-7.3	300	2	70
2026-02-01T01:15	5.6	1013	-7.3	300	3	70
2026-02-01T01:16	6.1	1013	-6.5	300	2	70
2026-02-01T01:17	5.9	1013	-7.0	300	3	69
2026-02-01T01:18	6.1	1013	-6.8	300	3	70
2026-02-01T01:19	5.7	1013	-7.5	300	3	69
2026-02-01T01:20	5.7	1013	-7.2	300	3	68
2026-02-01T01:21	6.0	1013	-6.9	310	2	68
2026-02-01T01:22	5.8	1013	-7.1	300	2	70
2026-02-01T01:23	5.8	1013	-7.1	290	2	70
2026-02-01T01:24	6.3	1013	-6.6	290	2	69
2026-02-01T01:25	6.1	1013	-7.1	300	2	70
2026-02-01T01:26	5.8	1013	-7.4	300	3	70
2026-02-01T01:27	5.9	1013	-7.3	300	2	70
2026-02-01T01:28	5.7	1013	-7.5	300	2	70
2026-02-01T01:29	5.8	1013	-7.1	300	2	70
2026-02-01T01:30	6.2	1013	-6.7	290	2	70
2026-02-01T01:31	6.0	1013	-7.2	290	2	70
2026-02-01T01:32	6.2	1013	-6.7	290	2	70
2026-02-01T01:33	6.7	1013	-6.3	290	2	70
2026-02-01T01:34	6.9	1013	-6.4	290	2	70
2026-02-01T01:35	7.2	1013	-6.2	280	2	70
2026-02-01T01:36	7.1	1013	-6.6	270	2	70
2026-02-01T01:37	7.0	1013	-6.7	270	2	70
2026-02-01T01:38	6.8	1013	-7.2	270	3	70
2026-02-01T01:39	6.3	1013	-7.7	270	2	70
2026-02-01T01:40	6.5	1013	-7.1	270	2	70
2026-02-01T01:41	6.8	1013	-6.5	270	2	70
2026-02-01T01:42	6.7	1013	-7.0	270	2	70
2026-02-01T01:43	6.9	1013	-6.8	270	2	70
2026-02-01T01:44	7.4	1013	-6.3	270	2	70
2026-02-01T01:45	7.2	1013	-6.9	270	2	70
2026-02-01T01:46	7.4	1013	-6.7	270	2	70
2026-02-01T01:47	7.2	1013	-6.9	270	2	70
2026-02-01T01:48	7.3	1013	-6.8	270	2	70
2026-02-01T01:49	7.2	1013	-6.9	270	2	70
2026-02-01T01:50	7.1	1013	-6.9	280	2	70
2026-02-01T01:51	7.3	1013	-6.8	280	2	70
2026-02-01T01:52	7.2	1013	-6.9	280	2	70
2026-02-01T01:53	7.8	1013	-6.3	280	2	70
2026-02-01T01:54	8.2	1013	-6.0	280	2	70
2026-02-01T01:55	8.3	1013	-6.2	280	2	70
2026-02-01T01:56	8.3	1013	-6.6	280	2	70
2026-02-01T01:57	8.2	1013	-6.7	280	2	70
2026-02-01T01:58	8.1	1013	-6.8	280	2	70
2026-02-01T01:59	7.9	1013	-7.4	290	2	70
2026-02-01T02:00	7.9	1013	-7.0	290	2	70
2026-02-01T02:01	7.8	1013	-7.5	290	2	70
2026-02-01T02:02	8.0	1013	-6.9	300	2	70
2026-02-01T02:03	7.7	1013	-7.2	300	2	70
2026-02-01T02:04	8.0	1013	-6.9	300	2	70
2026-02-01T02:05	7.6	1013	-7.6	300	2	70
2026-02-01T02:06	7.5	1013	-7.7	300	2	70
2026-02-01T02:07	7.9	1013	-7.0	300	2	70
2026-02-01T02:08	8.0	1013	-6.9	300	2	70
2026-02-01T02:09	8.1	1013	-7.2	290	3	70
2026-02-01T02:10	8.3	1013	-7.0	290	3	70
2026-02-01T02:11	8.2	1013	-7.1	290	3	70
2026-02-01T02:12	8.5	1013	-6.8	280	3	70
2026-02-01T02:13	8.2	1013	-7.5	280	3	70
2026-02-01T02:14	8.1	1013	-7.6	270	3	70
2026-02-01T02:15	8.4	1013	-6.9	270	3	70
2026-02-01T02:16	8.1	1013	-7.2	270	3	70
2026-02-01T02:17	8.2	1013	-7.1	270	3	70
2026-02-01T02:18	8.7	1013	-6.7	260	3	70
2026-02-01T02:19	8.6	1012	-6.8	260	3	70
2026-02-01T02:20	8.6	1012	-6.8	260	3	70
2026-02-01T02:21	9.2	1012	-6.2	250	3	70
2026-02-01T02:22	8.9	1012	-6.9	250	3	70
2026-02-01T02:23	8.6	1012	-7.2	250	3	70
2026-02-01T02:24	8.4	1012	-7.3	260	3	70
2026-02-01T02:25	8.3	1012	-7.0	260	3	70
2026-02-01T02:26	8.5	1012	-6.8	260	3	70
2026-02-01T02:27	9.1	1012	-6.3	260	3	70
2026-02-01T02:28	8.8	1012	-7.0	260	3	70
2026-02-01T02:29	8.9	1012	-6.9	270	3	70
2026-02-01T02:30	8.6	1012	-7.2	280	3	70
2026-02-01T02:31	8.8	1012	-6.6	280	3	70
2026-02-01T02:32	8.9	1012	-6.5	280	3	70
2026-02-01T02:33	9.4	1012	-6.0	280	3	69
2026-02-01T02:34	9.2	1012	-6.6	280	3	69
2026-02-01T02:35	9.2	1012	-6.6	290	3	69
2026-02-01T02:36	8.7	1012	-7.1	290	2	69
2026-02-01T02:37	8.9	1012	-6.9	290	2	70
2026-02-01T02:38	8.8	1012	-7.0	290	2	70
2026-02-01T02:39	9.0	1012	-6.8	280	2	70
2026-02-01T02:40	9.2	1012	-6.6	280	2	70
2026-02-01T02:41	9.4	1012	-6.4	270	3	70
2026-02-01T02:42	9.3	1012	-6.5	270	2	70
2026-02-01T02:43	9.3	1012	-6.5	270	3	70
2026-02-01T02:44	8.9	1012	-6.9	270	2	70
2026-02-01T02:45	9.6	1012	-5.9	270	2	70
2026-02-01T02:46	9.3	1012	-6.5	270	3	70
2026-02-01T02:47	9.2	1012	-6.6	270	3	70
2026-02-01T02:48	10.1	1012	-5.4	260	3	70
2026-02-01T02:49	10.4	1012	-5.6	260	3	70
2026-02-01T02:50	9.8	1012	-6.5	260	3	70
2026-02-01T02:51	9.5	1012	-6.8	270	3	70
2026-02-01T02:52	9.6	1012	-6.7	270	3	70
2026-02-01T02:53	9.6	1012	-6.3	270	3	70
2026-02-01T02:54	9.1	1012	-7.1	270	3	70
2026-02-01T02:55	8.5	1012	-7.2	270	3	70
2026-02-01T02:56	8.7	1012	-6.7	270	3	70
2026-02-01T02:57	9.3	1012	-6.1	270	3	70
2026-02-01T02:58	9.3	1012	-6.5	270	3	70
2026-02-01T02:59	9.4	1012	-6.4	280	2	70
2026-02-01T03:00	9.6	1012	-6.3	280	3	70
2026-02-01T03:01	9.4	1012	-6.9	280	3	70
2026-02-01T03:02	9.8	1012	-6.1	280	3	70
2026-02-01T03:03	9.7	1011	-6.6	280	3	70
2026-02-01T03:04	9.2	1011	-7.0	290	2	70
2026-02-01T03:05	9.1	1011	-7.1	290	2	70
2026-02-01T03:06	9.7	1011	-6.2	280	2	70
2026-02-01T03:07	9.3	1011	-6.9	290	3	70
2026-02-01T03:08	9.1	1011	-7.1	290	2	70
2026-02-01T03:09	9.1	1011	-7.1	290	2	70
2026-02-01T03:10	8.7	1011	-7.5	280	2	70
2026-02-01T03:11	8.9	1011	-7.3	270	2	70
2026-02-01T03:12	9.2	1011	-6.6	270	2	70
2026-02-01T03:13	9.5	1011	-6.4	270	2	70
2026-02-01T03:14	9.2	1011	-7.0	260	2	70
2026-02-01T03:15	9.2	1011	-7.5	260	2	70
2026-02-01T03:16	9.4	1011	-7.3	250	2	70
2026-02-01T03:17	10.0	1011	-6.3	250	2	70
2026-02-01T03:18	9.7	1011	-7.0	250	3	70
2026-02-01T03:19	9.4	1011	-7.3	250	3	70
2026-02-01T03:20	9.5	1011	-7.2	260	3	70
2026-02-01T03:21	9.3	1011	-7.4	260	3	70
2026-02-01T03:22	9.3	1011	-7.4	260	3	70
2026-02-01T03:23	9.5	1011	-7.2	250	3	70
2026-02-01T03:24	9.6	1011	-7.1	250	3	70
2026-02-01T03:25	9.5	1011	-7.2	260	3	70
2026-02-01T03:26	9.4	1011	-7.3	260	3	70
2026-02-01T03:27	9.3	1011	-7.4	250	3	70
2026-02-01T03:28	9.3	1011	-7.4	250	3	70
2026-02-01T03:29	9.7	1011	-6.6	250	3	70
2026-02-01T03:30	9.6	1011	-7.1	240	3	70
2026-02-01T03:31	9.7	1011	-7.0	240	3	70
2026-02-01T03:32	9.4	1011	-7.7	240	2	70
2026-02-01T03:33	9.6	1011	-7.6	240	2	70
2026-02-01T03:34	9.9	1011	-7.3	240	2	70
2026-02-01T03:35	10.0	1011	-7.2	240	2	70
2026-02-01T03:36	10.3	1011	-6.9	240	2	70
2026-02-01T03:37	10.1	1011	-7.6	240	2	70
2026-02-01T03:38	10.2	1011	-7.0	240	2	70
2026-02-01T03:39	9.7	1011	-7.9	240	3	70
2026-02-01T03:40	10.0	1011	-7.2	240	3	70
2026-02-01T03:41	9.9	1011	-7.3	250	3	70
2026-02-01T03:42	9.8	1011	-7.4	250	3	70
2026-02-01T03:43	9.9	1011	-7.3	250	3	70
2026-02-01T03:44	10.0	1011	-7.7	250	3	70
2026-02-01T03:45	9.9	1011	-8.2	250	3	70
2026-02-01T03:46	10.0	1011	-7.7	250	3	70
2026-02-01T03:47	10.1	1011	-7.6	260	3	70
2026-02-01T03:48	10.1	1011	-7.6	260	3	70
2026-02-01T03:49	9.8	1011	-7.8	260	3	70
2026-02-01T03:50	10.0	1011	-7.7	260	3	70
2026-02-01T03:51	9.7	1011	-8.4	270	3	70
2026-02-01T03:52	9.9	1011	-7.7	280	3	70
2026-02-01T03:53	9.7	1011	-7.9	290	3	70
2026-02-01T03:54	9.7	1011	-7.9	290	3	70
2026-02-01T03:55	9.4	1011	-8.2	290	3	70
2026-02-01T03:56	9.8	1011	-7.8	290	3	70
2026-02-01T03:57	9.8	1011	-7.8	290	3	70
2026-02-01T03:58	9.9	1011	-7.7	290	3	70
2026-02-01T03:59	9.8	1011	-8.3	300	3	70
2026-02-01T04:00	9.8	1011	-8.3	300	3	70
2026-02-01T04:01	9.6	1011	-8.5	300	3	70
2026-02-01T04:02	9.8	1011	-7.8	300	3	70
2026-02-01T04:03	10.2	1011	-7.5	290	3	70
2026-02-01T04:04	10.0	1011	-8.1	290	3	70
2026-02-01T04:05	10.4	1011	-7.8	290	3	70
2026-02-01T04:06	10.6	1011	-7.6	290	3	70
2026-02-01T04:07	10.6	1011	-7.6	290	3	70
2026-02-01T04:08	10.9	1011	-7.4	290	3	70
2026-02-01T04:09	10.2	1010	-8.4	290	3	70
2026-02-01T04:10	10.0	1010	-8.6	280	2	70
2026-02-01T04:11	9.6	1010	-9.5	290	2	70
2026-02-01T04:12	10.3	1010	-7.9	280	2	70
2026-02-01T04:13	10.5	1010	-8.2	280	2	70
2026-02-01T04:14	10.3	1010	-8.4	280	2	70
2026-02-01T04:15	10.3	1010	-8.4	280	2	70
2026-02-01T04:16	10.1	1010	-8.5	270	2	70
2026-02-01T04:17	10.9	1010	-7.4	270	2	70
2026-02-01T04:18	10.8	1010	-7.9	270	3	70
2026-02-01T04:19	10.6	1010	-8.1	270	3	70
2026-02-01T04:20	10.6	1010	-8.6	270	3	70
2026-02-01T04:21	10.5	1010	-8.7	260	3	70
2026-02-01T04:22	10.3	1010	-8.9	260	3	70
2026-02-01T04:23	10.4	1010	-8.8	260	4	70
2026-02-01T04:24	10.1	1010	-9.0	260	4	70
2026-02-01T04:25	9.9	1010	-8.7	260	4	70
2026-02-01T04:26	10.2	1010	-8.4	260	4	70
2026-02-01T04:27	10.6	1010	-8.1	260	4	70
2026-02-01T04:28	10.5	1010	-8.2	260	4	70
2026-02-01T04:29	10.6	1010	-8.1	260	3	70
2026-02-01T04:30	10.0	1010	-8.6	260	3	70
2026-02-01T04:31	10.2	1010	-8.4	260	3	70
2026-02-01T04:32	10.5	1010	-8.2	260	3	70
2026-02-01T04:33	10.7	1010	-8.0	260	4	70
2026-02-01T04:34	10.5	1010	-8.7	260	4	70
2026-02-01T04:35	10.4	1010	-8.8	260	4	70
2026-02-01T04:36	10.1	1010	-9.0	260	4	70
2026-02-01T04:37	10.3	1010	-8.9	270	4	70
2026-02-01T04:38	10.2	1010	-8.9	260	4	70
2026-02-01T04:39	10.0	1010	-9.1	260	4	70
2026-02-01T04:40	10.0	1010	-9.1	260	4	70
2026-02-01T04:41	9.7	1010	-9.4	250	4	70
2026-02-01T04:42	9.8	1010	-9.3	250	4	70
2026-02-01T04:43	10.1	1010	-9.0	250	4	70
2026-02-01T04:44	10.2	1010	-8.9	250	4	70
2026-02-01T04:45	10.2	1010	-8.9	250	4	70
2026-02-01T04:46	10.1	1010	-9.0	250	3	70
2026-02-01T04:47	10.0	1010	-9.1	250	3	70
2026-02-01T04:48	10.3	1010	-8.9	250	3	70
2026-02-01T04:49	10.4	1010	-8.8	250	3	70
2026-02-01T04:50	10.2	1010	-9.5	250	3	70
2026-02-01T04:51	10.1	1010	-9.5	260	3	70
2026-02-01T04:52	10.5	1010	-8.7	250	2	70
2026-02-01T04:53	10.7	1010	-9.0	260	2	70
2026-02-01T04:54	10.5	1010	-9.2	250	3	70
2026-02-01T04:55	10.7	1010	-9.0	260	3	70
2026-02-01T04:56	10.8	1010	-8.4	260	3	70
2026-02-01T04:57	10.4	1010	-9.3	260	3	70
2026-02-01T04:58	10.3	1010	-9.4	260	3	70
2026-02-01T04:59	10.2	1010	-9.5	260	3	70
2026-02-01T05:00	10.4	1010	-8.8	260	4	70
2026-02-01T05:01	10.3	1010	-9.4	270	4	70
2026-02-01T05:02	9.9	1010	-9.7	280	4	70
2026-02-01T05:03	9.8	1010	-9.3	290	4	70
2026-02-01T05:04	9.8	1010	-9.3	300	3	70
2026-02-01T05:05	10.1	1010	-9.0	300	3	70
2026-02-01T05:06	9.8	1010	-9.3	310	3	70
2026-02-01T05:07	10.0	1010	-9.1	310	3	70
2026-02-01T05:08	10.2	1010	-8.9	300	3	70
2026-02-01T05:09	10.1	1010	-9.0	300	3	70
2026-02-01T05:10	10.2	1010	-8.9	290	3	70
2026-02-01T05:11	10.1	1010	-9.0	290	3	70
2026-02-01T05:12	9.9	1010	-9.2	270	3	70
2026-02-01T05:13	10.1	1010	-9.0	260	3	70
2026-02-01T05:14	10.1	1010	-9.0	250	3	70
2026-02-01T05:15	10.0	1010	-9.1	240	4	70
2026-02-01T05:16	10.2	1010	-8.9	240	4	70
2026-02-01T05:17	10.1	1010	-9.0	230	4	70
2026-02-01T05:18	10.0	1010	-9.1	230	4	70
2026-02-01T05:19	9.9	1010	-9.2	230	4	70
2026-02-01T05:20	10.0	1010	-9.1	230	4	70
2026-02-01T05:21	9.9	1010	-9.2	230	4	70
2026-02-01T05:22	9.9	1010	-9.2	240	4	70
2026-02-01T05:23	9.9	1010	-9.2	240	4	70
2026-02-01T05:24	9.9	1010	-9.2	250	4	70
2026-02-01T05:25	9.6	1010	-9.5	260	3	70
2026-02-01T05:26	9.6	1010	-9.5	270	3	70
2026-02-01T05:27	9.8	1010	-9.3	280	3	70
2026-02-01T05:28	9.9	1010	-9.2	290	2	70
2026-02-01T05:29	9.7	1010	-9.4	300	2	70
2026-02-01T05:30	9.6	1010	-9.5	310	2	70
2026-02-01T05:31	9.5	1010	-9.5	310	2	70
2026-02-01T05:32	9.5	1010	-9.5	300	2	70
2026-02-01T05:33	9.9	1010	-9.2	300	2	70
2026-02-01T05:34	10.5	1010	-8.7	290	2	70
2026-02-01T05:35	10.5	1010	-8.7	270	2	70
2026-02-01T05:36	10.5	1010	-8.7	260	2	70
2026-02-01T05:37	10.4	1010	-9.3	250	2	70
2026-02-01T05:38	10.7	1010	-8.5	240	2	70
2026-02-01T05:39	10.6	1010	-9.1	240	2	70
2026-02-01T05:40	10.5	1010	-9.2	230	2	70
2026-02-01T05:41	10.5	1010	-9.2	230	3	70
2026-02-01T05:42	10.5	1010	-9.2	240	3	70
2026-02-01T05:43	10.6	1010	-9.1	240	3	70
2026-02-01T05:44	10.6	1010	-9.1	250	3	70
2026-02-01T05:45	10.6	1010	-9.1	250	3	70
2026-02-01T05:46	10.7	1010	-8.5	260	3	70
2026-02-01T05:47	10.8	1010	-9.0	260	3	70
2026-02-01T05:48	10.7	1010	-9.0	260	3	70
2026-02-01T05:49	10.7	1010	-9.0	250	3	70
2026-02-01T05:50	10.6	1010	-9.1	250	3	70
2026-02-01T05:51	10.4	1010	-9.3	250	3	70
2026-02-01T05:52	10.3	1010	-9.4	250	3	70
2026-02-01T05:53	10.2	1010	-9.5	250	3	70
2026-02-01T05:54	10.3	1010	-9.4	250	3	70
2026-02-01T05:55	10.3	1010	-9.4	240	3	70
2026-02-01T05:56	10.2	1010	-9.5	240	3	70
2026-02-01T05:57	10.1	1010	-9.5	240	3	70
2026-02-01T05:58	10.3	1010	-9.4	240	2	70
2026-02-01T05:59	10.3	1010	-9.4	240	2	70
2026-02-01T06:00	10.4	1010	-9.3	240	3	70
2026-02-01T06:01	10.6	1010	-8.6	250	2	70
2026-02-01T06:02	10.7	1010	-9.0	250	2	70
2026-02-01T06:03	11.0	1010	-8.3	250	2	70
2026-02-01T06:04	10.6	1011	-9.1	260	2	70
2026-02-01T06:05	10.4	1011	-9.3	260	2	70
2026-02-01T06:06	10.6	1010	-9.1	260	2	70
2026-02-01T06:07	10.3	1010	-9.4	260	2	70
2026-02-01T06:08	10.6	1010	-9.1	260	2	70
2026-02-01T06:09	10.7	1010	-9.0	260	2	70
2026-02-01T06:10	10.5	1010	-9.2	270	2	70
2026-02-01T06:11	10.4	1010	-9.3	270	2	70
2026-02-01T06:12	10.4	1011	-9.3	280	2	70
2026-02-01T06:13	10.3	1011	-9.4	270	2	70
2026-02-01T06:14	10.2	1011	-9.5	270	2	70
2026-02-01T06:15	10.2	1011	-9.5	270	2	70
2026-02-01T06:16	10.0	1011	-9.6	280	2	70
2026-02-01T06:17	10.0	1011	-9.6	290	2	70
2026-02-01T06:18	10.1	1011	-9.0	300	2	70
2026-02-01T06:19	10.0	1011	-9.1	310	2	70
2026-02-01T06:20	10.1	1011	-9.0	310	2	70
2026-02-01T06:21	10.3	1011	-8.9	300	2	70
2026-02-01T06:22	10.3	1011	-9.4	290	2	70
2026-02-01T06:23	10.2	1011	-9.5	290	2	70
2026-02-01T06:24	10.4	1011	-8.8	290	2	70
2026-02-01T06:25	10.3	1011	-9.4	290	2	70
2026-02-01T06:26	10.2	1011	-9.5	280	3	70
2026-02-01T06:27	10.1	1011	-9.5	280	3	70
2026-02-01T06:28	10.0	1011	-9.1	270	3	70
2026-02-01T06:29	10.3	1011	-8.9	260	2	70
2026-02-01T06:30	10.4	1011	-8.8	260	2	70
2026-02-01T06:31	10.3	1011	-8.9	260	2	70
2026-02-01T06:32	10.2	1011	-8.9	260	2	70
2026-02-01T06:33	10.3	1011	-8.9	270	2	70
2026-02-01T06:34	10.2	1011	-8.9	270	2	70
2026-02-01T06:35	10.2	1011	-8.9	280	1	70
2026-02-01T06:36	10.1	1011	-9.0	280	1	70
2026-02-01T06:37	10.2	1011	-8.9	280	1	70
2026-02-01T06:38	10.3	1011	-8.9	280	1	70
2026-02-01T06:39	10.4	1011	-8.8	280	1	70
2026-02-01T06:40	10.3	1011	-8.9	270	2	70
2026-02-01T06:41	10.3	1011	-8.9	270	2	70
2026-02-01T06:42	10.2	1011	-8.9	270	2	70
2026-02-01T06:43	10.1	1011	-9.0	270	2	70
2026-02-01T06:44	10.2	1011	-8.9	260	2	70
2026-02-01T06:45	10.3	1011	-8.9	260	2	70
2026-02-01T06:46	10.2	1011	-8.9	260	2	70
2026-02-01T06:47	10.1	1011	-9.0	250	2	70
2026-02-01T06:48	10.0	1011	-9.1	250	2	70
2026-02-01T06:49	10.0	1011	-9.1	250	2	70
2026-02-01T06:50	10.0	1011	-9.1	250	2	70
2026-02-01T06:51	10.0	1011	-9.1	250	2	70
2026-02-01T06:52	9.9	1011	-9.2	250	1	70
2026-02-01T06:53	9.8	1011	-9.3	260	1	70
2026-02-01T06:54	9.8	1011	-8.8	270	1	70
2026-02-01T06:55	9.9	1011	-9.2	260	1	70
2026-02-01T06:56	9.9	1011	-9.2	260	1	70
2026-02-01T06:57	9.9	1011	-9.2	270	1	70
2026-02-01T06:58	9.8	1011	-9.3	270	1	70
2026-02-01T06:59	9.8	1011	-9.3	280	1	70
2026-02-01T07:00	9.8	1011	-9.3	280	1	70
2026-02-01T07:01	9.8	1011	-9.3	280	1	70
2026-02-01T07:02	9.8	1011	-9.3	280	1	70
2026-02-01T07:03	9.8	1011	-9.3	270	1	70
2026-02-01T07:04	9.8	1011	-9.3	260	1	70
2026-02-01T07:05	9.7	1011	-9.4	260	1	70
2026-02-01T07:06	9.8	1011	-8.8	260	1	70
2026-02-01T07:07	9.9	1011	-9.2	260	1	70
2026-02-01T07:08	10.0	1011	-8.6	260	1	70
2026-02-01T07:09	10.0	1011	-9.1	250	1	70
2026-02-01T07:10	10.0	1011	-9.1	240	1	70
2026-02-01T07:11	10.0	1011	-9.1	240	1	70
2026-02-01T07:12	10.0	1011	-9.1	240	2	70
2026-02-01T07:13	10.0	1011	-9.1	240	2	70
2026-02-01T07:14	9.9	1011	-9.2	230	2	70
2026-02-01T07:15	9.8	1011	-8.8	230	2	70
2026-02-01T07:16	9.7	1011	-8.9	230	2	70
2026-02-01T07:17	9.6	1011	-9.0	220	2	70
2026-02-01T07:18	9.6	1011	-9.0	220	2	70
2026-02-01T07:19	9.7	1011	-8.9	220	2	70
2026-02-01T07:20	9.8	1011	-8.8	210	1	70
2026-02-01T07:21	9.8	1011	-8.8	200	1	70
2026-02-01T07:22	9.8	1011	-8.8	200	1	70
2026-02-01T07:23	9.7	1011	-8.9	190	1	70
2026-02-01T07:24	9.7	1011	-8.9	190	1	70
2026-02-01T07:25	9.4	1011	-9.1	190	1	70
2026-02-01T07:26	9.5	1011	-9.0	190	1	70
2026-02-01T07:27	9.6	1011	-9.0	190	1	70
2026-02-01T07:28	9.5	1011	-9.0	200	1	70
2026-02-01T07:29	9.5	1011	-9.0	200	1	70
2026-02-01T07:30	9.6	1011	-9.0	200	1	70
2026-02-01T07:31	9.5	1011	-9.0	200	1	70
2026-02-01T07:32	9.3	1011	-8.7	210	1	70
2026-02-01T07:33	9.3	1011	-8.7	210	1	70
2026-02-01T07:34	9.6	1011	-9.0	210	1	70
2026-02-01T07:35	9.3	1011	-8.7	200	1	70
2026-02-01T07:36	8.7	1011	-8.8	200	1	70
2026-02-01T07:37	8.9	1011	-8.6	200	1	70
2026-02-01T07:38	8.9	1011	-8.6	200	1	70
2026-02-01T07:39	8.8	1011	-8.7	200	1	70
2026-02-01T07:40	8.6	1011	-8.9	190	1	70
2026-02-01T07:41	8.9	1011	-8.6	180	1	70
2026-02-01T07:42	8.9	1011	-8.6	180	1	70
2026-02-01T07:43	8.9	1011	-8.6	170	1	70
2026-02-01T07:44	8.9	1011	-8.6	170	1	70
2026-02-01T07:45	8.5	1011	-9.0	160	1	70
2026-02-01T07:46	8.0	1011	-8.9	160	1	70
2026-02-01T07:47	7.7	1011	-8.8	160	1	70
2026-02-01T07:48	7.8	1011	-8.3	160	1	70
2026-02-01T07:49	8.0	1011	-8.1	160	1	70
2026-02-01T07:50	7.9	1011	-8.2	160	1	70
2026-02-01T07:51	8.1	1011	-8.4	160	1	70
2026-02-01T07:52	8.3	1011	-8.2	160	1	70
2026-02-01T07:53	8.1	1011	-8.4	160	1	70
2026-02-01T07:54	8.0	1011	-8.5	170	1	70
2026-02-01T07:55	8.2	1011	-8.3	170	1	70
2026-02-01T07:56	8.1	1011	-8.4	170	1	70
2026-02-01T07:57	7.9	1011	-8.6	170	1	70
2026-02-01T07:58	7.9	1011	-8.6	170	1	70
2026-02-01T07:59	7.8	1011	-8.7	160	1	70
2026-02-01T08:00	8.0	1011	-8.5	160	1	70
2026-02-01T08:01	7.9	1011	-8.6	160	1	70
2026-02-01T08:02	7.7	1011	-8.4	160	1	70
2026-02-01T08:03	7.9	1011	-8.2	160	1	70
2026-02-01T08:04	7.8	1011	-8.3	160	1	70
2026-02-01T08:05	7.2	1011	-8.4	160	1	70
2026-02-01T08:06	7.1	1011	-8.5	160	1	70
2026-02-01T08:07	7.2	1011	-8.0	160	1	70
2026-02-01T08:08	7.3	1011	-7.9	160	1	70
2026-02-01T08:09	7.2	1011	-8.0	160	1	70
2026-02-01T08:10	7.1	1011	-8.1	150	1	70
2026-02-01T08:11	6.8	1011	-8.0	150	1	70
2026-02-01T08:12	6.1	1011	-7.8	150	1	70
2026-02-01T08:13	6.2	1011	-7.4	150	1	70
2026-02-01T08:14	6.2	1011	-7.4	150	1	70
2026-02-01T08:15	6.1	1011	-7.5	150	1	70
2026-02-01T08:16	6.1	1012	-7.1	150	1	70
2026-02-01T08:17	6.1	1012	-7.1	150	1	70
2026-02-01T08:18	6.1	1012	-7.1	150	1	70
2026-02-01T08:19	6.2	1012	-7.1	160	1	70
2026-02-01T08:20	6.3	1012	-7.3	160	1	70
2026-02-01T08:21	6.2	1012	-7.4	160	1	70
2026-02-01T08:22	5.9	1012	-7.7	160	1	70
2026-02-01T08:23	6.0	1012	-7.6	170	1	70
2026-02-01T08:24	5.9	1012	-7.7	170	1	70
2026-02-01T08:25	5.9	1012	-7.7	170	1	70
2026-02-01T08:26	6.0	1012	-7.6	170	1	70
2026-02-01T08:27	6.0	1012	-7.6	170	1	70
2026-02-01T08:28	5.9	1012	-7.7	170	1	70
2026-02-01T08:29	5.4	1012	-8.1	170	1	70
2026-02-01T08:30	5.1	1012	-8.0	170	1	70
2026-02-01T08:31	5.0	1012	-7.8	170	1	70
2026-02-01T08:32	5.0	1012	-7.8	170	1	70
2026-02-01T08:33	4.9	1012	-7.9	170	1	70
2026-02-01T08:34	5.0	1012	-7.8	170	1	70
2026-02-01T08:35	5.2	1012	-7.6	170	1	70
2026-02-01T08:36	5.2	1012	-7.6	170	1	70
2026-02-01T08:37	5.1	1012	-7.7	170	1	70
2026-02-01T08:38	5.1	1012	-7.7	170	1	70
2026-02-01T08:39	5.1	1012	-7.7	170	1	70
2026-02-01T08:40	5.3	1012	-7.5	170	1	70
2026-02-01T08:41	5.3	1012	-7.5	180	1	70
2026-02-01T08:42	5.0	1012	-7.8	180	1	70
2026-02-01T08:43	4.8	1012	-8.0	180	1	70
2026-02-01T08:44	4.8	1012	-7.7	180	1	70
2026-02-01T08:45	4.8	1012	-7.7	180	1	70
2026-02-01T08:46	4.9	1012	-7.6	180	1	70
2026-02-01T08:47	4.8	1012	-7.7	180	1	70
2026-02-01T08:48	5.0	1012	-7.5	180	1	70
2026-02-01T08:49	5.0	1012	-7.5	180	1	70
2026-02-01T08:50	4.8	1012	-7.7	180	1	70
2026-02-01T08:51	4.7	1012	-7.7	180	1	70
2026-02-01T08:52	5.0	1012	-7.5	180	1	70
2026-02-01T08:53	4.6	1012	-7.8	180	1	70
2026-02-01T08:54	4.7	1012	-7.4	180	1	70
2026-02-01T08:55	4.5	1012	-7.6	180	1	70
2026-02-01T08:56	4.8	1012	-7.3	180	1	70
2026-02-01T08:57	4.6	1012	-7.8	190	1	70
2026-02-01T08:58	4.2	1012	-7.9	190	1	70
2026-02-01T08:59	4.1	1012	-8.0	190	1	70
2026-02-01T09:00	4.2	1012	-7.6	190	1	70
2026-02-01T09:01	4.0	1012	-7.7	190	1	70
2026-02-01T09:02	4.2	1012	-7.6	190	1	70
2026-02-01T09:03	4.1	1012	-7.7	190	1	70
2026-02-01T09:04	4.0	1012	-7.4	190	1	70
2026-02-01T09:05	4.0	1012	-7.4	190	1	70
2026-02-01T09:06	4.0	1012	-7.4	190	1	70
2026-02-01T09:07	4.2	1012	-7.3	180	1	70
2026-02-01T09:08	3.9	1012	-7.5	180	1	70
2026-02-01T09:09	3.9	1012	-7.5	180	1	70
2026-02-01T09:10	4.2	1012	-7.3	180	1	70
2026-02-01T09:11	4.2	1012	-7.3	180	1	70
2026-02-01T09:12	4.0	1012	-7.7	170	1	70
2026-02-01T09:13	4.1	1012	-7.3	170	1	70
2026-02-01T09:14	4.0	1012	-7.4	170	1	70
2026-02-01T09:15	3.9	1012	-7.5	170	1	70
2026-02-01T09:16	4.0	1012	-7.4	170	1	70
2026-02-01T09:17	4.1	1012	-7.3	170	1	70
2026-02-01T09:18	4.1	1012	-7.3	170	1	70
2026-02-01T09:19	3.8	1012	-7.6	180	1	70
2026-02-01T09:20	3.9	1012	-7.5	180	1	70
2026-02-01T09:21	3.6	1012	-7.8	180	1	70
2026-02-01T09:22	3.4	1012	-8.0	180	1	70
2026-02-01T09:23	3.4	1012	-7.7	190	1	70
2026-02-01T09:24	3.4	1012	-7.7	190	1	70
2026-02-01T09:25	3.5	1012	-7.6	180	1	70
2026-02-01T09:26	3.4	1012	-7.7	180	1	70
2026-02-01T09:27	3.2	1012	-7.9	180	0	70
2026-02-01T09:28	3.1	1012	-7.4	180	0	70
2026-02-01T09:29	3.5	1012	-7.3	180	0	70
2026-02-01T09:30	3.7	1012	-7.1	0	0	70
2026-02-01T09:31	3.6	1012	-7.5	0	0	70
2026-02-01T09:32	3.7	1012	-7.4	0	0	70
2026-02-01T09:33	3.7	1012	-7.4	0	0	70
2026-02-01T09:34	3.6	1012	-7.5	0	0	70
2026-02-01T09:35	3.5	1012	-7.3	0	0	70
2026-02-01T09:36	3.5	1012	-7.3	0	0	70
2026-02-01T09:37	3.4	1012	-7.4	0	0	70
2026-02-01T09:38	3.6	1012	-6.9	0	0	70
2026-02-01T09:39	3.6	1012	-6.9	0	0	70
2026-02-01T09:40	3.4	1013	-7.1	0	0	70
2026-02-01T09:41	3.3	1013	-7.5	0	0	70
2026-02-01T09:42	3.3	1013	-7.5	0	0	70
2026-02-01T09:43	3.0	1013	-7.5	0	0	70
2026-02-01T09:44	3.0	1013	-6.9	0	0	70
2026-02-01T09:45	3.1	1013	-7.1	0	0	70
2026-02-01T09:46	3.0	1013	-7.2	0	0	70
2026-02-01T09:47	2.9	1013	-7.0	170	0	70
2026-02-01T09:48	2.7	1013	-7.2	170	0	70
2026-02-01T09:49	2.8	1013	-6.6	160	0	70
2026-02-01T09:50	2.9	1013	-6.5	30	1	70
2026-02-01T09:51	2.8	1013	-6.6	110	1	70
2026-02-01T09:52	2.8	1013	-6.3	70	1	70
2026-02-01T09:53	2.8	1013	-6.1	50	1	70
2026-02-01T09:54	2.7	1013	-6.2	40	1	70
2026-02-01T09:55	2.9	1013	-6.2	30	1	70
2026-02-01T09:56	3.3	1013	-6.4	30	1	70
2026-02-01T09:57	3.5	1013	-6.5	30	1	70
2026-02-01T09:58	3.5	1013	-6.7	30	1	70
2026-02-01T09:59	4.1	1013	-6.5	30	2	70
2026-02-01T10:00	4.3	1013	-6.6	30	2	70
2026-02-01T10:01	4.8	1013	-6.7	20	2	70
2026-02-01T10:02	4.5	1013	-7.0	20	1	70
2026-02-01T10:03	4.6	1013	-7.2	20	1	70
2026-02-01T10:04	4.1	1013	-7.3	20	1	70
2026-02-01T10:05	3.4	1013	-7.7	20	1	70
2026-02-01T10:06	3.0	1013	-7.5	20	1	70
2026-02-01T10:07	2.8	1013	-7.1	30	1	70
2026-02-01T10:08	2.9	1013	-6.7	30	1	70
2026-02-01T10:09	3.2	1013	-6.2	30	1	70
2026-02-01T10:10	2.9	1013	-6.5	30	1	70
2026-02-01T10:11	2.4	1013	-6.7	30	1	70
2026-02-01T10:12	2.7	1013	-6.4	30	1	70
2026-02-01T10:13	2.3	1013	-7.0	30	1	70
2026-02-01T10:14	2.3	1013	-6.8	30	1	70
2026-02-01T10:15	2.7	1013	-6.7	20	1	70
2026-02-01T10:16	2.5	1013	-6.9	20	1	70
2026-02-01T10:17	2.5	1013	-7.1	10	1	70
2026-02-01T10:18	2.3	1013	-7.0	10	1	70
2026-02-01T10:19	2.1	1013	-7.0	10	1	70
2026-02-01T10:20	2.3	1013	-6.8	10	1	70
2026-02-01T10:21	2.7	1013	-6.7	10	1	70
2026-02-01T10:22	2.5	1013	-6.9	10	1	70
2026-02-01T10:23	2.6	1013	-6.8	10	1	70
2026-02-01T10:24	2.8	1013	-6.8	10	1	70
2026-02-01T10:25	2.8	1013	-6.8	20	1	70
2026-02-01T10:26	2.6	1013	-7.0	20	1	70
2026-02-01T10:27	3.0	1013	-6.9	20	1	70
2026-02-01T10:28	2.4	1013	-7.2	20	1	70
2026-02-01T10:29	2.2	1013	-7.4	20	1	70
2026-02-01T10:30	2.4	1013	-6.9	20	1	70
2026-02-01T10:31	2.7	1013	-6.7	20	1	70
2026-02-01T10:32	2.7	1013	-6.7	20	1	70
2026-02-01T10:33	2.8	1013	-6.8	20	1	70
2026-02-01T10:34	2.9	1013	-6.7	20	1	70
2026-02-01T10:35	2.8	1013	-6.8	20	1	70
2026-02-01T10:36	2.8	1013	-6.8	20	1	70
2026-02-01T10:37	2.6	1013	-7.0	20	1	70
2026-02-01T10:38	2.8	1013	-6.8	20	1	70
2026-02-01T10:39	3.1	1013	-6.6	10	1	70
2026-02-01T10:40	3.3	1013	-6.7	10	1	70
2026-02-01T10:41	3.3	1013	-6.7	20	1	70
2026-02-01T10:42	3.3	1013	-6.9	10	1	70
2026-02-01T10:43	2.7	1013	-7.2	10	1	70
2026-02-01T10:44	3.2	1013	-6.7	10	1	70
2026-02-01T10:45	3.0	1013	-6.7	20	1	70
2026-02-01T10:46	2.9	1013	-6.7	20	1	70
2026-02-01T10:47	2.7	1013	-6.9	20	1	70
2026-02-01T10:48	2.4	1013	-6.9	20	1	70
2026-02-01T10:49	2.4	1013	-6.7	20	1	70
2026-02-01T10:50	2.2	1013	-6.9	20	1	70
2026-02-01T10:51	2.1	1013	-6.7	20	1	70
2026-02-01T10:52	2.3	1013	-6.5	30	1	70
2026-02-01T10:53	2.1	1013	-6.5	30	1	70
2026-02-01T10:54	2.3	1013	-6.3	30	1	70
2026-02-01T10:55	2.2	1013	-6.4	30	1	70
2026-02-01T10:56	1.9	1013	-6.4	30	1	70
2026-02-01T10:57	2.1	1013	-6.2	40	1	70
2026-02-01T10:58	2.3	1013	-6.0	40	1	70
2026-02-01T10:59	2.1	1013	-6.2	40	1	70
2026-02-01T11:00	2.3	1013	-6.0	40	1	70
2026-02-01T11:01	2.4	1013	-6.2	40	1	70
2026-02-01T11:02	2.1	1013	-6.5	40	1	70
2026-02-01T11:03	2.1	1013	-6.5	40	1	70
2026-02-01T11:04	2.2	1013	-6.4	40	1	70
2026-02-01T11:05	1.9	1013	-6.4	40	1	70
2026-02-01T11:06	2.0	1013	-6.3	30	1	70
2026-02-01T11:07	2.1	1013	-6.2	30	1	70
2026-02-01T11:08	2.3	1013	-6.0	30	1	70
2026-02-01T11:09	2.3	1013	-6.3	30	1	70
2026-02-01T11:10	2.0	1013	-6.3	30	1	70
2026-02-01T11:11	2.4	1013	-5.9	30	1	70
2026-02-01T11:12	2.1	1013	-6.2	30	1	70
2026-02-01T11:13	2.3	1013	-6.0	30	1	70
2026-02-01T11:14	2.3	1013	-6.0	30	1	70
2026-02-01T11:15	2.2	1013	-6.1	30	1	70
2026-02-01T11:16	2.3	1013	-6.0	30	1	70
2026-02-01T11:17	2.3	1013	-6.0	30	1	70
2026-02-01T11:18	2.1	1013	-6.2	30	1	70
2026-02-01T11:19	2.0	1013	-6.1	30	1	70
2026-02-01T11:20	2.0	1013	-6.1	40	1	70
2026-02-01T11:21	2.1	1013	-6.0	30	1	70
2026-02-01T11:22	2.3	1013	-5.8	30	1	70
2026-02-01T11:23	2.4	1013	-5.7	30	1	70
2026-02-01T11:24	2.4	1013	-5.9	30	1	70
2026-02-01T11:25	2.3	1013	-6.0	30	1	70
2026-02-01T11:26	2.3	1013	-6.0	40	1	70
2026-02-01T11:27	2.5	1013	-5.8	40	1	70
2026-02-01T11:28	2.4	1013	-5.9	40	1	70
2026-02-01T11:29	2.5	1013	-5.8	50	1	70
2026-02-01T11:30	2.6	1013	-5.8	50	0	70
2026-02-01T11:31	2.5	1013	-5.8	70	0	70
2026-02-01T11:32	2.6	1013	-5.8	70	0	70
2026-02-01T11:33	2.4	1013	-5.9	80	0	70
2026-02-01T11:34	2.3	1013	-6.0	90	0	70
2026-02-01T11:35	2.0	1013	-6.3	90	1	70
2026-02-01T11:36	1.9	1013	-6.2	100	1	70
2026-02-01T11:37	2.1	1013	-5.7	100	1	70
2026-02-01T11:38	2.3	1013	-5.6	110	1	70
2026-02-01T11:39	2.1	1013	-5.7	110	1	70
2026-02-01T11:40	2.2	1013	-5.7	120	1	70
2026-02-01T11:41	1.9	1013	-5.7	120	1	70
2026-02-01T11:42	2.0	1013	-5.6	120	1	70
2026-02-01T11:43	1.7	1013	-5.9	120	1	70
2026-02-01T11:44	1.6	1013	-6.0	130	1	70
2026-02-01T11:45	1.6	1013	-6.0	130	1	70
2026-02-01T11:46	1.7	1013	-5.9	140	1	70
2026-02-01T11:47	1.7	1013	-5.7	140	1	70
2026-02-01T11:48	1.5	1013	-5.8	140	1	70
2026-02-01T11:49	1.0	1013	-6.3	140	1	70
2026-02-01T11:50	0.9	1013	-6.2	130	1	70
2026-02-01T11:51	0.9	1013	-6.0	130	1	70
2026-02-01T11:52	1.2	1013	-5.7	130	1	70
2026-02-01T11:53	1.3	1013	-5.6	130	1	70
2026-02-01T11:54	1.4	1013	-5.5	120	1	70
2026-02-01T11:55	1.5	1013	-5.4	120	1	70
2026-02-01T11:56	1.7	1013	-5.2	120	1	70
2026-02-01T11:57	1.7	1013	-5.2	110	1	70
2026-02-01T11:58	1.9	1013	-5.0	110	1	70
2026-02-01T11:59	1.5	1013	-5.6	100	1	70
2026-02-01T12:00	1.1	1013	-6.0	100	1	70
2026-02-01T12:01	0.9	1013	-6.0	100	0	70
2026-02-01T12:02	1.0	1013	-5.9	100	0	70
2026-02-01T12:03	1.2	1013	-5.7	0	0	70
2026-02-01T12:04	1.0	1013	-5.7	0	0	70
2026-02-01T12:05	1.1	1013	-5.6	0	0	70
2026-02-01T12:06	1.2	1013	-5.7	0	0	70
2026-02-01T12:07	1.1	1013	-5.8	0	0	70
2026-02-01T12:08	0.9	1013	-6.0	0	0	70
2026-02-01T12:09	1.1	1013	-5.6	0	0	70
2026-02-01T12:10	1.1	1013	-5.6	0	0	70
2026-02-01T12:11	0.9	1013	-6.0	0	0	70
2026-02-01T12:12	1.0	1013	-5.7	0	0	70
2026-02-01T12:13	0.9	1013	-5.8	0	0	70
2026-02-01T12:14	0.7	1013	-5.9	0	0	70
2026-02-01T12:15	0.7	1013	-5.9	0	0	70
2026-02-01T12:16	0.6	1013	-5.8	0	0	70
2026-02-01T12:17	0.5	1013	-5.9	0	0	70
2026-02-01T12:18	0.6	1013	-5.6	0	0	70
2026-02-01T12:19	0.9	1013	-5.3	0	0	70
2026-02-01T12:20	0.7	1013	-5.5	0	0	70
2026-02-01T12:21	1.0	1013	-5.2	0	0	70
2026-02-01T12:22	0.7	1013	-5.5	0	0	70
2026-02-01T12:23	0.7	1013	-5.5	0	0	70
2026-02-01T12:24	0.6	1013	-5.6	0	0	70
2026-02-01T12:25	0.6	1013	-5.6	0	0	70
2026-02-01T12:26	0.7	1013	-5.5	110	0	70
2026-02-01T12:27	0.5	1013	-5.7	100	0	70
2026-02-01T12:28	0.4	1013	-5.8	90	0	70
2026-02-01T12:29	0.1	1013	-6.1	90	0	70
2026-02-01T12:30	0.1	1013	-6.1	100	0	70
2026-02-01T12:31	0.3	1013	-5.5	100	0	70
2026-02-01T12:32	0.4	1013	-5.4	100	0	70
2026-02-01T12:33	0.5	1013	-5.3	100	0	70
2026-02-01T12:34	0.5	1013	-5.5	100	0	70
2026-02-01T12:35	0.4	1013	-5.6	100	0	70
2026-02-01T12:36	0.5	1013	-5.5	100	0	70
2026-02-01T12:37	0.5	1013	-5.5	100	0	70
2026-02-01T12:38	0.6	1013	-5.4	100	0	70
2026-02-01T12:39	0.4	1013	-5.6	100	0	70
2026-02-01T12:40	0.4	1013	-5.6	100	0	70
2026-02-01T12:41	0.4	1013	-5.4	100	0	70
2026-02-01T12:42	0.4	1013	-5.4	100	0	70
2026-02-01T12:43	0.5	1013	-5.5	100	0	70
2026-02-01T12:44	0.5	1013	-5.3	100	0	70
2026-02-01T12:45	0.6	1013	-5.2	100	0	70
2026-02-01T12:46	0.6	1013	-5.2	100	0	70
2026-02-01T12:47	0.3	1013	-5.5	100	1	70
2026-02-01T12:48	0.5	1013	-5.3	110	1	70
2026-02-01T12:49	0.7	1013	-5.1	110	1	70
2026-02-01T12:50	0.6	1013	-5.2	120	1	70
2026-02-01T12:51	0.5	1014	-5.5	120	1	70
2026-02-01T12:52	0.3	1014	-5.7	120	1	70
2026-02-01T12:53	0.5	1014	-5.5	120	1	70
2026-02-01T12:54	0.2	1014	-5.8	130	1	70
2026-02-01T12:55	-0.1	1014	-6.1	130	1	70
2026-02-01T12:56	-0.1	1014	-5.9	130	1	70
2026-02-01T12:57	-0.1	1014	-5.9	130	1	70
2026-02-01T12:58	-0.1	1014	-5.7	130	1	70
2026-02-01T12:59	-0.1	1014	-5.7	130	1	70
2026-02-01T13:00	-0.4	1014	-6.0	130	1	70
2026-02-01T13:01	-0.5	1014	-6.1	130	1	70
2026-02-01T13:02	-0.1	1014	-5.5	130	1	70
2026-02-01T13:03	-0.1	1014	-5.5	130	1	70
2026-02-01T13:04	-0.4	1014	-6.0	130	0	70
2026-02-01T13:05	0.0	1014	-5.4	130	0	70
2026-02-01T13:06	0.2	1014	-5.2	130	0	70
2026-02-01T13:07	0.3	1014	-5.3	120	0	70
2026-02-01T13:08	0.4	1014	-5.2	120	1	70
2026-02-01T13:09	0.4	1014	-5.4	120	1	70
2026-02-01T13:10	0.1	1014	-5.7	120	1	70
2026-02-01T13:11	-0.1	1014	-5.9	110	1	70
2026-02-01T13:12	-0.1	1014	-5.7	110	1	70
2026-02-01T13:13	0.2	1014	-5.2	100	1	70
2026-02-01T13:14	0.4	1014	-5.0	100	1	70
2026-02-01T13:15	0.4	1014	-5.0	90	1	70
2026-02-01T13:16	0.2	1014	-5.4	90	1	70
2026-02-01T13:17	0.0	1014	-5.4	80	1	70
2026-02-01T13:18	0.2	1014	-5.2	80	1	70
2026-02-01T13:19	0.2	1014	-5.2	80	1	70
2026-02-01T13:20	0.1	1014	-5.5	80	1	70
2026-02-01T13:21	0.2	1014	-5.4	80	1	70
2026-02-01T13:22	0.1	1014	-5.5	90	1	70
2026-02-01T13:23	-0.1	1014	-5.5	90	1	70
2026-02-01T13:24	-0.2	1014	-5.4	100	1	70
2026-02-01T13:25	-0.1	1014	-5.3	100	1	70
2026-02-01T13:26	0.0	1014	-5.2	110	0	70
2026-02-01T13:27	-0.2	1014	-5.2	110	0	70
2026-02-01T13:28	-0.3	1014	-5.3	110	0	70
2026-02-01T13:29	-0.2	1014	-5.2	110	0	70
2026-02-01T13:30	-0.2	1013	-5.2	110	0	70
2026-02-01T13:31	-0.2	1013	-5.0	0	0	70
2026-02-01T13:32	-0.1	1013	-4.9	0	0	70
2026-02-01T13:33	0.1	1013	-4.7	0	0	70
2026-02-01T13:34	0.0	1013	-5.0	0	0	70
2026-02-01T13:35	0.1	1013	-4.9	0	0	70
2026-02-01T13:36	-0.1	1013	-5.1	90	0	70
2026-02-01T13:37	0.1	1013	-4.7	90	0	70
2026-02-01T13:38	0.2	1013	-4.6	90	0	70
2026-02-01T13:39	0.0	1013	-5.0	80	0	70
2026-02-01T13:40	-0.1	1013	-4.9	0	0	70
2026-02-01T13:41	0.1	1013	-4.5	0	0	70
2026-02-01T13:42	0.2	1013	-4.6	90	0	70
2026-02-01T13:43	-0.1	1013	-5.1	90	0	70
2026-02-01T13:44	-0.5	1013	-5.5	90	0	70
2026-02-01T13:45	-0.3	1013	-5.3	90	0	70
2026-02-01T13:46	0.0	1013	-4.8	90	0	70
2026-02-01T13:47	-0.3	1013	-5.3	90	0	70
2026-02-01T13:48	0.1	1013	-4.9	90	0	70
2026-02-01T13:49	-0.2	1013	-5.4	90	0	70
2026-02-01T13:50	-0.4	1013	-5.6	90	0	70
2026-02-01T13:51	-0.4	1014	-5.4	90	0	70
2026-02-01T13:52	-0.3	1014	-5.3	80	0	70
2026-02-01T13:53	-0.3	1014	-5.1	70	0	70
2026-02-01T13:54	-0.3	1014	-5.1	70	0	70
2026-02-01T13:55	-0.6	1014	-5.6	60	0	70
2026-02-01T13:56	-0.5	1014	-5.3	50	0	70
2026-02-01T13:57	-0.3	1014	-5.1	40	0	70
2026-02-01T13:58	-0.4	1014	-5.2	30	1	70
2026-02-01T13:59	-0.6	1014	-5.4	20	1	70
2026-02-01T14:00	-1.0	1014	-5.8	10	1	70
2026-02-01T14:01	-1.3	1014	-5.9	360	1	70
2026-02-01T14:02	-1.7	1014	-6.1	340	1	70
2026-02-01T14:03	-1.9	1014	-6.3	320	1	70
2026-02-01T14:04	-2.0	1014	-6.2	300	1	70
2026-02-01T14:05	-1.9	1014	-5.9	290	1	70
2026-02-01T14:06	-1.9	1014	-5.7	280	1	70
2026-02-01T14:07	-1.8	1014	-5.8	270	1	70
2026-02-01T14:08	-1.6	1014	-5.6	260	1	70
2026-02-01T14:09	-1.6	1014	-5.6	250	1	70
2026-02-01T14:10	-1.4	1014	-5.6	250	1	70
2026-02-01T14:11	-1.2	1014	-5.4	250	1	70
2026-02-01T14:12	-1.3	1014	-5.7	250	1	70
2026-02-01T14:13	-1.0	1014	-5.4	250	1	70
2026-02-01T14:14	-1.2	1014	-5.6	250	1	70
2026-02-01T14:15	-1.2	1014	-5.6	260	1	70
2026-02-01T14:16	-1.0	1014	-5.4	270	1	70
2026-02-01T14:17	-0.8	1014	-5.2	270	1	70
2026-02-01T14:18	-1.0	1014	-5.6	280	1	70
2026-02-01T14:19	-1.1	1014	-5.7	300	1	70
2026-02-01T14:20	-1.0	1014	-5.6	310	1	70
2026-02-01T14:21	-1.0	1014	-5.6	310	1	70
2026-02-01T14:22	-0.9	1014	-5.5	320	1	70
2026-02-01T14:23	-1.0	1014	-5.6	330	1	70
2026-02-01T14:24	-1.2	1014	-5.8	330	1	70
2026-02-01T14:25	-1.0	1014	-5.4	320	1	70
2026-02-01T14:26	-0.9	1014	-5.3	320	1	70
2026-02-01T14:27	-1.1	1014	-5.5	320	0	70
2026-02-01T14:28	-1.1	1014	-5.5	320	0	70
2026-02-01T14:29	-1.1	1014	-5.3	330	0	70
2026-02-01T14:30	-1.0	1014	-5.2	330	0	70
2026-02-01T14:31	-0.8	1014	-5.0	330	0	70
2026-02-01T14:32	-1.5	1014	-5.9	330	0	70
2026-02-01T14:33	-1.3	1014	-5.5	330	0	70
2026-02-01T14:34	-1.3	1014	-5.3	330	0	70
2026-02-01T14:35	-1.1	1014	-5.1	330	0	70
2026-02-01T14:36	-1.1	1014	-5.3	330	0	70
2026-02-01T14:37	-1.3	1014	-5.5	320	0	70
2026-02-01T14:38	-1.2	1014	-5.4	0	0	70
2026-02-01T14:39	-1.0	1014	-5.2	0	0	70
2026-02-01T14:40	-0.8	1014	-5.0	0	0	70
2026-02-01T14:41	-0.9	1014	-5.1	0	0	70
2026-02-01T14:42	-1.0	1014	-5.4	0	0	70
2026-02-01T14:43	-1.1	1014	-5.5	0	0	70
2026-02-01T14:44	-1.1	1014	-5.3	0	0	70
2026-02-01T14:45	-1.1	1014	-5.5	0	0	70
2026-02-01T14:46	-1.0	1014	-5.4	300	0	70
2026-02-01T14:47	-1.1	1014	-5.5	290	0	70
2026-02-01T14:48	-1.8	1014	-6.2	290	0	70
2026-02-01T14:49	-2.2	1014	-6.5	290	1	70
2026-02-01T14:50	-2.1	1014	-6.1	280	1	70
2026-02-01T14:51	-2.0	1014	-5.8	270	1	70
2026-02-01T14:52	-2.1	1014	-5.9	270	1	70
2026-02-01T14:53	-2.0	1014	-5.6	260	1	70
2026-02-01T14:54	-1.8	1014	-5.5	260	1	70
2026-02-01T14:55	-1.6	1014	-5.3	260	1	70
2026-02-01T14:56	-1.5	1014	-5.3	260	1	70
2026-02-01T14:57	-1.5	1014	-5.3	250	1	70
2026-02-01T14:58	-1.7	1014	-5.7	250	1	70
2026-02-01T14:59	-1.6	1014	-5.4	250	1	70
2026-02-01T15:00	-1.5	1014	-5.3	250	0	70
2026-02-01T15:01	-1.5	1014	-5.5	250	0	70
2026-02-01T15:02	-1.6	1014	-5.6	260	0	70
2026-02-01T15:03	-1.5	1014	-5.5	260	0	70
2026-02-01T15:04	-1.6	1014	-5.8	270	1	70
2026-02-01T15:05	-1.6	1014	-5.6	280	1	70
2026-02-01T15:06	-1.7	1014	-5.7	280	1	70
2026-02-01T15:07	-1.8	1014	-5.8	290	1	70
2026-02-01T15:08	-1.9	1014	-5.7	290	1	70
2026-02-01T15:09	-1.6	1014	-5.4	300	1	70
2026-02-01T15:10	-1.9	1014	-5.7	300	1	70
2026-02-01T15:11	-1.8	1014	-5.6	310	1	70
2026-02-01T15:12	-1.7	1014	-5.5	310	1	70
2026-02-01T15:13	-1.6	1014	-5.4	310	1	70
2026-02-01T15:14	-1.9	1014	-5.7	310	1	70
2026-02-01T15:15	-2.0	1014	-5.8	310	1	70
2026-02-01T15:16	-2.1	1014	-5.9	300	1	70
2026-02-01T15:17	-1.8	1014	-5.5	310	1	70
2026-02-01T15:18	-2.0	1014	-5.6	310	1	70
2026-02-01T15:19	-2.2	1014	-5.8	310	1	70
2026-02-01T15:20	-2.2	1014	-5.8	310	1	70
2026-02-01T15:21	-2.0	1014	-5.6	310	1	70
2026-02-01T15:22	-1.9	1014	-5.5	310	1	70
2026-02-01T15:23	-1.8	1014	-5.5	310	1	70
2026-02-01T15:24	-1.9	1014	-5.7	310	1	70
2026-02-01T15:25	-2.0	1014	-5.8	310	1	70
2026-02-01T15:26	-1.8	1014	-5.6	310	1	70
2026-02-01T15:27	-1.7	1014	-5.5	310	1	70
2026-02-01T15:28	-1.5	1014	-5.3	310	1	70
2026-02-01T15:29	-1.8	1014	-5.8	310	1	70
2026-02-01T15:30	-2.2	1014	-6.2	310	1	70
2026-02-01T15:31	-2.2	1014	-6.0	310	1	70
2026-02-01T15:32	-2.1	1014	-5.9	300	1	70
2026-02-01T15:33	-1.9	1014	-5.7	300	1	70
2026-02-01T15:34	-1.9	1014	-5.7	290	1	70
2026-02-01T15:35	-2.1	1014	-5.9	280	1	70
2026-02-01T15:36	-2.1	1014	-5.9	280	0	70
2026-02-01T15:37	-2.0	1014	-5.8	280	1	70
2026-02-01T15:38	-2.0	1014	-5.8	280	1	70
2026-02-01T15:39	-2.0	1014	-6.0	280	1	70
2026-02-01T15:40	-2.0	1014	-6.0	280	1	70
2026-02-01T15:41	-2.3	1014	-6.3	280	1	70
2026-02-01T15:42	-2.3	1014	-6.1	280	1	70
2026-02-01T15:43	-2.3	1014	-5.9	290	1	70
2026-02-01T15:44	-2.1	1014	-5.7	290	1	70
2026-02-01T15:45	-2.0	1014	-5.6	300	1	70
2026-02-01T15:46	-2.0	1014	-5.8	300	1	70
2026-02-01T15:47	-2.0	1014	-5.8	300	1	70
2026-02-01T15:48	-2.2	1014	-6.2	300	1	70
2026-02-01T15:49	-2.1	1014	-5.9	290	1	70
2026-02-01T15:50	-1.9	1014	-5.7	290	1	70
2026-02-01T15:51	-2.1	1014	-6.1	280	1	70
2026-02-01T15:52	-2.2	1014	-6.2	280	1	70
2026-02-01T15:53	-1.8	1014	-5.8	280	1	70
2026-02-01T15:54	-1.9	1014	-6.1	280	1	70
2026-02-01T15:55	-2.0	1014	-6.2	280	1	70
2026-02-01T15:56	-2.1	1014	-6.5	280	1	70
2026-02-01T15:57	-2.0	1014	-6.4	280	1	70
2026-02-01T15:58	-2.3	1014	-6.6	280	1	70
2026-02-01T15:59	-2.0	1014	-6.2	290	1	70
2026-02-01T16:00	-2.2	1014	-6.4	290	1	70
2026-02-01T16:01	-2.0	1014	-6.0	300	1	70
2026-02-01T16:02	-1.6	1014	-5.8	300	1	70
2026-02-01T16:03	-1.5	1014	-5.9	300	1	70
2026-02-01T16:04	-1.6	1014	-6.0	300	1	70
2026-02-01T16:05	-1.9	1014	-6.3	310	1	70
2026-02-01T16:06	-1.9	1014	-6.3	310	1	70
2026-02-01T16:07	-1.7	1014	-6.1	320	1	70
2026-02-01T16:08	-1.6	1014	-6.0	320	1	70
2026-02-01T16:09	-1.5	1014	-6.1	310	1	70
2026-02-01T16:10	-1.5	1014	-6.1	310	1	70
2026-02-01T16:11	-1.9	1014	-6.6	310	1	70
2026-02-01T16:12	-2.1	1014	-6.6	310	1	70
2026-02-01T16:13	-2.3	1014	-6.6	310	1	70
2026-02-01T16:14	-1.9	1014	-6.1	300	1	70
2026-02-01T16:15	-2.3	1014	-6.6	300	1	70
2026-02-01T16:16	-2.1	1014	-6.3	290	1	70
2026-02-01T16:17	-2.0	1014	-6.2	280	1	70
2026-02-01T16:18	-2.1	1014	-6.3	270	1	70
2026-02-01T16:19	-2.0	1014	-6.2	270	1	70
2026-02-01T16:20	-1.7	1014	-5.9	260	1	70
2026-02-01T16:21	-1.8	1014	-6.2	260	1	70
2026-02-01T16:22	-1.7	1014	-6.1	260	1	70
2026-02-01T16:23	-2.0	1014	-6.5	250	1	70
2026-02-01T16:24	-1.9	1014	-6.4	250	1	70
2026-02-01T16:25	-1.9	1014	-6.4	250	1	70
2026-02-01T16:26	-2.0	1014	-6.5	240	1	70
2026-02-01T16:27	-2.0	1014	-6.5	240	1	70
2026-02-01T16:28	-2.0	1014	-6.4	240	1	70
2026-02-01T16:29	-2.2	1014	-6.5	240	1	70
2026-02-01T16:30	-2.3	1014	-6.6	250	1	70
2026-02-01T16:31	-2.2	1014	-6.2	250	1	70
2026-02-01T16:32	-2.4	1014	-6.4	250	2	70
2026-02-01T16:33	-2.4	1014	-6.2	250	2	70
2026-02-01T16:34	-2.2	1014	-6.2	260	2	70
2026-02-01T16:35	-1.9	1014	-5.9	260	2	70
2026-02-01T16:36	-2.1	1014	-6.3	260	2	70
2026-02-01T16:37	-2.1	1014	-6.3	270	1	70
2026-02-01T16:38	-2.3	1014	-6.6	270	1	70
2026-02-01T16:39	-2.3	1014	-6.5	270	1	70
2026-02-01T16:40	-2.3	1014	-6.5	270	1	70
2026-02-01T16:41	-2.4	1014	-6.6	280	1	70
2026-02-01T16:42	-2.5	1014	-6.7	280	1	70
2026-02-01T16:43	-2.5	1014	-6.5	280	1	70
2026-02-01T16:44	-2.3	1014	-6.3	280	1	70
2026-02-01T16:45	-2.4	1014	-6.4	280	1	70
2026-02-01T16:46	-2.4	1014	-6.4	280	1	70
2026-02-01T16:47	-2.3	1014	-6.3	280	1	70
2026-02-01T16:48	-2.4	1014	-6.4	280	1	70
2026-02-01T16:49	-2.3	1014	-6.3	280	1	70
2026-02-01T16:50	-2.3	1014	-6.3	280	1	70
2026-02-01T16:51	-2.3	1014	-6.3	280	1	70
2026-02-01T16:52	-2.6	1014	-6.8	280	1	70
2026-02-01T16:53	-2.6	1014	-6.6	280	1	70
2026-02-01T16:54	-2.8	1014	-6.8	290	1	70
2026-02-01T16:55	-2.5	1014	-6.3	290	1	70
2026-02-01T16:56	-2.5	1014	-6.3	290	1	70
2026-02-01T16:57	-2.6	1014	-6.4	290	1	70
2026-02-01T16:58	-2.6	1014	-6.4	290	1	70
2026-02-01T16:59	-2.5	1014	-6.3	290	1	70
2026-02-01T17:00	-2.5	1014	-6.3	300	1	70
2026-02-01T17:01	-2.6	1014	-6.4	300	1	70
2026-02-01T17:02	-2.5	1014	-6.3	300	1	70
2026-02-01T17:03	-2.7	1014	-6.5	290	1	70
2026-02-01T17:04	-2.5	1014	-6.3	290	1	70
2026-02-01T17:05	-2.7	1014	-6.5	290	1	70
2026-02-01T17:06	-3.2	1014	-7.2	280	1	70
2026-02-01T17:07	-3.5	1014	-7.5	280	1	70
2026-02-01T17:08	-3.6	1014	-7.4	270	1	70
2026-02-01T17:09	-3.4	1014	-6.8	270	1	70
2026-02-01T17:10	-3.3	1014	-6.6	260	1	70
2026-02-01T17:11	-3.1	1014	-6.2	260	1	70
2026-02-01T17:12	-3.2	1014	-6.3	260	1	70
2026-02-01T17:13	-3.1	1014	-6.4	250	1	70
2026-02-01T17:14	-3.2	1014	-6.5	260	1	70
2026-02-01T17:15	-2.9	1014	-6.2	260	1	70
2026-02-01T17:16	-2.8	1014	-6.1	260	1	70
2026-02-01T17:17	-3.0	1014	-6.4	260	1	70
2026-02-01T17:18	-3.0	1014	-6.4	260	1	70
2026-02-01T17:19	-3.2	1014	-6.5	260	1	70
2026-02-01T17:20	-3.1	1014	-6.4	260	1	70
2026-02-01T17:21	-3.0	1014	-6.3	270	1	70
2026-02-01T17:22	-3.1	1014	-6.5	270	1	70
2026-02-01T17:23	-3.1	1014	-6.5	270	1	70
2026-02-01T17:24	-3.1	1014	-6.4	280	1	70
2026-02-01T17:25	-3.0	1014	-6.3	280	1	70
2026-02-01T17:26	-2.9	1014	-6.2	280	1	70
2026-02-01T17:27	-2.9	1014	-6.4	280	1	70
2026-02-01T17:28	-2.8	1014	-6.3	290	1	70
2026-02-01T17:29	-2.9	1014	-6.4	290	1	70
2026-02-01T17:30	-2.8	1014	-6.3	290	1	70
2026-02-01T17:31	-2.9	1014	-6.4	290	1	70
2026-02-01T17:32	-3.0	1014	-6.6	280	1	70
2026-02-01T17:33	-3.2	1014	-6.6	280	1	70
2026-02-01T17:34	-3.1	1014	-6.5	280	1	70
2026-02-01T17:35	-3.0	1014	-6.4	280	1	70
2026-02-01T17:36	-3.0	1014	-6.4	280	1	70
2026-02-01T17:37	-3.0	1014	-6.4	280	1	70
2026-02-01T17:38	-2.8	1014	-6.3	270	1	70
2026-02-01T17:39	-3.0	1014	-6.4	270	1	70
2026-02-01T17:40	-3.0	1014	-6.4	270	1	70
2026-02-01T17:41	-3.2	1014	-6.6	270	1	70
2026-02-01T17:42	-3.2	1014	-6.6	270	1	70
2026-02-01T17:43	-3.2	1014	-6.5	270	1	70
2026-02-01T17:44	-3.1	1014	-6.4	270	1	70
2026-02-01T17:45	-3.5	1014	-6.8	270	1	70
2026-02-01T17:46	-3.5	1014	-6.8	270	1	70
2026-02-01T17:47	-3.4	1014	-6.5	270	1	70
2026-02-01T17:48	-3.3	1014	-6.6	270	1	70
2026-02-01T17:49	-3.0	1014	-6.1	270	1	70
2026-02-01T17:50	-3.1	1014	-6.4	270	1	70
2026-02-01T17:51	-3.0	1014	-6.3	270	1	70
2026-02-01T17:52	-2.8	1014	-6.1	270	1	70
2026-02-01T17:53	-2.9	1014	-6.4	270	1	70
2026-02-01T17:54	-3.0	1014	-6.4	270	1	70
2026-02-01T17:55	-2.9	1014	-6.4	260	1	70
2026-02-01T17:56	-2.8	1014	-6.3	260	1	70
2026-02-01T17:57	-2.9	1014	-6.4	260	1	70
2026-02-01T17:58	-3.0	1014	-6.6	260	1	70
2026-02-01T17:59	-3.3	1014	-6.9	260	1	70
2026-02-01T18:00	-3.0	1014	-6.4	260	1	70
2026-02-01T18:01	-3.1	1014	-6.5	260	1	70
2026-02-01T18:02	-3.3	1014	-6.7	250	1	70
2026-02-01T18:03	-3.1	1014	-6.5	250	1	70
2026-02-01T18:04	-2.8	1014	-6.1	250	1	70
2026-02-01T18:05	-2.9	1014	-6.4	250	1	70
2026-02-01T18:06	-2.9	1014	-6.4	250	1	70
2026-02-01T18:07	-3.1	1014	-6.5	250	1	70
2026-02-01T18:08	-3.2	1014	-6.6	250	1	70
2026-02-01T18:09	-3.1	1014	-6.5	250	1	70
2026-02-01T18:10	-3.0	1014	-6.4	250	1	70
2026-02-01T18:11	-3.2	1014	-6.6	250	1	70
2026-02-01T18:12	-3.1	1014	-6.5	250	1	70
2026-02-01T18:13	-3.0	1014	-6.3	250	1	70
2026-02-01T18:14	-3.0	1014	-6.3	250	1	70
2026-02-01T18:15	-3.0	1014	-6.4	260	1	70
2026-02-01T18:16	-2.9	1014	-6.4	260	1	70
2026-02-01T18:17	-2.9	1014	-6.4	260	1	70
2026-02-01T18:18	-2.9	1014	-6.4	270	1	70
2026-02-01T18:19	-2.8	1014	-6.3	270	1	70
2026-02-01T18:20	-2.8	1014	-6.3	280	1	70
2026-02-01T18:21	-2.8	1014	-6.4	280	1	70
2026-02-01T18:22	-2.8	1014	-6.4	280	1	70
2026-02-01T18:23	-3.0	1014	-6.6	290	1	70
2026-02-01T18:24	-3.2	1014	-6.8	290	1	70
2026-02-01T18:25	-3.2	1014	-6.6	290	1	70
2026-02-01T18:26	-3.3	1014	-6.6	290	1	70
2026-02-01T18:27	-3.2	1014	-6.5	280	1	70
2026-02-01T18:28	-3.4	1014	-6.7	280	1	70
2026-02-01T18:29	-3.5	1014	-6.8	280	1	70
2026-02-01T18:30	-3.6	1014	-6.9	270	1	70
2026-02-01T18:31	-3.5	1014	-6.6	270	1	70
2026-02-01T18:32	-3.5	1014	-6.6	270	1	70
2026-02-01T18:33	-3.5	1014	-6.6	260	1	70
2026-02-01T18:34	-3.3	1014	-6.4	260	1	70
2026-02-01T18:35	-3.3	1014	-6.4	260	1	70
2026-02-01T18:36	-3.3	1014	-6.4	260	1	70
2026-02-01T18:37	-3.7	1014	-7.0	260	1	70
2026-02-01T18:38	-3.8	1014	-6.9	260	1	70
2026-02-01T18:39	-3.5	1014	-6.4	260	1	70
2026-02-01T18:40	-3.3	1014	-6.2	250	1	70
2026-02-01T18:41	-3.2	1014	-6.3	250	1	70
2026-02-01T18:42	-3.4	1014	-6.5	250	1	70
2026-02-01T18:43	-3.5	1014	-6.6	250	1	70
2026-02-01T18:44	-3.5	1014	-6.6	250	1	70
2026-02-01T18:45	-3.7	1014	-6.8	250	1	70
2026-02-01T18:46	-3.5	1014	-6.4	250	1	70
2026-02-01T18:47	-3.5	1014	-6.4	250	1	70
2026-02-01T18:48	-3.4	1014	-6.3	250	1	70
2026-02-01T18:49	-3.3	1014	-6.2	250	1	70
2026-02-01T18:50	-3.4	1014	-6.5	250	1	70
2026-02-01T18:51	-3.2	1014	-6.3	250	1	70
2026-02-01T18:52	-3.2	1014	-6.3	250	1	70
2026-02-01T18:53	-3.4	1014	-6.5	250	0	70
2026-02-01T18:54	-3.5	1014	-6.6	250	0	70
2026-02-01T18:55	-3.5	1014	-6.4	0	0	70
2026-02-01T18:56	-3.5	1014	-6.4	0	0	70
2026-02-01T18:57	-3.6	1014	-6.5	0	0	70
2026-02-01T18:58	-3.6	1014	-6.5	260	0	70
2026-02-01T18:59	-3.5	1014	-6.4	270	0	70
2026-02-01T19:00	-3.5	1014	-6.4	270	0	70
2026-02-01T19:01	-3.6	1014	-6.5	270	0	70
2026-02-01T19:02	-3.6	1014	-6.5	280	1	70
2026-02-01T19:03	-3.4	1014	-6.3	280	1	70
2026-02-01T19:04	-3.4	1014	-6.3	280	1	70
2026-02-01T19:05	-3.6	1014	-6.5	280	1	70
2026-02-01T19:06	-3.6	1014	-6.5	280	1	70
2026-02-01T19:07	-3.6	1014	-6.5	280	1	70
2026-02-01T19:08	-3.7	1014	-6.6	280	1	70
2026-02-01T19:09	-3.8	1014	-6.7	280	1	70
2026-02-01T19:10	-3.8	1014	-6.7	280	1	70
2026-02-01T19:11	-3.7	1014	-6.5	280	1	70
2026-02-01T19:12	-3.5	1014	-6.3	280	1	70
2026-02-01T19:13	-4.1	1013	-7.0	280	1	70
2026-02-01T19:14	-4.2	1013	-7.1	280	1	70
2026-02-01T19:15	-3.9	1013	-6.7	280	1	70
2026-02-01T19:16	-3.9	1013	-6.7	270	1	70
2026-02-01T19:17	-4.0	1013	-6.8	270	1	70
2026-02-01T19:18	-3.8	1013	-6.4	270	1	70
2026-02-01T19:19	-3.6	1013	-6.2	270	1	70
2026-02-01T19:20	-3.5	1013	-6.1	270	1	70
2026-02-01T19:21	-4.1	1013	-7.0	270	1	70
2026-02-01T19:22	-4.3	1013	-7.2	270	1	70
2026-02-01T19:23	-3.9	1013	-6.7	270	1	70
2026-02-01T19:24	-3.7	1014	-6.3	270	1	70
2026-02-01T19:25	-3.7	1014	-6.3	270	1	70
2026-02-01T19:26	-3.7	1014	-6.3	270	1	70
2026-02-01T19:27	-4.0	1013	-6.8	260	1	70
2026-02-01T19:28	-4.0	1013	-6.6	270	1	70
2026-02-01T19:29	-3.9	1013	-6.5	270	1	70
2026-02-01T19:30	-3.9	1013	-6.5	270	1	70
2026-02-01T19:31	-3.8	1013	-6.4	270	1	70
2026-02-01T19:32	-3.6	1013	-6.2	280	1	70
2026-02-01T19:33	-3.8	1013	-6.4	280	1	70
2026-02-01T19:34	-3.9	1014	-6.5	280	1	70
2026-02-01T19:35	-4.0	1014	-6.6	280	1	70
2026-02-01T19:36	-4.1	1014	-6.7	280	1	70
2026-02-01T19:37	-4.1	1014	-6.7	280	1	70
2026-02-01T19:38	-4.0	1014	-6.6	270	1	70
2026-02-01T19:39	-3.9	1014	-6.5	270	1	70
2026-02-01T19:40	-3.9	1014	-6.5	270	1	70
2026-02-01T19:41	-4.1	1014	-6.7	270	1	70
2026-02-01T19:42	-4.0	1014	-6.4	270	1	70
2026-02-01T19:43	-4.1	1014	-6.5	270	1	70
2026-02-01T19:44	-4.1	1014	-6.5	270	1	70
2026-02-01T19:45	-4.2	1014	-6.6	260	1	70
2026-02-01T19:46	-4.5	1013	-6.9	260	1	70
2026-02-01T19:47	-4.7	1013	-7.1	260	1	70
2026-02-01T19:48	-4.5	1013	-6.8	260	1	70
2026-02-01T19:49	-4.3	1013	-6.6	260	1	70
2026-02-01T19:50	-4.2	1013	-6.3	260	1	70
2026-02-01T19:51	-4.2	1013	-6.5	260	1	70
2026-02-01T19:52	-4.2	1013	-6.5	260	1	70
2026-02-01T19:53	-4.1	1013	-6.4	260	1	70
2026-02-01T19:54	-4.0	1013	-6.3	260	1	70
2026-02-01T19:55	-4.1	1013	-6.4	260	1	70
2026-02-01T19:56	-4.1	1013	-6.4	260	1	70
2026-02-01T19:57	-3.9	1013	-6.3	260	1	70
2026-02-01T19:58	-3.8	1013	-6.2	250	1	70
2026-02-01T19:59	-4.0	1013	-6.4	250	1	70
2026-02-01T20:00	-4.1	1014	-6.7	250	1	70
2026-02-01T20:01	-4.2	1014	-6.8	250	1	70
2026-02-01T20:02	-4.1	1014	-6.5	240	1	70
2026-02-01T20:03	-3.9	1014	-6.3	240	1	70
2026-02-01T20:04	-4.2	1014	-6.8	240	1	70
2026-02-01T20:05	-4.2	1014	-6.8	230	1	70
2026-02-01T20:06	-4.0	1014	-6.4	230	1	70
2026-02-01T20:07	-3.9	1014	-6.3	230	1	70
2026-02-01T20:08	-3.9	1014	-6.5	230	1	70
2026-02-01T20:09	-4.1	1014	-6.7	220	1	70
2026-02-01T20:10	-4.3	1014	-6.9	220	1	70
2026-02-01T20:11	-4.5	1014	-7.1	220	1	70
2026-02-01T20:12	-4.1	1014	-6.5	230	1	70
2026-02-01T20:13	-4.0	1014	-6.3	230	1	70
2026-02-01T20:14	-3.9	1014	-6.2	240	1	70
2026-02-01T20:15	-3.8	1014	-6.1	240	1	70
2026-02-01T20:16	-3.7	1014	-6.1	250	1	70
2026-02-01T20:17	-3.7	1014	-6.1	260	1	70
2026-02-01T20:18	-3.9	1014	-6.5	260	1	70
2026-02-01T20:19	-3.8	1014	-6.4	270	1	70
2026-02-01T20:20	-3.8	1014	-6.4	280	1	70
2026-02-01T20:21	-3.8	1014	-6.4	290	1	70
2026-02-01T20:22	-4.0	1014	-6.6	290	1	70
2026-02-01T20:23	-3.9	1014	-6.5	290	1	70
2026-02-01T20:24	-3.8	1014	-6.2	300	1	70
2026-02-01T20:25	-3.8	1014	-6.4	300	1	70
2026-02-01T20:26	-3.8	1014	-6.4	300	1	70
2026-02-01T20:27	-3.8	1014	-6.4	300	1	70
2026-02-01T20:28	-3.9	1014	-6.5	300	1	70
2026-02-01T20:29	-3.9	1014	-6.5	300	1	70
2026-02-01T20:30	-3.8	1014	-6.4	300	1	70
2026-02-01T20:31	-4.0	1014	-6.6	300	1	70
2026-02-01T20:32	-4.2	1014	-6.8	300	1	70
2026-02-01T20:33	-4.2	1014	-6.8	300	1	70
2026-02-01T20:34	-4.2	1014	-6.6	290	1	70
2026-02-01T20:35	-4.1	1014	-6.5	290	1	70
2026-02-01T20:36	-3.9	1014	-6.3	280	1	70
2026-02-01T20:37	-3.7	1014	-6.1	280	1	70
2026-02-01T20:38	-3.7	1014	-6.3	270	1	70
2026-02-01T20:39	-3.7	1014	-6.3	260	1	70
2026-02-01T20:40	-3.4	1014	-6.0	260	1	70
2026-02-01T20:41	-3.5	1014	-6.1	250	1	70
2026-02-01T20:42	-3.5	1014	-6.3	240	1	70
2026-02-01T20:43	-3.7	1014	-6.5	240	1	70
2026-02-01T20:44	-3.8	1014	-6.4	230	1	70
2026-02-01T20:45	-3.7	1014	-6.3	230	1	70
2026-02-01T20:46	-3.6	1014	-6.2	230	1	70
2026-02-01T20:47	-3.7	1014	-6.3	230	1	70
2026-02-01T20:48	-3.7	1014	-6.3	240	1	70
2026-02-01T20:49	-3.6	1014	-6.2	240	1	70
2026-02-01T20:50	-3.5	1014	-6.1	250	1	70
2026-02-01T20:51	-3.2	1014	-5.8	250	1	70
2026-02-01T20:52	-3.0	1014	-5.8	260	1	70
2026-02-01T20:53	-3.3	1014	-6.1	260	1	70
2026-02-01T20:54	-3.2	1014	-6.0	260	1	70
2026-02-01T20:55	-3.1	1014	-6.0	270	1	70
2026-02-01T20:56	-3.2	1014	-6.1	270	1	70
2026-02-01T20:57	-3.3	1014	-6.2	280	1	70
2026-02-01T20:58	-3.3	1014	-6.2	280	1	70
2026-02-01T20:59	-3.3	1014	-6.1	290	1	70
2026-02-01T21:00	-3.3	1014	-6.1	290	1	70
2026-02-01T21:01	-3.3	1014	-6.1	300	1	70
2026-02-01T21:02	-3.3	1014	-6.1	300	1	70
2026-02-01T21:03	-3.3	1014	-6.1	300	1	70
2026-02-01T21:04	-3.2	1014	-5.8	310	1	70
2026-02-01T21:05	-3.1	1014	-5.7	310	1	70
2026-02-01T21:06	-2.8	1014	-5.3	300	1	70
2026-02-01T21:07	-2.8	1014	-5.4	300	1	70
2026-02-01T21:08	-2.6	1014	-5.4	300	1	70
2026-02-01T21:09	-2.4	1014	-5.2	290	1	70
2026-02-01T21:10	-2.4	1014	-5.4	290	1	70
2026-02-01T21:11	-2.4	1014	-5.4	280	1	70
2026-02-01T21:12	-2.2	1014	-5.2	270	1	70
2026-02-01T21:13	-2.2	1014	-5.3	270	1	70
2026-02-01T21:14	-2.2	1014	-5.3	260	2	70
2026-02-01T21:15	-2.2	1014	-5.3	260	2	70
2026-02-01T21:16	-2.2	1014	-5.3	260	2	70
2026-02-01T21:17	-2.2	1014	-5.5	250	2	70
2026-02-01T21:18	-2.2	1014	-5.5	250	2	70
2026-02-01T21:19	-2.1	1014	-5.4	250	1	70
2026-02-01T21:20	-2.3	1014	-5.4	250	1	70
2026-02-01T21:21	-2.4	1014	-5.4	250	1	70
2026-02-01T21:22	-2.3	1014	-5.4	250	1	70
2026-02-01T21:23	-2.3	1014	-5.4	260	1	70
2026-02-01T21:24	-2.3	1014	-5.4	260	1	70
2026-02-01T21:25	-2.5	1014	-5.5	260	1	70
2026-02-01T21:26	-2.5	1014	-5.5	270	1	70
2026-02-01T21:27	-2.3	1014	-5.3	260	1	70
2026-02-01T21:28	-2.3	1014	-5.3	260	1	70
2026-02-01T21:29	-2.2	1014	-5.2	260	1	70
2026-02-01T21:30	-2.2	1014	-5.2	260	1	70
2026-02-01T21:31	-2.2	1014	-5.3	260	1	70
2026-02-01T21:32	-2.2	1014	-5.3	260	1	70
2026-02-01T21:33	-2.3	1014	-5.3	260	1	70
2026-02-01T21:34	-2.4	1014	-5.4	260	1	70
2026-02-01T21:35	-2.4	1014	-5.4	260	1	70
2026-02-01T21:36	-2.4	1014	-5.2	260	2	70
2026-02-01T21:37	-2.3	1014	-5.1	260	2	70
2026-02-01T21:38	-2.2	1014	-5.0	260	2	70
2026-02-01T21:39	-2.1	1014	-5.1	260	2	70
2026-02-01T21:40	-2.3	1014	-5.3	260	2	70
2026-02-01T21:41	-2.3	1014	-5.3	270	1	70
2026-02-01T21:42	-2.4	1014	-5.2	270	1	70
2026-02-01T21:43	-2.5	1014	-5.1	280	1	70
2026-02-01T21:44	-2.4	1014	-5.0	280	1	70
2026-02-01T21:45	-2.1	1014	-4.7	280	1	70
2026-02-01T21:46	-1.9	1014	-4.7	280	1	70
2026-02-01T21:47	-1.8	1014	-4.8	280	1	70
2026-02-01T21:48	-1.8	1014	-4.8	270	1	70
2026-02-01T21:49	-1.9	1014	-5.0	270	1	70
2026-02-01T21:50	-1.8	1014	-4.9	270	1	70
2026-02-01T21:51	-1.8	1014	-4.9	260	1	70
2026-02-01T21:52	-1.9	1014	-5.0	250	1	70
2026-02-01T21:53	-1.8	1014	-4.9	250	1	70
2026-02-01T21:54	-1.9	1014	-5.0	250	1	70
2026-02-01T21:55	-1.9	1014	-5.0	250	1	70
2026-02-01T21:56	-1.9	1014	-5.0	250	1	70
2026-02-01T21:57	-2.0	1014	-5.0	250	1	70
2026-02-01T21:58	-2.0	1014	-5.0	250	2	70
2026-02-01T21:59	-2.0	1014	-5.0	250	2	70
2026-02-01T22:00	-2.1	1014	-5.1	250	2	70
2026-02-01T22:01	-2.0	1014	-5.0	260	2	70
2026-02-01T22:02	-2.0	1014	-4.8	260	2	70
2026-02-01T22:03	-2.0	1014	-4.8	260	2	70
2026-02-01T22:04	-2.0	1014	-5.0	260	2	70
2026-02-01T22:05	-2.0	1014	-5.0	260	2	70
2026-02-01T22:06	-2.0	1014	-5.0	260	2	70
2026-02-01T22:07	-2.1	1014	-4.9	260	2	70
2026-02-01T22:08	-1.9	1014	-4.7	260	2	70
2026-02-01T22:09	-1.8	1014	-4.8	260	2	70
2026-02-01T22:10	-1.9	1014	-4.9	270	2	70
2026-02-01T22:11	-2.0	1014	-5.0	270	2	70
2026-02-01T22:12	-2.1	1014	-5.1	270	2	70
2026-02-01T22:13	-2.1	1014	-4.9	270	2	70
2026-02-01T22:14	-2.1	1014	-4.9	270	2	70
2026-02-01T22:15	-2.0	1014	-4.8	270	2	70
2026-02-01T22:16	-2.1	1014	-4.9	260	2	70
2026-02-01T22:17	-2.0	1014	-4.8	260	2	70
2026-02-01T22:18	-2.0	1014	-5.0	260	2	70
2026-02-01T22:19	-2.1	1014	-5.1	260	2	70
2026-02-01T22:20	-2.1	1014	-4.9	260	2	70
2026-02-01T22:21	-2.2	1014	-5.0	260	2	70
2026-02-01T22:22	-2.2	1014	-5.0	250	2	70
2026-02-01T22:23	-2.2	1014	-5.0	250	2	70
2026-02-01T22:24	-2.1	1014	-4.9	250	2	70
2026-02-01T22:25	-2.1	1014	-4.9	250	2	70
2026-02-01T22:26	-2.1	1014	-4.9	250	2	70
2026-02-01T22:27	-2.1	1014	-4.9	250	2	70
2026-02-01T22:28	-2.2	1014	-5.0	260	2	70
2026-02-01T22:29	-2.2	1014	-5.0	260	2	70
2026-02-01T22:30	-2.4	1014	-5.2	260	2	70
2026-02-01T22:31	-2.2	1014	-5.0	260	2	70
2026-02-01T22:32	-2.1	1014	-4.9	260	2	70
2026-02-01T22:33	-2.0	1014	-4.8	260	2	70
2026-02-01T22:34	-2.0	1014	-4.8	260	2	70
2026-02-01T22:35	-1.8	1014	-4.6	270	2	70
2026-02-01T22:36	-1.7	1014	-4.5	270	2	70
2026-02-01T22:37	-1.7	1014	-4.7	270	2	70
2026-02-01T22:38	-1.7	1014	-4.7	270	2	70
2026-02-01T22:39	-1.5	1014	-4.6	270	2	70
2026-02-01T22:40	-1.5	1014	-4.6	270	2	70
2026-02-01T22:41	-1.4	1014	-4.6	270	2	70
2026-02-01T22:42	-1.4	1014	-4.6	270	2	70
2026-02-01T22:43	-1.4	1014	-4.6	270	2	70
2026-02-01T22:44	-1.3	1014	-4.5	270	2	70
2026-02-01T22:45	-1.3	1014	-4.6	270	2	70
2026-02-01T22:46	-1.3	1014	-4.6	270	2	70
2026-02-01T22:47	-1.3	1014	-4.6	270	2	70
2026-02-01T22:48	-1.3	1014	-4.5	270	2	70
2026-02-01T22:49	-1.2	1014	-4.5	270	2	70
2026-02-01T22:50	-1.1	1014	-4.4	270	2	70
2026-02-01T22:51	-1.1	1014	-4.4	270	2	70
2026-02-01T22:52	-1.0	1014	-4.5	270	2	70
2026-02-01T22:53	-1.0	1014	-4.3	280	2	70
2026-02-01T22:54	-1.0	1014	-4.5	280	2	70
2026-02-01T22:55	-0.9	1014	-4.4	280	1	70
2026-02-01T22:56	-0.9	1014	-4.4	280	1	70
2026-02-01T22:57	-0.8	1014	-4.3	270	1	70
2026-02-01T22:58	-0.8	1014	-4.5	270	1	70
2026-02-01T22:59	-0.8	1014	-4.7	270	1	70
2026-02-01T23:00	-0.7	1014	-4.6	260	1	70
2026-02-01T23:01	-0.7	1014	-4.6	260	1	70
2026-02-01T23:02	-0.6	1014	-4.5	260	1	70
2026-02-01T23:03	-0.7	1014	-4.7	250	1	70
2026-02-01T23:04	-0.7	1014	-4.7	250	1	70
2026-02-01T23:05	-0.6	1014	-4.6	250	1	70
2026-02-01T23:06	-0.5	1014	-4.5	240	1	70
2026-02-01T23:07	-0.5	1014	-4.4	240	1	70
2026-02-01T23:08	-0.5	1014	-4.5	240	1	70
2026-02-01T23:09	-0.5	1014	-4.5	240	1	70
2026-02-01T23:10	-0.4	1014	-4.4	240	1	70
2026-02-01T23:11	-0.3	1014	-4.3	240	1	70
2026-02-01T23:12	-0.4	1014	-4.4	240	1	70
2026-02-01T23:13	-0.3	1014	-4.3	240	1	70
2026-02-01T23:14	-0.2	1014	-4.3	240	1	70
2026-02-01T23:15	0.1	1014	-3.8	240	1	70
2026-02-01T23:16	0.1	1014	-4.0	240	1	70
2026-02-01T23:17	0.1	1014	-4.1	240	1	70
2026-02-01T23:18	0.1	1014	-4.3	240	1	70
2026-02-01T23:19	0.1	1014	-4.3	240	1	70
2026-02-01T23:20	0.1	1014	-4.3	240	1	70
2026-02-01T23:21	0.2	1014	-4.2	240	1	70
2026-02-01T23:22	0.5	1014	-3.9	240	1	70
2026-02-01T23:23	0.7	1014	-3.6	250	1	70
2026-02-01T23:24	1.0	1014	-3.3	250	1	70
2026-02-01T23:25	1.0	1014	-3.5	250	1	70
2026-02-01T23:26	1.1	1014	-3.6	260	1	70
2026-02-01T23:27	1.7	1014	-2.8	260	1	70
2026-02-01T23:28	1.9	1014	-3.0	260	1	70
2026-02-01T23:29	2.1	1014	-3.0	260	1	70
2026-02-01T23:30	2.0	1014	-3.3	260	1	70
2026-02-01T23:31	1.7	1014	-4.2	260	1	70
2026-02-01T23:32	1.9	1014	-3.8	260	1	70
2026-02-01T23:33	1.9	1014	-3.8	260	1	70
2026-02-01T23:34	1.8	1014	-4.3	260	1	70
2026-02-01T23:35	1.8	1014	-4.3	260	1	70
2026-02-01T23:36	1.7	1014	-4.4	250	1	70
2026-02-01T23:37	1.6	1014	-4.5	250	1	70
2026-02-01T23:38	1.7	1014	-4.4	260	1	70
2026-02-01T23:39	1.8	1014	-4.3	260	2	70
2026-02-01T23:40	2.0	1014	-4.1	260	1	70
2026-02-01T23:41	2.0	1014	-4.3	270	1	70
2026-02-01T23:42	2.2	1014	-4.1	270	1	70
2026-02-01T23:43	2.4	1014	-4.1	270	1	70
2026-02-01T23:44	2.5	1014	-4.0	280	1	70
2026-02-01T23:45	2.4	1014	-4.6	280	1	70
2026-02-01T23:46	2.9	1014	-3.9	280	1	70
2026-02-01T23:47	2.9	1014	-4.1	280	1	70
2026-02-01T23:48	2.8	1014	-4.2	280	1	70
2026-02-01T23:49	2.8	1014	-4.4	280	1	70
2026-02-01T23:50	3.1	1014	-3.9	280	2	70
2026-02-01T23:51	2.9	1014	-4.3	270	2	70
2026-02-01T23:52	2.9	1014	-4.5	270	2	70
2026-02-01T23:53	3.0	1014	-4.4	270	2	70
2026-02-01T23:54	2.9	1014	-4.8	270	2	70
2026-02-01T23:55	3.1	1014	-4.6	270	2	70
2026-02-01T23:56	3.5	1014	-4.0	270	2	70
2026-02-01T23:57	3.6	1014	-4.1	270	2	70
2026-02-01T23:58	3.5	1014	-4.7	270	2	70
2026-02-01T23:59	3.3	1014	-5.1	270	2	70
2026-02-02T00:00	3.6	1014	-4.6	270	2	70
2026-02-02T00:01	3.6	1014	-4.6	270	2	70
2026-02-02T00:02	3.5	1014	-4.7	270	2	70
2026-02-02T00:03	3.6	1014	-4.6	260	2	70
2026-02-02T00:04	3.6	1014	-4.8	260	2	70
2026-02-02T00:05	3.6	1014	-5.1	260	2	70
2026-02-02T00:06	3.7	1014	-5.0	260	2	70
2026-02-02T00:07	3.8	1014	-4.9	270	2	70
2026-02-02T00:08	3.8	1014	-4.9	270	2	70
2026-02-02T00:09	4.1	1014	-4.6	270	2	70
2026-02-02T00:10	4.1	1014	-4.9	270	3	70
2026-02-02T00:11	4.2	1014	-4.8	260	3	70
2026-02-02T00:12	4.1	1014	-5.1	260	3	70
2026-02-02T00:13	4.6	1014	-4.4	260	3	70
2026-02-02T00:14	4.4	1014	-4.8	260	3	70
2026-02-02T00:15	4.4	1014	-5.1	260	2	70
2026-02-02T00:16	4.3	1014	-5.2	260	2	70
2026-02-02T00:17	4.4	1014	-5.1	260	2	70
2026-02-02T00:18	4.5	1014	-5.0	260	2	70
2026-02-02T00:19	4.2	1014	-5.5	260	2	70
2026-02-02T00:20	4.3	1014	-5.2	270	2	70
2026-02-02T00:21	4.5	1014	-5.0	270	2	70
2026-02-02T00:22	4.8	1014	-4.7	270	2	70
2026-02-02T00:23	4.8	1014	-4.7	280	3	70
2026-02-02T00:24	4.9	1014	-4.6	280	3	70
2026-02-02T00:25	5.5	1014	-4.1	280	3	70
2026-02-02T00:26	5.4	1014	-4.4	280	3	70
2026-02-02T00:27	5.0	1014	-5.1	280	3	70
2026-02-02T00:28	4.9	1014	-5.2	280	3	70
2026-02-02T00:29	5.0	1014	-4.8	280	3	70
2026-02-02T00:30	5.3	1014	-4.5	280	3	70
2026-02-02T00:31	5.3	1014	-4.5	270	3	70
2026-02-02T00:32	5.8	1014	-4.1	270	3	70
2026-02-02T00:33	5.5	1014	-4.9	270	3	70
2026-02-02T00:34	5.6	1014	-4.8	270	3	70
2026-02-02T00:35	5.8	1014	-4.6	270	3	70
2026-02-02T00:36	5.6	1014	-5.1	270	3	70
2026-02-02T00:37	5.7	1014	-5.0	270	3	70
2026-02-02T00:38	5.7	1014	-5.0	270	3	70
2026-02-02T00:39	5.5	1014	-5.2	280	3	70
2026-02-02T00:40	5.3	1014	-5.4	270	3	70
2026-02-02T00:41	5.2	1014	-5.2	270	3	70
2026-02-02T00:42	5.4	1014	-5.0	270	3	70
2026-02-02T00:43	5.5	1014	-4.9	270	3	70
2026-02-02T00:44	5.5	1014	-4.9	270	3	70
2026-02-02T00:45	5.6	1014	-4.8	270	3	70
2026-02-02T00:46	5.6	1014	-4.8	270	3	70
2026-02-02T00:47	5.6	1014	-4.8	270	3	70
2026-02-02T00:48	5.7	1014	-5.0	270	3	70
2026-02-02T00:49	5.8	1014	-4.9	260	3	70
2026-02-02T00:50	5.8	1014	-4.9	260	3	70
2026-02-02T00:51	6.0	1014	-4.7	260	3	70
2026-02-02T00:52	6.2	1014	-4.5	260	3	70
2026-02-02T00:53	6.7	1014	-4.1	250	3	70
2026-02-02T00:54	6.5	1014	-4.6	250	3	70
2026-02-02T00:55	6.3	1014	-4.7	250	3	70
2026-02-02T00:56	6.1	1014	-5.2	250	3	70
2026-02-02T00:57	6.6	1014	-4.5	250	3	70
2026-02-02T00:58	6.4	1014	-4.9	250	3	70
2026-02-02T00:59	6.1	1014	-5.5	240	3	70
2026-02-02T01:00	6.3	1014	-5.3	250	3	70
2026-02-02T01:01	6.1	1014	-5.5	250	3	70
2026-02-02T01:02	6.3	1014	-5.3	250	3	70
2026-02-02T01:03	6.8	1014	-4.6	250	3	70
2026-02-02T01:04	7.3	1014	-4.4	250	3	70
2026-02-02T01:05	6.5	1014	-5.8	250	3	70
2026-02-02T01:06	6.4	1014	-5.6	250	3	70
2026-02-02T01:07	6.2	1014	-5.7	250	3	70
2026-02-02T01:08	6.3	1014	-5.3	250	3	70
2026-02-02T01:09	6.1	1014	-5.8	250	3	70
2026-02-02T01:10	6.2	1014	-5.7	250	3	70
2026-02-02T01:11	6.2	1014	-5.4	250	3	70
2026-02-02T01:12	6.2	1014	-5.4	260	2	70
2026-02-02T01:13	6.5	1014	-5.2	260	2	70
2026-02-02T01:14	6.5	1014	-5.5	260	2	70
2026-02-02T01:15	6.5	1014	-5.5	260	2	70
2026-02-02T01:16	6.6	1014	-5.4	260	2	70
2026-02-02T01:17	6.6	1014	-5.4	260	2	70
2026-02-02T01:18	6.6	1014	-5.7	260	2	70
2026-02-02T01:19	6.6	1014	-5.7	260	2	70
2026-02-02T01:20	6.6	1014	-5.7	270	2	70
2026-02-02T01:21	6.6	1014	-5.7	270	2	70
2026-02-02T01:22	6.6	1014	-5.4	270	2	70
2026-02-02T01:23	7.1	1014	-4.9	270	2	70
2026-02-02T01:24	6.9	1014	-5.4	270	2	70
2026-02-02T01:25	7.1	1014	-5.2	270	2	70
2026-02-02T01:26	6.9	1014	-5.4	270	2	70
2026-02-02T01:27	7.0	1014	-5.7	270	3	70
2026-02-02T01:28	6.7	1014	-5.9	270	2	70
2026-02-02T01:29	6.6	1014	-5.7	270	2	70
2026-02-02T01:30	6.7	1014	-5.6	270	2	70
2026-02-02T01:31	6.8	1014	-5.5	270	2	70
2026-02-02T01:32	6.8	1014	-5.5	270	2	70
2026-02-02T01:33	6.8	1014	-5.5	270	2	70
2026-02-02T01:34	7.3	1014	-5.1	270	2	70
2026-02-02T01:35	7.4	1014	-5.3	270	2	70
2026-02-02T01:36	7.5	1014	-5.2	270	3	70
2026-02-02T01:37	7.5	1014	-5.2	270	2	70
2026-02-02T01:38	8.0	1014	-4.8	270	3	70
2026-02-02T01:39	7.7	1014	-5.4	260	3	70
2026-02-02T01:40	7.8	1014	-5.3	260	3	70
2026-02-02T01:41	7.9	1014	-5.2	260	3	70
2026-02-02T01:42	7.9	1014	-5.5	260	3	70
2026-02-02T01:43	8.1	1014	-5.7	260	3	70
2026-02-02T01:44	7.9	1014	-6.2	260	3	70
2026-02-02T01:45	7.7	1014	-6.4	270	3	70
2026-02-02T01:46	7.9	1014	-5.9	270	2	70
2026-02-02T01:47	8.1	1014	-5.7	270	2	70
2026-02-02T01:48	7.7	1014	-6.4	280	2	70
2026-02-02T01:49	7.3	1014	-6.8	290	2	70
2026-02-02T01:50	7.6	1014	-6.1	290	2	70
2026-02-02T01:51	7.6	1014	-6.1	300	2	70
2026-02-02T01:52	7.7	1014	-6.1	310	2	70
2026-02-02T01:53	8.0	1014	-5.8	310	2	70
2026-02-02T01:54	8.2	1014	-5.6	320	2	70
2026-02-02T01:55	7.9	1014	-6.2	320	2	70
2026-02-02T01:56	8.0	1014	-6.1	320	2	70
2026-02-02T01:57	8.6	1014	-5.2	320	3	70
2026-02-02T01:58	8.9	1014	-5.3	320	3	70
2026-02-02T01:59	8.7	1014	-5.9	310	3	70
2026-02-02T02:00	8.5	1014	-6.1	300	3	70
2026-02-02T02:01	8.3	1014	-6.2	300	3	70
2026-02-02T02:02	8.8	1014	-5.4	290	3	70
2026-02-02T02:03	8.1	1014	-6.8	290	3	70
2026-02-02T02:04	8.1	1014	-6.4	290	3	70
2026-02-02T02:05	8.0	1014	-6.1	290	3	70
2026-02-02T02:06	8.3	1013	-5.9	290	3	70
2026-02-02T02:07	8.1	1013	-6.1	300	3	70
2026-02-02T02:08	7.9	1013	-6.2	310	3	70
2026-02-02T02:09	8.4	1013	-5.8	310	3	70
2026-02-02T02:10	8.9	1013	-5.0	320	3	70
2026-02-02T02:11	9.2	1013	-5.1	320	3	70
2026-02-02T02:12	8.9	1013	-5.7	320	3	70
2026-02-02T02:13	8.7	1013	-5.9	320	2	70
2026-02-02T02:14	8.8	1013	-5.8	310	2	70
2026-02-02T02:15	8.8	1013	-6.2	310	2	70
2026-02-02T02:16	8.8	1013	-6.2	310	2	70
2026-02-02T02:17	9.1	1013	-5.9	300	2	70
2026-02-02T02:18	8.9	1013	-6.5	300	2	70
2026-02-02T02:19	9.0	1013	-6.4	300	2	70
2026-02-02T02:20	9.1	1013	-6.3	300	2	70
2026-02-02T02:21	8.7	1013	-6.7	300	2	70
2026-02-02T02:22	8.7	1013	-6.7	300	2	70
2026-02-02T02:23	8.8	1013	-6.6	300	3	70
2026-02-02T02:24	9.4	1013	-5.7	300	3	70
2026-02-02T02:25	9.3	1013	-6.1	300	3	70
2026-02-02T02:26	9.3	1013	-6.1	300	3	70
2026-02-02T02:27	9.1	1013	-6.3	300	3	70
2026-02-02T02:28	9.2	1013	-6.2	300	3	70
2026-02-02T02:29	9.5	1013	-6.0	290	3	70
2026-02-02T02:30	10.2	1013	-5.3	290	3	70
2026-02-02T02:31	10.0	1013	-5.9	280	3	70
2026-02-02T02:32	9.5	1013	-6.8	280	3	70
2026-02-02T02:33	9.8	1013	-6.1	290	3	70
2026-02-02T02:34	10.1	1013	-6.2	290	3	70
2026-02-02T02:35	9.8	1013	-6.5	300	3	70
2026-02-02T02:36	9.7	1013	-6.6	300	3	70
2026-02-02T02:37	10.3	1013	-5.7	300	3	70
2026-02-02T02:38	10.3	1013	-6.1	290	3	70
2026-02-02T02:39	10.1	1013	-6.7	290	3	70
2026-02-02T02:40	9.8	1013	-6.9	290	3	70
2026-02-02T02:41	10.5	1013	-5.9	290	3	70
2026-02-02T02:42	9.9	1013	-6.9	290	3	70
2026-02-02T02:43	9.9	1013	-6.9	290	3	70
2026-02-02T02:44	9.9	1013	-6.4	280	3	70
2026-02-02T02:45	10.0	1013	-6.3	280	3	70
2026-02-02T02:46	10.3	1013	-6.1	270	3	70
2026-02-02T02:47	9.9	1013	-6.9	270	3	70
2026-02-02T02:48	9.9	1013	-6.9	280	3	70
2026-02-02T02:49	9.8	1013	-6.9	270	2	70
2026-02-02T02:50	10.1	1013	-6.2	270	3	70
2026-02-02T02:51	10.7	1013	-5.7	270	3	70
2026-02-02T02:52	10.7	1013	-6.2	270	3	70
2026-02-02T02:53	10.4	1012	-6.4	270	3	70
2026-02-02T02:54	10.2	1012	-7.0	270	3	70
2026-02-02T02:55	10.5	1012	-6.3	280	3	70
2026-02-02T02:56	10.3	1012	-6.5	290	3	70
2026-02-02T02:57	9.9	1012	-7.3	290	3	70
2026-02-02T02:58	10.0	1012	-6.8	290	3	70
2026-02-02T02:59	10.4	1012	-6.4	300	3	70
2026-02-02T03:00	10.3	1012	-6.9	310	3	70
2026-02-02T03:01	10.0	1012	-7.2	310	3	70
2026-02-02T03:02	10.1	1012	-7.1	310	3	70
2026-02-02T03:03	10.7	1012	-6.2	310	3	70
2026-02-02T03:04	10.8	1012	-6.1	310	3	70
2026-02-02T03:05	10.8	1012	-6.5	310	3	70
2026-02-02T03:06	10.8	1012	-6.5	310	3	70
2026-02-02T03:07	10.5	1012	-6.8	310	3	70
2026-02-02T03:08	10.5	1012	-6.8	310	3	70
2026-02-02T03:09	10.6	1012	-6.7	310	3	70
2026-02-02T03:10	10.6	1012	-6.7	300	3	70
2026-02-02T03:11	10.3	1012	-6.9	300	3	70
2026-02-02T03:12	10.3	1012	-6.9	300	3	70
2026-02-02T03:13	10.8	1012	-6.5	300	3	70
2026-02-02T03:14	10.4	1012	-6.9	300	3	70
2026-02-02T03:15	10.2	1012	-7.0	300	3	70
2026-02-02T03:16	10.4	1012	-6.4	300	3	70
2026-02-02T03:17	10.6	1012	-6.2	300	3	70
2026-02-02T03:18	10.8	1012	-6.1	300	3	70
2026-02-02T03:19	10.6	1012	-6.7	310	3	70
2026-02-02T03:20	10.9	1012	-6.0	310	3	70
2026-02-02T03:21	11.3	1012	-5.6	300	3	70
2026-02-02T03:22	11.1	1012	-6.2	300	3	70
2026-02-02T03:23	10.9	1012	-6.4	300	3	70
2026-02-02T03:24	11.1	1012	-5.8	300	3	70
2026-02-02T03:25	10.9	1011	-6.4	290	3	70
2026-02-02T03:26	11.1	1011	-5.8	290	3	70
2026-02-02T03:27	10.9	1011	-6.0	290	3	70
2026-02-02T03:28	10.7	1011	-6.6	290	3	70
2026-02-02T03:29	10.6	1011	-6.7	290	3	70
2026-02-02T03:30	10.6	1011	-6.2	280	3	70
2026-02-02T03:31	10.6	1011	-6.2	280	2	70
2026-02-02T03:32	10.8	1011	-6.1	280	3	70
2026-02-02T03:33	11.1	1011	-5.4	290	3	70
2026-02-02T03:34	10.9	1011	-5.5	290	3	70
2026-02-02T03:35	11.0	1011	-5.5	300	3	70
2026-02-02T03:36	11.0	1011	-5.5	300	3	70
2026-02-02T03:37	11.1	1011	-5.4	290	3	70
2026-02-02T03:38	10.9	1011	-5.5	290	3	70
2026-02-02T03:39	10.7	1011	-5.7	290	3	70
2026-02-02T03:40	11.0	1011	-5.5	280	3	70
2026-02-02T03:41	11.1	1011	-5.4	280	4	70
2026-02-02T03:42	11.2	1011	-5.3	280	4	70
2026-02-02T03:43	11.0	1011	-5.9	280	4	70
2026-02-02T03:44	11.0	1011	-5.5	280	4	70
2026-02-02T03:45	11.1	1011	-5.4	270	4	70
2026-02-02T03:46	11.4	1011	-5.1	270	4	70
2026-02-02T03:47	11.2	1011	-5.7	270	4	70
2026-02-02T03:48	11.2	1011	-5.7	270	4	70
2026-02-02T03:49	12.2	1011	-4.4	270	4	70
2026-02-02T03:50	11.5	1011	-5.9	280	4	70
2026-02-02T03:51	10.6	1011	-6.7	280	4	70
2026-02-02T03:52	10.9	1011	-6.0	290	3	70
2026-02-02T03:53	10.8	1011	-6.1	280	3	70
2026-02-02T03:54	10.4	1011	-6.4	280	3	70
2026-02-02T03:55	10.6	1011	-6.2	290	3	70
2026-02-02T03:56	10.7	1011	-6.2	300	3	70
2026-02-02T03:57	11.4	1011	-5.1	290	3	70
2026-02-02T03:58	11.5	1011	-5.9	300	3	70
2026-02-02T03:59	11.0	1011	-6.8	300	3	70
2026-02-02T04:00	10.9	1011	-6.9	300	3	70
2026-02-02T04:01	10.8	1011	-7.0	310	3	70
2026-02-02T04:02	10.7	1011	-6.6	310	3	70
2026-02-02T04:03	10.8	1011	-6.5	310	3	70
2026-02-02T04:04	11.4	1011	-6.0	320	4	70
2026-02-02T04:05	11.2	1011	-6.6	310	4	70
2026-02-02T04:06	11.0	1011	-6.8	320	4	70
2026-02-02T04:07	10.9	1011	-6.9	330	4	70
2026-02-02T04:08	10.6	1011	-7.1	330	4	70
2026-02-02T04:09	10.7	1011	-7.1	330	4	70
2026-02-02T04:10	11.1	1011	-6.2	340	3	70
2026-02-02T04:11	10.8	1011	-7.0	330	3	70
2026-02-02T04:12	10.7	1011	-7.1	330	3	70
2026-02-02T04:13	10.8	1011	-6.5	320	3	70
2026-02-02T04:14	10.9	1011	-6.4	320	3	70
2026-02-02T04:15	10.8	1011	-7.0	310	3	70
2026-02-02T04:16	10.6	1011	-7.1	300	3	70
2026-02-02T04:17	11.0	1011	-6.8	280	3	70
2026-02-02T04:18	11.7	1011	-5.7	270	3	70
2026-02-02T04:19	11.7	1011	-6.2	270	3	70
2026-02-02T04:20	11.3	1011	-7.0	260	3	70
2026-02-02T04:21	11.3	1011	-7.0	260	3	70
2026-02-02T04:22	11.3	1011	-7.0	260	3	70
2026-02-02T04:23	10.9	1011	-7.4	260	3	70
2026-02-02T04:24	11.0	1011	-7.3	260	3	70
2026-02-02T04:25	11.3	1011	-7.0	270	3	70
2026-02-02T04:26	10.9	1011	-7.4	260	3	70
2026-02-02T04:27	11.0	1011	-7.3	260	3	70
2026-02-02T04:28	11.2	1011	-7.1	260	2	70
2026-02-02T04:29	11.2	1011	-8.1	270	2	70
2026-02-02T04:30	11.5	1011	-7.3	270	2	70
2026-02-02T04:31	12.0	1011	-6.9	270	2	70
2026-02-02T04:32	12.4	1011	-7.1	270	2	70
2026-02-02T04:33	11.5	1011	-8.9	280	3	70
2026-02-02T04:34	11.1	1011	-9.2	280	3	70
2026-02-02T04:35	11.0	1011	-9.3	290	3	70
2026-02-02T04:36	11.1	1011	-8.7	300	3	70
2026-02-02T04:37	11.3	1011	-8.5	310	3	70
2026-02-02T04:38	11.2	1011	-9.2	310	3	70
2026-02-02T04:39	11.4	1011	-8.4	310	3	70
2026-02-02T04:40	11.3	1011	-8.5	310	3	70
2026-02-02T04:41	11.4	1011	-8.4	310	3	70
2026-02-02T04:42	11.4	1011	-8.4	310	3	70
2026-02-02T04:43	11.1	1011	-8.7	300	3	70
2026-02-02T04:44	11.5	1011	-8.4	300	3	70
2026-02-02T04:45	12.1	1011	-7.3	300	3	70
2026-02-02T04:46	11.3	1011	-9.1	300	3	70
2026-02-02T04:47	10.9	1011	-8.9	290	3	70
2026-02-02T04:48	11.4	1011	-8.4	290	3	70
2026-02-02T04:49	11.5	1011	-8.4	280	2	70
2026-02-02T04:50	12.0	1011	-7.9	270	2	70
2026-02-02T04:51	12.0	1011	-7.9	270	2	70
2026-02-02T04:52	12.0	1011	-8.5	270	2	70
2026-02-02T04:53	12.0	1011	-8.5	270	2	70
2026-02-02T04:54	11.4	1011	-9.5	270	2	70
2026-02-02T04:55	11.3	1011	-9.6	270	2	70
2026-02-02T04:56	11.5	1011	-8.9	270	2	70
2026-02-02T04:57	11.8	1011	-8.7	280	2	70
2026-02-02T04:58	11.8	1011	-8.7	280	2	70
2026-02-02T04:59	11.5	1011	-9.5	280	2	70
2026-02-02T05:00	11.1	1011	-9.8	280	2	70
2026-02-02T05:01	11.2	1011	-9.2	280	2	70
2026-02-02T05:02	11.2	1011	-9.7	280	2	70
2026-02-02T05:03	11.3	1011	-9.1	270	3	70
2026-02-02T05:04	11.1	1011	-9.8	260	3	70
2026-02-02T05:05	11.1	1011	-9.2	250	3	70
2026-02-02T05:06	11.0	1011	-9.3	250	3	70
2026-02-02T05:07	11.3	1011	-9.1	240	3	70
2026-02-02T05:08	11.5	1011	-8.9	250	3	70
2026-02-02T05:09	11.5	1011	-8.9	250	3	70
2026-02-02T05:10	11.5	1011	-8.9	250	3	70
2026-02-02T05:11	11.1	1011	-9.2	250	3	70
2026-02-02T05:12	11.5	1011	-8.9	260	3	70
2026-02-02T05:13	11.7	1011	-8.7	260	3	70
2026-02-02T05:14	11.6	1010	-8.8	260	3	70
2026-02-02T05:15	11.5	1010	-8.9	260	3	70
2026-02-02T05:16	11.3	1010	-9.1	260	2	70
2026-02-02T05:17	11.3	1010	-9.1	260	2	70
2026-02-02T05:18	11.5	1010	-8.9	250	2	70
2026-02-02T05:19	11.6	1010	-8.8	250	2	70
2026-02-02T05:20	11.8	1010	-8.7	250	3	70
2026-02-02T05:21	11.5	1010	-8.9	250	3	70
2026-02-02T05:22	12.0	1010	-8.5	250	3	70
2026-02-02T05:23	12.0	1010	-8.5	260	3	70
2026-02-02T05:24	11.8	1010	-9.2	260	3	70
2026-02-02T05:25	11.7	1010	-9.3	270	3	70
2026-02-02T05:26	11.5	1010	-8.9	260	3	70
2026-02-02T05:27	11.6	1010	-8.8	270	3	70
2026-02-02T05:28	11.7	1010	-8.7	270	3	70
2026-02-02T05:29	11.8	1010	-8.7	260	3	70
2026-02-02T05:30	11.5	1010	-8.9	260	3	70
2026-02-02T05:31	11.3	1010	-9.1	260	3	70
2026-02-02T05:32	11.1	1010	-9.2	260	3	70
2026-02-02T05:33	11.2	1010	-9.2	260	3	70
2026-02-02T05:34	11.3	1010	-9.1	260	3	70
2026-02-02T05:35	11.3	1010	-9.1	260	3	70
2026-02-02T05:36	11.2	1010	-9.2	260	3	70
2026-02-02T05:37	11.0	1010	-9.3	270	3	70
2026-02-02T05:38	11.1	1010	-9.2	270	3	70
2026-02-02T05:39	11.3	1010	-8.5	270	3	70
2026-02-02T05:40	11.4	1010	-8.4	280	2	70
2026-02-02T05:41	11.3	1010	-9.1	280	2	70
2026-02-02T05:42	11.4	1010	-9.0	270	2	70
2026-02-02T05:43	11.7	1010	-8.2	270	2	70
2026-02-02T05:44	11.8	1010	-8.7	270	3	70
2026-02-02T05:45	11.4	1010	-9.0	270	3	70
2026-02-02T05:46	11.7	1010	-8.2	270	3	70
2026-02-02T05:47	11.6	1010	-8.3	260	3	70
2026-02-02T05:48	11.6	1011	-8.8	260	3	70
2026-02-02T05:49	11.4	1011	-9.0	260	3	70
2026-02-02T05:50	11.1	1011	-9.2	260	3	70
2026-02-02T05:51	11.1	1011	-9.2	260	3	70
2026-02-02T05:52	11.2	1011	-9.2	260	3	70
2026-02-02T05:53	11.1	1011	-9.2	260	3	70
2026-02-02T05:54	11.1	1011	-8.7	260	3	70
2026-02-02T05:55	11.2	1011	-8.6	260	2	70
2026-02-02T05:56	11.0	1011	-9.3	260	2	70
2026-02-02T05:57	11.4	1011	-8.4	260	2	70
2026-02-02T05:58	11.7	1011	-8.2	260	2	70
2026-02-02T05:59	11.7	1011	-8.2	260	2	70
2026-02-02T06:00	11.7	1011	-8.2	250	2	70
2026-02-02T06:01	11.8	1010	-8.1	250	2	70
2026-02-02T06:02	11.3	1010	-9.1	240	2	70
2026-02-02T06:03	11.1	1010	-9.2	240	2	70
2026-02-02T06:04	11.2	1010	-8.6	240	2	70
2026-02-02T06:05	11.3	1010	-8.5	240	3	70
2026-02-02T06:06	11.2	1010	-8.6	230	3	70
2026-02-02T06:07	11.1	1010	-8.7	230	3	70
2026-02-02T06:08	11.1	1011	-8.7	230	2	70
2026-02-02T06:09	11.1	1011	-8.7	230	2	70
2026-02-02T06:10	11.0	1011	-8.8	230	2	70
2026-02-02T06:11	11.1	1011	-8.7	230	2	70
2026-02-02T06:12	11.1	1011	-8.7	240	2	70
2026-02-02T06:13	11.1	1011	-8.7	240	2	70
2026-02-02T06:14	11.3	1011	-8.5	250	2	70
2026-02-02T06:15	11.4	1010	-8.4	250	2	70
2026-02-02T06:16	11.3	1010	-9.1	250	3	70
2026-02-02T06:17	11.3	1010	-9.1	250	3	70
2026-02-02T06:18	11.0	1010	-9.3	250	3	70
2026-02-02T06:19	11.0	1010	-9.3	250	3	70
2026-02-02T06:20	11.1	1010	-9.2	240	3	70
2026-02-02T06:21	11.2	1010	-8.6	240	3	70
2026-02-02T06:22	11.3	1010	-8.5	230	3	70
2026-02-02T06:23	11.2	1010	-8.6	230	3	70
2026-02-02T06:24	11.4	1010	-9.0	230	3	70
2026-02-02T06:25	11.3	1010	-9.1	230	3	70
2026-02-02T06:26	11.3	1010	-9.1	230	3	70
2026-02-02T06:27	11.2	1010	-9.2	230	3	70
2026-02-02T06:28	11.4	1010	-8.4	230	3	70
2026-02-02T06:29	11.4	1010	-8.4	230	3	70
2026-02-02T06:30	11.3	1010	-8.5	230	3	70
2026-02-02T06:31	11.0	1010	-8.8	230	3	70
2026-02-02T06:32	11.1	1010	-8.7	230	3	70
2026-02-02T06:33	11.1	1010	-8.7	230	3	70
2026-02-02T06:34	11.2	1010	-8.6	230	3	70
2026-02-02T06:35	11.1	1010	-9.2	230	3	70
2026-02-02T06:36	11.0	1010	-9.3	230	3	70
2026-02-02T06:37	10.9	1010	-9.4	230	3	70
2026-02-02T06:38	11.0	1010	-9.3	220	3	70
2026-02-02T06:39	10.9	1010	-9.4	220	2	70
2026-02-02T06:40	11.1	1010	-8.7	220	2	70
2026-02-02T06:41	11.1	1010	-8.7	220	2	70
2026-02-02T06:42	11.0	1010	-9.3	220	2	70
2026-02-02T06:43	10.9	1010	-9.4	230	2	70
2026-02-02T06:44	10.9	1010	-9.4	230	2	70
2026-02-02T06:45	11.0	1010	-8.8	230	2	70
2026-02-02T06:46	10.9	1010	-8.9	240	2	70
2026-02-02T06:47	11.1	1010	-8.7	250	2	70
2026-02-02T06:48	11.1	1010	-8.7	260	2	70
2026-02-02T06:49	11.0	1010	-8.8	260	2	70
2026-02-02T06:50	10.8	1010	-9.0	270	2	70
2026-02-02T06:51	10.8	1010	-9.0	280	2	70
2026-02-02T06:52	10.6	1011	-9.1	280	2	70
2026-02-02T06:53	10.6	1011	-9.1	280	2	70
2026-02-02T06:54	10.7	1011	-8.5	280	2	70
2026-02-02T06:55	10.8	1011	-9.0	280	2	70
2026-02-02T06:56	11.0	1011	-8.8	280	2	70
2026-02-02T06:57	10.9	1011	-8.9	270	2	70
2026-02-02T06:58	10.9	1011	-8.9	260	2	70
2026-02-02T06:59	10.9	1011	-8.9	260	2	70
2026-02-02T07:00	10.8	1011	-9.0	250	2	70
2026-02-02T07:01	10.7	1011	-9.0	240	2	70
2026-02-02T07:02	10.6	1011	-9.1	240	2	70
2026-02-02T07:03	10.6	1011	-9.1	240	2	70
2026-02-02T07:04	10.6	1011	-9.1	230	2	70
2026-02-02T07:05	10.6	1011	-8.6	230	2	70
2026-02-02T07:06	10.5	1011	-8.7	230	3	70
2026-02-02T07:07	10.5	1011	-8.7	230	3	70
2026-02-02T07:08	10.5	1011	-8.7	230	3	70
2026-02-02T07:09	10.4	1011	-8.8	230	3	70
2026-02-02T07:10	10.4	1011	-8.8	230	3	70
2026-02-02T07:11	10.4	1011	-8.8	230	3	70
2026-02-02T07:12	10.4	1011	-8.8	230	2	70
2026-02-02T07:13	10.4	1011	-8.8	230	2	70
2026-02-02T07:14	10.4	1011	-8.8	230	2	70
2026-02-02T07:15	10.4	1011	-8.8	240	2	70
2026-02-02T07:16	10.3	1011	-8.4	240	2	70
2026-02-02T07:17	10.1	1011	-8.0	240	2	70
2026-02-02T07:18	10.0	1011	-7.7	240	2	70
2026-02-02T07:19	10.1	1011	-7.6	240	2	70
2026-02-02T07:20	10.1	1011	-7.6	240	2	70
2026-02-02T07:21	10.2	1011	-8.0	250	2	70
2026-02-02T07:22	10.2	1011	-8.0	250	2	70
2026-02-02T07:23	10.2	1011	-8.0	250	2	70
2026-02-02T07:24	10.1	1011	-7.6	250	3	70
2026-02-02T07:25	10.0	1011	-7.7	260	3	70
2026-02-02T07:26	10.1	1011	-8.0	260	3	70
2026-02-02T07:27	9.9	1011	-7.7	260	3	70
2026-02-02T07:28	9.9	1011	-7.7	260	3	70
2026-02-02T07:29	10.0	1011	-8.1	260	3	70
2026-02-02T07:30	9.8	1011	-7.8	270	2	70
2026-02-02T07:31	9.8	1011	-7.4	270	2	70
2026-02-02T07:32	9.9	1011	-7.7	270	3	70
2026-02-02T07:33	10.0	1011	-8.1	270	3	70
2026-02-02T07:34	9.9	1011	-8.2	270	3	70
2026-02-02T07:35	9.7	1011	-7.9	270	3	70
2026-02-02T07:36	9.9	1011	-8.2	270	3	70
2026-02-02T07:37	9.9	1011	-8.2	270	3	70
2026-02-02T07:38	9.9	1011	-8.2	270	3	70
2026-02-02T07:39	10.0	1011	-8.6	270	3	70
2026-02-02T07:40	9.9	1011	-8.2	270	3	70
2026-02-02T07:41	9.7	1011	-8.4	270	3	70
2026-02-02T07:42	9.8	1011	-8.3	270	3	70
2026-02-02T07:43	9.9	1011	-8.2	260	3	70
2026-02-02T07:44	9.9	1011	-8.2	260	3	70
2026-02-02T07:45	10.0	1011	-8.6	260	2	70
2026-02-02T07:46	9.8	1011	-8.3	260	2	70
2026-02-02T07:47	9.8	1011	-8.3	260	2	70
2026-02-02T07:48	9.6	1011	-8.0	260	2	70
2026-02-02T07:49	9.7	1011	-8.4	260	2	70
2026-02-02T07:50	9.8	1011	-8.3	260	2	70
2026-02-02T07:51	9.8	1011	-8.3	260	2	70
2026-02-02T07:52	9.9	1011	-8.7	260	2	70
2026-02-02T07:53	9.9	1011	-8.7	260	2	70
2026-02-02T07:54	9.6	1011	-8.5	260	2	70
2026-02-02T07:55	9.6	1011	-8.0	270	2	70
2026-02-02T07:56	9.4	1011	-8.2	270	2	70
2026-02-02T07:57	9.4	1011	-7.7	270	2	70
2026-02-02T07:58	9.4	1011	-8.2	270	2	70
2026-02-02T07:59	9.3	1011	-7.8	270	2	70
2026-02-02T08:00	9.3	1011	-7.8	270	2	70
2026-02-02T08:01	9.4	1011	-8.2	270	1	70
2026-02-02T08:02	9.6	1011	-8.0	270	1	70
2026-02-02T08:03	9.5	1011	-8.1	270	1	70
2026-02-02T08:04	9.5	1011	-8.1	270	1	70
2026-02-02T08:05	9.4	1011	-8.2	260	1	70
2026-02-02T08:06	9.5	1011	-8.1	260	2	70
2026-02-02T08:07	9.4	1011	-8.2	260	2	70
2026-02-02T08:08	9.2	1011	-8.4	250	2	70
2026-02-02T08:09	9.2	1011	-7.9	250	2	70
2026-02-02T08:10	9.2	1011	-7.9	250	2	70
2026-02-02T08:11	9.4	1011	-8.2	250	2	70
2026-02-02T08:12	9.3	1011	-7.8	250	2	70
2026-02-02T08:13	9.2	1011	-7.9	250	2	70
2026-02-02T08:14	9.3	1011	-7.8	250	2	70
2026-02-02T08:15	9.2	1011	-7.9	250	2	70
2026-02-02T08:16	9.0	1011	-8.1	260	2	70
2026-02-02T08:17	9.0	1011	-8.1	260	2	70
2026-02-02T08:18	9.3	1011	-7.8	260	2	70
2026-02-02T08:19	9.3	1011	-7.8	260	2	70
2026-02-02T08:20	9.0	1011	-8.1	260	2	70
2026-02-02T08:21	9.0	1011	-7.6	260	2	70
2026-02-02T08:22	9.2	1011	-7.9	260	2	70
2026-02-02T08:23	8.9	1011	-7.7	260	2	70
2026-02-02T08:24	8.8	1011	-7.8	260	2	70
2026-02-02T08:25	8.9	1011	-7.7	260	2	70
2026-02-02T08:26	9.1	1011	-8.0	270	2	70
2026-02-02T08:27	8.9	1011	-7.7	270	2	70
2026-02-02T08:28	8.8	1011	-7.8	270	2	70
2026-02-02T08:29	8.9	1011	-7.7	270	2	70
2026-02-02T08:30	9.0	1011	-8.1	270	2	70
2026-02-02T08:31	8.9	1011	-8.2	270	2	70
2026-02-02T08:32	8.9	1011	-7.7	270	2	70
2026-02-02T08:33	8.9	1011	-8.2	270	2	70
2026-02-02T08:34	8.8	1011	-7.8	270	2	70
2026-02-02T08:35	8.8	1011	-7.8	280	2	70
2026-02-02T08:36	8.8	1011	-7.8	280	2	70
2026-02-02T08:37	8.6	1011	-8.0	280	2	70
2026-02-02T08:38	8.3	1011	-7.8	290	2	70
2026-02-02T08:39	8.2	1011	-7.5	290	2	70
2026-02-02T08:40	8.0	1011	-7.3	300	2	70
2026-02-02T08:41	8.2	1011	-7.1	310	2	70
2026-02-02T08:42	8.3	1011	-6.6	320	2	70
2026-02-02T08:43	8.2	1011	-6.3	320	2	70
2026-02-02T08:44	8.5	1011	-6.5	330	2	70
2026-02-02T08:45	8.8	1011	-6.6	340	2	70
2026-02-02T08:46	8.8	1011	-6.6	340	2	70
2026-02-02T08:47	8.7	1011	-6.3	350	3	70
2026-02-02T08:48	8.7	1011	-6.3	350	3	70
2026-02-02T08:49	8.7	1011	-5.9	360	3	70
2026-02-02T08:50	8.6	1011	-6.0	360	3	70
2026-02-02T08:51	8.6	1011	-5.6	360	3	70
2026-02-02T08:52	8.6	1012	-5.6	10	3	70
2026-02-02T08:53	8.5	1012	-5.3	360	2	70
2026-02-02T08:54	8.5	1012	-5.3	10	2	70
2026-02-02T08:55	8.3	1012	-5.5	10	2	70
2026-02-02T08:56	8.2	1012	-5.6	20	2	70
2026-02-02T08:57	8.1	1012	-5.7	20	2	70
2026-02-02T08:58	8.1	1012	-5.3	20	2	70
2026-02-02T08:59	8.1	1012	-5.3	20	2	70
2026-02-02T09:00	8.1	1012	-4.7	20	2	70
2026-02-02T09:01	8.1	1012	-4.3	30	2	70
2026-02-02T09:02	8.3	1012	-4.2	30	2	70
2026-02-02T09:03	8.3	1012	-4.2	40	2	70
2026-02-02T09:04	8.3	1012	-4.2	50	2	70
2026-02-02T09:05	8.2	1012	-3.9	50	2	70
2026-02-02T09:06	8.0	1012	-4.1	50	2	70
2026-02-02T09:07	8.1	1012	-4.0	60	2	70
2026-02-02T09:08	7.9	1012	-3.9	60	2	70
2026-02-02T09:09	7.9	1012	-3.6	60	2	70
2026-02-02T09:10	8.1	1012	-3.1	60	2	70
2026-02-02T09:11	8.0	1012	-2.9	60	2	70
2026-02-02T09:12	7.9	1012	-2.7	50	2	70
2026-02-02T09:13	7.9	1012	-2.7	40	2	70
2026-02-02T09:14	7.9	1012	-2.7	30	2	70
2026-02-02T09:15	7.8	1012	-2.8	20	2	70
2026-02-02T09:16	7.9	1012	-2.4	20	2	70
2026-02-02T09:17	7.8	1012	-2.5	20	2	70
2026-02-02T09:18	7.6	1012	-2.7	20	2	70
2026-02-02T09:19	7.5	1012	-2.8	20	2	70
2026-02-02T09:20	7.6	1012	-2.1	20	2	70
2026-02-02T09:21	7.7	1012	-1.8	30	2	70
2026-02-02T09:22	7.6	1012	-1.9	30	2	70
2026-02-02T09:23	7.6	1012	-1.6	30	2	70
2026-02-02T09:24	7.5	1012	-1.4	40	2	70
2026-02-02T09:25	7.6	1012	-1.1	40	2	70
2026-02-02T09:26	7.6	1012	-0.8	50	2	70
2026-02-02T09:27	7.6	1012	-0.6	50	1	70
2026-02-02T09:28	7.5	1012	-0.4	50	1	70
2026-02-02T09:29	7.5	1012	-0.4	40	1	70
2026-02-02T09:30	7.6	1012	-0.1	40	1	70
2026-02-02T09:31	7.5	1012	-0.2	40	2	70
2026-02-02T09:32	7.5	1012	0.0	40	2	70
2026-02-02T09:33	7.5	1012	0.0	50	2	70
2026-02-02T09:34	7.3	1012	-0.2	50	2	70
2026-02-02T09:35	7.3	1012	0.1	40	2	70
2026-02-02T09:36	7.4	1012	0.2	50	2	70
2026-02-02T09:37	7.3	1012	0.1	50	2	70
2026-02-02T09:38	7.3	1012	0.1	50	2	70
2026-02-02T09:39	7.3	1012	0.3	50	2	70
2026-02-02T09:40	7.3	1012	0.3	50	2	70
2026-02-02T09:41	7.3	1012	0.3	50	2	70
2026-02-02T09:42	7.3	1012	0.3	50	2	70
2026-02-02T09:43	7.3	1012	0.1	50	2	70
2026-02-02T09:44	7.3	1012	0.1	50	2	70
2026-02-02T09:45	7.2	1012	0.0	50	2	70
2026-02-02T09:46	7.2	1012	0.0	50	2	70
2026-02-02T09:47	7.2	1012	0.2	50	2	70
2026-02-02T09:48	7.1	1012	0.1	50	2	70
2026-02-02T09:49	7.0	1012	0.0	50	2	70
2026-02-02T09:50	7.0	1012	0.0	50	2	70
2026-02-02T09:51	7.1	1012	0.1	50	2	70
2026-02-02T09:52	6.9	1012	-0.1	60	2	70
2026-02-02T09:53	6.8	1012	-0.2	60	2	70
2026-02-02T09:54	6.8	1012	-0.2	60	2	70
2026-02-02T09:55	6.9	1012	-0.1	60	2	70
2026-02-02T09:56	6.9	1012	-0.1	60	2	70
2026-02-02T09:57	6.5	1012	-0.5	70	2	70
2026-02-02T09:58	6.6	1012	-0.1	70	2	70
2026-02-02T09:59	6.7	1012	0.0	70	2	70
2026-02-02T10:00	6.7	1012	0.0	70	2	70
2026-02-02T10:01	6.7	1012	-0.3	70	2	70
2026-02-02T10:02	6.7	1012	-0.3	70	2	70
2026-02-02T10:03	6.6	1012	-0.4	70	2	70
2026-02-02T10:04	6.6	1012	-0.4	70	2	70
2026-02-02T10:05	6.6	1012	-0.1	70	2	70
2026-02-02T10:06	6.7	1012	0.0	70	2	70
2026-02-02T10:07	6.6	1012	-0.4	70	2	70
2026-02-02T10:08	6.5	1012	-0.5	70	2	70
2026-02-02T10:09	6.6	1012	-0.1	70	2	70
2026-02-02T10:10	6.7	1012	-0.3	70	2	70
2026-02-02T10:11	6.6	1012	-0.4	70	2	70
2026-02-02T10:12	6.7	1012	-0.3	70	2	70
2026-02-02T10:13	6.7	1012	-0.3	70	3	70
2026-02-02T10:14	6.5	1012	-0.5	80	2	70
2026-02-02T10:15	6.5	1012	-0.5	80	3	70
2026-02-02T10:16	6.5	1012	-0.5	80	3	70
2026-02-02T10:17	6.3	1012	-0.7	80	3	70
2026-02-02T10:18	6.4	1012	-0.3	80	3	70
2026-02-02T10:19	6.4	1012	-0.3	80	3	70
2026-02-02T10:20	6.5	1012	-0.2	70	2	70
2026-02-02T10:21	6.5	1012	-0.2	70	2	70
2026-02-02T10:22	6.4	1012	-0.3	70	2	70
2026-02-02T10:23	6.5	1012	-0.2	70	2	70
2026-02-02T10:24	6.3	1012	-0.4	70	2	70
2026-02-02T10:25	6.2	1012	-0.5	70	2	70
2026-02-02T10:26	6.4	1012	-0.1	80	2	70
2026-02-02T10:27	6.3	1012	-0.4	80	2	70
2026-02-02T10:28	6.2	1012	-0.5	80	2	70
2026-02-02T10:29	6.2	1012	-0.5	80	2	70
2026-02-02T10:30	6.2	1012	-0.3	80	2	70
2026-02-02T10:31	5.9	1012	-0.8	80	2	70
2026-02-02T10:32	6.1	1012	-0.4	80	2	70
2026-02-02T10:33	6.2	1012	-0.3	80	2	70
2026-02-02T10:34	6.2	1012	-0.5	80	2	70
2026-02-02T10:35	6.1	1012	-0.6	70	2	70
2026-02-02T10:36	6.1	1013	-0.6	60	2	70
2026-02-02T10:37	6.0	1013	-0.7	60	2	70
2026-02-02T10:38	6.0	1013	-0.7	60	1	70
2026-02-02T10:39	6.0	1013	-0.7	50	1	70
2026-02-02T10:40	5.9	1013	-0.8	50	1	70
2026-02-02T10:41	5.8	1013	-0.9	40	1	70
2026-02-02T10:42	5.9	1013	-0.8	40	1	70
2026-02-02T10:43	5.8	1013	-0.9	40	1	70
2026-02-02T10:44	5.9	1013	-1.0	40	1	70
2026-02-02T10:45	5.9	1013	-1.0	50	1	70
2026-02-02T10:46	6.0	1013	-1.2	50	1	70
2026-02-02T10:47	6.0	1013	-1.2	50	1	70
2026-02-02T10:48	6.0	1013	-1.2	50	1	70
2026-02-02T10:49	5.8	1013	-1.4	60	1	70
2026-02-02T10:50	5.6	1013	-1.8	50	1	70
2026-02-02T10:51	5.6	1013	-1.5	60	1	70
2026-02-02T10:52	5.5	1013	-1.6	60	1	70
2026-02-02T10:53	5.7	1013	-1.7	60	1	70
2026-02-02T10:54	5.8	1013	-1.6	50	1	70
2026-02-02T10:55	5.6	1013	-2.0	50	1	70
2026-02-02T10:56	5.6	1013	-2.0	50	1	70
2026-02-02T10:57	5.6	1013	-2.0	50	1	70
2026-02-02T10:58	5.6	1013	-2.0	50	2	70
2026-02-02T10:59	5.6	1013	-2.0	60	2	70
2026-02-02T11:00	5.7	1013	-1.9	60	2	70
2026-02-02T11:01	5.6	1013	-2.0	60	2	70
2026-02-02T11:02	5.4	1013	-2.2	50	2	70
2026-02-02T11:03	5.5	1013	-2.1	50	1	70
2026-02-02T11:04	5.3	1013	-2.3	50	1	70
2026-02-02T11:05	5.4	1013	-2.2	50	1	70
2026-02-02T11:06	5.4	1013	-2.2	50	1	70
2026-02-02T11:07	5.4	1013	-2.2	50	2	70
2026-02-02T11:08	5.1	1013	-2.5	50	2	70
2026-02-02T11:09	5.2	1013	-2.4	40	2	70
2026-02-02T11:10	5.1	1013	-2.5	40	2	70
2026-02-02T11:11	5.2	1013	-2.4	40	2	70
2026-02-02T11:12	5.1	1013	-2.7	40	2	70
2026-02-02T11:13	4.9	1013	-2.9	40	2	70
2026-02-02T11:14	5.1	1013	-2.5	40	2	70
2026-02-02T11:15	5.1	1013	-2.7	40	2	70
2026-02-02T11:16	5.3	1013	-2.8	40	2	70
2026-02-02T11:17	5.2	1013	-3.1	40	2	70
2026-02-02T11:18	5.2	1013	-3.1	40	2	70
2026-02-02T11:19	5.1	1013	-3.2	40	2	70
2026-02-02T11:20	5.1	1013	-3.4	40	2	70
2026-02-02T11:21	5.0	1013	-3.5	40	2	70
2026-02-02T11:22	5.1	1013	-3.4	40	2	70
2026-02-02T11:23	5.0	1013	-3.8	40	2	70
2026-02-02T11:24	4.9	1013	-3.9	40	2	70
2026-02-02T11:25	5.1	1013	-3.7	40	2	70
2026-02-02T11:26	4.8	1013	-4.2	40	2	70
2026-02-02T11:27	4.8	1013	-4.0	40	2	70
2026-02-02T11:28	5.0	1013	-4.0	50	2	70
2026-02-02T11:29	5.0	1013	-4.0	50	2	70
2026-02-02T11:30	4.9	1013	-4.1	50	2	70
2026-02-02T11:31	5.1	1013	-4.2	50	2	70
2026-02-02T11:32	5.0	1013	-4.3	50	2	70
2026-02-02T11:33	4.9	1013	-4.4	50	2	70
2026-02-02T11:34	5.0	1013	-4.3	50	2	70
2026-02-02T11:35	5.0	1013	-4.3	40	2	70
2026-02-02T11:36	4.9	1013	-4.4	40	2	70
2026-02-02T11:37	5.0	1013	-4.5	40	2	70
2026-02-02T11:38	4.8	1013	-4.5	40	2	70
2026-02-02T11:39	4.6	1013	-4.6	40	2	70
2026-02-02T11:40	4.8	1013	-4.5	40	2	70
2026-02-02T11:41	4.7	1013	-4.6	40	2	70
2026-02-02T11:42	4.7	1013	-4.6	40	2	70
2026-02-02T11:43	4.8	1013	-4.5	40	2	70
2026-02-02T11:44	4.8	1013	-4.5	50	2	70
2026-02-02T11:45	4.9	1013	-4.6	50	2	70
2026-02-02T11:46	4.5	1013	-4.7	60	2	70
2026-02-02T11:47	4.2	1013	-5.0	60	2	70
2026-02-02T11:48	4.5	1013	-4.7	60	2	70
2026-02-02T11:49	4.7	1013	-4.6	60	2	70
2026-02-02T11:50	4.7	1013	-4.6	70	2	70
2026-02-02T11:51	4.9	1013	-4.6	70	2	70
2026-02-02T11:52	4.5	1013	-5.0	80	1	70
2026-02-02T11:53	4.5	1013	-4.7	80	1	70
2026-02-02T11:54	4.6	1013	-4.6	80	1	70
2026-02-02T11:55	4.5	1013	-4.7	80	1	70
2026-02-02T11:56	4.3	1013	-4.9	80	1	70
2026-02-02T11:57	4.3	1013	-4.7	90	1	70
2026-02-02T11:58	4.4	1013	-4.6	90	1	70
2026-02-02T11:59	4.4	1013	-4.6	90	1	70
2026-02-02T12:00	3.9	1013	-4.8	100	1	70
2026-02-02T12:01	3.9	1013	-4.8	100	1	70
2026-02-02T12:02	4.0	1013	-4.7	100	1	70
2026-02-02T12:03	3.9	1013	-4.8	90	1	70
2026-02-02T12:04	4.1	1013	-4.6	90	1	70
2026-02-02T12:05	3.9	1013	-4.8	90	1	70
2026-02-02T12:06	4.2	1013	-4.5	90	1	70
2026-02-02T12:07	4.1	1013	-4.6	90	1	70
2026-02-02T12:08	4.2	1013	-4.5	90	1	70
2026-02-02T12:09	4.1	1013	-4.6	90	1	70
2026-02-02T12:10	3.3	1013	-5.3	90	1	70
2026-02-02T12:11	3.6	1013	-4.8	90	1	70
2026-02-02T12:12	3.7	1013	-4.7	90	1	70
2026-02-02T12:13	3.4	1013	-5.0	100	1	70
2026-02-02T12:14	3.8	1013	-4.4	100	1	70
2026-02-02T12:15	3.7	1013	-4.7	100	1	70
2026-02-02T12:16	3.9	1014	-4.5	90	1	70
2026-02-02T12:17	4.1	1014	-4.4	80	1	70
2026-02-02T12:18	4.2	1014	-4.5	90	1	70
2026-02-02T12:19	3.8	1014	-4.9	80	1	70
2026-02-02T12:20	2.9	1014	-5.5	90	1	70
2026-02-02T12:21	3.4	1014	-4.8	80	1	70
2026-02-02T12:22	3.2	1014	-4.7	80	1	70
2026-02-02T12:23	3.2	1014	-4.7	70	1	70
2026-02-02T12:24	3.4	1014	-4.5	70	1	70
2026-02-02T12:25	3.3	1014	-4.6	70	1	70
2026-02-02T12:26	3.5	1014	-4.4	70	1	70
2026-02-02T12:27	3.8	1014	-4.2	70	1	70
2026-02-02T12:28	3.9	1014	-4.3	70	1	70
2026-02-02T12:29	4.0	1014	-4.2	70	1	70
2026-02-02T12:30	3.2	1014	-5.0	70	1	70
2026-02-02T12:31	3.0	1014	-4.9	70	1	70
2026-02-02T12:32	3.3	1014	-4.6	70	1	70
2026-02-02T12:33	3.3	1014	-4.6	70	1	70
2026-02-02T12:34	3.8	1014	-4.2	70	1	70
2026-02-02T12:35	3.9	1014	-4.3	60	2	70
2026-02-02T12:36	3.6	1014	-4.6	70	2	70
2026-02-02T12:37	3.6	1014	-4.6	70	2	70
2026-02-02T12:38	3.2	1014	-5.0	70	2	70
2026-02-02T12:39	3.5	1014	-4.7	70	2	70
2026-02-02T12:40	3.7	1014	-4.5	70	2	70
2026-02-02T12:41	3.6	1014	-4.6	60	2	70
2026-02-02T12:42	3.8	1014	-4.4	60	2	70
2026-02-02T12:43	3.6	1014	-4.8	60	2	70
2026-02-02T12:44	3.6	1014	-4.6	60	2	70
2026-02-02T12:45	3.8	1014	-4.6	60	2	70
2026-02-02T12:46	3.6	1014	-4.8	60	2	70
2026-02-02T12:47	3.6	1014	-4.8	60	2	70
2026-02-02T12:48	3.7	1014	-4.7	50	2	70
2026-02-02T12:49	3.7	1014	-4.7	50	2	70
2026-02-02T12:50	3.5	1014	-4.9	50	2	70
2026-02-02T12:51	3.3	1014	-5.1	60	2	70
2026-02-02T12:52	3.4	1014	-4.8	50	2	70
2026-02-02T12:53	3.4	1014	-4.8	50	2	70
2026-02-02T12:54	3.4	1014	-4.8	50	2	70
2026-02-02T12:55	3.5	1014	-4.7	50	2	70
2026-02-02T12:56	3.4	1014	-4.8	50	2	70
2026-02-02T12:57	3.4	1014	-4.8	50	2	70
2026-02-02T12:58	3.3	1014	-4.9	40	2	70
2026-02-02T12:59	3.2	1014	-5.0	40	2	70
2026-02-02T13:00	3.2	1014	-5.0	30	2	70
2026-02-02T13:01	3.3	1014	-4.9	20	2	70
2026-02-02T13:02	3.2	1014	-5.0	20	2	70
2026-02-02T13:03	3.2	1014	-5.0	20	2	70
2026-02-02T13:04	3.2	1014	-5.0	10	2	70
2026-02-02T13:05	3.2	1014	-5.0	20	2	70
2026-02-02T13:06	3.3	1014	-4.9	20	2	70
2026-02-02T13:07	3.2	1014	-4.7	10	2	70
2026-02-02T13:08	3.1	1014	-4.8	20	2	70
2026-02-02T13:09	3.2	1014	-4.7	20	1	70
2026-02-02T13:10	3.2	1014	-5.0	20	1	70
2026-02-02T13:11	3.3	1014	-4.9	20	1	70
2026-02-02T13:12	3.1	1014	-5.0	20	1	70
2026-02-02T13:13	2.8	1014	-5.1	20	1	70
2026-02-02T13:14	3.1	1014	-4.8	20	1	70
2026-02-02T13:15	3.2	1014	-4.7	20	1	70
2026-02-02T13:16	3.1	1014	-5.0	10	2	70
2026-02-02T13:17	3.1	1014	-5.0	10	1	70
2026-02-02T13:18	3.0	1014	-5.1	10	2	70
2026-02-02T13:19	2.8	1014	-5.1	10	2	70
2026-02-02T13:20	2.8	1014	-5.1	20	2	70
2026-02-02T13:21	3.0	1014	-4.9	20	2	70
2026-02-02T13:22	3.2	1014	-4.7	20	2	70
2026-02-02T13:23	3.3	1014	-4.9	20	2	70
2026-02-02T13:24	3.3	1014	-4.9	20	2	70
2026-02-02T13:25	3.2	1014	-5.0	20	2	70
2026-02-02T13:26	2.9	1014	-5.2	30	2	70
2026-02-02T13:27	3.1	1014	-5.0	30	2	70
2026-02-02T13:28	3.1	1014	-5.0	30	2	70
2026-02-02T13:29	3.1	1014	-5.0	30	2	70
2026-02-02T13:30	3.1	1014	-5.0	30	2	70
2026-02-02T13:31	3.2	1014	-5.0	30	2	70
2026-02-02T13:32	3.1	1014	-5.0	30	2	70
2026-02-02T13:33	3.1	1014	-5.0	30	2	70
2026-02-02T13:34	3.0	1014	-5.1	30	2	70
2026-02-02T13:35	3.1	1014	-5.0	30	2	70
2026-02-02T13:36	3.0	1014	-5.1	30	2	70
2026-02-02T13:37	2.6	1014	-5.3	30	2	70
2026-02-02T13:38	2.9	1014	-5.0	40	2	70
2026-02-02T13:39	2.9	1014	-5.0	40	2	70
2026-02-02T13:40	3.0	1014	-4.9	40	2	70
2026-02-02T13:41	3.1	1014	-4.8	30	2	70
2026-02-02T13:42	3.0	1014	-4.9	30	2	70
2026-02-02T13:43	2.8	1014	-5.1	30	2	70
2026-02-02T13:44	2.7	1014	-5.2	30	2	70
2026-02-02T13:45	2.8	1014	-5.1	20	2	70
2026-02-02T13:46	2.8	1014	-5.1	20	2	70
2026-02-02T13:47	2.9	1014	-4.8	10	2	70
2026-02-02T13:48	2.6	1014	-5.0	10	2	70
2026-02-02T13:49	2.6	1014	-5.0	10	2	70
2026-02-02T13:50	2.4	1014	-5.2	10	1	70
2026-02-02T13:51	2.5	1014	-4.9	20	1	70
2026-02-02T13:52	2.4	1014	-5.0	20	1	70
2026-02-02T13:53	2.4	1014	-5.0	20	1	70
2026-02-02T13:54	2.5	1014	-4.9	20	1	70
2026-02-02T13:55	2.5	1014	-4.9	20	1	70
2026-02-02T13:56	2.6	1014	-4.8	30	1	70
2026-02-02T13:57	2.5	1014	-4.9	30	1	70
2026-02-02T13:58	2.0	1014	-5.4	30	1	70
2026-02-02T13:59	1.9	1014	-5.2	30	1	70
2026-02-02T14:00	2.3	1014	-4.9	30	1	70
2026-02-02T14:01	2.3	1014	-4.9	20	1	70
2026-02-02T14:02	2.4	1014	-4.8	20	1	70
2026-02-02T14:03	2.3	1014	-4.9	20	1	70
2026-02-02T14:04	2.2	1014	-5.0	20	1	70
2026-02-02T14:05	2.3	1014	-4.9	20	1	70
2026-02-02T14:06	2.1	1014	-5.1	30	1	70
2026-02-02T14:07	2.0	1014	-5.2	30	1	70
2026-02-02T14:08	1.9	1014	-5.2	30	1	70
2026-02-02T14:09	2.0	1014	-4.9	30	1	70
2026-02-02T14:10	2.1	1014	-4.8	30	1	70
2026-02-02T14:11	2.3	1014	-4.6	30	1	70
2026-02-02T14:12	2.3	1014	-4.9	30	1	70
2026-02-02T14:13	2.4	1014	-4.8	30	1	70
2026-02-02T14:14	2.3	1014	-4.9	20	1	70
2026-02-02T14:15	2.2	1014	-5.0	20	1	70
2026-02-02T14:16	2.2	1014	-5.0	20	1	70
2026-02-02T14:17	1.7	1014	-5.4	10	1	70
2026-02-02T14:18	1.6	1014	-5.3	10	1	70
2026-02-02T14:19	1.6	1014	-5.3	10	1	70
2026-02-02T14:20	1.2	1014	-5.5	10	1	70
2026-02-02T14:21	1.4	1014	-5.1	10	1	70
2026-02-02T14:22	1.0	1014	-5.4	10	1	70
2026-02-02T14:23	1.6	1014	-4.7	10	1	70
2026-02-02T14:24	1.2	1014	-5.3	10	1	70
2026-02-02T14:25	1.7	1014	-4.8	10	1	70
2026-02-02T14:26	1.7	1014	-5.0	10	1	70
2026-02-02T14:27	1.4	1014	-5.3	10	1	70
2026-02-02T14:28	1.2	1014	-5.3	10	1	70
2026-02-02T14:29	1.1	1014	-5.3	20	1	70
2026-02-02T14:30	1.3	1014	-4.9	20	1	70
2026-02-02T14:31	1.3	1014	-4.9	20	1	70
2026-02-02T14:32	1.2	1014	-5.3	20	1	70
2026-02-02T14:33	1.0	1014	-5.2	40	1	70
2026-02-02T14:34	1.1	1014	-5.1	50	1	70
2026-02-02T14:35	1.2	1014	-5.0	40	1	70
2026-02-02T14:36	1.3	1014	-4.9	50	1	70
2026-02-02T14:37	0.5	1014	-5.9	50	1	70
2026-02-02T14:38	0.2	1014	-5.8	40	1	70
2026-02-02T14:39	1.0	1015	-4.8	30	1	70
2026-02-02T14:40	1.3	1015	-4.7	30	1	70
2026-02-02T14:41	1.1	1015	-5.1	20	1	70
2026-02-02T14:42	0.8	1015	-5.4	10	1	70
2026-02-02T14:43	0.5	1015	-5.5	360	1	70
2026-02-02T14:44	1.0	1015	-5.0	360	1	70
2026-02-02T14:45	0.9	1015	-5.1	360	1	70
2026-02-02T14:46	0.4	1015	-5.6	350	1	70
2026-02-02T14:47	0.5	1015	-5.3	350	1	70
2026-02-02T14:48	0.7	1014	-4.9	360	1	70
2026-02-02T14:49	0.8	1014	-5.0	360	1	70
2026-02-02T14:50	0.6	1014	-5.2	360	1	70
2026-02-02T14:51	0.5	1014	-5.3	360	1	70
2026-02-02T14:52	0.4	1014	-5.2	10	1	70
2026-02-02T14:53	-0.1	1014	-5.7	360	1	70
2026-02-02T14:54	-0.9	1014	-6.2	360	1	70
2026-02-02T14:55	-0.5	1014	-5.5	360	1	70
2026-02-02T14:56	-0.1	1014	-5.1	360	1	70
2026-02-02T14:57	-0.5	1014	-5.5	360	1	70
2026-02-02T14:58	-0.2	1014	-5.2	350	1	70
2026-02-02T14:59	0.0	1014	-5.0	350	1	70
2026-02-02T15:00	-0.6	1014	-5.8	350	1	70
2026-02-02T15:01	-0.2	1014	-5.2	350	1	70
2026-02-02T15:02	0.3	1014	-4.7	350	1	70
2026-02-02T15:03	0.8	1014	-4.4	350	1	70
2026-02-02T15:04	0.4	1014	-5.0	350	1	70
2026-02-02T15:05	0.4	1014	-5.2	350	1	70
2026-02-02T15:06	0.1	1014	-5.5	350	1	70
2026-02-02T15:07	0.3	1014	-5.1	350	1	70
2026-02-02T15:08	0.2	1014	-5.2	350	1	70
2026-02-02T15:09	0.2	1014	-5.2	350	1	70
2026-02-02T15:10	0.0	1014	-5.4	350	1	70
2026-02-02T15:11	-0.1	1014	-5.5	350	1	70
2026-02-02T15:12	-0.2	1014	-5.4	350	1	70
2026-02-02T15:13	-0.4	1014	-5.6	350	1	70
2026-02-02T15:14	-0.2	1014	-5.2	350	1	70
2026-02-02T15:15	-0.3	1014	-5.3	350	1	70
2026-02-02T15:16	-0.3	1014	-5.1	360	1	70
2026-02-02T15:17	-0.3	1014	-5.1	10	1	70
2026-02-02T15:18	-0.1	1014	-4.9	20	1	70
2026-02-02T15:19	-0.2	1014	-5.2	30	1	70
2026-02-02T15:20	-0.6	1014	-5.6	40	1	70
2026-02-02T15:21	-0.5	1014	-5.3	40	1	70
2026-02-02T15:22	-0.3	1014	-5.1	40	1	70
2026-02-02T15:23	-0.3	1014	-5.1	40	1	70
2026-02-02T15:24	-0.4	1014	-5.2	40	1	70
2026-02-02T15:25	-0.6	1014	-5.4	40	1	70
2026-02-02T15:26	-0.5	1014	-5.1	30	1	70
2026-02-02T15:27	0.1	1014	-4.7	20	1	70
2026-02-02T15:28	-0.3	1014	-5.3	10	1	70
2026-02-02T15:29	-0.2	1014	-5.2	10	1	70
2026-02-02T15:30	0.0	1014	-5.0	360	1	70
2026-02-02T15:31	0.5	1014	-4.5	360	1	70
2026-02-02T15:32	-0.1	1014	-5.5	360	1	70
2026-02-02T15:33	-0.1	1015	-5.3	360	1	70
2026-02-02T15:34	0.2	1015	-5.0	10	1	70
2026-02-02T15:35	0.4	1015	-4.8	10	1	70
2026-02-02T15:36	0.5	1015	-4.9	10	1	70
2026-02-02T15:37	0.9	1015	-4.7	360	1	70
2026-02-02T15:38	0.2	1015	-5.4	360	1	70
2026-02-02T15:39	0.1	1015	-5.5	360	1	70
2026-02-02T15:40	0.6	1015	-4.8	360	1	70
2026-02-02T15:41	0.3	1015	-5.3	360	1	70
2026-02-02T15:42	-0.2	1015	-5.6	360	1	70
2026-02-02T15:43	-0.6	1015	-5.8	360	1	70
2026-02-02T15:44	-0.5	1015	-5.5	350	1	70
2026-02-02T15:45	-0.4	1015	-5.2	350	1	70
2026-02-02T15:46	-0.3	1015	-5.1	350	1	70
2026-02-02T15:47	-0.7	1015	-5.5	350	1	70
2026-02-02T15:48	-0.9	1015	-5.7	350	1	70
2026-02-02T15:49	-1.1	1015	-5.7	350	1	70
2026-02-02T15:50	-1.2	1015	-5.6	340	1	70
2026-02-02T15:51	-1.0	1015	-5.2	340	1	70
2026-02-02T15:52	-1.1	1015	-5.3	340	1	70
2026-02-02T15:53	-1.2	1015	-5.4	330	1	70
2026-02-02T15:54	-0.9	1015	-4.9	320	1	70
2026-02-02T15:55	-0.7	1015	-4.7	310	1	70
2026-02-02T15:56	-0.8	1015	-4.8	300	1	70
2026-02-02T15:57	-1.1	1015	-5.1	290	1	70
2026-02-02T15:58	-1.4	1015	-5.4	280	1	70
2026-02-02T15:59	-1.5	1015	-5.5	270	1	70
2026-02-02T16:00	-1.4	1015	-5.2	260	1	70
2026-02-02T16:01	-1.4	1015	-5.2	260	1	70
2026-02-02T16:02	-1.5	1015	-5.3	250	1	70
2026-02-02T16:03	-1.5	1015	-5.3	250	1	70
2026-02-02T16:04	-1.5	1015	-5.3	240	1	70
2026-02-02T16:05	-1.5	1015	-5.3	240	1	70
2026-02-02T16:06	-1.2	1015	-5.0	240	1	70
2026-02-02T16:07	-0.9	1015	-4.8	230	1	70
2026-02-02T16:08	-0.9	1015	-4.8	230	1	70
2026-02-02T16:09	-1.3	1015	-5.5	230	1	70
2026-02-02T16:10	-1.3	1015	-5.5	230	1	70
2026-02-02T16:11	-1.4	1015	-5.4	220	1	70
2026-02-02T16:12	-1.5	1015	-5.5	220	1	70
2026-02-02T16:13	-1.5	1015	-5.3	220	1	70
2026-02-02T16:14	-1.7	1015	-5.5	230	1	70
2026-02-02T16:15	-1.7	1015	-5.5	230	1	70
2026-02-02T16:16	-1.7	1015	-5.4	230	1	70
2026-02-02T16:17	-1.7	1015	-5.4	240	1	70
2026-02-02T16:18	-1.6	1015	-5.3	240	1	70
2026-02-02T16:19	-1.6	1015	-5.3	250	1	70
2026-02-02T16:20	-1.5	1015	-5.2	250	1	70
2026-02-02T16:21	-1.6	1015	-5.3	250	1	70
2026-02-02T16:22	-1.6	1015	-5.3	250	1	70
2026-02-02T16:23	-1.5	1015	-5.0	250	1	70
2026-02-02T16:24	-1.6	1015	-5.1	250	1	70
2026-02-02T16:25	-1.9	1015	-5.7	250	1	70
2026-02-02T16:26	-1.8	1015	-5.6	250	1	70
2026-02-02T16:27	-1.6	1015	-5.3	240	1	70
2026-02-02T16:28	-1.6	1015	-5.3	240	1	70
2026-02-02T16:29	-1.7	1015	-5.4	240	1	70
2026-02-02T16:30	-1.9	1015	-5.4	240	1	70
2026-02-02T16:31	-1.9	1015	-5.4	240	1	70
2026-02-02T16:32	-1.6	1015	-4.9	230	1	70
2026-02-02T16:33	-1.6	1015	-5.1	230	1	70
2026-02-02T16:34	-1.6	1015	-5.1	230	1	70
2026-02-02T16:35	-1.5	1015	-5.0	220	1	70
2026-02-02T16:36	-1.7	1015	-5.4	220	1	70
2026-02-02T16:37	-2.2	1015	-5.8	210	1	70
2026-02-02T16:38	-2.3	1015	-5.8	200	1	70
2026-02-02T16:39	-2.2	1015	-5.5	190	1	70
2026-02-02T16:40	-2.4	1015	-5.5	180	1	70
2026-02-02T16:41	-2.2	1015	-5.3	170	1	70
2026-02-02T16:42	-1.8	1015	-4.8	160	1	70
2026-02-02T16:43	-1.7	1015	-4.7	160	1	70
2026-02-02T16:44	-1.9	1015	-5.0	150	0	70
2026-02-02T16:45	-2.1	1015	-5.4	150	0	70
2026-02-02T16:46	-2.3	1015	-5.6	140	0	70
2026-02-02T16:47	-2.6	1015	-5.7	0	0	70
2026-02-02T16:48	-2.3	1015	-5.4	0	0	70
2026-02-02T16:49	-2.3	1015	-5.3	0	0	70
2026-02-02T16:50	-2.5	1015	-5.6	0	0	70
2026-02-02T16:51	-2.5	1015	-5.5	0	0	70
2026-02-02T16:52	-2.2	1015	-5.2	0	0	70
2026-02-02T16:53	-2.3	1015	-5.3	0	0	70
2026-02-02T16:54	-2.3	1015	-5.3	0	0	70
2026-02-02T16:55	-2.2	1015	-5.2	0	0	70
2026-02-02T16:56	-2.1	1015	-5.1	0	0	70
2026-02-02T16:57	-2.0	1015	-5.0	0	0	70
2026-02-02T16:58	-2.0	1015	-5.0	150	0	70
2026-02-02T16:59	-2.1	1015	-5.2	150	0	70
2026-02-02T17:00	-2.4	1015	-5.5	150	0	70
2026-02-02T17:01	-2.9	1015	-6.0	150	1	70
2026-02-02T17:02	-2.8	1015	-5.9	150	1	70
2026-02-02T17:03	-2.5	1015	-5.3	150	1	70
2026-02-02T17:04	-2.4	1015	-5.0	150	1	70
2026-02-02T17:05	-2.4	1015	-5.2	150	0	70
2026-02-02T17:06	-2.3	1015	-5.3	160	0	70
2026-02-02T17:07	-2.8	1015	-5.8	160	0	70
2026-02-02T17:08	-2.8	1015	-5.8	160	0	70
2026-02-02T17:09	-2.9	1015	-5.7	170	0	70
2026-02-02T17:10	-2.6	1015	-5.2	0	0	70
2026-02-02T17:11	-2.3	1015	-4.9	0	0	70
2026-02-02T17:12	-2.3	1015	-4.9	0	0	70
2026-02-02T17:13	-2.4	1015	-5.2	0	0	70
2026-02-02T17:14	-2.6	1015	-5.4	0	0	70
2026-02-02T17:15	-2.5	1015	-5.1	0	0	70
2026-02-02T17:16	-2.5	1015	-5.1	0	0	70
2026-02-02T17:17	-2.7	1015	-5.3	0	0	70
2026-02-02T17:18	-2.6	1015	-5.2	0	0	70
2026-02-02T17:19	-2.5	1015	-5.1	0	0	70
2026-02-02T17:20	-2.5	1015	-5.1	0	0	70
2026-02-02T17:21	-2.6	1015	-5.2	0	0	70
2026-02-02T17:22	-2.7	1015	-5.3	0	0	70
2026-02-02T17:23	-2.8	1015	-5.4	0	0	70
2026-02-02T17:24	-2.8	1016	-5.4	220	0	70
2026-02-02T17:25	-2.9	1016	-5.5	240	0	70
2026-02-02T17:26	-2.8	1016	-5.3	280	1	70
2026-02-02T17:27	-2.7	1016	-5.2	300	1	70
2026-02-02T17:28	-2.6	1016	-5.1	320	1	70
2026-02-02T17:29	-2.5	1016	-5.0	320	1	70
2026-02-02T17:30	-2.8	1016	-5.4	320	1	70
2026-02-02T17:31	-3.1	1016	-5.7	330	1	70
2026-02-02T17:32	-3.1	1016	-5.7	330	1	70
2026-02-02T17:33	-2.9	1016	-5.4	320	1	70
2026-02-02T17:34	-2.8	1016	-5.1	320	1	70
2026-02-02T17:35	-3.0	1016	-5.5	320	1	70
2026-02-02T17:36	-3.1	1016	-5.6	310	1	70
2026-02-02T17:37	-2.9	1016	-5.2	310	1	70
2026-02-02T17:38	-2.7	1016	-5.0	300	0	70
2026-02-02T17:39	-2.6	1016	-4.9	300	0	70
2026-02-02T17:40	-2.9	1016	-5.4	300	0	70
2026-02-02T17:41	-3.0	1016	-5.5	290	1	70
2026-02-02T17:42	-3.3	1016	-5.9	290	1	70
2026-02-02T17:43	-3.3	1016	-5.8	290	1	70
2026-02-02T17:44	-2.9	1016	-5.2	290	1	70
2026-02-02T17:45	-2.6	1016	-4.9	290	1	70
2026-02-02T17:46	-2.6	1016	-4.9	290	1	70
2026-02-02T17:47	-2.8	1016	-5.3	290	1	70
2026-02-02T17:48	-2.8	1016	-5.3	290	1	70
2026-02-02T17:49	-2.7	1016	-5.2	290	1	70
2026-02-02T17:50	-2.7	1016	-5.2	300	1	70
2026-02-02T17:51	-3.0	1016	-5.6	300	1	70
2026-02-02T17:52	-3.2	1016	-5.8	300	1	70
2026-02-02T17:53	-3.1	1016	-5.6	300	1	70
2026-02-02T17:54	-3.1	1016	-5.6	300	1	70
2026-02-02T17:55	-2.9	1016	-5.2	300	1	70
2026-02-02T17:56	-2.7	1016	-5.0	300	1	70
2026-02-02T17:57	-2.7	1016	-5.0	300	1	70
2026-02-02T17:58	-2.9	1016	-5.2	310	1	70
2026-02-02T17:59	-3.0	1016	-5.5	310	1	70
2026-02-02T18:00	-3.1	1016	-5.4	310	1	70
2026-02-02T18:01	-3.5	1016	-6.0	310	1	70
2026-02-02T18:02	-3.4	1016	-5.7	310	1	70
2026-02-02T18:03	-3.3	1016	-5.4	310	1	70
2026-02-02T18:04	-3.2	1016	-5.2	310	1	70
2026-02-02T18:05	-3.2	1016	-5.3	310	1	70
2026-02-02T18:06	-3.2	1016	-5.5	310	1	70
2026-02-02T18:07	-3.3	1016	-5.8	310	1	70
2026-02-02T18:08	-3.2	1016	-5.7	310	1	70
2026-02-02T18:09	-3.3	1016	-5.8	310	0	70
2026-02-02T18:10	-3.2	1016	-5.5	300	0	70
2026-02-02T18:11	-3.2	1016	-5.5	300	0	70
2026-02-02T18:12	-3.3	1016	-5.6	300	0	70
2026-02-02T18:13	-3.3	1016	-5.4	290	0	70
2026-02-02T18:14	-3.4	1016	-5.5	290	0	70
2026-02-02T18:15	-3.4	1016	-5.5	0	0	70
2026-02-02T18:16	-3.4	1016	-5.5	0	0	70
2026-02-02T18:17	-3.3	1016	-5.4	0	0	70
2026-02-02T18:18	-3.4	1016	-5.4	0	0	70
2026-02-02T18:19	-3.4	1016	-5.4	0	0	70
2026-02-02T18:20	-3.3	1016	-5.3	0	0	70
2026-02-02T18:21	-3.3	1016	-5.3	0	0	70
2026-02-02T18:22	-3.3	1016	-5.4	0	0	70
2026-02-02T18:23	-3.2	1016	-5.2	270	0	70
2026-02-02T18:24	-3.1	1016	-5.1	0	0	70
2026-02-02T18:25	-3.4	1016	-5.5	120	0	70
2026-02-02T18:26	-3.6	1016	-5.7	170	0	70
2026-02-02T18:27	-3.3	1016	-5.3	140	0	70
2026-02-02T18:28	-3.2	1016	-5.2	130	0	70
2026-02-02T18:29	-3.2	1016	-5.2	130	0	70
2026-02-02T18:30	-3.4	1016	-5.4	120	0	70
2026-02-02T18:31	-3.4	1016	-5.5	0	0	70
2026-02-02T18:32	-3.4	1016	-5.5	0	0	70
2026-02-02T18:33	-3.1	1016	-5.1	0	0	70
2026-02-02T18:34	-3.1	1016	-5.1	0	0	70
2026-02-02T18:35	-3.3	1016	-5.4	0	0	70
2026-02-02T18:36	-3.3	1016	-5.3	0	0	70
2026-02-02T18:37	-3.6	1016	-5.6	0	0	70
2026-02-02T18:38	-3.4	1016	-5.4	0	0	70
2026-02-02T18:39	-3.5	1016	-5.5	0	0	70
2026-02-02T18:40	-3.6	1016	-5.7	200	0	70
2026-02-02T18:41	-3.5	1016	-5.6	220	0	70
2026-02-02T18:42	-3.6	1016	-5.7	230	0	70
2026-02-02T18:43	-3.6	1016	-5.7	240	0	70
2026-02-02T18:44	-3.4	1016	-5.4	250	0	70
2026-02-02T18:45	-3.8	1016	-5.8	260	0	70
2026-02-02T18:46	-3.6	1016	-5.6	260	1	70
2026-02-02T18:47	-3.4	1016	-5.2	270	1	70
2026-02-02T18:48	-3.5	1016	-5.3	270	1	70
2026-02-02T18:49	-3.5	1016	-5.5	270	1	70
2026-02-02T18:50	-3.6	1016	-5.6	270	1	70
2026-02-02T18:51	-3.5	1016	-5.5	280	1	70
2026-02-02T18:52	-3.5	1016	-5.5	270	1	70
2026-02-02T18:53	-3.8	1016	-5.9	270	1	70
2026-02-02T18:54	-3.6	1016	-5.7	280	1	70
2026-02-02T18:55	-3.8	1016	-5.9	270	1	70
2026-02-02T18:56	-3.7	1016	-5.7	270	1	70
2026-02-02T18:57	-3.6	1016	-5.6	270	1	70
2026-02-02T18:58	-3.5	1016	-5.5	270	1	70
2026-02-02T18:59	-3.8	1016	-5.9	270	1	70
2026-02-02T19:00	-3.9	1016	-6.0	260	1	70
2026-02-02T19:01	-3.7	1016	-5.7	270	1	70
2026-02-02T19:02	-3.5	1016	-5.3	270	1	70
2026-02-02T19:03	-3.6	1016	-5.6	270	1	70
2026-02-02T19:04	-3.8	1016	-5.9	260	1	70
2026-02-02T19:05	-3.9	1016	-6.0	260	1	70
2026-02-02T19:06	-3.7	1016	-5.7	270	1	70
2026-02-02T19:07	-3.8	1016	-5.8	270	1	70
2026-02-02T19:08	-3.7	1016	-5.7	270	1	70
2026-02-02T19:09	-3.8	1016	-5.8	260	1	70
2026-02-02T19:10	-3.9	1016	-6.0	260	1	70
2026-02-02T19:11	-3.8	1016	-5.9	260	1	70
2026-02-02T19:12	-3.9	1016	-6.0	260	1	70
2026-02-02T19:13	-3.7	1016	-5.8	260	1	70
2026-02-02T19:14	-3.6	1016	-5.7	260	1	70
2026-02-02T19:15	-3.7	1016	-5.8	260	1	70
2026-02-02T19:16	-3.9	1016	-6.2	250	1	70
2026-02-02T19:17	-4.0	1016	-6.3	250	1	70
2026-02-02T19:18	-3.9	1016	-6.0	250	1	70
2026-02-02T19:19	-4.1	1016	-6.2	250	1	70
2026-02-02T19:20	-4.1	1016	-6.2	250	1	70
2026-02-02T19:21	-4.0	1016	-6.0	250	1	70
2026-02-02T19:22	-3.9	1016	-5.9	260	1	70
2026-02-02T19:23	-3.9	1016	-5.9	260	1	70
2026-02-02T19:24	-4.1	1016	-6.2	260	1	70
2026-02-02T19:25	-4.0	1016	-6.1	260	1	70
2026-02-02T19:26	-4.0	1016	-6.0	260	1	70
2026-02-02T19:27	-3.9	1016	-5.9	260	1	70
2026-02-02T19:28	-3.7	1016	-5.7	260	1	70
2026-02-02T19:29	-3.7	1016	-5.5	260	1	70
2026-02-02T19:30	-3.8	1016	-5.6	250	1	70
2026-02-02T19:31	-3.8	1016	-5.8	250	1	70
2026-02-02T19:32	-3.6	1016	-5.4	240	1	70
2026-02-02T19:33	-3.8	1016	-5.6	240	1	70
2026-02-02T19:34	-4.2	1016	-6.2	230	1	70
2026-02-02T19:35	-4.1	1016	-6.1	230	1	70
2026-02-02T19:36	-3.8	1016	-5.6	230	1	70
2026-02-02T19:37	-3.8	1016	-5.6	220	1	70
2026-02-02T19:38	-3.8	1016	-5.6	220	1	70
2026-02-02T19:39	-3.6	1016	-5.4	220	1	70
2026-02-02T19:40	-3.6	1016	-5.4	230	1	70
2026-02-02T19:41	-3.5	1016	-5.3	230	1	70
2026-02-02T19:42	-3.7	1016	-5.5	230	1	70
2026-02-02T19:43	-4.1	1016	-6.1	240	1	70
2026-02-02T19:44	-4.1	1017	-6.1	240	1	70
2026-02-02T19:45	-4.0	1017	-6.0	250	1	70
2026-02-02T19:46	-3.8	1017	-5.8	250	1	70
2026-02-02T19:47	-3.8	1017	-5.8	260	1	70
2026-02-02T19:48	-3.7	1017	-5.7	260	1	70
2026-02-02T19:49	-3.8	1017	-5.8	260	1	70
2026-02-02T19:50	-3.9	1017	-6.0	260	1	70
2026-02-02T19:51	-3.9	1017	-5.9	260	1	70
2026-02-02T19:52	-4.0	1017	-6.0	260	1	70
2026-02-02T19:53	-3.7	1017	-5.5	260	1	70
2026-02-02T19:54	-3.6	1017	-5.4	260	1	70
2026-02-02T19:55	-3.8	1017	-5.6	260	1	70
2026-02-02T19:56	-3.9	1017	-5.9	260	1	70
2026-02-02T19:57	-3.8	1017	-5.6	270	1	70
2026-02-02T19:58	-3.8	1017	-5.6	270	1	70
2026-02-02T19:59	-3.8	1017	-5.5	270	1	70
2026-02-02T20:00	-3.7	1017	-5.4	270	1	70
2026-02-02T20:01	-3.8	1017	-5.5	270	1	70
2026-02-02T20:02	-3.8	1017	-5.5	280	0	70
2026-02-02T20:03	-3.9	1017	-5.6	280	0	70
2026-02-02T20:04	-4.1	1017	-5.8	270	0	70
2026-02-02T20:05	-4.6	1017	-6.3	270	0	70
2026-02-02T20:06	-4.5	1017	-6.2	270	0	70
2026-02-02T20:07	-4.3	1017	-5.8	0	0	70
2026-02-02T20:08	-4.2	1017	-5.6	0	0	70
2026-02-02T20:09	-3.9	1017	-5.3	0	0	70
2026-02-02T20:10	-3.8	1017	-5.2	0	0	70
2026-02-02T20:11	-4.0	1017	-5.5	0	0	70
2026-02-02T20:12	-4.2	1017	-5.9	0	0	70
2026-02-02T20:13	-4.1	1017	-5.8	0	0	70
2026-02-02T20:14	-4.0	1017	-5.5	0	0	70
2026-02-02T20:15	-4.2	1017	-5.9	0	0	70
2026-02-02T20:16	-4.3	1017	-6.0	0	0	70
2026-02-02T20:17	-4.3	1017	-5.8	0	0	70
2026-02-02T20:18	-4.3	1017	-5.8	0	0	70
2026-02-02T20:19	-4.1	1017	-5.6	0	0	70
2026-02-02T20:20	-4.0	1017	-5.4	0	0	70
2026-02-02T20:21	-3.9	1017	-5.3	0	0	70
2026-02-02T20:22	-4.0	1017	-5.5	350	0	70
2026-02-02T20:23	-4.4	1017	-5.9	10	0	70
2026-02-02T20:24	-4.4	1017	-5.9	40	0	70
2026-02-02T20:25	-4.3	1017	-5.8	70	0	70
2026-02-02T20:26	-4.2	1017	-5.6	80	0	70
2026-02-02T20:27	-4.2	1017	-5.6	90	0	70
2026-02-02T20:28	-4.1	1017	-5.5	90	1	70
2026-02-02T20:29	-4.1	1017	-5.3	100	1	70
2026-02-02T20:30	-4.1	1017	-5.5	90	1	70
2026-02-02T20:31	-4.1	1017	-5.5	90	1	70
2026-02-02T20:32	-4.0	1017	-5.4	90	1	70
2026-02-02T20:33	-3.9	1017	-5.3	80	1	70
2026-02-02T20:34	-4.2	1017	-5.7	80	1	70
2026-02-02T20:35	-4.3	1017	-6.0	70	1	70
2026-02-02T20:36	-4.3	1017	-6.0	50	0	70
2026-02-02T20:37	-4.4	1017	-6.1	300	0	70
2026-02-02T20:38	-4.8	1017	-6.6	360	1	70
2026-02-02T20:39	-4.9	1017	-6.7	310	1	70
2026-02-02T20:40	-4.9	1017	-6.6	290	1	70
2026-02-02T20:41	-4.9	1017	-6.4	280	1	70
2026-02-02T20:42	-4.6	1017	-6.0	280	1	70
2026-02-02T20:43	-4.7	1017	-6.1	270	1	70
2026-02-02T20:44	-4.9	1017	-6.3	270	1	70
2026-02-02T20:45	-4.6	1017	-6.0	250	1	70
2026-02-02T20:46	-4.8	1017	-6.2	140	1	70
2026-02-02T20:47	-5.2	1017	-6.9	120	1	70
2026-02-02T20:48	-4.8	1017	-6.3	210	1	70
2026-02-02T20:49	-4.6	1017	-6.0	210	1	70
2026-02-02T20:50	-4.8	1017	-6.2	210	1	70
2026-02-02T20:51	-4.7	1017	-6.2	210	1	70
2026-02-02T20:52	-4.6	1017	-6.0	210	1	70
2026-02-02T20:53	-4.8	1017	-6.3	200	1	70
2026-02-02T20:54	-4.6	1017	-6.1	210	1	70
2026-02-02T20:55	-5.3	1017	-6.8	210	1	70
2026-02-02T20:56	-4.9	1017	-6.4	220	1	70
2026-02-02T20:57	-4.7	1017	-6.1	110	1	70
2026-02-02T20:58	-4.9	1017	-6.3	20	1	70
2026-02-02T20:59	-4.9	1017	-6.4	260	1	70
2026-02-02T21:00	-4.9	1017	-6.4	260	1	70
2026-02-02T21:01	-5.0	1017	-6.5	260	1	70
2026-02-02T21:02	-4.9	1017	-6.4	250	1	70
2026-02-02T21:03	-4.8	1017	-6.2	240	1	70
2026-02-02T21:04	-4.6	1017	-6.0	230	1	70
2026-02-02T21:05	-5.1	1017	-6.6	240	1	70
2026-02-02T21:06	-4.6	1017	-6.1	240	1	70
2026-02-02T21:07	-4.5	1017	-5.9	240	1	70
2026-02-02T21:08	-4.7	1017	-6.2	240	1	70
2026-02-02T21:09	-4.5	1017	-6.0	240	1	70
2026-02-02T21:10	-4.4	1017	-5.8	240	1	70
2026-02-02T21:11	-4.8	1017	-6.3	250	1	70
2026-02-02T21:12	-4.8	1017	-6.5	260	1	70
2026-02-02T21:13	-4.6	1017	-6.1	270	1	70
2026-02-02T21:14	-4.9	1017	-6.6	270	1	70
2026-02-02T21:15	-4.5	1017	-6.2	280	1	70
2026-02-02T21:16	-4.4	1017	-5.8	290	1	70
2026-02-02T21:17	-4.2	1017	-5.6	290	1	70
2026-02-02T21:18	-4.3	1017	-5.7	300	1	70
2026-02-02T21:19	-4.4	1017	-5.9	300	1	70
2026-02-02T21:20	-4.6	1017	-6.3	290	1	70
2026-02-02T21:21	-4.7	1017	-6.4	290	1	70
2026-02-02T21:22	-4.7	1017	-6.4	290	1	70
2026-02-02T21:23	-4.6	1017	-6.1	300	1	70
2026-02-02T21:24	-5.0	1017	-6.5	310	1	70
2026-02-02T21:25	-5.7	1017	-7.5	310	1	70
2026-02-02T21:26	-5.1	1017	-6.8	300	1	70
2026-02-02T21:27	-4.7	1017	-6.1	300	1	70
2026-02-02T21:28	-4.9	1018	-6.3	290	1	70
2026-02-02T21:29	-5.0	1017	-6.4	280	1	70
2026-02-02T21:30	-4.9	1017	-6.4	280	1	70
2026-02-02T21:31	-4.8	1018	-6.3	270	1	70
2026-02-02T21:32	-4.4	1018	-5.9	270	1	70
2026-02-02T21:33	-4.6	1018	-6.1	260	1	70
2026-02-02T21:34	-4.4	1018	-6.1	250	1	70
2026-02-02T21:35	-4.3	1018	-6.0	260	1	70
2026-02-02T21:36	-4.3	1018	-6.1	250	1	70
2026-02-02T21:37	-4.1	1018	-5.9	250	1	70
2026-02-02T21:38	-4.4	1018	-6.2	250	1	70
2026-02-02T21:39	-4.1	1018	-5.9	260	1	70
2026-02-02T21:40	-4.4	1018	-6.2	260	1	70
2026-02-02T21:41	-4.8	1018	-6.8	260	1	70
2026-02-02T21:42	-4.7	1018	-6.7	260	1	70
2026-02-02T21:43	-4.5	1018	-6.3	250	1	70
2026-02-02T21:44	-4.7	1018	-6.7	250	1	70
2026-02-02T21:45	-5.2	1018	-7.2	250	1	70
2026-02-02T21:46	-4.8	1018	-6.8	250	1	70
2026-02-02T21:47	-4.3	1018	-6.0	260	1	70
2026-02-02T21:48	-4.4	1018	-6.1	260	1	70
2026-02-02T21:49	-4.6	1018	-6.4	260	1	70
2026-02-02T21:50	-4.4	1018	-6.2	270	1	70
2026-02-02T21:51	-4.6	1018	-6.6	260	1	70
2026-02-02T21:52	-4.4	1018	-6.4	250	1	70
2026-02-02T21:53	-4.4	1018	-6.4	240	1	70
2026-02-02T21:54	-4.3	1018	-6.4	270	1	70
2026-02-02T21:55	-4.1	1018	-6.1	150	1	70
2026-02-02T21:56	-4.4	1018	-6.5	300	1	70
2026-02-02T21:57	-4.3	1018	-6.4	310	1	70
2026-02-02T21:58	-4.1	1018	-6.1	310	1	70
2026-02-02T21:59	-4.0	1018	-5.8	320	1	70
2026-02-02T22:00	-4.1	1018	-6.1	330	1	70
2026-02-02T22:01	-4.2	1018	-6.2	330	1	70
2026-02-02T22:02	-4.2	1018	-6.2	320	1	70
2026-02-02T22:03	-4.3	1018	-6.3	320	1	70
2026-02-02T22:04	-4.7	1018	-6.8	310	1	70
2026-02-02T22:05	-5.1	1018	-7.4	290	1	70
2026-02-02T22:06	-5.0	1018	-7.3	280	1	70
2026-02-02T22:07	-5.0	1018	-7.1	270	1	70
2026-02-02T22:08	-4.6	1018	-6.4	260	1	70
2026-02-02T22:09	-4.5	1018	-6.3	250	1	70
2026-02-02T22:10	-4.4	1018	-6.2	240	1	70
2026-02-02T22:11	-4.4	1018	-6.2	250	1	70
2026-02-02T22:12	-4.2	1018	-6.0	250	1	70
2026-02-02T22:13	-4.5	1018	-6.3	270	1	70
2026-02-02T22:14	-4.4	1018	-6.4	280	1	70
2026-02-02T22:15	-4.0	1018	-5.8	300	1	70
2026-02-02T22:16	-3.9	1018	-5.7	310	1	70
2026-02-02T22:17	-3.8	1018	-5.6	310	1	70
2026-02-02T22:18	-3.9	1018	-5.9	310	1	70
2026-02-02T22:19	-3.7	1018	-5.8	310	1	70
2026-02-02T22:20	-3.4	1018	-5.5	310	1	70
2026-02-02T22:21	-3.2	1018	-5.5	290	1	70
2026-02-02T22:22	-3.3	1018	-5.8	280	1	70
2026-02-02T22:23	-3.4	1018	-6.0	270	1	70
2026-02-02T22:24	-3.1	1018	-5.7	250	1	70
2026-02-02T22:25	-2.9	1018	-5.7	240	1	70
2026-02-02T22:26	-3.2	1018	-6.0	240	1	70
2026-02-02T22:27	-3.4	1018	-6.3	230	1	70
2026-02-02T22:28	-3.3	1018	-6.1	230	1	70
2026-02-02T22:29	-3.3	1018	-6.1	230	1	70
2026-02-02T22:30	-3.0	1018	-5.8	230	1	70
2026-02-02T22:31	-2.8	1018	-5.6	230	1	70
2026-02-02T22:32	-2.5	1018	-5.5	230	1	70
2026-02-02T22:33	-2.3	1018	-5.4	230	1	70
2026-02-02T22:34	-2.5	1018	-5.6	240	1	70
2026-02-02T22:35	-2.4	1018	-5.4	240	1	70
2026-02-02T22:36	-2.7	1018	-5.8	250	1	70
2026-02-02T22:37	-2.4	1018	-5.5	250	1	70
2026-02-02T22:38	-2.3	1018	-5.4	260	1	70
2026-02-02T22:39	-2.4	1018	-5.5	260	1	70
2026-02-02T22:40	-2.2	1018	-5.5	260	1	70
2026-02-02T22:41	-2.1	1018	-5.6	260	1	70
2026-02-02T22:42	-2.1	1018	-5.6	270	1	70
2026-02-02T22:43	-2.2	1018	-5.7	270	1	70
2026-02-02T22:44	-2.0	1018	-5.5	260	1	70
2026-02-02T22:45	-1.8	1018	-5.3	260	1	70
2026-02-02T22:46	-1.6	1018	-5.1	260	1	70
2026-02-02T22:47	-1.4	1018	-4.9	260	1	70
2026-02-02T22:48	-1.1	1018	-4.8	260	1	70
2026-02-02T22:49	-1.2	1018	-4.7	260	1	70
2026-02-02T22:50	-1.0	1018	-4.3	250	1	70
2026-02-02T22:51	-1.1	1018	-4.3	250	1	70
2026-02-02T22:52	-1.0	1018	-4.3	250	1	70
2026-02-02T22:53	-0.8	1018	-4.3	250	1	70
2026-02-02T22:54	-0.8	1018	-4.3	250	1	70
2026-02-02T22:55	-0.9	1018	-4.4	260	1	70
2026-02-02T22:56	-1.0	1018	-4.5	260	1	70
2026-02-02T22:57	-0.9	1018	-4.8	260	1	70
2026-02-02T22:58	-0.6	1018	-4.6	270	1	70
2026-02-02T22:59	-0.5	1018	-4.2	280	1	70
2026-02-02T23:00	-0.7	1018	-4.2	290	1	70
2026-02-02T23:01	-0.5	1018	-4.2	300	1	70
2026-02-02T23:02	-0.2	1018	-4.3	310	1	70
2026-02-02T23:03	-0.2	1018	-4.3	310	1	70
2026-02-02T23:04	-0.2	1018	-3.7	320	1	70
2026-02-02T23:05	0.1	1019	-3.6	330	1	70
2026-02-02T23:06	0.4	1019	-4.0	330	1	70
2026-02-02T23:07	0.8	1019	-4.0	330	1	70
2026-02-02T23:08	1.1	1019	-4.3	330	1	70
2026-02-02T23:09	0.9	1019	-4.5	330	1	70
2026-02-02T23:10	1.1	1019	-4.7	330	1	70
2026-02-02T23:11	1.0	1019	-4.8	330	1	70
2026-02-02T23:12	1.4	1019	-4.6	330	1	70
2026-02-02T23:13	1.1	1019	-4.9	330	1	70
2026-02-02T23:14	0.7	1019	-4.9	340	1	70
2026-02-02T23:15	0.9	1019	-4.9	340	1	70
2026-02-02T23:16	1.3	1019	-3.9	340	1	70
2026-02-02T23:17	1.5	1019	-4.3	350	1	70
2026-02-02T23:18	1.8	1019	-4.5	350	1	70
2026-02-02T23:19	2.0	1019	-4.3	350	1	70
2026-02-02T23:20	2.1	1019	-4.6	350	1	70
2026-02-02T23:21	2.4	1019	-4.1	350	1	70
2026-02-02T23:22	2.5	1019	-3.8	350	1	70
2026-02-02T23:23	2.6	1019	-4.4	340	1	70
2026-02-02T23:24	2.5	1019	-4.5	340	1	70
2026-02-02T23:25	2.5	1019	-4.7	330	1	70
2026-02-02T23:26	2.5	1019	-4.5	330	1	70
2026-02-02T23:27	2.7	1019	-4.5	330	1	70
2026-02-02T23:28	2.6	1019	-4.8	320	1	70
2026-02-02T23:29	2.7	1019	-4.7	320	1	70
2026-02-02T23:30	3.0	1019	-4.2	320	1	70
2026-02-02T23:31	3.0	1019	-4.4	310	1	70
2026-02-02T23:32	3.3	1019	-4.4	300	1	70
2026-02-02T23:33	3.2	1019	-4.7	300	1	70
2026-02-02T23:34	3.2	1019	-5.0	290	1	70
2026-02-02T23:35	3.2	1019	-5.0	280	1	70
2026-02-02T23:36	3.2	1019	-4.7	270	2	70
2026-02-02T23:37	3.2	1019	-5.0	260	2	70
2026-02-02T23:38	3.1	1019	-5.0	260	1	70
2026-02-02T23:39	3.1	1019	-5.0	250	1	70
2026-02-02T23:40	3.3	1019	-4.2	250	1	70
2026-02-02T23:41	3.2	1019	-4.7	250	1	70
2026-02-02T23:42	3.1	1019	-4.8	240	1	70
2026-02-02T23:43	3.2	1019	-4.7	240	1	70
2026-02-02T23:44	3.3	1019	-4.4	230	1	70
2026-02-02T23:45	3.3	1019	-4.6	220	1	70
2026-02-02T23:46	3.3	1019	-4.6	220	1	70
2026-02-02T23:47	3.3	1019	-4.9	220	1	70
2026-02-02T23:48	3.3	1019	-5.1	220	1	70
2026-02-02T23:49	3.5	1019	-4.7	230	1	70
2026-02-02T23:50	3.7	1019	-4.2	230	1	70
2026-02-02T23:51	3.7	1019	-4.7	230	1	70
2026-02-02T23:52	3.6	1019	-4.8	250	1	70
2026-02-02T23:53	3.7	1019	-4.7	270	1	70
2026-02-02T23:54	3.7	1019	-4.7	290	1	70
2026-02-02T23:55	3.6	1019	-5.1	300	1	70
2026-02-02T23:56	3.7	1019	-5.0	310	1	70
2026-02-02T23:57	3.9	1019	-4.8	320	1	70
2026-02-02T23:58	4.3	1019	-4.2	320	1	70
2026-02-02T23:59	4.3	1019	-4.2	320	1	70
2026-02-03T00:00	4.5	1019	-4.0	310	1	70
2026-02-03T00:01	4.5	1019	-4.2	310	1	70
2026-02-03T00:02	4.1	1019	-5.1	300	1	70
2026-02-03T00:03	4.3	1019	-4.9	300	1	70
2026-02-03T00:04	4.4	1019	-4.6	300	1	70
2026-02-03T00:05	4.2	1019	-5.3	290	1	70
2026-02-03T00:06	4.1	1019	-5.6	290	1	70
2026-02-03T00:07	4.1	1019	-5.6	280	1	70
2026-02-03T00:08	4.1	1019	-5.6	270	1	70
2026-02-03T00:09	4.7	1019	-4.6	260	1	70
2026-02-03T00:10	4.4	1019	-5.1	260	1	70
2026-02-03T00:11	4.1	1019	-5.9	250	1	70
2026-02-03T00:12	4.2	1019	-5.8	250	0	70
2026-02-03T00:13	4.3	1019	-5.5	110	0	70
2026-02-03T00:14	4.3	1019	-5.7	40	1	70
2026-02-03T00:15	4.2	1019	-6.4	20	1	70
2026-02-03T00:16	4.3	1019	-6.3	320	1	70
2026-02-03T00:17	4.4	1019	-6.2	350	1	70
2026-02-03T00:18	4.4	1019	-6.2	360	1	70
2026-02-03T00:19	4.3	1019	-6.3	20	1	70
2026-02-03T00:20	4.2	1019	-6.1	30	1	70
2026-02-03T00:21	4.4	1019	-5.6	30	1	70
2026-02-03T00:22	4.4	1019	-5.6	40	1	70
2026-02-03T00:23	4.9	1019	-4.9	60	1	70
2026-02-03T00:24	4.7	1019	-5.4	80	1	70
2026-02-03T00:25	4.6	1019	-5.4	100	1	70
2026-02-03T00:26	4.9	1019	-5.2	110	1	70
2026-02-03T00:27	4.7	1019	-5.9	120	1	70
2026-02-03T00:28	4.8	1019	-5.8	120	1	70
2026-02-03T00:29	5.4	1019	-5.0	130	1	70
2026-02-03T00:30	5.5	1019	-5.2	140	1	70
2026-02-03T00:31	5.1	1019	-6.4	140	1	70
2026-02-03T00:32	4.9	1019	-6.9	150	1	70
2026-02-03T00:33	4.8	1019	-7.0	160	1	70
2026-02-03T00:34	5.2	1019	-6.3	160	1	70
2026-02-03T00:35	5.6	1019	-5.7	150	1	70
2026-02-03T00:36	5.1	1019	-6.7	150	1	70
2026-02-03T00:37	5.1	1019	-6.7	140	1	70
2026-02-03T00:38	4.8	1019	-7.0	130	1	70
2026-02-03T00:39	4.8	1019	-7.0	130	1	70
2026-02-03T00:40	4.9	1019	-6.6	130	1	70
2026-02-03T00:41	5.0	1019	-6.5	140	1	70
2026-02-03T00:42	5.5	1019	-6.1	130	1	70
2026-02-03T00:43	5.6	1019	-6.0	110	1	70
2026-02-03T00:44	5.1	1019	-7.1	90	1	70
2026-02-03T00:45	4.9	1019	-7.2	70	1	70
2026-02-03T00:46	5.1	1019	-6.7	50	1	70
2026-02-03T00:47	5.4	1019	-6.5	40	1	70
2026-02-03T00:48	5.2	1019	-6.7	30	1	70
2026-02-03T00:49	5.1	1019	-6.7	30	1	70
2026-02-03T00:50	5.1	1019	-6.7	30	1	70
2026-02-03T00:51	5.1	1019	-6.7	30	1	70
2026-02-03T00:52	4.9	1019	-6.9	30	1	70
2026-02-03T00:53	5.1	1019	-6.4	40	1	70
2026-02-03T00:54	5.0	1019	-6.8	50	1	70
2026-02-03T00:55	5.2	1019	-6.7	60	1	70
2026-02-03T00:56	5.4	1019	-6.5	70	1	70
2026-02-03T00:57	5.6	1019	-6.0	80	1	70
2026-02-03T00:58	5.6	1019	-6.3	80	1	70
2026-02-03T00:59	5.7	1019	-6.2	90	1	70
2026-02-03T01:00	5.5	1019	-6.7	100	1	70
2026-02-03T01:01	5.6	1019	-6.6	100	1	70
2026-02-03T01:02	6.0	1019	-5.9	110	1	70
2026-02-03T01:03	5.9	1019	-6.3	130	1	70
2026-02-03T01:04	5.8	1019	-6.4	130	1	70
2026-02-03T01:05	5.5	1019	-7.0	330	1	70
2026-02-03T01:06	5.6	1019	-6.6	350	1	70
2026-02-03T01:07	5.9	1019	-6.3	70	1	70
2026-02-03T01:08	5.9	1019	-6.3	40	1	70
2026-02-03T01:09	6.4	1019	-5.9	20	1	70
2026-02-03T01:10	6.6	1019	-6.0	320	1	70
2026-02-03T01:11	6.1	1019	-6.8	290	1	70
2026-02-03T01:12	5.6	1019	-7.3	300	1	70
2026-02-03T01:13	6.2	1019	-6.4	300	1	70
2026-02-03T01:14	5.8	1019	-7.1	270	1	70
2026-02-03T01:15	5.8	1019	-7.1	250	1	70
2026-02-03T01:16	5.8	1019	-7.1	240	1	70
2026-02-03T01:17	6.1	1019	-6.8	230	1	70
2026-02-03T01:18	6.0	1019	-6.9	230	2	70
2026-02-03T01:19	5.8	1019	-7.1	230	2	70
2026-02-03T01:20	5.7	1019	-7.2	220	2	70
2026-02-03T01:21	5.9	1019	-7.0	220	2	70
2026-02-03T01:22	6.0	1019	-6.9	210	2	70
2026-02-03T01:23	5.9	1019	-7.0	200	2	70
2026-02-03T01:24	6.3	1019	-6.3	190	2	70
2026-02-03T01:25	6.2	1019	-6.7	180	2	70
2026-02-03T01:26	6.3	1019	-6.6	170	2	70
2026-02-03T01:27	6.0	1019	-7.2	150	1	70
2026-02-03T01:28	6.4	1019	-6.5	150	1	70
2026-02-03T01:29	6.9	1019	-6.1	130	1	70
2026-02-03T01:30	6.6	1019	-6.7	130	1	70
2026-02-03T01:31	6.4	1019	-7.2	130	1	70
2026-02-03T01:32	6.9	1019	-6.1	230	1	70
2026-02-03T01:33	6.4	1019	-7.2	260	1	70
2026-02-03T01:34	6.4	1020	-6.9	270	1	70
2026-02-03T01:35	6.7	1020	-6.6	310	1	70
2026-02-03T01:36	6.8	1020	-6.5	300	1	70
2026-02-03T01:37	6.9	1019	-6.8	290	1	70
2026-02-03T01:38	6.7	1019	-7.0	290	1	70
2026-02-03T01:39	6.4	1019	-7.2	280	2	70
2026-02-03T01:40	6.4	1019	-7.2	280	2	70
2026-02-03T01:41	6.4	1019	-7.2	280	2	70
2026-02-03T01:42	6.2	1019	-7.4	280	2	70
2026-02-03T01:43	6.6	1019	-7.0	280	2	70
2026-02-03T01:44	6.9	1019	-6.8	280	2	70
2026-02-03T01:45	6.6	1019	-7.0	280	2	70
2026-02-03T01:46	6.9	1020	-6.8	280	2	70
2026-02-03T01:47	6.6	1020	-7.4	290	2	70
2026-02-03T01:48	6.1	1020	-7.8	290	2	70
2026-02-03T01:49	6.1	1020	-7.5	300	2	70
2026-02-03T01:50	6.4	1020	-7.2	310	2	70
2026-02-03T01:51	6.6	1020	-7.0	320	2	70
2026-02-03T01:52	6.9	1020	-6.8	320	2	70
2026-02-03T01:53	6.7	1020	-7.0	320	2	70
2026-02-03T01:54	7.0	1020	-6.7	330	2	70
2026-02-03T01:55	7.0	1020	-6.7	330	2	70
2026-02-03T01:56	7.1	1019	-6.6	330	2	70
2026-02-03T01:57	6.9	1019	-7.1	340	2	70
2026-02-03T01:58	6.5	1019	-7.5	340	2	70
2026-02-03T01:59	6.5	1019	-7.5	340	2	70
2026-02-03T02:00	6.3	1019	-7.7	340	2	70
2026-02-03T02:01	6.4	1019	-7.6	350	2	70
2026-02-03T02:02	6.4	1019	-7.2	350	2	70
2026-02-03T02:03	6.7	1019	-7.0	360	2	70
2026-02-03T02:04	6.6	1019	-7.0	360	2	70
2026-02-03T02:05	6.9	1019	-6.8	350	2	70
2026-02-03T02:06	6.9	1019	-7.1	350	2	70
2026-02-03T02:07	7.0	1019	-6.7	350	2	70
2026-02-03T02:08	6.7	1019	-7.3	350	2	70
2026-02-03T02:09	6.4	1019	-7.6	350	2	70
2026-02-03T02:10	6.4	1019	-7.6	350	2	70
2026-02-03T02:11	6.3	1019	-7.7	340	2	70
2026-02-03T02:12	6.6	1019	-7.0	330	2	70
2026-02-03T02:13	7.4	1019	-6.3	320	2	70
2026-02-03T02:14	7.0	1019	-7.0	320	2	70
2026-02-03T02:15	6.7	1019	-7.3	320	1	70
2026-02-03T02:16	6.8	1019	-7.2	330	1	70
2026-02-03T02:17	7.2	1019	-6.5	330	1	70
2026-02-03T02:18	7.8	1019	-6.0	330	1	70
2026-02-03T02:19	8.2	1019	-6.0	320	1	70
2026-02-03T02:20	7.8	1019	-7.1	320	1	70
2026-02-03T02:21	7.6	1019	-7.3	320	1	70
2026-02-03T02:22	7.5	1019	-7.3	330	2	70
2026-02-03T02:23	7.7	1019	-7.2	330	2	70
2026-02-03T02:24	7.2	1019	-8.0	340	2	70
2026-02-03T02:25	7.4	1019	-7.4	330	2	70
2026-02-03T02:26	7.9	1019	-7.0	330	2	70
2026-02-03T02:27	7.5	1019	-7.7	320	3	70
2026-02-03T02:28	7.6	1019	-7.6	320	3	70
2026-02-03T02:29	7.7	1019	-7.5	330	3	70
2026-02-03T02:30	7.2	1019	-8.4	330	3	70
2026-02-03T02:31	7.1	1019	-8.1	330	3	70
2026-02-03T02:32	7.6	1019	-7.3	320	3	70
2026-02-03T02:33	7.5	1019	-7.7	310	3	70
2026-02-03T02:34	7.5	1019	-7.7	300	3	70
2026-02-03T02:35	7.5	1019	-7.7	300	3	70
2026-02-03T02:36	7.3	1019	-7.9	300	3	70
2026-02-03T02:37	7.4	1019	-7.8	300	2	70
2026-02-03T02:38	7.5	1019	-7.3	300	2	70
2026-02-03T02:39	7.9	1019	-7.0	300	2	70
2026-02-03T02:40	7.7	1019	-7.5	290	2	70
2026-02-03T02:41	7.8	1019	-7.5	300	2	70
2026-02-03T02:42	7.0	1019	-8.6	300	2	70
2026-02-03T02:43	6.9	1019	-8.6	310	2	70
2026-02-03T02:44	6.9	1019	-8.3	320	2	70
2026-02-03T02:45	7.0	1019	-8.2	330	2	70
2026-02-03T02:46	6.8	1019	-8.3	340	2	70
2026-02-03T02:47	7.1	1019	-7.7	350	2	70
2026-02-03T02:48	6.9	1019	-8.3	360	2	70
2026-02-03T02:49	6.9	1019	-8.3	10	2	70
2026-02-03T02:50	7.2	1019	-7.6	30	2	70
2026-02-03T02:51	7.6	1019	-7.3	50	2	70
2026-02-03T02:52	7.6	1019	-7.6	60	1	70
2026-02-03T02:53	7.1	1019	-8.5	60	1	70
2026-02-03T02:54	7.3	1019	-8.7	60	1	70
2026-02-03T02:55	7.3	1019	-8.7	320	1	70
2026-02-03T02:56	7.5	1019	-8.5	50	1	70
2026-02-03T02:57	7.3	1019	-8.7	20	1	70
2026-02-03T02:58	7.5	1019	-8.5	10	1	70
2026-02-03T02:59	7.6	1019	-8.4	340	2	70
2026-02-03T03:00	7.6	1019	-8.9	330	2	70
2026-02-03T03:01	8.1	1019	-8.0	320	2	70
2026-02-03T03:02	7.7	1019	-9.2	330	2	70
2026-02-03T03:03	7.7	1019	-9.2	330	2	70
2026-02-03T03:04	7.4	1019	-9.5	330	2	70
2026-02-03T03:05	7.2	1019	-9.6	330	2	70
2026-02-03T03:06	7.9	1019	-8.6	330	2	70
2026-02-03T03:07	8.0	1019	-8.5	320	2	70
2026-02-03T03:08	8.0	1019	-8.5	310	2	70
2026-02-03T03:09	8.3	1019	-8.2	310	2	70
2026-02-03T03:10	8.3	1019	-8.2	300	2	70
2026-02-03T03:11	8.4	1019	-8.6	300	2	70
2026-02-03T03:12	8.3	1019	-8.7	300	2	70
2026-02-03T03:13	8.4	1019	-8.6	300	2	70
2026-02-03T03:14	7.8	1019	-9.6	300	2	70
2026-02-03T03:15	7.5	1019	-9.4	290	2	70
2026-02-03T03:16	7.4	1019	-9.5	290	3	70
2026-02-03T03:17	8.0	1019	-8.5	290	2	70
2026-02-03T03:18	7.9	1019	-9.0	290	2	70
2026-02-03T03:19	8.0	1019	-8.9	290	2	70
2026-02-03T03:20	8.8	1019	-8.2	290	2	70
2026-02-03T03:21	8.3	1019	-9.1	290	2	70
2026-02-03T03:22	7.8	1019	-9.6	290	2	70
2026-02-03T03:23	7.9	1019	-9.0	290	2	70
2026-02-03T03:24	7.9	1018	-9.0	280	2	70
2026-02-03T03:25	7.4	1018	-9.5	280	2	70
2026-02-03T03:26	7.5	1018	-9.4	280	2	70
2026-02-03T03:27	7.6	1018	-9.3	270	2	70
2026-02-03T03:28	7.9	1018	-8.6	260	2	70
2026-02-03T03:29	8.4	1018	-8.2	260	2	70
2026-02-03T03:30	8.3	1018	-8.7	260	2	70
2026-02-03T03:31	7.8	1018	-9.1	270	2	70
2026-02-03T03:32	7.7	1018	-9.2	270	2	70
2026-02-03T03:33	7.4	1018	-9.5	280	2	70
2026-02-03T03:34	7.6	1018	-8.9	280	2	70
2026-02-03T03:35	8.1	1018	-8.4	280	2	70
2026-02-03T03:36	8.0	1018	-8.9	290	2	70
2026-02-03T03:37	8.0	1018	-8.9	290	2	70
2026-02-03T03:38	8.4	1018	-8.6	290	2	70
2026-02-03T03:39	8.5	1018	-9.0	290	2	70
2026-02-03T03:40	8.1	1018	-9.3	290	2	70
2026-02-03T03:41	7.9	1018	-9.5	270	2	70
2026-02-03T03:42	8.1	1018	-8.9	260	2	70
2026-02-03T03:43	7.8	1018	-9.1	260	2	70
2026-02-03T03:44	7.6	1018	-9.3	260	2	70
2026-02-03T03:45	7.7	1018	-9.2	250	2	70
2026-02-03T03:46	8.3	1018	-8.2	250	2	70
2026-02-03T03:47	8.3	1018	-8.7	250	2	70
2026-02-03T03:48	8.1	1018	-8.9	240	2	70
2026-02-03T03:49	8.2	1018	-8.8	240	2	70
2026-02-03T03:50	8.9	1018	-8.2	240	2	70
2026-02-03T03:51	8.4	1018	-9.0	240	2	70
2026-02-03T03:52	7.8	1018	-9.6	250	2	70
2026-02-03T03:53	8.1	1018	-8.9	240	2	70
2026-02-03T03:54	7.8	1018	-9.6	240	2	70
2026-02-03T03:55	7.9	1018	-9.0	240	2	70
2026-02-03T03:56	7.8	1018	-9.1	250	3	70
2026-02-03T03:57	7.9	1018	-9.0	250	2	70
2026-02-03T03:58	7.7	1018	-9.2	260	2	70
2026-02-03T03:59	7.8	1018	-8.7	270	2	70
2026-02-03T04:00	8.0	1018	-8.5	270	2	70
2026-02-03T04:01	8.4	1018	-8.2	270	2	70
2026-02-03T04:02	8.8	1018	-7.8	280	2	70
2026-02-03T04:03	8.9	1018	-8.2	290	2	70
2026-02-03T04:04	8.3	1018	-9.1	300	2	70
2026-02-03T04:05	8.4	1018	-8.6	300	2	70
2026-02-03T04:06	8.3	1018	-8.7	310	2	70
2026-02-03T04:07	8.2	1018	-8.8	310	2	70
2026-02-03T04:08	8.1	1018	-8.9	320	2	70
2026-02-03T04:09	8.1	1018	-8.9	320	2	70
2026-02-03T04:10	8.5	1018	-8.5	330	2	70
2026-02-03T04:11	8.9	1018	-8.2	340	2	70
2026-02-03T04:12	9.2	1018	-7.9	240	2	70
2026-02-03T04:13	8.7	1018	-8.8	220	2	70
2026-02-03T04:14	8.5	1018	-9.0	290	2	70
2026-02-03T04:15	8.3	1018	-9.1	270	2	70
2026-02-03T04:16	8.1	1018	-9.3	260	2	70
2026-02-03T04:17	8.2	1018	-8.8	260	2	70
2026-02-03T04:18	8.1	1018	-8.9	260	2	70
2026-02-03T04:19	8.5	1018	-8.5	270	2	70
2026-02-03T04:20	8.6	1018	-8.9	270	2	70
2026-02-03T04:21	8.2	1018	-9.2	260	2	70
2026-02-03T04:22	8.1	1018	-9.3	260	2	70
2026-02-03T04:23	8.1	1018	-9.3	270	2	70
2026-02-03T04:24	8.1	1018	-9.3	280	2	70
2026-02-03T04:25	8.6	1018	-8.9	290	2	70
2026-02-03T04:26	8.9	1018	-8.6	290	2	70
2026-02-03T04:27	8.4	1018	-9.5	280	2	70
2026-02-03T04:28	8.1	1018	-9.8	270	2	70
2026-02-03T04:29	8.0	1018	-9.4	270	2	70
2026-02-03T04:30	8.1	1018	-9.3	260	2	70
2026-02-03T04:31	7.8	1018	-9.6	250	2	70
2026-02-03T04:32	8.0	1018	-9.4	240	2	70
2026-02-03T04:33	8.2	1018	-9.2	220	2	70
2026-02-03T04:34	8.1	1018	-9.3	200	1	70
2026-02-03T04:35	8.6	1018	-8.9	210	1	70
2026-02-03T04:36	9.1	1018	-8.4	210	1	70
2026-02-03T04:37	8.6	1018	-9.3	210	1	70
2026-02-03T04:38	8.9	1018	-8.6	230	1	70
2026-02-03T04:39	8.3	1018	-9.6	250	1	70
2026-02-03T04:40	8.5	1018	-9.0	250	1	70
2026-02-03T04:41	8.9	1018	-8.6	250	1	70
2026-02-03T04:42	8.7	1018	-9.2	250	1	70
2026-02-03T04:43	8.5	1018	-9.4	250	1	70
2026-02-03T04:44	8.4	1018	-9.0	250	2	70
2026-02-03T04:45	8.6	1018	-8.9	250	2	70
2026-02-03T04:46	8.7	1018	-8.8	260	2	70
2026-02-03T04:47	8.4	1018	-9.0	270	2	70
2026-02-03T04:48	8.1	1018	-9.3	270	2	70
2026-02-03T04:49	8.2	1018	-9.2	10	2	70
2026-02-03T04:50	8.4	1018	-8.6	40	2	70
2026-02-03T04:51	8.8	1018	-8.2	20	2	70
2026-02-03T04:52	8.7	1018	-8.8	360	2	70
2026-02-03T04:53	8.6	1018	-8.9	360	2	70
2026-02-03T04:54	8.7	1018	-8.8	360	2	70
2026-02-03T04:55	8.9	1018	-8.6	360	2	70
2026-02-03T04:56	8.5	1018	-9.4	360	2	70
2026-02-03T04:57	8.3	1018	-9.6	350	2	70
2026-02-03T04:58	8.4	1018	-9.0	340	2	70
2026-02-03T04:59	8.7	1018	-8.8	330	2	70
2026-02-03T05:00	8.8	1018	-8.7	320	2	70
2026-02-03T05:01	9.1	1018	-8.4	320	2	70
2026-02-03T05:02	9.4	1018	-8.2	310	2	70
2026-02-03T05:03	9.5	1018	-8.1	300	2	70
2026-02-03T05:04	9.2	1018	-8.8	290	2	70
2026-02-03T05:05	8.7	1018	-9.2	290	2	70
2026-02-03T05:06	8.4	1018	-9.5	290	2	70
2026-02-03T05:07	8.3	1018	-9.1	290	1	70
2026-02-03T05:08	8.7	1018	-8.3	290	1	70
2026-02-03T05:09	8.5	1018	-9.0	300	1	70
2026-02-03T05:10	8.5	1018	-8.5	300	1	70
2026-02-03T05:11	8.7	1018	-8.3	320	1	70
2026-02-03T05:12	8.9	1018	-8.2	340	1	70
2026-02-03T05:13	9.3	1018	-7.8	350	1	70
2026-02-03T05:14	9.5	1018	-7.6	350	1	70
2026-02-03T05:15	9.4	1018	-8.2	350	1	70
2026-02-03T05:16	8.9	1018	-9.1	340	1	70
2026-02-03T05:17	8.8	1018	-8.7	330	2	70
2026-02-03T05:18	8.9	1018	-8.6	310	2	70
2026-02-03T05:19	8.9	1018	-8.6	260	2	70
2026-02-03T05:20	8.6	1018	-8.9	260	2	70
2026-02-03T05:21	8.6	1018	-8.9	250	2	70
2026-02-03T05:22	8.6	1018	-8.9	250	2	70
2026-02-03T05:23	8.6	1018	-8.9	240	2	70
2026-02-03T05:24	9.1	1018	-8.0	240	2	70
2026-02-03T05:25	9.3	1018	-7.8	230	2	70
2026-02-03T05:26	9.5	1018	-7.6	230	2	70
2026-02-03T05:27	9.2	1018	-8.4	220	2	70
2026-02-03T05:28	9.0	1018	-8.5	230	1	70
2026-02-03T05:29	8.7	1018	-8.8	240	2	70
2026-02-03T05:30	8.7	1018	-8.8	240	2	70
2026-02-03T05:31	8.9	1018	-8.6	250	2	70
2026-02-03T05:32	9.0	1018	-8.5	280	2	70
2026-02-03T05:33	8.8	1018	-8.7	330	2	70
2026-02-03T05:34	8.7	1018	-8.8	340	2	70
2026-02-03T05:35	8.6	1018	-8.9	340	2	70
2026-02-03T05:36	8.6	1018	-8.9	340	2	70
2026-02-03T05:37	8.7	1018	-8.3	350	2	70
2026-02-03T05:38	8.6	1018	-8.9	350	2	70
2026-02-03T05:39	8.5	1018	-9.0	360	2	70
2026-02-03T05:40	8.9	1018	-8.2	10	2	70
2026-02-03T05:41	9.0	1018	-8.1	10	2	70
2026-02-03T05:42	8.9	1018	-8.2	10	2	70
2026-02-03T05:43	8.8	1018	-8.2	360	2	70
2026-02-03T05:44	8.7	1018	-8.8	360	2	70
2026-02-03T05:45	8.6	1018	-8.9	360	2	70
2026-02-03T05:46	8.6	1018	-8.9	360	2	70
2026-02-03T05:47	8.7	1018	-8.3	360	2	70
2026-02-03T05:48	8.7	1018	-8.3	360	2	70
2026-02-03T05:49	8.6	1018	-8.4	350	2	70
2026-02-03T05:50	8.6	1018	-8.4	340	2	70
2026-02-03T05:51	8.6	1018	-8.4	340	2	70
2026-02-03T05:52	8.8	1018	-8.2	340	2	70
2026-02-03T05:53	9.0	1018	-8.1	340	2	70
2026-02-03T05:54	9.2	1018	-7.9	340	2	70
2026-02-03T05:55	8.9	1018	-8.6	340	2	70
2026-02-03T05:56	8.7	1018	-8.8	330	2	70
2026-02-03T05:57	8.7	1018	-8.3	330	2	70
2026-02-03T05:58	8.9	1018	-8.2	320	2	70
2026-02-03T05:59	8.7	1018	-8.3	320	2	70
2026-02-03T06:00	8.6	1018	-8.4	320	2	70
2026-02-03T06:01	8.6	1018	-8.4	320	2	70
2026-02-03T06:02	8.8	1018	-8.2	320	2	70
2026-02-03T06:03	8.9	1018	-8.2	310	2	70
2026-02-03T06:04	8.8	1018	-8.2	310	2	70
2026-02-03T06:05	8.8	1018	-8.2	310	2	70
2026-02-03T06:06	8.7	1018	-8.3	310	2	70
2026-02-03T06:07	8.6	1018	-8.4	310	2	70
2026-02-03T06:08	8.6	1018	-8.4	310	1	70
2026-02-03T06:09	8.6	1018	-8.4	300	1	70
2026-02-03T06:10	8.7	1018	-8.3	300	1	70
2026-02-03T06:11	8.7	1018	-8.3	290	1	70
2026-02-03T06:12	8.6	1018	-8.4	280	1	70
2026-02-03T06:13	8.7	1018	-8.3	270	1	70
2026-02-03T06:14	8.8	1018	-8.2	270	1	70
2026-02-03T06:15	8.9	1018	-8.2	250	1	70
2026-02-03T06:16	8.9	1018	-8.2	240	1	70
2026-02-03T06:17	8.7	1018	-8.3	220	1	70
2026-02-03T06:18	8.8	1018	-8.2	220	1	70
2026-02-03T06:19	9.0	1018	-8.1	220	1	70
2026-02-03T06:20	9.0	1018	-8.5	220	1	70
2026-02-03T06:21	8.9	1018	-8.6	220	1	70
2026-02-03T06:22	8.8	1018	-8.7	240	1	70
2026-02-03T06:23	9.1	1018	-8.0	240	1	70
2026-02-03T06:24	9.0	1018	-8.1	250	1	70
2026-02-03T06:25	8.8	1018	-8.7	20	1	70
2026-02-03T06:26	8.7	1018	-8.3	310	1	70
2026-02-03T06:27	8.8	1018	-8.2	330	1	70
2026-02-03T06:28	8.7	1018	-8.3	340	1	70
2026-02-03T06:29	8.8	1018	-8.2	350	1	70
2026-02-03T06:30	8.8	1018	-8.2	350	1	70
2026-02-03T06:31	8.8	1018	-8.2	350	2	70
2026-02-03T06:32	8.7	1018	-8.3	350	2	70
2026-02-03T06:33	8.8	1019	-8.2	350	2	70
2026-02-03T06:34	8.9	1019	-8.2	340	2	70
2026-02-03T06:35	8.8	1019	-8.2	330	2	70
2026-02-03T06:36	8.7	1019	-8.3	330	2	70
2026-02-03T06:37	8.6	1019	-8.4	330	2	70
2026-02-03T06:38	8.6	1019	-8.4	330	2	70
2026-02-03T06:39	8.7	1019	-8.3	330	2	70
2026-02-03T06:40	8.6	1018	-8.4	330	2	70
2026-02-03T06:41	8.6	1018	-8.4	330	2	70
2026-02-03T06:42	8.6	1018	-8.4	330	2	70
2026-02-03T06:43	8.8	1018	-8.2	340	1	70
2026-02-03T06:44	8.8	1018	-8.2	340	1	70
2026-02-03T06:45	8.8	1018	-8.2	340	1	70
2026-02-03T06:46	8.6	1018	-8.9	340	1	70
2026-02-03T06:47	8.6	1018	-8.4	330	1	70
2026-02-03T06:48	8.5	1018	-8.5	340	1	70
2026-02-03T06:49	8.5	1018	-8.5	340	1	70
2026-02-03T06:50	8.5	1018	-8.5	340	1	70
2026-02-03T06:51	8.6	1018	-8.4	350	1	70
2026-02-03T06:52	8.7	1018	-8.3	340	1	70
2026-02-03T06:53	8.6	1018	-8.4	330	1	70
2026-02-03T06:54	8.6	1018	-8.4	330	1	70
2026-02-03T06:55	8.6	1018	-8.4	340	1	70
2026-02-03T06:56	8.6	1018	-8.4	340	1	70
2026-02-03T06:57	8.5	1018	-8.5	340	1	70
2026-02-03T06:58	8.5	1018	-8.1	340	1	70
2026-02-03T06:59	8.6	1018	-8.0	330	1	70
2026-02-03T07:00	8.6	1018	-8.4	330	1	70
2026-02-03T07:01	8.6	1018	-8.4	330	1	70
2026-02-03T07:02	8.5	1018	-8.5	330	2	70
2026-02-03T07:03	8.5	1018	-8.5	330	2	70
2026-02-03T07:04	8.5	1018	-8.5	330	2	70
2026-02-03T07:05	8.7	1018	-8.3	330	2	70
2026-02-03T07:06	8.7	1018	-8.3	330	2	70
2026-02-03T07:07	8.8	1019	-7.8	320	2	70
2026-02-03T07:08	8.7	1019	-8.3	320	2	70
2026-02-03T07:09	8.6	1019	-8.4	310	2	70
2026-02-03T07:10	8.6	1019	-8.4	300	1	70
2026-02-03T07:11	8.6	1019	-8.4	290	1	70
2026-02-03T07:12	8.5	1019	-8.5	280	1	70
2026-02-03T07:13	8.5	1019	-8.5	280	1	70
2026-02-03T07:14	8.4	1019	-8.6	270	1	70
2026-02-03T07:15	8.4	1019	-8.6	240	1	70
2026-02-03T07:16	8.4	1019	-8.6	230	1	70
2026-02-03T07:17	8.4	1019	-8.6	210	1	70
2026-02-03T07:18	8.4	1019	-8.2	200	1	70
2026-02-03T07:19	8.4	1019	-8.2	190	1	70
2026-02-03T07:20	8.3	1019	-8.2	180	1	70
2026-02-03T07:21	8.4	1019	-8.2	180	1	70
2026-02-03T07:22	8.4	1019	-8.2	190	1	70
2026-02-03T07:23	8.2	1019	-8.3	190	1	70
2026-02-03T07:24	8.3	1019	-8.2	200	1	70
2026-02-03T07:25	8.4	1019	-8.2	200	1	70
2026-02-03T07:26	8.4	1019	-8.6	200	1	70
2026-02-03T07:27	8.4	1019	-8.6	200	1	70
2026-02-03T07:28	8.3	1019	-8.7	190	1	70
2026-02-03T07:29	8.3	1019	-8.7	180	1	70
2026-02-03T07:30	8.3	1019	-8.7	170	1	70
2026-02-03T07:31	8.3	1019	-8.7	160	1	70
2026-02-03T07:32	8.3	1019	-8.2	140	1	70
2026-02-03T07:33	8.0	1019	-8.5	130	1	70
2026-02-03T07:34	7.6	1019	-7.6	120	1	70
2026-02-03T07:35	7.4	1019	-7.4	120	1	70
2026-02-03T07:36	7.3	1019	-7.5	110	1	70
2026-02-03T07:37	7.1	1019	-7.3	110	1	70
2026-02-03T07:38	7.3	1019	-6.8	100	1	70
2026-02-03T07:39	7.4	1019	-7.1	100	1	70
2026-02-03T07:40	7.3	1019	-7.1	100	1	70
2026-02-03T07:41	7.3	1019	-7.5	110	1	70
2026-02-03T07:42	6.5	1019	-7.5	110	1	70
2026-02-03T07:43	6.6	1019	-7.4	100	1	70
2026-02-03T07:44	7.0	1019	-7.0	100	1	70
2026-02-03T07:45	7.2	1019	-7.2	100	1	70
2026-02-03T07:46	7.1	1019	-6.9	90	1	70
2026-02-03T07:47	7.4	1019	-7.4	90	1	70
2026-02-03T07:48	7.2	1019	-7.2	90	1	70
2026-02-03T07:49	6.6	1019	-7.4	80	1	70
2026-02-03T07:50	7.0	1019	-7.0	80	1	70
2026-02-03T07:51	7.1	1019	-7.3	80	1	70
2026-02-03T07:52	6.8	1019	-7.2	80	1	70
2026-02-03T07:53	6.6	1019	-7.4	70	1	70
2026-02-03T07:54	6.8	1019	-7.2	80	0	70
2026-02-03T07:55	7.0	1019	-7.0	80	0	70
2026-02-03T07:56	6.3	1019	-7.0	0	0	70
2026-02-03T07:57	6.4	1019	-6.5	0	0	70
2026-02-03T07:58	6.4	1019	-6.5	0	0	70
2026-02-03T07:59	6.4	1019	-6.5	0	0	70
2026-02-03T08:00	6.0	1019	-6.9	0	0	70
2026-02-03T08:01	5.9	1019	-7.0	0	0	70
2026-02-03T08:02	6.2	1019	-6.7	0	0	70
2026-02-03T08:03	6.1	1019	-6.8	0	0	70
2026-02-03T08:04	6.1	1019	-6.8	0	0	70
2026-02-03T08:05	6.4	1019	-6.9	0	0	70
2026-02-03T08:06	6.3	1019	-7.0	0	0	70
2026-02-03T08:07	5.9	1019	-7.0	90	0	70
2026-02-03T08:08	6.3	1019	-7.0	90	0	70
2026-02-03T08:09	6.0	1019	-6.9	80	1	70
2026-02-03T08:10	6.2	1019	-6.7	80	1	70
2026-02-03T08:11	5.9	1019	-7.0	90	1	70
2026-02-03T08:12	6.1	1019	-6.8	90	1	70
2026-02-03T08:13	5.6	1019	-7.3	90	1	70
2026-02-03T08:14	5.5	1019	-7.0	100	1	70
2026-02-03T08:15	5.5	1019	-7.0	100	1	70
2026-02-03T08:16	5.3	1019	-6.9	110	1	70
2026-02-03T08:17	5.5	1019	-7.0	110	1	70
2026-02-03T08:18	5.2	1019	-7.3	110	1	70
2026-02-03T08:19	5.1	1019	-7.1	110	1	70
2026-02-03T08:20	5.1	1019	-7.1	110	1	70
2026-02-03T08:21	5.5	1019	-7.3	110	1	70
2026-02-03T08:22	5.4	1019	-7.4	110	1	70
2026-02-03T08:23	6.0	1019	-7.2	100	1	70
2026-02-03T08:24	6.1	1019	-7.5	100	1	70
2026-02-03T08:25	6.2	1019	-7.4	100	1	70
2026-02-03T08:26	6.0	1019	-7.6	100	1	70
2026-02-03T08:27	6.1	1019	-7.8	100	1	70
2026-02-03T08:28	6.0	1019	-7.6	100	1	70
2026-02-03T08:29	6.1	1019	-7.5	100	1	70
2026-02-03T08:30	5.9	1019	-7.7	100	1	70
2026-02-03T08:31	5.7	1019	-7.8	100	1	70
2026-02-03T08:32	5.5	1019	-8.0	100	1	70
2026-02-03T08:33	5.5	1019	-7.7	100	1	70
2026-02-03T08:34	5.4	1019	-7.8	100	1	70
2026-02-03T08:35	5.3	1019	-7.9	100	1	70
2026-02-03T08:36	5.3	1019	-7.9	100	1	70
2026-02-03T08:37	4.8	1019	-8.0	110	1	70
2026-02-03T08:38	4.8	1019	-7.7	110	1	70
2026-02-03T08:39	4.5	1019	-7.6	110	1	70
2026-02-03T08:40	4.5	1019	-7.0	120	1	70
2026-02-03T08:41	4.7	1019	-6.8	120	1	70
2026-02-03T08:42	4.6	1019	-6.9	130	1	70
2026-02-03T08:43	4.4	1019	-6.8	130	1	70
2026-02-03T08:44	4.5	1019	-6.7	130	1	70
2026-02-03T08:45	4.7	1019	-6.8	140	1	70
2026-02-03T08:46	4.9	1019	-7.2	130	1	70
2026-02-03T08:47	4.9	1019	-7.6	130	1	70
2026-02-03T08:48	5.0	1019	-7.5	130	1	70
2026-02-03T08:49	5.0	1019	-7.5	130	1	70
2026-02-03T08:50	5.1	1019	-7.4	130	1	70
2026-02-03T08:51	5.0	1019	-7.5	130	1	70
2026-02-03T08:52	4.7	1019	-7.7	130	1	70
2026-02-03T08:53	4.9	1019	-7.6	120	1	70
2026-02-03T08:54	4.8	1019	-7.7	120	1	70
2026-02-03T08:55	4.6	1019	-7.8	120	1	70
2026-02-03T08:56	4.7	1019	-7.4	120	1	70
2026-02-03T08:57	4.8	1019	-7.7	120	1	70
2026-02-03T08:58	4.9	1019	-7.6	120	1	70
2026-02-03T08:59	5.0	1019	-7.5	110	1	70
2026-02-03T09:00	5.0	1019	-7.5	120	1	70
2026-02-03T09:01	4.8	1019	-7.7	120	1	70
2026-02-03T09:02	4.5	1019	-7.6	120	1	70
2026-02-03T09:03	4.3	1019	-7.5	120	1	70
2026-02-03T09:04	4.2	1019	-7.6	130	1	70
2026-02-03T09:05	4.1	1019	-7.7	130	1	70
2026-02-03T09:06	4.0	1019	-7.4	130	1	70
2026-02-03T09:07	4.0	1019	-7.4	130	1	70
2026-02-03T09:08	3.5	1019	-7.9	130	1	70
2026-02-03T09:09	4.2	1019	-7.0	130	1	70
2026-02-03T09:10	4.3	1019	-7.2	130	1	70
2026-02-03T09:11	4.1	1019	-7.3	140	1	70
2026-02-03T09:12	3.8	1020	-7.6	140	0	70
2026-02-03T09:13	3.7	1019	-7.4	140	0	70
2026-02-03T09:14	3.8	1019	-7.3	130	0	70
2026-02-03T09:15	3.8	1019	-7.3	130	0	70
2026-02-03T09:16	4.0	1019	-7.1	120	0	70
2026-02-03T09:17	3.2	1019	-7.9	120	0	70
2026-02-03T09:18	3.6	1019	-7.5	120	0	70
2026-02-03T09:19	3.6	1019	-7.5	120	0	70
2026-02-03T09:20	3.2	1019	-7.6	120	0	70
2026-02-03T09:21	3.5	1019	-7.3	120	0	70
2026-02-03T09:22	3.7	1019	-7.4	110	1	70
2026-02-03T09:23	3.6	1019	-7.2	110	1	70
2026-02-03T09:24	3.5	1020	-7.3	110	1	70
2026-02-03T09:25	3.5	1020	-7.3	120	1	70
2026-02-03T09:26	3.5	1020	-7.3	120	1	70
2026-02-03T09:27	3.7	1020	-7.1	130	1	70
2026-02-03T09:28	3.1	1020	-7.7	130	1	70
2026-02-03T09:29	3.0	1020	-7.5	130	1	70
2026-02-03T09:30	3.1	1020	-7.4	130	1	70
2026-02-03T09:31	3.2	1020	-7.3	130	1	70
2026-02-03T09:32	3.3	1020	-7.2	130	1	70
2026-02-03T09:33	3.3	1020	-7.2	130	1	70
2026-02-03T09:34	3.1	1020	-7.4	140	1	70
2026-02-03T09:35	3.1	1020	-7.4	140	1	70
2026-02-03T09:36	3.2	1020	-7.3	140	0	70
2026-02-03T09:37	3.0	1020	-7.2	140	0	70
2026-02-03T09:38	3.0	1020	-7.2	140	0	70
2026-02-03T09:39	3.1	1020	-7.1	140	0	70
2026-02-03T09:40	3.0	1020	-7.2	0	0	70
2026-02-03T09:41	3.0	1020	-7.2	0	0	70
2026-02-03T09:42	3.0	1020	-7.2	0	0	70
2026-02-03T09:43	2.9	1020	-7.3	150	0	70
2026-02-03T09:44	3.4	1020	-7.1	150	0	70
2026-02-03T09:45	3.5	1020	-7.0	150	0	70
2026-02-03T09:46	3.3	1020	-7.5	150	0	70
2026-02-03T09:47	3.1	1020	-7.4	150	0	70
2026-02-03T09:48	3.7	1020	-7.1	150	1	70
2026-02-03T09:49	3.7	1020	-7.4	150	1	70
2026-02-03T09:50	3.2	1020	-7.9	160	1	70
2026-02-03T09:51	3.0	1020	-7.8	160	1	70
2026-02-03T09:52	3.0	1020	-7.5	160	1	70
2026-02-03T09:53	3.4	1020	-7.1	170	1	70
2026-02-03T09:54	3.3	1020	-7.2	170	1	70
2026-02-03T09:55	3.2	1020	-7.3	170	1	70
2026-02-03T09:56	3.3	1020	-7.2	170	1	70
2026-02-03T09:57	3.4	1020	-7.4	170	1	70
2026-02-03T09:58	3.3	1020	-7.5	160	1	70
2026-02-03T09:59	3.2	1020	-7.6	160	1	70
2026-02-03T10:00	3.1	1020	-7.7	160	1	70
2026-02-03T10:01	3.2	1020	-7.6	160	1	70
2026-02-03T10:02	3.3	1020	-7.5	160	0	70
2026-02-03T10:03	3.3	1020	-7.5	160	0	70
2026-02-03T10:04	3.3	1020	-7.5	150	0	70
2026-02-03T10:05	3.2	1020	-7.6	150	0	70
2026-02-03T10:06	3.2	1020	-7.6	150	0	70
2026-02-03T10:07	2.6	1020	-7.8	150	0	70
2026-02-03T10:08	2.4	1020	-7.8	150	0	70
2026-02-03T10:09	2.8	1020	-7.4	150	0	70
2026-02-03T10:10	2.4	1020	-7.5	150	0	70
2026-02-03T10:11	3.1	1020	-6.8	140	0	70
2026-02-03T10:12	2.4	1020	-7.5	140	0	70
2026-02-03T10:13	2.8	1020	-7.1	140	0	70
2026-02-03T10:14	2.7	1020	-7.2	140	0	70
2026-02-03T10:15	2.0	1020	-7.9	140	0	70
2026-02-03T10:16	2.6	1020	-7.0	140	0	70
2026-02-03T10:17	3.2	1020	-6.7	140	0	70
2026-02-03T10:18	3.3	1020	-6.9	140	0	70
2026-02-03T10:19	3.3	1020	-6.9	140	0	70
2026-02-03T10:20	2.8	1020	-7.4	140	0	70
2026-02-03T10:21	3.0	1020	-7.2	130	0	70
2026-02-03T10:22	2.5	1020	-7.4	120	0	70
2026-02-03T10:23	3.1	1020	-6.8	120	0	70
2026-02-03T10:24	3.5	1020	-6.7	120	0	70
2026-02-03T10:25	3.7	1020	-6.6	110	0	70
2026-02-03T10:26	3.8	1020	-6.7	110	0	70
2026-02-03T10:27	4.1	1020	-6.8	110	0	70
2026-02-03T10:28	3.5	1020	-7.3	120	0	70
2026-02-03T10:29	3.2	1020	-7.3	120	0	70
2026-02-03T10:30	3.5	1020	-7.0	110	0	70
2026-02-03T10:31	3.6	1020	-6.9	120	0	70
2026-02-03T10:32	3.6	1020	-6.9	120	0	70
2026-02-03T10:33	3.6	1020	-6.9	120	0	70
2026-02-03T10:34	3.3	1020	-7.2	120	0	70
2026-02-03T10:35	3.1	1020	-7.1	120	0	70
2026-02-03T10:36	3.2	1020	-7.0	120	0	70
2026-02-03T10:37	2.8	1020	-7.1	110	0	70
2026-02-03T10:38	2.8	1020	-7.1	100	0	70
2026-02-03T10:39	2.7	1020	-6.9	100	0	70
2026-02-03T10:40	2.7	1020	-6.9	100	0	70
2026-02-03T10:41	2.3	1020	-7.0	100	1	70
2026-02-03T10:42	2.4	1020	-6.7	90	1	70
2026-02-03T10:43	2.2	1020	-6.9	90	1	70
2026-02-03T10:44	2.1	1020	-6.7	80	1	70
2026-02-03T10:45	2.1	1020	-6.7	80	1	70
2026-02-03T10:46	2.1	1020	-6.5	80	1	70
2026-02-03T10:47	1.9	1020	-6.7	80	1	70
2026-02-03T10:48	1.8	1020	-6.3	70	1	70
2026-02-03T10:49	1.6	1020	-6.2	70	1	70
2026-02-03T10:50	1.5	1020	-6.3	70	1	70
2026-02-03T10:51	1.7	1020	-6.1	70	1	70
2026-02-03T10:52	1.8	1020	-6.0	70	1	70
2026-02-03T10:53	1.9	1020	-5.9	70	1	70
2026-02-03T10:54	1.9	1020	-5.9	70	1	70
2026-02-03T10:55	2.2	1020	-5.9	70	1	70
2026-02-03T10:56	1.6	1020	-6.5	70	1	70
2026-02-03T10:57	2.1	1020	-6.2	70	1	70
2026-02-03T10:58	2.2	1020	-6.1	80	1	70
2026-02-03T10:59	2.3	1020	-6.0	80	1	70
2026-02-03T11:00	2.3	1020	-6.3	90	1	70
2026-02-03T11:01	2.0	1020	-6.8	90	1	70
2026-02-03T11:02	2.3	1020	-6.5	100	1	70
2026-02-03T11:03	2.2	1020	-6.6	100	1	70
2026-02-03T11:04	2.1	1020	-6.7	100	1	70
2026-02-03T11:05	2.2	1020	-6.6	100	1	70
2026-02-03T11:06	1.8	1020	-7.0	100	1	70
2026-02-03T11:07	1.9	1020	-6.7	100	1	70
2026-02-03T11:08	1.7	1020	-6.8	100	1	70
2026-02-03T11:09	1.6	1020	-6.9	100	1	70
2026-02-03T11:10	1.5	1020	-6.8	100	1	70
2026-02-03T11:11	1.6	1020	-6.7	100	1	70
2026-02-03T11:12	2.1	1020	-6.2	100	1	70
2026-02-03T11:13	2.2	1020	-6.4	100	1	70
2026-02-03T11:14	2.0	1020	-6.6	110	1	70
2026-02-03T11:15	2.3	1020	-6.3	110	1	70
2026-02-03T11:16	2.2	1020	-6.4	110	1	70
2026-02-03T11:17	2.1	1020	-6.5	110	1	70
2026-02-03T11:18	2.3	1020	-6.3	110	1	70
2026-02-03T11:19	1.8	1020	-7.0	110	1	70
2026-02-03T11:20	1.4	1020	-7.1	110	1	70
2026-02-03T11:21	1.1	1020	-7.2	110	1	70
2026-02-03T11:22	1.4	1020	-6.6	110	1	70
2026-02-03T11:23	1.7	1020	-6.4	110	1	70
2026-02-03T11:24	1.8	1020	-6.5	110	1	70
2026-02-03T11:25	1.5	1020	-6.8	110	1	70
2026-02-03T11:26	1.3	1020	-7.0	110	1	70
2026-02-03T11:27	1.4	1020	-6.6	110	0	70
2026-02-03T11:28	1.5	1020	-6.5	110	0	70
2026-02-03T11:29	1.7	1020	-6.4	110	0	70
2026-02-03T11:30	1.4	1020	-6.6	100	0	70
2026-02-03T11:31	1.1	1020	-6.9	100	0	70
2026-02-03T11:32	1.3	1020	-6.5	100	0	70
2026-02-03T11:33	1.2	1020	-6.6	100	0	70
2026-02-03T11:34	1.1	1020	-6.7	100	1	70
2026-02-03T11:35	1.0	1020	-6.8	100	1	70
2026-02-03T11:36	0.8	1020	-7.0	100	1	70
2026-02-03T11:37	0.9	1020	-6.6	100	1	70
2026-02-03T11:38	0.9	1020	-6.6	100	0	70
2026-02-03T11:39	1.0	1020	-6.5	100	0	70
2026-02-03T11:40	1.2	1020	-6.4	110	0	70
2026-02-03T11:41	1.1	1020	-6.5	110	0	70
2026-02-03T11:42	0.9	1020	-6.6	110	0	70
2026-02-03T11:43	1.0	1020	-6.5	110	0	70
2026-02-03T11:44	1.1	1020	-6.5	110	0	70
2026-02-03T11:45	1.0	1020	-6.5	120	0	70
2026-02-03T11:46	0.5	1020	-6.8	120	1	70
2026-02-03T11:47	0.3	1020	-7.0	120	1	70
2026-02-03T11:48	0.7	1020	-6.4	120	1	70
2026-02-03T11:49	0.6	1020	-6.5	120	1	70
2026-02-03T11:50	0.4	1020	-6.7	120	1	70
2026-02-03T11:51	0.7	1020	-6.2	120	1	70
2026-02-03T11:52	0.7	1020	-6.2	120	1	70
2026-02-03T11:53	0.7	1020	-6.2	120	1	70
2026-02-03T11:54	0.9	1020	-6.0	120	1	70
2026-02-03T11:55	1.3	1020	-5.8	120	1	70
2026-02-03T11:56	1.8	1020	-5.6	120	1	70
2026-02-03T11:57	2.0	1020	-5.6	130	0	70
2026-02-03T11:58	1.9	1020	-5.9	130	0	70
2026-02-03T11:59	1.2	1020	-6.6	140	0	70
2026-02-03T12:00	0.8	1020	-6.7	0	0	70
2026-02-03T12:01	1.2	1020	-6.1	0	0	70
2026-02-03T12:02	1.2	1020	-6.1	0	0	70
2026-02-03T12:03	1.0	1020	-6.3	0	0	70
2026-02-03T12:04	0.7	1020	-6.4	140	0	70
2026-02-03T12:05	0.9	1020	-6.2	150	0	70
2026-02-03T12:06	0.8	1020	-6.3	140	0	70
2026-02-03T12:07	1.3	1020	-5.6	140	0	70
2026-02-03T12:08	1.4	1020	-5.7	130	0	70
2026-02-03T12:09	1.1	1020	-6.0	130	0	70
2026-02-03T12:10	1.2	1020	-5.9	130	1	70
2026-02-03T12:11	1.1	1020	-5.8	130	1	70
2026-02-03T12:12	1.2	1020	-5.7	120	1	70
2026-02-03T12:13	1.8	1020	-5.3	120	1	70
2026-02-03T12:14	1.6	1020	-5.8	110	1	70
2026-02-03T12:15	0.9	1020	-6.4	110	1	70
2026-02-03T12:16	1.1	1020	-6.0	110	1	70
2026-02-03T12:17	1.3	1020	-5.6	100	1	70
2026-02-03T12:18	1.4	1020	-5.7	100	1	70
2026-02-03T12:19	1.4	1020	-5.7	100	1	70
2026-02-03T12:20	1.2	1020	-5.9	110	1	70
2026-02-03T12:21	1.0	1020	-6.1	110	1	70
2026-02-03T12:22	1.0	1020	-6.1	110	1	70
2026-02-03T12:23	1.0	1020	-5.9	110	1	70
2026-02-03T12:24	0.7	1020	-6.2	110	1	70
2026-02-03T12:25	0.5	1020	-6.4	110	1	70
2026-02-03T12:26	0.9	1020	-5.8	110	1	70
2026-02-03T12:27	1.1	1020	-5.6	110	1	70
2026-02-03T12:28	1.0	1020	-5.7	110	1	70
2026-02-03T12:29	0.7	1020	-5.9	110	1	70
2026-02-03T12:30	0.6	1020	-6.0	110	1	70
2026-02-03T12:31	0.4	1020	-6.0	110	1	70
2026-02-03T12:32	0.5	1020	-5.9	110	1	70
2026-02-03T12:33	0.5	1020	-5.7	110	1	70
2026-02-03T12:34	0.4	1020	-5.8	120	1	70
2026-02-03T12:35	0.1	1020	-6.1	120	1	70
2026-02-03T12:36	0.1	1020	-6.1	120	1	70
2026-02-03T12:37	-0.1	1020	-6.1	130	0	70
2026-02-03T12:38	0.1	1020	-5.9	130	0	70
2026-02-03T12:39	-0.1	1020	-6.1	130	0	70
2026-02-03T12:40	-0.1	1020	-6.1	130	0	70
2026-02-03T12:41	-0.1	1020	-5.9	0	0	70
2026-02-03T12:42	-0.2	1020	-6.0	0	0	70
2026-02-03T12:43	-0.5	1020	-6.3	0	0	70
2026-02-03T12:44	-0.5	1020	-6.3	0	0	70
2026-02-03T12:45	-0.2	1020	-5.8	0	0	70
2026-02-03T12:46	-0.1	1020	-5.7	0	0	70
2026-02-03T12:47	-0.6	1020	-6.3	0	0	70
2026-02-03T12:48	-0.6	1020	-6.1	0	0	70
2026-02-03T12:49	-0.5	1020	-6.1	0	0	70
2026-02-03T12:50	-0.4	1020	-6.0	0	0	70
2026-02-03T12:51	-0.3	1020	-5.9	0	0	70
2026-02-03T12:52	-0.1	1020	-5.7	0	0	70
2026-02-03T12:53	-0.1	1020	-5.7	0	0	70
2026-02-03T12:54	-0.3	1020	-6.1	0	0	70
2026-02-03T12:55	-0.3	1020	-6.1	0	0	70
2026-02-03T12:56	-0.1	1020	-5.9	0	0	70
2026-02-03T12:57	-0.1	1020	-5.9	150	0	70
2026-02-03T12:58	-0.3	1020	-6.1	150	0	70
2026-02-03T12:59	-0.9	1020	-6.6	150	0	70
2026-02-03T13:00	-0.4	1020	-6.0	150	0	70
2026-02-03T13:01	-0.2	1020	-5.6	150	1	70
2026-02-03T13:02	-0.3	1020	-5.9	150	1	70
2026-02-03T13:03	-0.4	1020	-6.0	150	1	70
2026-02-03T13:04	-0.3	1020	-5.9	150	1	70
2026-02-03T13:05	-0.1	1020	-5.7	140	1	70
2026-02-03T13:06	-0.1	1020	-5.7	140	1	70
2026-02-03T13:07	-0.1	1020	-5.7	140	1	70
2026-02-03T13:08	-0.4	1020	-6.0	140	0	70
2026-02-03T13:09	-0.5	1020	-6.1	130	0	70
2026-02-03T13:10	-0.6	1020	-6.0	130	0	70
2026-02-03T13:11	-0.5	1020	-5.9	130	0	70
2026-02-03T13:12	-0.3	1020	-5.7	130	0	70
2026-02-03T13:13	-0.3	1020	-5.7	130	0	70
2026-02-03T13:14	-0.2	1020	-5.6	130	0	70
2026-02-03T13:15	-0.1	1020	-5.5	130	1	70
2026-02-03T13:16	-0.1	1020	-5.5	130	1	70
2026-02-03T13:17	-0.5	1020	-5.9	130	1	70
2026-02-03T13:18	-0.4	1020	-5.8	130	1	70
2026-02-03T13:19	-0.3	1020	-5.5	130	1	70
2026-02-03T13:20	-0.3	1020	-5.5	130	1	70
2026-02-03T13:21	-0.5	1020	-5.7	130	1	70
2026-02-03T13:22	-0.4	1020	-5.6	130	0	70
2026-02-03T13:23	-0.5	1020	-5.7	130	0	70
2026-02-03T13:24	-0.5	1020	-5.7	120	0	70
2026-02-03T13:25	-0.7	1020	-5.9	0	0	70
2026-02-03T13:26	-0.4	1020	-5.4	0	0	70
2026-02-03T13:27	-0.6	1020	-5.6	0	0	70
2026-02-03T13:28	-0.5	1020	-5.5	0	0	70
2026-02-03T13:29	-0.6	1020	-5.6	0	0	70
2026-02-03T13:30	-1.0	1020	-6.0	0	0	70
2026-02-03T13:31	-1.0	1020	-6.0	0	0	70
2026-02-03T13:32	-0.6	1020	-5.4	0	0	70
2026-02-03T13:33	-0.6	1020	-5.4	0	0	70
2026-02-03T13:34	-0.5	1020	-5.3	0	0	70
2026-02-03T13:35	-0.3	1020	-5.3	110	0	70
2026-02-03T13:36	-0.8	1020	-5.8	110	0	70
2026-02-03T13:37	-0.9	1020	-5.9	110	0	70
2026-02-03T13:38	-0.7	1020	-5.5	100	1	70
2026-02-03T13:39	-0.8	1020	-5.6	100	1	70
2026-02-03T13:40	-0.7	1020	-5.5	90	1	70
2026-02-03T13:41	-0.4	1020	-5.2	80	1	70
2026-02-03T13:42	-0.6	1020	-5.4	80	1	70
2026-02-03T13:43	-0.9	1020	-5.7	70	1	70
2026-02-03T13:44	-0.8	1020	-5.6	60	1	70
2026-02-03T13:45	-1.1	1020	-5.9	50	1	70
2026-02-03T13:46	-1.2	1020	-5.8	40	0	70
2026-02-03T13:47	-1.1	1020	-5.7	40	0	70
2026-02-03T13:48	-1.1	1020	-5.7	40	0	70
2026-02-03T13:49	-0.9	1020	-5.5	40	0	70
2026-02-03T13:50	-1.1	1020	-5.7	0	0	70
2026-02-03T13:51	-1.1	1020	-5.7	0	0	70
2026-02-03T13:52	-0.9	1020	-5.5	0	0	70
2026-02-03T13:53	-1.1	1020	-5.7	0	0	70
2026-02-03T13:54	-1.0	1020	-5.6	0	0	70
2026-02-03T13:55	-1.0	1020	-5.6	0	0	70
2026-02-03T13:56	-0.9	1020	-5.5	0	0	70
2026-02-03T13:57	-1.0	1020	-5.6	0	0	70
2026-02-03T13:58	-0.9	1020	-5.3	0	0	70
2026-02-03T13:59	-0.9	1020	-5.5	100	0	70
2026-02-03T14:00	-1.2	1020	-5.8	100	0	70
2026-02-03T14:01	-1.3	1020	-5.9	100	0	70
2026-02-03T14:02	-1.0	1020	-5.4	100	1	70
2026-02-03T14:03	-1.0	1020	-5.4	100	1	70
2026-02-03T14:04	-0.8	1020	-5.0	110	1	70
2026-02-03T14:05	-0.6	1020	-5.0	110	1	70
2026-02-03T14:06	-0.9	1020	-5.3	110	1	70
2026-02-03T14:07	-1.2	1020	-5.8	100	1	70
2026-02-03T14:08	-1.3	1020	-5.7	100	1	70
2026-02-03T14:09	-1.1	1020	-5.3	90	1	70
2026-02-03T14:10	-1.2	1020	-5.6	90	1	70
2026-02-03T14:11	-1.3	1020	-5.7	90	1	70
2026-02-03T14:12	-1.3	1019	-5.7	90	1	70
2026-02-03T14:13	-1.3	1019	-5.5	80	1	70
2026-02-03T14:14	-1.4	1019	-5.4	80	1	70
2026-02-03T14:15	-1.4	1019	-5.1	80	1	70
2026-02-03T14:16	-1.4	1019	-5.1	70	1	70
2026-02-03T14:17	-1.5	1019	-5.3	70	1	70
2026-02-03T14:18	-1.8	1019	-5.8	70	1	70
2026-02-03T14:19	-1.8	1019	-5.6	60	1	70
2026-02-03T14:20	-1.4	1019	-5.1	50	1	70
2026-02-03T14:21	-1.2	1019	-4.9	40	1	70
2026-02-03T14:22	-1.3	1019	-5.1	30	1	70
2026-02-03T14:23	-1.7	1019	-5.5	20	1	70
2026-02-03T14:24	-1.7	1019	-5.4	20	0	70
2026-02-03T14:25	-1.6	1019	-5.3	10	0	70
2026-02-03T14:26	-1.5	1019	-5.2	360	0	70
2026-02-03T14:27	-1.4	1019	-5.1	360	0	70
2026-02-03T14:28	-1.5	1019	-5.2	350	0	70
2026-02-03T14:29	-1.7	1019	-5.4	0	0	70
2026-02-03T14:30	-1.7	1019	-5.4	0	0	70
2026-02-03T14:31	-1.6	1019	-5.3	0	0	70
2026-02-03T14:32	-1.5	1019	-5.2	0	0	70
2026-02-03T14:33	-1.5	1019	-5.2	0	0	70
2026-02-03T14:34	-1.6	1019	-5.3	0	0	70
2026-02-03T14:35	-1.8	1019	-5.5	0	0	70
2026-02-03T14:36	-1.9	1019	-5.5	0	0	70
2026-02-03T14:37	-1.8	1019	-5.3	350	0	70
2026-02-03T14:38	-1.7	1019	-5.2	350	0	70
2026-02-03T14:39	-1.7	1019	-5.4	350	0	70
2026-02-03T14:40	-1.7	1019	-5.4	350	0	70
2026-02-03T14:41	-1.9	1019	-5.5	350	0	70
2026-02-03T14:42	-2.2	1019	-5.8	350	0	70
2026-02-03T14:43	-2.1	1019	-5.6	350	0	70
2026-02-03T14:44	-1.8	1019	-5.1	350	0	70
2026-02-03T14:45	-1.7	1019	-5.0	360	0	70
2026-02-03T14:46	-1.7	1019	-5.2	0	0	70
2026-02-03T14:47	-1.8	1019	-5.3	0	0	70
2026-02-03T14:48	-1.9	1019	-5.4	0	0	70
2026-02-03T14:49	-2.1	1019	-5.7	0	0	70
2026-02-03T14:50	-2.0	1019	-5.5	0	0	70
2026-02-03T14:51	-1.8	1019	-5.3	0	0	70
2026-02-03T14:52	-1.8	1019	-5.3	0	0	70
2026-02-03T14:53	-1.9	1019	-5.4	0	0	70
2026-02-03T14:54	-2.0	1019	-5.3	0	0	70
2026-02-03T14:55	-1.9	1019	-5.2	0	0	70
2026-02-03T14:56	-1.8	1019	-5.1	0	0	70
2026-02-03T14:57	-1.8	1019	-5.1	0	0	70
2026-02-03T14:58	-1.9	1019	-5.4	0	0	70
2026-02-03T14:59	-2.0	1019	-5.5	0	0	70
2026-02-03T15:00	-2.0	1019	-5.5	0	0	70
2026-02-03T15:01	-2.1	1019	-5.6	0	0	70
2026-02-03T15:02	-2.1	1019	-5.6	0	0	70
2026-02-03T15:03	-1.9	1019	-5.2	0	0	70
2026-02-03T15:04	-1.8	1019	-4.9	0	0	70
2026-02-03T15:05	-1.9	1019	-5.0	0	0	70
2026-02-03T15:06	-2.1	1019	-5.4	0	0	70
2026-02-03T15:07	-1.8	1019	-4.9	0	0	70
2026-02-03T15:08	-1.8	1019	-4.9	0	0	70
2026-02-03T15:09	-2.0	1019	-5.1	0	0	70
2026-02-03T15:10	-2.1	1019	-5.4	0	0	70
2026-02-03T15:11	-2.1	1019	-5.4	0	0	70
2026-02-03T15:12	-2.0	1019	-5.3	0	0	70
2026-02-03T15:13	-2.0	1019	-5.3	0	0	70
2026-02-03T15:14	-2.0	1019	-5.5	0	0	70
2026-02-03T15:15	-1.9	1019	-5.4	0	0	70
2026-02-03T15:16	-2.0	1019	-5.5	0	0	70
2026-02-03T15:17	-2.1	1019	-5.4	0	0	70
2026-02-03T15:18	-2.1	1019	-5.4	0	0	70
2026-02-03T15:19	-2.1	1019	-5.4	0	0	70
2026-02-03T15:20	-2.1	1019	-5.6	0	0	70
2026-02-03T15:21	-2.1	1019	-5.6	0	0	70
2026-02-03T15:22	-2.2	1019	-5.7	0	0	70
2026-02-03T15:23	-2.2	1019	-5.7	0	0	70
2026-02-03T15:24	-2.4	1019	-5.9	0	0	70
2026-02-03T15:25	-2.3	1019	-5.8	0	0	70
2026-02-03T15:26	-2.2	1019	-5.5	0	0	70
2026-02-03T15:27	-2.2	1019	-5.5	0	0	70
2026-02-03T15:28	-2.2	1019	-5.5	0	0	70
2026-02-03T15:29	-2.1	1019	-5.6	0	0	70
2026-02-03T15:30	-1.9	1019	-5.4	0	0	70
2026-02-03T15:31	-1.9	1019	-5.4	0	0	70
2026-02-03T15:32	-2.0	1019	-5.5	0	0	70
2026-02-03T15:33	-2.2	1019	-5.8	290	0	70
2026-02-03T15:34	-2.0	1019	-5.5	280	0	70
2026-02-03T15:35	-1.9	1019	-5.4	280	0	70
2026-02-03T15:36	-1.9	1019	-5.4	270	0	70
2026-02-03T15:37	-1.7	1019	-5.2	270	0	70
2026-02-03T15:38	-1.6	1019	-5.3	270	0	70
2026-02-03T15:39	-1.6	1019	-5.3	260	0	70
2026-02-03T15:40	-1.4	1019	-5.1	260	0	70
2026-02-03T15:41	-1.4	1019	-5.2	250	0	70
2026-02-03T15:42	-1.5	1019	-5.3	250	0	70
2026-02-03T15:43	-1.5	1019	-5.3	250	0	70
2026-02-03T15:44	-1.3	1019	-5.1	250	0	70
2026-02-03T15:45	-1.3	1019	-5.3	250	0	70
2026-02-03T15:46	-1.3	1019	-5.3	250	0	70
2026-02-03T15:47	-1.4	1019	-5.4	260	0	70
2026-02-03T15:48	-1.6	1019	-5.6	260	0	70
2026-02-03T15:49	-1.6	1019	-5.6	0	0	70
2026-02-03T15:50	-1.5	1019	-5.3	0	0	70
2026-02-03T15:51	-1.4	1019	-5.2	0	0	70
2026-02-03T15:52	-1.3	1019	-5.1	0	0	70
2026-02-03T15:53	-1.3	1019	-5.1	0	0	70
2026-02-03T15:54	-1.2	1019	-5.2	0	0	70
2026-02-03T15:55	-1.1	1019	-5.1	0	0	70
2026-02-03T15:56	-1.1	1019	-5.1	0	0	70
2026-02-03T15:57	-1.1	1019	-5.1	0	0	70
2026-02-03T15:58	-1.1	1019	-5.3	0	0	70
2026-02-03T15:59	-1.1	1019	-5.3	0	0	70
2026-02-03T16:00	-1.0	1019	-5.0	0	0	70
2026-02-03T16:01	-0.8	1019	-5.0	0	0	70
2026-02-03T16:02	-0.7	1019	-4.9	0	0	70
2026-02-03T16:03	-0.9	1019	-5.3	0	0	70
2026-02-03T16:04	-0.8	1019	-5.2	0	0	70
2026-02-03T16:05	-0.9	1019	-5.3	0	0	70
2026-02-03T16:06	-1.0	1019	-5.4	0	0	70
2026-02-03T16:07	-1.0	1019	-5.2	0	0	70
2026-02-03T16:08	-0.9	1019	-5.1	0	0	70
2026-02-03T16:09	-1.0	1019	-5.2	0	0	70
2026-02-03T16:10	-1.0	1019	-5.2	0	0	70
2026-02-03T16:11	-1.0	1019	-5.2	0	0	70
2026-02-03T16:12	-0.9	1019	-5.1	0	0	70
2026-02-03T16:13	-0.9	1019	-5.1	0	0	70
2026-02-03T16:14	-0.8	1019	-5.0	0	0	70
2026-02-03T16:15	-0.8	1019	-5.0	0	0	70
2026-02-03T16:16	-0.9	1019	-5.1	0	0	70
2026-02-03T16:17	-1.0	1019	-5.2	0	0	70
2026-02-03T16:18	-0.9	1019	-4.9	0	0	70
2026-02-03T16:19	-0.8	1019	-5.0	0	0	70
2026-02-03T16:20	-0.7	1019	-4.9	0	0	70
2026-02-03T16:21	-0.7	1019	-4.9	0	0	70
2026-02-03T16:22	-0.7	1019	-4.9	0	0	70
2026-02-03T16:23	-0.7	1019	-4.9	190	0	70
2026-02-03T16:24	-0.6	1019	-4.8	340	0	70
2026-02-03T16:25	-0.5	1019	-4.7	360	0	70
2026-02-03T16:26	-0.5	1019	-4.9	360	1	70
2026-02-03T16:27	-0.5	1019	-4.9	320	1	70
2026-02-03T16:28	-0.5	1019	-4.9	340	1	70
2026-02-03T16:29	-0.5	1019	-4.9	340	1	70
2026-02-03T16:30	-0.5	1019	-4.7	340	1	70
2026-02-03T16:31	-0.5	1019	-4.7	350	1	70
2026-02-03T16:32	-0.4	1019	-4.6	340	0	70
2026-02-03T16:33	-0.4	1019	-4.8	340	0	70
2026-02-03T16:34	-0.4	1019	-4.6	340	0	70
2026-02-03T16:35	-0.4	1019	-4.6	0	0	70
2026-02-03T16:36	-0.5	1019	-4.7	0	0	70
2026-02-03T16:37	-0.4	1019	-4.6	0	0	70
2026-02-03T16:38	-0.3	1019	-4.7	0	0	70
2026-02-03T16:39	-0.2	1019	-4.6	0	0	70
2026-02-03T16:40	-0.2	1019	-4.6	0	0	70
2026-02-03T16:41	-0.2	1019	-4.8	0	0	70
2026-02-03T16:42	-0.2	1019	-4.8	0	0	70
2026-02-03T16:43	-0.2	1019	-4.8	0	0	70
2026-02-03T16:44	-0.4	1019	-4.8	0	0	70
2026-02-03T16:45	-0.5	1019	-4.7	0	0	70
2026-02-03T16:46	-0.5	1019	-4.9	0	0	70
2026-02-03T16:47	-0.4	1019	-4.8	0	0	70
2026-02-03T16:48	-0.4	1019	-4.8	0	0	70
2026-02-03T16:49	-0.3	1019	-4.7	0	0	70
2026-02-03T16:50	-0.1	1019	-4.5	0	0	70
2026-02-03T16:51	0.0	1019	-4.6	0	0	70
2026-02-03T16:52	0.0	1019	-4.6	0	0	70
2026-02-03T16:53	0.0	1019	-4.8	0	0	70
2026-02-03T16:54	-0.3	1019	-4.9	0	0	70
2026-02-03T16:55	-0.4	1019	-4.8	0	0	70
2026-02-03T16:56	-0.3	1019	-4.9	0	0	70
2026-02-03T16:57	-0.4	1019	-4.8	0	0	70
2026-02-03T16:58	-0.3	1019	-4.7	0	0	70
2026-02-03T16:59	-0.3	1019	-4.7	0	0	70
2026-02-03T17:00	-0.2	1019	-4.8	0	0	70
2026-02-03T17:01	-0.1	1019	-4.7	0	0	70
2026-02-03T17:02	-0.2	1019	-5.0	0	0	70
2026-02-03T17:03	-0.3	1019	-5.1	0	0	70
2026-02-03T17:04	-0.3	1019	-4.9	0	0	70
2026-02-03T17:05	-0.5	1019	-4.9	0	0	70
2026-02-03T17:06	-0.4	1019	-4.8	0	0	70
2026-02-03T17:07	-0.3	1019	-4.9	0	0	70
2026-02-03T17:08	-0.3	1019	-4.9	10	0	70
2026-02-03T17:09	-0.3	1019	-4.5	10	0	70
2026-02-03T17:10	-0.2	1019	-4.4	360	0	70
2026-02-03T17:11	-0.2	1019	-4.4	360	1	70
2026-02-03T17:12	-0.1	1019	-4.7	360	1	70
2026-02-03T17:13	0.0	1019	-4.8	360	1	70
2026-02-03T17:14	-0.1	1019	-4.9	360	1	70
2026-02-03T17:15	-0.3	1019	-4.9	360	1	70
2026-02-03T17:16	-0.2	1019	-5.0	10	1	70
2026-02-03T17:17	-0.2	1019	-4.8	10	1	70
2026-02-03T17:18	-0.2	1019	-4.6	10	1	70
2026-02-03T17:19	-0.3	1019	-4.5	10	1	70
2026-02-03T17:20	-0.2	1019	-4.4	10	1	70
2026-02-03T17:21	-0.1	1019	-4.3	10	1	70
2026-02-03T17:22	0.0	1019	-4.4	360	1	70
2026-02-03T17:23	0.1	1019	-4.3	360	1	70
2026-02-03T17:24	0.6	1019	-4.2	360	1	70
2026-02-03T17:25	1.0	1019	-4.2	360	1	70
2026-02-03T17:26	0.9	1019	-4.5	360	1	70
2026-02-03T17:27	0.7	1019	-4.7	10	1	70
2026-02-03T17:28	0.3	1019	-4.9	360	1	70
2026-02-03T17:29	0.4	1019	-4.8	360	1	70
2026-02-03T17:30	0.5	1019	-4.7	360	1	70
2026-02-03T17:31	0.2	1019	-4.6	360	1	70
2026-02-03T17:32	0.4	1019	-4.4	10	1	70
2026-02-03T17:33	0.2	1019	-4.6	10	1	70
2026-02-03T17:34	0.5	1019	-4.3	10	1	70
2026-02-03T17:35	0.6	1019	-4.4	10	1	70
2026-02-03T17:36	0.7	1019	-4.3	20	1	70
2026-02-03T17:37	0.7	1019	-4.7	20	1	70
2026-02-03T17:38	0.7	1019	-4.9	20	1	70
2026-02-03T17:39	0.6	1019	-4.8	20	1	70
2026-02-03T17:40	0.6	1019	-4.8	10	1	70
2026-02-03T17:41	0.7	1019	-4.7	10	1	70
2026-02-03T17:42	0.9	1019	-4.7	360	1	70
2026-02-03T17:43	0.8	1019	-5.0	360	1	70
2026-02-03T17:44	0.8	1019	-5.0	350	1	70
2026-02-03T17:45	0.4	1019	-5.2	340	1	70
2026-02-03T17:46	0.1	1019	-5.1	330	1	70
2026-02-03T17:47	0.0	1019	-5.0	330	1	70
2026-02-03T17:48	0.0	1019	-4.6	330	1	70
2026-02-03T17:49	-0.1	1019	-4.7	340	1	70
2026-02-03T17:50	0.0	1019	-4.6	340	1	70
2026-02-03T17:51	0.0	1019	-4.6	340	1	70
2026-02-03T17:52	0.2	1019	-4.6	340	1	70
2026-02-03T17:53	-0.1	1019	-4.7	350	1	70
2026-02-03T17:54	-0.2	1019	-4.8	350	1	70
2026-02-03T17:55	0.0	1019	-4.6	350	1	70
2026-02-03T17:56	0.0	1019	-4.6	350	1	70
2026-02-03T17:57	-0.1	1019	-4.7	350	1	70
2026-02-03T17:58	-0.1	1019	-4.5	350	1	70
2026-02-03T17:59	-0.2	1019	-4.4	360	1	70
2026-02-03T18:00	-0.1	1019	-4.5	360	1	70
2026-02-03T18:01	0.0	1019	-4.6	360	1	70
2026-02-03T18:02	0.0	1019	-4.6	360	1	70
2026-02-03T18:03	0.1	1019	-4.7	10	0	70
2026-02-03T18:04	-0.1	1019	-4.9	20	0	70
2026-02-03T18:05	-0.2	1019	-4.8	20	0	70
2026-02-03T18:06	0.0	1019	-4.6	30	0	70
2026-02-03T18:07	0.1	1019	-4.7	30	0	70
2026-02-03T18:08	0.0	1019	-4.8	30	0	70
2026-02-03T18:09	0.3	1019	-4.7	30	0	70
2026-02-03T18:10	0.5	1019	-4.5	20	0	70
2026-02-03T18:11	0.3	1019	-4.9	10	0	70
2026-02-03T18:12	0.2	1019	-5.0	10	1	70
2026-02-03T18:13	-0.1	1019	-5.1	360	1	70
2026-02-03T18:14	-0.1	1019	-4.9	360	1	70
2026-02-03T18:15	0.0	1019	-4.8	360	1	70
2026-02-03T18:16	-0.3	1019	-4.9	350	1	70
2026-02-03T18:17	-0.2	1019	-4.6	350	1	70
2026-02-03T18:18	-0.2	1019	-4.6	350	1	70
2026-02-03T18:19	-0.1	1019	-4.5	350	0	70
2026-02-03T18:20	-0.1	1019	-4.5	350	0	70
2026-02-03T18:21	-0.3	1019	-4.5	350	0	70
2026-02-03T18:22	-0.1	1019	-4.5	0	0	70
2026-02-03T18:23	-0.4	1019	-4.8	0	0	70
2026-02-03T18:24	-0.4	1019	-4.6	0	0	70
2026-02-03T18:25	-0.3	1019	-4.5	0	0	70
2026-02-03T18:26	-0.2	1019	-4.3	0	0	70
2026-02-03T18:27	-0.2	1019	-4.3	0	0	70
2026-02-03T18:28	-0.3	1019	-4.5	0	0	70
2026-02-03T18:29	-0.3	1019	-4.7	0	0	70
2026-02-03T18:30	-0.2	1018	-4.6	0	0	70
2026-02-03T18:31	-0.2	1018	-4.6	0	0	70
2026-02-03T18:32	-0.5	1018	-4.9	0	0	70
2026-02-03T18:33	-0.4	1018	-4.6	0	0	70
2026-02-03T18:34	-0.3	1019	-4.7	0	0	70
2026-02-03T18:35	-0.3	1019	-4.7	0	0	70
2026-02-03T18:36	-0.3	1019	-4.7	0	0	70
2026-02-03T18:37	-0.2	1019	-4.6	0	0	70
2026-02-03T18:38	-0.2	1019	-4.8	40	0	70
2026-02-03T18:39	-0.4	1019	-4.8	40	0	70
2026-02-03T18:40	-0.4	1019	-4.8	40	0	70
2026-02-03T18:41	-0.7	1019	-4.7	30	1	70
2026-02-03T18:42	-1.1	1019	-4.9	280	1	70
2026-02-03T18:43	-1.2	1019	-5.0	350	1	70
2026-02-03T18:44	-1.0	1019	-4.8	320	1	70
2026-02-03T18:45	-0.7	1019	-4.7	290	1	70
2026-02-03T18:46	-0.4	1019	-4.6	280	1	70
2026-02-03T18:47	-0.5	1019	-4.9	270	1	70
2026-02-03T18:48	-0.7	1019	-4.9	270	0	70
2026-02-03T18:49	-0.8	1019	-5.0	270	0	70
2026-02-03T18:50	-1.0	1019	-5.0	0	0	70
2026-02-03T18:51	-0.9	1019	-4.9	0	0	70
2026-02-03T18:52	-0.8	1019	-4.8	0	0	70
2026-02-03T18:53	-0.9	1019	-4.9	0	0	70
2026-02-03T18:54	-0.8	1019	-4.8	0	0	70
2026-02-03T18:55	-0.8	1019	-4.8	0	0	70
2026-02-03T18:56	-0.8	1019	-4.7	260	0	70
2026-02-03T18:57	-0.8	1019	-4.7	260	0	70
2026-02-03T18:58	-0.9	1019	-4.9	260	0	70
2026-02-03T18:59	-0.9	1019	-4.9	250	0	70
2026-02-03T19:00	-0.8	1019	-4.8	250	1	70
2026-02-03T19:01	-0.8	1019	-4.8	250	1	70
2026-02-03T19:02	-0.8	1019	-4.8	250	1	70
2026-02-03T19:03	-0.7	1019	-4.6	240	1	70
2026-02-03T19:04	-0.7	1019	-4.7	240	1	70
2026-02-03T19:05	-0.9	1019	-4.9	240	1	70
2026-02-03T19:06	-0.9	1019	-4.9	240	1	70
2026-02-03T19:07	-1.0	1019	-5.0	240	1	70
2026-02-03T19:08	-1.0	1019	-5.0	240	1	70
2026-02-03T19:09	-0.9	1019	-4.9	240	1	70
2026-02-03T19:10	-0.8	1019	-4.8	240	1	70
2026-02-03T19:11	-0.9	1019	-4.8	240	1	70
2026-02-03T19:12	-1.0	1019	-4.5	240	1	70
2026-02-03T19:13	-1.0	1019	-4.5	240	1	70
2026-02-03T19:14	-1.0	1019	-4.7	240	1	70
2026-02-03T19:15	-1.1	1019	-4.8	240	1	70
2026-02-03T19:16	-1.0	1019	-4.8	240	1	70
2026-02-03T19:17	-0.9	1019	-4.8	240	1	70
2026-02-03T19:18	-1.4	1019	-5.2	240	1	70
2026-02-03T19:19	-1.2	1019	-4.9	240	1	70
2026-02-03T19:20	-1.0	1019	-4.7	240	1	70
2026-02-03T19:21	-0.8	1019	-4.5	240	1	70
2026-02-03T19:22	-0.8	1019	-4.7	240	1	70
2026-02-03T19:23	-1.0	1019	-4.8	240	1	70
2026-02-03T19:24	-1.0	1019	-4.8	250	1	70
2026-02-03T19:25	-1.1	1019	-4.9	250	1	70
2026-02-03T19:26	-0.9	1019	-4.8	250	1	70
2026-02-03T19:27	-0.7	1019	-4.6	260	1	70
2026-02-03T19:28	-1.0	1019	-5.0	260	1	70
2026-02-03T19:29	-0.8	1019	-4.8	260	1	70
2026-02-03T19:30	-0.7	1019	-4.7	260	1	70
2026-02-03T19:31	-0.8	1019	-4.8	250	1	70
2026-02-03T19:32	-0.9	1019	-4.9	250	1	70
2026-02-03T19:33	-1.1	1019	-5.1	250	1	70
2026-02-03T19:34	-1.1	1019	-4.9	250	1	70
2026-02-03T19:35	-1.0	1019	-4.8	240	1	70
2026-02-03T19:36	-1.1	1019	-4.9	240	1	70
2026-02-03T19:37	-1.0	1019	-4.8	240	1	70
2026-02-03T19:38	-1.0	1019	-4.8	240	1	70
2026-02-03T19:39	-1.1	1019	-4.9	240	1	70
2026-02-03T19:40	-1.3	1019	-5.1	250	1	70
2026-02-03T19:41	-1.2	1019	-5.0	260	1	70
2026-02-03T19:42	-1.2	1019	-5.0	260	1	70
2026-02-03T19:43	-1.3	1019	-5.0	260	1	70
2026-02-03T19:44	-1.3	1019	-5.0	260	1	70
2026-02-03T19:45	-1.3	1019	-5.0	260	1	70
2026-02-03T19:46	-1.2	1019	-4.9	260	1	70
2026-02-03T19:47	-1.2	1019	-5.0	260	1	70
2026-02-03T19:48	-1.4	1019	-5.2	260	1	70
2026-02-03T19:49	-1.5	1019	-5.2	260	1	70
2026-02-03T19:50	-1.2	1019	-4.9	260	1	70
2026-02-03T19:51	-1.1	1019	-4.9	260	1	70
2026-02-03T19:52	-1.2	1019	-5.0	270	1	70
2026-02-03T19:53	-1.2	1019	-5.2	270	1	70
2026-02-03T19:54	-1.3	1019	-5.1	280	1	70
2026-02-03T19:55	-1.2	1019	-5.0	280	1	70
2026-02-03T19:56	-1.2	1019	-5.0	280	1	70
2026-02-03T19:57	-1.2	1019	-5.2	280	1	70
2026-02-03T19:58	-1.3	1019	-5.1	280	1	70
2026-02-03T19:59	-1.3	1019	-5.1	270	1	70
2026-02-03T20:00	-1.5	1019	-5.3	270	1	70
2026-02-03T20:01	-1.6	1019	-5.4	270	1	70
2026-02-03T20:02	-1.7	1019	-5.4	260	1	70
2026-02-03T20:03	-1.8	1019	-5.5	260	1	70
2026-02-03T20:04	-1.8	1019	-5.5	260	1	70
2026-02-03T20:05	-2.2	1019	-5.7	250	1	70
2026-02-03T20:06	-2.3	1019	-5.8	250	2	70
2026-02-03T20:07	-2.1	1019	-5.4	250	2	70
2026-02-03T20:08	-2.1	1019	-5.4	250	2	70
2026-02-03T20:09	-2.1	1019	-5.4	250	2	70
2026-02-03T20:10	-2.2	1019	-5.3	250	2	70
2026-02-03T20:11	-2.3	1019	-5.4	250	2	70
2026-02-03T20:12	-2.0	1019	-5.1	240	2	70
2026-02-03T20:13	-1.7	1019	-5.0	240	2	70
2026-02-03T20:14	-1.6	1019	-5.1	240	2	70
2026-02-03T20:15	-1.9	1019	-5.4	250	2	70
2026-02-03T20:16	-2.0	1019	-5.6	250	2	70
2026-02-03T20:17	-2.1	1019	-5.6	250	2	70
2026-02-03T20:18	-2.1	1019	-5.6	250	2	70
2026-02-03T20:19	-2.2	1019	-5.7	250	2	70
2026-02-03T20:20	-2.2	1019	-5.5	260	2	70
2026-02-03T20:21	-2.3	1019	-5.6	260	2	70
2026-02-03T20:22	-2.4	1019	-5.5	260	1	70
2026-02-03T20:23	-2.5	1019	-5.6	260	1	70
2026-02-03T20:24	-2.3	1019	-5.4	270	1	70
2026-02-03T20:25	-2.4	1019	-5.5	270	1	70
2026-02-03T20:26	-2.5	1019	-5.6	270	1	70
2026-02-03T20:27	-2.6	1019	-5.7	270	1	70
2026-02-03T20:28	-2.5	1019	-5.5	270	1	70
2026-02-03T20:29	-2.3	1019	-5.3	270	1	70
2026-02-03T20:30	-2.5	1019	-5.6	270	1	70
2026-02-03T20:31	-2.5	1019	-5.6	270	1	70
2026-02-03T20:32	-2.4	1019	-5.4	270	1	70
2026-02-03T20:33	-2.3	1019	-5.4	270	1	70
2026-02-03T20:34	-2.7	1019	-5.8	270	1	70
2026-02-03T20:35	-2.4	1019	-5.5	270	1	70
2026-02-03T20:36	-2.4	1019	-5.5	260	1	70
2026-02-03T20:37	-2.4	1019	-5.5	260	1	70
2026-02-03T20:38	-2.1	1019	-5.2	260	1	70
2026-02-03T20:39	-2.5	1019	-5.8	260	1	70
2026-02-03T20:40	-2.7	1019	-6.0	260	1	70
2026-02-03T20:41	-2.8	1019	-5.9	260	1	70
2026-02-03T20:42	-2.7	1019	-5.7	260	1	70
2026-02-03T20:43	-2.5	1019	-5.6	260	1	70
2026-02-03T20:44	-2.5	1019	-5.6	260	1	70
2026-02-03T20:45	-3.0	1019	-6.3	260	1	70
2026-02-03T20:46	-2.9	1019	-6.2	260	1	70
2026-02-03T20:47	-2.7	1019	-5.7	270	1	70
2026-02-03T20:48	-2.7	1019	-5.7	270	1	70
2026-02-03T20:49	-2.6	1019	-5.6	270	1	70
2026-02-03T20:50	-2.8	1019	-5.8	270	1	70
2026-02-03T20:51	-2.6	1019	-5.6	270	1	70
2026-02-03T20:52	-2.7	1019	-5.8	270	1	70
2026-02-03T20:53	-2.9	1019	-6.2	270	1	70
2026-02-03T20:54	-2.7	1019	-5.8	270	1	70
2026-02-03T20:55	-2.7	1019	-5.7	270	1	70
2026-02-03T20:56	-2.6	1019	-5.6	260	1	70
2026-02-03T20:57	-2.7	1019	-5.8	260	1	70
2026-02-03T20:58	-3.0	1019	-6.1	260	1	70
2026-02-03T20:59	-2.9	1019	-6.0	260	1	70
2026-02-03T21:00	-2.8	1019	-5.8	250	1	70
2026-02-03T21:01	-2.7	1019	-5.5	250	2	70
2026-02-03T21:02	-2.6	1019	-5.6	250	2	70
2026-02-03T21:03	-2.6	1019	-5.6	250	1	70
2026-02-03T21:04	-2.6	1019	-5.6	250	1	70
2026-02-03T21:05	-2.7	1019	-5.8	260	1	70
2026-02-03T21:06	-2.7	1019	-5.7	260	2	70
2026-02-03T21:07	-2.8	1019	-5.8	260	2	70
2026-02-03T21:08	-2.9	1019	-5.7	250	2	70
2026-02-03T21:09	-3.0	1019	-5.8	250	2	70
2026-02-03T21:10	-3.0	1019	-5.8	250	2	70
2026-02-03T21:11	-3.0	1019	-5.8	260	2	70
2026-02-03T21:12	-3.0	1019	-5.8	260	2	70
2026-02-03T21:13	-3.1	1019	-5.9	260	2	70
2026-02-03T21:14	-3.2	1019	-6.0	260	2	70
2026-02-03T21:15	-2.8	1019	-5.6	260	2	70
2026-02-03T21:16	-2.7	1019	-5.5	260	2	70
2026-02-03T21:17	-2.9	1019	-5.7	260	2	70
2026-02-03T21:18	-2.5	1019	-5.3	260	2	70
2026-02-03T21:19	-2.4	1019	-5.4	270	2	70
2026-02-03T21:20	-2.6	1019	-5.6	270	2	70
2026-02-03T21:21	-2.6	1019	-5.6	270	2	70
2026-02-03T21:22	-2.7	1019	-5.7	270	2	70
2026-02-03T21:23	-2.8	1019	-5.8	270	2	70
2026-02-03T21:24	-2.6	1019	-5.4	270	2	70
2026-02-03T21:25	-2.7	1019	-5.5	270	2	70
2026-02-03T21:26	-2.7	1019	-5.5	270	2	70
2026-02-03T21:27	-2.5	1019	-5.5	270	2	70
2026-02-03T21:28	-2.4	1019	-5.4	270	2	70
2026-02-03T21:29	-2.2	1019	-5.2	270	2	70
2026-02-03T21:30	-2.3	1019	-5.4	270	2	70
2026-02-03T21:31	-2.4	1019	-5.5	270	2	70
2026-02-03T21:32	-2.6	1019	-5.7	270	2	70
2026-02-03T21:33	-2.4	1019	-5.5	270	2	70
2026-02-03T21:34	-2.3	1019	-5.4	260	2	70
2026-02-03T21:35	-2.5	1019	-5.6	260	2	70
2026-02-03T21:36	-2.5	1019	-5.6	260	2	70
2026-02-03T21:37	-2.6	1019	-5.6	260	2	70
2026-02-03T21:38	-2.7	1019	-5.7	260	2	70
2026-02-03T21:39	-2.8	1019	-5.8	260	2	70
2026-02-03T21:40	-2.6	1019	-5.6	260	2	70
2026-02-03T21:41	-2.7	1019	-5.7	260	2	70
2026-02-03T21:42	-2.6	1019	-5.6	260	2	70
2026-02-03T21:43	-2.3	1019	-5.3	260	2	70
2026-02-03T21:44	-2.1	1019	-5.1	260	2	70
2026-02-03T21:45	-2.2	1019	-5.3	260	2	70
2026-02-03T21:46	-2.2	1019	-5.3	260	2	70
2026-02-03T21:47	-2.3	1019	-5.6	260	2	70
2026-02-03T21:48	-2.5	1019	-5.8	260	2	70
2026-02-03T21:49	-2.6	1019	-5.7	260	2	70
2026-02-03T21:50	-2.5	1019	-5.5	270	2	70
2026-02-03T21:51	-2.5	1019	-5.5	270	1	70
2026-02-03T21:52	-2.5	1019	-5.5	270	1	70
2026-02-03T21:53	-2.5	1019	-5.5	280	1	70
2026-02-03T21:54	-2.4	1019	-5.4	280	1	70
2026-02-03T21:55	-2.3	1019	-5.4	290	1	70
2026-02-03T21:56	-2.5	1019	-5.6	290	1	70
2026-02-03T21:57	-2.3	1019	-5.4	290	1	70
2026-02-03T21:58	-2.2	1019	-5.3	300	1	70
2026-02-03T21:59	-2.2	1019	-5.5	300	2	70
2026-02-03T22:00	-2.1	1019	-5.4	300	2	70
2026-02-03T22:01	-2.1	1019	-5.6	290	2	70
2026-02-03T22:02	-2.0	1019	-5.5	290	2	70
2026-02-03T22:03	-2.1	1019	-5.6	290	2	70
2026-02-03T22:04	-2.0	1019	-5.5	290	2	70
2026-02-03T22:05	-2.2	1019	-5.8	290	2	70
2026-02-03T22:06	-2.2	1019	-5.7	290	2	70
2026-02-03T22:07	-2.2	1019	-5.7	280	2	70
2026-02-03T22:08	-2.1	1019	-5.6	280	2	70
2026-02-03T22:09	-2.1	1019	-5.6	280	1	70
2026-02-03T22:10	-2.1	1019	-5.6	280	2	70
2026-02-03T22:11	-2.2	1019	-5.7	280	2	70
2026-02-03T22:12	-2.0	1019	-5.5	280	2	70
2026-02-03T22:13	-1.8	1019	-5.3	290	2	70
2026-02-03T22:14	-1.8	1019	-5.5	280	2	70
2026-02-03T22:15	-2.0	1019	-5.6	280	2	70
2026-02-03T22:16	-1.9	1019	-5.5	280	2	70
2026-02-03T22:17	-1.9	1019	-5.7	290	2	70
2026-02-03T22:18	-2.0	1019	-5.8	290	1	70
2026-02-03T22:19	-1.8	1019	-5.6	290	1	70
2026-02-03T22:20	-1.6	1019	-5.4	280	2	70
2026-02-03T22:21	-1.6	1019	-5.4	280	2	70
2026-02-03T22:22	-1.6	1019	-5.4	280	2	70
2026-02-03T22:23	-1.6	1019	-5.6	280	2	70
2026-02-03T22:24	-1.5	1019	-5.5	270	2	70
2026-02-03T22:25	-1.5	1019	-5.5	270	2	70
2026-02-03T22:26	-1.6	1019	-5.6	270	2	70
2026-02-03T22:27	-1.6	1019	-5.6	260	2	70
2026-02-03T22:28	-1.6	1019	-5.6	260	2	70
2026-02-03T22:29	-1.6	1019	-5.6	260	2	70
2026-02-03T22:30	-1.6	1019	-5.6	260	2	70
2026-02-03T22:31	-1.7	1019	-5.7	270	2	70
2026-02-03T22:32	-1.6	1019	-5.4	270	2	70
2026-02-03T22:33	-1.6	1019	-5.6	260	2	70
2026-02-03T22:34	-1.5	1019	-5.5	270	2	70
2026-02-03T22:35	-1.5	1019	-5.5	270	2	70
2026-02-03T22:36	-1.5	1019	-5.5	270	2	70
2026-02-03T22:37	-1.5	1019	-5.3	270	2	70
2026-02-03T22:38	-1.3	1019	-5.1	270	2	70
2026-02-03T22:39	-1.3	1019	-5.3	270	2	70
2026-02-03T22:40	-1.3	1019	-5.5	270	2	70
2026-02-03T22:41	-1.2	1019	-5.4	270	2	70
2026-02-03T22:42	-1.1	1019	-5.5	270	2	70
2026-02-03T22:43	-1.0	1019	-5.4	270	2	70
2026-02-03T22:44	-1.1	1019	-5.5	280	2	70
2026-02-03T22:45	-1.1	1019	-5.5	280	2	70
2026-02-03T22:46	-1.0	1019	-5.4	280	2	70
2026-02-03T22:47	-0.9	1019	-5.5	280	2	70
2026-02-03T22:48	-0.8	1019	-5.4	270	2	70
2026-02-03T22:49	-0.8	1019	-5.4	280	2	70
2026-02-03T22:50	-0.9	1019	-5.7	280	2	70
2026-02-03T22:51	-0.9	1019	-5.7	290	2	70
2026-02-03T22:52	-0.7	1019	-5.5	300	2	70
2026-02-03T22:53	-0.7	1019	-5.5	300	2	70
2026-02-03T22:54	-0.7	1019	-5.5	300	2	70
2026-02-03T22:55	-0.6	1019	-5.4	300	2	70
2026-02-03T22:56	-0.5	1019	-5.3	300	2	70
2026-02-03T22:57	-0.5	1019	-5.3	300	2	70
2026-02-03T22:58	-0.5	1019	-5.5	310	2	70
2026-02-03T22:59	-0.3	1019	-5.3	300	2	70
2026-02-03T23:00	-0.2	1019	-5.2	300	2	70
2026-02-03T23:01	-0.1	1019	-5.1	300	2	70
2026-02-03T23:02	-0.1	1019	-5.3	300	2	70
2026-02-03T23:03	-0.2	1019	-5.4	300	2	70
2026-02-03T23:04	0.0	1019	-5.2	300	2	70
2026-02-03T23:05	0.0	1019	-5.2	300	2	70
2026-02-03T23:06	0.0	1019	-5.4	300	2	70
2026-02-03T23:07	0.0	1019	-5.4	300	2	70
2026-02-03T23:08	0.3	1019	-5.1	300	2	70
2026-02-03T23:09	0.2	1019	-5.2	310	2	70
2026-02-03T23:10	0.3	1019	-5.1	300	2	70
2026-02-03T23:11	0.4	1019	-5.2	300	2	70
2026-02-03T23:12	0.5	1019	-5.1	300	2	70
2026-02-03T23:13	0.2	1019	-5.6	300	3	70
2026-02-03T23:14	0.2	1019	-5.6	300	3	70
2026-02-03T23:15	0.3	1019	-5.5	300	2	70
2026-02-03T23:16	0.5	1019	-5.3	300	3	70
2026-02-03T23:17	0.5	1019	-5.3	300	2	70
2026-02-03T23:18	0.7	1019	-4.9	300	2	70
2026-02-03T23:19	0.7	1019	-5.1	300	2	70
2026-02-03T23:20	0.6	1019	-5.4	310	2	70
2026-02-03T23:21	0.6	1019	-5.4	310	2	70
2026-02-03T23:22	0.6	1019	-5.4	310	2	70
2026-02-03T23:23	0.7	1019	-5.3	310	2	70
2026-02-03T23:24	0.8	1019	-5.0	310	2	70
2026-02-03T23:25	0.8	1019	-5.2	310	2	70
2026-02-03T23:26	1.0	1019	-5.0	310	2	70
2026-02-03T23:27	1.0	1019	-5.0	310	2	70
2026-02-03T23:28	1.0	1019	-5.2	310	2	70
2026-02-03T23:29	1.0	1019	-5.2	310	2	70
2026-02-03T23:30	1.1	1019	-5.1	310	2	70
2026-02-03T23:31	1.0	1019	-5.4	310	2	70
2026-02-03T23:32	1.1	1019	-5.1	310	2	70
2026-02-03T23:33	1.2	1019	-5.3	320	2	70
2026-02-03T23:34	1.1	1019	-5.3	320	2	70
2026-02-03T23:35	1.1	1019	-5.3	310	2	70
2026-02-03T23:36	1.2	1019	-5.3	310	2	70
2026-02-03T23:37	1.4	1019	-5.1	310	2	70
2026-02-03T23:38	1.4	1019	-5.1	300	2	70
2026-02-03T23:39	1.7	1019	-4.6	300	2	70
2026-02-03T23:40	1.7	1019	-5.0	300	2	70
2026-02-03T23:41	1.6	1019	-5.3	300	2	70
2026-02-03T23:42	1.7	1019	-5.0	290	2	70
2026-02-03T23:43	1.5	1019	-5.4	290	2	70
2026-02-03T23:44	1.6	1019	-5.3	290	2	70
2026-02-03T23:45	1.7	1019	-5.2	290	2	70
2026-02-03T23:46	2.0	1019	-4.7	290	2	70
2026-02-03T23:47	2.1	1019	-4.8	290	2	70
2026-02-03T23:48	2.0	1019	-5.2	290	2	70
2026-02-03T23:49	2.3	1019	-4.6	290	2	70
2026-02-03T23:50	2.0	1019	-5.2	290	2	70
2026-02-03T23:51	1.9	1019	-5.5	290	2	70
2026-02-03T23:52	2.1	1019	-5.1	290	2	70
2026-02-03T23:53	1.9	1019	-5.5	280	2	70
2026-02-03T23:54	1.9	1019	-5.5	280	2	70
2026-02-03T23:55	2.0	1019	-5.4	280	2	70
2026-02-03T23:56	2.3	1019	-4.9	280	2	70
2026-02-03T23:57	2.3	1019	-5.1	280	2	70
2026-02-03T23:58	2.5	1019	-4.9	280	2	70
2026-02-03T23:59	2.4	1019	-5.0	280	2	70
2026-02-04T00:00	2.2	1019	-5.4	280	2	70
2026-02-04T00:01	2.5	1019	-4.9	280	2	70
2026-02-04T00:02	2.4	1019	-5.0	290	2	70
2026-02-04T00:03	2.3	1019	-5.3	290	2	70
2026-02-04T00:04	2.6	1019	-4.8	290	2	70
2026-02-04T00:05	2.7	1019	-4.7	290	2	70
2026-02-04T00:06	2.7	1019	-4.9	290	2	70
2026-02-04T00:07	2.9	1019	-4.8	290	2	70
2026-02-04T00:08	3.0	1019	-4.7	290	2	70
2026-02-04T00:09	3.3	1019	-4.4	280	2	70
2026-02-04T00:10	3.0	1019	-5.1	290	2	70
2026-02-04T00:11	2.8	1019	-5.3	290	2	70
2026-02-04T00:12	2.8	1019	-5.3	290	2	70
2026-02-04T00:13	2.8	1019	-5.1	290	2	70
2026-02-04T00:14	2.8	1019	-5.1	300	2	70
2026-02-04T00:15	3.0	1019	-4.9	300	2	70
2026-02-04T00:16	3.2	1019	-4.7	300	2	70
2026-02-04T00:17	3.1	1019	-5.0	290	2	70
2026-02-04T00:18	3.3	1019	-4.9	290	2	70
2026-02-04T00:19	3.5	1019	-4.7	290	2	70
2026-02-04T00:20	3.8	1019	-4.4	290	2	70
2026-02-04T00:21	3.9	1019	-4.5	280	2	70
2026-02-04T00:22	3.8	1019	-4.6	280	2	70
2026-02-04T00:23	3.8	1019	-4.6	270	2	70
2026-02-04T00:24	3.6	1019	-5.1	270	2	70
2026-02-04T00:25	3.6	1019	-5.1	260	2	70
2026-02-04T00:26	3.7	1019	-5.0	270	2	70
2026-02-04T00:27	3.8	1019	-4.9	270	2	70
2026-02-04T00:28	4.0	1019	-4.7	270	2	70
2026-02-04T00:29	4.1	1019	-4.6	270	2	70
2026-02-04T00:30	3.9	1019	-5.0	280	1	70
2026-02-04T00:31	4.1	1019	-4.9	280	1	70
2026-02-04T00:32	4.2	1019	-4.8	280	1	70
2026-02-04T00:33	4.4	1019	-4.6	290	1	70
2026-02-04T00:34	4.5	1019	-4.5	290	1	70
2026-02-04T00:35	4.6	1019	-4.6	290	1	70
2026-02-04T00:36	4.5	1019	-4.7	290	1	70
2026-02-04T00:37	4.3	1019	-5.2	300	2	70
2026-02-04T00:38	4.3	1019	-4.9	300	2	70
2026-02-04T00:39	4.4	1019	-4.8	300	2	70
2026-02-04T00:40	4.5	1019	-4.7	300	2	70
2026-02-04T00:41	4.5	1019	-4.7	300	2	70
2026-02-04T00:42	4.6	1019	-4.6	290	2	70
2026-02-04T00:43	4.7	1019	-4.8	290	2	70
2026-02-04T00:44	4.7	1019	-4.8	290	2	70
2026-02-04T00:45	4.6	1019	-4.9	280	2	70
2026-02-04T00:46	4.8	1019	-4.7	280	2	70
2026-02-04T00:47	4.6	1019	-5.2	270	2	70
2026-02-04T00:48	4.8	1019	-4.7	270	2	70
2026-02-04T00:49	5.2	1019	-4.4	270	2	70
2026-02-04T00:50	5.5	1019	-4.3	260	2	70
2026-02-04T00:51	5.4	1019	-4.4	260	2	70
2026-02-04T00:52	4.9	1019	-5.2	270	2	70
2026-02-04T00:53	4.5	1019	-5.5	270	2	70
2026-02-04T00:54	4.5	1019	-5.3	280	2	70
2026-02-04T00:55	5.1	1019	-4.4	280	2	70
2026-02-04T00:56	5.3	1019	-4.5	280	2	70
2026-02-04T00:57	5.0	1019	-5.1	280	2	70
2026-02-04T00:58	5.0	1019	-5.1	280	2	70
2026-02-04T00:59	5.6	1019	-4.3	280	2	70
2026-02-04T01:00	5.6	1019	-4.5	280	2	70
2026-02-04T01:01	5.8	1019	-4.3	280	2	70
2026-02-04T01:02	6.2	1019	-4.0	280	2	70
2026-02-04T01:03	6.5	1019	-4.0	270	2	70
2026-02-04T01:04	6.2	1019	-4.5	270	2	70
2026-02-04T01:05	5.6	1019	-5.4	270	3	70
2026-02-04T01:06	5.8	1019	-4.9	270	3	70
2026-02-04T01:07	6.1	1019	-4.3	270	3	70
2026-02-04T01:08	6.1	1019	-4.6	270	3	70
2026-02-04T01:09	6.2	1019	-4.5	270	3	70
2026-02-04T01:10	6.0	1019	-4.7	270	3	70
2026-02-04T01:11	5.8	1019	-4.9	270	3	70
2026-02-04T01:12	6.1	1019	-4.6	270	3	70
2026-02-04T01:13	6.1	1019	-4.6	270	3	70
2026-02-04T01:14	6.1	1019	-4.9	270	3	70
2026-02-04T01:15	5.8	1019	-5.2	270	3	70
2026-02-04T01:16	6.2	1019	-4.5	270	3	70
2026-02-04T01:17	6.9	1019	-3.9	270	3	70
2026-02-04T01:18	6.6	1019	-4.5	270	3	70
2026-02-04T01:19	6.4	1019	-4.9	270	2	70
2026-02-04T01:20	6.2	1019	-4.8	270	2	70
2026-02-04T01:21	5.9	1019	-5.1	280	2	70
2026-02-04T01:22	6.1	1019	-4.9	280	2	70
2026-02-04T01:23	6.7	1019	-4.1	280	2	70
2026-02-04T01:24	6.6	1019	-4.8	280	2	70
2026-02-04T01:25	6.5	1019	-4.9	280	2	70
2026-02-04T01:26	6.3	1019	-5.0	280	2	70
2026-02-04T01:27	6.4	1019	-4.9	280	2	70
2026-02-04T01:28	6.3	1019	-5.0	280	2	70
2026-02-04T01:29	6.6	1019	-4.8	280	1	70
2026-02-04T01:30	6.8	1018	-4.6	280	2	70
2026-02-04T01:31	7.1	1018	-4.3	280	2	70
2026-02-04T01:32	7.2	1018	-4.5	280	2	70
2026-02-04T01:33	7.5	1018	-4.3	280	2	70
2026-02-04T01:34	7.3	1018	-4.7	280	2	70
2026-02-04T01:35	7.3	1018	-4.7	270	2	70
2026-02-04T01:36	7.8	1018	-4.3	280	2	70
2026-02-04T01:37	7.7	1018	-4.7	280	2	70
2026-02-04T01:38	7.1	1018	-5.2	280	2	70
2026-02-04T01:39	6.8	1018	-5.5	280	2	70
2026-02-04T01:40	6.6	1018	-5.4	280	2	70
2026-02-04T01:41	6.6	1018	-5.1	270	2	70
2026-02-04T01:42	6.9	1018	-4.8	280	2	70
2026-02-04T01:43	7.4	1018	-4.7	270	2	70
2026-02-04T01:44	7.3	1018	-5.1	270	2	70
2026-02-04T01:45	7.0	1018	-5.3	280	2	70
2026-02-04T01:46	6.9	1018	-5.4	280	2	70
2026-02-04T01:47	7.0	1018	-5.3	280	2	70
2026-02-04T01:48	7.0	1018	-5.3	270	2	70
2026-02-04T01:49	7.4	1018	-5.0	270	2	70
2026-02-04T01:50	7.9	1018	-4.5	270	2	70
2026-02-04T01:51	7.7	1018	-5.0	280	2	70
2026-02-04T01:52	7.4	1018	-5.3	280	2	70
2026-02-04T01:53	8.1	1018	-4.3	270	3	70
2026-02-04T01:54	7.6	1018	-5.5	270	3	70
2026-02-04T01:55	7.5	1018	-5.5	270	3	70
2026-02-04T01:56	7.5	1018	-5.5	270	3	70
2026-02-04T01:57	7.9	1018	-4.8	280	3	70
2026-02-04T01:58	8.0	1018	-5.1	270	3	70
2026-02-04T01:59	8.3	1018	-4.8	270	3	70
2026-02-04T02:00	7.9	1018	-5.5	280	2	70
2026-02-04T02:01	7.9	1018	-5.5	280	2	70
2026-02-04T02:02	8.2	1018	-5.3	280	2	70
2026-02-04T02:03	7.7	1018	-6.1	290	2	70
2026-02-04T02:04	7.5	1018	-6.2	300	2	70
2026-02-04T02:05	7.5	1018	-6.2	300	2	70
2026-02-04T02:06	7.8	1018	-5.6	300	2	70
2026-02-04T02:07	8.2	1018	-4.9	310	2	70
2026-02-04T02:08	8.3	1018	-5.2	310	2	70
2026-02-04T02:09	8.7	1018	-4.5	320	2	70
2026-02-04T02:10	8.5	1018	-5.0	330	2	70
2026-02-04T02:11	8.1	1018	-5.7	330	2	70
2026-02-04T02:12	8.2	1018	-5.3	330	2	70
2026-02-04T02:13	8.3	1017	-5.2	330	2	70
2026-02-04T02:14	8.8	1017	-4.7	320	2	70
2026-02-04T02:15	8.5	1017	-5.7	320	2	70
2026-02-04T02:16	8.2	1017	-6.0	310	2	70
2026-02-04T02:17	8.3	1017	-5.5	300	2	70
2026-02-04T02:18	9.2	1017	-4.7	300	3	70
2026-02-04T02:19	8.8	1017	-5.4	300	3	70
2026-02-04T02:20	8.3	1017	-5.9	290	2	70
2026-02-04T02:21	8.5	1017	-5.3	290	2	70
2026-02-04T02:22	9.0	1017	-4.9	290	3	70
2026-02-04T02:23	8.9	1017	-5.3	290	3	70
2026-02-04T02:24	8.7	1017	-5.5	290	3	70
2026-02-04T02:25	8.6	1017	-5.6	290	3	70
2026-02-04T02:26	8.2	1017	-6.0	290	3	70
2026-02-04T02:27	8.6	1017	-5.6	290	2	70
2026-02-04T02:28	8.7	1017	-5.5	290	2	70
2026-02-04T02:29	8.8	1017	-5.4	290	2	70
2026-02-04T02:30	8.7	1017	-5.5	300	2	70
2026-02-04T02:31	9.0	1017	-5.3	300	2	70
2026-02-04T02:32	9.3	1017	-5.4	300	2	70
2026-02-04T02:33	9.0	1017	-5.6	300	2	70
2026-02-04T02:34	8.8	1017	-6.2	310	2	70
2026-02-04T02:35	9.2	1017	-5.4	310	2	70
2026-02-04T02:36	8.9	1017	-5.7	320	2	70
2026-02-04T02:37	8.4	1017	-6.2	320	2	70
2026-02-04T02:38	8.5	1017	-5.7	320	2	70
2026-02-04T02:39	8.7	1017	-5.5	310	2	70
2026-02-04T02:40	9.0	1017	-4.9	300	2	70
2026-02-04T02:41	8.7	1017	-5.5	290	2	70
2026-02-04T02:42	8.8	1017	-5.4	280	2	70
2026-02-04T02:43	8.9	1017	-5.3	270	2	70
2026-02-04T02:44	9.5	1017	-4.4	260	2	70
2026-02-04T02:45	9.4	1017	-4.9	250	2	70
2026-02-04T02:46	9.2	1017	-5.4	250	2	70
2026-02-04T02:47	9.0	1017	-5.6	250	2	70
2026-02-04T02:48	9.2	1017	-5.1	240	2	70
2026-02-04T02:49	9.1	1017	-5.2	240	2	70
2026-02-04T02:50	8.8	1017	-5.4	230	2	70
2026-02-04T02:51	8.7	1017	-5.5	230	2	70
2026-02-04T02:52	8.8	1017	-5.1	230	2	70
2026-02-04T02:53	8.9	1017	-5.0	230	2	70
2026-02-04T02:54	9.3	1017	-4.6	220	2	70
2026-02-04T02:55	9.0	1017	-5.3	220	2	70
2026-02-04T02:56	8.9	1017	-5.3	210	1	70
2026-02-04T02:57	9.3	1017	-4.6	200	1	70
2026-02-04T02:58	9.4	1016	-4.5	190	1	70
2026-02-04T02:59	9.1	1016	-5.2	180	1	70
2026-02-04T03:00	9.0	1016	-5.3	190	1	70
2026-02-04T03:01	8.8	1016	-5.4	350	1	70
2026-02-04T03:02	8.9	1016	-5.3	250	1	70
2026-02-04T03:03	8.9	1016	-5.3	280	1	70
2026-02-04T03:04	8.8	1016	-5.4	330	1	70
2026-02-04T03:05	9.3	1016	-4.6	360	1	70
2026-02-04T03:06	9.1	1016	-5.2	350	1	70
2026-02-04T03:07	9.5	1016	-4.8	340	1	70
2026-02-04T03:08	9.7	1016	-4.6	320	2	70
2026-02-04T03:09	9.6	1016	-4.7	320	2	70
2026-02-04T03:10	9.7	1016	-4.6	310	2	70
2026-02-04T03:11	9.6	1016	-5.1	300	2	70
2026-02-04T03:12	9.4	1016	-5.3	290	2	70
2026-02-04T03:13	9.3	1016	-5.4	270	2	70
2026-02-04T03:14	9.7	1016	-4.6	260	2	70
2026-02-04T03:15	9.8	1016	-4.5	260	2	70
2026-02-04T03:16	9.6	1016	-5.1	250	2	70
2026-02-04T03:17	9.3	1016	-5.4	240	2	70
2026-02-04T03:18	9.2	1016	-5.1	230	2	70
2026-02-04T03:19	9.4	1016	-4.9	220	2	70
2026-02-04T03:20	9.6	1016	-4.7	220	2	70
2026-02-04T03:21	9.8	1016	-4.5	230	2	70
2026-02-04T03:22	9.2	1016	-5.4	240	2	70
2026-02-04T03:23	9.2	1016	-5.1	260	2	70
2026-02-04T03:24	9.3	1016	-5.0	260	2	70
2026-02-04T03:25	9.4	1016	-4.9	280	2	70
2026-02-04T03:26	9.4	1016	-4.9	290	2	70
2026-02-04T03:27	9.5	1016	-5.2	300	2	70
2026-02-04T03:28	9.6	1016	-5.1	300	2	70
2026-02-04T03:29	10.1	1016	-4.3	300	2	70
2026-02-04T03:30	10.0	1016	-4.7	310	2	70
2026-02-04T03:31	9.9	1016	-5.2	300	2	70
2026-02-04T03:32	9.7	1016	-5.4	300	2	70
2026-02-04T03:33	10.2	1016	-4.6	290	2	70
2026-02-04T03:34	9.9	1016	-5.2	280	2	70
2026-02-04T03:35	9.6	1016	-5.5	270	2	70
2026-02-04T03:36	9.7	1016	-5.4	260	2	70
2026-02-04T03:37	10.0	1016	-4.7	270	2	70
2026-02-04T03:38	10.2	1016	-4.9	270	2	70
2026-02-04T03:39	10.6	1016	-4.6	260	2	70
2026-02-04T03:40	10.3	1016	-5.2	260	2	70
2026-02-04T03:41	9.6	1016	-5.9	260	2	70
2026-02-04T03:42	9.6	1016	-5.5	260	2	70
2026-02-04T03:43	9.5	1016	-5.6	250	2	70
2026-02-04T03:44	9.8	1016	-5.3	260	2	70
2026-02-04T03:45	9.8	1016	-5.3	110	2	70
2026-02-04T03:46	9.8	1016	-5.3	90	1	70
2026-02-04T03:47	10.3	1016	-4.9	80	1	70
2026-02-04T03:48	10.1	1015	-5.0	280	1	70
2026-02-04T03:49	10.4	1015	-4.8	270	1	70
2026-02-04T03:50	10.4	1015	-5.2	260	1	70
2026-02-04T03:51	10.0	1015	-5.5	250	2	70
2026-02-04T03:52	9.8	1015	-5.7	240	2	70
2026-02-04T03:53	10.0	1015	-5.1	250	2	70
2026-02-04T03:54	10.4	1015	-4.8	250	2	70
2026-02-04T03:55	10.1	1015	-5.4	250	2	70
2026-02-04T03:56	9.6	1015	-5.9	250	2	70
2026-02-04T03:57	9.6	1015	-5.5	240	2	70
2026-02-04T03:58	10.0	1015	-5.1	240	2	70
2026-02-04T03:59	10.2	1015	-4.9	240	2	70
2026-02-04T04:00	10.1	1015	-5.4	230	2	70
2026-02-04T04:01	9.9	1015	-5.6	240	1	70
2026-02-04T04:02	9.8	1015	-5.7	240	1	70
2026-02-04T04:03	9.7	1015	-5.4	250	1	70
2026-02-04T04:04	10.2	1015	-4.9	250	1	70
2026-02-04T04:05	10.2	1015	-4.9	250	1	70
2026-02-04T04:06	10.1	1015	-5.4	250	1	70
2026-02-04T04:07	9.8	1015	-5.7	250	1	70
2026-02-04T04:08	9.9	1015	-5.2	260	1	70
2026-02-04T04:09	9.8	1015	-5.7	250	1	70
2026-02-04T04:10	10.0	1015	-5.1	250	1	70
2026-02-04T04:11	9.7	1015	-5.8	240	1	70
2026-02-04T04:12	9.6	1015	-5.9	230	1	70
2026-02-04T04:13	9.7	1015	-5.4	220	1	70
2026-02-04T04:14	9.8	1015	-5.3	200	1	70
2026-02-04T04:15	10.2	1015	-4.9	190	1	70
2026-02-04T04:16	10.2	1015	-5.3	180	1	70
2026-02-04T04:17	10.0	1015	-5.5	180	1	70
2026-02-04T04:18	10.3	1015	-5.2	180	1	70
2026-02-04T04:19	10.1	1015	-5.4	170	1	70
2026-02-04T04:20	10.2	1015	-5.3	170	2	70
2026-02-04T04:21	10.1	1015	-5.4	170	2	70
2026-02-04T04:22	10.4	1015	-5.2	180	2	70
2026-02-04T04:23	10.6	1015	-5.4	200	2	70
2026-02-04T04:24	11.0	1015	-5.0	200	2	70
2026-02-04T04:25	11.1	1015	-5.0	210	2	70
2026-02-04T04:26	10.7	1015	-5.7	220	2	70
2026-02-04T04:27	11.0	1015	-5.0	230	2	70
2026-02-04T04:28	10.4	1015	-6.0	240	1	70
2026-02-04T04:29	10.4	1015	-6.0	250	1	70
2026-02-04T04:30	10.9	1015	-5.1	260	1	70
2026-02-04T04:31	11.2	1015	-5.3	270	1	70
2026-02-04T04:32	10.8	1015	-5.6	280	1	70
2026-02-04T04:33	10.4	1015	-6.0	290	1	70
2026-02-04T04:34	10.0	1015	-6.3	300	2	70
2026-02-04T04:35	10.4	1015	-6.0	300	2	70
2026-02-04T04:36	10.5	1015	-5.5	290	2	70
2026-02-04T04:37	10.4	1015	-6.0	280	2	70
2026-02-04T04:38	10.6	1015	-5.4	270	2	70
2026-02-04T04:39	10.5	1015	-5.9	260	2	70
2026-02-04T04:40	10.4	1015	-6.0	250	2	70
2026-02-04T04:41	10.7	1015	-5.3	240	2	70
2026-02-04T04:42	10.6	1015	-5.8	220	2	70
2026-02-04T04:43	10.3	1015	-6.1	220	2	70
2026-02-04T04:44	10.2	1015	-6.2	220	2	70
2026-02-04T04:45	10.2	1015	-6.2	220	2	70
2026-02-04T04:46	10.3	1015	-6.1	220	2	70
2026-02-04T04:47	10.3	1015	-6.1	230	2	70
2026-02-04T04:48	10.1	1015	-6.2	230	2	70
2026-02-04T04:49	10.3	1015	-5.7	240	1	70
2026-02-04T04:50	10.3	1015	-5.7	240	1	70
2026-02-04T04:51	10.4	1015	-5.6	240	1	70
2026-02-04T04:52	10.4	1015	-6.0	240	1	70
2026-02-04T04:53	10.8	1015	-5.6	240	1	70
2026-02-04T04:54	10.6	1015	-5.8	240	1	70
2026-02-04T04:55	10.5	1015	-5.9	230	1	70
2026-02-04T04:56	10.4	1015	-5.6	220	1	70
2026-02-04T04:57	10.6	1015	-5.4	210	2	70
2026-02-04T04:58	10.5	1015	-5.9	200	2	70
2026-02-04T04:59	10.5	1015	-5.5	210	2	70
2026-02-04T05:00	10.4	1015	-5.6	200	2	70
2026-02-04T05:01	11.0	1015	-5.0	200	2	70
2026-02-04T05:02	11.0	1015	-5.5	200	2	70
2026-02-04T05:03	11.0	1015	-5.5	190	2	70
2026-02-04T05:04	11.1	1015	-5.4	190	2	70
2026-02-04T05:05	10.5	1015	-6.3	190	2	70
2026-02-04T05:06	10.5	1015	-5.9	180	2	70
2026-02-04T05:07	10.5	1015	-5.9	180	2	70
2026-02-04T05:08	10.6	1015	-5.8	170	2	70
2026-02-04T05:09	10.7	1015	-6.2	170	1	70
2026-02-04T05:10	10.7	1015	-6.2	170	1	70
2026-02-04T05:11	10.5	1015	-6.3	160	1	70
2026-02-04T05:12	10.6	1015	-5.8	160	1	70
2026-02-04T05:13	10.8	1015	-5.6	170	1	70
2026-02-04T05:14	10.7	1015	-6.2	170	1	70
2026-02-04T05:15	10.9	1015	-6.0	180	1	70
2026-02-04T05:16	10.9	1015	-6.0	190	1	70
2026-02-04T05:17	10.8	1015	-6.1	200	1	70
2026-02-04T05:18	10.8	1015	-6.1	210	1	70
2026-02-04T05:19	10.9	1015	-6.0	210	1	70
2026-02-04T05:20	11.2	1015	-5.7	220	1	70
2026-02-04T05:21	10.8	1015	-6.5	230	1	70
2026-02-04T05:22	10.8	1015	-6.1	230	1	70
2026-02-04T05:23	10.8	1015	-6.1	230	1	70
2026-02-04T05:24	10.9	1015	-6.0	230	1	70
2026-02-04T05:25	11.1	1015	-5.8	220	1	70
2026-02-04T05:26	11.2	1015	-6.2	220	1	70
2026-02-04T05:27	11.1	1015	-6.2	220	2	70
2026-02-04T05:28	11.1	1015	-6.2	210	2	70
2026-02-04T05:29	11.0	1015	-6.3	210	2	70
2026-02-04T05:30	10.7	1015	-6.6	200	2	70
2026-02-04T05:31	11.3	1015	-5.6	200	2	70
2026-02-04T05:32	11.3	1015	-6.1	190	2	70
2026-02-04T05:33	11.0	1015	-6.3	200	2	70
2026-02-04T05:34	10.9	1015	-6.4	200	2	70
2026-02-04T05:35	10.7	1015	-6.6	210	2	70
2026-02-04T05:36	10.8	1015	-6.1	200	2	70
2026-02-04T05:37	11.0	1015	-5.9	200	2	70
2026-02-04T05:38	10.8	1015	-6.5	190	2	70
2026-02-04T05:39	10.5	1015	-6.8	180	2	70
2026-02-04T05:40	10.6	1015	-6.7	180	2	70
2026-02-04T05:41	10.5	1015	-6.8	180	1	70
2026-02-04T05:42	10.5	1015	-6.8	180	1	70
2026-02-04T05:43	10.6	1015	-6.2	180	1	70
2026-02-04T05:44	10.7	1015	-6.2	180	1	70
2026-02-04T05:45	10.8	1015	-6.1	170	1	70
2026-02-04T05:46	11.0	1015	-5.9	180	1	70
2026-02-04T05:47	10.9	1015	-6.0	180	1	70
2026-02-04T05:48	11.0	1015	-5.9	180	1	70
2026-02-04T05:49	11.0	1015	-5.9	190	1	70
2026-02-04T05:50	10.8	1015	-6.5	190	2	70
2026-02-04T05:51	10.9	1015	-6.0	180	2	70
2026-02-04T05:52	10.8	1015	-6.1	170	2	70
2026-02-04T05:53	11.1	1015	-5.8	160	2	70
2026-02-04T05:54	11.0	1015	-5.9	150	1	70
2026-02-04T05:55	11.1	1015	-5.8	160	1	70
2026-02-04T05:56	11.1	1015	-5.8	160	1	70
2026-02-04T05:57	11.2	1015	-5.7	160	1	70
2026-02-04T05:58	11.1	1015	-5.8	160	1	70
2026-02-04T05:59	10.8	1015	-6.1	160	1	70
2026-02-04T06:00	10.7	1015	-6.2	160	1	70
2026-02-04T06:01	10.6	1015	-6.2	160	1	70
2026-02-04T06:02	10.5	1015	-5.9	170	1	70
2026-02-04T06:03	10.7	1015	-5.7	180	1	70
2026-02-04T06:04	11.1	1015	-5.4	180	1	70
2026-02-04T06:05	11.2	1015	-5.7	170	1	70
2026-02-04T06:06	11.6	1015	-5.4	160	1	70
2026-02-04T06:07	11.3	1015	-5.6	150	1	70
2026-02-04T06:08	11.1	1015	-5.8	150	1	70
2026-02-04T06:09	10.9	1015	-6.0	140	1	70
2026-02-04T06:10	10.8	1015	-6.1	140	1	70
2026-02-04T06:11	10.8	1015	-5.6	150	1	70
2026-02-04T06:12	10.9	1015	-5.5	150	1	70
2026-02-04T06:13	10.8	1015	-6.1	160	1	70
2026-02-04T06:14	10.9	1015	-5.5	160	1	70
2026-02-04T06:15	11.0	1015	-5.5	170	1	70
2026-02-04T06:16	11.1	1015	-5.8	180	1	70
2026-02-04T06:17	10.9	1015	-6.0	200	1	70
2026-02-04T06:18	10.9	1015	-5.5	210	1	70
2026-02-04T06:19	10.8	1015	-5.6	220	1	70
2026-02-04T06:20	11.0	1015	-5.5	220	2	70
2026-02-04T06:21	10.8	1015	-5.6	220	2	70
2026-02-04T06:22	10.8	1015	-5.6	220	1	70
2026-02-04T06:23	10.6	1015	-5.8	210	1	70
2026-02-04T06:24	10.7	1015	-5.7	200	2	70
2026-02-04T06:25	10.6	1015	-5.8	200	2	70
2026-02-04T06:26	10.6	1015	-5.8	190	2	70
2026-02-04T06:27	10.6	1015	-5.8	180	1	70
2026-02-04T06:28	10.8	1015	-5.2	180	1	70
2026-02-04T06:29	10.9	1015	-5.5	190	1	70
2026-02-04T06:30	10.9	1015	-5.5	180	1	70
2026-02-04T06:31	11.0	1015	-5.5	180	1	70
2026-02-04T06:32	10.9	1015	-5.5	170	1	70
2026-02-04T06:33	10.9	1015	-5.5	170	1	70
2026-02-04T06:34	10.9	1015	-5.5	190	1	70
2026-02-04T06:35	10.8	1015	-5.6	200	2	70
2026-02-04T06:36	10.7	1015	-5.7	200	2	70
2026-02-04T06:37	10.6	1015	-5.8	200	1	70
2026-02-04T06:38	10.5	1015	-5.9	200	1	70
2026-02-04T06:39	10.4	1015	-6.0	200	1	70
2026-02-04T06:40	10.6	1015	-5.8	200	1	70
2026-02-04T06:41	10.7	1015	-5.7	200	2	70
2026-02-04T06:42	10.8	1015	-5.6	210	1	70
2026-02-04T06:43	10.6	1015	-5.8	210	1	70
2026-02-04T06:44	10.5	1015	-5.9	210	1	70
2026-02-04T06:45	10.6	1015	-5.8	200	1	70
2026-02-04T06:46	10.6	1015	-5.8	210	1	70
2026-02-04T06:47	10.6	1015	-5.4	210	1	70
2026-02-04T06:48	10.6	1015	-5.8	210	1	70
2026-02-04T06:49	10.8	1015	-5.6	210	1	70
2026-02-04T06:50	10.8	1015	-5.6	210	1	70
2026-02-04T06:51	10.8	1015	-5.6	210	1	70
2026-02-04T06:52	10.9	1015	-5.5	210	1	70
2026-02-04T06:53	10.7	1015	-5.7	210	1	70
2026-02-04T06:54	10.7	1015	-5.7	210	2	70
2026-02-04T06:55	10.6	1015	-5.8	210	2	70
2026-02-04T06:56	10.6	1015	-5.8	200	2	70
2026-02-04T06:57	10.5	1015	-5.9	200	2	70
2026-02-04T06:58	10.5	1015	-5.9	190	2	70
2026-02-04T06:59	10.6	1015	-5.4	180	1	70
2026-02-04T07:00	10.6	1015	-5.4	180	1	70
2026-02-04T07:01	10.5	1015	-5.5	160	1	70
2026-02-04T07:02	10.5	1015	-5.5	150	1	70
2026-02-04T07:03	10.4	1015	-5.6	140	1	70
2026-02-04T07:04	10.3	1015	-5.7	140	1	70
2026-02-04T07:05	10.4	1015	-5.6	130	1	70
2026-02-04T07:06	10.3	1015	-5.7	130	1	70
2026-02-04T07:07	10.3	1015	-5.7	120	1	70
2026-02-04T07:08	10.3	1015	-5.7	130	1	70
2026-02-04T07:09	10.3	1015	-5.2	140	1	70
2026-02-04T07:10	10.3	1015	-5.2	140	1	70
2026-02-04T07:11	10.3	1015	-5.2	140	1	70
2026-02-04T07:12	10.3	1015	-5.2	150	1	70
2026-02-04T07:13	10.3	1015	-5.2	150	1	70
2026-02-04T07:14	10.3	1015	-5.2	160	1	70
2026-02-04T07:15	10.3	1015	-5.2	170	1	70
2026-02-04T07:16	10.3	1015	-5.2	180	1	70
2026-02-04T07:17	10.3	1015	-5.2	180	1	70
2026-02-04T07:18	10.3	1015	-5.2	180	1	70
2026-02-04T07:19	10.3	1015	-5.2	170	1	70
2026-02-04T07:20	10.2	1015	-5.3	170	1	70
2026-02-04T07:21	10.2	1015	-5.3	180	1	70
2026-02-04T07:22	10.2	1015	-5.3	180	1	70
2026-02-04T07:23	10.1	1015	-5.4	180	1	70
2026-02-04T07:24	10.2	1015	-4.9	170	1	70
2026-02-04T07:25	10.2	1015	-4.9	160	1	70
2026-02-04T07:26	10.2	1015	-4.9	160	1	70
2026-02-04T07:27	10.2	1015	-4.9	160	1	70
2026-02-04T07:28	10.2	1015	-4.9	160	1	70
2026-02-04T07:29	10.1	1015	-5.0	150	1	70
2026-02-04T07:30	10.1	1015	-5.0	150	1	70
2026-02-04T07:31	10.0	1015	-5.1	150	1	70
2026-02-04T07:32	10.1	1015	-5.0	140	1	70
2026-02-04T07:33	9.9	1015	-4.8	130	1	70
2026-02-04T07:34	10.0	1015	-4.4	130	1	70
2026-02-04T07:35	10.0	1015	-4.4	130	1	70
2026-02-04T07:36	9.9	1015	-4.5	130	1	70
2026-02-04T07:37	9.6	1015	-4.7	120	1	70
2026-02-04T07:38	9.6	1015	-4.7	120	1	70
2026-02-04T07:39	9.7	1015	-4.3	110	1	70
2026-02-04T07:40	9.6	1015	-4.4	110	1	70
2026-02-04T07:41	9.7	1015	-3.9	110	1	70
2026-02-04T07:42	9.5	1015	-4.1	110	1	70
2026-02-04T07:43	9.6	1015	-4.0	110	1	70
2026-02-04T07:44	9.5	1015	-4.1	110	1	70
2026-02-04T07:45	9.6	1015	-3.7	100	1	70
2026-02-04T07:46	9.6	1015	-3.7	100	1	70
2026-02-04T07:47	9.3	1015	-3.9	100	1	70
2026-02-04T07:48	9.3	1015	-3.9	100	1	70
2026-02-04T07:49	9.3	1015	-3.9	100	1	70
2026-02-04T07:50	9.3	1015	-3.6	100	1	70
2026-02-04T07:51	9.2	1015	-3.7	110	1	70
2026-02-04T07:52	9.2	1015	-3.7	110	1	70
2026-02-04T07:53	9.1	1015	-3.8	120	1	70
2026-02-04T07:54	9.2	1015	-3.7	120	1	70
2026-02-04T07:55	9.0	1015	-3.9	120	1	70
2026-02-04T07:56	8.9	1015	-3.6	120	1	70
2026-02-04T07:57	8.8	1015	-3.7	120	1	70
2026-02-04T07:58	8.5	1015	-4.0	120	1	70
2026-02-04T07:59	8.8	1015	-3.4	120	1	70
2026-02-04T08:00	8.9	1015	-3.6	110	1	70
2026-02-04T08:01	8.7	1015	-3.8	110	1	70
2026-02-04T08:02	8.6	1015	-3.6	110	1	70
2026-02-04T08:03	8.6	1015	-3.6	100	1	70
2026-02-04T08:04	8.5	1015	-3.7	100	1	70
2026-02-04T08:05	8.7	1015	-3.5	100	1	70
2026-02-04T08:06	8.3	1015	-3.8	100	1	70
2026-02-04T08:07	8.3	1015	-3.5	100	1	70
2026-02-04T08:08	8.4	1015	-3.4	90	1	70
2026-02-04T08:09	8.3	1015	-3.5	90	1	70
2026-02-04T08:10	8.3	1015	-3.5	90	1	70
2026-02-04T08:11	7.7	1015	-3.8	90	1	70
2026-02-04T08:12	7.3	1015	-3.5	90	1	70
2026-02-04T08:13	7.6	1015	-3.3	90	1	70
2026-02-04T08:14	7.3	1015	-3.8	90	1	70
2026-02-04T08:15	7.5	1015	-3.4	90	1	70
2026-02-04T08:16	7.5	1015	-3.4	90	1	70
2026-02-04T08:17	6.8	1015	-4.0	90	1	70
2026-02-04T08:18	7.0	1015	-3.5	90	1	70
2026-02-04T08:19	7.1	1015	-3.4	90	1	70
2026-02-04T08:20	7.1	1015	-3.4	90	1	70
2026-02-04T08:21	6.3	1015	-4.2	90	1	70
2026-02-04T08:22	6.4	1015	-3.5	80	1	70
2026-02-04T08:23	6.7	1015	-3.0	80	1	70
2026-02-04T08:24	6.9	1015	-2.8	70	0	70
2026-02-04T08:25	6.6	1015	-3.3	70	0	70
2026-02-04T08:26	6.4	1015	-3.2	70	0	70
2026-02-04T08:27	6.3	1015	-3.3	60	0	70
2026-02-04T08:28	6.4	1015	-3.2	50	0	70
2026-02-04T08:29	6.4	1015	-3.0	40	0	70
2026-02-04T08:30	6.5	1015	-2.9	50	0	70
2026-02-04T08:31	6.6	1015	-2.8	50	0	70
2026-02-04T08:32	6.4	1015	-3.0	50	0	70
2026-02-04T08:33	6.6	1015	-3.1	60	0	70
2026-02-04T08:34	6.3	1015	-3.3	60	1	70
2026-02-04T08:35	6.1	1015	-3.3	70	1	70
2026-02-04T08:36	6.3	1015	-3.1	80	1	70
2026-02-04T08:37	6.0	1015	-3.1	90	1	70
2026-02-04T08:38	6.2	1015	-2.9	100	1	70
2026-02-04T08:39	6.2	1015	-2.9	100	1	70
2026-02-04T08:40	6.2	1015	-2.9	100	1	70
2026-02-04T08:41	6.1	1015	-3.0	100	1	70
2026-02-04T08:42	5.9	1015	-2.9	100	1	70
2026-02-04T08:43	5.6	1015	-3.2	90	0	70
2026-02-04T08:44	5.6	1015	-3.0	90	0	70
2026-02-04T08:45	5.5	1015	-3.1	0	0	70
2026-02-04T08:46	5.3	1015	-3.0	0	0	70
2026-02-04T08:47	5.3	1015	-3.0	0	0	70
2026-02-04T08:48	5.4	1015	-2.9	0	0	70
2026-02-04T08:49	5.4	1015	-2.9	0	0	70
2026-02-04T08:50	5.5	1015	-2.8	0	0	70
2026-02-04T08:51	4.9	1015	-3.4	0	0	70
2026-02-04T08:52	4.7	1015	-3.6	110	0	70
2026-02-04T08:53	5.1	1015	-2.9	120	0	70
2026-02-04T08:54	5.2	1015	-2.8	130	1	70
2026-02-04T08:55	5.3	1015	-2.8	140	1	70
2026-02-04T08:56	5.3	1015	-3.0	140	1	70
2026-02-04T08:57	5.2	1015	-3.1	150	1	70
2026-02-04T08:58	5.2	1015	-3.1	150	1	70
2026-02-04T08:59	5.3	1015	-3.0	140	1	70
2026-02-04T09:00	5.3	1015	-3.0	140	1	70
2026-02-04T09:01	5.0	1015	-3.3	130	1	70
2026-02-04T09:02	4.9	1015	-3.1	120	1	70
2026-02-04T09:03	4.9	1015	-3.1	110	0	70
2026-02-04T09:04	4.7	1015	-3.1	100	0	70
2026-02-04T09:05	4.7	1015	-3.1	80	0	70
2026-02-04T09:06	4.5	1015	-3.0	70	0	70
2026-02-04T09:07	4.7	1015	-2.8	0	0	70
2026-02-04T09:08	4.8	1015	-2.7	0	0	70
2026-02-04T09:09	4.8	1015	-2.7	0	0	70
2026-02-04T09:10	4.8	1015	-2.5	50	0	70
2026-02-04T09:11	4.6	1015	-2.7	0	0	70
2026-02-04T09:12	4.6	1015	-2.7	0	0	70
2026-02-04T09:13	4.7	1015	-2.6	0	0	70
2026-02-04T09:14	4.7	1015	-2.6	0	0	70
2026-02-04T09:15	4.5	1015	-3.0	0	0	70
2026-02-04T09:16	4.5	1015	-2.8	0	0	70
2026-02-04T09:17	4.2	1015	-3.1	0	0	70
2026-02-04T09:18	3.9	1015	-3.4	0	0	70
2026-02-04T09:19	3.8	1015	-3.0	0	0	70
2026-02-04T09:20	4.0	1015	-2.6	0	0	70
2026-02-04T09:21	4.4	1015	-2.2	0	0	70
2026-02-04T09:22	4.5	1015	-2.4	0	0	70
2026-02-04T09:23	4.6	1015	-2.3	0	0	70
2026-02-04T09:24	4.6	1015	-2.5	70	0	70
2026-02-04T09:25	4.5	1015	-2.4	80	0	70
2026-02-04T09:26	4.5	1015	-2.6	80	0	70
2026-02-04T09:27	4.6	1015	-2.5	90	0	70
2026-02-04T09:28	4.5	1015	-2.8	90	0	70
2026-02-04T09:29	4.5	1015	-2.8	100	1	70
2026-02-04T09:30	4.5	1015	-2.8	100	1	70
2026-02-04T09:31	4.4	1015	-2.7	110	1	70
2026-02-04T09:32	4.4	1015	-2.7	110	1	70
2026-02-04T09:33	4.5	1015	-2.4	110	1	70
2026-02-04T09:34	4.6	1015	-2.5	110	1	70
2026-02-04T09:35	4.4	1015	-2.4	120	1	70
2026-02-04T09:36	4.3	1015	-2.5	110	1	70
2026-02-04T09:37	4.3	1015	-2.3	110	1	70
2026-02-04T09:38	4.2	1015	-2.4	110	1	70
2026-02-04T09:39	4.2	1015	-2.4	110	0	70
2026-02-04T09:40	4.3	1015	-2.3	110	0	70
2026-02-04T09:41	4.1	1015	-2.5	110	0	70
2026-02-04T09:42	4.1	1015	-2.5	110	0	70
2026-02-04T09:43	4.2	1015	-2.4	0	0	70
2026-02-04T09:44	4.2	1015	-2.4	0	0	70
2026-02-04T09:45	4.1	1015	-2.5	0	0	70
2026-02-04T09:46	4.0	1015	-2.6	0	0	70
2026-02-04T09:47	4.1	1015	-2.5	0	0	70
2026-02-04T09:48	4.0	1015	-2.6	0	0	70
2026-02-04T09:49	4.1	1015	-2.5	0	0	70
2026-02-04T09:50	4.4	1015	-2.2	0	0	70
2026-02-04T09:51	4.3	1015	-2.5	0	0	70
2026-02-04T09:52	4.0	1015	-2.8	0	0	70
2026-02-04T09:53	3.9	1015	-2.7	0	0	70
2026-02-04T09:54	4.1	1015	-2.5	0	0	70
2026-02-04T09:55	4.1	1015	-2.5	0	0	70
2026-02-04T09:56	4.0	1015	-2.6	0	0	70
2026-02-04T09:57	4.0	1015	-2.4	0	0	70
2026-02-04T09:58	4.0	1015	-2.4	60	0	70
2026-02-04T09:59	4.2	1015	-2.4	60	0	70
2026-02-04T10:00	4.0	1015	-2.4	50	0	70
2026-02-04T10:01	4.2	1015	-2.4	50	0	70
2026-02-04T10:02	3.6	1015	-3.0	40	1	70
2026-02-04T10:03	3.6	1015	-2.8	40	1	70
2026-02-04T10:04	3.8	1015	-2.6	30	1	70
2026-02-04T10:05	3.8	1015	-2.6	30	1	70
2026-02-04T10:06	3.8	1015	-2.6	30	0	70
2026-02-04T10:07	3.8	1015	-2.6	20	0	70
2026-02-04T10:08	3.6	1015	-2.8	20	0	70
2026-02-04T10:09	3.8	1015	-2.4	20	0	70
2026-02-04T10:10	3.8	1015	-2.4	20	0	70
2026-02-04T10:11	3.6	1015	-2.6	20	0	70
2026-02-04T10:12	3.7	1015	-2.5	20	0	70
2026-02-04T10:13	3.9	1015	-2.3	20	0	70
2026-02-04T10:14	3.8	1015	-2.4	20	0	70
2026-02-04T10:15	3.9	1015	-2.5	20	0	70
2026-02-04T10:16	3.7	1015	-2.5	0	0	70
2026-02-04T10:17	3.7	1015	-2.5	0	0	70
2026-02-04T10:18	3.7	1015	-2.5	0	0	70
2026-02-04T10:19	3.5	1015	-2.7	0	0	70
2026-02-04T10:20	3.6	1015	-2.6	0	0	70
2026-02-04T10:21	3.6	1015	-2.6	0	0	70
2026-02-04T10:22	3.6	1015	-2.6	0	0	70
2026-02-04T10:23	3.7	1015	-2.5	0	0	70
2026-02-04T10:24	3.8	1015	-2.6	0	0	70
2026-02-04T10:25	3.9	1015	-2.5	0	0	70
2026-02-04T10:26	3.7	1015	-2.7	0	0	70
2026-02-04T10:27	3.8	1015	-2.6	0	0	70
2026-02-04T10:28	3.8	1015	-2.6	0	0	70
2026-02-04T10:29	4.0	1015	-2.4	0	0	70
2026-02-04T10:30	3.9	1015	-2.5	0	0	70
2026-02-04T10:31	3.8	1015	-2.8	0	0	70
2026-02-04T10:32	4.0	1015	-2.6	0	0	70
2026-02-04T10:33	4.0	1015	-2.6	0	0	70
2026-02-04T10:34	3.9	1015	-2.7	0	0	70
2026-02-04T10:35	3.7	1015	-2.9	0	0	70
2026-02-04T10:36	3.5	1015	-2.9	0	0	70
2026-02-04T10:37	3.7	1015	-2.7	0	0	70
2026-02-04T10:38	3.8	1015	-2.6	0	0	70
2026-02-04T10:39	3.6	1015	-2.8	0	0	70
2026-02-04T10:40	3.7	1015	-2.7	0	0	70
2026-02-04T10:41	3.7	1015	-2.7	0	0	70
2026-02-04T10:42	3.5	1015	-2.9	0	0	70
2026-02-04T10:43	3.3	1015	-3.1	0	0	70
2026-02-04T10:44	3.3	1015	-2.8	0	0	70
2026-02-04T10:45	3.2	1015	-2.9	0	0	70
2026-02-04T10:46	3.2	1015	-2.9	190	0	70
2026-02-04T10:47	3.3	1015	-2.8	200	0	70
2026-02-04T10:48	3.4	1015	-2.7	210	0	70
2026-02-04T10:49	3.3	1015	-2.8	220	0	70
2026-02-04T10:50	3.0	1015	-3.1	220	0	70
2026-02-04T10:51	3.2	1015	-2.7	230	0	70
2026-02-04T10:52	3.3	1015	-2.6	230	0	70
2026-02-04T10:53	3.2	1015	-2.9	230	0	70
2026-02-04T10:54	3.3	1015	-2.6	0	0	70
2026-02-04T10:55	3.3	1015	-2.6	0	0	70
2026-02-04T10:56	3.6	1015	-2.6	0	0	70
2026-02-04T10:57	3.8	1015	-2.4	0	0	70
2026-02-04T10:58	3.7	1015	-2.7	0	0	70
2026-02-04T10:59	3.7	1015	-2.7	0	0	70
2026-02-04T11:00	3.6	1015	-2.8	0	0	70
2026-02-04T11:01	3.3	1015	-3.1	0	0	70
2026-02-04T11:02	3.3	1015	-2.8	0	0	70
2026-02-04T11:03	3.3	1015	-2.8	0	0	70
2026-02-04T11:04	3.4	1015	-2.7	0	0	70
2026-02-04T11:05	3.6	1015	-2.6	0	0	70
2026-02-04T11:06	3.6	1015	-2.6	0	0	70
2026-02-04T11:07	3.7	1015	-2.5	0	0	70
2026-02-04T11:08	3.6	1015	-2.6	0	0	70
2026-02-04T11:09	3.5	1015	-2.7	0	0	70
2026-02-04T11:10	3.4	1015	-2.7	0	0	70
2026-02-04T11:11	3.4	1015	-2.7	0	0	70
2026-02-04T11:12	3.4	1015	-2.7	0	0	70
2026-02-04T11:13	3.4	1015	-2.5	0	0	70
2026-02-04T11:14	3.3	1015	-2.6	0	0	70
2026-02-04T11:15	3.3	1015	-2.6	0	0	70
2026-02-04T11:16	3.5	1015	-2.4	250	0	70
2026-02-04T11:17	3.5	1015	-2.4	250	0	70
2026-02-04T11:18	3.2	1015	-2.7	250	0	70
2026-02-04T11:19	3.2	1015	-2.7	250	0	70
2026-02-04T11:20	3.2	1015	-2.7	250	1	70
2026-02-04T11:21	3.3	1015	-2.6	240	1	70
2026-02-04T11:22	3.3	1015	-2.6	240	1	70
2026-02-04T11:23	3.3	1015	-2.6	240	1	70
2026-02-04T11:24	3.2	1015	-2.7	240	1	70
2026-02-04T11:25	3.0	1015	-2.9	240	1	70
2026-02-04T11:26	3.1	1015	-2.6	240	1	70
2026-02-04T11:27	3.2	1015	-2.5	240	1	70
2026-02-04T11:28	3.4	1015	-2.3	240	1	70
2026-02-04T11:29	3.4	1015	-2.3	240	0	70
2026-02-04T11:30	3.5	1015	-2.4	240	0	70
2026-02-04T11:31	3.3	1015	-2.6	240	0	70
2026-02-04T11:32	3.4	1015	-2.3	240	0	70
2026-02-04T11:33	3.4	1015	-2.3	0	0	70
2026-02-04T11:34	3.2	1015	-2.5	0	0	70
2026-02-04T11:35	3.2	1015	-2.3	0	0	70
2026-02-04T11:36	3.2	1015	-2.3	0	0	70
2026-02-04T11:37	3.2	1015	-2.3	90	0	70
2026-02-04T11:38	3.1	1015	-2.4	70	0	70
2026-02-04T11:39	3.2	1015	-2.1	60	0	70
2026-02-04T11:40	3.4	1015	-1.9	70	1	70
2026-02-04T11:41	3.6	1015	-1.7	60	1	70
2026-02-04T11:42	3.8	1015	-1.8	50	1	70
2026-02-04T11:43	4.1	1015	-1.9	50	1	70
2026-02-04T11:44	4.1	1015	-2.1	50	1	70
2026-02-04T11:45	4.0	1015	-2.2	50	1	70
2026-02-04T11:46	4.0	1015	-2.2	50	1	70
2026-02-04T11:47	4.1	1015	-2.3	40	1	70
2026-02-04T11:48	3.9	1015	-2.5	40	1	70
2026-02-04T11:49	3.7	1015	-2.5	30	1	70
2026-02-04T11:50	3.6	1015	-2.4	30	1	70
2026-02-04T11:51	3.6	1015	-2.4	30	1	70
2026-02-04T11:52	3.7	1015	-2.3	30	1	70
2026-02-04T11:53	3.6	1015	-2.4	20	1	70
2026-02-04T11:54	3.8	1015	-2.2	20	1	70
2026-02-04T11:55	3.8	1015	-2.4	20	1	70
2026-02-04T11:56	4.0	1015	-2.4	20	1	70
2026-02-04T11:57	3.8	1015	-2.4	10	1	70
2026-02-04T11:58	3.5	1015	-2.7	10	1	70
2026-02-04T11:59	3.4	1015	-2.5	10	1	70
2026-02-04T12:00	3.5	1015	-2.4	10	1	70
2026-02-04T12:01	3.5	1015	-2.4	10	1	70
2026-02-04T12:02	3.5	1015	-2.4	10	1	70
2026-02-04T12:03	3.3	1015	-2.6	10	1	70
2026-02-04T12:04	3.6	1015	-2.4	10	1	70
2026-02-04T12:05	3.4	1015	-2.5	10	1	70
2026-02-04T12:06	3.6	1015	-2.4	20	1	70
2026-02-04T12:07	3.5	1015	-2.4	20	1	70
2026-02-04T12:08	3.4	1015	-2.5	20	0	70
2026-02-04T12:09	3.4	1015	-2.3	30	0	70
2026-02-04T12:10	3.5	1015	-2.4	30	0	70
2026-02-04T12:11	3.6	1015	-2.4	30	0	70
2026-02-04T12:12	3.6	1015	-2.4	30	0	70
2026-02-04T12:13	3.6	1015	-2.6	30	0	70
2026-02-04T12:14	3.4	1015	-2.7	30	0	70
2026-02-04T12:15	3.3	1015	-2.6	30	0	70
2026-02-04T12:16	3.4	1015	-2.5	30	0	70
2026-02-04T12:17	3.4	1015	-2.5	30	1	70
2026-02-04T12:18	3.6	1015	-2.6	30	1	70
2026-02-04T12:19	3.8	1015	-2.6	30	0	70
2026-02-04T12:20	3.8	1015	-2.6	30	0	70
2026-02-04T12:21	3.8	1015	-2.6	30	0	70
2026-02-04T12:22	3.5	1015	-2.9	30	0	70
2026-02-04T12:23	3.4	1015	-2.7	0	0	70
2026-02-04T12:24	3.4	1015	-2.5	0	0	70
2026-02-04T12:25	3.4	1015	-2.5	0	0	70
2026-02-04T12:26	3.3	1015	-2.6	0	0	70
2026-02-04T12:27	3.4	1015	-2.5	0	0	70
2026-02-04T12:28	3.3	1015	-2.8	0	0	70
2026-02-04T12:29	3.6	1015	-2.6	0	0	70
2026-02-04T12:30	3.5	1015	-2.7	0	0	70
2026-02-04T12:31	3.4	1015	-2.7	0	0	70
2026-02-04T12:32	3.5	1015	-2.4	0	0	70
2026-02-04T12:33	3.3	1015	-2.6	0	0	70
2026-02-04T12:34	3.3	1015	-2.4	0	0	70
2026-02-04T12:35	3.5	1015	-2.4	0	0	70
2026-02-04T12:36	3.5	1015	-2.4	90	0	70
2026-02-04T12:37	3.4	1015	-2.7	110	0	70
2026-02-04T12:38	3.4	1015	-2.5	130	0	70
2026-02-04T12:39	3.4	1015	-2.5	140	0	70
2026-02-04T12:40	3.4	1015	-2.5	150	0	70
2026-02-04T12:41	3.4	1015	-2.5	150	0	70
2026-02-04T12:42	3.3	1015	-2.6	150	0	70
2026-02-04T12:43	3.4	1015	-2.5	150	0	70
2026-02-04T12:44	3.5	1015	-2.4	150	0	70
2026-02-04T12:45	3.3	1015	-2.6	160	0	70
2026-02-04T12:46	3.1	1015	-2.8	160	1	70
2026-02-04T12:47	3.1	1015	-2.6	160	1	70
2026-02-04T12:48	3.3	1015	-2.2	160	1	70
2026-02-04T12:49	3.4	1015	-2.1	150	1	70
2026-02-04T12:50	3.4	1015	-2.1	150	1	70
2026-02-04T12:51	3.2	1015	-2.3	150	1	70
2026-02-04T12:52	3.3	1015	-2.2	150	1	70
2026-02-04T12:53	3.3	1015	-2.2	150	0	70
2026-02-04T12:54	3.2	1015	-2.3	140	0	70
2026-02-04T12:55	3.2	1015	-2.3	140	0	70
2026-02-04T12:56	3.2	1015	-2.3	0	0	70
2026-02-04T12:57	3.2	1015	-2.3	0	0	70
2026-02-04T12:58	3.2	1015	-2.3	0	0	70
2026-02-04T12:59	3.2	1015	-2.5	0	0	70
2026-02-04T13:00	3.1	1015	-2.4	0	0	70
2026-02-04T13:01	3.2	1015	-2.3	0	0	70
2026-02-04T13:02	3.0	1015	-2.5	0	0	70
2026-02-04T13:03	2.9	1015	-2.6	0	0	70
2026-02-04T13:04	2.9	1015	-2.6	0	0	70
2026-02-04T13:05	2.9	1015	-2.6	0	0	70
2026-02-04T13:06	3.0	1015	-2.3	0	0	70
2026-02-04T13:07	2.9	1015	-2.4	0	0	70
2026-02-04T13:08	2.9	1015	-2.4	0	0	70
2026-02-04T13:09	3.0	1015	-2.3	0	0	70
2026-02-04T13:10	3.1	1015	-2.4	0	0	70
2026-02-04T13:11	2.8	1015	-2.7	0	0	70
2026-02-04T13:12	2.7	1015	-2.6	0	0	70
2026-02-04T13:13	2.7	1015	-2.6	0	0	70
2026-02-04T13:14	2.8	1015	-2.5	0	0	70
2026-02-04T13:15	2.9	1015	-2.4	0	0	70
2026-02-04T13:16	2.9	1015	-2.4	0	0	70
2026-02-04T13:17	2.9	1015	-2.4	0	0	70
2026-02-04T13:18	2.8	1015	-2.5	0	0	70
2026-02-04T13:19	2.8	1015	-2.7	0	0	70
2026-02-04T13:20	2.9	1015	-2.6	0	0	70
2026-02-04T13:21	2.9	1015	-2.6	0	0	70
2026-02-04T13:22	2.9	1015	-2.6	0	0	70
2026-02-04T13:23	2.8	1015	-2.7	0	0	70
2026-02-04T13:24	2.8	1015	-2.7	0	0	70
2026-02-04T13:25	3.0	1015	-2.5	0	0	70
2026-02-04T13:26	3.0	1015	-2.5	0	0	70
2026-02-04T13:27	3.0	1015	-2.5	0	0	70
2026-02-04T13:28	2.8	1015	-2.7	0	0	70
2026-02-04T13:29	2.9	1015	-2.6	0	0	70
2026-02-04T13:30	2.8	1015	-2.7	0	0	70
2026-02-04T13:31	2.7	1015	-2.8	0	0	70
2026-02-04T13:32	2.8	1015	-2.7	0	0	70
2026-02-04T13:33	2.9	1015	-2.4	0	0	70
2026-02-04T13:34	2.9	1015	-2.6	0	0	70
2026-02-04T13:35	2.9	1015	-2.6	0	0	70
2026-02-04T13:36	2.7	1015	-2.8	0	0	70
2026-02-04T13:37	2.7	1015	-2.8	0	0	70
2026-02-04T13:38	2.8	1015	-2.7	0	0	70
2026-02-04T13:39	2.8	1015	-2.5	0	0	70
2026-02-04T13:40	2.8	1015	-2.5	0	0	70
2026-02-04T13:41	2.4	1015	-2.9	0	0	70
2026-02-04T13:42	2.6	1015	-2.7	0	0	70
2026-02-04T13:43	2.7	1015	-2.6	0	0	70
2026-02-04T13:44	2.8	1015	-2.5	0	0	70
2026-02-04T13:45	2.8	1015	-2.5	0	0	70
2026-02-04T13:46	2.8	1015	-2.5	0	0	70
2026-02-04T13:47	2.8	1015	-2.5	0	0	70
2026-02-04T13:48	2.7	1015	-2.6	0	0	70
2026-02-04T13:49	2.7	1015	-2.4	0	0	70
2026-02-04T13:50	2.8	1015	-2.3	0	0	70
2026-02-04T13:51	2.9	1015	-2.4	0	0	70
2026-02-04T13:52	3.0	1015	-2.3	0	0	70
2026-02-04T13:53	2.9	1015	-2.6	0	0	70
2026-02-04T13:54	2.9	1015	-2.6	0	0	70
2026-02-04T13:55	2.8	1015	-2.7	0	0	70
2026-02-04T13:56	2.8	1015	-2.5	0	0	70
2026-02-04T13:57	2.8	1015	-2.5	0	0	70
2026-02-04T13:58	2.8	1015	-2.3	0	0	70
2026-02-04T13:59	2.8	1015	-2.3	0	0	70
2026-02-04T14:00	2.8	1015	-2.3	0	0	70
2026-02-04T14:01	2.9	1015	-2.2	0	0	70
2026-02-04T14:02	2.9	1015	-2.2	0	0	70
2026-02-04T14:03	2.7	1015	-2.4	0	0	70
2026-02-04T14:04	2.8	1015	-2.3	130	0	70
2026-02-04T14:05	2.9	1015	-2.2	130	0	70
2026-02-04T14:06	2.9	1015	-2.2	130	1	70
2026-02-04T14:07	2.9	1015	-2.2	130	1	70
2026-02-04T14:08	2.7	1015	-2.4	130	1	70
2026-02-04T14:09	2.5	1015	-2.6	130	1	70
2026-02-04T14:10	2.6	1015	-2.3	130	1	70
2026-02-04T14:11	2.6	1015	-2.3	130	0	70
2026-02-04T14:12	2.7	1015	-2.2	130	0	70
2026-02-04T14:13	2.6	1015	-2.5	130	0	70
2026-02-04T14:14	2.6	1015	-2.3	0	0	70
2026-02-04T14:15	2.7	1015	-2.2	0	0	70
2026-02-04T14:16	2.6	1015	-2.3	0	0	70
2026-02-04T14:17	2.6	1015	-2.3	0	0	70
2026-02-04T14:18	2.7	1015	-2.2	0	0	70
2026-02-04T14:19	2.8	1015	-2.1	0	0	70
2026-02-04T14:20	2.9	1015	-2.0	0	0	70
2026-02-04T14:21	3.0	1015	-2.1	130	0	70
2026-02-04T14:22	2.8	1015	-2.3	130	0	70
2026-02-04T14:23	2.7	1015	-2.4	130	0	70
2026-02-04T14:24	2.4	1015	-2.5	130	0	70
2026-02-04T14:25	2.6	1015	-2.3	130	0	70
2026-02-04T14:26	2.9	1015	-2.0	130	1	70
2026-02-04T14:27	3.0	1015	-1.9	130	0	70
2026-02-04T14:28	3.0	1015	-1.9	130	0	70
2026-02-04T14:29	2.9	1015	-2.2	130	0	70
2026-02-04T14:30	2.9	1015	-2.2	130	0	70
2026-02-04T14:31	2.9	1015	-2.2	130	0	70
2026-02-04T14:32	2.8	1015	-2.3	130	1	70
2026-02-04T14:33	2.7	1015	-2.4	130	1	70
2026-02-04T14:34	2.5	1015	-2.4	130	1	70
2026-02-04T14:35	2.5	1015	-2.4	130	1	70
2026-02-04T14:36	2.5	1015	-2.2	130	1	70
2026-02-04T14:37	2.5	1015	-2.2	130	0	70
2026-02-04T14:38	2.5	1015	-2.2	130	0	70
2026-02-04T14:39	2.5	1015	-2.2	130	0	70
2026-02-04T14:40	2.5	1015	-2.0	130	0	70
2026-02-04T14:41	2.5	1015	-2.0	0	0	70
2026-02-04T14:42	2.5	1015	-1.8	0	0	70
2026-02-04T14:43	2.5	1015	-1.8	0	0	70
2026-02-04T14:44	2.5	1015	-1.8	0	0	70
2026-02-04T14:45	2.6	1015	-1.7	0	0	70
2026-02-04T14:46	2.7	1015	-1.8	0	0	70
2026-02-04T14:47	2.8	1015	-1.9	0	0	70
2026-02-04T14:48	2.7	1015	-2.0	0	0	70
2026-02-04T14:49	2.6	1015	-2.1	0	0	70
2026-02-04T14:50	2.5	1015	-2.2	0	0	70
2026-02-04T14:51	2.5	1015	-2.2	0	0	70
2026-02-04T14:52	2.6	1015	-2.1	0	0	70
2026-02-04T14:53	2.6	1015	-1.9	0	0	70
2026-02-04T14:54	2.6	1015	-1.9	0	0	70
2026-02-04T14:55	2.8	1015	-1.9	0	0	70
2026-02-04T14:56	2.8	1015	-1.9	0	0	70
2026-02-04T14:57	2.7	1015	-2.0	0	0	70
2026-02-04T14:58	2.6	1015	-2.1	130	0	70
2026-02-04T14:59	2.6	1015	-2.1	130	0	70
2026-02-04T15:00	2.5	1015	-2.2	140	0	70
2026-02-04T15:01	2.4	1015	-2.1	140	0	70
2026-02-04T15:02	2.4	1015	-1.9	150	0	70
2026-02-04T15:03	2.4	1015	-1.9	160	0	70
2026-02-04T15:04	2.3	1015	-2.0	170	0	70
2026-02-04T15:05	2.3	1015	-2.0	180	0	70
2026-02-04T15:06	2.5	1015	-2.0	210	0	70
2026-02-04T15:07	2.3	1015	-2.0	240	0	70
2026-02-04T15:08	2.1	1015	-2.2	260	0	70
2026-02-04T15:09	2.2	1015	-2.1	280	0	70
2026-02-04T15:10	2.3	1015	-2.0	290	1	70
2026-02-04T15:11	2.3	1015	-2.0	300	1	70
2026-02-04T15:12	2.3	1015	-2.0	310	1	70
2026-02-04T15:13	2.3	1015	-2.0	310	1	70
2026-02-04T15:14	2.2	1015	-2.3	310	1	70
2026-02-04T15:15	2.2	1015	-2.3	310	1	70
2026-02-04T15:16	2.3	1015	-2.2	310	1	70
2026-02-04T15:17	2.4	1015	-2.1	310	1	70
2026-02-04T15:18	2.4	1015	-2.1	310	1	70
2026-02-04T15:19	2.4	1015	-2.1	310	0	70
2026-02-04T15:20	2.4	1015	-2.1	310	0	70
2026-02-04T15:21	2.2	1015	-2.3	310	0	70
2026-02-04T15:22	2.4	1015	-1.9	310	0	70
2026-02-04T15:23	2.4	1015	-1.9	0	0	70
2026-02-04T15:24	2.2	1015	-2.1	0	0	70
2026-02-04T15:25	2.2	1015	-2.1	0	0	70
2026-02-04T15:26	2.1	1015	-2.2	0	0	70
2026-02-04T15:27	2.2	1015	-2.1	0	0	70
2026-02-04T15:28	2.1	1015	-2.2	290	0	70
2026-02-04T15:29	2.1	1015	-2.2	290	0	70
2026-02-04T15:30	1.9	1015	-2.4	290	0	70
2026-02-04T15:31	1.9	1015	-2.4	290	0	70
2026-02-04T15:32	2.0	1015	-2.1	290	0	70
2026-02-04T15:33	2.0	1015	-2.1	300	0	70
2026-02-04T15:34	2.2	1015	-2.1	300	1	70
2026-02-04T15:35	2.1	1015	-2.2	300	1	70
2026-02-04T15:36	1.8	1015	-2.5	310	0	70
2026-02-04T15:37	1.7	1015	-2.4	310	0	70
2026-02-04T15:38	1.8	1015	-2.3	320	0	70
2026-02-04T15:39	1.9	1015	-2.1	310	0	70
2026-02-04T15:40	1.7	1015	-2.4	310	0	70
2026-02-04T15:41	1.7	1015	-2.2	310	0	70
2026-02-04T15:42	1.7	1015	-2.2	310	0	70
2026-02-04T15:43	1.6	1015	-2.3	300	0	70
2026-02-04T15:44	1.7	1015	-2.1	290	0	70
2026-02-04T15:45	1.6	1015	-2.2	280	1	70
2026-02-04T15:46	1.5	1015	-2.3	270	1	70
2026-02-04T15:47	1.4	1015	-2.4	260	1	70
2026-02-04T15:48	1.6	1015	-2.0	260	1	70
2026-02-04T15:49	1.6	1015	-2.2	260	1	70
2026-02-04T15:50	1.6	1015	-2.2	250	1	70
2026-02-04T15:51	1.7	1015	-2.1	250	1	70
2026-02-04T15:52	1.7	1015	-2.1	250	1	70
2026-02-04T15:53	1.6	1015	-2.2	250	1	70
2026-02-04T15:54	1.7	1015	-2.1	250	1	70
2026-02-04T15:55	1.8	1015	-2.0	240	1	70
2026-02-04T15:56	1.8	1015	-2.0	250	1	70
2026-02-04T15:57	1.7	1015	-2.2	250	1	70
2026-02-04T15:58	1.7	1015	-2.1	250	1	70
2026-02-04T15:59	1.4	1015	-2.5	250	1	70
2026-02-04T16:00	1.4	1015	-2.4	250	1	70
2026-02-04T16:01	1.5	1015	-2.3	260	1	70
2026-02-04T16:02	1.6	1015	-2.0	260	1	70
2026-02-04T16:03	1.6	1015	-2.0	270	1	70
2026-02-04T16:04	1.6	1015	-2.2	270	1	70
2026-02-04T16:05	1.6	1015	-2.2	280	1	70
2026-02-04T16:06	1.6	1015	-2.2	280	1	70
2026-02-04T16:07	1.4	1015	-2.4	280	1	70
2026-02-04T16:08	1.6	1015	-2.2	280	1	70
2026-02-04T16:09	1.3	1015	-2.5	280	1	70
2026-02-04T16:10	1.4	1015	-2.2	280	1	70
2026-02-04T16:11	1.4	1015	-2.2	280	1	70
2026-02-04T16:12	1.5	1015	-2.1	280	1	70
2026-02-04T16:13	1.6	1015	-2.2	280	1	70
2026-02-04T16:14	1.6	1015	-2.3	270	1	70
2026-02-04T16:15	1.7	1015	-2.4	270	1	70
2026-02-04T16:16	1.7	1015	-2.4	270	1	70
2026-02-04T16:17	1.6	1015	-2.5	270	1	70
2026-02-04T16:18	1.6	1015	-2.5	260	1	70
2026-02-04T16:19	1.6	1015	-2.5	260	1	70
2026-02-04T16:20	1.4	1015	-2.7	260	1	70
2026-02-04T16:21	1.5	1015	-2.6	260	1	70
2026-02-04T16:22	1.4	1015	-2.7	270	1	70
2026-02-04T16:23	1.5	1015	-2.6	270	1	70
2026-02-04T16:24	1.2	1015	-2.9	280	1	70
2026-02-04T16:25	1.3	1015	-2.6	280	1	70
2026-02-04T16:26	1.3	1015	-2.6	290	1	70
2026-02-04T16:27	1.5	1015	-2.4	290	1	70
2026-02-04T16:28	1.5	1015	-2.6	300	1	70
2026-02-04T16:29	1.3	1015	-2.8	300	1	70
2026-02-04T16:30	0.9	1015	-3.0	300	1	70
2026-02-04T16:31	1.1	1015	-2.8	300	1	70
2026-02-04T16:32	1.0	1015	-2.7	290	1	70
2026-02-04T16:33	0.9	1015	-2.8	290	1	70
2026-02-04T16:34	0.6	1015	-3.0	290	1	70
2026-02-04T16:35	0.7	1015	-2.9	280	1	70
2026-02-04T16:36	0.6	1015	-3.0	280	1	70
2026-02-04T16:37	0.7	1015	-2.7	270	1	70
2026-02-04T16:38	0.8	1015	-2.6	270	1	70
2026-02-04T16:39	0.9	1015	-2.7	270	1	70
2026-02-04T16:40	0.5	1015	-3.0	260	1	70
2026-02-04T16:41	0.6	1015	-2.8	260	1	70
2026-02-04T16:42	0.7	1015	-2.7	260	1	70
2026-02-04T16:43	0.8	1015	-2.6	250	1	70
2026-02-04T16:44	0.8	1015	-2.6	250	1	70
2026-02-04T16:45	0.8	1015	-2.8	250	1	70
2026-02-04T16:46	0.7	1015	-2.9	240	1	70
2026-02-04T16:47	0.7	1015	-2.9	240	1	70
2026-02-04T16:48	0.4	1015	-3.3	240	1	70
2026-02-04T16:49	0.3	1015	-3.2	230	1	70
2026-02-04T16:50	0.3	1015	-3.2	230	1	70
2026-02-04T16:51	0.1	1015	-3.4	220	1	70
2026-02-04T16:52	0.1	1015	-3.4	220	1	70
2026-02-04T16:53	0.1	1015	-3.4	210	1	70
2026-02-04T16:54	0.1	1015	-3.4	210	1	70
2026-02-04T16:55	0.3	1015	-3.2	210	1	70
2026-02-04T16:56	0.5	1014	-3.0	210	1	70
2026-02-04T16:57	0.6	1014	-2.8	210	1	70
2026-02-04T16:58	0.6	1014	-3.0	220	1	70
2026-02-04T16:59	0.6	1014	-3.0	220	1	70
2026-02-04T17:00	0.7	1014	-2.9	230	1	70
2026-02-04T17:01	0.4	1014	-3.1	230	0	70
2026-02-04T17:02	0.3	1014	-3.1	240	0	70
2026-02-04T17:03	0.2	1014	-3.0	250	0	70
2026-02-04T17:04	0.2	1014	-3.0	0	0	70
2026-02-04T17:05	0.0	1014	-3.0	0	0	70
2026-02-04T17:06	0.3	1014	-2.7	0	0	70
2026-02-04T17:07	0.5	1014	-2.5	0	0	69
2026-02-04T17:08	0.4	1014	-2.8	0	0	70
2026-02-04T17:09	0.4	1014	-3.0	0	0	69
2026-02-04T17:10	0.5	1014	-2.7	0	0	70
2026-02-04T17:11	0.6	1014	-2.8	0	0	70
2026-02-04T17:12	0.5	1014	-2.9	0	0	70
2026-02-04T17:13	0.1	1014	-3.4	0	0	70
2026-02-04T17:14	-0.2	1014	-3.6	0	0	70
2026-02-04T17:15	0.0	1014	-3.2	0	0	69
2026-02-04T17:16	0.2	1014	-2.8	0	0	69
2026-02-04T17:17	0.3	1014	-2.7	0	0	70
2026-02-04T17:18	0.3	1014	-2.9	0	0	70
2026-02-04T17:19	0.2	1014	-3.0	190	0	69
2026-02-04T17:20	0.0	1014	-3.2	360	0	69
2026-02-04T17:21	0.0	1014	-3.2	360	0	69
2026-02-04T17:22	0.1	1014	-3.1	360	0	68
2026-02-04T17:23	0.2	1014	-3.0	10	0	68
2026-02-04T17:24	0.0	1014	-3.4	360	0	68
2026-02-04T17:25	-0.2	1014	-3.6	360	0	68
2026-02-04T17:26	-0.1	1014	-3.3	360	0	68
2026-02-04T17:27	0.0	1014	-3.2	360	0	67
2026-02-04T17:28	0.0	1014	-3.2	360	0	67
2026-02-04T17:29	-0.2	1014	-3.4	360	0	67
2026-02-04T17:30	-0.2	1014	-3.4	360	0	67
2026-02-04T17:31	-0.3	1014	-3.5	360	0	67
2026-02-04T17:32	-0.3	1014	-3.5	0	0	67
2026-02-04T17:33	-0.2	1014	-3.2	0	0	67
2026-02-04T17:34	-0.3	1014	-3.3	0	0	67
2026-02-04T17:35	-0.4	1014	-3.4	0	0	66
2026-02-04T17:36	-0.3	1014	-3.3	0	0	67
2026-02-04T17:37	-0.3	1014	-3.3	0	0	67
2026-02-04T17:38	-0.3	1014	-3.3	0	0	67
2026-02-04T17:39	-0.6	1014	-3.6	0	0	66
2026-02-04T17:40	-0.6	1014	-3.6	0	0	66
2026-02-04T17:41	-0.6	1014	-3.4	0	0	66
2026-02-04T17:42	-0.9	1014	-3.7	0	0	66
2026-02-04T17:43	-0.8	1014	-3.6	300	0	67
2026-02-04T17:44	-0.8	1014	-3.6	300	0	67
2026-02-04T17:45	-0.8	1014	-3.5	290	0	67
2026-02-04T17:46	-0.8	1014	-3.5	280	0	67
2026-02-04T17:47	-0.7	1014	-3.4	280	1	67
2026-02-04T17:48	-0.5	1014	-3.2	270	1	67
2026-02-04T17:49	-0.5	1014	-3.2	260	1	67
2026-02-04T17:50	-0.6	1014	-3.4	250	1	67
2026-02-04T17:51	-0.9	1014	-3.7	250	1	67
2026-02-04T17:52	-0.7	1014	-3.5	250	1	67
2026-02-04T17:53	-0.6	1014	-3.3	250	1	67
2026-02-04T17:54	-0.8	1014	-3.5	250	1	67
2026-02-04T17:55	-1.0	1014	-3.7	250	1	67
2026-02-04T17:56	-0.8	1014	-3.5	260	1	67
2026-02-04T17:57	-0.7	1014	-3.4	260	1	67
2026-02-04T17:58	-0.8	1014	-3.5	260	1	66
2026-02-04T17:59	-0.8	1014	-3.5	270	1	66
2026-02-04T18:00	-0.8	1014	-3.5	270	1	66
2026-02-04T18:01	-0.9	1014	-3.6	270	1	66
2026-02-04T18:02	-0.9	1014	-3.6	270	1	66
2026-02-04T18:03	-1.0	1014	-3.5	270	1	66
2026-02-04T18:04	-0.8	1014	-3.3	270	1	66
2026-02-04T18:05	-0.7	1014	-3.2	270	1	65
2026-02-04T18:06	-0.5	1014	-3.0	280	1	65
2026-02-04T18:07	-0.6	1014	-3.1	280	1	65
2026-02-04T18:08	-0.5	1014	-3.2	280	1	65
2026-02-04T18:09	-0.7	1014	-3.4	280	1	65
2026-02-04T18:10	-0.9	1014	-3.6	290	1	65
2026-02-04T18:11	-1.0	1014	-3.7	290	1	66
2026-02-04T18:12	-0.8	1014	-3.5	290	1	66
2026-02-04T18:13	-0.9	1014	-3.6	300	1	66
2026-02-04T18:14	-0.6	1014	-3.3	300	1	66
2026-02-04T18:15	-0.8	1014	-3.5	300	1	66
2026-02-04T18:16	-0.7	1014	-3.4	300	1	66
2026-02-04T18:17	-0.8	1014	-3.5	310	1	66
2026-02-04T18:18	-1.0	1014	-3.5	310	1	66
2026-02-04T18:19	-1.2	1014	-3.7	320	1	65
2026-02-04T18:20	-1.1	1014	-3.4	320	1	65
2026-02-04T18:21	-0.9	1014	-3.1	320	1	65
2026-02-04T18:22	-0.9	1014	-3.2	320	1	65
2026-02-04T18:23	-0.6	1014	-2.8	320	1	64
2026-02-04T18:24	-0.3	1014	-2.5	320	1	64
2026-02-04T18:25	-0.3	1014	-2.7	320	1	64
2026-02-04T18:26	-0.5	1014	-3.0	320	1	64
2026-02-04T18:27	-0.6	1014	-3.1	310	1	64
2026-02-04T18:28	-0.7	1014	-3.4	310	1	64
2026-02-04T18:29	-0.8	1014	-3.6	300	1	64
2026-02-04T18:30	-0.7	1014	-3.4	300	1	64
2026-02-04T18:31	-0.5	1014	-3.2	300	1	64
2026-02-04T18:32	-0.8	1014	-3.6	290	1	64
2026-02-04T18:33	-0.2	1014	-2.9	290	1	64
2026-02-04T18:34	-0.5	1014	-3.2	290	1	64
2026-02-04T18:35	-0.5	1014	-3.3	280	1	64
2026-02-04T18:36	-0.5	1014	-3.3	280	1	63
2026-02-04T18:37	-0.5	1014	-3.3	270	1	63
2026-02-04T18:38	-0.7	1014	-3.7	270	1	63
2026-02-04T18:39	-0.4	1014	-3.2	270	1	63
2026-02-04T18:40	-0.1	1014	-3.0	260	1	62
2026-02-04T18:41	0.3	1014	-2.6	250	1	62
2026-02-04T18:42	0.1	1014	-3.1	250	1	62
2026-02-04T18:43	0.2	1014	-3.0	240	1	61
2026-02-04T18:44	-0.1	1014	-3.3	240	1	61
2026-02-04T18:45	0.1	1014	-3.1	240	1	61
2026-02-04T18:46	0.0	1014	-3.2	240	1	61
2026-02-04T18:47	-0.2	1014	-3.2	240	1	60
2026-02-04T18:48	-0.1	1014	-3.1	250	1	60
2026-02-04T18:49	-0.2	1014	-3.2	250	1	60
2026-02-04T18:50	-0.1	1014	-3.1	250	1	60
2026-02-04T18:51	0.3	1014	-2.7	250	1	61
2026-02-04T18:52	0.1	1014	-3.1	250	1	61
2026-02-04T18:53	-0.3	1014	-3.5	260	1	61
2026-02-04T18:54	-0.2	1014	-3.2	260	1	61
2026-02-04T18:55	-0.1	1014	-3.1	270	1	61
2026-02-04T18:56	-0.1	1014	-3.1	270	1	61
2026-02-04T18:57	-0.5	1014	-3.5	270	1	62
2026-02-04T18:58	-0.4	1014	-3.2	270	1	62
2026-02-04T18:59	-0.3	1014	-3.1	280	1	62
2026-02-04T19:00	-0.4	1014	-3.2	280	1	62
2026-02-04T19:01	-0.5	1014	-3.3	280	1	62
2026-02-04T19:02	-0.4	1014	-3.1	280	1	62
2026-02-04T19:03	-0.3	1014	-3.0	280	1	62
2026-02-04T19:04	-0.2	1014	-3.0	280	1	62
2026-02-04T19:05	-0.2	1014	-3.0	280	1	62
2026-02-04T19:06	-0.2	1014	-3.0	270	1	62
2026-02-04T19:07	-0.3	1014	-3.1	270	1	62
2026-02-04T19:08	-0.3	1014	-3.1	270	1	62
2026-02-04T19:09	-0.3	1014	-3.1	270	1	62
2026-02-04T19:10	-0.3	1014	-3.1	270	1	62
2026-02-04T19:11	-0.4	1014	-3.2	270	1	62
2026-02-04T19:12	-0.4	1014	-3.2	260	1	62
2026-02-04T19:13	-0.4	1014	-3.2	260	1	62
2026-02-04T19:14	-0.6	1014	-3.4	260	1	62
2026-02-04T19:15	-0.5	1014	-3.2	260	1	62
2026-02-04T19:16	-0.5	1014	-3.2	260	1	62
2026-02-04T19:17	-0.4	1014	-3.1	270	1	62
2026-02-04T19:18	-0.5	1014	-3.2	270	1	62
2026-02-04T19:19	-0.6	1014	-3.3	270	1	62
2026-02-04T19:20	-0.4	1014	-2.9	270	1	62
2026-02-04T19:21	-0.4	1014	-2.9	270	1	62
2026-02-04T19:22	-0.2	1014	-2.9	270	1	62
2026-02-04T19:23	-0.4	1014	-3.1	270	1	62
2026-02-04T19:24	-0.3	1014	-3.0	270	1	62
2026-02-04T19:25	-0.7	1014	-3.4	270	1	62
2026-02-04T19:26	-0.5	1014	-3.2	270	1	62
2026-02-04T19:27	-0.4	1014	-2.9	270	1	62
2026-02-04T19:28	-0.4	1014	-3.1	270	1	62
2026-02-04T19:29	-0.6	1014	-3.3	270	1	62
2026-02-04T19:30	-0.6	1014	-3.3	260	1	62
2026-02-04T19:31	-0.5	1014	-3.2	260	1	61
2026-02-04T19:32	-0.6	1014	-3.3	260	1	62
2026-02-04T19:33	-0.6	1014	-3.3	250	1	62
2026-02-04T19:34	-0.5	1014	-3.2	250	1	62
2026-02-04T19:35	-0.3	1014	-3.0	250	1	62
2026-02-04T19:36	-0.6	1014	-3.4	250	1	62
2026-02-04T19:37	-0.8	1014	-3.6	250	1	62
2026-02-04T19:38	-0.8	1014	-3.5	250	1	62
2026-02-04T19:39	-0.8	1014	-3.3	250	1	62
2026-02-04T19:40	-0.8	1014	-3.3	250	1	62
2026-02-04T19:41	-0.8	1014	-3.3	250	1	62
2026-02-04T19:42	-0.5	1014	-2.9	260	1	62
2026-02-04T19:43	-0.3	1014	-2.8	260	1	62
2026-02-04T19:44	-0.4	1014	-2.9	270	1	62
2026-02-04T19:45	-0.5	1014	-3.2	270	1	62
2026-02-04T19:46	-0.8	1014	-3.5	270	1	62
2026-02-04T19:47	-0.8	1014	-3.3	270	1	62
2026-02-04T19:48	-0.7	1014	-3.2	270	1	62
2026-02-04T19:49	-0.8	1014	-3.3	270	1	62
2026-02-04T19:50	-0.9	1014	-3.4	270	1	62
2026-02-04T19:51	-0.8	1014	-3.3	260	1	62
2026-02-04T19:52	-0.5	1014	-3.0	260	1	62
2026-02-04T19:53	-0.4	1014	-2.9	250	1	62
2026-02-04T19:54	-0.3	1014	-2.8	250	1	62
2026-02-04T19:55	-0.8	1014	-3.6	250	1	62
2026-02-04T19:56	-0.8	1014	-3.6	250	1	62
2026-02-04T19:57	-1.1	1014	-3.8	250	1	62
2026-02-04T19:58	-1.2	1014	-3.7	250	1	62
2026-02-04T19:59	-1.2	1014	-3.5	250	1	62
2026-02-04T20:00	-1.3	1014	-3.5	250	1	62
2026-02-04T20:01	-1.4	1014	-3.6	250	1	62
2026-02-04T20:02	-1.4	1014	-3.6	250	1	61
2026-02-04T20:03	-1.2	1014	-3.2	250	1	61
2026-02-04T20:04	-1.1	1014	-3.1	260	1	61
2026-02-04T20:05	-1.1	1014	-3.1	260	1	61
2026-02-04T20:06	-1.1	1014	-3.3	260	1	61
2026-02-04T20:07	-1.1	1014	-3.3	260	1	61
2026-02-04T20:08	-1.1	1014	-3.3	260	1	61
2026-02-04T20:09	-1.1	1014	-3.3	260	1	61
2026-02-04T20:10	-1.1	1014	-3.3	260	1	61
2026-02-04T20:11	-1.2	1014	-3.4	260	1	61
2026-02-04T20:12	-1.1	1014	-3.3	260	1	61
2026-02-04T20:13	-1.1	1014	-3.3	260	1	60
2026-02-04T20:14	-1.2	1014	-3.4	260	1	60
2026-02-04T20:15	-1.1	1014	-3.1	260	0	60
2026-02-04T20:16	-1.1	1014	-3.1	260	0	60
2026-02-04T20:17	-1.2	1014	-3.2	260	0	60
2026-02-04T20:18	-1.3	1014	-3.3	250	0	60
2026-02-04T20:19	-1.3	1014	-3.3	250	0	60
2026-02-04T20:20	-1.4	1014	-3.4	250	0	60
2026-02-04T20:21	-1.3	1014	-3.3	250	0	60
2026-02-04T20:22	-1.3	1014	-3.3	250	0	59
2026-02-04T20:23	-1.3	1014	-3.3	250	0	60
2026-02-04T20:24	-1.3	1014	-3.3	240	0	59
2026-02-04T20:25	-1.2	1014	-3.2	240	0	59
2026-02-04T20:26	-1.2	1014	-3.2	240	0	59
2026-02-04T20:27	-1.3	1014	-3.3	240	0	59
2026-02-04T20:28	-1.3	1014	-3.3	250	0	59
2026-02-04T20:29	-1.3	1014	-3.3	250	0	59
2026-02-04T20:30	-1.5	1014	-3.5	250	0	59
2026-02-04T20:31	-1.6	1014	-3.6	250	0	59
2026-02-04T20:32	-1.6	1014	-3.6	250	0	59
2026-02-04T20:33	-1.5	1014	-3.5	250	0	59
2026-02-04T20:34	-1.6	1014	-3.6	250	0	59
2026-02-04T20:35	-1.5	1014	-3.4	240	0	59
2026-02-04T20:36	-1.5	1014	-3.4	240	1	59
2026-02-04T20:37	-1.5	1014	-3.4	240	1	59
2026-02-04T20:38	-1.6	1014	-3.6	240	1	59
2026-02-04T20:39	-1.9	1014	-3.9	240	1	59
2026-02-04T20:40	-1.9	1014	-3.9	240	1	59
2026-02-04T20:41	-1.8	1014	-3.7	240	1	59
2026-02-04T20:42	-1.9	1014	-3.8	240	1	59
2026-02-04T20:43	-1.9	1014	-3.8	240	1	59
2026-02-04T20:44	-2.0	1014	-3.9	240	1	59
2026-02-04T20:45	-2.0	1014	-3.7	250	1	59
2026-02-04T20:46	-1.8	1014	-3.5	250	1	59
2026-02-04T20:47	-1.8	1014	-3.5	250	1	59
2026-02-04T20:48	-1.9	1014	-3.6	250	1	59
2026-02-04T20:49	-1.9	1014	-3.6	250	1	59
2026-02-04T20:50	-2.0	1014	-3.9	250	1	59
2026-02-04T20:51	-2.0	1014	-3.7	240	1	59
2026-02-04T20:52	-2.2	1014	-3.9	240	1	59
2026-02-04T20:53	-2.2	1014	-3.9	240	1	59
2026-02-04T20:54	-2.0	1014	-3.6	250	1	59
2026-02-04T20:55	-2.0	1014	-3.6	250	1	59
2026-02-04T20:56	-1.9	1014	-3.5	250	1	59
2026-02-04T20:57	-1.8	1014	-3.4	250	1	59
2026-02-04T20:58	-1.8	1014	-3.4	260	1	59
2026-02-04T20:59	-1.8	1014	-3.4	260	1	59
2026-02-04T21:00	-1.7	1014	-3.3	270	1	58
2026-02-04T21:01	-1.8	1014	-3.5	270	1	58
2026-02-04T21:02	-1.9	1014	-3.6	270	1	58
2026-02-04T21:03	-2.0	1014	-3.9	270	1	58
2026-02-04T21:04	-2.0	1014	-3.9	270	1	58
2026-02-04T21:05	-2.1	1014	-4.0	270	1	58
2026-02-04T21:06	-2.0	1014	-3.9	270	1	57
2026-02-04T21:07	-2.2	1014	-4.1	270	1	57
2026-02-04T21:08	-2.2	1014	-3.9	270	1	57
2026-02-04T21:09	-2.1	1014	-3.8	260	1	57
2026-02-04T21:10	-2.0	1014	-3.7	260	1	57
2026-02-04T21:11	-2.0	1014	-3.7	260	1	57
2026-02-04T21:12	-2.1	1014	-3.8	250	1	58
2026-02-04T21:13	-2.2	1014	-3.9	250	1	58
2026-02-04T21:14	-2.2	1014	-3.9	250	1	58
2026-02-04T21:15	-2.2	1014	-3.8	250	1	57
2026-02-04T21:16	-2.0	1014	-3.6	250	1	57
2026-02-04T21:17	-1.9	1014	-3.3	250	1	58
2026-02-04T21:18	-1.9	1014	-3.3	250	1	58
2026-02-04T21:19	-1.9	1014	-3.5	260	1	58
2026-02-04T21:20	-2.0	1014	-3.6	260	1	58
2026-02-04T21:21	-2.0	1014	-3.6	270	1	58
2026-02-04T21:22	-2.2	1014	-3.8	270	1	58
2026-02-04T21:23	-2.2	1014	-3.8	270	0	58
2026-02-04T21:24	-2.2	1014	-3.6	270	0	58
2026-02-04T21:25	-2.3	1014	-3.7	280	0	58
2026-02-04T21:26	-2.2	1014	-3.6	280	0	58
2026-02-04T21:27	-2.2	1014	-3.6	0	0	58
2026-02-04T21:28	-2.2	1014	-3.6	0	0	58
2026-02-04T21:29	-2.2	1014	-3.6	0	0	58
2026-02-04T21:30	-2.2	1014	-3.6	0	0	58
2026-02-04T21:31	-2.1	1014	-3.4	0	0	58
2026-02-04T21:32	-2.1	1014	-3.4	0	0	58
2026-02-04T21:33	-2.3	1014	-3.7	0	0	58
2026-02-04T21:34	-2.6	1014	-4.0	0	0	58
2026-02-04T21:35	-2.6	1014	-4.0	0	0	58
2026-02-04T21:36	-2.6	1014	-4.0	260	0	57
2026-02-04T21:37	-2.5	1014	-3.9	260	0	57
2026-02-04T21:38	-2.6	1014	-4.0	250	0	57
2026-02-04T21:39	-2.5	1014	-3.8	250	1	57
2026-02-04T21:40	-2.5	1014	-3.9	250	1	57
2026-02-04T21:41	-2.6	1014	-4.0	240	1	57
2026-02-04T21:42	-2.5	1014	-3.9	240	1	57
2026-02-04T21:43	-2.6	1014	-4.0	240	1	57
2026-02-04T21:44	-2.5	1014	-4.0	240	1	57
2026-02-04T21:45	-2.8	1014	-4.3	240	1	58
2026-02-04T21:46	-2.7	1014	-4.1	250	1	58
2026-02-04T21:47	-2.7	1014	-4.1	250	1	58
2026-02-04T21:48	-2.7	1014	-4.1	250	1	58
2026-02-04T21:49	-2.6	1014	-3.8	250	1	58
2026-02-04T21:50	-2.5	1014	-3.8	250	1	58
2026-02-04T21:51	-2.6	1014	-3.8	250	1	58
2026-02-04T21:52	-2.5	1014	-3.8	250	1	58
2026-02-04T21:53	-2.5	1014	-3.9	250	1	58
2026-02-04T21:54	-2.3	1014	-3.7	250	1	58
2026-02-04T21:55	-2.2	1014	-3.5	240	1	58
2026-02-04T21:56	-2.5	1014	-3.9	240	1	58
2026-02-04T21:57	-2.5	1014	-3.9	240	1	58
2026-02-04T21:58	-2.7	1014	-4.1	240	1	58
2026-02-04T21:59	-2.9	1014	-4.3	240	1	58
2026-02-04T22:00	-2.7	1014	-4.1	240	1	58
2026-02-04T22:01	-2.9	1014	-4.1	240	1	58
2026-02-04T22:02	-2.8	1015	-4.0	250	1	58
2026-02-04T22:03	-2.6	1015	-3.8	250	1	57
2026-02-04T22:04	-2.5	1015	-3.6	250	1	57
2026-02-04T22:05	-2.4	1015	-3.5	250	1	57
2026-02-04T22:06	-2.3	1015	-3.4	250	1	57
2026-02-04T22:07	-2.3	1015	-3.6	260	1	57
2026-02-04T22:08	-2.2	1015	-3.5	260	1	57
2026-02-04T22:09	-2.2	1015	-3.5	260	1	57
2026-02-04T22:10	-2.2	1015	-3.5	260	1	57
2026-02-04T22:11	-2.2	1015	-3.6	260	1	57
2026-02-04T22:12	-2.1	1015	-3.5	260	1	57
2026-02-04T22:13	-2.1	1015	-3.5	260	1	58
2026-02-04T22:14	-2.1	1015	-3.5	260	1	58
2026-02-04T22:15	-2.0	1015	-3.4	260	1	58
2026-02-04T22:16	-2.0	1015	-3.4	260	1	58
2026-02-04T22:17	-2.2	1015	-3.6	260	1	58
2026-02-04T22:18	-2.2	1015	-3.6	260	1	58
2026-02-04T22:19	-2.1	1015	-3.5	260	1	58
2026-02-04T22:20	-1.9	1015	-3.5	260	1	59
2026-02-04T22:21	-1.9	1015	-3.5	260	1	59
2026-02-04T22:22	-1.7	1015	-3.3	260	1	59
2026-02-04T22:23	-1.6	1015	-3.3	260	1	59
2026-02-04T22:24	-1.5	1015	-3.2	260	1	59
2026-02-04T22:25	-1.5	1015	-3.4	260	1	59
2026-02-04T22:26	-2.1	1015	-4.1	260	1	59
2026-02-04T22:27	-2.2	1015	-4.2	250	1	59
2026-02-04T22:28	-1.7	1015	-3.4	250	1	59
2026-02-04T22:29	-1.4	1015	-3.1	250	1	59
2026-02-04T22:30	-1.3	1015	-3.0	250	1	60
2026-02-04T22:31	-1.1	1015	-3.0	250	1	60
2026-02-04T22:32	-1.1	1015	-3.1	250	1	60
2026-02-04T22:33	-1.1	1015	-3.1	250	1	60
2026-02-04T22:34	-1.0	1015	-3.2	250	1	60
2026-02-04T22:35	-1.1	1015	-3.3	250	1	61
2026-02-04T22:36	-0.8	1015	-2.8	250	1	61
2026-02-04T22:37	-0.7	1015	-2.9	250	1	61
2026-02-04T22:38	-0.7	1015	-3.1	240	1	61
2026-02-04T22:39	-0.7	1015	-2.9	250	1	62
2026-02-04T22:40	-0.9	1015	-3.1	250	1	62
2026-02-04T22:41	-0.9	1015	-3.1	250	1	62
2026-02-04T22:42	-0.7	1015	-2.9	250	1	62
2026-02-04T22:43	-0.5	1015	-2.7	250	1	62
2026-02-04T22:44	-0.4	1015	-2.6	250	1	62
2026-02-04T22:45	-0.3	1015	-2.5	240	1	62
2026-02-04T22:46	-0.3	1015	-2.8	240	1	62
2026-02-04T22:47	-0.2	1015	-2.6	240	1	62
2026-02-04T22:48	0.1	1015	-2.4	240	1	62
2026-02-04T22:49	0.2	1015	-2.3	240	1	63
2026-02-04T22:50	0.1	1015	-2.6	250	1	63
2026-02-04T22:51	0.2	1015	-2.5	250	1	63
2026-02-04T22:52	0.4	1015	-2.3	250	1	63
2026-02-04T22:53	0.7	1015	-2.0	250	1	63
2026-02-04T22:54	0.9	1015	-2.0	250	1	63
2026-02-04T22:55	1.1	1015	-2.0	250	1	64
2026-02-04T22:56	1.3	1015	-1.9	250	1	64
2026-02-04T22:57	1.3	1015	-2.1	250	1	65
2026-02-04T22:58	1.4	1015	-2.2	250	1	65
2026-02-04T22:59	1.5	1015	-2.3	250	1	65
2026-02-04T23:00	1.5	1015	-2.4	250	1	65
2026-02-04T23:01	1.6	1015	-2.3	250	1	66
2026-02-04T23:02	1.5	1015	-2.6	250	1	66
2026-02-04T23:03	1.6	1015	-2.3	250	1	66
2026-02-04T23:04	1.8	1015	-2.0	250	1	66
2026-02-04T23:05	1.9	1015	-1.9	250	1	66
2026-02-04T23:06	2.0	1015	-1.8	250	1	66
2026-02-04T23:07	2.1	1015	-2.2	250	1	66
2026-02-04T23:08	2.2	1015	-1.8	260	1	67
2026-02-04T23:09	2.1	1015	-2.2	260	1	66
2026-02-04T23:10	2.4	1015	-1.9	260	1	67
2026-02-04T23:11	2.5	1015	-2.2	260	1	66
2026-02-04T23:12	2.7	1015	-2.0	260	1	66
2026-02-04T23:13	2.6	1015	-2.5	250	1	66
2026-02-04T23:14	2.9	1015	-2.0	250	1	66
2026-02-04T23:15	3.1	1015	-1.6	260	1	66
2026-02-04T23:16	3.0	1015	-2.1	250	1	66
2026-02-04T23:17	3.2	1015	-2.1	250	1	66
2026-02-04T23:18	3.2	1015	-2.1	240	1	66
2026-02-04T23:19	3.4	1015	-1.9	240	1	66
2026-02-04T23:20	3.4	1015	-1.9	240	1	66
2026-02-04T23:21	3.3	1015	-2.2	240	1	66
2026-02-04T23:22	3.5	1015	-1.8	250	1	67
2026-02-04T23:23	3.5	1015	-2.0	250	1	67
2026-02-04T23:24	3.7	1015	-1.8	250	1	67
2026-02-04T23:25	3.9	1015	-1.9	260	1	68
2026-02-04T23:26	4.0	1015	-2.0	260	1	67
2026-02-04T23:27	4.2	1015	-1.6	270	2	68
2026-02-04T23:28	4.1	1015	-2.1	270	2	67
2026-02-04T23:29	4.1	1015	-2.1	280	2	67
2026-02-04T23:30	4.1	1015	-2.3	290	2	66
2026-02-04T23:31	4.2	1015	-2.2	290	2	66
2026-02-04T23:32	4.3	1015	-2.3	290	2	66
2026-02-04T23:33	4.5	1015	-2.1	290	2	65
2026-02-04T23:34	4.5	1015	-2.4	290	2	65
2026-02-04T23:35	4.5	1015	-2.4	290	2	65
2026-02-04T23:36	4.6	1015	-2.3	290	2	65
2026-02-04T23:37	4.4	1015	-2.7	290	2	65
2026-02-04T23:38	4.5	1015	-2.6	290	2	64
2026-02-04T23:39	4.6	1015	-2.5	290	2	64
2026-02-04T23:40	4.8	1015	-2.3	280	2	64
2026-02-04T23:41	5.2	1015	-1.7	280	2	64
2026-02-04T23:42	5.3	1015	-2.1	280	2	63
2026-02-04T23:43	5.3	1015	-2.1	280	2	63
2026-02-04T23:44	5.4	1015	-2.0	290	2	64
2026-02-04T23:45	5.6	1015	-2.0	290	2	64
2026-02-04T23:46	5.6	1015	-2.2	290	2	64
2026-02-04T23:47	5.5	1015	-2.6	290	2	64
2026-02-04T23:48	5.5	1015	-2.3	280	2	64
2026-02-04T23:49	5.5	1015	-2.3	290	2	65
2026-02-04T23:50	5.3	1015	-2.8	290	2	65
2026-02-04T23:51	5.4	1015	-2.7	290	1	66
2026-02-04T23:52	5.9	1015	-1.7	290	1	67
2026-02-04T23:53	5.9	1015	-2.2	290	1	67
2026-02-04T23:54	5.7	1015	-2.6	280	1	68
2026-02-04T23:55	5.7	1015	-2.6	280	1	68
2026-02-04T23:56	5.9	1015	-2.4	270	1	69
2026-02-04T23:57	5.9	1015	-2.4	270	1	70
2026-02-04T23:58	5.9	1015	-2.7	270	1	70
2026-02-04T23:59	6.1	1015	-2.5	260	1	70
2026-02-05T00:00	6.3	1015	-2.3	260	1	70
2026-02-05T00:01	6.7	1015	-1.7	260	1	70
2026-02-05T00:02	6.8	1015	-1.8	270	1	70
2026-02-05T00:03	6.5	1015	-2.6	270	1	70
2026-02-05T00:04	6.4	1015	-2.7	280	1	70
2026-02-05T00:05	6.5	1015	-2.4	280	2	70
2026-02-05T00:06	6.9	1015	-2.0	280	2	70
2026-02-05T00:07	6.8	1015	-2.1	290	2	70
2026-02-05T00:08	6.7	1015	-2.4	280	2	70
2026-02-05T00:09	7.0	1015	-2.2	290	2	70
2026-02-05T00:10	6.8	1015	-2.6	290	2	70
2026-02-05T00:11	7.0	1015	-2.4	290	2	70
2026-02-05T00:12	6.9	1015	-2.5	290	2	70
2026-02-05T00:13	7.0	1015	-2.4	290	2	70
2026-02-05T00:14	7.3	1014	-2.2	280	2	70
2026-02-05T00:15	7.3	1014	-2.2	280	2	70
2026-02-05T00:16	7.4	1014	-2.1	280	2	70
2026-02-05T00:17	7.4	1014	-2.3	280	2	70
2026-02-05T00:18	7.5	1014	-2.2	280	2	70
2026-02-05T00:19	7.5	1014	-2.5	270	2	70
2026-02-05T00:20	7.7	1014	-2.3	270	2	70
2026-02-05T00:21	7.9	1014	-2.1	270	2	70
2026-02-05T00:22	7.7	1014	-2.3	270	2	70
2026-02-05T00:23	7.7	1014	-2.6	270	2	70
2026-02-05T00:24	7.8	1014	-2.5	270	2	70
2026-02-05T00:25	7.7	1014	-2.9	270	2	70
2026-02-05T00:26	7.7	1014	-2.9	270	2	70
2026-02-05T00:27	8.0	1014	-2.6	270	2	70
2026-02-05T00:28	8.0	1014	-2.6	280	2	70
2026-02-05T00:29	7.9	1014	-2.7	280	2	70
2026-02-05T00:30	8.1	1014	-2.5	280	2	70
2026-02-05T00:31	8.3	1014	-2.3	290	2	70
2026-02-05T00:32	8.5	1014	-2.2	290	2	70
2026-02-05T00:33	8.8	1015	-1.9	290	2	70
2026-02-05T00:34	9.0	1015	-1.7	300	2	70
2026-02-05T00:35	9.2	1015	-1.8	290	2	70
2026-02-05T00:36	9.1	1015	-2.2	290	2	70
2026-02-05T00:37	8.8	1014	-2.8	290	2	70
2026-02-05T00:38	9.0	1014	-2.3	290	2	70
2026-02-05T00:39	9.1	1014	-2.2	290	2	70
2026-02-05T00:40	9.0	1014	-2.6	290	2	70
2026-02-05T00:41	8.9	1014	-3.0	290	2	70
2026-02-05T00:42	9.2	1014	-2.4	290	2	70
2026-02-05T00:43	9.5	1014	-2.1	290	2	70
2026-02-05T00:44	9.6	1014	-2.4	290	2	70
2026-02-05T00:45	9.5	1014	-2.4	300	2	70
2026-02-05T00:46	9.5	1014	-2.8	300	2	70
2026-02-05T00:47	9.4	1014	-2.8	300	2	70
2026-02-05T00:48	9.8	1014	-2.2	300	2	70
2026-02-05T00:49	9.5	1014	-2.8	300	2	70
2026-02-05T00:50	9.8	1014	-2.5	300	2	70
2026-02-05T00:51	9.8	1014	-2.5	290	2	70
2026-02-05T00:52	9.8	1014	-2.5	300	2	70
2026-02-05T00:53	9.7	1014	-2.9	300	2	70
2026-02-05T00:54	9.5	1014	-3.1	290	2	70
2026-02-05T00:55	9.2	1014	-3.3	300	2	70
2026-02-05T00:56	9.6	1014	-2.7	300	2	70
2026-02-05T00:57	9.7	1014	-2.6	300	2	70
2026-02-05T00:58	10.0	1014	-2.3	300	2	70
2026-02-05T00:59	9.8	1014	-2.8	300	2	70
2026-02-05T01:00	9.8	1014	-2.8	300	2	70
2026-02-05T01:01	9.7	1014	-2.9	310	2	70
2026-02-05T01:02	9.8	1014	-2.8	310	2	70
2026-02-05T01:03	9.7	1014	-3.2	310	2	70
2026-02-05T01:04	9.8	1014	-3.1	320	2	70
2026-02-05T01:05	10.0	1014	-2.6	320	2	70
2026-02-05T01:06	10.0	1014	-3.0	310	2	70
2026-02-05T01:07	10.3	1014	-2.4	310	2	70
2026-02-05T01:08	10.2	1014	-2.8	310	2	70
2026-02-05T01:09	10.2	1014	-2.8	320	2	70
2026-02-05T01:10	9.9	1014	-3.0	320	2	70
2026-02-05T01:11	9.9	1014	-3.0	320	2	70
2026-02-05T01:12	10.3	1014	-2.4	320	2	70
2026-02-05T01:13	10.5	1014	-2.5	310	2	70
2026-02-05T01:14	10.7	1014	-2.3	310	2	70
2026-02-05T01:15	10.5	1014	-2.5	310	2	70
2026-02-05T01:16	10.3	1014	-3.0	310	3	70
2026-02-05T01:17	10.4	1014	-2.6	310	3	70
2026-02-05T01:18	10.5	1014	-2.5	320	3	70
2026-02-05T01:19	10.9	1014	-2.2	310	3	70
2026-02-05T01:20	10.9	1014	-2.5	310	3	70
2026-02-05T01:21	10.7	1014	-2.7	310	3	70
2026-02-05T01:22	10.5	1014	-2.9	310	3	70
2026-02-05T01:23	10.6	1014	-2.8	320	3	70
2026-02-05T01:24	10.6	1014	-2.8	320	3	70
2026-02-05T01:25	10.7	1014	-2.7	320	3	70
2026-02-05T01:26	10.5	1014	-2.9	320	3	70
2026-02-05T01:27	11.0	1014	-2.4	320	3	70
2026-02-05T01:28	10.6	1014	-3.1	320	3	70
2026-02-05T01:29	11.0	1014	-2.4	320	2	70
2026-02-05T01:30	11.3	1014	-2.1	320	2	70
2026-02-05T01:31	10.9	1014	-2.8	320	2	70
2026-02-05T01:32	11.1	1014	-2.7	320	2	70
2026-02-05T01:33	11.3	1014	-2.5	320	2	70
2026-02-05T01:34	11.2	1014	-2.6	320	2	70
2026-02-05T01:35	10.8	1014	-3.3	310	2	70
2026-02-05T01:36	10.6	1014	-3.1	310	2	70
2026-02-05T01:37	10.8	1014	-2.6	310	2	70
2026-02-05T01:38	10.8	1014	-2.6	310	2	70
2026-02-05T01:39	11.0	1014	-2.4	300	2	70
2026-02-05T01:40	11.5	1014	-2.0	300	2	70
2026-02-05T01:41	11.7	1014	-2.1	290	2	70
2026-02-05T01:42	11.3	1014	-2.5	290	2	70
2026-02-05T01:43	11.1	1014	-2.7	280	2	70
2026-02-05T01:44	11.0	1014	-2.8	280	2	70
2026-02-05T01:45	10.9	1014	-2.8	280	2	70
2026-02-05T01:46	11.2	1014	-2.6	280	2	70
2026-02-05T01:47	11.1	1014	-2.7	280	2	70
2026-02-05T01:48	11.4	1014	-2.4	270	2	70
2026-02-05T01:49	11.7	1014	-2.5	270	2	70
2026-02-05T01:50	11.5	1014	-3.0	280	2	70
2026-02-05T01:51	11.5	1014	-3.0	280	2	70
2026-02-05T01:52	11.4	1013	-3.1	290	2	70
2026-02-05T01:53	11.3	1013	-3.2	300	2	70
2026-02-05T01:54	11.3	1013	-3.2	310	2	70
2026-02-05T01:55	11.2	1013	-3.3	310	2	70
2026-02-05T01:56	11.3	1013	-3.2	300	2	70
2026-02-05T01:57	11.1	1013	-3.4	300	2	70
2026-02-05T01:58	11.1	1013	-3.4	310	2	70
2026-02-05T01:59	11.2	1013	-2.9	310	2	70
2026-02-05T02:00	11.5	1013	-2.7	310	2	70
2026-02-05T02:01	11.6	1013	-2.6	310	2	70
2026-02-05T02:02	11.9	1013	-2.3	300	2	70
2026-02-05T02:03	12.0	1013	-2.6	300	2	70
2026-02-05T02:04	12.6	1013	-2.1	300	2	70
2026-02-05T02:05	12.5	1013	-2.5	300	2	70
2026-02-05T02:06	12.1	1013	-3.3	300	2	70
2026-02-05T02:07	11.8	1013	-3.1	290	2	70
2026-02-05T02:08	11.4	1013	-3.5	290	2	70
2026-02-05T02:09	11.5	1013	-3.0	290	2	70
2026-02-05T02:10	11.8	1013	-2.8	290	2	70
2026-02-05T02:11	11.8	1013	-2.8	290	2	70
2026-02-05T02:12	11.5	1013	-3.0	300	2	70
2026-02-05T02:13	11.6	1013	-2.9	300	2	70
2026-02-05T02:14	11.6	1013	-2.9	300	2	70
2026-02-05T02:15	11.4	1013	-2.8	300	2	70
2026-02-05T02:16	11.3	1013	-2.8	310	2	70
2026-02-05T02:17	11.6	1013	-2.2	310	2	70
2026-02-05T02:18	11.4	1013	-2.4	300	2	70
2026-02-05T02:19	11.2	1013	-2.6	300	2	70
2026-02-05T02:20	11.4	1013	-2.4	300	2	70
2026-02-05T02:21	11.6	1013	-2.2	310	2	70
2026-02-05T02:22	11.8	1013	-2.0	310	2	70
2026-02-05T02:23	12.1	1013	-1.8	310	1	70
2026-02-05T02:24	11.9	1013	-2.3	320	1	70
2026-02-05T02:25	12.3	1013	-1.6	320	1	70
2026-02-05T02:26	12.8	1013	-1.5	310	1	70
2026-02-05T02:27	12.6	1013	-2.1	310	1	70
2026-02-05T02:28	12.7	1013	-1.6	310	1	70
2026-02-05T02:29	12.7	1013	-1.6	300	1	70
2026-02-05T02:30	12.3	1013	-2.0	300	2	70
2026-02-05T02:31	12.4	1013	-1.5	300	2	70
2026-02-05T02:32	12.0	1013	-2.2	280	2	70
2026-02-05T02:33	12.0	1013	-1.5	280	2	70
2026-02-05T02:34	12.1	1013	-1.1	260	2	70
2026-02-05T02:35	11.9	1013	-1.3	250	2	70
2026-02-05T02:36	12.5	1013	-0.7	250	2	70
2026-02-05T02:37	12.3	1013	-1.2	240	2	70
2026-02-05T02:38	12.2	1013	-1.3	240	2	70
2026-02-05T02:39	12.5	1013	-1.1	240	2	70
2026-02-05T02:40	12.6	1013	-1.0	240	2	70
2026-02-05T02:41	12.4	1013	-1.2	240	2	70
2026-02-05T02:42	12.1	1013	-1.8	240	2	70
2026-02-05T02:43	12.3	1013	-1.2	260	2	70
2026-02-05T02:44	13.4	1013	0.1	280	2	70
2026-02-05T02:45	13.2	1013	-0.4	300	2	70
2026-02-05T02:46	12.9	1013	-0.7	320	2	70
2026-02-05T02:47	12.9	1013	-0.7	330	2	70
2026-02-05T02:48	12.9	1012	-0.7	330	2	70
2026-02-05T02:49	12.7	1012	-0.9	330	2	70
2026-02-05T02:50	12.9	1012	-0.7	320	2	70
2026-02-05T02:51	13.4	1012	0.1	310	2	70
2026-02-05T02:52	13.4	1012	-0.2	280	2	70
2026-02-05T02:53	13.1	1012	-0.2	250	2	70
2026-02-05T02:54	13.0	1012	-0.3	230	2	70
2026-02-05T02:55	12.6	1012	-0.3	220	2	70
2026-02-05T02:56	12.5	1012	0.0	220	2	70
2026-02-05T02:57	12.6	1012	0.1	220	2	70
2026-02-05T02:58	12.7	1012	0.5	220	2	70
2026-02-05T02:59	12.4	1012	0.2	220	2	70
2026-02-05T03:00	12.5	1012	0.6	220	2	70
2026-02-05T03:01	12.7	1012	0.5	220	2	70
2026-02-05T03:02	12.5	1012	0.3	220	2	70
2026-02-05T03:03	12.1	1012	0.2	230	2	70
2026-02-05T03:04	12.4	1012	0.5	230	2	70
2026-02-05T03:05	12.7	1012	0.8	240	2	70
2026-02-05T03:06	12.6	1012	0.4	230	2	70
2026-02-05T03:07	12.5	1012	0.3	230	2	70
2026-02-05T03:08	12.5	1012	0.3	220	2	70
2026-02-05T03:09	12.6	1012	0.4	220	2	70
2026-02-05T03:10	12.6	1012	0.4	220	2	70
2026-02-05T03:11	12.6	1012	0.4	220	2	70
2026-02-05T03:12	13.1	1012	0.8	220	2	70
2026-02-05T03:13	13.0	1012	0.4	210	2	70
2026-02-05T03:14	12.6	1012	0.1	210	2	70
2026-02-05T03:15	12.6	1012	0.1	210	2	70
2026-02-05T03:16	13.0	1012	0.7	210	2	70
2026-02-05T03:17	13.0	1012	0.4	220	2	70
2026-02-05T03:18	12.8	1012	0.2	220	2	70
2026-02-05T03:19	12.6	1012	0.1	220	2	70
2026-02-05T03:20	12.4	1012	-0.1	230	2	70
2026-02-05T03:21	12.4	1012	-0.1	230	2	70
2026-02-05T03:22	12.7	1012	0.5	230	2	70
2026-02-05T03:23	12.8	1012	0.6	230	2	70
2026-02-05T03:24	12.8	1012	0.2	240	2	70
2026-02-05T03:25	12.7	1012	0.1	250	2	70
2026-02-05T03:26	13.2	1012	0.6	250	2	70
2026-02-05T03:27	13.2	1011	0.6	240	2	70
2026-02-05T03:28	12.5	1011	-0.4	250	2	70
2026-02-05T03:29	12.3	1011	-0.2	260	1	70
2026-02-05T03:30	12.6	1011	0.1	270	1	70
2026-02-05T03:31	12.5	1011	0.0	270	1	70
2026-02-05T03:32	12.3	1011	-0.2	270	1	70
2026-02-05T03:33	12.6	1011	0.4	270	1	70
2026-02-05T03:34	12.9	1011	0.6	250	1	70
2026-02-05T03:35	12.6	1011	0.1	240	2	70
2026-02-05T03:36	12.5	1011	0.0	240	2	70
2026-02-05T03:37	12.6	1011	0.4	250	2	70
2026-02-05T03:38	12.9	1011	0.6	240	2	70
2026-02-05T03:39	12.8	1011	0.2	240	2	70
2026-02-05T03:40	12.6	1011	0.1	240	2	70
2026-02-05T03:41	12.7	1011	0.5	240	2	70
2026-02-05T03:42	12.9	1011	0.6	240	2	70
2026-02-05T03:43	12.8	1011	0.2	250	2	70
2026-02-05T03:44	13.0	1011	0.4	250	2	70
2026-02-05T03:45	12.9	1011	0.3	250	1	70
2026-02-05T03:46	12.9	1011	0.3	250	1	70
2026-02-05T03:47	13.2	1011	0.6	240	1	70
2026-02-05T03:48	13.5	1011	0.9	240	1	70
2026-02-05T03:49	13.6	1011	0.9	240	1	70
2026-02-05T03:50	13.3	1011	0.3	240	1	70
2026-02-05T03:51	12.9	1011	0.0	230	1	70
2026-02-05T03:52	13.0	1011	0.4	230	1	70
2026-02-05T03:53	13.1	1011	0.5	220	1	70
2026-02-05T03:54	13.1	1011	0.5	40	1	70
2026-02-05T03:55	13.0	1011	0.1	60	1	70
2026-02-05T03:56	12.8	1011	0.2	130	1	70
2026-02-05T03:57	13.0	1011	0.4	60	1	70
2026-02-05T03:58	13.0	1011	0.4	50	1	70
2026-02-05T03:59	12.8	1011	0.2	50	1	70
2026-02-05T04:00	12.9	1011	0.3	60	1	70
2026-02-05T04:01	12.8	1011	0.2	60	2	70
2026-02-05T04:02	13.2	1011	0.9	60	2	70
2026-02-05T04:03	13.0	1011	0.4	60	2	70
2026-02-05T04:04	12.8	1011	0.2	60	2	70
2026-02-05T04:05	12.6	1011	0.1	50	1	70
2026-02-05T04:06	12.6	1011	0.1	50	1	70
2026-02-05T04:07	13.0	1011	0.7	70	1	70
2026-02-05T04:08	13.2	1011	0.6	250	1	70
2026-02-05T04:09	13.6	1011	0.9	70	1	70
2026-02-05T04:10	13.4	1011	0.4	60	1	70
2026-02-05T04:11	13.3	1011	0.3	70	1	70
2026-02-05T04:12	13.6	1011	0.6	90	1	70
2026-02-05T04:13	13.7	1011	0.7	110	1	70
2026-02-05T04:14	13.5	1011	0.5	110	1	70
2026-02-05T04:15	13.3	1011	0.3	110	1	70
2026-02-05T04:16	13.7	1011	0.7	90	1	70
2026-02-05T04:17	13.5	1011	0.5	70	1	70
2026-02-05T04:18	13.4	1011	0.4	70	1	70
2026-02-05T04:19	13.0	1011	0.1	70	1	70
2026-02-05T04:20	12.7	1011	-0.2	50	1	70
2026-02-05T04:21	12.8	1011	0.2	40	1	70
2026-02-05T04:22	12.9	1011	0.3	20	1	70
2026-02-05T04:23	13.4	1011	0.8	350	1	70
2026-02-05T04:24	13.3	1011	0.7	320	1	70
2026-02-05T04:25	13.3	1011	0.3	290	1	70
2026-02-05T04:26	13.5	1011	0.9	260	1	70
2026-02-05T04:27	13.6	1011	0.6	240	1	70
2026-02-05T04:28	13.5	1011	0.5	230	1	70
2026-02-05T04:29	13.4	1011	0.4	220	2	70
2026-02-05T04:30	13.4	1011	0.4	220	2	70
2026-02-05T04:31	13.4	1011	0.4	220	2	70
2026-02-05T04:32	13.3	1011	0.7	230	2	70
2026-02-05T04:33	13.2	1011	0.6	230	2	70
2026-02-05T04:34	13.0	1011	0.4	240	1	70
2026-02-05T04:35	12.9	1011	0.3	250	1	70
2026-02-05T04:36	13.0	1011	0.4	250	1	70
2026-02-05T04:37	13.1	1011	0.5	250	1	70
2026-02-05T04:38	13.5	1011	0.9	260	1	70
2026-02-05T04:39	13.6	1011	0.6	260	1	70
2026-02-05T04:40	13.2	1011	0.3	250	1	70
2026-02-05T04:41	13.2	1011	0.6	250	1	70
2026-02-05T04:42	13.4	1011	0.8	250	1	70
2026-02-05T04:43	13.3	1011	0.7	230	1	70
2026-02-05T04:44	13.3	1011	0.7	220	1	70
2026-02-05T04:45	13.1	1011	0.5	200	1	70
2026-02-05T04:46	13.1	1011	0.8	190	1	70
2026-02-05T04:47	13.3	1011	1.0	180	2	70
2026-02-05T04:48	13.4	1011	1.1	170	2	70
2026-02-05T04:49	13.5	1011	1.2	150	2	70
2026-02-05T04:50	13.4	1011	1.1	140	2	70
2026-02-05T04:51	13.7	1011	1.4	140	2	70
2026-02-05T04:52	13.9	1011	1.5	140	2	70
2026-02-05T04:53	13.5	1011	0.9	140	2	70
2026-02-05T04:54	13.4	1011	0.8	140	2	70
2026-02-05T04:55	13.4	1010	1.1	150	1	70
2026-02-05T04:56	13.7	1010	1.4	150	1	70
2026-02-05T04:57	13.5	1010	1.2	150	1	70
2026-02-05T04:58	13.5	1010	1.2	150	1	70
2026-02-05T04:59	13.4	1010	1.1	150	1	70
2026-02-05T05:00	13.4	1010	1.1	160	1	70
2026-02-05T05:01	13.3	1010	1.0	170	1	70
2026-02-05T05:02	13.4	1010	1.1	180	1	70
2026-02-05T05:03	13.8	1010	1.5	190	1	70
2026-02-05T05:04	13.6	1010	0.9	200	1	70
2026-02-05T05:05	13.6	1010	1.3	200	1	70
2026-02-05T05:06	13.4	1010	0.8	200	2	70
2026-02-05T05:07	13.5	1010	1.2	210	2	70
2026-02-05T05:08	13.8	1010	1.5	210	2	70
2026-02-05T05:09	14.0	1010	1.3	220	2	70
2026-02-05T05:10	13.8	1010	1.1	210	2	70
2026-02-05T05:11	13.5	1010	0.9	210	2	70
2026-02-05T05:12	13.2	1010	0.6	210	2	70
2026-02-05T05:13	13.1	1010	0.8	210	2	70
2026-02-05T05:14	13.2	1010	0.9	210	2	70
2026-02-05T05:15	13.1	1010	0.8	210	1	70
2026-02-05T05:16	13.2	1010	0.9	200	1	70
2026-02-05T05:17	13.4	1010	1.1	190	1	70
2026-02-05T05:18	13.4	1010	1.1	180	1	70
2026-02-05T05:19	13.6	1010	1.3	190	1	70
2026-02-05T05:20	13.5	1010	1.2	180	1	70
2026-02-05T05:21	13.5	1010	1.2	170	1	70
2026-02-05T05:22	13.5	1010	1.2	170	1	70
2026-02-05T05:23	13.6	1010	1.3	160	1	70
2026-02-05T05:24	13.4	1010	0.8	160	1	70
2026-02-05T05:25	13.3	1010	1.0	150	1	70
2026-02-05T05:26	13.3	1010	1.0	150	1	70
2026-02-05T05:27	13.3	1010	1.0	150	1	70
2026-02-05T05:28	13.2	1010	1.2	140	1	70
2026-02-05T05:29	13.1	1010	1.1	120	1	70
2026-02-05T05:30	13.0	1010	1.1	110	1	70
2026-02-05T05:31	13.0	1010	1.1	90	1	70
2026-02-05T05:32	13.0	1010	1.1	80	1	70
2026-02-05T05:33	12.9	1010	1.0	80	1	70
2026-02-05T05:34	12.8	1010	0.9	70	1	70
2026-02-05T05:35	12.7	1010	0.8	70	1	70
2026-02-05T05:36	12.8	1010	1.2	60	1	70
2026-02-05T05:37	12.8	1010	1.2	70	1	70
2026-02-05T05:38	12.9	1010	1.3	70	1	70
2026-02-05T05:39	12.9	1010	1.3	70	1	70
2026-02-05T05:40	12.8	1010	0.9	70	1	70
2026-02-05T05:41	12.9	1010	1.3	70	1	70
2026-02-05T05:42	13.0	1010	1.4	60	1	70
2026-02-05T05:43	13.0	1010	1.1	60	1	70
2026-02-05T05:44	13.0	1010	1.1	70	2	70
2026-02-05T05:45	13.0	1010	1.1	60	2	70
2026-02-05T05:46	12.9	1010	1.0	70	2	70
2026-02-05T05:47	12.9	1010	1.0	60	2	70
2026-02-05T05:48	13.1	1010	1.1	60	2	70
2026-02-05T05:49	13.1	1010	1.1	60	1	70
2026-02-05T05:50	13.0	1010	0.7	60	2	70
2026-02-05T05:51	13.1	1010	0.8	60	1	70
2026-02-05T05:52	13.0	1010	0.7	60	1	70
2026-02-05T05:53	12.9	1010	0.6	70	1	70
2026-02-05T05:54	12.9	1011	0.6	70	1	70
2026-02-05T05:55	12.8	1011	0.6	80	1	70
2026-02-05T05:56	12.8	1011	0.6	80	1	70
2026-02-05T05:57	12.8	1011	0.6	80	1	70
2026-02-05T05:58	12.9	1011	0.6	80	1	70
2026-02-05T05:59	12.8	1011	0.6	80	1	70
2026-02-05T06:00	12.9	1011	0.6	80	1	70
2026-02-05T06:01	13.0	1011	0.7	80	1	70
2026-02-05T06:02	12.9	1011	0.3	90	1	70
2026-02-05T06:03	12.8	1011	0.2	90	1	70
2026-02-05T06:04	12.9	1011	0.3	90	1	70
2026-02-05T06:05	12.8	1011	0.2	80	1	70
2026-02-05T06:06	12.9	1011	0.3	80	1	70
2026-02-05T06:07	12.9	1011	0.3	90	1	70
2026-02-05T06:08	12.8	1011	-0.1	90	1	70
2026-02-05T06:09	12.8	1011	0.2	90	1	70
2026-02-05T06:10	12.8	1011	0.6	100	1	70
2026-02-05T06:11	12.8	1011	0.6	100	1	70
2026-02-05T06:12	12.9	1011	0.3	100	1	70
2026-02-05T06:13	12.9	1011	0.6	110	1	70
2026-02-05T06:14	12.9	1011	0.6	110	1	70
2026-02-05T06:15	12.8	1011	0.6	110	1	70
2026-02-05T06:16	12.8	1011	0.6	110	1	70
2026-02-05T06:17	12.8	1011	0.6	110	1	70
2026-02-05T06:18	12.7	1011	0.5	110	1	70
2026-02-05T06:19	12.7	1011	0.5	110	1	70
2026-02-05T06:20	12.7	1011	0.8	100	1	70
2026-02-05T06:21	12.7	1011	0.8	90	1	70
2026-02-05T06:22	12.7	1011	0.8	90	1	70
2026-02-05T06:23	12.7	1011	0.8	80	1	70
2026-02-05T06:24	12.7	1011	0.8	80	1	70
2026-02-05T06:25	12.7	1011	0.8	90	1	70
2026-02-05T06:26	12.7	1011	0.8	90	1	70
2026-02-05T06:27	12.8	1011	0.9	90	1	70
2026-02-05T06:28	12.7	1011	0.8	90	1	70
2026-02-05T06:29	12.7	1011	0.5	90	1	70
2026-02-05T06:30	12.7	1011	0.8	90	1	70
2026-02-05T06:31	12.6	1011	0.7	90	1	70
2026-02-05T06:32	12.6	1011	0.7	90	1	70
2026-02-05T06:33	12.5	1011	0.3	90	1	70
2026-02-05T06:34	12.5	1011	0.6	90	1	70
2026-02-05T06:35	12.5	1011	0.6	90	1	70
2026-02-05T06:36	12.5	1011	0.6	80	1	70
2026-02-05T06:37	12.5	1011	0.6	70	1	70
2026-02-05T06:38	12.5	1011	0.6	70	1	70
2026-02-05T06:39	12.6	1011	0.7	80	1	70
2026-02-05T06:40	12.6	1011	0.7	80	1	70
2026-02-05T06:41	12.6	1011	0.7	80	1	70
2026-02-05T06:42	12.6	1011	0.7	80	1	70
2026-02-05T06:43	12.6	1011	1.0	90	1	70
2026-02-05T06:44	12.5	1011	0.9	90	1	70
2026-02-05T06:45	12.4	1011	0.8	90	1	70
2026-02-05T06:46	12.4	1011	0.8	100	1	70
2026-02-05T06:47	12.5	1011	0.9	100	1	70
2026-02-05T06:48	12.5	1011	0.9	110	1	70
2026-02-05T06:49	12.5	1011	0.9	110	1	70
2026-02-05T06:50	12.4	1011	0.8	110	1	70
2026-02-05T06:51	12.4	1011	0.8	120	1	70
2026-02-05T06:52	12.4	1011	0.8	120	1	70
2026-02-05T06:53	12.4	1011	0.8	120	1	70
2026-02-05T06:54	12.4	1011	1.1	120	1	70
2026-02-05T06:55	12.3	1011	1.0	110	1	70
2026-02-05T06:56	12.3	1011	1.0	110	1	70
2026-02-05T06:57	12.3	1011	1.0	110	1	70
2026-02-05T06:58	12.3	1011	1.0	110	1	70
2026-02-05T06:59	12.3	1011	1.0	110	1	70
2026-02-05T07:00	12.3	1011	1.0	110	1	70
2026-02-05T07:01	12.3	1011	1.3	110	1	70
2026-02-05T07:02	12.3	1011	1.3	110	1	70
2026-02-05T07:03	12.3	1011	1.3	110	1	70
2026-02-05T07:04	12.3	1011	1.3	110	1	70
2026-02-05T07:05	12.3	1011	1.3	110	1	70
2026-02-05T07:06	12.2	1011	1.2	110	1	70
2026-02-05T07:07	12.2	1011	1.5	110	1	70
2026-02-05T07:08	12.2	1011	1.5	110	1	70
2026-02-05T07:09	12.0	1011	1.3	110	1	70
2026-02-05T07:10	11.9	1011	1.3	110	1	70
2026-02-05T07:11	12.0	1011	1.3	100	1	70
2026-02-05T07:12	12.0	1011	1.3	100	1	70
2026-02-05T07:13	11.9	1011	1.3	100	1	70
2026-02-05T07:14	12.0	1011	1.3	100	1	70
2026-02-05T07:15	12.0	1011	1.3	100	1	70
2026-02-05T07:16	12.0	1011	1.3	100	1	70
2026-02-05T07:17	12.0	1011	1.3	110	1	70
2026-02-05T07:18	12.0	1011	1.3	110	1	70
2026-02-05T07:19	12.0	1011	1.3	110	1	70
2026-02-05T07:20	11.9	1011	1.3	110	1	70
2026-02-05T07:21	11.9	1011	1.3	110	1	70
2026-02-05T07:22	12.0	1011	1.3	110	1	70
2026-02-05T07:23	11.9	1011	1.3	120	1	70
2026-02-05T07:24	11.9	1011	1.3	120	1	70
2026-02-05T07:25	11.8	1011	1.2	120	1	70
2026-02-05T07:26	11.8	1011	1.4	110	1	70
2026-02-05T07:27	11.7	1011	1.4	110	1	70
2026-02-05T07:28	11.7	1011	1.4	110	1	70
2026-02-05T07:29	11.7	1011	1.4	100	1	70
2026-02-05T07:30	11.6	1011	1.5	100	1	70
2026-02-05T07:31	11.8	1011	1.4	100	1	70
2026-02-05T07:32	11.8	1011	1.4	100	1	70
2026-02-05T07:33	11.7	1011	1.4	90	1	70
2026-02-05T07:34	11.7	1011	1.4	90	1	70
2026-02-05T07:35	11.6	1011	1.3	90	1	70
2026-02-05T07:36	11.3	1011	1.3	90	1	70
2026-02-05T07:37	11.1	1011	1.4	90	1	70
2026-02-05T07:38	11.4	1011	1.6	100	1	70
2026-02-05T07:39	11.5	1011	1.5	100	1	70
2026-02-05T07:40	11.5	1011	1.5	100	1	70
2026-02-05T07:41	11.5	1011	1.5	100	1	70
2026-02-05T07:42	11.2	1011	1.2	100	1	70
2026-02-05T07:43	10.9	1011	0.9	100	1	70
2026-02-05T07:44	10.8	1011	1.1	100	1	70
2026-02-05T07:45	10.9	1011	1.4	100	1	70
2026-02-05T07:46	10.9	1011	1.7	100	1	70
2026-02-05T07:47	11.0	1011	1.5	100	1	70
2026-02-05T07:48	10.6	1011	1.4	100	1	70
2026-02-05T07:49	10.7	1011	1.5	100	1	70
2026-02-05T07:50	10.4	1011	1.5	100	1	70
2026-02-05T07:51	10.5	1011	1.6	100	1	70
2026-02-05T07:52	10.5	1011	1.6	100	1	70
2026-02-05T07:53	10.2	1011	1.3	100	1	70
2026-02-05T07:54	10.4	1011	1.8	100	1	70
2026-02-05T07:55	10.4	1011	1.5	100	1	70
2026-02-05T07:56	10.6	1011	1.7	100	1	70
2026-02-05T07:57	10.5	1011	1.6	100	1	70
2026-02-05T07:58	10.2	1011	1.3	100	1	70
2026-02-05T07:59	10.0	1011	1.1	100	1	70
2026-02-05T08:00	10.5	1011	1.6	100	1	70
2026-02-05T08:01	10.4	1011	1.5	100	1	70
2026-02-05T08:02	10.6	1011	1.7	100	1	70
2026-02-05T08:03	10.6	1011	1.4	90	1	70
2026-02-05T08:04	10.6	1011	1.4	90	1	70
2026-02-05T08:05	9.9	1011	0.8	90	1	70
2026-02-05T08:06	10.1	1011	1.2	90	1	70
2026-02-05T08:07	9.7	1011	1.1	80	1	70
2026-02-05T08:08	9.9	1011	1.3	80	1	70
2026-02-05T08:09	9.7	1011	1.1	80	1	70
2026-02-05T08:10	9.7	1011	1.1	90	1	70
2026-02-05T08:11	10.0	1011	1.6	90	1	70
2026-02-05T08:12	9.5	1011	0.9	100	1	70
2026-02-05T08:13	9.5	1011	1.4	100	1	70
2026-02-05T08:14	10.1	1011	2.0	110	1	70
2026-02-05T08:15	10.1	1011	1.7	120	1	70
2026-02-05T08:16	10.0	1011	1.4	120	1	70
2026-02-05T08:17	9.8	1011	1.2	130	1	70
2026-02-05T08:18	9.9	1011	1.5	140	1	70
2026-02-05T08:19	9.9	1011	1.5	140	1	70
2026-02-05T08:20	9.6	1011	1.3	130	1	70
2026-02-05T08:21	9.9	1011	1.5	130	1	70
2026-02-05T08:22	9.8	1011	1.2	130	1	70
2026-02-05T08:23	9.5	1011	0.9	130	1	70
2026-02-05T08:24	9.6	1011	1.3	130	1	70
2026-02-05T08:25	9.8	1011	1.5	130	1	70
2026-02-05T08:26	9.6	1011	1.3	130	1	70
2026-02-05T08:27	9.6	1011	1.3	120	1	70
2026-02-05T08:28	9.3	1011	1.0	120	1	70
2026-02-05T08:29	9.1	1011	1.0	120	1	70
2026-02-05T08:30	8.7	1011	0.9	120	0	70
2026-02-05T08:31	8.7	1011	1.1	110	0	70
2026-02-05T08:32	8.8	1011	1.2	110	0	70
2026-02-05T08:33	9.0	1011	1.4	110	0	70
2026-02-05T08:34	8.7	1011	1.1	110	0	70
2026-02-05T08:35	8.3	1011	1.0	110	0	70
2026-02-05T08:36	8.1	1011	0.8	110	0	70
2026-02-05T08:37	7.7	1011	0.7	110	0	70
2026-02-05T08:38	7.4	1011	0.8	110	0	70
2026-02-05T08:39	7.1	1011	1.0	110	0	70
2026-02-05T08:40	7.2	1011	1.3	110	1	70
2026-02-05T08:41	7.4	1011	1.5	110	1	70
2026-02-05T08:42	7.5	1011	1.6	110	1	70
2026-02-05T08:43	7.6	1011	1.5	110	1	70
2026-02-05T08:44	7.8	1011	1.4	110	1	70
2026-02-05T08:45	8.0	1011	1.6	110	1	70
2026-02-05T08:46	7.9	1011	1.3	100	1	70
2026-02-05T08:47	7.5	1011	0.9	100	1	70
2026-02-05T08:48	7.3	1011	1.0	100	1	70
2026-02-05T08:49	7.2	1011	1.1	100	1	70
2026-02-05T08:50	7.3	1011	1.2	100	1	70
2026-02-05T08:51	7.1	1011	1.0	110	1	70
2026-02-05T08:52	7.3	1011	1.2	100	1	70
2026-02-05T08:53	7.3	1011	1.2	100	1	70
2026-02-05T08:54	7.1	1011	1.0	100	0	70
2026-02-05T08:55	7.1	1011	1.0	100	0	70
2026-02-05T08:56	7.0	1011	0.9	100	0	70
2026-02-05T08:57	7.2	1011	1.1	100	0	70
2026-02-05T08:58	7.2	1011	0.9	110	0	70
2026-02-05T08:59	7.1	1011	0.8	110	0	70
2026-02-05T09:00	6.7	1011	0.4	110	0	70
2026-02-05T09:01	6.7	1011	0.4	110	0	70
2026-02-05T09:02	6.8	1011	0.7	110	0	70
2026-02-05T09:03	7.0	1011	0.7	0	0	70
2026-02-05T09:04	7.0	1011	0.7	0	0	70
2026-02-05T09:05	7.1	1011	0.6	0	0	70
2026-02-05T09:06	6.9	1011	0.4	0	0	70
2026-02-05T09:07	6.9	1011	0.4	0	0	70
2026-02-05T09:08	6.8	1011	0.5	0	0	70
2026-02-05T09:09	6.7	1011	0.6	0	0	70
2026-02-05T09:10	6.6	1011	0.5	0	0	70
2026-02-05T09:11	6.7	1011	0.6	0	0	70
2026-02-05T09:12	6.8	1011	0.1	0	0	70
2026-02-05T09:13	6.8	1011	-0.2	0	0	70
2026-02-05T09:14	6.7	1011	0.0	0	0	70
2026-02-05T09:15	6.6	1011	0.3	0	0	70
2026-02-05T09:16	6.6	1011	0.3	80	0	70
2026-02-05T09:17	6.7	1011	0.6	80	0	70
2026-02-05T09:18	6.6	1011	0.3	80	0	70
2026-02-05T09:19	6.7	1011	0.4	80	0	70
2026-02-05T09:20	6.8	1011	0.3	80	0	70
2026-02-05T09:21	6.8	1011	0.3	80	0	70
2026-02-05T09:22	6.6	1011	0.1	80	0	70
2026-02-05T09:23	6.6	1011	0.1	80	0	70
2026-02-05T09:24	6.4	1011	0.1	80	0	70
2026-02-05T09:25	6.3	1011	0.2	80	1	70
2026-02-05T09:26	6.4	1011	0.1	80	1	70
2026-02-05T09:27	6.4	1011	-0.1	80	0	70
2026-02-05T09:28	6.4	1011	-0.3	70	0	70
2026-02-05T09:29	6.5	1011	-0.7	70	0	70
2026-02-05T09:30	6.4	1011	-0.8	60	0	70
2026-02-05T09:31	6.2	1011	-0.5	50	0	70
2026-02-05T09:32	5.8	1011	-0.5	50	0	70
2026-02-05T09:33	5.7	1011	-0.1	50	0	70
2026-02-05T09:34	6.1	1011	0.2	50	0	70
2026-02-05T09:35	6.1	1011	0.2	50	0	70
2026-02-05T09:36	6.2	1011	-0.3	50	0	70
2026-02-05T09:37	6.1	1011	-0.6	0	0	70
2026-02-05T09:38	5.9	1011	-0.8	60	0	70
2026-02-05T09:39	5.9	1010	-0.6	60	0	70
2026-02-05T09:40	5.6	1010	-0.7	70	0	70
2026-02-05T09:41	5.4	1010	-0.4	70	0	70
2026-02-05T09:42	5.7	1010	-0.1	70	0	70
2026-02-05T09:43	5.8	1010	-0.2	70	0	70
2026-02-05T09:44	5.7	1010	-0.3	70	0	70
2026-02-05T09:45	5.7	1010	-0.3	70	0	70
2026-02-05T09:46	5.7	1010	-0.3	70	0	70
2026-02-05T09:47	5.7	1010	-0.3	70	1	70
2026-02-05T09:48	5.9	1010	-0.4	70	1	70
2026-02-05T09:49	5.9	1010	-0.4	70	1	70
2026-02-05T09:50	5.8	1010	-0.5	70	0	70
2026-02-05T09:51	5.8	1010	-0.7	70	0	70
2026-02-05T09:52	5.8	1010	-0.7	70	0	70
2026-02-05T09:53	5.7	1010	-0.8	70	0	70
2026-02-05T09:54	5.6	1010	-0.9	70	0	70
2026-02-05T09:55	5.7	1010	-0.8	0	0	70
2026-02-05T09:56	5.8	1010	-0.7	0	0	70
2026-02-05T09:57	5.7	1010	-0.8	0	0	70
2026-02-05T09:58	5.7	1010	-0.6	0	0	70
2026-02-05T09:59	5.6	1010	-0.7	0	0	70
2026-02-05T10:00	5.4	1010	-0.8	0	0	70
2026-02-05T10:01	5.4	1010	-0.8	0	0	70
2026-02-05T10:02	5.4	1010	-0.8	0	0	70
2026-02-05T10:03	5.4	1010	-0.8	0	0	70
2026-02-05T10:04	5.1	1010	-0.9	0	0	70
2026-02-05T10:05	4.8	1010	-0.8	0	0	70
2026-02-05T10:06	5.0	1010	-0.6	0	0	70
2026-02-05T10:07	5.2	1010	-0.4	0	0	70
2026-02-05T10:08	5.2	1010	-0.4	0	0	70
2026-02-05T10:09	5.1	1010	-0.5	0	0	70
2026-02-05T10:10	5.0	1010	-0.6	0	0	70
2026-02-05T10:11	5.2	1010	-0.4	0	0	70
2026-02-05T10:12	4.9	1010	-0.5	0	0	70
2026-02-05T10:13	4.6	1010	-0.6	70	0	70
2026-02-05T10:14	4.7	1010	-0.5	80	0	70
2026-02-05T10:15	4.8	1010	-0.4	80	0	70
2026-02-05T10:16	4.9	1010	-0.3	80	0	70
2026-02-05T10:17	4.8	1010	-0.4	0	0	70
2026-02-05T10:18	4.7	1010	-0.5	0	0	70
2026-02-05T10:19	4.9	1010	-0.3	0	0	70
2026-02-05T10:20	4.7	1010	-0.5	0	0	70
2026-02-05T10:21	4.8	1010	-0.4	0	0	70
2026-02-05T10:22	4.9	1010	-0.3	0	0	70
2026-02-05T10:23	4.9	1010	-0.3	0	0	70
2026-02-05T10:24	4.6	1010	-0.6	0	0	70
2026-02-05T10:25	4.1	1010	-1.1	0	0	70
2026-02-05T10:26	4.0	1010	-1.0	20	0	70
2026-02-05T10:27	4.2	1010	-0.6	360	0	70
2026-02-05T10:28	4.3	1010	-0.5	350	0	70
2026-02-05T10:29	4.3	1010	-0.5	340	0	70
2026-02-05T10:30	4.3	1010	-0.5	340	1	70
2026-02-05T10:31	4.3	1010	-0.5	330	1	70
2026-02-05T10:32	4.2	1010	-0.6	330	1	70
2026-02-05T10:33	4.0	1010	-0.8	330	1	70
2026-02-05T10:34	4.1	1010	-0.5	320	1	70
2026-02-05T10:35	4.6	1010	0.0	320	0	70
2026-02-05T10:36	4.3	1010	-0.5	320	0	70
2026-02-05T10:37	4.1	1010	-0.7	320	0	70
2026-02-05T10:38	4.2	1010	-0.6	310	0	70
2026-02-05T10:39	4.4	1010	-0.4	0	0	70
2026-02-05T10:40	4.3	1010	-0.5	0	0	70
2026-02-05T10:41	4.2	1010	-0.6	0	0	70
2026-02-05T10:42	4.2	1010	-0.4	0	0	70
2026-02-05T10:43	4.2	1010	-0.4	0	0	70
2026-02-05T10:44	4.3	1010	-0.3	0	0	70
2026-02-05T10:45	4.5	1010	-0.1	0	0	70
2026-02-05T10:46	4.5	1010	0.1	0	0	70
2026-02-05T10:47	4.6	1010	0.4	0	0	70
2026-02-05T10:48	4.7	1010	0.5	0	0	70
2026-02-05T10:49	4.6	1010	0.4	0	0	70
2026-02-05T10:50	4.4	1010	0.0	120	0	70
2026-02-05T10:51	4.0	1010	-0.4	40	0	70
2026-02-05T10:52	3.8	1010	-0.4	90	0	70
2026-02-05T10:53	4.0	1010	0.0	110	0	70
2026-02-05T10:54	4.1	1010	0.1	120	0	70
2026-02-05T10:55	4.1	1010	0.1	130	0	70
2026-02-05T10:56	4.0	1010	0.0	130	0	70
2026-02-05T10:57	3.9	1010	-0.1	130	0	70
2026-02-05T10:58	3.9	1010	0.1	0	0	69
2026-02-05T10:59	3.9	1010	0.1	0	0	69
2026-02-05T11:00	3.9	1010	0.1	0	0	69
2026-02-05T11:01	4.2	1010	0.2	0	0	69
2026-02-05T11:02	4.3	1010	0.3	0	0	69
2026-02-05T11:03	4.1	1010	-0.1	0	0	69
2026-02-05T11:04	4.0	1010	-0.2	0	0	69
2026-02-05T11:05	4.0	1010	-0.2	0	0	69
2026-02-05T11:06	3.9	1010	-0.3	0	0	69
2026-02-05T11:07	3.9	1010	-0.3	0	0	70
2026-02-05T11:08	3.8	1010	-0.4	150	0	70
2026-02-05T11:09	3.7	1010	-0.5	160	0	70
2026-02-05T11:10	3.8	1010	-0.2	160	0	69
2026-02-05T11:11	3.7	1010	-0.3	160	0	69
2026-02-05T11:12	3.5	1010	-0.5	160	0	69
2026-02-05T11:13	3.6	1010	-0.2	160	0	69
2026-02-05T11:14	3.3	1011	-0.5	160	0	69
2026-02-05T11:15	3.1	1011	-0.9	160	0	69
2026-02-05T11:16	3.2	1011	-0.6	160	0	69
2026-02-05T11:17	3.4	1010	-0.4	160	0	69
2026-02-05T11:18	3.5	1010	-0.5	160	0	69
2026-02-05T11:19	3.5	1010	-0.5	0	0	69
2026-02-05T11:20	3.5	1010	-0.5	0	0	69
2026-02-05T11:21	3.4	1010	-0.4	0	0	68
2026-02-05T11:22	3.6	1010	-0.2	0	0	68
2026-02-05T11:23	3.5	1010	-0.1	0	0	68
2026-02-05T11:24	3.3	1010	-0.3	0	0	68
2026-02-05T11:25	3.6	1010	0.3	160	0	68
2026-02-05T11:26	3.4	1010	0.1	160	0	68
2026-02-05T11:27	3.4	1010	0.1	150	0	68
2026-02-05T11:28	3.4	1010	0.1	150	0	68
2026-02-05T11:29	3.4	1010	0.1	140	0	68
2026-02-05T11:30	3.4	1010	0.1	140	0	68
2026-02-05T11:31	3.5	1010	0.4	130	1	68
2026-02-05T11:32	3.4	1010	0.5	130	0	68
2026-02-05T11:33	3.0	1010	-0.1	130	0	67
2026-02-05T11:34	3.4	1010	0.6	120	0	67
2026-02-05T11:35	3.6	1010	0.8	120	0	67
2026-02-05T11:36	3.3	1010	0.4	120	0	67
2026-02-05T11:37	3.4	1010	0.5	110	0	67
2026-02-05T11:38	3.3	1010	0.4	100	0	67
2026-02-05T11:39	3.2	1010	0.3	80	0	67
2026-02-05T11:40	3.3	1010	0.2	0	0	67
2026-02-05T11:41	3.3	1010	0.2	0	0	67
2026-02-05T11:42	3.2	1010	0.3	0	0	67
2026-02-05T11:43	3.2	1010	0.4	0	0	67
2026-02-05T11:44	3.1	1010	0.3	20	0	67
2026-02-05T11:45	3.3	1010	0.7	20	0	67
2026-02-05T11:46	3.2	1010	0.4	0	0	67
2026-02-05T11:47	3.1	1010	0.0	0	0	67
2026-02-05T11:48	3.2	1010	0.1	0	0	67
2026-02-05T11:49	3.5	1010	0.7	0	0	67
2026-02-05T11:50	3.5	1010	0.9	60	0	66
2026-02-05T11:51	3.1	1010	0.3	70	0	66
2026-02-05T11:52	2.8	1010	-0.1	80	0	66
2026-02-05T11:53	3.0	1010	0.2	0	0	66
2026-02-05T11:54	2.8	1010	-0.1	0	0	67
2026-02-05T11:55	3.0	1010	-0.1	0	0	67
2026-02-05T11:56	3.1	1010	0.2	110	0	66
2026-02-05T11:57	3.3	1010	0.7	120	0	66
2026-02-05T11:58	3.3	1010	0.9	120	0	66
2026-02-05T11:59	3.0	1010	0.4	120	0	66
2026-02-05T12:00	2.9	1010	0.3	0	0	66
2026-02-05T12:01	2.9	1010	0.3	0	0	66
2026-02-05T12:02	2.8	1010	0.1	0	0	66
2026-02-05T12:03	3.0	1010	0.2	0	0	66
2026-02-05T12:04	3.0	1010	0.4	0	0	66
2026-02-05T12:05	2.9	1010	0.5	0	0	65
2026-02-05T12:06	2.7	1010	0.1	0	0	65
2026-02-05T12:07	2.8	1010	0.1	0	0	66
2026-02-05T12:08	2.7	1010	0.1	0	0	65
2026-02-05T12:09	2.7	1010	0.1	0	0	65
2026-02-05T12:10	3.0	1010	0.7	0	0	65
2026-02-05T12:11	3.2	1010	1.1	0	0	65
2026-02-05T12:12	3.1	1010	0.8	0	0	65
2026-02-05T12:13	2.9	1010	0.6	0	0	65
2026-02-05T12:14	2.8	1010	0.5	0	0	65
2026-02-05T12:15	2.9	1010	0.6	0	0	65
2026-02-05T12:16	2.9	1010	0.8	0	0	65
2026-02-05T12:17	2.9	1010	0.8	0	0	65
2026-02-05T12:18	2.9	1010	0.8	0	0	65
2026-02-05T12:19	2.8	1010	0.7	0	0	65
2026-02-05T12:20	2.7	1010	0.6	0	0	65
2026-02-05T12:21	2.6	1010	0.5	0	0	65
2026-02-05T12:22	2.7	1010	0.6	0	0	64
2026-02-05T12:23	2.4	1010	0.5	0	0	64
2026-02-05T12:24	2.3	1010	0.4	0	0	64
2026-02-05T12:25	2.6	1010	0.8	0	0	64
2026-02-05T12:26	2.6	1010	0.8	0	0	64
2026-02-05T12:27	2.4	1010	0.5	0	0	64
2026-02-05T12:28	2.4	1010	0.6	0	0	63
2026-02-05T12:29	2.4	1010	0.6	0	0	63
2026-02-05T12:30	2.4	1010	0.6	0	0	63
2026-02-05T12:31	2.5	1010	0.7	0	0	63
2026-02-05T12:32	2.3	1010	0.7	0	0	63
2026-02-05T12:33	2.0	1010	0.2	0	0	63
2026-02-05T12:34	2.2	1010	0.3	0	0	63
2026-02-05T12:35	2.0	1010	0.1	0	0	63
2026-02-05T12:36	2.1	1010	0.3	30	0	63
2026-02-05T12:37	2.2	1010	0.7	10	0	63
2026-02-05T12:38	2.2	1010	0.7	350	1	62
2026-02-05T12:39	2.1	1010	0.6	340	1	62
2026-02-05T12:40	2.2	1010	0.6	330	1	62
2026-02-05T12:41	2.2	1010	0.6	330	1	62
2026-02-05T12:42	2.2	1010	0.6	330	1	62
2026-02-05T12:43	2.3	1010	0.7	330	1	62
2026-02-05T12:44	2.4	1010	0.6	330	0	62
2026-02-05T12:45	2.3	1010	0.4	330	0	63
2026-02-05T12:46	2.3	1010	0.2	330	0	63
2026-02-05T12:47	2.2	1010	0.1	0	0	63
2026-02-05T12:48	2.3	1010	0.4	0	0	63
2026-02-05T12:49	2.5	1010	0.6	0	0	63
2026-02-05T12:50	2.4	1010	0.5	0	0	64
2026-02-05T12:51	2.2	1010	0.1	0	0	64
2026-02-05T12:52	2.0	1010	-0.1	0	0	64
2026-02-05T12:53	2.1	1010	0.2	0	0	64
2026-02-05T12:54	2.1	1010	0.2	0	0	64
2026-02-05T12:55	2.1	1010	-0.1	0	0	63
2026-02-05T12:56	2.1	1010	-0.3	0	0	63
2026-02-05T12:57	2.1	1010	-0.1	0	0	63
2026-02-05T12:58	2.0	1010	-0.2	0	0	63
2026-02-05T12:59	2.0	1010	-0.2	0	0	63
2026-02-05T13:00	2.1	1010	0.0	0	0	63
2026-02-05T13:01	2.1	1010	0.2	0	0	63
2026-02-05T13:02	2.1	1010	0.5	0	0	62
2026-02-05T13:03	2.3	1010	0.8	0	0	62
2026-02-05T13:04	2.2	1010	0.7	0	0	62
2026-02-05T13:05	2.3	1010	0.8	0	0	62
2026-02-05T13:06	2.0	1010	0.5	0	0	61
2026-02-05T13:07	2.1	1010	0.8	0	0	61
2026-02-05T13:08	2.1	1010	0.9	0	0	61
2026-02-05T13:09	2.3	1010	1.1	0	0	61
2026-02-05T13:10	2.3	1010	1.1	0	0	61
2026-02-05T13:11	2.2	1010	1.0	0	0	60
2026-02-05T13:12	1.9	1010	0.6	0	0	60
2026-02-05T13:13	1.6	1010	0.0	0	0	60
2026-02-05T13:14	1.6	1010	-0.2	0	0	60
2026-02-05T13:15	1.8	1010	0.4	0	0	60
2026-02-05T13:16	1.6	1010	0.2	0	0	60
2026-02-05T13:17	1.6	1010	0.0	350	0	60
2026-02-05T13:18	1.7	1010	0.1	340	0	60
2026-02-05T13:19	1.8	1010	0.4	330	0	60
2026-02-05T13:20	1.5	1010	0.1	320	0	60
2026-02-05T13:21	1.4	1010	-0.2	310	0	60
2026-02-05T13:22	1.5	1010	0.1	300	0	60
2026-02-05T13:23	1.5	1010	0.1	290	0	60
2026-02-05T13:24	1.6	1010	0.2	0	0	60
2026-02-05T13:25	1.7	1010	0.3	0	0	60
2026-02-05T13:26	1.8	1010	0.5	0	0	60
2026-02-05T13:27	1.7	1010	0.4	0	0	60
2026-02-05T13:28	1.6	1010	0.2	0	0	60
2026-02-05T13:29	1.7	1010	0.4	0	0	60
2026-02-05T13:30	1.5	1010	0.2	0	0	60
2026-02-05T13:31	1.6	1010	0.3	0	0	60
2026-02-05T13:32	1.8	1010	0.7	0	0	60
2026-02-05T13:33	1.7	1010	0.6	0	0	60
2026-02-05T13:34	1.8	1010	0.7	0	0	60
2026-02-05T13:35	1.8	1010	0.7	0	0	60
2026-02-05T13:36	1.9	1010	0.8	0	0	60
2026-02-05T13:37	1.8	1010	0.7	0	0	60
2026-02-05T13:38	1.6	1010	0.5	0	0	60
2026-02-05T13:39	1.6	1010	0.5	0	0	59
2026-02-05T13:40	1.5	1010	0.4	0	0	59
2026-02-05T13:41	1.5	1010	0.5	0	0	59
2026-02-05T13:42	1.5	1010	0.5	0	0	59
2026-02-05T13:43	1.6	1010	0.6	0	0	59
2026-02-05T13:44	1.7	1010	0.8	0	0	59
2026-02-05T13:45	1.7	1010	0.8	0	0	59
2026-02-05T13:46	1.5	1010	0.7	0	0	59
2026-02-05T13:47	1.3	1010	0.3	0	0	59
2026-02-05T13:48	1.6	1010	0.6	0	0	59
2026-02-05T13:49	1.5	1010	0.4	0	0	59
2026-02-05T13:50	1.6	1010	0.5	0	0	59
2026-02-05T13:51	1.6	1010	0.5	0	0	59
2026-02-05T13:52	1.5	1010	0.4	0	0	59
2026-02-05T13:53	1.3	1010	0.2	0	0	59
2026-02-05T13:54	1.4	1010	0.3	0	0	59
2026-02-05T13:55	1.2	1010	0.1	0	0	59
2026-02-05T13:56	1.2	1010	0.1	0	0	59
2026-02-05T13:57	1.3	1010	0.3	0	0	59
2026-02-05T13:58	1.3	1010	0.5	0	0	58
2026-02-05T13:59	1.3	1010	0.5	0	0	58
2026-02-05T14:00	1.1	1010	0.4	350	0	58
2026-02-05T14:01	1.0	1010	0.2	350	0	58
2026-02-05T14:02	1.1	1010	0.3	350	0	58
2026-02-05T14:03	1.5	1010	0.8	350	0	57
2026-02-05T14:04	1.7	1010	1.1	360	0	57
2026-02-05T14:05	1.5	1010	0.8	360	0	57
2026-02-05T14:06	1.5	1010	0.8	10	0	57
2026-02-05T14:07	1.5	1010	0.8	10	0	57
2026-02-05T14:08	1.5	1010	0.8	20	0	57
2026-02-05T14:09	1.5	1010	0.9	30	0	57
2026-02-05T14:10	1.4	1010	0.8	0	0	58
2026-02-05T14:11	1.5	1010	0.9	0	0	58
2026-02-05T14:12	1.5	1010	0.8	0	0	58
2026-02-05T14:13	1.6	1010	0.9	0	0	58
2026-02-05T14:14	1.5	1010	0.8	0	0	58
2026-02-05T14:15	1.5	1010	0.8	90	0	58
2026-02-05T14:16	1.3	1010	0.6	80	0	58
2026-02-05T14:17	1.4	1010	0.7	80	0	58
2026-02-05T14:18	1.3	1010	0.6	0	0	58
2026-02-05T14:19	1.2	1010	0.5	0	0	58
2026-02-05T14:20	1.4	1010	0.7	0	0	57
2026-02-05T14:21	1.5	1010	0.8	20	0	57
2026-02-05T14:22	1.4	1010	0.8	10	0	57
2026-02-05T14:23	1.2	1010	0.5	360	0	57
2026-02-05T14:24	1.0	1010	0.3	350	1	57
2026-02-05T14:25	0.8	1010	0.1	350	1	57
2026-02-05T14:26	1.0	1010	0.3	350	1	56
2026-02-05T14:27	1.0	1010	0.4	350	1	56
2026-02-05T14:28	1.1	1010	0.5	350	1	56
2026-02-05T14:29	1.1	1010	0.5	350	1	56
2026-02-05T14:30	1.1	1010	0.5	350	1	56
2026-02-05T14:31	0.9	1010	0.3	350	1	56
2026-02-05T14:32	0.9	1010	0.3	350	1	56
2026-02-05T14:33	1.2	1010	0.6	350	1	56
2026-02-05T14:34	1.2	1010	0.6	350	0	56
2026-02-05T14:35	0.8	1010	0.3	350	0	57
2026-02-05T14:36	0.8	1010	0.0	0	0	57
2026-02-05T14:37	0.9	1010	0.1	0	0	57
2026-02-05T14:38	0.7	1010	0.0	0	0	57
2026-02-05T14:39	0.4	1010	-0.4	0	0	57
2026-02-05T14:40	0.6	1010	-0.2	0	0	57
2026-02-05T14:41	0.9	1009	0.2	280	0	57
2026-02-05T14:42	1.0	1009	0.4	250	0	57
2026-02-05T14:43	0.9	1009	0.3	220	0	57
2026-02-05T14:44	1.2	1009	0.6	190	1	57
2026-02-05T14:45	1.2	1009	0.6	170	1	57
2026-02-05T14:46	1.2	1009	0.6	150	1	57
2026-02-05T14:47	1.2	1009	0.6	150	1	56
2026-02-05T14:48	1.1	1009	0.5	140	1	56
2026-02-05T14:49	1.1	1009	0.5	130	0	56
2026-02-05T14:50	1.0	1009	0.6	120	0	56
2026-02-05T14:51	1.0	1009	0.6	120	0	56
2026-02-05T14:52	0.8	1009	0.4	0	0	55
2026-02-05T14:53	0.9	1009	0.5	0	0	55
2026-02-05T14:54	1.0	1009	0.6	0	0	55
2026-02-05T14:55	0.7	1009	0.3	0	0	55
2026-02-05T14:56	0.5	1009	0.0	0	0	55
2026-02-05T14:57	0.5	1009	-0.2	0	0	56
2026-02-05T14:58	0.4	1009	-0.4	0	0	56
2026-02-05T14:59	0.6	1009	-0.1	0	0	56
2026-02-05T15:00	0.6	1009	-0.1	0	0	56
2026-02-05T15:01	0.5	1009	-0.2	0	0	56
2026-02-05T15:02	0.5	1009	-0.2	0	0	56
2026-02-05T15:03	0.8	1009	0.1	0	0	56
2026-02-05T15:04	0.8	1009	0.3	0	0	57
2026-02-05T15:05	0.6	1009	0.1	0	0	57
2026-02-05T15:06	0.5	1009	0.0	0	0	56
2026-02-05T15:07	0.6	1009	0.1	0	0	56
2026-02-05T15:08	0.6	1009	0.1	0	0	56
2026-02-05T15:09	0.5	1009	0.0	0	0	55
2026-02-05T15:10	0.3	1009	-0.2	0	0	55
2026-02-05T15:11	0.4	1009	-0.1	40	0	55
2026-02-05T15:12	0.3	1009	-0.2	10	0	55
2026-02-05T15:13	0.4	1009	-0.1	350	0	55
2026-02-05T15:14	0.5	1009	0.0	330	0	55
2026-02-05T15:15	0.5	1009	0.0	320	1	55
2026-02-05T15:16	0.7	1009	0.3	320	1	49
2026-02-05T15:17	0.5	1009	0.1	310	1	48
2026-02-05T15:18	0.5	1009	0.1	310	1	48
2026-02-05T15:19	0.4	1009	0.0	310	1	55
2026-02-05T15:20	0.4	1009	-0.1	310	0	55
2026-02-05T15:21	0.4	1009	-0.1	310	0	55
2026-02-05T15:22	0.3	1009	-0.2	310	0	55
2026-02-05T15:23	0.5	1009	0.0	310	0	55
2026-02-05T15:24	0.6	1009	0.1	0	0	55
2026-02-05T15:25	0.3	1009	-0.2	0	0	55
2026-02-05T15:26	0.4	1009	-0.3	0	0	56
2026-02-05T15:27	0.5	1009	0.0	0	0	56
2026-02-05T15:28	0.3	1009	-0.4	280	0	57
2026-02-05T15:29	0.2	1009	-0.5	270	0	57
2026-02-05T15:30	0.0	1009	-0.7	260	0	57
2026-02-05T15:31	0.2	1009	-0.6	250	1	57
2026-02-05T15:32	0.6	1009	-0.1	240	1	57
2026-02-05T15:33	0.8	1009	0.3	230	1	57
2026-02-05T15:34	0.6	1009	0.1	230	1	57
2026-02-05T15:35	0.2	1009	-0.5	230	1	57
2026-02-05T15:36	-0.1	1009	-0.8	230	1	57
2026-02-05T15:37	-0.3	1009	-1.0	230	1	57
2026-02-05T15:38	-0.2	1009	-0.9	230	1	57
2026-02-05T15:39	0.0	1009	-0.7	230	1	57
2026-02-05T15:40	0.0	1009	-0.5	230	1	57
2026-02-05T15:41	0.1	1009	-0.4	230	1	57
2026-02-05T15:42	-0.1	1009	-0.7	240	1	57
2026-02-05T15:43	0.1	1009	-0.4	240	1	57
2026-02-05T15:44	0.2	1009	-0.3	240	1	57
2026-02-05T15:45	0.1	1009	-0.4	250	1	57
2026-02-05T15:46	-0.1	1009	-0.7	250	1	57
2026-02-05T15:47	0.0	1009	-0.5	250	1	56
2026-02-05T15:48	0.0	1009	-0.5	250	1	56
2026-02-05T15:49	0.1	1009	-0.4	250	1	56
2026-02-05T15:50	0.2	1009	-0.3	250	1	56
2026-02-05T15:51	0.3	1009	-0.2	250	1	56
2026-02-05T15:52	0.2	1009	-0.3	250	1	56
2026-02-05T15:53	0.2	1009	-0.5	250	1	56
2026-02-05T15:54	-0.1	1009	-0.8	250	1	56
2026-02-05T15:55	0.2	1009	-0.5	240	1	56
2026-02-05T15:56	0.4	1009	-0.1	240	1	56
2026-02-05T15:57	0.4	1009	-0.1	240	1	57
2026-02-05T15:58	0.1	1009	-0.4	240	1	56
2026-02-05T15:59	0.0	1009	-0.7	240	1	56
2026-02-05T16:00	0.1	1009	-0.6	240	1	56
2026-02-05T16:01	0.1	1009	-0.6	240	1	56
2026-02-05T16:02	0.3	1009	-0.4	240	1	56
2026-02-05T16:03	0.3	1009	-0.2	240	1	56
2026-02-05T16:04	-0.1	1009	-0.8	250	1	56
2026-02-05T16:05	-0.2	1009	-1.0	250	1	56
2026-02-05T16:06	0.2	1009	-0.6	250	1	56
2026-02-05T16:07	0.2	1009	-0.5	250	1	56
2026-02-05T16:08	0.2	1009	-0.5	250	1	56
2026-02-05T16:09	0.4	1009	-0.3	250	1	56
2026-02-05T16:10	-0.2	1009	-0.9	250	1	56
2026-02-05T16:11	-0.1	1009	-0.9	260	1	56
2026-02-05T16:12	0.0	1009	-0.7	250	1	56
2026-02-05T16:13	0.1	1009	-0.6	250	1	56
2026-02-05T16:14	0.0	1009	-0.7	250	1	56
2026-02-05T16:15	0.1	1009	-0.6	250	1	56
2026-02-05T16:16	-0.1	1009	-0.8	250	1	56
2026-02-05T16:17	0.1	1009	-0.6	250	1	56
2026-02-05T16:18	0.1	1009	-0.6	250	1	56
2026-02-05T16:19	-0.2	1009	-1.0	240	1	56
2026-02-05T16:20	-0.1	1009	-1.1	240	1	56
2026-02-05T16:21	0.0	1009	-1.0	240	1	56
2026-02-05T16:22	-0.1	1009	-0.9	240	1	56
2026-02-05T16:23	-0.1	1009	-0.9	240	1	56
2026-02-05T16:24	0.0	1009	-0.8	230	1	56
2026-02-05T16:25	0.0	1009	-0.8	230	1	56
2026-02-05T16:26	0.0	1009	-0.8	230	1	56
2026-02-05T16:27	0.1	1009	-0.7	230	1	56
2026-02-05T16:28	0.0	1009	-0.8	240	1	56
2026-02-05T16:29	0.0	1009	-1.0	240	1	56
2026-02-05T16:30	0.0	1009	-1.0	240	1	56
2026-02-05T16:31	0.1	1009	-0.7	240	1	55
2026-02-05T16:32	0.0	1009	-0.8	240	1	55
2026-02-05T16:33	-0.1	1009	-0.9	240	1	55
2026-02-05T16:34	-0.2	1009	-1.0	240	1	55
2026-02-05T16:35	-0.3	1009	-1.1	240	1	55
2026-02-05T16:36	-0.2	1009	-1.0	240	1	55
2026-02-05T16:37	-0.2	1009	-1.2	240	1	55
2026-02-05T16:38	-0.2	1009	-1.3	240	0	55
2026-02-05T16:39	-0.2	1009	-1.3	240	0	55
2026-02-05T16:40	-0.3	1009	-1.4	240	0	56
2026-02-05T16:41	-0.3	1009	-1.3	230	0	56
2026-02-05T16:42	-0.3	1009	-1.3	230	0	56
2026-02-05T16:43	-0.3	1009	-1.3	230	0	57
2026-02-05T16:44	-0.1	1009	-0.9	230	0	57
2026-02-05T16:45	0.2	1009	-0.5	230	0	57
2026-02-05T16:46	0.3	1009	-0.4	230	0	57
2026-02-05T16:47	0.0	1009	-0.8	0	0	57
2026-02-05T16:48	-0.2	1009	-1.0	0	0	56
2026-02-05T16:49	0.1	1009	-0.7	0	0	56
2026-02-05T16:50	0.0	1009	-0.8	0	0	56
2026-02-05T16:51	0.0	1009	-0.8	0	0	56
2026-02-05T16:52	0.2	1009	-0.5	0	0	56
2026-02-05T16:53	-0.1	1009	-0.8	0	0	56
2026-02-05T16:54	-0.3	1009	-1.1	0	0	55
2026-02-05T16:55	-0.3	1009	-1.1	0	0	55
2026-02-05T16:56	-0.4	1009	-1.2	0	0	55
2026-02-05T16:57	-0.2	1009	-0.9	0	0	55
2026-02-05T16:58	-0.1	1009	-0.8	0	0	55
2026-02-05T16:59	-0.3	1009	-1.0	0	0	55
2026-02-05T17:00	-0.5	1008	-1.3	0	0	55
2026-02-05T17:01	-0.4	1008	-1.2	0	0	55
2026-02-05T17:02	-0.2	1008	-1.0	0	0	55
2026-02-05T17:03	-0.2	1008	-0.9	220	0	55
2026-02-05T17:04	-0.3	1008	-1.0	210	0	55
2026-02-05T17:05	-0.4	1008	-1.2	210	1	55
2026-02-05T17:06	-0.4	1008	-1.1	200	1	55
2026-02-05T17:07	-0.6	1008	-1.4	190	1	55
2026-02-05T17:08	-0.8	1008	-1.6	190	1	56
2026-02-05T17:09	-1.0	1008	-2.0	190	1	56
2026-02-05T17:10	-1.1	1008	-2.1	190	1	56
2026-02-05T17:11	-1.2	1008	-2.2	200	1	55
2026-02-05T17:12	-1.3	1008	-2.3	210	1	55
2026-02-05T17:13	-0.9	1008	-1.7	220	1	55
2026-02-05T17:14	-0.5	1008	-1.2	230	1	56
2026-02-05T17:15	-0.5	1008	-1.1	240	0	56
2026-02-05T17:16	-0.9	1008	-1.6	250	1	56
2026-02-05T17:17	-0.9	1008	-1.7	260	1	56
2026-02-05T17:18	-0.9	1008	-1.7	260	1	56
2026-02-05T17:19	-0.8	1008	-1.6	270	1	56
2026-02-05T17:20	-0.7	1008	-1.4	270	1	55
2026-02-05T17:21	-0.9	1008	-1.6	270	1	55
2026-02-05T17:22	-0.8	1008	-1.5	270	1	55
2026-02-05T17:23	-0.8	1008	-1.5	270	1	55
2026-02-05T17:24	-0.9	1008	-1.6	270	1	55
2026-02-05T17:25	-1.2	1008	-1.9	270	1	55
2026-02-05T17:26	-1.3	1008	-2.1	270	1	55
2026-02-05T17:27	-1.0	1008	-1.8	270	1	55
2026-02-05T17:28	-0.8	1008	-1.5	270	1	55
2026-02-05T17:29	-1.0	1008	-1.7	260	1	55
2026-02-05T17:30	-1.0	1008	-1.7	260	1	55
2026-02-05T17:31	-0.8	1008	-1.5	250	1	55
2026-02-05T17:32	-1.0	1008	-1.7	250	1	55
2026-02-05T17:33	-1.3	1008	-2.0	250	1	55
2026-02-05T17:34	-1.1	1008	-1.8	250	1	55
2026-02-05T17:35	-0.7	1008	-1.3	250	1	55
2026-02-05T17:36	-0.7	1008	-1.3	250	1	55
2026-02-05T17:37	-0.9	1008	-1.5	260	1	55
2026-02-05T17:38	-0.9	1008	-1.5	260	1	55
2026-02-05T17:39	-0.9	1008	-1.5	250	1	55
2026-02-05T17:40	-1.1	1008	-1.7	250	1	55
2026-02-05T17:41	-1.0	1008	-1.7	250	1	55
2026-02-05T17:42	-1.0	1008	-1.6	250	1	55
2026-02-05T17:43	-1.1	1008	-1.7	240	1	55
2026-02-05T17:44	-1.3	1008	-1.9	230	1	48
2026-02-05T17:45	-0.9	1008	-1.5	230	1	47
2026-02-05T17:46	-0.7	1008	-1.1	230	1	47
2026-02-05T17:47	-0.7	1008	-1.1	220	1	47
2026-02-05T17:48	-0.8	1008	-1.2	220	1	47
2026-02-05T17:49	-0.9	1008	-1.3	210	0	46
2026-02-05T17:50	-1.0	1008	-1.4	200	0	46
2026-02-05T17:51	-1.1	1008	-1.5	190	0	46
2026-02-05T17:52	-0.9	1008	-1.3	0	0	47
2026-02-05T17:53	-0.7	1008	-1.1	0	0	55
2026-02-05T17:54	-0.7	1008	-1.1	0	0	55
2026-02-05T17:55	-0.7	1008	-1.1	0	0	55
2026-02-05T17:56	-0.7	1008	-1.1	0	0	55
2026-02-05T17:57	-0.8	1008	-1.2	0	0	55
2026-02-05T17:58	-0.7	1008	-1.1	0	0	55
2026-02-05T17:59	-1.0	1008	-1.4	140	0	55
2026-02-05T18:00	-1.0	1008	-1.4	140	0	49
2026-02-05T18:01	-1.2	1008	-1.6	140	0	49
2026-02-05T18:02	-1.3	1008	-1.7	150	0	47
2026-02-05T18:03	-1.3	1008	-1.7	150	0	46
2026-02-05T18:04	-1.2	1008	-1.6	150	0	44
2026-02-05T18:05	-1.2	1008	-1.6	150	0	44
2026-02-05T18:06	-1.2	1008	-1.6	150	1	44
2026-02-05T18:07	-1.2	1008	-1.5	140	1	44
2026-02-05T18:08	-1.4	1008	-1.8	140	1	43
2026-02-05T18:09	-1.2	1008	-1.6	140	1	44
2026-02-05T18:10	-1.1	1008	-1.4	150	1	44
2026-02-05T18:11	-1.2	1008	-1.5	150	1	45
2026-02-05T18:12	-1.3	1008	-1.7	150	1	46
2026-02-05T18:13	-1.4	1008	-1.8	150	1	47
2026-02-05T18:14	-1.5	1008	-1.9	150	1	46
2026-02-05T18:15	-1.9	1008	-2.3	150	1	45
2026-02-05T18:16	-1.7	1008	-2.1	150	1	44
2026-02-05T18:17	-1.2	1008	-1.6	140	0	44
2026-02-05T18:18	-1.1	1008	-1.4	140	0	44
2026-02-05T18:19	-1.4	1008	-1.7	140	0	43
2026-02-05T18:20	-1.5	1008	-1.8	130	0	41
2026-02-05T18:21	-1.5	1008	-1.8	130	0	40
2026-02-05T18:22	-1.4	1008	-1.7	0	0	39
2026-02-05T18:23	-1.5	1008	-1.9	0	0	39
2026-02-05T18:24	-1.5	1008	-1.9	0	0	41
2026-02-05T18:25	-1.4	1008	-1.8	0	0	43
2026-02-05T18:26	-1.4	1008	-1.8	190	0	44
2026-02-05T18:27	-1.5	1008	-1.9	220	0	45
2026-02-05T18:28	-1.5	1008	-1.9	240	0	46
2026-02-05T18:29	-1.3	1008	-1.7	0	0	48
2026-02-05T18:30	-1.4	1008	-1.8	250	0	55
2026-02-05T18:31	-1.4	1008	-1.8	260	0	55
2026-02-05T18:32	-1.3	1008	-1.7	0	0	55
2026-02-05T18:33	-1.4	1008	-1.8	0	0	55
2026-02-05T18:34	-1.5	1008	-1.9	250	0	55
2026-02-05T18:35	-1.5	1008	-1.9	250	0	48
2026-02-05T18:36	-1.6	1008	-2.0	250	1	47
2026-02-05T18:37	-1.7	1008	-2.1	250	1	46
2026-02-05T18:38	-1.9	1008	-2.3	250	1	46
2026-02-05T18:39	-2.0	1008	-2.5	250	1	47
2026-02-05T18:40	-2.0	1008	-2.5	250	1	46
2026-02-05T18:41	-2.0	1008	-2.5	260	1	46
2026-02-05T18:42	-1.9	1008	-2.4	260	1	45
2026-02-05T18:43	-1.8	1008	-2.2	260	1	45
2026-02-05T18:44	-1.9	1008	-2.3	260	1	46
2026-02-05T18:45	-1.6	1008	-2.0	260	1	47
2026-02-05T18:46	-1.6	1008	-2.0	250	1	49
2026-02-05T18:47	-1.4	1008	-1.7	250	1	55
2026-02-05T18:48	-1.6	1008	-2.0	250	1	55
2026-02-05T18:49	-1.9	1008	-2.3	260	1	55
2026-02-05T18:50	-1.3	1008	-1.7	260	1	55
2026-02-05T18:51	-1.4	1008	-1.8	260	1	55
2026-02-05T18:52	-1.5	1008	-1.9	260	1	55
2026-02-05T18:53	-1.4	1008	-1.8	270	1	55
2026-02-05T18:54	-1.4	1008	-1.8	270	1	55
2026-02-05T18:55	-1.3	1008	-1.7	280	1	55
2026-02-05T18:56	-1.2	1008	-1.6	280	1	48
2026-02-05T18:57	-1.2	1008	-1.5	290	1	46
2026-02-05T18:58	-1.3	1008	-1.7	290	1	45
2026-02-05T18:59	-1.3	1008	-1.7	280	1	45
2026-02-05T19:00	-1.1	1008	-1.4	280	1	42
2026-02-05T19:01	-1.2	1008	-1.5	280	1	42
2026-02-05T19:02	-1.2	1008	-1.6	280	1	42
2026-02-05T19:03	-1.4	1008	-1.8	280	1	42
2026-02-05T19:04	-1.5	1008	-1.9	270	1	43
2026-02-05T19:05	-1.4	1008	-1.8	270	1	43
2026-02-05T19:06	-1.4	1008	-1.8	270	1	42
2026-02-05T19:07	-1.5	1008	-1.9	260	1	41
2026-02-05T19:08	-1.5	1008	-1.9	260	1	42
2026-02-05T19:09	-1.3	1008	-1.7	270	1	41
2026-02-05T19:10	-1.5	1008	-1.9	270	1	41
2026-02-05T19:11	-1.4	1008	-1.8	270	1	40
2026-02-05T19:12	-1.5	1008	-1.9	270	1	39
2026-02-05T19:13	-1.6	1008	-2.0	260	1	37
2026-02-05T19:14	-1.7	1008	-2.1	260	1	35
2026-02-05T19:15	-1.5	1008	-1.9	250	1	35
2026-02-05T19:16	-1.5	1008	-1.8	250	1	35
2026-02-05T19:17	-1.6	1008	-1.9	240	1	36
2026-02-05T19:18	-1.4	1008	-1.7	230	1	36
2026-02-05T19:19	-1.5	1008	-1.8	230	1	34
2026-02-05T19:20	-1.6	1008	-1.9	220	0	33
2026-02-05T19:21	-1.6	1008	-1.9	220	0	32
2026-02-05T19:22	-1.5	1008	-1.8	210	1	33
2026-02-05T19:23	-1.7	1008	-2.0	210	1	33
2026-02-05T19:24	-1.6	1008	-1.9	220	1	34
2026-02-05T19:25	-1.4	1008	-1.7	220	1	35
2026-02-05T19:26	-1.4	1008	-1.7	220	1	36
2026-02-05T19:27	-1.6	1008	-1.9	230	1	35
2026-02-05T19:28	-1.6	1008	-1.9	240	1	35
2026-02-05T19:29	-1.5	1008	-1.8	240	1	35
2026-02-05T19:30	-1.7	1008	-2.0	250	1	37
2026-02-05T19:31	-1.7	1008	-2.0	260	1	38
2026-02-05T19:32	-1.5	1008	-1.8	260	1	37
2026-02-05T19:33	-1.4	1008	-1.7	260	1	37
2026-02-05T19:34	-1.5	1008	-1.8	260	1	37
2026-02-05T19:35	-1.8	1008	-2.1	260	1	35
2026-02-05T19:36	-1.8	1008	-2.1	260	1	34
2026-02-05T19:37	-1.8	1008	-2.1	260	0	33
2026-02-05T19:38	-1.8	1008	-2.1	260	0	34
2026-02-05T19:39	-1.6	1007	-1.9	260	0	34
2026-02-05T19:40	-1.7	1007	-2.0	20	0	34
2026-02-05T19:41	-1.8	1007	-2.1	40	0	33
2026-02-05T19:42	-1.9	1007	-2.2	330	0	32
2026-02-05T19:43	-1.9	1007	-2.2	340	1	32
2026-02-05T19:44	-1.8	1007	-2.1	340	1	33
2026-02-05T19:45	-1.6	1007	-1.7	340	1	34
2026-02-05T19:46	-1.6	1007	-1.7	340	1	36
2026-02-05T19:47	-1.7	1007	-2.0	340	1	37
2026-02-05T19:48	-2.4	1007	-2.7	290	1	36
2026-02-05T19:49	-2.2	1007	-2.6	270	1	36
2026-02-05T19:50	-2.1	1007	-2.5	260	1	36
2026-02-05T19:51	-2.0	1007	-2.3	250	1	37
2026-02-05T19:52	-2.0	1007	-2.3	250	1	38
2026-02-05T19:53	-2.0	1007	-2.3	250	1	38
2026-02-05T19:54	-1.8	1007	-2.1	240	1	38
2026-02-05T19:55	-1.9	1007	-2.2	240	1	36
2026-02-05T19:56	-1.9	1007	-2.2	240	1	35
2026-02-05T19:57	-1.9	1007	-2.2	250	1	34
2026-02-05T19:58	-1.8	1007	-2.1	250	0	35
2026-02-05T19:59	-1.8	1007	-2.1	250	0	33
2026-02-05T20:00	-1.8	1007	-2.1	250	0	33
2026-02-05T20:01	-1.8	1007	-2.1	250	1	33
2026-02-05T20:02	-2.1	1007	-2.4	250	1	34
2026-02-05T20:03	-2.3	1007	-2.6	250	1	34
2026-02-05T20:04	-2.1	1007	-2.5	250	1	35
2026-02-05T20:05	-2.3	1007	-2.7	250	1	36
2026-02-05T20:06	-2.1	1007	-2.5	250	1	37
2026-02-05T20:07	-2.1	1007	-2.5	250	1	38
2026-02-05T20:08	-2.2	1007	-2.6	250	1	40
2026-02-05T20:09	-2.3	1007	-2.7	250	1	42
2026-02-05T20:10	-2.2	1007	-2.6	250	1	43
2026-02-05T20:11	-2.3	1007	-2.7	250	1	42
2026-02-05T20:12	-2.4	1007	-2.8	250	1	40
2026-02-05T20:13	-2.4	1007	-2.8	260	1	39
2026-02-05T20:14	-2.4	1007	-2.8	260	1	38
2026-02-05T20:15	-2.3	1007	-2.6	260	1	38
2026-02-05T20:16	-2.3	1007	-2.6	260	1	39
2026-02-05T20:17	-2.5	1007	-2.9	260	1	39
2026-02-05T20:18	-2.5	1007	-2.9	260	1	39
2026-02-05T20:19	-2.4	1007	-2.8	260	1	39
2026-02-05T20:20	-2.2	1007	-2.6	260	1	41
2026-02-05T20:21	-2.0	1007	-2.3	260	1	42
2026-02-05T20:22	-2.2	1007	-2.5	260	1	44
2026-02-05T20:23	-2.2	1007	-2.6	250	1	45
2026-02-05T20:24	-2.3	1007	-2.7	250	1	45
2026-02-05T20:25	-2.2	1007	-2.6	250	1	44
2026-02-05T20:26	-2.2	1007	-2.5	250	1	43
2026-02-05T20:27	-2.1	1007	-2.4	250	1	41
2026-02-05T20:28	-2.1	1007	-2.4	260	1	40
2026-02-05T20:29	-2.2	1007	-2.5	260	1	37
2026-02-05T20:30	-2.3	1007	-2.6	260	1	35
2026-02-05T20:31	-2.5	1007	-2.8	260	1	32
2026-02-05T20:32	-2.5	1007	-2.8	260	1	31
2026-02-05T20:33	-2.3	1007	-2.6	260	1	30
2026-02-05T20:34	-2.4	1007	-2.7	260	1	30
2026-02-05T20:35	-2.2	1007	-2.5	260	1	30
2026-02-05T20:36	-2.5	1007	-2.8	260	1	30
2026-02-05T20:37	-2.4	1007	-2.7	260	1	29
2026-02-05T20:38	-2.3	1007	-2.6	260	1	30
2026-02-05T20:39	-2.3	1007	-2.6	260	1	29
2026-02-05T20:40	-2.4	1007	-2.7	260	1	29
2026-02-05T20:41	-2.4	1007	-2.7	260	1	30
2026-02-05T20:42	-2.3	1007	-2.4	260	1	30
2026-02-05T20:43	-2.3	1007	-2.4	260	1	30
2026-02-05T20:44	-2.4	1007	-2.5	260	1	30
2026-02-05T20:45	-2.2	1007	-2.3	260	1	29
2026-02-05T20:46	-2.3	1007	-2.4	270	1	29
2026-02-05T20:47	-2.4	1007	-2.5	270	1	28
2026-02-05T20:48	-2.4	1007	-2.5	270	1	28
2026-02-05T20:49	-2.5	1007	-2.6	280	1	28
2026-02-05T20:50	-2.7	1007	-2.8	280	1	29
2026-02-05T20:51	-2.6	1007	-2.9	280	1	29
2026-02-05T20:52	-2.6	1007	-2.7	290	1	30
2026-02-05T20:53	-2.4	1007	-2.5	290	1	29
2026-02-05T20:54	-2.2	1007	-2.3	290	1	29
2026-02-05T20:55	-2.4	1007	-2.5	290	1	30
2026-02-05T20:56	-2.3	1007	-2.4	290	1	31
2026-02-05T20:57	-2.3	1007	-2.4	290	1	31
2026-02-05T20:58	-2.2	1007	-2.3	300	1	32
2026-02-05T20:59	-2.5	1007	-2.6	300	1	33
2026-02-05T21:00	-2.5	1007	-2.6	300	1	33
2026-02-05T21:01	-2.5	1007	-2.6	300	1	33
2026-02-05T21:02	-2.4	1007	-2.5	300	1	33
2026-02-05T21:03	-2.4	1007	-2.5	310	1	34
2026-02-05T21:04	-2.4	1007	-2.5	310	1	34
2026-02-05T21:05	-2.3	1007	-2.4	310	1	34
2026-02-05T21:06	-1.9	1007	-2.0	310	1	36
2026-02-05T21:07	-2.0	1007	-2.1	310	1	37
2026-02-05T21:08	-2.1	1007	-2.2	310	1	38
2026-02-05T21:09	-2.0	1007	-2.3	310	1	40
2026-02-05T21:10	-2.1	1007	-2.4	310	1	40
2026-02-05T21:11	-2.1	1007	-2.4	310	1	43
2026-02-05T21:12	-2.1	1007	-2.4	310	1	46
2026-02-05T21:13	-2.1	1008	-2.5	300	1	55
2026-02-05T21:14	-1.7	1008	-2.1	300	1	55
2026-02-05T21:15	-2.0	1008	-2.4	300	1	55
2026-02-05T21:16	-1.8	1008	-2.2	300	1	55
2026-02-05T21:17	-1.9	1008	-2.3	300	1	56
2026-02-05T21:18	-2.1	1008	-2.5	300	1	56
2026-02-05T21:19	-2.0	1008	-2.5	290	1	56
2026-02-05T21:20	-2.1	1008	-2.6	290	1	56
2026-02-05T21:21	-1.6	1008	-2.1	290	1	57
2026-02-05T21:22	-1.3	1008	-1.7	280	1	57
2026-02-05T21:23	-1.9	1008	-2.4	280	1	57
2026-02-05T21:24	-1.9	1008	-2.6	280	1	57
2026-02-05T21:25	-2.0	1008	-2.7	280	1	57
2026-02-05T21:26	-1.9	1008	-2.6	280	1	57
2026-02-05T21:27	-2.1	1008	-2.8	270	1	57
2026-02-05T21:28	-2.1	1008	-2.8	270	1	57
2026-02-05T21:29	-2.3	1008	-3.0	270	1	57
2026-02-05T21:30	-2.1	1008	-2.8	270	1	57
2026-02-05T21:31	-2.0	1008	-2.7	270	1	57
2026-02-05T21:32	-2.2	1008	-2.9	270	1	56
2026-02-05T21:33	-2.3	1008	-3.0	260	1	56
2026-02-05T21:34	-2.5	1008	-3.2	260	1	56
2026-02-05T21:35	-2.2	1008	-2.9	260	1	56
2026-02-05T21:36	-2.0	1008	-2.5	250	1	56
2026-02-05T21:37	-1.8	1008	-2.3	250	1	56
2026-02-05T21:38	-2.0	1008	-2.5	250	1	56
2026-02-05T21:39	-2.4	1008	-3.1	250	1	56
2026-02-05T21:40	-2.2	1008	-2.9	240	1	56
2026-02-05T21:41	-2.1	1008	-2.8	240	1	56
2026-02-05T21:42	-2.4	1008	-3.1	240	1	56
2026-02-05T21:43	-2.5	1008	-3.2	230	1	56
2026-02-05T21:44	-2.3	1008	-3.0	230	1	56
2026-02-05T21:45	-2.2	1008	-2.9	220	1	56
2026-02-05T21:46	-2.3	1008	-2.8	220	1	56
2026-02-05T21:47	-2.7	1008	-3.4	220	1	56
2026-02-05T21:48	-2.5	1008	-3.2	210	1	56
2026-02-05T21:49	-2.4	1008	-3.1	210	1	57
2026-02-05T21:50	-2.9	1008	-3.6	210	1	57
2026-02-05T21:51	-2.8	1008	-3.5	210	1	57
2026-02-05T21:52	-2.5	1008	-3.2	200	1	57
2026-02-05T21:53	-2.1	1008	-2.6	200	1	57
2026-02-05T21:54	-1.9	1008	-2.3	190	1	58
2026-02-05T21:55	-1.9	1008	-2.3	190	1	58
2026-02-05T21:56	-1.9	1008	-2.4	190	1	58
2026-02-05T21:57	-1.9	1008	-2.4	180	1	58
2026-02-05T21:58	-1.7	1008	-2.2	180	1	58
2026-02-05T21:59	-2.0	1008	-2.5	170	1	58
2026-02-05T22:00	-2.3	1008	-3.0	170	1	58
2026-02-05T22:01	-2.5	1008	-3.2	170	1	58
2026-02-05T22:02	-2.5	1008	-3.2	170	1	57
2026-02-05T22:03	-2.4	1008	-3.1	180	1	57
2026-02-05T22:04	-1.8	1008	-2.3	190	1	57
2026-02-05T22:05	-1.6	1008	-2.0	200	0	58
2026-02-05T22:06	-1.5	1008	-1.9	210	0	58
2026-02-05T22:07	-2.0	1008	-2.4	0	0	58
2026-02-05T22:08	-2.0	1008	-2.5	0	0	58
2026-02-05T22:09	-1.9	1008	-2.4	0	0	58
2026-02-05T22:10	-2.2	1008	-2.7	0	0	58
2026-02-05T22:11	-2.3	1008	-2.8	240	0	58
2026-02-05T22:12	-2.0	1008	-2.5	230	0	58
2026-02-05T22:13	-1.7	1008	-2.2	220	0	58
2026-02-05T22:14	-1.5	1008	-2.0	210	1	58
2026-02-05T22:15	-1.6	1008	-2.1	210	1	58
2026-02-05T22:16	-1.8	1008	-2.5	200	1	58
2026-02-05T22:17	-1.9	1008	-2.6	200	1	58
2026-02-05T22:18	-2.0	1008	-2.8	200	1	58
2026-02-05T22:19	-1.6	1008	-2.3	210	1	58
2026-02-05T22:20	-1.4	1008	-2.1	220	1	59
2026-02-05T22:21	-1.3	1008	-2.0	230	1	59
2026-02-05T22:22	-1.3	1008	-2.0	240	1	59
2026-02-05T22:23	-1.3	1008	-2.0	250	1	59
2026-02-05T22:24	-1.2	1008	-2.0	260	1	59
2026-02-05T22:25	-1.2	1008	-2.0	270	1	59
2026-02-05T22:26	-1.2	1008	-2.0	270	1	59
2026-02-05T22:27	-1.1	1008	-1.9	280	1	59
2026-02-05T22:28	-1.0	1008	-1.8	290	1	59
2026-02-05T22:29	-1.1	1008	-1.9	290	1	59
2026-02-05T22:30	-1.0	1008	-1.8	290	1	59
2026-02-05T22:31	-1.0	1008	-1.8	290	1	60
2026-02-05T22:32	-1.0	1008	-2.0	290	1	60
2026-02-05T22:33	-0.8	1008	-1.8	290	1	60
2026-02-05T22:34	-0.7	1008	-1.7	290	1	60
2026-02-05T22:35	-0.7	1008	-1.8	280	1	60
2026-02-05T22:36	-0.7	1008	-1.7	280	1	59
2026-02-05T22:37	-0.6	1008	-1.6	280	1	59
2026-02-05T22:38	-0.5	1008	-1.5	280	1	60
2026-02-05T22:39	-0.5	1008	-1.5	290	1	59
2026-02-05T22:40	-0.6	1008	-1.7	290	1	59
2026-02-05T22:41	-0.4	1008	-1.5	290	1	59
2026-02-05T22:42	-0.1	1008	-1.1	290	1	59
2026-02-05T22:43	0.0	1008	-1.0	300	1	59
2026-02-05T22:44	0.2	1008	-0.9	300	1	59
2026-02-05T22:45	0.1	1008	-1.2	300	1	59
2026-02-05T22:46	0.3	1008	-1.0	310	1	60
2026-02-05T22:47	0.7	1008	-0.7	310	1	60
2026-02-05T22:48	1.1	1008	-0.5	310	1	60
2026-02-05T22:49	1.2	1008	-0.6	310	1	61
2026-02-05T22:50	1.2	1008	-0.7	310	1	61
2026-02-05T22:51	1.4	1008	-1.0	310	1	61
2026-02-05T22:52	1.4	1008	-1.2	310	1	62
2026-02-05T22:53	1.5	1008	-1.4	320	1	62
2026-02-05T22:54	1.6	1008	-1.3	320	1	63
2026-02-05T22:55	1.9	1008	-1.2	320	1	64
2026-02-05T22:56	1.8	1008	-1.3	320	1	64
2026-02-05T22:57	1.9	1008	-1.2	320	1	64
2026-02-05T22:58	2.1	1008	-0.8	320	1	64
2026-02-05T22:59	2.3	1008	-0.3	320	1	64
2026-02-05T23:00	2.3	1008	-1.0	320	1	65
2026-02-05T23:01	2.3	1008	-1.1	310	1	65
2026-02-05T23:02	2.4	1008	-1.0	310	1	64
2026-02-05T23:03	2.5	1008	-1.3	310	1	65
2026-02-05T23:04	2.6	1008	-1.2	310	1	65
2026-02-05T23:05	2.6	1008	-1.4	310	2	65
2026-02-05T23:06	2.6	1008	-1.4	310	2	66
2026-02-05T23:07	2.7	1008	-1.1	310	2	66
2026-02-05T23:08	2.7	1008	-0.9	310	2	66
2026-02-05T23:09	2.6	1008	-1.4	310	2	66
2026-02-05T23:10	2.6	1008	-1.6	310	2	66
2026-02-05T23:11	2.7	1008	-1.5	310	2	65
2026-02-05T23:12	2.7	1008	-1.6	310	2	66
2026-02-05T23:13	2.7	1008	-1.6	310	1	66
2026-02-05T23:14	2.8	1008	-1.4	320	1	66
2026-02-05T23:15	2.9	1008	-1.5	320	1	67
2026-02-05T23:16	2.9	1008	-1.5	320	1	67
2026-02-05T23:17	2.9	1008	-1.5	320	1	67
2026-02-05T23:18	3.0	1008	-1.4	320	1	67
2026-02-05T23:19	3.2	1008	-0.6	320	2	68
2026-02-05T23:20	3.1	1008	-1.1	320	2	68
2026-02-05T23:21	3.0	1008	-1.4	320	2	69
2026-02-05T23:22	3.1	1008	-1.1	320	2	68
2026-02-05T23:23	3.2	1008	-1.0	320	2	68
2026-02-05T23:24	3.4	1008	-0.8	320	2	68
2026-02-05T23:25	3.8	1008	0.2	320	2	68
2026-02-05T23:26	3.7	1008	-0.3	320	2	68
2026-02-05T23:27	3.9	1008	-0.3	320	2	68
2026-02-05T23:28	4.1	1008	-0.1	310	2	68
2026-02-05T23:29	3.8	1008	-1.0	310	2	67
2026-02-05T23:30	3.9	1008	-0.9	310	2	67
2026-02-05T23:31	4.0	1008	-0.8	310	2	66
2026-02-05T23:32	4.3	1008	-0.3	310	2	67
2026-02-05T23:33	4.3	1008	-0.3	310	2	67
2026-02-05T23:34	4.3	1008	-0.5	300	2	67
2026-02-05T23:35	4.3	1008	-0.7	300	2	66
2026-02-05T23:36	4.1	1008	-1.1	300	2	67
2026-02-05T23:37	4.2	1008	-1.0	310	2	68
2026-02-05T23:38	4.3	1008	-0.9	310	2	68
2026-02-05T23:39	4.2	1008	-1.2	310	2	68
2026-02-05T23:40	4.1	1008	-1.3	320	2	68
2026-02-05T23:41	4.2	1007	-1.2	320	2	68
2026-02-05T23:42	4.4	1007	-0.8	320	2	68
2026-02-05T23:43	4.7	1007	-0.3	320	2	68
2026-02-05T23:44	5.0	1007	0.0	320	2	68
2026-02-05T23:45	5.0	1008	-0.2	320	2	68
2026-02-05T23:46	5.2	1008	0.0	320	2	68
2026-02-05T23:47	4.9	1008	-0.7	310	2	68
2026-02-05T23:48	5.0	1008	-0.6	310	2	68
2026-02-05T23:49	5.0	1008	-0.6	300	2	69
2026-02-05T23:50	5.0	1008	-0.6	300	2	69
2026-02-05T23:51	5.2	1008	-0.4	290	2	69
2026-02-05T23:52	5.1	1008	-0.7	290	2	69
2026-02-05T23:53	5.4	1008	-0.2	290	2	70
2026-02-05T23:54	5.4	1008	-0.4	280	2	70
2026-02-05T23:55	5.4	1008	-0.6	280	2	70
2026-02-05T23:56	5.7	1007	-0.1	280	2	70
2026-02-05T23:57	5.4	1007	-0.8	280	2	70
2026-02-05T23:58	5.5	1007	-1.0	280	2	70
2026-02-05T23:59	5.9	1007	-0.4	290	2	70
2026-02-06T00:00	5.9	1007	-0.6	290	2	70
2026-02-06T00:01	5.9	1007	-0.8	290	2	70
2026-02-06T00:02	5.8	1007	-0.9	290	2	70
2026-02-06T00:03	6.6	1007	0.1	290	2	70
2026-02-06T00:04	6.5	1007	-0.2	300	2	70
2026-02-06T00:05	6.1	1007	-1.1	300	2	70
2026-02-06T00:06	6.3	1007	-0.9	300	2	70
2026-02-06T00:07	6.7	1007	-0.3	300	2	70
2026-02-06T00:08	6.4	1007	-1.0	310	2	70
2026-02-06T00:09	6.4	1007	-1.0	310	2	70
2026-02-06T00:10	6.7	1007	-0.5	310	2	70
2026-02-06T00:11	6.9	1007	-0.3	310	2	70
2026-02-06T00:12	6.3	1007	-1.3	310	2	70
2026-02-06T00:13	6.3	1007	-1.3	310	2	70
2026-02-06T00:14	6.6	1007	-0.8	320	2	70
2026-02-06T00:15	6.7	1007	-0.7	320	2	70
2026-02-06T00:16	6.7	1007	-1.0	320	2	70
2026-02-06T00:17	6.6	1007	-1.1	320	2	70
2026-02-06T00:18	6.9	1007	-0.5	310	2	70
2026-02-06T00:19	6.8	1007	-0.9	310	2	70
2026-02-06T00:20	7.2	1007	-0.3	310	2	70
2026-02-06T00:21	7.3	1007	-0.4	300	2	70
2026-02-06T00:22	7.1	1007	-0.8	300	2	70
2026-02-06T00:23	7.1	1007	-0.8	300	2	70
2026-02-06T00:24	7.3	1007	-0.6	300	2	70
2026-02-06T00:25	7.3	1007	-0.6	290	2	70
2026-02-06T00:26	7.4	1007	-0.5	280	2	70
2026-02-06T00:27	7.3	1008	-0.9	280	2	70
2026-02-06T00:28	7.3	1008	-0.9	280	2	70
2026-02-06T00:29	7.4	1008	-0.8	280	2	70
2026-02-06T00:30	8.2	1008	0.2	280	2	70
2026-02-06T00:31	8.3	1007	-0.2	280	2	70
2026-02-06T00:32	8.7	1007	0.2	280	2	70
2026-02-06T00:33	8.8	1007	0.0	280	2	70
2026-02-06T00:34	8.8	1007	-0.2	280	2	70
2026-02-06T00:35	8.6	1007	-0.7	290	2	70
2026-02-06T00:36	8.5	1007	-0.8	290	2	70
2026-02-06T00:37	8.7	1007	-0.6	290	2	70
2026-02-06T00:38	8.8	1007	-0.5	300	2	70
2026-02-06T00:39	8.6	1007	-1.0	300	2	70
2026-02-06T00:40	9.0	1007	-0.3	290	2	70
2026-02-06T00:41	9.1	1007	-0.5	290	2	70
2026-02-06T00:42	8.4	1007	-1.4	290	2	70
2026-02-06T00:43	8.2	1007	-1.6	290	2	70
2026-02-06T00:44	8.4	1007	-1.1	300	2	70
2026-02-06T00:45	9.0	1007	-0.3	290	2	70
2026-02-06T00:46	8.8	1007	-0.8	290	2	70
2026-02-06T00:47	8.9	1007	-0.7	300	2	70
2026-02-06T00:48	8.8	1007	-0.8	300	2	70
2026-02-06T00:49	8.5	1007	-1.0	300	2	70
2026-02-06T00:50	8.6	1007	-1.0	300	2	70
2026-02-06T00:51	9.1	1007	-0.2	300	2	70
2026-02-06T00:52	9.4	1007	0.1	310	2	70
2026-02-06T00:53	8.7	1007	-1.1	310	2	70
2026-02-06T00:54	8.5	1007	-1.3	310	2	70
2026-02-06T00:55	8.5	1007	-1.0	310	2	70
2026-02-06T00:56	8.6	1007	-0.7	310	2	70
2026-02-06T00:57	8.3	1007	-1.2	310	2	70
2026-02-06T00:58	8.3	1007	-1.2	310	2	70
2026-02-06T00:59	8.6	1007	-0.7	310	2	70
2026-02-06T01:00	8.4	1007	-1.1	320	2	70
2026-02-06T01:01	8.2	1007	-1.3	320	2	70
2026-02-06T01:02	8.2	1007	-1.1	320	2	70
2026-02-06T01:03	8.3	1007	-1.0	320	2	70
2026-02-06T01:04	8.7	1007	-0.6	320	2	70
2026-02-06T01:05	8.9	1007	-0.4	320	2	70
2026-02-06T01:06	8.9	1007	-0.7	320	2	70
2026-02-06T01:07	8.8	1007	-0.8	320	2	70
2026-02-06T01:08	9.4	1007	-0.2	320	2	70
2026-02-06T01:09	9.0	1007	-0.9	320	2	70
2026-02-06T01:10	9.1	1007	-0.8	320	2	70
2026-02-06T01:11	9.1	1007	-0.8	320	2	70
2026-02-06T01:12	9.4	1007	-0.5	320	2	70
2026-02-06T01:13	9.3	1007	-0.9	310	2	70
2026-02-06T01:14	9.3	1007	-0.9	310	2	70
2026-02-06T01:15	9.2	1007	-1.2	320	2	70
2026-02-06T01:16	9.7	1007	-0.5	310	2	69
2026-02-06T01:17	10.2	1007	0.0	310	2	69
2026-02-06T01:18	10.1	1007	-0.7	310	2	69
2026-02-06T01:19	9.7	1007	-1.1	310	2	69
2026-02-06T01:20	9.6	1007	-1.1	300	2	69
2026-02-06T01:21	9.5	1007	-1.2	300	2	69
2026-02-06T01:22	9.9	1007	-0.6	300	2	70
2026-02-06T01:23	10.0	1007	-0.8	300	2	70
2026-02-06T01:24	10.0	1007	-0.8	300	2	70
2026-02-06T01:25	10.0	1007	-0.8	300	2	70
2026-02-06T01:26	9.9	1007	-1.2	300	2	70
2026-02-06T01:27	9.7	1007	-1.3	310	2	70
2026-02-06T01:28	9.9	1007	-0.9	310	2	70
2026-02-06T01:29	9.9	1007	-1.2	300	2	70
2026-02-06T01:30	10.0	1007	-1.1	300	2	70
2026-02-06T01:31	9.9	1007	-1.2	300	2	70
2026-02-06T01:32	10.0	1007	-1.1	310	2	70
2026-02-06T01:33	10.0	1007	-1.1	320	2	70
2026-02-06T01:34	10.1	1007	-1.0	310	2	70
2026-02-06T01:35	10.5	1007	-0.6	310	2	70
2026-02-06T01:36	11.1	1007	-0.1	310	2	70
2026-02-06T01:37	10.8	1007	-1.0	300	2	70
2026-02-06T01:38	10.5	1007	-1.2	300	2	70
2026-02-06T01:39	10.5	1007	-0.9	310	2	70
2026-02-06T01:40	10.5	1007	-0.9	300	2	70
2026-02-06T01:41	10.6	1007	-0.8	300	2	70
2026-02-06T01:42	10.4	1007	-1.0	290	2	70
2026-02-06T01:43	10.6	1007	-0.8	280	2	70
2026-02-06T01:44	10.6	1007	-0.8	280	2	70
2026-02-06T01:45	10.7	1006	-0.7	270	2	70
2026-02-06T01:46	11.0	1007	-0.5	270	2	70
2026-02-06T01:47	11.4	1006	-0.1	270	2	70
2026-02-06T01:48	11.1	1006	-0.7	270	2	70
2026-02-06T01:49	11.2	1006	-0.6	270	2	70
2026-02-06T01:50	11.1	1006	-1.0	270	2	70
2026-02-06T01:51	11.0	1006	-1.1	270	2	70
2026-02-06T01:52	11.2	1006	-0.9	280	2	70
2026-02-06T01:53	11.3	1006	-1.1	280	2	70
2026-02-06T01:54	11.4	1006	-1.0	280	2	70
2026-02-06T01:55	11.4	1006	-1.0	290	2	70
2026-02-06T01:56	11.2	1006	-1.2	290	2	70
2026-02-06T01:57	11.7	1006	-0.8	280	2	70
2026-02-06T01:58	11.6	1006	-1.2	280	2	70
2026-02-06T01:59	11.5	1006	-1.3	270	2	70
2026-02-06T02:00	11.7	1006	-1.1	270	2	70
2026-02-06T02:01	11.6	1006	-1.2	260	2	70
2026-02-06T02:02	11.2	1006	-1.9	260	2	70
2026-02-06T02:03	11.4	1006	-1.4	250	2	70
2026-02-06T02:04	11.4	1006	-1.4	250	2	70
2026-02-06T02:05	11.6	1006	-1.2	240	2	70
2026-02-06T02:06	11.4	1006	-1.7	230	2	70
2026-02-06T02:07	11.0	1006	-2.1	240	2	70
2026-02-06T02:08	11.3	1006	-1.5	240	2	70
2026-02-06T02:09	11.3	1006	-1.8	240	2	70
2026-02-06T02:10	11.6	1006	-1.2	240	2	70
2026-02-06T02:11	11.8	1006	-1.3	250	2	70
2026-02-06T02:12	11.2	1006	-2.2	260	2	70
2026-02-06T02:13	11.4	1006	-1.7	260	2	70
2026-02-06T02:14	11.4	1006	-1.7	270	2	70
2026-02-06T02:15	11.7	1006	-1.4	280	2	70
2026-02-06T02:16	11.6	1006	-1.5	280	2	70
2026-02-06T02:17	11.4	1006	-2.0	280	2	70
2026-02-06T02:18	11.3	1006	-1.8	280	2	70
2026-02-06T02:19	11.4	1006	-1.7	280	2	70
2026-02-06T02:20	11.7	1006	-1.4	270	2	70
2026-02-06T02:21	11.7	1006	-1.4	260	2	70
2026-02-06T02:22	11.9	1006	-1.3	250	2	70
2026-02-06T02:23	11.7	1006	-1.8	240	2	70
2026-02-06T02:24	12.2	1006	-1.3	240	2	70
2026-02-06T02:25	11.7	1006	-2.1	230	2	70
2026-02-06T02:26	11.4	1005	-2.4	230	2	70
2026-02-06T02:27	11.6	1005	-1.9	220	1	70
2026-02-06T02:28	11.7	1005	-1.8	220	1	70
2026-02-06T02:29	12.0	1005	-1.5	230	1	70
2026-02-06T02:30	11.8	1005	-2.0	240	1	70
2026-02-06T02:31	11.9	1005	-1.6	260	1	70
2026-02-06T02:32	12.6	1005	-1.0	270	1	70
2026-02-06T02:33	12.1	1005	-1.8	270	1	70
2026-02-06T02:34	12.0	1005	-1.9	270	1	70
2026-02-06T02:35	12.3	1005	-1.6	270	1	70
2026-02-06T02:36	12.2	1005	-1.7	260	1	70
2026-02-06T02:37	12.1	1005	-1.8	260	1	70
2026-02-06T02:38	12.3	1005	-1.2	250	1	70
2026-02-06T02:39	12.2	1005	-1.7	240	2	70
2026-02-06T02:40	12.1	1005	-1.8	230	2	70
2026-02-06T02:41	12.2	1005	-1.7	210	2	70
2026-02-06T02:42	12.6	1005	-1.3	200	2	70
2026-02-06T02:43	12.4	1005	-1.5	190	1	70
2026-02-06T02:44	12.1	1005	-1.8	200	2	70
2026-02-06T02:45	12.1	1005	-1.8	40	2	70
2026-02-06T02:46	12.7	1005	-0.9	330	2	70
2026-02-06T02:47	12.2	1005	-1.7	240	2	70
2026-02-06T02:48	12.2	1005	-1.7	270	1	70
2026-02-06T02:49	12.0	1005	-1.9	290	1	70
2026-02-06T02:50	12.1	1005	-1.4	300	1	70
2026-02-06T02:51	12.3	1005	-1.2	300	1	70
2026-02-06T02:52	12.4	1005	-1.2	300	1	70
2026-02-06T02:53	12.3	1005	-1.6	290	1	70
2026-02-06T02:54	11.9	1005	-2.0	300	1	70
2026-02-06T02:55	11.9	1005	-2.0	300	1	70
2026-02-06T02:56	11.8	1005	-2.0	300	1	70
2026-02-06T02:57	11.8	1005	-1.7	300	1	70
2026-02-06T02:58	11.8	1005	-1.7	310	1	70
2026-02-06T02:59	11.8	1005	-1.7	310	1	70
2026-02-06T03:00	12.1	1005	-1.4	320	1	70
2026-02-06T03:01	12.2	1005	-1.3	320	1	70
2026-02-06T03:02	12.3	1005	-1.2	320	1	70
2026-02-06T03:03	12.2	1005	-1.7	320	1	70
2026-02-06T03:04	12.5	1005	-1.8	320	1	70
2026-02-06T03:05	12.5	1004	-1.8	300	1	70
2026-02-06T03:06	12.5	1004	-2.1	280	1	70
2026-02-06T03:07	12.6	1004	-2.1	260	1	70
2026-02-06T03:08	12.8	1004	-1.9	230	1	70
2026-02-06T03:09	12.8	1004	-1.9	200	1	70
2026-02-06T03:10	12.7	1004	-2.4	180	1	70
2026-02-06T03:11	12.8	1004	-2.3	170	1	70
2026-02-06T03:12	13.0	1004	-2.1	170	1	70
2026-02-06T03:13	13.0	1004	-2.1	170	1	70
2026-02-06T03:14	12.8	1004	-2.3	160	1	70
2026-02-06T03:15	13.0	1004	-2.1	160	1	70
2026-02-06T03:16	12.7	1004	-2.4	150	1	70
2026-02-06T03:17	12.7	1004	-2.4	160	1	70
2026-02-06T03:18	13.2	1004	-1.9	160	1	70
2026-02-06T03:19	13.2	1004	-2.3	170	1	70
2026-02-06T03:20	13.3	1004	-1.8	170	1	70
2026-02-06T03:21	13.3	1004	-2.2	180	1	70
2026-02-06T03:22	13.2	1004	-2.3	190	1	70
2026-02-06T03:23	12.9	1004	-2.6	200	1	70
2026-02-06T03:24	13.0	1004	-2.1	210	1	70
2026-02-06T03:25	13.1	1004	-2.0	210	2	70
2026-02-06T03:26	13.1	1004	-2.0	220	2	70
2026-02-06T03:27	13.0	1004	-2.5	220	2	70
2026-02-06T03:28	12.8	1004	-2.3	210	2	70
2026-02-06T03:29	12.8	1004	-2.3	210	2	70
2026-02-06T03:30	13.3	1004	-1.8	200	2	70
2026-02-06T03:31	13.6	1004	-1.6	190	2	70
2026-02-06T03:32	13.2	1004	-2.3	180	2	70
2026-02-06T03:33	13.0	1004	-2.5	170	2	70
2026-02-06T03:34	13.2	1004	-2.3	160	2	70
2026-02-06T03:35	13.1	1004	-2.4	160	2	70
2026-02-06T03:36	13.0	1004	-2.5	160	2	70
2026-02-06T03:37	13.0	1004	-2.1	170	2	70
2026-02-06T03:38	13.0	1004	-2.1	180	2	70
2026-02-06T03:39	13.0	1004	-2.1	200	2	70
2026-02-06T03:40	13.0	1004	-2.1	220	2	70
2026-02-06T03:41	13.5	1004	-1.6	230	2	70
2026-02-06T03:42	13.5	1004	-2.0	230	2	70
2026-02-06T03:43	13.7	1004	-1.9	240	2	70
2026-02-06T03:44	13.6	1004	-2.4	240	2	70
2026-02-06T03:45	13.3	1004	-2.6	230	2	70
2026-02-06T03:46	13.5	1004	-2.4	230	2	70
2026-02-06T03:47	13.3	1004	-2.6	220	2	70
2026-02-06T03:48	13.3	1004	-2.6	220	2	70
2026-02-06T03:49	13.2	1004	-2.3	210	1	70
2026-02-06T03:50	13.4	1004	-2.1	210	2	70
2026-02-06T03:51	13.4	1004	-2.1	210	2	70
2026-02-06T03:52	13.5	1004	-2.0	210	2	70
2026-02-06T03:53	13.3	1004	-2.6	210	2	70
2026-02-06T03:54	13.1	1004	-2.8	210	1	70
2026-02-06T03:55	13.2	1004	-2.3	220	1	70
2026-02-06T03:56	13.3	1004	-2.2	220	1	70
2026-02-06T03:57	13.2	1004	-2.7	230	1	70
2026-02-06T03:58	13.6	1004	-1.9	230	2	70
2026-02-06T03:59	13.5	1004	-2.4	230	2	70
2026-02-06T04:00	13.5	1004	-2.9	230	2	70
2026-02-06T04:01	13.6	1004	-2.8	240	2	70
2026-02-06T04:02	13.5	1004	-2.9	240	2	70
2026-02-06T04:03	13.4	1004	-2.9	240	2	70
2026-02-06T04:04	13.5	1004	-2.9	240	2	70
2026-02-06T04:05	13.6	1004	-2.8	240	2	70
2026-02-06T04:06	13.8	1003	-3.0	240	2	70
2026-02-06T04:07	13.7	1003	-3.1	240	2	70
2026-02-06T04:08	14.1	1003	-2.3	240	2	70
2026-02-06T04:09	13.9	1003	-2.9	250	2	70
2026-02-06T04:10	13.9	1003	-2.9	250	2	70
2026-02-06T04:11	13.9	1003	-3.4	250	1	70
2026-02-06T04:12	14.0	1003	-3.3	250	1	70
2026-02-06T04:13	14.2	1003	-3.1	250	1	70
2026-02-06T04:14	14.1	1003	-3.2	240	2	70
2026-02-06T04:15	14.4	1003	-2.9	230	2	70
2026-02-06T04:16	14.2	1003	-3.1	220	2	70
2026-02-06T04:17	14.6	1003	-2.8	220	1	70
2026-02-06T04:18	14.7	1003	-2.7	220	1	70
2026-02-06T04:19	14.3	1003	-3.0	210	2	70
2026-02-06T04:20	14.1	1003	-3.2	210	2	70
2026-02-06T04:21	14.0	1003	-3.3	210	2	70
2026-02-06T04:22	13.8	1003	-3.5	220	2	70
2026-02-06T04:23	13.8	1003	-3.5	220	2	70
2026-02-06T04:24	14.0	1003	-2.8	230	1	70
2026-02-06T04:25	13.9	1003	-3.4	240	1	70
2026-02-06T04:26	14.0	1003	-3.3	240	1	70
2026-02-06T04:27	13.9	1003	-3.4	230	2	70
2026-02-06T04:28	13.9	1003	-3.4	230	2	70
2026-02-06T04:29	13.9	1003	-3.4	220	1	70
2026-02-06T04:30	14.0	1003	-3.3	220	2	70
2026-02-06T04:31	14.0	1003	-3.3	220	2	70
2026-02-06T04:32	14.0	1003	-3.3	220	2	70
2026-02-06T04:33	14.0	1003	-3.3	220	2	70
2026-02-06T04:34	14.3	1003	-3.0	220	2	70
2026-02-06T04:35	14.4	1003	-2.9	230	2	70
2026-02-06T04:36	14.4	1003	-2.9	240	1	70
2026-02-06T04:37	14.4	1003	-3.4	250	1	70
2026-02-06T04:38	14.1	1003	-3.6	260	1	70
2026-02-06T04:39	14.1	1003	-3.6	270	1	70
2026-02-06T04:40	14.1	1003	-3.2	270	1	70
2026-02-06T04:41	14.4	1003	-2.9	270	1	70
2026-02-06T04:42	15.0	1003	-2.4	280	1	70
2026-02-06T04:43	14.5	1003	-2.8	280	1	70
2026-02-06T04:44	14.5	1003	-2.8	290	1	70
2026-02-06T04:45	14.5	1003	-2.8	290	1	70
2026-02-06T04:46	14.2	1003	-3.1	290	1	70
2026-02-06T04:47	14.3	1003	-3.0	300	1	70
2026-02-06T04:48	14.5	1003	-2.8	300	1	70
2026-02-06T04:49	14.7	1003	-2.7	300	1	70
2026-02-06T04:50	15.0	1003	-2.4	310	1	70
2026-02-06T04:51	14.6	1003	-3.2	320	1	70
2026-02-06T04:52	14.8	1003	-2.6	340	2	70
2026-02-06T04:53	14.9	1003	-3.0	350	2	70
2026-02-06T04:54	14.9	1003	-3.0	350	2	70
2026-02-06T04:55	15.0	1003	-2.9	350	2	70
2026-02-06T04:56	15.1	1003	-2.8	110	1	70
2026-02-06T04:57	15.5	1003	-2.0	160	2	70
2026-02-06T04:58	15.3	1003	-2.6	80	2	70
2026-02-06T04:59	15.5	1003	-2.4	110	2	70
2026-02-06T05:00	15.7	1003	-2.3	120	2	70
2026-02-06T05:01	15.5	1003	-2.4	140	2	70
2026-02-06T05:02	15.4	1003	-2.5	140	2	70
2026-02-06T05:03	15.1	1003	-2.8	150	2	70
2026-02-06T05:04	14.8	1003	-3.0	140	2	70
2026-02-06T05:05	14.9	1003	-2.5	130	2	70
2026-02-06T05:06	14.9	1003	-2.5	130	2	70
2026-02-06T05:07	15.0	1003	-2.9	140	2	70
2026-02-06T05:08	15.2	1003	-3.2	140	2	70
2026-02-06T05:09	15.5	1003	-2.9	150	2	70
2026-02-06T05:10	15.5	1003	-3.4	170	2	70
2026-02-06T05:11	15.0	1003	-4.3	200	2	70
2026-02-06T05:12	15.0	1003	-3.8	260	2	70
2026-02-06T05:13	15.0	1003	-3.8	280	2	70
2026-02-06T05:14	15.0	1003	-3.8	290	1	70
2026-02-06T05:15	14.9	1003	-3.9	300	2	70
2026-02-06T05:16	14.8	1003	-4.0	310	2	70
2026-02-06T05:17	14.7	1003	-4.1	320	2	70
2026-02-06T05:18	14.8	1003	-3.5	320	2	70
2026-02-06T05:19	15.0	1003	-3.3	320	2	70
2026-02-06T05:20	14.8	1003	-4.0	320	2	70
2026-02-06T05:21	14.7	1003	-4.1	330	2	70
2026-02-06T05:22	14.8	1003	-3.5	330	2	70
2026-02-06T05:23	15.1	1003	-3.3	330	2	70
2026-02-06T05:24	15.2	1003	-3.2	330	2	70
2026-02-06T05:25	15.1	1003	-3.3	320	2	70
2026-02-06T05:26	15.1	1003	-3.3	310	2	70
2026-02-06T05:27	15.0	1003	-3.3	300	2	70
2026-02-06T05:28	15.0	1003	-3.3	290	2	70
2026-02-06T05:29	14.8	1003	-3.5	280	2	70
2026-02-06T05:30	14.7	1003	-3.6	270	2	70
2026-02-06T05:31	14.7	1003	-3.6	260	2	70
2026-02-06T05:32	14.6	1003	-3.7	250	2	70
2026-02-06T05:33	14.6	1003	-3.2	240	2	70
2026-02-06T05:34	14.8	1003	-3.0	240	2	70
2026-02-06T05:35	14.8	1003	-3.0	240	2	70
2026-02-06T05:36	14.6	1003	-3.7	240	2	70
2026-02-06T05:37	14.5	1003	-3.8	240	2	70
2026-02-06T05:38	14.4	1003	-3.9	250	1	70
2026-02-06T05:39	14.3	1003	-3.9	20	1	70
2026-02-06T05:40	14.3	1003	-3.9	30	1	70
2026-02-06T05:41	14.3	1003	-3.5	350	1	70
2026-02-06T05:42	14.4	1003	-3.4	40	0	70
2026-02-06T05:43	14.4	1003	-3.4	60	0	70
2026-02-06T05:44	14.5	1003	-3.3	60	0	70
2026-02-06T05:45	14.5	1003	-3.3	60	0	70
2026-02-06T05:46	14.5	1003	-3.3	70	0	70
2026-02-06T05:47	14.5	1003	-3.3	70	0	70
2026-02-06T05:48	14.6	1003	-3.2	80	0	70
2026-02-06T05:49	14.5	1003	-3.8	80	0	70
2026-02-06T05:50	14.7	1003	-3.1	90	0	70
2026-02-06T05:51	14.8	1003	-3.0	100	1	70
2026-02-06T05:52	14.8	1003	-3.5	110	1	70
2026-02-06T05:53	14.8	1003	-3.5	110	1	70
2026-02-06T05:54	14.8	1003	-3.5	220	1	70
2026-02-06T05:55	14.7	1003	-3.6	160	1	70
2026-02-06T05:56	14.8	1003	-3.0	200	1	70
2026-02-06T05:57	14.7	1003	-3.6	230	1	70
2026-02-06T05:58	14.6	1003	-3.7	240	1	70
2026-02-06T05:59	14.7	1003	-3.6	250	1	70
2026-02-06T06:00	14.6	1003	-3.7	260	1	70
2026-02-06T06:01	14.7	1003	-3.6	260	0	70
2026-02-06T06:02	14.9	1003	-3.4	260	0	70
2026-02-06T06:03	15.0	1003	-3.3	250	1	70
2026-02-06T06:04	15.2	1003	-3.2	240	1	70
2026-02-06T06:05	15.2	1003	-3.2	140	1	70
2026-02-06T06:06	15.1	1003	-3.3	110	1	70
2026-02-06T06:07	15.0	1003	-3.3	80	1	70
2026-02-06T06:08	15.0	1003	-3.3	120	1	70
2026-02-06T06:09	15.2	1003	-3.2	110	1	70
2026-02-06T06:10	15.1	1003	-2.8	110	1	70
2026-02-06T06:11	15.2	1003	-2.7	100	1	70
2026-02-06T06:12	15.2	1003	-2.2	90	1	70
2026-02-06T06:13	15.2	1003	-1.8	90	1	70
2026-02-06T06:14	15.0	1003	-2.0	80	1	70
2026-02-06T06:15	14.7	1003	-2.2	90	1	70
2026-02-06T06:16	14.5	1003	-2.4	90	1	70
2026-02-06T06:17	14.4	1003	-2.1	100	1	70
2026-02-06T06:18	14.6	1003	-1.9	100	1	70
2026-02-06T06:19	14.7	1003	-1.8	100	1	70
2026-02-06T06:20	14.7	1003	-1.8	100	1	70
2026-02-06T06:21	14.7	1003	-1.8	110	1	70
2026-02-06T06:22	14.6	1003	-1.9	110	1	70
2026-02-06T06:23	14.6	1003	-1.9	110	1	70
2026-02-06T06:24	14.7	1003	-1.8	110	1	70
2026-02-06T06:25	14.7	1003	-1.8	100	1	70
2026-02-06T06:26	14.8	1003	-1.7	100	1	70
2026-02-06T06:27	14.7	1003	-1.8	100	1	70
2026-02-06T06:28	14.7	1003	-1.8	100	1	70
2026-02-06T06:29	14.7	1003	-1.8	90	1	70
2026-02-06T06:30	14.8	1003	-1.7	80	1	70
2026-02-06T06:31	14.9	1003	-1.6	80	1	70
2026-02-06T06:32	14.7	1003	-2.2	70	1	70
2026-02-06T06:33	14.6	1003	-1.9	70	1	70
2026-02-06T06:34	14.7	1003	-1.8	70	1	70
2026-02-06T06:35	14.7	1003	-1.4	70	1	70
2026-02-06T06:36	14.7	1003	-1.4	70	1	70
2026-02-06T06:37	14.7	1003	-1.4	70	1	70
2026-02-06T06:38	14.6	1003	-1.5	80	1	70
2026-02-06T06:39	14.6	1003	-1.5	80	1	70
2026-02-06T06:40	14.6	1003	-1.5	80	1	70
2026-02-06T06:41	14.6	1003	-1.5	80	1	70
2026-02-06T06:42	14.7	1003	-1.4	80	1	70
2026-02-06T06:43	14.6	1003	-1.9	80	1	70
2026-02-06T06:44	14.5	1003	-2.4	90	1	70
2026-02-06T06:45	14.5	1003	-2.0	100	1	70
2026-02-06T06:46	14.6	1003	-1.9	110	1	70
2026-02-06T06:47	14.6	1003	-1.9	110	1	70
2026-02-06T06:48	14.6	1003	-1.9	110	1	70
2026-02-06T06:49	14.4	1003	-1.7	120	1	70
2026-02-06T06:50	14.2	1003	-1.8	120	1	70
2026-02-06T06:51	14.1	1003	-1.5	120	1	70
2026-02-06T06:52	14.1	1003	-1.5	120	1	70
2026-02-06T06:53	14.0	1003	-1.6	120	1	70
2026-02-06T06:54	14.0	1003	-1.6	110	1	70
2026-02-06T06:55	13.9	1003	-1.7	100	1	70
2026-02-06T06:56	14.0	1003	-1.6	90	1	70
2026-02-06T06:57	13.9	1003	-1.7	90	1	70
2026-02-06T06:58	13.9	1003	-1.3	80	1	70
2026-02-06T06:59	13.9	1004	-1.7	80	1	70
2026-02-06T07:00	13.9	1004	-1.7	80	1	70
2026-02-06T07:01	13.9	1004	-1.3	80	1	70
2026-02-06T07:02	13.8	1004	-1.4	80	1	70
2026-02-06T07:03	13.8	1004	-1.4	80	1	70
2026-02-06T07:04	13.8	1004	-1.4	80	1	70
2026-02-06T07:05	13.8	1004	-1.4	80	1	70
2026-02-06T07:06	13.7	1004	-1.5	80	1	70
2026-02-06T07:07	13.7	1004	-1.5	80	2	70
2026-02-06T07:08	13.6	1004	-1.6	80	2	70
2026-02-06T07:09	13.7	1004	-1.1	80	2	70
2026-02-06T07:10	13.7	1004	-1.5	80	2	70
2026-02-06T07:11	13.7	1004	-1.5	90	2	70
2026-02-06T07:12	13.6	1004	-1.6	90	2	70
2026-02-06T07:13	13.6	1004	-1.2	90	1	70
2026-02-06T07:14	13.5	1004	-1.6	90	1	70
2026-02-06T07:15	13.5	1004	-1.6	90	1	70
2026-02-06T07:16	13.5	1004	-1.6	90	1	70
2026-02-06T07:17	13.4	1004	-1.7	90	1	70
2026-02-06T07:18	13.4	1004	-1.4	90	1	70
2026-02-06T07:19	13.4	1004	-1.7	90	1	70
2026-02-06T07:20	13.4	1004	-1.7	90	1	70
2026-02-06T07:21	13.3	1004	-1.4	90	1	70
2026-02-06T07:22	13.3	1004	-1.8	80	1	70
2026-02-06T07:23	13.3	1004	-1.8	80	1	70
2026-02-06T07:24	13.3	1004	-1.8	90	1	70
2026-02-06T07:25	13.3	1004	-1.8	90	1	70
2026-02-06T07:26	13.3	1004	-1.8	90	1	70
2026-02-06T07:27	13.3	1004	-1.8	90	1	70
2026-02-06T07:28	13.2	1004	-1.5	90	1	70
2026-02-06T07:29	13.1	1004	-1.6	90	1	70
2026-02-06T07:30	12.9	1004	-1.4	90	1	70
2026-02-06T07:31	13.0	1004	-1.3	90	1	70
2026-02-06T07:32	13.0	1004	-1.7	90	1	70
2026-02-06T07:33	12.9	1004	-1.4	90	1	70
2026-02-06T07:34	12.5	1004	-1.4	90	1	70
2026-02-06T07:35	12.7	1004	-1.2	90	1	70
2026-02-06T07:36	12.9	1004	-1.4	80	1	70
2026-02-06T07:37	12.8	1004	-1.1	90	1	70
2026-02-06T07:38	12.8	1004	-1.1	90	1	70
2026-02-06T07:39	12.6	1004	-1.3	90	1	70
2026-02-06T07:40	12.5	1004	-1.1	90	1	70
2026-02-06T07:41	12.5	1004	-1.4	90	1	70
2026-02-06T07:42	12.0	1004	-1.5	90	1	70
2026-02-06T07:43	11.9	1004	-1.3	90	1	70
2026-02-06T07:44	11.9	1004	-1.3	100	1	70
2026-02-06T07:45	11.8	1004	-1.0	100	1	70
2026-02-06T07:46	11.9	1004	-1.3	100	1	70
2026-02-06T07:47	12.3	1004	-1.2	100	1	70
2026-02-06T07:48	12.2	1004	-1.3	100	1	70
2026-02-06T07:49	11.7	1004	-1.1	90	1	70
2026-02-06T07:50	11.8	1004	-1.0	90	1	70
2026-02-06T07:51	11.5	1004	-1.6	90	1	70
2026-02-06T07:52	11.5	1004	-1.3	90	1	70
2026-02-06T07:53	12.0	1004	-1.2	90	1	70
2026-02-06T07:54	12.0	1004	-1.2	90	1	70
2026-02-06T07:55	11.5	1004	-1.3	90	1	70
2026-02-06T07:56	11.2	1004	-1.6	90	1	70
2026-02-06T07:57	11.6	1004	-1.2	80	1	70
2026-02-06T07:58	11.8	1004	-1.0	80	1	70
2026-02-06T07:59	11.1	1004	-1.3	80	1	70
2026-02-06T08:00	11.0	1004	-1.4	70	1	70
2026-02-06T08:01	10.7	1004	-1.4	70	1	70
2026-02-06T08:02	11.3	1004	-0.8	70	0	70
2026-02-06T08:03	10.8	1004	-1.0	70	0	70
2026-02-06T08:04	10.9	1004	-0.9	60	0	70
2026-02-06T08:05	10.9	1004	-0.9	60	0	70
2026-02-06T08:06	10.9	1004	-0.9	60	0	70
2026-02-06T08:07	10.9	1004	-0.9	60	0	70
2026-02-06T08:08	10.8	1004	-1.0	70	0	70
2026-02-06T08:09	10.5	1004	-0.9	70	0	70
2026-02-06T08:10	10.5	1004	-0.9	80	0	70
2026-02-06T08:11	10.9	1004	-0.9	80	0	70
2026-02-06T08:12	10.6	1004	-0.8	90	0	70
2026-02-06T08:13	10.4	1004	-1.0	90	0	70
2026-02-06T08:14	10.3	1005	-0.8	90	1	70
2026-02-06T08:15	10.3	1005	-0.8	100	0	70
2026-02-06T08:16	10.3	1005	-1.1	100	0	70
2026-02-06T08:17	10.3	1005	-1.1	100	1	70
2026-02-06T08:18	10.0	1005	-1.1	100	1	70
2026-02-06T08:19	10.0	1005	-0.8	100	1	70
2026-02-06T08:20	9.9	1005	-0.9	110	1	70
2026-02-06T08:21	9.8	1005	-1.0	110	1	70
2026-02-06T08:22	9.7	1005	-1.1	110	1	70
2026-02-06T08:23	9.9	1005	-0.9	110	1	70
2026-02-06T08:24	10.1	1005	-1.0	100	1	70
2026-02-06T08:25	9.6	1005	-1.1	100	1	70
2026-02-06T08:26	9.7	1005	-1.1	100	1	70
2026-02-06T08:27	9.4	1005	-1.3	100	1	70
2026-02-06T08:28	9.7	1005	-1.1	100	1	70
2026-02-06T08:29	9.6	1005	-1.1	100	1	70
2026-02-06T08:30	10.2	1005	-0.9	100	1	70
2026-02-06T08:31	9.4	1005	-1.6	110	1	70
2026-02-06T08:32	9.3	1005	-1.4	110	1	70
2026-02-06T08:33	8.9	1005	-1.5	110	1	70
2026-02-06T08:34	9.3	1005	-1.1	110	1	70
2026-02-06T08:35	9.4	1005	-1.0	110	1	70
2026-02-06T08:36	8.8	1005	-1.6	120	1	70
2026-02-06T08:37	9.2	1005	-1.2	120	1	70
2026-02-06T08:38	9.1	1005	-1.3	120	1	70
2026-02-06T08:39	9.3	1005	-1.1	120	1	70
2026-02-06T08:40	9.4	1005	-1.0	120	1	70
2026-02-06T08:41	9.4	1005	-1.3	120	1	70
2026-02-06T08:42	9.3	1005	-1.1	120	1	70
2026-02-06T08:43	9.3	1005	-1.4	120	1	70
2026-02-06T08:44	9.4	1005	-1.3	120	1	70
2026-02-06T08:45	9.2	1005	-1.5	110	1	70
2026-02-06T08:46	9.1	1005	-1.6	110	1	70
2026-02-06T08:47	9.0	1005	-1.4	110	1	70
2026-02-06T08:48	8.9	1005	-1.5	110	1	70
2026-02-06T08:49	8.7	1005	-1.7	110	1	70
2026-02-06T08:50	9.0	1005	-1.1	110	1	70
2026-02-06T08:51	9.3	1005	-1.1	100	1	70
2026-02-06T08:52	8.9	1005	-1.8	100	1	70
2026-02-06T08:53	8.8	1005	-1.6	100	1	70
2026-02-06T08:54	9.0	1005	-1.1	100	1	70
2026-02-06T08:55	9.0	1005	-1.4	100	1	70
2026-02-06T08:56	8.7	1005	-1.7	90	1	70
2026-02-06T08:57	9.2	1005	-1.2	90	1	70
2026-02-06T08:58	9.4	1005	-1.3	90	1	70
2026-02-06T08:59	8.8	1005	-1.9	90	1	70
2026-02-06T09:00	8.6	1005	-1.8	80	1	70
2026-02-06T09:01	8.5	1005	-1.6	80	1	70
2026-02-06T09:02	8.7	1005	-1.4	80	1	70
2026-02-06T09:03	8.4	1005	-1.7	80	1	70
2026-02-06T09:04	8.4	1005	-1.4	80	1	70
2026-02-06T09:05	8.2	1005	-1.6	80	1	70
2026-02-06T09:06	8.4	1005	-1.4	90	1	70
2026-02-06T09:07	8.0	1005	-1.8	90	1	70
2026-02-06T09:08	7.9	1005	-1.6	90	1	70
2026-02-06T09:09	8.0	1005	-1.2	90	1	70
2026-02-06T09:10	8.3	1005	-1.2	100	1	70
2026-02-06T09:11	8.1	1005	-1.4	100	1	70
2026-02-06T09:12	7.8	1005	-1.4	100	1	70
2026-02-06T09:13	8.2	1005	-1.1	100	1	70
2026-02-06T09:14	8.6	1005	-1.0	100	1	70
2026-02-06T09:15	8.4	1005	-1.1	90	1	70
2026-02-06T09:16	8.1	1005	-1.4	90	1	70
2026-02-06T09:17	8.0	1005	-1.2	90	1	70
2026-02-06T09:18	8.0	1005	-1.2	80	1	70
2026-02-06T09:19	8.5	1005	-0.8	80	1	70
2026-02-06T09:20	8.9	1005	-0.7	80	1	70
2026-02-06T09:21	8.6	1005	-1.0	80	1	70
2026-02-06T09:22	9.0	1005	-0.6	70	1	70
2026-02-06T09:23	8.2	1005	-1.3	70	1	70
2026-02-06T09:24	8.0	1005	-1.2	70	1	70
2026-02-06T09:25	8.3	1005	-0.7	70	1	70
2026-02-06T09:26	8.6	1005	-0.7	70	1	70
2026-02-06T09:27	8.8	1005	-0.5	80	1	70
2026-02-06T09:28	9.0	1005	-0.6	80	1	70
2026-02-06T09:29	8.5	1005	-1.3	90	1	70
2026-02-06T09:30	7.8	1005	-1.7	90	1	70
2026-02-06T09:31	8.0	1005	-1.0	90	1	70
2026-02-06T09:32	7.9	1005	-1.1	100	1	70
2026-02-06T09:33	7.7	1005	-1.0	100	1	70
2026-02-06T09:34	8.0	1005	-0.7	110	1	70
2026-02-06T09:35	8.0	1005	-0.7	110	1	70
2026-02-06T09:36	7.8	1005	-0.9	110	1	70
2026-02-06T09:37	8.3	1006	-0.4	100	1	70
2026-02-06T09:38	8.5	1006	-0.5	100	1	70
2026-02-06T09:39	7.9	1006	-1.1	90	1	70
2026-02-06T09:40	8.2	1006	-0.8	90	1	70
2026-02-06T09:41	8.1	1006	-0.9	90	1	70
2026-02-06T09:42	7.4	1006	-1.5	100	1	70
2026-02-06T09:43	7.9	1006	-0.8	90	1	70
2026-02-06T09:44	7.8	1006	-0.9	90	1	70
2026-02-06T09:45	8.2	1006	-0.5	80	1	70
2026-02-06T09:46	8.6	1006	-0.4	80	1	70
2026-02-06T09:47	8.9	1006	-0.1	80	1	70
2026-02-06T09:48	9.2	1006	-0.1	70	1	70
2026-02-06T09:49	9.3	1006	-0.3	70	1	70
2026-02-06T09:50	8.7	1006	-0.9	70	1	70
2026-02-06T09:51	8.7	1006	-0.6	70	1	70
2026-02-06T09:52	9.0	1006	-0.3	60	1	70
2026-02-06T09:53	8.8	1006	-0.5	60	2	70
2026-02-06T09:54	8.8	1006	-0.5	60	2	70
2026-02-06T09:55	8.6	1006	-0.7	60	2	70
2026-02-06T09:56	8.9	1006	-0.1	60	2	70
2026-02-06T09:57	8.9	1006	-0.4	60	2	70
2026-02-06T09:58	8.7	1006	-0.6	60	2	70
2026-02-06T09:59	8.7	1006	-0.3	70	2	70
2026-02-06T10:00	8.5	1006	-0.5	70	2	70
2026-02-06T10:01	8.8	1006	-0.2	70	2	70
2026-02-06T10:02	8.7	1006	-0.3	70	2	70
2026-02-06T10:03	8.6	1006	-0.4	70	2	70
2026-02-06T10:04	8.6	1006	-0.2	70	2	70
2026-02-06T10:05	8.7	1006	-0.1	70	2	70
2026-02-06T10:06	8.4	1006	-0.3	70	2	70
2026-02-06T10:07	8.4	1006	-0.3	60	2	70
2026-02-06T10:08	8.5	1006	-0.3	60	2	70
2026-02-06T10:09	8.2	1006	-0.5	60	2	70
2026-02-06T10:10	8.2	1006	-0.3	60	2	70
2026-02-06T10:11	8.4	1006	-0.1	60	2	70
2026-02-06T10:12	8.6	1006	0.1	60	2	70
2026-02-06T10:13	8.6	1006	-0.2	60	2	70
2026-02-06T10:14	8.5	1006	-0.3	70	2	70
2026-02-06T10:15	8.1	1006	-0.6	70	2	70
2026-02-06T10:16	8.5	1006	-0.3	70	2	70
2026-02-06T10:17	8.3	1006	-0.4	70	2	70
2026-02-06T10:18	8.5	1006	-0.3	70	2	70
2026-02-06T10:19	8.6	1006	-0.2	80	2	70
2026-02-06T10:20	8.4	1006	-0.3	80	2	70
2026-02-06T10:21	8.4	1006	-0.3	80	2	70
2026-02-06T10:22	8.5	1006	-0.3	80	2	70
2026-02-06T10:23	8.5	1006	-0.5	80	2	70
2026-02-06T10:24	8.2	1006	-0.5	80	2	70
2026-02-06T10:25	8.2	1006	-0.5	80	2	70
2026-02-06T10:26	8.2	1006	-0.5	80	2	70
2026-02-06T10:27	8.3	1006	-0.4	80	2	70
2026-02-06T10:28	8.4	1006	-0.3	80	2	70
2026-02-06T10:29	8.1	1006	-0.6	70	2	70
2026-02-06T10:30	7.9	1006	-0.8	70	2	70
2026-02-06T10:31	8.0	1006	-0.5	70	2	70
2026-02-06T10:32	8.2	1006	-0.3	60	2	70
2026-02-06T10:33	8.2	1006	-0.5	60	2	70
2026-02-06T10:34	8.2	1006	-0.5	50	2	70
2026-02-06T10:35	8.2	1006	-0.5	40	2	70
2026-02-06T10:36	8.1	1006	-0.6	40	1	70
2026-02-06T10:37	8.1	1006	-0.6	30	1	70
2026-02-06T10:38	8.1	1006	-0.6	30	1	70
2026-02-06T10:39	7.9	1007	-0.8	20	2	70
2026-02-06T10:40	7.9	1007	-0.8	20	2	70
2026-02-06T10:41	7.7	1007	-0.8	20	2	70
2026-02-06T10:42	7.7	1007	-0.8	20	2	70
2026-02-06T10:43	7.4	1007	-1.0	10	2	70
2026-02-06T10:44	7.6	1007	-0.8	20	2	70
2026-02-06T10:45	7.7	1007	-0.8	20	2	70
2026-02-06T10:46	7.6	1007	-0.8	10	2	70
2026-02-06T10:47	7.7	1007	-0.8	10	2	70
2026-02-06T10:48	7.8	1007	-0.7	10	2	70
2026-02-06T10:49	7.7	1007	-0.8	10	2	70
2026-02-06T10:50	7.6	1007	-0.8	10	2	70
2026-02-06T10:51	7.5	1007	-0.9	10	2	70
2026-02-06T10:52	7.5	1007	-0.9	10	2	70
2026-02-06T10:53	7.3	1007	-1.1	10	2	70
2026-02-06T10:54	7.6	1007	-0.8	10	1	70
2026-02-06T10:55	7.6	1007	-0.8	20	1	70
2026-02-06T10:56	7.3	1007	-1.1	20	1	70
2026-02-06T10:57	7.2	1007	-1.0	30	1	70
2026-02-06T10:58	7.3	1007	-0.9	30	1	70
2026-02-06T10:59	7.3	1007	-0.9	30	1	70
2026-02-06T11:00	7.4	1007	-0.8	40	1	70
2026-02-06T11:01	7.3	1007	-0.9	30	1	70
2026-02-06T11:02	7.3	1007	-0.9	40	1	70
2026-02-06T11:03	7.0	1007	-1.2	50	1	70
2026-02-06T11:04	7.0	1007	-1.2	50	1	70
2026-02-06T11:05	6.6	1007	-1.3	50	1	70
2026-02-06T11:06	6.9	1007	-1.0	40	1	70
2026-02-06T11:07	7.0	1007	-0.9	40	1	70
2026-02-06T11:08	7.0	1007	-0.9	40	1	70
2026-02-06T11:09	7.0	1007	-0.9	50	1	70
2026-02-06T11:10	7.0	1007	-0.9	50	1	70
2026-02-06T11:11	6.8	1007	-1.1	60	1	70
2026-02-06T11:12	6.8	1007	-0.9	60	1	70
2026-02-06T11:13	6.8	1007	-1.1	60	1	70
2026-02-06T11:14	6.7	1007	-1.2	60	2	70
2026-02-06T11:15	6.6	1007	-1.1	70	2	70
2026-02-06T11:16	6.5	1007	-1.2	70	2	70
2026-02-06T11:17	6.3	1007	-1.3	80	2	70
2026-02-06T11:18	6.5	1007	-0.9	80	2	70
2026-02-06T11:19	6.6	1007	-1.1	70	2	70
2026-02-06T11:20	6.6	1007	-1.1	70	2	70
2026-02-06T11:21	6.6	1007	-1.1	70	2	70
2026-02-06T11:22	6.4	1007	-1.3	60	2	70
2026-02-06T11:23	6.4	1007	-1.3	60	2	70
2026-02-06T11:24	6.4	1007	-1.3	50	2	70
2026-02-06T11:25	6.5	1007	-1.2	40	2	70
2026-02-06T11:26	6.4	1007	-1.3	40	2	70
2026-02-06T11:27	6.6	1007	-1.1	30	1	70
2026-02-06T11:28	6.4	1007	-1.5	30	1	70
2026-02-06T11:29	6.4	1007	-1.3	20	1	70
2026-02-06T11:30	6.2	1007	-1.4	20	1	70
2026-02-06T11:31	6.3	1007	-1.3	10	1	70
2026-02-06T11:32	6.4	1007	-1.3	10	1	70
2026-02-06T11:33	6.4	1007	-1.5	10	1	70
2026-02-06T11:34	5.9	1007	-1.7	10	1	70
2026-02-06T11:35	5.9	1007	-1.7	10	1	70
2026-02-06T11:36	5.9	1007	-1.5	10	1	70
2026-02-06T11:37	6.1	1007	-1.3	10	1	70
2026-02-06T11:38	6.0	1007	-1.6	10	1	70
2026-02-06T11:39	6.2	1007	-1.4	10	1	70
2026-02-06T11:40	5.9	1007	-1.7	10	1	70
2026-02-06T11:41	5.8	1007	-1.6	10	1	70
2026-02-06T11:42	5.7	1007	-1.7	10	1	70
2026-02-06T11:43	6.0	1007	-1.4	10	1	70
2026-02-06T11:44	5.9	1007	-1.5	10	1	70
2026-02-06T11:45	6.0	1007	-1.4	10	1	70
2026-02-06T11:46	6.1	1007	-1.5	10	1	70
2026-02-06T11:47	5.9	1007	-1.7	10	1	70
2026-02-06T11:48	5.8	1007	-1.8	360	1	70
2026-02-06T11:49	5.8	1007	-1.6	360	1	70
2026-02-06T11:50	5.8	1007	-1.6	10	1	70
2026-02-06T11:51	6.0	1007	-1.4	10	1	70
2026-02-06T11:52	5.9	1007	-1.5	10	1	70
2026-02-06T11:53	5.7	1007	-1.7	360	1	70
2026-02-06T11:54	5.6	1007	-1.8	360	1	70
2026-02-06T11:55	5.8	1007	-1.6	360	1	70
2026-02-06T11:56	5.8	1007	-1.6	360	1	70
2026-02-06T11:57	5.6	1007	-1.8	360	1	70
2026-02-06T11:58	5.6	1008	-1.5	360	1	70
2026-02-06T11:59	5.6	1008	-1.8	350	1	70
2026-02-06T12:00	5.4	1008	-1.7	350	1	70
2026-02-06T12:01	5.4	1008	-1.7	350	1	70
2026-02-06T12:02	5.3	1008	-1.8	350	1	70
2026-02-06T12:03	4.8	1008	-2.1	360	1	70
2026-02-06T12:04	5.0	1008	-1.7	360	1	70
2026-02-06T12:05	5.3	1008	-1.4	360	1	70
2026-02-06T12:06	5.4	1008	-1.5	360	1	70
2026-02-06T12:07	5.0	1008	-1.9	10	1	70
2026-02-06T12:08	4.6	1008	-2.0	10	1	70
2026-02-06T12:09	5.0	1008	-1.4	10	1	70
2026-02-06T12:10	5.2	1008	-1.5	10	1	70
2026-02-06T12:11	5.0	1008	-1.7	10	1	70
2026-02-06T12:12	5.0	1008	-1.7	10	1	70
2026-02-06T12:13	4.8	1008	-1.9	360	1	70
2026-02-06T12:14	4.8	1008	-1.9	360	1	70
2026-02-06T12:15	4.9	1007	-1.5	360	1	70
2026-02-06T12:16	4.7	1007	-1.7	360	1	70
2026-02-06T12:17	4.3	1008	-2.1	350	1	70
2026-02-06T12:18	4.1	1008	-2.1	350	1	70
2026-02-06T12:19	4.0	1008	-2.0	350	1	70
2026-02-06T12:20	4.2	1008	-1.6	350	1	70
2026-02-06T12:21	4.0	1008	-1.8	350	1	70
2026-02-06T12:22	3.9	1008	-1.9	350	1	70
2026-02-06T12:23	4.3	1008	-1.5	350	1	70
2026-02-06T12:24	4.6	1008	-1.2	360	1	70
2026-02-06T12:25	4.8	1008	-1.2	10	1	70
2026-02-06T12:26	4.7	1008	-1.5	10	1	70
2026-02-06T12:27	4.5	1008	-1.7	20	0	70
2026-02-06T12:28	4.4	1008	-1.8	20	0	70
2026-02-06T12:29	4.3	1008	-1.9	30	0	70
2026-02-06T12:30	4.2	1008	-1.8	30	0	70
2026-02-06T12:31	4.1	1008	-1.7	30	0	70
2026-02-06T12:32	4.2	1008	-1.6	30	0	70
2026-02-06T12:33	4.1	1008	-1.7	40	0	70
2026-02-06T12:34	4.1	1008	-1.7	50	0	70
2026-02-06T12:35	4.0	1008	-1.8	60	0	70
2026-02-06T12:36	4.0	1008	-1.8	70	1	70
2026-02-06T12:37	3.6	1007	-2.1	80	1	70
2026-02-06T12:38	3.8	1008	-1.8	100	1	70
2026-02-06T12:39	4.1	1008	-1.3	120	1	70
2026-02-06T12:40	4.3	1008	-1.3	130	1	70
2026-02-06T12:41	4.4	1008	-1.2	130	1	70
2026-02-06T12:42	4.4	1007	-1.4	130	1	70
2026-02-06T12:43	4.3	1007	-1.5	140	1	70
2026-02-06T12:44	3.9	1007	-1.9	140	1	70
2026-02-06T12:45	3.0	1008	-2.7	130	1	70
2026-02-06T12:46	2.9	1008	-2.2	130	1	70
2026-02-06T12:47	3.3	1008	-1.6	120	1	70
2026-02-06T12:48	3.4	1008	-1.5	110	1	70
2026-02-06T12:49	3.4	1008	-1.5	110	1	70
2026-02-06T12:50	3.3	1008	-1.6	340	1	70
2026-02-06T12:51	3.2	1008	-1.7	300	1	70
2026-02-06T12:52	3.3	1008	-1.6	290	1	70
2026-02-06T12:53	3.3	1007	-1.6	300	1	70
2026-02-06T12:54	3.3	1007	-1.6	280	1	70
2026-02-06T12:55	3.3	1007	-1.6	270	1	70
2026-02-06T12:56	2.9	1007	-2.0	250	1	70
2026-02-06T12:57	3.0	1007	-1.7	140	1	70
2026-02-06T12:58	3.3	1007	-1.4	130	1	70
2026-02-06T12:59	3.4	1007	-1.5	110	1	70
2026-02-06T13:00	3.5	1007	-1.4	30	1	70
2026-02-06T13:01	3.5	1007	-1.6	340	1	70
2026-02-06T13:02	3.3	1007	-1.8	20	1	70
2026-02-06T13:03	3.2	1007	-1.9	10	1	70
2026-02-06T13:04	3.2	1007	-1.7	350	0	70
2026-02-06T13:05	2.8	1008	-2.3	340	0	70
2026-02-06T13:06	2.9	1008	-2.0	340	0	70
2026-02-06T13:07	2.8	1008	-1.9	330	0	70
2026-02-06T13:08	2.9	1008	-1.8	330	0	70
2026-02-06T13:09	3.3	1008	-1.4	0	0	70
2026-02-06T13:10	3.3	1008	-1.4	0	0	70
2026-02-06T13:11	2.6	1008	-2.3	0	0	70
2026-02-06T13:12	2.7	1008	-2.0	0	0	70
2026-02-06T13:13	2.8	1008	-1.7	0	0	70
2026-02-06T13:14	2.8	1008	-1.7	0	0	70
2026-02-06T13:15	2.7	1008	-1.8	0	0	70
2026-02-06T13:16	2.7	1008	-1.8	300	0	70
2026-02-06T13:17	2.9	1008	-1.6	200	0	70
2026-02-06T13:18	2.7	1008	-1.8	140	1	70
2026-02-06T13:19	2.5	1008	-2.2	140	0	70
2026-02-06T13:20	2.9	1008	-1.5	140	0	70
2026-02-06T13:21	3.2	1008	-1.4	130	0	70
2026-02-06T13:22	2.9	1008	-1.8	130	0	70
2026-02-06T13:23	2.6	1008	-2.1	120	0	70
2026-02-06T13:24	2.6	1008	-1.9	120	0	70
2026-02-06T13:25	2.9	1008	-1.5	110	1	70
2026-02-06T13:26	2.8	1008	-1.7	110	1	70
2026-02-06T13:27	2.8	1008	-1.7	110	1	70
2026-02-06T13:28	2.4	1008	-2.1	110	1	70
2026-02-06T13:29	2.2	1008	-2.3	110	1	70
2026-02-06T13:30	2.6	1008	-1.6	120	1	70
2026-02-06T13:31	2.9	1008	-1.3	120	1	70
2026-02-06T13:32	3.0	1008	-1.4	130	1	70
2026-02-06T13:33	2.5	1008	-2.0	130	1	70
2026-02-06T13:34	2.5	1008	-2.0	120	1	70
2026-02-06T13:35	2.6	1008	-1.7	120	1	70
2026-02-06T13:36	2.4	1008	-1.9	110	1	70
2026-02-06T13:37	2.2	1008	-2.1	10	1	70
2026-02-06T13:38	2.1	1008	-2.0	340	1	70
2026-02-06T13:39	2.0	1008	-2.1	330	1	70
2026-02-06T13:40	2.0	1008	-2.1	320	1	70
2026-02-06T13:41	1.9	1008	-2.1	310	1	70
2026-02-06T13:42	2.0	1008	-2.0	310	1	70
2026-02-06T13:43	2.0	1008	-2.0	300	1	70
2026-02-06T13:44	2.1	1008	-1.9	290	1	70
2026-02-06T13:45	2.2	1008	-1.8	280	1	70
2026-02-06T13:46	2.3	1007	-1.7	270	1	70
2026-02-06T13:47	2.2	1008	-1.8	260	0	70
2026-02-06T13:48	2.0	1008	-2.1	240	0	70
2026-02-06T13:49	2.1	1008	-1.9	220	1	70
2026-02-06T13:50	2.1	1008	-1.9	210	1	70
2026-02-06T13:51	2.2	1008	-1.8	200	0	70
2026-02-06T13:52	2.2	1008	-1.8	180	1	70
2026-02-06T13:53	2.6	1007	-1.2	170	1	70
2026-02-06T13:54	2.4	1007	-1.6	150	1	70
2026-02-06T13:55	2.0	1007	-2.1	150	1	70
2026-02-06T13:56	2.1	1007	-1.9	160	1	70
2026-02-06T13:57	2.1	1007	-1.9	160	1	70
2026-02-06T13:58	2.0	1007	-2.0	160	1	70
2026-02-06T13:59	2.0	1007	-2.0	160	1	70
2026-02-06T14:00	1.9	1007	-2.1	160	1	70
2026-02-06T14:01	2.0	1007	-2.0	160	1	70
2026-02-06T14:02	1.8	1007	-2.1	180	1	70
2026-02-06T14:03	2.0	1007	-1.8	190	1	70
2026-02-06T14:04	2.0	1007	-1.8	200	0	70
2026-02-06T14:05	2.1	1007	-1.7	210	0	70
2026-02-06T14:06	2.1	1007	-1.7	10	0	70
2026-02-06T14:07	2.0	1007	-1.8	40	0	70
2026-02-06T14:08	2.2	1007	-1.6	60	0	70
2026-02-06T14:09	2.4	1007	-1.4	0	0	70
2026-02-06T14:10	2.2	1007	-1.8	0	0	70
2026-02-06T14:11	2.2	1007	-1.8	0	0	70
2026-02-06T14:12	2.0	1007	-2.0	0	0	70
2026-02-06T14:13	1.4	1007	-2.5	70	0	70
2026-02-06T14:14	1.6	1007	-2.2	80	0	70
2026-02-06T14:15	2.0	1007	-1.6	80	0	70
2026-02-06T14:16	2.0	1007	-1.6	80	0	70
2026-02-06T14:17	1.9	1007	-1.9	80	0	70
2026-02-06T14:18	1.7	1007	-2.1	70	0	70
2026-02-06T14:19	1.8	1007	-2.0	70	0	70
2026-02-06T14:20	1.9	1007	-1.9	70	0	70
2026-02-06T14:21	1.7	1007	-2.1	80	0	70
2026-02-06T14:22	1.6	1007	-2.2	200	0	70
2026-02-06T14:23	1.6	1007	-2.0	210	0	70
2026-02-06T14:24	1.4	1007	-2.2	220	0	70
2026-02-06T14:25	1.4	1007	-2.2	240	0	70
2026-02-06T14:26	1.5	1007	-1.9	230	0	70
2026-02-06T14:27	1.5	1007	-1.9	230	1	70
2026-02-06T14:28	1.5	1007	-1.9	230	1	70
2026-02-06T14:29	1.6	1007	-1.8	230	1	70
2026-02-06T14:30	1.5	1007	-1.9	230	1	70
2026-02-06T14:31	1.5	1007	-2.1	240	1	70
2026-02-06T14:32	1.4	1007	-2.0	250	1	70
2026-02-06T14:33	1.4	1007	-2.0	260	1	70
2026-02-06T14:34	1.4	1007	-2.0	260	1	70
2026-02-06T14:35	1.4	1007	-2.0	260	1	70
2026-02-06T14:36	1.3	1007	-2.1	270	1	70
2026-02-06T14:37	1.1	1007	-2.3	280	1	70
2026-02-06T14:38	1.0	1007	-2.2	290	1	70
2026-02-06T14:39	1.0	1007	-2.2	300	1	70
2026-02-06T14:40	1.0	1007	-2.1	300	1	70
2026-02-06T14:41	1.4	1007	-1.7	300	0	70
2026-02-06T14:42	1.5	1007	-1.6	290	0	70
2026-02-06T14:43	1.8	1008	-1.3	290	0	70
2026-02-06T14:44	1.4	1008	-1.8	0	0	70
2026-02-06T14:45	1.2	1008	-2.0	0	0	70
2026-02-06T14:46	1.3	1008	-1.9	0	0	70
2026-02-06T14:47	1.4	1008	-1.7	0	0	70
2026-02-06T14:48	1.4	1007	-1.7	0	0	70
2026-02-06T14:49	1.5	1007	-1.6	0	0	70
2026-02-06T14:50	1.5	1007	-1.6	0	0	70
2026-02-06T14:51	1.5	1007	-1.6	330	0	70
2026-02-06T14:52	1.5	1007	-1.7	340	0	70
2026-02-06T14:53	1.5	1007	-1.7	340	0	70
2026-02-06T14:54	1.6	1007	-1.8	350	0	70
2026-02-06T14:55	1.6	1007	-1.8	350	0	70
2026-02-06T14:56	1.5	1007	-1.9	360	0	70
2026-02-06T14:57	1.4	1007	-2.2	350	0	70
2026-02-06T14:58	1.4	1007	-2.0	340	0	70
2026-02-06T14:59	1.2	1007	-2.2	330	0	70
2026-02-06T15:00	1.1	1007	-2.3	310	0	70
2026-02-06T15:01	1.2	1007	-2.0	290	1	70
2026-02-06T15:02	1.2	1007	-2.0	270	1	70
2026-02-06T15:03	1.1	1007	-2.1	250	1	70
2026-02-06T15:04	1.0	1007	-2.2	240	1	70
2026-02-06T15:05	1.0	1007	-2.2	230	1	70
2026-02-06T15:06	1.0	1007	-2.1	230	1	70
2026-02-06T15:07	0.9	1007	-2.1	220	1	70
2026-02-06T15:08	1.1	1007	-2.0	220	1	70
2026-02-06T15:09	1.4	1008	-1.5	220	1	70
2026-02-06T15:10	1.5	1008	-1.4	210	1	70
2026-02-06T15:11	1.3	1008	-1.8	210	1	70
2026-02-06T15:12	0.9	1008	-2.3	210	1	70
2026-02-06T15:13	0.9	1008	-2.1	200	1	70
2026-02-06T15:14	0.6	1008	-2.4	200	1	70
2026-02-06T15:15	0.3	1008	-2.7	200	1	70
2026-02-06T15:16	-0.1	1008	-3.1	190	1	70
2026-02-06T15:17	-0.1	1008	-2.8	190	1	70
2026-02-06T15:18	0.1	1008	-2.4	180	1	70
2026-02-06T15:19	0.2	1008	-2.2	170	1	70
2026-02-06T15:20	0.7	1008	-1.7	170	1	70
2026-02-06T15:21	1.1	1008	-1.5	170	1	70
2026-02-06T15:22	1.4	1008	-1.3	160	1	70
2026-02-06T15:23	1.4	1008	-1.7	160	1	70
2026-02-06T15:24	0.9	1008	-2.5	160	1	70
2026-02-06T15:25	0.8	1008	-2.6	170	1	70
2026-02-06T15:26	0.9	1008	-2.3	180	1	70
2026-02-06T15:27	1.1	1008	-2.1	190	1	70
2026-02-06T15:28	1.0	1008	-2.2	200	1	70
2026-02-06T15:29	0.9	1008	-2.3	210	1	70
2026-02-06T15:30	0.8	1008	-2.4	230	1	70
2026-02-06T15:31	0.9	1008	-2.3	250	1	70
2026-02-06T15:32	1.2	1008	-2.0	260	1	70
2026-02-06T15:33	1.1	1008	-2.3	270	1	70
2026-02-06T15:34	0.8	1008	-2.6	280	1	70
2026-02-06T15:35	0.6	1008	-2.6	280	1	70
2026-02-06T15:36	0.6	1008	-2.6	280	1	70
2026-02-06T15:37	0.7	1008	-2.3	280	1	70
2026-02-06T15:38	0.7	1008	-2.3	280	1	70
2026-02-06T15:39	0.6	1008	-2.4	280	1	70
2026-02-06T15:40	0.6	1008	-2.4	280	1	70
2026-02-06T15:41	0.4	1008	-2.6	270	0	70
2026-02-06T15:42	0.4	1008	-2.6	0	0	70
2026-02-06T15:43	0.7	1008	-2.2	0	0	70
2026-02-06T15:44	1.0	1008	-2.1	0	0	70
2026-02-06T15:45	0.9	1008	-2.3	0	0	70
2026-02-06T15:46	0.9	1008	-2.3	0	0	70
2026-02-06T15:47	1.0	1008	-2.2	0	0	70
2026-02-06T15:48	1.1	1008	-2.5	270	0	70
2026-02-06T15:49	0.9	1008	-2.7	270	0	70
2026-02-06T15:50	0.9	1008	-2.8	280	0	70
2026-02-06T15:51	0.7	1008	-3.0	280	0	70
2026-02-06T15:52	0.6	1008	-3.0	290	1	70
2026-02-06T15:53	0.9	1008	-2.7	290	1	70
2026-02-06T15:54	1.1	1008	-2.6	290	1	70
2026-02-06T15:55	1.3	1008	-2.5	290	0	70
2026-02-06T15:56	0.8	1008	-2.9	290	0	70
2026-02-06T15:57	0.6	1008	-3.1	290	0	70
2026-02-06T15:58	0.7	1008	-2.9	290	0	70
2026-02-06T15:59	0.8	1008	-2.8	280	0	70
2026-02-06T16:00	1.0	1008	-2.7	280	0	70
2026-02-06T16:01	1.0	1008	-2.7	280	0	70
2026-02-06T16:02	1.0	1008	-2.7	290	0	70
2026-02-06T16:03	1.0	1008	-2.6	290	0	70
2026-02-06T16:04	0.9	1008	-2.7	300	0	70
2026-02-06T16:05	0.7	1008	-2.9	300	0	70
2026-02-06T16:06	0.6	1008	-3.0	310	1	70
2026-02-06T16:07	0.3	1008	-3.1	310	1	70
2026-02-06T16:08	0.2	1008	-3.0	320	1	70
2026-02-06T16:09	0.5	1008	-2.5	320	1	70
2026-02-06T16:10	0.7	1008	-2.5	320	1	70
2026-02-06T16:11	0.9	1008	-2.3	320	1	70
2026-02-06T16:12	1.1	1008	-2.3	150	1	70
2026-02-06T16:13	1.0	1008	-2.6	150	1	70
2026-02-06T16:14	0.9	1008	-2.8	170	1	70
2026-02-06T16:15	0.3	1008	-3.6	150	1	70
2026-02-06T16:16	0.4	1008	-3.3	150	1	70
2026-02-06T16:17	0.6	1008	-3.0	140	1	70
2026-02-06T16:18	0.6	1008	-3.0	140	1	70
2026-02-06T16:19	0.3	1008	-3.2	140	1	70
2026-02-06T16:20	0.5	1008	-3.0	140	1	70
2026-02-06T16:21	0.6	1008	-3.0	130	1	70
2026-02-06T16:22	0.3	1008	-3.2	130	1	70
2026-02-06T16:23	0.2	1008	-3.2	120	1	70
2026-02-06T16:24	0.5	1008	-2.9	100	1	70
2026-02-06T16:25	0.8	1008	-2.6	90	1	70
2026-02-06T16:26	0.7	1008	-2.9	70	1	70
2026-02-06T16:27	0.6	1008	-3.0	50	1	70
2026-02-06T16:28	0.3	1008	-3.2	30	1	70
2026-02-06T16:29	0.2	1008	-3.3	10	1	70
2026-02-06T16:30	0.1	1008	-3.3	350	1	70
2026-02-06T16:31	0.1	1008	-3.3	340	1	70
2026-02-06T16:32	0.2	1008	-3.0	350	1	70
2026-02-06T16:33	-0.2	1008	-3.4	350	1	70
2026-02-06T16:34	-0.3	1008	-3.5	350	0	70
2026-02-06T16:35	0.1	1008	-2.9	350	0	70
2026-02-06T16:36	0.1	1008	-2.9	350	0	70
2026-02-06T16:37	0.0	1008	-3.2	350	0	70
2026-02-06T16:38	0.3	1008	-2.9	360	0	70
2026-02-06T16:39	0.0	1008	-3.4	0	0	70
2026-02-06T16:40	0.0	1008	-3.2	0	0	70
2026-02-06T16:41	0.2	1008	-3.0	40	0	70
2026-02-06T16:42	0.3	1008	-2.9	50	0	70
2026-02-06T16:43	0.4	1008	-2.8	60	0	70
2026-02-06T16:44	-0.1	1008	-3.5	70	1	70
2026-02-06T16:45	-0.2	1008	-3.6	80	1	70
2026-02-06T16:46	-0.1	1008	-3.5	90	1	70
2026-02-06T16:47	0.3	1008	-2.9	100	1	70
2026-02-06T16:48	0.5	1008	-2.7	100	1	70
2026-02-06T16:49	0.5	1008	-2.7	110	1	70
2026-02-06T16:50	0.5	1008	-2.9	110	1	70
2026-02-06T16:51	0.2	1008	-3.3	100	1	70
2026-02-06T16:52	0.3	1008	-3.1	100	1	70
2026-02-06T16:53	0.4	1008	-3.0	100	0	70
2026-02-06T16:54	0.5	1008	-2.9	100	0	70
2026-02-06T16:55	0.4	1008	-3.0	110	1	70
2026-02-06T16:56	0.4	1008	-3.0	110	1	70
2026-02-06T16:57	0.4	1008	-3.0	110	1	70
2026-02-06T16:58	0.3	1008	-3.1	110	1	70
2026-02-06T16:59	0.3	1008	-3.1	120	1	70
2026-02-06T17:00	0.4	1008	-3.0	120	1	70
2026-02-06T17:01	0.0	1008	-3.4	120	1	70
2026-02-06T17:02	-0.1	1008	-3.3	130	1	70
2026-02-06T17:03	0.0	1008	-3.2	130	1	70
2026-02-06T17:04	0.1	1008	-2.9	130	0	70
2026-02-06T17:05	0.2	1008	-3.0	130	0	70
2026-02-06T17:06	0.2	1008	-3.0	0	0	70
2026-02-06T17:07	0.4	1008	-2.8	0	0	70
2026-02-06T17:08	0.5	1008	-2.7	0	0	70
2026-02-06T17:09	0.5	1008	-2.7	0	0	70
2026-02-06T17:10	0.5	1008	-2.9	0	0	70
2026-02-06T17:11	0.2	1008	-3.2	0	0	70
2026-02-06T17:12	0.2	1008	-3.0	0	0	70
2026-02-06T17:13	0.4	1008	-2.8	0	0	70
2026-02-06T17:14	0.3	1008	-2.9	0	0	70
2026-02-06T17:15	0.4	1008	-3.0	0	0	70
2026-02-06T17:16	0.3	1008	-3.1	160	0	70
2026-02-06T17:17	0.4	1008	-2.8	170	0	70
2026-02-06T17:18	0.5	1008	-2.7	180	1	70
2026-02-06T17:19	0.4	1008	-2.8	200	1	70
2026-02-06T17:20	0.4	1008	-2.8	210	1	70
2026-02-06T17:21	0.2	1008	-3.0	220	1	70
2026-02-06T17:22	0.3	1008	-2.7	230	1	70
2026-02-06T17:23	0.6	1008	-2.4	230	1	70
2026-02-06T17:24	0.5	1008	-2.7	240	1	70
2026-02-06T17:25	0.3	1008	-2.9	240	1	70
2026-02-06T17:26	0.3	1008	-2.9	240	1	70
2026-02-06T17:27	0.3	1008	-2.9	240	1	70
2026-02-06T17:28	0.3	1008	-2.9	250	1	70
2026-02-06T17:29	0.3	1008	-2.7	250	1	70
2026-02-06T17:30	0.3	1008	-2.7	260	1	70
2026-02-06T17:31	0.3	1008	-2.7	270	1	70
2026-02-06T17:32	0.2	1008	-2.8	270	1	70
2026-02-06T17:33	-0.1	1008	-3.1	280	1	70
2026-02-06T17:34	0.1	1008	-2.8	290	1	70
2026-02-06T17:35	0.2	1008	-2.5	290	0	70
2026-02-06T17:36	0.2	1008	-2.7	300	0	70
2026-02-06T17:37	0.3	1008	-2.6	0	0	70
2026-02-06T17:38	0.5	1008	-2.5	0	0	70
2026-02-06T17:39	0.5	1008	-2.5	0	0	70
2026-02-06T17:40	0.3	1008	-2.9	70	0	70
2026-02-06T17:41	0.2	1008	-2.8	340	0	70
2026-02-06T17:42	0.2	1008	-2.8	360	0	70
2026-02-06T17:43	0.3	1008	-2.7	290	0	70
2026-02-06T17:44	0.3	1008	-2.7	0	0	70
2026-02-06T17:45	0.2	1008	-3.0	0	0	70
2026-02-06T17:46	0.4	1008	-2.6	0	0	70
2026-02-06T17:47	0.4	1008	-2.6	0	0	70
2026-02-06T17:48	0.3	1008	-2.7	0	0	70
2026-02-06T17:49	0.2	1008	-2.8	0	0	70
2026-02-06T17:50	0.3	1008	-2.7	0	0	70
2026-02-06T17:51	0.3	1008	-2.7	0	0	70
2026-02-06T17:52	0.5	1008	-2.7	0	0	70
2026-02-06T17:53	0.5	1008	-2.7	130	0	70
2026-02-06T17:54	0.6	1008	-2.6	140	0	70
2026-02-06T17:55	0.5	1008	-2.9	150	0	70
2026-02-06T17:56	0.3	1008	-3.1	150	1	70
2026-02-06T17:57	0.2	1008	-3.0	150	1	70
2026-02-06T17:58	0.2	1008	-3.0	150	1	70
2026-02-06T17:59	0.2	1008	-2.8	150	1	70
2026-02-06T18:00	0.3	1008	-2.7	140	1	70
2026-02-06T18:01	0.3	1008	-2.7	140	1	70
2026-02-06T18:02	0.2	1008	-2.8	120	1	70
2026-02-06T18:03	0.4	1008	-2.8	110	1	70
2026-02-06T18:04	0.1	1008	-3.1	100	1	70
2026-02-06T18:05	0.0	1008	-3.2	90	1	70
2026-02-06T18:06	0.1	1008	-2.9	90	1	70
2026-02-06T18:07	0.2	1008	-2.8	90	1	70
2026-02-06T18:08	0.2	1008	-2.8	100	0	70
2026-02-06T18:09	-0.1	1008	-3.1	100	0	70
2026-02-06T18:10	0.1	1008	-2.9	110	0	70
2026-02-06T18:11	-0.1	1008	-3.0	110	0	70
2026-02-06T18:12	0.0	1008	-2.9	110	0	70
2026-02-06T18:13	0.0	1008	-2.9	110	1	70
2026-02-06T18:14	0.1	1008	-2.8	320	1	70
2026-02-06T18:15	0.1	1008	-2.8	320	0	70
2026-02-06T18:16	0.2	1008	-2.7	330	0	70
2026-02-06T18:17	0.1	1008	-2.8	320	0	70
2026-02-06T18:18	0.3	1008	-2.6	0	0	70
2026-02-06T18:19	0.5	1008	-2.5	310	0	70
2026-02-06T18:20	0.5	1008	-2.5	310	0	70
2026-02-06T18:21	0.5	1008	-2.7	170	0	70
2026-02-06T18:22	0.3	1008	-2.9	140	0	70
2026-02-06T18:23	0.2	1008	-3.0	230	0	70
2026-02-06T18:24	0.3	1008	-2.7	150	0	70
2026-02-06T18:25	0.3	1008	-2.7	140	0	70
2026-02-06T18:26	0.5	1008	-2.5	140	0	70
2026-02-06T18:27	0.6	1008	-2.6	150	0	70
2026-02-06T18:28	0.6	1008	-2.6	150	0	70
2026-02-06T18:29	0.5	1008	-2.7	160	0	70
2026-02-06T18:30	0.4	1008	-2.8	0	0	70
2026-02-06T18:31	0.3	1008	-2.9	0	0	70
2026-02-06T18:32	0.3	1008	-2.7	0	0	70
2026-02-06T18:33	0.5	1008	-2.7	0	0	70
2026-02-06T18:34	0.5	1008	-2.7	0	0	70
2026-02-06T18:35	0.5	1008	-2.7	0	0	70
2026-02-06T18:36	0.4	1008	-3.0	0	0	70
2026-02-06T18:37	0.3	1008	-2.9	0	0	70
2026-02-06T18:38	0.4	1008	-2.6	0	0	70
2026-02-06T18:39	0.4	1008	-2.6	0	0	70
2026-02-06T18:40	0.5	1008	-2.5	240	0	70
2026-02-06T18:41	0.6	1008	-2.4	240	0	70
2026-02-06T18:42	0.6	1008	-2.6	240	0	70
2026-02-06T18:43	0.6	1008	-2.6	0	0	70
2026-02-06T18:44	0.5	1008	-2.7	0	0	70
2026-02-06T18:45	0.6	1008	-2.8	240	0	70
2026-02-06T18:46	0.7	1008	-2.7	0	0	70
2026-02-06T18:47	0.5	1008	-3.0	240	0	70
2026-02-06T18:48	0.5	1008	-3.0	250	0	70
2026-02-06T18:49	0.4	1008	-3.0	250	0	70
2026-02-06T18:50	0.5	1008	-2.5	270	0	70
2026-02-06T18:51	0.7	1008	-2.5	0	0	70
2026-02-06T18:52	0.6	1008	-2.6	320	0	70
2026-02-06T18:53	0.5	1008	-2.7	350	0	70
2026-02-06T18:54	0.7	1008	-2.5	360	0	70
2026-02-06T18:55	0.7	1008	-2.7	10	0	70
2026-02-06T18:56	0.6	1008	-2.8	10	0	70
2026-02-06T18:57	0.7	1008	-2.9	20	0	70
2026-02-06T18:58	0.8	1008	-2.8	0	0	70
2026-02-06T18:59	0.8	1008	-2.8	0	0	70
2026-02-06T19:00	0.7	1008	-2.7	0	0	70
2026-02-06T19:01	0.6	1008	-2.8	0	0	70
2026-02-06T19:02	0.4	1008	-3.0	0	0	70
2026-02-06T19:03	0.4	1008	-2.8	0	0	70
2026-02-06T19:04	0.5	1008	-2.9	0	0	70
2026-02-06T19:05	0.6	1008	-3.0	0	0	70
2026-02-06T19:06	0.6	1008	-2.8	20	0	70
2026-02-06T19:07	0.6	1008	-2.6	10	0	70
2026-02-06T19:08	0.7	1008	-2.5	10	0	70
2026-02-06T19:09	0.7	1008	-2.7	360	0	70
2026-02-06T19:10	0.8	1008	-2.8	340	0	70
2026-02-06T19:11	0.9	1008	-2.8	320	0	70
2026-02-06T19:12	1.0	1008	-2.7	310	0	70
2026-02-06T19:13	0.6	1008	-3.0	290	0	70
2026-02-06T19:14	0.6	1008	-2.6	280	0	70
2026-02-06T19:15	0.7	1008	-2.5	270	0	70
2026-02-06T19:16	0.7	1008	-2.7	260	0	70
2026-02-06T19:17	0.8	1008	-2.4	250	1	70
2026-02-06T19:18	0.8	1008	-2.6	240	1	70
2026-02-06T19:19	0.9	1008	-2.3	240	1	70
2026-02-06T19:20	0.8	1008	-2.2	240	1	70
2026-02-06T19:21	0.9	1008	-2.5	240	1	70
2026-02-06T19:22	0.9	1008	-2.5	240	1	70
2026-02-06T19:23	0.8	1008	-2.4	240	1	70
2026-02-06T19:24	0.7	1008	-2.5	240	1	70
2026-02-06T19:25	0.8	1008	-2.4	240	1	70
2026-02-06T19:26	1.0	1008	-2.4	240	1	70
2026-02-06T19:27	1.1	1008	-2.5	240	1	70
2026-02-06T19:28	1.3	1008	-2.6	240	1	70
2026-02-06T19:29	1.3	1008	-2.8	240	0	70
2026-02-06T19:30	1.3	1008	-2.8	240	0	70
2026-02-06T19:31	1.3	1008	-2.8	230	0	70
2026-02-06T19:32	1.4	1008	-2.7	220	0	70
2026-02-06T19:33	1.4	1008	-2.7	210	0	70
2026-02-06T19:34	1.2	1008	-2.5	200	0	70
2026-02-06T19:35	1.1	1008	-2.3	0	0	70
2026-02-06T19:36	1.1	1008	-2.5	0	0	70
2026-02-06T19:37	1.2	1008	-2.5	0	0	70
2026-02-06T19:38	1.3	1008	-2.8	0	0	70
2026-02-06T19:39	1.3	1008	-2.8	0	0	70
2026-02-06T19:40	1.2	1008	-2.7	0	0	70
2026-02-06T19:41	1.2	1008	-2.7	0	0	70
2026-02-06T19:42	1.2	1008	-2.9	0	0	70
2026-02-06T19:43	1.3	1008	-2.8	0	0	70
2026-02-06T19:44	1.4	1009	-2.7	0	0	70
2026-02-06T19:45	1.5	1009	-2.4	0	0	70
2026-02-06T19:46	1.4	1009	-2.5	160	0	70
2026-02-06T19:47	1.4	1009	-2.5	160	0	70
2026-02-06T19:48	1.4	1009	-2.5	160	1	70
2026-02-06T19:49	1.3	1009	-2.6	170	1	70
2026-02-06T19:50	1.3	1009	-2.6	170	1	70
2026-02-06T19:51	1.4	1009	-2.5	180	1	70
2026-02-06T19:52	1.4	1009	-2.5	180	1	70
2026-02-06T19:53	1.6	1009	-2.5	190	1	70
2026-02-06T19:54	1.9	1009	-3.0	190	1	70
2026-02-06T19:55	1.9	1009	-3.2	190	1	70
2026-02-06T19:56	2.0	1009	-3.3	190	1	70
2026-02-06T19:57	1.9	1009	-3.2	190	1	70
2026-02-06T19:58	1.9	1009	-3.2	190	1	70
2026-02-06T19:59	1.9	1009	-3.2	190	1	70
2026-02-06T20:00	2.0	1009	-3.3	200	1	70
2026-02-06T20:01	2.1	1009	-3.2	200	1	70
2026-02-06T20:02	2.1	1009	-3.4	190	1	70
2026-02-06T20:03	2.1	1009	-3.4	190	1	70
2026-02-06T20:04	2.1	1009	-3.4	190	1	70
2026-02-06T20:05	2.0	1009	-3.5	190	1	70
2026-02-06T20:06	2.0	1009	-3.5	190	1	70
2026-02-06T20:07	2.0	1009	-3.5	190	1	70
2026-02-06T20:08	2.0	1009	-3.5	190	1	70
2026-02-06T20:09	1.9	1009	-3.4	190	1	70
2026-02-06T20:10	1.8	1009	-3.1	190	1	70
2026-02-06T20:11	1.6	1009	-3.1	200	1	70
2026-02-06T20:12	1.6	1009	-2.9	200	1	70
2026-02-06T20:13	1.6	1009	-2.9	210	1	70
2026-02-06T20:14	1.6	1009	-2.7	230	0	70
2026-02-06T20:15	1.5	1009	-2.6	240	0	70
2026-02-06T20:16	1.5	1009	-2.4	240	0	70
2026-02-06T20:17	1.4	1009	-2.4	240	0	70
2026-02-06T20:18	1.5	1009	-2.4	240	0	70
2026-02-06T20:19	1.6	1009	-2.3	240	1	70
2026-02-06T20:20	1.5	1009	-2.4	240	1	70
2026-02-06T20:21	1.5	1009	-2.8	230	1	70
2026-02-06T20:22	1.4	1009	-2.9	220	1	70
2026-02-06T20:23	1.5	1009	-2.6	210	1	70
2026-02-06T20:24	1.5	1009	-2.6	200	1	70
2026-02-06T20:25	1.5	1009	-2.6	190	1	70
2026-02-06T20:26	1.5	1009	-2.4	190	1	70
2026-02-06T20:27	1.4	1009	-2.4	190	1	70
2026-02-06T20:28	1.4	1009	-2.2	190	1	70
2026-02-06T20:29	1.5	1009	-2.4	180	1	70
2026-02-06T20:30	1.5	1009	-2.8	180	1	70
2026-02-06T20:31	1.6	1009	-2.7	180	1	70
2026-02-06T20:32	1.6	1009	-2.9	170	1	70
2026-02-06T20:33	1.5	1009	-2.6	170	0	70
2026-02-06T20:34	1.3	1009	-2.1	160	0	70
2026-02-06T20:35	1.3	1009	-2.1	160	0	70
2026-02-06T20:36	1.4	1009	-2.4	0	0	70
2026-02-06T20:37	1.4	1009	-2.2	0	0	70
2026-02-06T20:38	1.4	1009	-2.2	0	0	70
2026-02-06T20:39	1.5	1009	-2.4	150	0	70
2026-02-06T20:40	1.6	1009	-2.5	140	0	70
2026-02-06T20:41	1.6	1009	-2.7	140	0	70
2026-02-06T20:42	1.6	1009	-3.1	140	0	70
2026-02-06T20:43	1.6	1009	-2.9	140	0	70
2026-02-06T20:44	1.6	1009	-2.9	130	1	70
2026-02-06T20:45	1.6	1009	-2.7	130	1	70
2026-02-06T20:46	1.6	1009	-2.7	130	1	70
2026-02-06T20:47	1.6	1009	-2.9	130	1	70
2026-02-06T20:48	1.6	1009	-3.1	130	1	70
2026-02-06T20:49	1.6	1009	-3.3	130	1	70
2026-02-06T20:50	1.6	1009	-3.1	130	1	70
2026-02-06T20:51	1.5	1009	-2.8	130	1	70
2026-02-06T20:52	1.7	1009	-3.0	130	1	70
2026-02-06T20:53	1.7	1009	-3.2	130	1	70
2026-02-06T20:54	1.8	1009	-3.1	130	1	70
2026-02-06T20:55	2.0	1009	-3.3	130	1	70
2026-02-06T20:56	2.1	1009	-3.4	130	1	70
2026-02-06T20:57	2.0	1009	-3.3	130	1	70
2026-02-06T20:58	2.0	1009	-3.5	130	1	70
2026-02-06T20:59	2.0	1009	-3.5	130	1	70
2026-02-06T21:00	1.9	1009	-3.4	140	1	70
2026-02-06T21:01	1.7	1009	-3.4	140	1	70
2026-02-06T21:02	1.8	1008	-3.5	140	1	70
2026-02-06T21:03	1.8	1008	-3.5	140	0	70
2026-02-06T21:04	1.8	1008	-3.5	130	0	70
2026-02-06T21:05	1.8	1008	-3.3	130	0	70
2026-02-06T21:06	1.7	1008	-3.0	120	0	70
2026-02-06T21:07	1.6	1008	-2.7	120	0	70
2026-02-06T21:08	1.6	1008	-2.7	110	0	70
2026-02-06T21:09	1.8	1008	-3.1	110	0	70
2026-02-06T21:10	2.1	1008	-3.2	100	0	70
2026-02-06T21:11	2.2	1008	-3.5	100	0	70
2026-02-06T21:12	2.0	1008	-3.3	100	0	70
2026-02-06T21:13	2.0	1008	-3.5	100	1	70
2026-02-06T21:14	1.9	1008	-3.4	100	1	70
2026-02-06T21:15	1.8	1008	-3.3	110	1	70
2026-02-06T21:16	1.8	1008	-3.1	120	1	70
2026-02-06T21:17	1.9	1008	-3.2	120	1	70
2026-02-06T21:18	2.0	1008	-3.3	130	1	70
2026-02-06T21:19	2.0	1009	-3.1	130	1	70
2026-02-06T21:20	2.3	1009	-3.2	130	1	70
2026-02-06T21:21	2.4	1009	-3.5	130	1	70
2026-02-06T21:22	2.1	1009	-3.4	130	1	70
2026-02-06T21:23	2.0	1009	-3.1	120	1	70
2026-02-06T21:24	2.3	1009	-3.2	110	1	70
2026-02-06T21:25	2.1	1009	-3.2	110	1	70
2026-02-06T21:26	2.0	1009	-3.1	100	1	70
2026-02-06T21:27	1.9	1009	-3.2	80	1	70
2026-02-06T21:28	1.9	1009	-3.2	70	1	70
2026-02-06T21:29	1.8	1009	-3.3	60	1	70
2026-02-06T21:30	1.9	1009	-3.2	40	1	70
2026-02-06T21:31	2.4	1009	-3.5	40	1	70
2026-02-06T21:32	2.7	1009	-4.3	40	1	70
2026-02-06T21:33	2.6	1009	-4.1	40	1	70
2026-02-06T21:34	2.3	1009	-3.8	40	1	70
2026-02-06T21:35	2.6	1009	-4.1	30	1	70
2026-02-06T21:36	2.5	1009	-4.2	40	1	70
2026-02-06T21:37	2.7	1009	-4.5	50	1	70
2026-02-06T21:38	2.6	1009	-4.6	70	1	70
2026-02-06T21:39	2.5	1009	-4.5	90	1	70
2026-02-06T21:40	2.7	1010	-4.7	100	1	70
2026-02-06T21:41	2.8	1010	-5.1	110	1	70
2026-02-06T21:42	2.8	1010	-5.1	100	1	70
2026-02-06T21:43	2.4	1010	-4.3	100	1	70
2026-02-06T21:44	2.2	1010	-4.1	100	1	70
2026-02-06T21:45	2.4	1010	-4.6	110	1	70
2026-02-06T21:46	2.6	1010	-4.8	120	1	70
2026-02-06T21:47	2.5	1010	-4.9	110	1	70
2026-02-06T21:48	2.4	1010	-4.6	110	1	70
2026-02-06T21:49	2.6	1010	-4.6	110	1	70
2026-02-06T21:50	2.5	1010	-4.7	100	1	70
2026-02-06T21:51	2.6	1010	-5.0	100	1	70
2026-02-06T21:52	2.9	1010	-5.7	100	1	70
2026-02-06T21:53	2.9	1010	-6.0	100	1	70
2026-02-06T21:54	2.8	1010	-5.8	100	1	70
2026-02-06T21:55	2.6	1010	-5.3	90	1	70
2026-02-06T21:56	2.8	1010	-5.6	90	1	70
2026-02-06T21:57	2.8	1010	-5.6	90	1	70
2026-02-06T21:58	2.6	1010	-5.3	80	1	70
2026-02-06T21:59	2.8	1010	-5.6	80	1	70
2026-02-06T22:00	2.9	1010	-6.0	80	1	70
2026-02-06T22:01	2.9	1010	-6.2	80	1	70
2026-02-06T22:02	2.9	1010	-6.5	80	1	70
2026-02-06T22:03	2.9	1010	-6.2	80	2	70
2026-02-06T22:04	2.9	1010	-6.2	90	1	70
2026-02-06T22:05	2.9	1010	-6.2	90	1	70
2026-02-06T22:06	2.8	1010	-6.1	90	1	70
2026-02-06T22:07	2.8	1010	-6.3	90	1	70
2026-02-06T22:08	2.8	1010	-6.3	80	1	70
2026-02-06T22:09	2.9	1010	-6.2	80	1	70
2026-02-06T22:10	2.7	1010	-5.9	70	1	70
2026-02-06T22:11	2.6	1010	-5.8	70	1	70
2026-02-06T22:12	2.7	1010	-6.2	70	1	70
2026-02-06T22:13	2.6	1010	-6.0	70	1	70
2026-02-06T22:14	2.7	1010	-5.9	60	1	70
2026-02-06T22:15	2.8	1010	-6.1	60	1	70
2026-02-06T22:16	2.8	1010	-6.1	60	1	70
2026-02-06T22:17	2.7	1010	-6.2	60	1	70
2026-02-06T22:18	2.8	1010	-6.1	60	1	70
2026-02-06T22:19	2.7	1010	-6.2	50	1	70
2026-02-06T22:20	2.5	1010	-5.6	50	1	70
2026-02-06T22:21	2.5	1010	-5.6	50	1	70
2026-02-06T22:22	2.4	1010	-5.5	50	1	70
2026-02-06T22:23	2.5	1010	-5.6	40	1	70
2026-02-06T22:24	2.5	1010	-5.8	40	1	70
2026-02-06T22:25	2.6	1010	-6.0	40	1	70
2026-02-06T22:26	2.6	1010	-6.0	40	1	70
2026-02-06T22:27	2.6	1010	-6.0	40	2	70
2026-02-06T22:28	2.6	1010	-6.0	50	2	70
2026-02-06T22:29	2.6	1010	-6.0	50	2	70
2026-02-06T22:30	2.6	1010	-5.8	60	2	70
2026-02-06T22:31	2.6	1010	-6.0	60	2	70
2026-02-06T22:32	2.6	1010	-6.0	60	1	70
2026-02-06T22:33	2.6	1010	-6.3	50	1	70
2026-02-06T22:34	2.6	1010	-6.3	50	1	70
2026-02-06T22:35	2.6	1010	-6.3	60	1	70
2026-02-06T22:36	2.6	1010	-6.3	60	1	70
2026-02-06T22:37	2.6	1010	-6.0	70	1	70
2026-02-06T22:38	2.6	1010	-6.0	70	1	70
2026-02-06T22:39	2.6	1010	-6.0	80	1	70
2026-02-06T22:40	2.6	1010	-6.0	80	1	70
2026-02-06T22:41	2.6	1010	-6.0	90	1	70
2026-02-06T22:42	2.6	1010	-6.0	100	1	70
2026-02-06T22:43	2.6	1010	-6.0	110	1	70
2026-02-06T22:44	2.6	1010	-6.3	110	1	70
2026-02-06T22:45	2.6	1010	-6.3	110	1	70
2026-02-06T22:46	2.5	1010	-5.8	100	1	70
2026-02-06T22:47	2.6	1010	-6.0	100	1	70
2026-02-06T22:48	2.6	1010	-6.3	90	1	70
2026-02-06T22:49	2.6	1010	-6.3	90	1	70
2026-02-06T22:50	2.6	1010	-6.3	90	1	70
2026-02-06T22:51	2.6	1010	-6.3	90	1	70
2026-02-06T22:52	2.6	1010	-6.3	80	1	70
2026-02-06T22:53	2.6	1010	-6.0	80	1	70
2026-02-06T22:54	2.7	1010	-6.2	80	1	70
2026-02-06T22:55	2.7	1010	-6.2	70	1	70
2026-02-06T22:56	2.6	1010	-6.3	70	1	70
2026-02-06T22:57	2.7	1010	-6.2	70	1	70
2026-02-06T22:58	2.7	1010	-6.2	60	1	70
2026-02-06T22:59	2.7	1010	-5.7	80	1	70
2026-02-06T23:00	2.6	1010	-5.8	80	1	70
2026-02-06T23:01	2.7	1010	-5.9	90	1	70
2026-02-06T23:02	2.7	1010	-6.2	90	1	70
2026-02-06T23:03	2.8	1010	-6.1	100	1	70
2026-02-06T23:04	2.7	1010	-6.2	100	1	70
2026-02-06T23:05	2.8	1010	-6.1	100	1	70
2026-02-06T23:06	2.8	1010	-6.1	100	1	70
2026-02-06T23:07	2.8	1010	-6.1	100	1	70
2026-02-06T23:08	2.8	1010	-6.1	100	1	70
2026-02-06T23:09	2.8	1010	-6.1	90	1	70
2026-02-06T23:10	2.8	1010	-6.1	90	1	70
2026-02-06T23:11	2.8	1010	-6.3	90	1	70
2026-02-06T23:12	2.8	1010	-6.3	80	1	70
2026-02-06T23:13	2.8	1011	-6.3	80	1	70
2026-02-06T23:14	2.8	1010	-6.1	80	1	70
2026-02-06T23:15	2.8	1010	-6.1	70	1	70
2026-02-06T23:16	2.8	1011	-6.3	70	1	70
2026-02-06T23:17	2.8	1011	-6.3	70	1	70
2026-02-06T23:18	2.8	1011	-6.3	70	1	70
2026-02-06T23:19	2.8	1011	-6.3	70	1	70
2026-02-06T23:20	2.8	1011	-6.3	80	2	70
2026-02-06T23:21	2.8	1011	-6.3	70	2	70
2026-02-06T23:22	2.8	1011	-6.1	70	2	70
2026-02-06T23:23	2.8	1011	-6.1	70	2	70
2026-02-06T23:24	2.8	1011	-6.3	70	2	70
2026-02-06T23:25	2.8	1011	-6.1	80	2	70
2026-02-06T23:26	2.8	1011	-6.3	80	2	70
2026-02-06T23:27	2.8	1011	-6.3	80	2	70
2026-02-06T23:28	2.8	1011	-6.3	80	2	70
2026-02-06T23:29	2.8	1011	-6.3	70	1	70
2026-02-06T23:30	2.9	1011	-6.2	70	2	70
2026-02-06T23:31	2.9	1011	-6.2	70	1	70
2026-02-06T23:32	2.8	1011	-6.3	70	1	70
2026-02-06T23:33	2.8	1011	-6.3	70	1	70
2026-02-06T23:34	2.9	1011	-6.2	70	1	70
2026-02-06T23:35	2.9	1011	-6.2	80	1	70
2026-02-06T23:36	2.9	1011	-6.2	80	1	70
2026-02-06T23:37	2.9	1011	-6.2	90	1	70
2026-02-06T23:38	2.9	1011	-6.2	100	1	70
2026-02-06T23:39	2.9	1011	-6.2	110	1	70
2026-02-06T23:40	2.9	1011	-6.2	110	1	70
2026-02-06T23:41	2.9	1011	-6.0	110	1	70
2026-02-06T23:42	2.9	1011	-6.2	120	1	70
2026-02-06T23:43	3.0	1011	-5.9	120	1	70
2026-02-06T23:44	3.0	1011	-5.9	130	1	70
2026-02-06T23:45	3.0	1011	-5.9	130	1	70
2026-02-06T23:46	3.0	1011	-6.1	130	1	70
2026-02-06T23:47	3.0	1011	-6.1	120	1	70
2026-02-06T23:48	2.9	1011	-6.2	120	1	70
2026-02-06T23:49	2.9	1011	-6.2	110	1	70
2026-02-06T23:50	2.9	1011	-6.2	110	1	70
2026-02-06T23:51	2.9	1011	-6.2	120	1	70
2026-02-06T23:52	2.9	1011	-6.2	120	1	70
2026-02-06T23:53	2.9	1011	-6.2	120	1	70
2026-02-06T23:54	2.9	1011	-6.2	120	1	70
2026-02-06T23:55	2.9	1011	-6.2	120	1	70
2026-02-06T23:56	2.9	1011	-6.2	120	1	70
2026-02-06T23:57	3.0	1011	-6.1	110	2	70
2026-02-06T23:58	3.0	1011	-6.1	110	2	70
2026-02-06T23:59	3.0	1011	-6.1	110	2	70
2026-02-07T00:00	3.0	1011	-6.1	110	2	70
2026-02-07T00:01	3.0	1011	-6.1	110	2	70
2026-02-07T00:02	3.0	1011	-6.1	100	2	70
2026-02-07T00:03	3.0	1011	-6.4	100	2	70
2026-02-07T00:04	3.0	1011	-6.1	100	2	70
2026-02-07T00:05	3.1	1011	-6.0	100	1	70
2026-02-07T00:06	3.0	1011	-6.4	100	1	70
2026-02-07T00:07	3.0	1011	-6.4	100	1	70
2026-02-07T00:08	3.0	1011	-6.4	90	1	70
2026-02-07T00:09	3.0	1011	-6.4	90	1	70
2026-02-07T00:10	3.0	1011	-6.4	90	1	70
2026-02-07T00:11	3.0	1011	-6.4	90	1	70
2026-02-07T00:12	3.1	1011	-6.3	80	1	70
2026-02-07T00:13	3.1	1011	-6.3	80	1	70
2026-02-07T00:14	3.1	1011	-6.3	90	1	70
2026-02-07T00:15	3.2	1011	-6.2	80	1	70
2026-02-07T00:16	3.1	1011	-6.3	80	1	70
2026-02-07T00:17	3.1	1011	-6.0	80	1	70
2026-02-07T00:18	3.2	1011	-6.2	80	1	70
2026-02-07T00:19	3.2	1011	-6.2	80	1	70
2026-02-07T00:20	3.2	1011	-5.9	90	1	70
2026-02-07T00:21	3.2	1011	-5.9	80	1	70
2026-02-07T00:22	3.1	1011	-6.3	80	1	70
2026-02-07T00:23	3.1	1011	-6.3	80	1	70
2026-02-07T00:24	3.2	1011	-5.9	80	1	70
2026-02-07T00:25	3.2	1010	-5.9	80	1	70
2026-02-07T00:26	3.2	1010	-5.9	80	1	70
2026-02-07T00:27	3.2	1010	-5.9	90	1	70
2026-02-07T00:28	3.2	1010	-5.9	90	1	70
2026-02-07T00:29	3.2	1010	-5.9	100	1	70
2026-02-07T00:30	3.2	1011	-5.9	100	1	70
2026-02-07T00:31	3.3	1011	-5.9	100	1	70
2026-02-07T00:32	3.2	1011	-5.7	100	1	70
2026-02-07T00:33	3.2	1011	-5.9	100	1	70
2026-02-07T00:34	3.2	1011	-5.9	110	1	70
2026-02-07T00:35	3.3	1011	-5.6	110	1	70
2026-02-07T00:36	3.3	1011	-5.6	120	1	70
2026-02-07T00:37	3.3	1011	-5.6	110	1	70
2026-02-07T00:38	3.3	1011	-5.6	110	1	70
2026-02-07T00:39	3.3	1011	-5.3	120	1	70
2026-02-07T00:40	3.3	1011	-5.3	120	1	70
2026-02-07T00:41	3.3	1011	-5.3	120	1	70
2026-02-07T00:42	3.3	1011	-5.3	120	1	70
2026-02-07T00:43	3.3	1011	-4.9	120	1	70
2026-02-07T00:44	3.2	1011	-4.2	130	1	70
2026-02-07T00:45	3.1	1011	-4.3	130	1	70
2026-02-07T00:46	3.1	1011	-4.3	130	1	70
2026-02-07T00:47	3.2	1011	-4.2	130	1	70
2026-02-07T00:48	3.2	1011	-4.2	140	1	70
2026-02-07T00:49	3.2	1011	-4.5	140	1	70
2026-02-07T00:50	3.2	1011	-4.5	150	1	70
2026-02-07T00:51	3.2	1011	-4.5	160	1	70
2026-02-07T00:52	3.2	1011	-4.5	160	1	70
2026-02-07T00:53	3.3	1011	-4.2	170	1	70
2026-02-07T00:54	3.3	1011	-3.9	170	1	70
2026-02-07T00:55	3.4	1011	-3.6	170	1	70
2026-02-07T00:56	3.3	1010	-3.7	170	1	70
2026-02-07T00:57	3.4	1010	-3.4	160	1	70
2026-02-07T00:58	3.3	1010	-3.7	160	1	70
2026-02-07T00:59	3.3	1010	-3.7	150	1	70
2026-02-07T01:00	3.2	1010	-3.6	140	1	70
2026-02-07T01:01	3.0	1011	-3.6	130	1	70
2026-02-07T01:02	3.0	1011	-3.6	120	1	70
2026-02-07T01:03	2.9	1010	-3.4	110	1	70
2026-02-07T01:04	2.9	1010	-3.2	100	1	70
2026-02-07T01:05	2.8	1010	-3.3	90	1	70
2026-02-07T01:06	2.7	1010	-3.4	90	1	70
2026-02-07T01:07	2.6	1011	-3.5	80	1	70
2026-02-07T01:08	2.7	1011	-3.4	70	1	70
2026-02-07T01:09	2.7	1011	-3.4	60	1	70
2026-02-07T01:10	2.7	1011	-3.4	60	1	70
2026-02-07T01:11	2.7	1011	-3.2	60	1	70
2026-02-07T01:12	2.7	1011	-3.2	60	1	70
2026-02-07T01:13	2.8	1011	-2.9	70	1	70
2026-02-07T01:14	2.8	1011	-2.9	70	1	70
2026-02-07T01:15	2.7	1011	-3.0	80	1	70
2026-02-07T01:16	2.7	1011	-3.0	90	1	70
2026-02-07T01:17	2.8	1011	-2.7	110	1	70
2026-02-07T01:18	2.8	1011	-2.7	140	1	70
2026-02-07T01:19	2.7	1011	-3.0	160	1	70
2026-02-07T01:20	2.9	1011	-2.6	170	1	70
2026-02-07T01:21	2.9	1011	-2.6	170	1	70
2026-02-07T01:22	2.8	1011	-2.9	170	1	70
2026-02-07T01:23	2.8	1011	-2.9	180	1	70
2026-02-07T01:24	2.8	1011	-2.9	170	1	70
2026-02-07T01:25	3.0	1011	-2.5	140	1	70
2026-02-07T01:26	3.1	1011	-2.4	110	1	70
2026-02-07T01:27	2.9	1011	-2.8	90	1	70
2026-02-07T01:28	2.6	1011	-3.1	90	1	70
2026-02-07T01:29	2.7	1011	-2.8	80	1	70
2026-02-07T01:30	2.6	1011	-2.9	60	1	70
2026-02-07T01:31	2.6	1011	-2.7	50	1	70
2026-02-07T01:32	2.7	1011	-2.6	40	1	70
2026-02-07T01:33	2.6	1011	-2.5	40	1	70
2026-02-07T01:34	2.5	1011	-2.6	30	1	70
2026-02-07T01:35	2.5	1011	-2.6	20	1	70
2026-02-07T01:36	2.4	1011	-2.7	10	1	70
2026-02-07T01:37	2.3	1011	-2.8	360	1	70
2026-02-07T01:38	2.3	1011	-2.8	350	1	70
2026-02-07T01:39	2.4	1011	-2.5	340	1	70
2026-02-07T01:40	2.4	1011	-2.5	340	1	70
2026-02-07T01:41	2.4	1011	-2.3	340	1	70
2026-02-07T01:42	2.4	1011	-2.3	330	1	70
2026-02-07T01:43	2.4	1011	-2.3	340	1	70
2026-02-07T01:44	2.5	1011	-2.2	340	1	70
2026-02-07T01:45	2.4	1011	-2.1	350	0	70
2026-02-07T01:46	2.4	1011	-2.3	10	0	70
2026-02-07T01:47	2.4	1010	-2.3	30	0	70
2026-02-07T01:48	2.4	1010	-2.3	60	0	70
2026-02-07T01:49	2.3	1010	-2.4	90	1	70
2026-02-07T01:50	2.2	1010	-2.3	100	1	70
2026-02-07T01:51	2.1	1010	-2.4	100	1	70
2026-02-07T01:52	2.0	1010	-2.3	100	1	70
2026-02-07T01:53	2.0	1010	-2.3	100	1	70
2026-02-07T01:54	2.0	1010	-2.1	100	1	70
2026-02-07T01:55	2.1	1010	-1.9	110	1	69
2026-02-07T01:56	2.0	1010	-2.0	100	1	67
2026-02-07T01:57	2.0	1010	-2.0	100	1	65
2026-02-07T01:58	2.0	1010	-2.0	100	1	65
2026-02-07T01:59	1.9	1010	-2.1	100	1	65
2026-02-07T02:00	2.0	1010	-1.8	110	1	65
2026-02-07T02:01	2.1	1010	-1.7	110	1	67
2026-02-07T02:02	2.1	1010	-1.5	120	1	68
2026-02-07T02:03	2.1	1010	-1.7	120	1	69
2026-02-07T02:04	2.0	1010	-2.0	120	1	70
2026-02-07T02:05	2.3	1010	-1.3	120	1	70
2026-02-07T02:06	2.0	1010	-1.8	120	1	70
2026-02-07T02:07	2.0	1010	-1.8	120	1	70
2026-02-07T02:08	1.9	1010	-1.9	120	1	70
2026-02-07T02:09	1.8	1010	-2.0	110	1	70
2026-02-07T02:10	1.7	1010	-2.1	110	1	70
2026-02-07T02:11	1.9	1010	-1.7	110	1	70
2026-02-07T02:12	1.9	1010	-1.5	110	1	70
2026-02-07T02:13	1.9	1010	-1.3	100	1	70
2026-02-07T02:14	1.9	1010	-1.3	110	1	70
2026-02-07T02:15	1.7	1010	-1.7	110	1	69
2026-02-07T02:16	1.7	1010	-1.5	110	1	68
2026-02-07T02:17	1.8	1010	-1.3	110	1	68
2026-02-07T02:18	1.8	1010	-1.1	120	1	68
2026-02-07T02:19	1.9	1010	-1.0	120	1	68
2026-02-07T02:20	2.0	1010	-0.7	120	1	69
2026-02-07T02:21	2.0	1010	-0.6	120	1	69
2026-02-07T02:22	2.0	1010	-0.6	120	1	69
2026-02-07T02:23	2.0	1010	-0.4	120	1	69
2026-02-07T02:24	1.7	1010	-1.0	120	1	68
2026-02-07T02:25	1.5	1010	-1.1	120	1	69
2026-02-07T02:26	1.7	1010	-0.7	120	1	69
2026-02-07T02:27	1.7	1010	-0.4	120	2	69
2026-02-07T02:28	1.7	1010	-0.4	120	2	69
2026-02-07T02:29	1.7	1010	-0.4	120	2	68
2026-02-07T02:30	1.5	1010	-0.4	120	2	67
2026-02-07T02:31	1.4	1010	-0.7	120	2	67
2026-02-07T02:32	1.4	1010	-0.5	120	2	66
2026-02-07T02:33	1.5	1010	-0.3	120	2	65
2026-02-07T02:34	1.4	1010	-0.4	120	2	66
2026-02-07T02:35	1.5	1010	-0.3	110	2	66
2026-02-07T02:36	1.4	1010	-0.4	110	2	66
2026-02-07T02:37	1.4	1010	-0.4	110	2	65
2026-02-07T02:38	1.3	1010	-0.5	110	2	65
2026-02-07T02:39	1.4	1010	-0.2	110	2	65
2026-02-07T02:40	1.4	1010	-0.2	110	2	65
2026-02-07T02:41	1.4	1010	-0.2	100	2	64
2026-02-07T02:42	1.4	1010	-0.2	100	2	64
2026-02-07T02:43	1.4	1010	0.0	100	2	64
2026-02-07T02:44	1.3	1010	-0.3	90	2	63
2026-02-07T02:45	1.4	1009	-0.2	100	1	63
2026-02-07T02:46	1.4	1009	0.0	100	2	63
2026-02-07T02:47	1.2	1010	-0.2	100	1	62
2026-02-07T02:48	1.1	1010	-0.5	100	1	62
2026-02-07T02:49	1.1	1010	-0.5	90	1	62
2026-02-07T02:50	1.1	1010	-0.5	100	1	61
2026-02-07T02:51	1.1	1009	-0.5	90	1	61
2026-02-07T02:52	1.1	1009	-0.5	90	1	61
2026-02-07T02:53	1.1	1009	-0.5	90	1	60
2026-02-07T02:54	1.0	1009	-0.6	100	1	60
2026-02-07T02:55	1.1	1009	-0.5	90	1	61
2026-02-07T02:56	1.1	1009	-0.3	90	1	60
2026-02-07T02:57	1.1	1009	-0.5	90	1	61
2026-02-07T02:58	1.1	1009	-0.5	80	1	61
2026-02-07T02:59	1.1	1009	-0.5	80	1	61
2026-02-07T03:00	1.2	1009	-0.4	80	1	61
2026-02-07T03:01	1.2	1009	-0.2	70	1	61
2026-02-07T03:02	1.1	1009	-0.3	70	1	61
2026-02-07T03:03	1.1	1009	-0.3	70	2	61
2026-02-07T03:04	1.0	1009	-0.4	60	1	61
2026-02-07T03:05	1.0	1009	-0.4	70	1	60
2026-02-07T03:06	1.0	1009	-0.4	70	2	60
2026-02-07T03:07	1.0	1009	-0.4	70	2	59
2026-02-07T03:08	1.0	1009	-0.4	80	2	59
2026-02-07T03:09	1.1	1009	-0.3	80	2	58
2026-02-07T03:10	1.1	1009	-0.3	90	2	58
2026-02-07T03:11	1.1	1009	-0.3	90	2	57
2026-02-07T03:12	1.1	1009	-0.3	90	2	57
2026-02-07T03:13	1.1	1009	-0.5	90	2	57
2026-02-07T03:14	1.1	1009	-0.5	90	2	57
2026-02-07T03:15	1.1	1009	-0.7	90	2	57
2026-02-07T03:16	1.3	1009	-0.1	90	1	58
2026-02-07T03:17	1.2	1009	-0.2	90	2	58
2026-02-07T03:18	1.0	1009	-0.4	80	2	58
2026-02-07T03:19	1.0	1009	-0.4	80	1	60
2026-02-07T03:20	1.1	1009	-0.2	80	1	60
2026-02-07T03:21	1.1	1009	-0.2	70	2	61
2026-02-07T03:22	1.1	1009	-0.2	80	2	60
2026-02-07T03:23	1.0	1009	-0.3	80	2	61
2026-02-07T03:24	1.1	1009	-0.2	80	2	62
2026-02-07T03:25	1.1	1009	0.0	80	2	63
2026-02-07T03:26	1.2	1009	0.1	80	2	63
2026-02-07T03:27	1.3	1009	0.2	80	2	64
2026-02-07T03:28	1.2	1009	-0.1	90	1	65
2026-02-07T03:29	1.1	1009	-0.2	90	1	67
2026-02-07T03:30	1.1	1009	-0.3	90	1	68
2026-02-07T03:31	1.1	1009	-0.5	90	1	68
2026-02-07T03:32	1.0	1009	-0.6	90	1	69
2026-02-07T03:33	1.2	1009	-0.2	90	1	70
2026-02-07T03:34	1.2	1009	-0.2	90	1	70
2026-02-07T03:35	1.0	1009	-0.4	80	1	70
2026-02-07T03:36	1.0	1009	-0.6	80	1	69
2026-02-07T03:37	0.9	1009	-0.7	80	1	69
2026-02-07T03:38	1.0	1008	-0.4	70	1	69
2026-02-07T03:39	0.9	1008	-0.7	80	2	68
2026-02-07T03:40	0.9	1008	-0.5	80	2	68
2026-02-07T03:41	1.1	1008	-0.3	80	2	69
2026-02-07T03:42	1.1	1008	-0.2	70	2	70
2026-02-07T03:43	1.0	1008	-0.4	70	2	69
2026-02-07T03:44	1.0	1008	-0.4	70	1	69
2026-02-07T03:45	1.0	1008	-0.3	70	1	69
2026-02-07T03:46	1.1	1008	-0.2	70	1	69
2026-02-07T03:47	1.2	1008	-0.1	80	1	69
2026-02-07T03:48	1.1	1008	-0.2	80	1	69
2026-02-07T03:49	1.0	1008	-0.3	80	1	68
2026-02-07T03:50	1.0	1008	-0.4	80	1	67
2026-02-07T03:51	0.9	1008	-0.7	80	1	66
2026-02-07T03:52	1.1	1008	-0.3	80	1	66
2026-02-07T03:53	0.9	1008	-0.7	70	2	66
2026-02-07T03:54	1.0	1008	-0.8	80	2	67
2026-02-07T03:55	1.1	1008	-0.5	80	2	67
2026-02-07T03:56	1.0	1008	-0.6	80	2	67
2026-02-07T03:57	1.0	1008	-0.8	70	2	67
2026-02-07T03:58	1.1	1008	-0.5	70	2	67
2026-02-07T03:59	1.0	1008	-0.4	70	2	67
2026-02-07T04:00	1.0	1008	-0.6	70	2	67
2026-02-07T04:01	1.2	1008	-0.2	80	2	68
2026-02-07T04:02	1.3	1008	0.0	80	2	68
2026-02-07T04:03	1.2	1008	-0.1	80	2	68
2026-02-07T04:04	1.2	1008	-0.2	90	2	69
2026-02-07T04:05	1.3	1008	-0.1	90	2	69
2026-02-07T04:06	1.3	1008	-0.1	90	2	70
2026-02-07T04:07	1.2	1008	-0.2	90	1	70
2026-02-07T04:08	1.1	1008	-0.5	90	1	70
2026-02-07T04:09	1.1	1008	-0.5	90	1	70
2026-02-07T04:10	1.1	1008	-0.5	90	1	70
2026-02-07T04:11	1.1	1008	-0.5	90	1	70
2026-02-07T04:12	1.1	1008	-0.5	80	1	70
2026-02-07T04:13	1.1	1008	-0.5	80	1	70
2026-02-07T04:14	1.1	1008	-0.5	70	1	70
2026-02-07T04:15	1.1	1008	-0.3	70	1	70
2026-02-07T04:16	1.2	1008	-0.2	70	1	70
2026-02-07T04:17	1.2	1008	-0.1	80	1	70
2026-02-07T04:18	1.2	1008	-0.1	80	1	70
2026-02-07T04:19	1.2	1008	-0.1	80	1	70
2026-02-07T04:20	1.4	1008	0.1	80	1	70
2026-02-07T04:21	1.4	1008	0.1	80	1	70
2026-02-07T04:22	1.4	1008	0.1	90	1	70
2026-02-07T04:23	1.4	1008	0.1	90	1	70
2026-02-07T04:24	1.3	1008	0.0	90	2	70
2026-02-07T04:25	1.2	1008	-0.2	90	2	70
2026-02-07T04:26	1.1	1008	-0.3	90	2	70
2026-02-07T04:27	1.1	1008	-0.3	80	2	70
2026-02-07T04:28	1.1	1008	-0.5	90	2	70
2026-02-07T04:29	1.1	1008	-0.3	90	1	70
2026-02-07T04:30	1.1	1008	-0.3	90	1	70
2026-02-07T04:31	1.2	1008	-0.2	90	1	70
2026-02-07T04:32	1.1	1008	-0.3	90	1	70
2026-02-07T04:33	1.2	1008	-0.2	90	1	70
2026-02-07T04:34	1.3	1008	-0.1	90	1	70
2026-02-07T04:35	1.2	1008	-0.1	100	1	70
2026-02-07T04:36	1.2	1008	-0.2	100	1	70
2026-02-07T04:37	1.2	1008	-0.2	100	1	70
2026-02-07T04:38	1.2	1008	-0.2	100	1	70
2026-02-07T04:39	1.1	1008	-0.5	90	1	70
2026-02-07T04:40	1.2	1008	-0.2	80	1	70
2026-02-07T04:41	1.2	1008	-0.2	80	1	70
2026-02-07T04:42	1.2	1008	-0.2	80	1	70
2026-02-07T04:43	1.1	1008	-0.5	70	1	70
2026-02-07T04:44	1.2	1008	-0.4	70	1	70
2026-02-07T04:45	1.3	1008	-0.1	70	1	70
2026-02-07T04:46	1.2	1008	-0.2	60	1	70
2026-02-07T04:47	1.2	1008	-0.4	60	1	70
2026-02-07T04:48	1.2	1008	-0.4	60	1	70
2026-02-07T04:49	1.1	1008	-0.7	70	1	70
2026-02-07T04:50	1.1	1008	-0.7	70	1	70
2026-02-07T04:51	1.2	1008	-0.6	80	1	70
2026-02-07T04:52	1.1	1008	-0.7	80	2	70
2026-02-07T04:53	1.3	1008	-0.5	80	2	70
2026-02-07T04:54	1.4	1008	-0.2	80	1	70
2026-02-07T04:55	1.2	1008	-0.6	80	1	70
2026-02-07T04:56	1.1	1008	-0.7	80	1	70
2026-02-07T04:57	1.1	1008	-0.7	90	1	70
2026-02-07T04:58	1.2	1008	-0.4	90	1	70
2026-02-07T04:59	1.2	1008	-0.4	90	1	70
2026-02-07T05:00	1.3	1008	-0.1	90	1	70
2026-02-07T05:01	1.2	1008	-0.4	90	1	70
2026-02-07T05:02	1.1	1008	-0.5	90	1	70
2026-02-07T05:03	1.2	1008	-0.4	90	1	70
2026-02-07T05:04	1.3	1008	-0.1	90	1	70
2026-02-07T05:05	1.1	1008	-0.5	100	1	70
2026-02-07T05:06	1.1	1008	-0.3	100	1	70
2026-02-07T05:07	1.1	1008	-0.3	90	1	70
2026-02-07T05:08	1.1	1008	-0.3	90	2	70
2026-02-07T05:09	1.1	1008	-0.3	80	1	70
2026-02-07T05:10	1.2	1008	-0.1	80	2	70
2026-02-07T05:11	1.1	1008	-0.3	70	1	70
2026-02-07T05:12	1.1	1008	-0.3	70	1	70
2026-02-07T05:13	1.1	1008	-0.3	80	1	70
2026-02-07T05:14	1.2	1008	-0.2	80	1	70
2026-02-07T05:15	1.1	1008	-0.3	80	1	70
2026-02-07T05:16	1.1	1008	-0.3	90	1	70
2026-02-07T05:17	1.1	1008	-0.3	90	1	70
2026-02-07T05:18	1.2	1008	-0.2	90	1	70
2026-02-07T05:19	1.1	1008	-0.3	100	2	70
2026-02-07T05:20	1.3	1008	-0.1	100	1	70
2026-02-07T05:21	1.2	1008	-0.2	90	1	70
2026-02-07T05:22	1.2	1008	-0.4	90	1	70
2026-02-07T05:23	1.2	1008	-0.4	90	1	70
2026-02-07T05:24	1.2	1008	-0.2	90	1	70
2026-02-07T05:25	1.3	1008	-0.1	80	1	70
2026-02-07T05:26	1.2	1008	-0.4	80	1	70
2026-02-07T05:27	1.2	1008	-0.2	80	1	70
2026-02-07T05:28	1.2	1008	-0.2	80	1	70
2026-02-07T05:29	1.3	1008	-0.1	90	1	70
2026-02-07T05:30	1.2	1008	-0.2	90	1	70
2026-02-07T05:31	1.2	1008	-0.4	100	2	70
2026-02-07T05:32	1.3	1008	-0.3	100	2	70
2026-02-07T05:33	1.3	1008	-0.1	100	2	70
2026-02-07T05:34	1.3	1008	-0.3	100	2	70
2026-02-07T05:35	1.3	1008	-0.1	100	2	70
2026-02-07T05:36	1.4	1008	0.0	100	2	70
2026-02-07T05:37	1.4	1008	0.0	100	2	70
2026-02-07T05:38	1.3	1008	-0.3	100	2	70
2026-02-07T05:39	1.3	1008	-0.3	100	2	70
2026-02-07T05:40	1.2	1008	-0.4	100	2	70
2026-02-07T05:41	1.3	1008	-0.3	100	2	70
2026-02-07T05:42	1.2	1008	-0.4	100	2	70
2026-02-07T05:43	1.2	1008	-0.4	100	2	70
2026-02-07T05:44	1.2	1008	-0.4	100	2	70
2026-02-07T05:45	1.1	1008	-0.5	100	2	70
2026-02-07T05:46	1.2	1008	-0.4	100	2	69
2026-02-07T05:47	1.2	1008	-0.4	90	2	68
2026-02-07T05:48	1.2	1008	-0.4	90	2	67
2026-02-07T05:49	1.2	1008	-0.2	90	2	67
2026-02-07T05:50	1.2	1008	-0.2	90	2	66
2026-02-07T05:51	1.2	1008	-0.2	90	2	66
2026-02-07T05:52	1.2	1008	-0.2	100	2	65
2026-02-07T05:53	1.2	1008	-0.2	100	1	65
2026-02-07T05:54	1.3	1008	-0.1	100	1	64
2026-02-07T05:55	1.3	1008	-0.1	110	2	64
2026-02-07T05:56	1.3	1008	0.0	110	1	64
2026-02-07T05:57	1.3	1008	-0.1	120	1	65
2026-02-07T05:58	1.3	1008	-0.1	110	1	65
2026-02-07T05:59	1.2	1008	-0.2	110	1	66
2026-02-07T06:00	1.3	1008	-0.1	110	1	67
2026-02-07T06:01	1.3	1008	-0.1	120	1	68
2026-02-07T06:02	1.3	1008	-0.1	120	1	69
2026-02-07T06:03	1.3	1008	-0.1	120	1	70
2026-02-07T06:04	1.2	1008	-0.2	110	1	70
2026-02-07T06:05	1.2	1008	-0.4	120	1	70
2026-02-07T06:06	1.2	1008	-0.6	110	1	70
2026-02-07T06:07	1.3	1008	-0.5	110	1	70
2026-02-07T06:08	1.3	1008	-0.5	120	1	70
2026-02-07T06:09	1.3	1008	-0.8	120	1	70
2026-02-07T06:10	1.3	1008	-0.8	120	1	70
2026-02-07T06:11	1.3	1008	-0.9	110	2	70
2026-02-07T06:12	1.3	1008	-0.9	110	2	70
2026-02-07T06:13	1.3	1008	-1.1	110	2	70
2026-02-07T06:14	1.2	1008	-1.2	120	2	70
2026-02-07T06:15	1.2	1008	-1.0	110	2	70
2026-02-07T06:16	1.3	1008	-0.9	110	2	70
2026-02-07T06:17	1.3	1008	-0.9	110	2	70
2026-02-07T06:18	1.3	1008	-0.9	110	2	70
2026-02-07T06:19	1.4	1008	-0.8	110	2	70
2026-02-07T06:20	1.3	1008	-1.1	110	2	70
2026-02-07T06:21	1.3	1008	-1.1	110	2	70
2026-02-07T06:22	1.3	1008	-1.1	110	2	70
2026-02-07T06:23	1.2	1008	-1.4	100	2	70
2026-02-07T06:24	1.2	1008	-1.4	100	2	70
2026-02-07T06:25	1.2	1008	-1.4	100	2	70
2026-02-07T06:26	1.3	1008	-1.4	100	2	70
2026-02-07T06:27	1.2	1008	-1.5	100	2	70
2026-02-07T06:28	1.2	1008	-1.7	100	2	70
2026-02-07T06:29	1.2	1008	-1.7	110	2	70
2026-02-07T06:30	1.2	1008	-1.7	100	1	70
2026-02-07T06:31	1.3	1008	-1.6	110	1	70
2026-02-07T06:32	1.3	1008	-1.6	100	1	70
2026-02-07T06:33	1.3	1008	-1.8	100	1	70
2026-02-07T06:34	1.3	1008	-1.8	100	1	70
2026-02-07T06:35	1.3	1008	-1.8	100	1	70
2026-02-07T06:36	1.4	1008	-1.7	100	1	70
2026-02-07T06:37	1.4	1008	-1.8	90	1	70
2026-02-07T06:38	1.4	1008	-1.8	90	1	70
2026-02-07T06:39	1.4	1008	-2.0	80	1	70
2026-02-07T06:40	1.4	1008	-2.0	80	1	70
2026-02-07T06:41	1.4	1008	-2.2	80	1	70
2026-02-07T06:42	1.4	1008	-2.0	90	2	70
2026-02-07T06:43	1.4	1008	-2.0	90	1	70
2026-02-07T06:44	1.4	1008	-2.0	80	1	70
2026-02-07T06:45	1.4	1008	-1.8	90	1	70
2026-02-07T06:46	1.4	1008	-2.0	90	1	70
2026-02-07T06:47	1.4	1008	-2.2	90	1	70
2026-02-07T06:48	1.4	1008	-2.2	90	1	70
2026-02-07T06:49	1.4	1008	-2.2	100	1	70
2026-02-07T06:50	1.3	1008	-2.3	100	1	70
2026-02-07T06:51	1.4	1008	-2.2	100	1	70
2026-02-07T06:52	1.4	1008	-2.0	100	1	70
2026-02-07T06:53	1.4	1008	-2.0	100	1	70
2026-02-07T06:54	1.4	1008	-2.0	100	1	70
2026-02-07T06:55	1.4	1008	-2.0	100	1	70
2026-02-07T06:56	1.4	1008	-2.0	110	2	70
2026-02-07T06:57	1.3	1008	-2.1	110	2	70
2026-02-07T06:58	1.3	1008	-1.9	110	2	70
2026-02-07T06:59	1.3	1008	-1.9	110	2	70
2026-02-07T07:00	1.2	1008	-2.0	110	1	70
2026-02-07T07:01	1.2	1008	-2.0	110	2	70
2026-02-07T07:02	1.2	1008	-1.9	110	2	70
2026-02-07T07:03	1.2	1008	-1.9	110	2	70
2026-02-07T07:04	1.2	1008	-1.9	110	2	70
2026-02-07T07:05	1.2	1008	-1.7	100	2	70
2026-02-07T07:06	1.3	1008	-1.6	100	2	70
2026-02-07T07:07	1.3	1008	-1.6	100	2	70
2026-02-07T07:08	1.3	1008	-1.6	100	1	70
2026-02-07T07:09	1.3	1008	-1.6	100	1	70
2026-02-07T07:10	1.3	1008	-1.6	100	2	70
2026-02-07T07:11	1.2	1008	-1.7	100	2	70
2026-02-07T07:12	1.2	1008	-1.7	100	2	70
2026-02-07T07:13	1.3	1008	-1.4	100	2	70
2026-02-07T07:14	1.2	1008	-1.5	100	2	70
2026-02-07T07:15	1.3	1008	-1.4	100	2	70
2026-02-07T07:16	1.3	1008	-1.4	110	2	70
2026-02-07T07:17	1.3	1008	-1.4	110	2	70
2026-02-07T07:18	1.3	1008	-1.4	100	2	70
2026-02-07T07:19	1.3	1008	-1.4	110	2	70
2026-02-07T07:20	1.3	1008	-1.3	110	2	70
2026-02-07T07:21	1.3	1008	-1.3	100	2	70
2026-02-07T07:22	1.2	1008	-1.4	100	2	70
2026-02-07T07:23	1.3	1008	-1.3	110	2	70
2026-02-07T07:24	1.2	1008	-1.2	110	2	70
2026-02-07T07:25	1.2	1008	-1.2	110	2	70
2026-02-07T07:26	1.2	1008	-1.2	120	2	70
2026-02-07T07:27	1.2	1008	-1.2	120	2	70
2026-02-07T07:28	1.2	1008	-1.2	120	2	70
2026-02-07T07:29	1.2	1008	-1.2	120	2	70
2026-02-07T07:30	1.2	1008	-1.2	120	2	70
2026-02-07T07:31	1.2	1008	-1.2	130	2	70
2026-02-07T07:32	1.2	1008	-1.2	120	2	70
2026-02-07T07:33	1.2	1008	-1.2	120	2	70
2026-02-07T07:34	1.2	1008	-1.2	120	2	70
2026-02-07T07:35	1.2	1008	-1.2	110	2	70
2026-02-07T07:36	1.2	1008	-1.2	120	2	70
2026-02-07T07:37	1.2	1008	-1.2	110	2	70
2026-02-07T07:38	1.2	1008	-1.2	110	2	70
2026-02-07T07:39	1.2	1008	-1.2	110	2	70
2026-02-07T07:40	1.2	1008	-1.2	120	1	70
2026-02-07T07:41	1.2	1008	-1.2	120	2	70
2026-02-07T07:42	1.2	1008	-1.2	120	2	70
2026-02-07T07:43	1.2	1008	-1.2	130	2	70
2026-02-07T07:44	1.1	1008	-1.1	130	1	70
2026-02-07T07:45	1.1	1008	-1.1	140	1	70
2026-02-07T07:46	1.1	1008	-1.1	140	1	70
2026-02-07T07:47	1.1	1008	-1.1	140	2	70
2026-02-07T07:48	1.1	1008	-1.1	140	2	70
2026-02-07T07:49	1.1	1008	-1.1	140	2	70
2026-02-07T07:50	1.0	1008	-1.2	140	2	70
2026-02-07T07:51	1.1	1008	-1.1	130	2	70
2026-02-07T07:52	1.1	1008	-1.1	130	1	70
2026-02-07T07:53	1.1	1008	-1.1	130	1	70
2026-02-07T07:54	1.1	1008	-1.1	120	2	70
2026-02-07T07:55	1.1	1008	-1.1	110	1	70
2026-02-07T07:56	1.1	1008	-1.1	110	1	70
2026-02-07T07:57	1.1	1008	-1.1	110	1	70
2026-02-07T07:58	1.1	1008	-1.1	110	1	70
2026-02-07T07:59	1.1	1008	-1.1	110	1	70
2026-02-07T08:00	1.1	1008	-1.1	110	1	70
2026-02-07T08:01	1.1	1008	-1.1	110	1	70
2026-02-07T08:02	1.1	1008	-1.1	120	1	70
2026-02-07T08:03	1.1	1008	-1.0	110	1	70
2026-02-07T08:04	1.1	1008	-1.1	110	1	70
2026-02-07T08:05	1.1	1008	-1.1	120	1	70
2026-02-07T08:06	1.1	1008	-1.0	120	1	70
2026-02-07T08:07	1.1	1008	-1.1	120	1	70
2026-02-07T08:08	1.1	1008	-1.1	120	1	70
2026-02-07T08:09	1.1	1008	-1.1	120	1	70
2026-02-07T08:10	1.1	1008	-1.1	120	1	70
2026-02-07T08:11	1.1	1008	-1.1	120	1	70
2026-02-07T08:12	1.1	1008	-1.0	130	1	70
2026-02-07T08:13	1.1	1008	-1.0	130	1	70
2026-02-07T08:14	1.0	1008	-1.1	130	1	70
2026-02-07T08:15	1.0	1008	-1.1	130	1	70
2026-02-07T08:16	1.1	1008	-1.0	130	1	70
2026-02-07T08:17	1.1	1008	-1.0	130	1	70
2026-02-07T08:18	1.1	1008	-1.0	130	1	70
2026-02-07T08:19	1.1	1008	-1.0	130	1	70
2026-02-07T08:20	1.1	1008	-1.0	130	1	70
2026-02-07T08:21	1.1	1008	-1.0	130	1	70
2026-02-07T08:22	1.1	1008	-1.0	130	1	70
2026-02-07T08:23	1.1	1008	-1.0	130	1	70
2026-02-07T08:24	1.1	1008	-1.0	130	1	70
2026-02-07T08:25	1.1	1008	-1.0	130	1	70
2026-02-07T08:26	1.1	1008	-1.0	140	1	70
2026-02-07T08:27	1.0	1008	-1.1	140	1	70
2026-02-07T08:28	1.0	1008	-1.1	140	1	70
2026-02-07T08:29	1.1	1008	-1.0	140	1	70
2026-02-07T08:30	1.0	1008	-1.1	140	1	70
2026-02-07T08:31	1.0	1008	-1.1	140	1	70
2026-02-07T08:32	1.0	1008	-1.1	130	1	70
2026-02-07T08:33	1.0	1008	-1.1	130	1	70
2026-02-07T08:34	1.0	1008	-1.1	120	1	70
2026-02-07T08:35	1.0	1008	-1.1	120	1	70
2026-02-07T08:36	1.1	1008	-1.0	120	1	70
2026-02-07T08:37	1.1	1008	-1.0	120	1	70
2026-02-07T08:38	1.1	1008	-1.0	110	1	70
2026-02-07T08:39	1.1	1008	-1.1	110	1	70
2026-02-07T08:40	1.1	1008	-1.1	100	1	70
2026-02-07T08:41	1.2	1008	-1.0	100	1	70
2026-02-07T08:42	1.2	1008	-1.0	110	1	70
2026-02-07T08:43	1.1	1008	-1.1	110	1	70
2026-02-07T08:44	1.1	1008	-1.1	110	1	70
2026-02-07T08:45	1.1	1008	-1.1	120	1	70
2026-02-07T08:46	1.1	1008	-1.1	110	1	70
2026-02-07T08:47	1.1	1008	-1.1	120	1	70
2026-02-07T08:48	1.2	1008	-1.0	120	0	70
2026-02-07T08:49	1.2	1008	-1.0	120	0	70
2026-02-07T08:50	1.2	1008	-1.0	120	1	70
2026-02-07T08:51	1.2	1008	-1.0	120	1	70
2026-02-07T08:52	1.1	1008	-1.1	120	1	70
2026-02-07T08:53	1.2	1008	-1.0	120	1	70
2026-02-07T08:54	1.1	1008	-1.1	120	1	70
2026-02-07T08:55	1.1	1008	-1.1	120	1	70
2026-02-07T08:56	1.1	1008	-1.1	120	1	70
2026-02-07T08:57	1.1	1008	-1.1	120	1	70
2026-02-07T08:58	1.1	1008	-1.1	120	1	70
2026-02-07T08:59	1.2	1008	-1.0	130	1	70
2026-02-07T09:00	1.2	1008	-1.0	130	1	70
2026-02-07T09:01	1.2	1008	-1.0	130	1	70
2026-02-07T09:02	1.2	1008	-1.0	130	1	70
2026-02-07T09:03	1.2	1008	-1.0	140	1	70
2026-02-07T09:04	1.2	1008	-1.0	140	1	70
2026-02-07T09:05	1.2	1008	-1.0	140	1	70
2026-02-07T09:06	1.2	1008	-1.0	150	1	70
2026-02-07T09:07	1.2	1008	-1.0	160	1	70
2026-02-07T09:08	1.2	1008	-1.0	160	1	70
2026-02-07T09:09	1.1	1008	-1.1	160	1	70
2026-02-07T09:10	1.1	1008	-1.1	170	1	70
2026-02-07T09:11	1.1	1008	-1.0	180	1	70
2026-02-07T09:12	1.1	1008	-1.0	180	1	70
2026-02-07T09:13	1.1	1008	-1.0	190	1	70
2026-02-07T09:14	1.1	1008	-1.0	190	1	70
2026-02-07T09:15	1.1	1008	-1.0	190	1	70
2026-02-07T09:16	1.1	1008	-1.0	190	1	70
2026-02-07T09:17	1.0	1008	-1.1	190	1	70
2026-02-07T09:18	1.0	1008	-1.1	190	1	70
2026-02-07T09:19	1.0	1008	-1.1	190	1	70
2026-02-07T09:20	1.0	1008	-1.1	190	1	70
2026-02-07T09:21	1.0	1008	-1.1	180	1	70
2026-02-07T09:22	1.0	1008	-1.1	180	1	70
2026-02-07T09:23	0.9	1008	-1.2	170	1	70
2026-02-07T09:24	0.9	1008	-1.0	170	1	70
2026-02-07T09:25	0.9	1008	-1.0	170	1	70
2026-02-07T09:26	1.0	1008	-0.9	170	1	70
2026-02-07T09:27	1.0	1008	-0.9	170	1	70
2026-02-07T09:28	1.0	1008	-0.9	170	1	70
2026-02-07T09:29	1.0	1008	-0.9	180	1	70
2026-02-07T09:30	1.0	1008	-0.9	180	0	70
2026-02-07T09:31	0.9	1008	-1.0	180	0	70
2026-02-07T09:32	0.9	1008	-1.0	170	0	70
2026-02-07T09:33	0.9	1008	-1.0	170	0	70
2026-02-07T09:34	0.9	1008	-1.0	170	0	70
2026-02-07T09:35	0.9	1008	-1.0	170	0	70
2026-02-07T09:36	0.9	1008	-1.0	170	0	70
2026-02-07T09:37	0.9	1008	-1.0	180	0	70
2026-02-07T09:38	1.0	1008	-0.9	180	0	70
2026-02-07T09:39	1.0	1008	-0.9	180	0	70
2026-02-07T09:40	1.0	1008	-0.9	180	1	70
2026-02-07T09:41	0.9	1008	-1.0	180	1	70
2026-02-07T09:42	1.0	1008	-0.9	190	1	70
2026-02-07T09:43	1.0	1008	-0.8	200	1	70
2026-02-07T09:44	1.0	1008	-0.8	200	1	70
2026-02-07T09:45	1.0	1008	-0.8	200	1	70
2026-02-07T09:46	1.0	1008	-0.9	200	1	70
2026-02-07T09:47	1.0	1008	-0.9	200	1	70
2026-02-07T09:48	0.9	1008	-1.0	200	1	70
2026-02-07T09:49	0.9	1008	-0.9	190	1	70
2026-02-07T09:50	0.9	1008	-0.9	190	1	70
2026-02-07T09:51	0.9	1008	-0.9	180	1	70
2026-02-07T09:52	0.9	1008	-0.9	180	1	70
2026-02-07T09:53	0.9	1008	-0.9	170	1	70
2026-02-07T09:54	0.9	1008	-0.9	170	1	70
2026-02-07T09:55	0.9	1008	-0.9	170	1	70
2026-02-07T09:56	0.9	1008	-0.9	160	1	70
2026-02-07T09:57	0.9	1008	-0.9	160	1	70
2026-02-07T09:58	0.9	1008	-0.9	160	1	70
2026-02-07T09:59	0.9	1008	-0.9	160	1	70
2026-02-07T10:00	0.9	1008	-0.9	170	1	70
2026-02-07T10:01	0.9	1008	-0.9	160	1	70
2026-02-07T10:02	0.9	1008	-0.9	160	1	70
2026-02-07T10:03	0.9	1008	-0.9	160	1	70
2026-02-07T10:04	0.9	1008	-0.9	160	1	70
2026-02-07T10:05	0.9	1008	-0.9	160	1	70
2026-02-07T10:06	0.9	1008	-0.9	150	1	70
2026-02-07T10:07	0.9	1008	-0.7	150	1	70
2026-02-07T10:08	0.8	1008	-0.8	150	1	70
2026-02-07T10:09	0.9	1008	-0.7	150	1	70
2026-02-07T10:10	0.9	1008	-0.7	150	1	70
2026-02-07T10:11	0.9	1008	-0.7	140	1	70
2026-02-07T10:12	0.8	1008	-0.8	140	1	70
2026-02-07T10:13	0.8	1008	-0.8	140	1	70
2026-02-07T10:14	0.8	1008	-0.8	140	1	70
2026-02-07T10:15	0.8	1008	-0.8	140	1	70
2026-02-07T10:16	0.8	1008	-0.8	150	1	70
2026-02-07T10:17	0.8	1008	-0.8	150	1	70
2026-02-07T10:18	0.8	1008	-0.8	150	1	70
2026-02-07T10:19	0.8	1008	-0.6	150	1	70
2026-02-07T10:20	0.8	1008	-0.6	140	1	70
2026-02-07T10:21	0.8	1008	-0.6	150	1	70
2026-02-07T10:22	0.8	1008	-0.6	150	1	70
2026-02-07T10:23	0.9	1008	-0.5	150	1	70
2026-02-07T10:24	0.9	1008	-0.5	150	1	70
2026-02-07T10:25	0.9	1008	-0.5	150	1	70
2026-02-07T10:26	0.9	1008	-0.5	140	1	70
2026-02-07T10:27	0.9	1008	-0.5	140	1	70
2026-02-07T10:28	0.8	1008	-0.6	150	1	70
2026-02-07T10:29	0.9	1008	-0.5	150	1	70
2026-02-07T10:30	0.9	1008	-0.5	150	1	70
2026-02-07T10:31	0.9	1008	-0.5	160	1	70
2026-02-07T10:32	0.9	1008	-0.5	160	1	70
2026-02-07T10:33	0.9	1008	-0.5	170	1	70
2026-02-07T10:34	1.0	1008	-0.4	180	1	70
2026-02-07T10:35	1.0	1008	-0.4	180	1	70
2026-02-07T10:36	1.0	1008	-0.4	180	1	70
2026-02-07T10:37	1.0	1008	-0.4	180	1	70
2026-02-07T10:38	0.9	1008	-0.5	180	1	70
2026-02-07T10:39	0.9	1008	-0.5	170	1	70
2026-02-07T10:40	0.8	1008	-0.6	170	1	70
2026-02-07T10:41	0.8	1008	-0.5	170	1	70
2026-02-07T10:42	0.9	1008	-0.4	170	1	70
2026-02-07T10:43	0.9	1008	-0.4	160	1	70
2026-02-07T10:44	0.9	1008	-0.4	150	1	70
2026-02-07T10:45	0.9	1008	-0.4	150	1	70
2026-02-07T10:46	0.8	1008	-0.5	150	1	70
2026-02-07T10:47	0.8	1008	-0.5	150	1	70
2026-02-07T10:48	0.9	1008	-0.4	150	1	70
2026-02-07T10:49	0.9	1008	-0.2	150	1	70
2026-02-07T10:50	0.9	1008	-0.2	150	1	70
2026-02-07T10:51	0.9	1008	-0.2	150	1	70
2026-02-07T10:52	0.9	1008	-0.2	150	1	70
2026-02-07T10:53	0.9	1008	-0.2	160	1	70
2026-02-07T10:54	0.9	1008	-0.2	160	1	70
2026-02-07T10:55	0.9	1008	-0.2	170	1	70
2026-02-07T10:56	0.9	1008	-0.2	170	1	70
2026-02-07T10:57	1.0	1008	-0.1	180	1	70
2026-02-07T10:58	1.0	1008	-0.1	190	1	70
2026-02-07T10:59	1.0	1008	-0.1	190	1	70
2026-02-07T11:00	1.0	1008	-0.3	200	1	70
2026-02-07T11:01	0.9	1008	-0.4	200	1	70
2026-02-07T11:02	0.9	1008	-0.4	200	1	70
2026-02-07T11:03	1.0	1008	-0.3	210	1	70
2026-02-07T11:04	1.0	1008	-0.1	200	1	70
2026-02-07T11:05	1.0	1008	-0.1	200	1	70
2026-02-07T11:06	1.0	1008	-0.1	200	1	70
2026-02-07T11:07	0.9	1008	-0.4	200	1	70
2026-02-07T11:08	1.0	1008	-0.3	210	1	70
2026-02-07T11:09	1.0	1008	-0.1	210	1	70
2026-02-07T11:10	1.0	1008	-0.1	210	1	70
2026-02-07T11:11	1.0	1008	-0.1	220	1	70
2026-02-07T11:12	0.9	1008	-0.4	220	1	70
2026-02-07T11:13	0.9	1008	-0.4	230	1	70
2026-02-07T11:14	0.9	1008	-0.4	240	1	70
2026-02-07T11:15	1.0	1008	-0.1	240	1	70
2026-02-07T11:16	0.9	1008	-0.2	240	1	70
2026-02-07T11:17	0.8	1008	-0.3	240	1	70
2026-02-07T11:18	0.9	1008	-0.2	240	1	70
2026-02-07T11:19	0.8	1008	-0.3	240	1	70
2026-02-07T11:20	0.8	1008	-0.3	240	1	70
2026-02-07T11:21	0.9	1008	-0.2	240	1	70
2026-02-07T11:22	0.9	1008	-0.2	240	1	70
2026-02-07T11:23	0.9	1008	-0.2	250	1	70
2026-02-07T11:24	0.9	1008	-0.2	250	1	70
2026-02-07T11:25	0.9	1008	-0.2	250	1	70
2026-02-07T11:26	0.9	1008	-0.2	260	1	70
2026-02-07T11:27	0.9	1008	-0.2	260	1	69
2026-02-07T11:28	0.9	1008	-0.2	270	1	69
2026-02-07T11:29	0.8	1008	-0.3	270	1	69
2026-02-07T11:30	0.8	1008	-0.3	280	1	69
2026-02-07T11:31	0.8	1008	-0.3	280	1	67
2026-02-07T11:32	0.9	1008	-0.2	290	1	65
2026-02-07T11:33	0.8	1008	-0.3	290	1	65
2026-02-07T11:34	0.8	1008	-0.3	290	1	65
2026-02-07T11:35	0.8	1008	-0.3	290	1	65
2026-02-07T11:36	0.8	1008	-0.3	290	1	70
2026-02-07T11:37	0.8	1008	-0.3	290	1	70
2026-02-07T11:38	0.8	1008	-0.3	290	1	69
2026-02-07T11:39	0.8	1008	-0.3	290	1	69
2026-02-07T11:40	0.8	1008	-0.3	280	1	68
2026-02-07T11:41	0.7	1008	-0.4	280	1	69
2026-02-07T11:42	0.7	1008	-0.3	280	1	70
2026-02-07T11:43	0.7	1008	-0.3	270	1	70
2026-02-07T11:44	0.7	1008	-0.3	270	1	68
2026-02-07T11:45	0.7	1008	-0.3	270	1	67
2026-02-07T11:46	0.8	1008	-0.2	270	1	67
2026-02-07T11:47	0.7	1008	-0.3	260	1	67
2026-02-07T11:48	0.7	1008	-0.3	260	1	67
2026-02-07T11:49	0.8	1008	-0.2	260	1	66
2026-02-07T11:50	0.7	1008	-0.1	260	1	66
2026-02-07T11:51	0.7	1008	-0.1	260	1	66
2026-02-07T11:52	0.6	1008	-0.2	260	1	66
2026-02-07T11:53	0.6	1008	-0.2	260	1	66
2026-02-07T11:54	0.6	1008	-0.2	260	1	66
2026-02-07T11:55	0.6	1008	-0.2	260	1	67
2026-02-07T11:56	0.6	1008	-0.2	260	1	66
2026-02-07T11:57	0.6	1008	-0.2	270	1	66
2026-02-07T11:58	0.6	1008	-0.1	270	1	66
2026-02-07T11:59	0.6	1008	-0.1	280	1	65
2026-02-07T12:00	0.6	1008	-0.1	290	1	65
2026-02-07T12:01	0.6	1008	-0.1	300	1	65
2026-02-07T12:02	0.6	1008	-0.1	310	1	65
2026-02-07T12:03	0.6	1008	-0.1	320	1	65
2026-02-07T12:04	0.6	1008	-0.1	330	1	65
2026-02-07T12:05	0.6	1008	-0.1	340	1	65
2026-02-07T12:06	0.6	1008	-0.1	340	1	65
2026-02-07T12:07	0.6	1008	-0.1	350	1	64
2026-02-07T12:08	0.6	1008	-0.1	350	1	63
2026-02-07T12:09	0.6	1008	0.1	350	1	63
2026-02-07T12:10	0.6	1008	0.1	350	1	63
2026-02-07T12:11	0.6	1008	0.1	350	1	63
2026-02-07T12:12	0.6	1008	0.1	350	1	62
2026-02-07T12:13	0.6	1008	0.1	360	1	62
2026-02-07T12:14	0.6	1008	0.1	360	1	61
2026-02-07T12:15	0.6	1008	0.1	360	1	61
2026-02-07T12:16	0.6	1008	0.1	360	1	60
2026-02-07T12:17	0.5	1008	0.0	350	1	60
2026-02-07T12:18	0.5	1008	0.0	350	1	60
2026-02-07T12:19	0.5	1008	0.0	350	1	60
2026-02-07T12:20	0.6	1008	0.2	350	1	60
2026-02-07T12:21	0.6	1008	0.2	350	1	59
2026-02-07T12:22	0.6	1008	0.2	350	1	59
2026-02-07T12:23	0.6	1008	0.2	350	1	59
2026-02-07T12:24	0.6	1008	0.2	350	1	58
2026-02-07T12:25	0.5	1008	0.1	350	1	58
2026-02-07T12:26	0.5	1008	0.1	350	1	58
2026-02-07T12:27	0.5	1008	0.1	360	1	58
2026-02-07T12:28	0.5	1008	0.1	360	1	57
2026-02-07T12:29	0.5	1008	0.1	360	1	55
2026-02-07T12:30	0.5	1008	0.1	10	1	46
2026-02-07T12:31	0.4	1008	0.0	10	1	39
2026-02-07T12:32	0.5	1008	0.2	10	1	34
2026-02-07T12:33	0.4	1008	0.1	10	1	30
2026-02-07T12:34	0.4	1008	0.1	10	1	27
2026-02-07T12:35	0.4	1008	0.1	10	1	25
2026-02-07T12:36	0.4	1008	0.1	10	1	24
2026-02-07T12:37	0.4	1008	0.1	10	1	23
2026-02-07T12:38	0.4	1008	0.1	10	1	22
2026-02-07T12:39	0.4	1008	0.1	10	1	22
2026-02-07T12:40	0.3	1008	0.0	10	1	22
2026-02-07T12:41	0.3	1008	0.0	10	1	22
2026-02-07T12:42	0.3	1008	0.0	10	1	21
2026-02-07T12:43	0.3	1008	0.0	10	1	21
2026-02-07T12:44	0.3	1008	0.2	20	1	20
2026-02-07T12:45	0.3	1008	0.2	20	1	20
2026-02-07T12:46	0.3	1008	0.2	10	1	19
2026-02-07T12:47	0.3	1008	0.2	20	1	18
2026-02-07T12:48	0.2	1008	0.1	10	1	16
2026-02-07T12:49	0.2	1008	0.1	20	1	16
2026-02-07T12:50	0.2	1008	0.1	20	1	16
2026-02-07T12:51	0.2	1008	0.1	20	1	16
2026-02-07T12:52	0.2	1008	0.1	20	1	17
2026-02-07T12:53	0.1	1008	0.0	20	2	17
2026-02-07T12:54	0.1	1008	0.0	20	2	17
2026-02-07T12:55	0.1	1008	0.0	20	2	17
2026-02-07T12:56	0.1	1008	0.0	20	2	17
2026-02-07T12:57	0.0	1008	-0.1	20	2	16
2026-02-07T12:58	0.0	1008	-0.1	30	2	17
2026-02-07T12:59	-0.1	1008	-0.2	30	2	17
2026-02-07T13:00	-0.1	1008	-0.2	30	2	17
2026-02-07T13:01	-0.1	1008	-0.2	30	2	17
2026-02-07T13:02	-0.1	1008	-0.4	40	2	16
2026-02-07T13:03	-0.2	1008	-0.5	40	2	15
2026-02-07T13:04	-0.2	1008	-0.5	40	2	15
2026-02-07T13:05	-0.3	1008	-0.6	40	2	14
2026-02-07T13:06	-0.3	1008	-0.6	40	2	13
2026-02-07T13:07	-0.4	1008	-0.7	40	2	12
2026-02-07T13:08	-0.4	1008	-0.7	40	2	12
2026-02-07T13:09	-0.3	1008	-0.6	40	2	10
2026-02-07T13:10	-0.4	1008	-0.7	40	2	10
2026-02-07T13:11	-0.4	1008	-0.7	40	2	9
2026-02-07T13:12	-0.4	1008	-0.7	40	2	9
2026-02-07T13:13	-0.4	1008	-0.7	50	2	9
2026-02-07T13:14	-0.4	1008	-0.7	50	2	9
2026-02-07T13:15	-0.4	1008	-0.7	50	2	10
2026-02-07T13:16	-0.5	1008	-0.8	60	2	10
2026-02-07T13:17	-0.4	1008	-0.7	60	2	11
2026-02-07T13:18	-0.4	1008	-0.7	60	2	11
2026-02-07T13:19	-0.5	1008	-0.8	70	2	11
2026-02-07T13:20	-0.5	1008	-0.8	70	2	12
2026-02-07T13:21	-0.5	1008	-0.8	70	2	12
2026-02-07T13:22	-0.5	1008	-0.8	70	2	12
2026-02-07T13:23	-0.5	1008	-0.8	70	2	11
2026-02-07T13:24	-0.6	1008	-0.9	60	2	11
2026-02-07T13:25	-0.6	1008	-0.9	60	2	11
2026-02-07T13:26	-0.5	1008	-0.8	60	2	11
2026-02-07T13:27	-0.6	1008	-0.9	60	2	11
2026-02-07T13:28	-0.6	1008	-0.9	60	2	11
2026-02-07T13:29	-0.6	1008	-0.9	60	2	11
2026-02-07T13:30	-0.6	1008	-0.9	60	2	11
2026-02-07T13:31	-0.6	1008	-0.9	60	2	11
2026-02-07T13:32	-0.6	1008	-0.9	50	2	11
2026-02-07T13:33	-0.7	1008	-1.0	50	2	11
2026-02-07T13:34	-0.7	1008	-1.0	50	2	11
2026-02-07T13:35	-0.7	1008	-1.0	50	2	11
2026-02-07T13:36	-0.7	1008	-1.0	50	2	11
2026-02-07T13:37	-0.8	1008	-1.1	40	2	11
2026-02-07T13:38	-0.7	1008	-1.0	40	2	11
2026-02-07T13:39	-0.7	1008	-1.0	40	2	10
2026-02-07T13:40	-0.8	1008	-1.1	40	1	10
2026-02-07T13:41	-0.8	1008	-1.1	30	1	9
2026-02-07T13:42	-0.9	1008	-1.2	30	1	9
2026-02-07T13:43	-0.9	1008	-1.2	40	1	9
2026-02-07T13:44	-0.9	1008	-1.2	40	1	9
2026-02-07T13:45	-0.9	1008	-1.2	40	1	9
2026-02-07T13:46	-0.9	1008	-1.2	40	1	9
2026-02-07T13:47	-0.9	1008	-1.2	50	2	9
2026-02-07T13:48	-0.9	1008	-1.2	50	2	9
2026-02-07T13:49	-0.9	1008	-1.2	50	2	10
2026-02-07T13:50	-0.9	1008	-1.2	60	2	11
2026-02-07T13:51	-1.0	1008	-1.3	60	2	12
2026-02-07T13:52	-1.0	1008	-1.3	60	2	13
2026-02-07T13:53	-1.0	1007	-1.3	60	2	14
2026-02-07T13:54	-1.0	1007	-1.3	50	2	15
2026-02-07T13:55	-1.0	1008	-1.3	50	2	17
2026-02-07T13:56	-1.0	1008	-1.3	50	2	19
2026-02-07T13:57	-1.0	1008	-1.3	50	2	20
2026-02-07T13:58	-1.0	1008	-1.3	50	1	19
2026-02-07T13:59	-1.0	1008	-1.3	50	1	19
2026-02-07T14:00	-1.0	1008	-1.3	50	1	18
2026-02-07T14:01	-1.0	1008	-1.3	50	1	18
2026-02-07T14:02	-1.0	1008	-1.3	50	1	17
2026-02-07T14:03	-1.0	1007	-1.3	60	2	17
2026-02-07T14:04	-1.1	1007	-1.4	60	2	17
2026-02-07T14:05	-1.0	1007	-1.3	60	2	17
2026-02-07T14:06	-1.0	1007	-1.3	60	2	17
2026-02-07T14:07	-1.0	1007	-1.3	70	2	17
2026-02-07T14:08	-1.0	1007	-1.3	70	2	17
2026-02-07T14:09	-1.0	1007	-1.3	70	2	17
2026-02-07T14:10	-1.0	1007	-1.3	70	2	17
2026-02-07T14:11	-1.0	1007	-1.3	70	2	18
2026-02-07T14:12	-1.0	1007	-1.3	70	2	18
2026-02-07T14:13	-1.0	1007	-1.3	70	2	17
2026-02-07T14:14	-1.0	1007	-1.3	70	2	17
2026-02-07T14:15	-0.9	1007	-1.2	80	2	17
2026-02-07T14:16	-0.9	1007	-1.2	80	2	17
2026-02-07T14:17	-1.0	1007	-1.3	80	2	18
2026-02-07T14:18	-1.0	1007	-1.3	80	2	18
2026-02-07T14:19	-1.0	1007	-1.3	80	2	18
2026-02-07T14:20	-1.0	1007	-1.3	80	2	18
2026-02-07T14:21	-1.0	1007	-1.3	80	2	18
2026-02-07T14:22	-1.0	1007	-1.3	80	2	18
2026-02-07T14:23	-1.0	1007	-1.3	80	2	17
2026-02-07T14:24	-1.0	1007	-1.3	70	2	16
2026-02-07T14:25	-1.1	1007	-1.4	70	2	16
2026-02-07T14:26	-1.1	1007	-1.4	70	2	15
2026-02-07T14:27	-1.1	1007	-1.4	70	2	13
2026-02-07T14:28	-1.1	1007	-1.4	70	2	13
2026-02-07T14:29	-1.1	1007	-1.4	70	2	12
2026-02-07T14:30	-1.1	1007	-1.4	70	2	12
2026-02-07T14:31	-1.1	1007	-1.4	70	2	12
2026-02-07T14:32	-1.1	1007	-1.4	70	2	11
2026-02-07T14:33	-1.1	1007	-1.4	70	2	12
2026-02-07T14:34	-1.1	1007	-1.4	70	2	12
2026-02-07T14:35	-1.1	1007	-1.4	70	2	12
2026-02-07T14:36	-1.1	1007	-1.4	70	2	12
2026-02-07T14:37	-1.1	1007	-1.4	60	2	13
2026-02-07T14:38	-1.1	1007	-1.4	70	2	13
2026-02-07T14:39	-1.1	1007	-1.4	60	2	13
2026-02-07T14:40	-1.1	1007	-1.4	70	2	12
2026-02-07T14:41	-1.1	1007	-1.4	60	2	12
2026-02-07T14:42	-1.1	1007	-1.4	70	2	12
2026-02-07T14:43	-1.1	1007	-1.4	70	2	11
2026-02-07T14:44	-1.1	1007	-1.4	70	2	11
2026-02-07T14:45	-1.1	1007	-1.4	70	2	10
2026-02-07T14:46	-1.1	1007	-1.4	70	2	10
2026-02-07T14:47	-1.1	1007	-1.4	70	2	9
2026-02-07T14:48	-1.1	1007	-1.4	70	2	9
2026-02-07T14:49	-1.1	1007	-1.4	70	2	9
2026-02-07T14:50	-1.1	1007	-1.4	70	2	9
2026-02-07T14:51	-1.1	1007	-1.4	70	2	8
2026-02-07T14:52	-1.2	1007	-1.5	80	2	9
2026-02-07T14:53	-1.2	1007	-1.5	80	1	9
2026-02-07T14:54	-1.1	1007	-1.4	80	1	9
2026-02-07T14:55	-1.2	1007	-1.5	80	1	9
2026-02-07T14:56	-1.1	1007	-1.4	80	1	9
2026-02-07T14:57	-1.2	1007	-1.5	80	1	10
2026-02-07T14:58	-1.1	1007	-1.4	80	1	9
2026-02-07T14:59	-1.1	1007	-1.4	70	1	10
2026-02-07T15:00	-1.1	1007	-1.4	70	1	10
2026-02-07T15:01	-1.2	1007	-1.5	70	2	10
2026-02-07T15:02	-1.2	1007	-1.5	60	2	11
2026-02-07T15:03	-1.2	1007	-1.5	60	2	10
2026-02-07T15:04	-1.2	1007	-1.5	60	2	10
2026-02-07T15:05	-1.2	1007	-1.5	60	2	10
2026-02-07T15:06	-1.2	1007	-1.5	60	2	10
2026-02-07T15:07	-1.3	1007	-1.6	50	2	10
2026-02-07T15:08	-1.3	1007	-1.6	50	2	10
2026-02-07T15:09	-1.3	1007	-1.6	50	2	11
2026-02-07T15:10	-1.3	1007	-1.6	50	2	11
2026-02-07T15:11	-1.3	1007	-1.6	50	2	12
2026-02-07T15:12	-1.3	1007	-1.6	50	1	12
2026-02-07T15:13	-1.3	1007	-1.6	50	1	13
2026-02-07T15:14	-1.4	1007	-1.7	50	1	14
2026-02-07T15:15	-1.4	1007	-1.7	50	2	15
2026-02-07T15:16	-1.4	1007	-1.7	60	1	17
2026-02-07T15:17	-1.4	1007	-1.7	60	1	18
2026-02-07T15:18	-1.4	1007	-1.7	50	1	19
2026-02-07T15:19	-1.4	1007	-1.7	50	1	20
2026-02-07T15:20	-1.4	1007	-1.7	50	1	21
2026-02-07T15:21	-1.5	1006	-1.8	50	1	22
2026-02-07T15:22	-1.4	1006	-1.7	50	1	23
2026-02-07T15:23	-1.5	1006	-1.8	60	1	24
2026-02-07T15:24	-1.4	1006	-1.7	50	1	24
2026-02-07T15:25	-1.4	1006	-1.7	50	1	24
2026-02-07T15:26	-1.4	1006	-1.7	50	1	24
2026-02-07T15:27	-1.4	1006	-1.7	50	1	24
2026-02-07T15:28	-1.5	1006	-1.8	60	2	24
2026-02-07T15:29	-1.5	1006	-1.8	60	2	25
2026-02-07T15:30	-1.5	1006	-1.8	60	2	25
2026-02-07T15:31	-1.5	1006	-1.8	60	2	25
2026-02-07T15:32	-1.4	1006	-1.7	60	2	25
2026-02-07T15:33	-1.5	1006	-1.8	60	2	26
2026-02-07T15:34	-1.5	1006	-1.8	60	3	27
2026-02-07T15:35	-1.5	1006	-1.8	60	3	29
2026-02-07T15:36	-1.6	1006	-1.9	60	3	31
2026-02-07T15:37	-1.6	1006	-1.9	60	2	33
2026-02-07T15:38	-1.5	1006	-1.8	60	2	35
2026-02-07T15:39	-1.5	1006	-1.8	70	2	36
2026-02-07T15:40	-1.5	1006	-1.8	80	2	39
2026-02-07T15:41	-1.5	1006	-1.8	90	2	42
2026-02-07T15:42	-1.5	1006	-1.9	100	2	46
2026-02-07T15:43	-1.5	1006	-1.9	110	2	55
2026-02-07T15:44	-1.5	1006	-1.9	110	2	55
2026-02-07T15:45	-1.5	1006	-1.9	110	2	55
2026-02-07T15:46	-1.5	1006	-1.9	100	2	56
2026-02-07T15:47	-1.5	1006	-1.9	100	2	56
2026-02-07T15:48	-1.5	1006	-1.9	90	2	56
2026-02-07T15:49	-1.5	1006	-1.9	90	2	56
2026-02-07T15:50	-1.5	1006	-1.9	80	2	56
2026-02-07T15:51	-1.5	1006	-1.9	70	2	55
2026-02-07T15:52	-1.5	1006	-1.9	60	3	55
2026-02-07T15:53	-1.5	1006	-1.9	60	3	55
2026-02-07T15:54	-1.5	1006	-1.9	60	3	47
2026-02-07T15:55	-1.5	1006	-1.9	50	3	44
2026-02-07T15:56	-1.5	1006	-1.9	60	3	43
2026-02-07T15:57	-1.5	1006	-2.0	60	3	44
2026-02-07T15:58	-1.5	1006	-2.0	60	3	44
2026-02-07T15:59	-1.5	1006	-2.0	70	3	45
2026-02-07T16:00	-1.5	1006	-2.0	70	2	46
2026-02-07T16:01	-1.5	1006	-2.2	190	2	55
2026-02-07T16:02	-1.4	1006	-2.1	110	2	55
2026-02-07T16:03	-1.4	1006	-2.1	150	2	56
2026-02-07T16:04	-1.5	1006	-2.2	160	2	57
2026-02-07T16:05	-1.5	1006	-2.2	160	2	57
2026-02-07T16:06	-1.5	1006	-2.3	160	2	58
2026-02-07T16:07	-1.5	1006	-2.3	150	2	58
2026-02-07T16:08	-1.5	1006	-2.3	150	2	59
2026-02-07T16:09	-1.5	1006	-2.3	130	2	59
2026-02-07T16:10	-1.5	1006	-2.3	120	2	59
2026-02-07T16:11	-1.5	1006	-2.3	100	2	59
2026-02-07T16:12	-1.5	1006	-2.2	90	2	59
2026-02-07T16:13	-1.5	1006	-2.2	80	2	59
2026-02-07T16:14	-1.5	1006	-2.2	70	3	59
2026-02-07T16:15	-1.5	1006	-2.2	70	3	60
2026-02-07T16:16	-1.5	1006	-2.2	70	3	59
2026-02-07T16:17	-1.6	1006	-2.3	70	3	58
2026-02-07T16:18	-1.6	1006	-2.4	60	3	57
2026-02-07T16:19	-1.6	1006	-2.4	60	3	57
2026-02-07T16:20	-1.6	1006	-2.4	60	3	57
2026-02-07T16:21	-1.6	1006	-2.4	60	3	57
2026-02-07T16:22	-1.6	1006	-2.4	60	3	57
2026-02-07T16:23	-1.6	1006	-2.4	60	2	57
2026-02-07T16:24	-1.6	1006	-2.4	60	2	57
2026-02-07T16:25	-1.6	1006	-2.4	60	2	56
2026-02-07T16:26	-1.6	1006	-2.4	60	2	56
2026-02-07T16:27	-1.6	1006	-2.4	50	2	56
2026-02-07T16:28	-1.6	1006	-2.6	60	2	55
2026-02-07T16:29	-1.6	1006	-2.6	60	2	55
2026-02-07T16:30	-1.6	1006	-2.6	60	2	47
2026-02-07T16:31	-1.6	1006	-2.4	60	2	45
2026-02-07T16:32	-1.6	1006	-2.4	70	2	42
2026-02-07T16:33	-1.6	1006	-2.4	60	2	39
2026-02-07T16:34	-1.7	1005	-2.5	60	2	37
2026-02-07T16:35	-1.7	1005	-2.5	60	2	37
2026-02-07T16:36	-1.7	1005	-2.5	60	2	35
2026-02-07T16:37	-1.7	1005	-2.5	50	2	35
2026-02-07T16:38	-1.7	1005	-2.5	50	2	36
2026-02-07T16:39	-1.7	1005	-2.5	50	2	37
2026-02-07T16:40	-1.7	1005	-2.5	50	2	38
2026-02-07T16:41	-1.8	1005	-2.6	50	2	37
2026-02-07T16:42	-1.8	1005	-2.6	40	2	38
2026-02-07T16:43	-1.8	1005	-2.6	40	2	40
2026-02-07T16:44	-1.8	1005	-2.6	40	2	41
2026-02-07T16:45	-1.8	1005	-2.6	40	2	43
2026-02-07T16:46	-1.8	1005	-2.6	40	2	46
2026-02-07T16:47	-1.8	1005	-2.6	50	2	48
2026-02-07T16:48	-1.8	1005	-2.6	50	2	55
2026-02-07T16:49	-1.8	1005	-2.6	50	2	55
2026-02-07T16:50	-1.8	1005	-2.6	50	2	56
2026-02-07T16:51	-1.8	1005	-2.6	50	2	57
2026-02-07T16:52	-1.8	1005	-2.6	50	2	57
2026-02-07T16:53	-1.8	1005	-2.6	50	2	57
2026-02-07T16:54	-1.8	1005	-2.6	50	2	58
2026-02-07T16:55	-1.8	1005	-2.6	60	2	58
2026-02-07T16:56	-1.8	1005	-2.6	50	2	58
2026-02-07T16:57	-1.9	1005	-2.7	50	2	58
2026-02-07T16:58	-1.9	1005	-2.7	50	2	58
2026-02-07T16:59	-1.9	1005	-2.6	50	2	58
2026-02-07T17:00	-1.9	1005	-2.6	50	2	58
2026-02-07T17:01	-1.9	1005	-2.6	50	2	58
2026-02-07T17:02	-1.9	1005	-2.6	40	2	59
2026-02-07T17:03	-1.9	1005	-2.6	40	2	59
2026-02-07T17:04	-1.9	1005	-2.6	40	2	59
2026-02-07T17:05	-1.9	1005	-2.6	40	2	60
2026-02-07T17:06	-1.9	1005	-2.6	40	2	60
2026-02-07T17:07	-1.9	1005	-2.6	50	2	61
2026-02-07T17:08	-1.8	1005	-2.5	50	2	61
2026-02-07T17:09	-1.9	1005	-2.7	50	2	61
2026-02-07T17:10	-1.9	1005	-2.7	50	2	62
2026-02-07T17:11	-1.9	1005	-2.7	50	2	62
2026-02-07T17:12	-1.8	1005	-2.6	60	2	62
2026-02-07T17:13	-1.8	1005	-2.6	60	2	62
2026-02-07T17:14	-1.9	1005	-2.7	50	2	62
2026-02-07T17:15	-1.8	1005	-2.6	50	2	62
2026-02-07T17:16	-1.8	1005	-2.6	50	2	62
2026-02-07T17:17	-1.8	1005	-2.6	50	2	62
2026-02-07T17:18	-1.8	1005	-2.6	50	2	61
2026-02-07T17:19	-1.8	1005	-2.6	50	2	61
2026-02-07T17:20	-1.9	1005	-2.7	50	2	62
2026-02-07T17:21	-1.8	1005	-2.6	50	2	61
2026-02-07T17:22	-1.8	1005	-2.6	50	2	62
2026-02-07T17:23	-1.8	1005	-2.6	40	2	62
2026-02-07T17:24	-1.9	1005	-2.9	40	2	62
2026-02-07T17:25	-1.8	1005	-2.8	40	2	62
2026-02-07T17:26	-1.8	1005	-2.8	40	2	63
2026-02-07T17:27	-1.8	1005	-2.8	50	2	63
2026-02-07T17:28	-1.8	1005	-2.8	40	2	63
2026-02-07T17:29	-1.8	1005	-2.8	40	2	64
2026-02-07T17:30	-1.8	1005	-2.8	40	2	64
2026-02-07T17:31	-1.8	1005	-2.8	40	2	64
2026-02-07T17:32	-1.9	1005	-2.9	40	2	64
2026-02-07T17:33	-1.9	1005	-2.9	40	2	64
2026-02-07T17:34	-1.8	1005	-2.8	50	2	64
2026-02-07T17:35	-1.8	1005	-2.8	50	2	63
2026-02-07T17:36	-1.9	1005	-2.7	50	2	63
2026-02-07T17:37	-1.9	1005	-2.7	50	2	63
2026-02-07T17:38	-1.8	1005	-2.6	50	2	63
2026-02-07T17:39	-1.9	1005	-2.7	50	2	62
2026-02-07T17:40	-1.8	1005	-2.6	50	2	61
2026-02-07T17:41	-1.8	1005	-2.6	50	2	61
2026-02-07T17:42	-1.8	1005	-2.6	50	2	60
2026-02-07T17:43	-1.8	1005	-2.6	50	2	60
2026-02-07T17:44	-1.8	1005	-2.6	50	2	60
2026-02-07T17:45	-1.8	1005	-2.6	40	2	60
2026-02-07T17:46	-1.8	1005	-2.6	50	2	59
2026-02-07T17:47	-1.8	1005	-2.8	50	2	59
2026-02-07T17:48	-1.8	1005	-2.8	50	2	59
2026-02-07T17:49	-1.9	1005	-2.9	50	2	59
2026-02-07T17:50	-1.9	1005	-2.9	40	2	59
2026-02-07T17:51	-1.9	1005	-2.9	30	2	59
2026-02-07T17:52	-1.9	1005	-2.9	30	2	59
2026-02-07T17:53	-1.9	1005	-2.9	30	1	59
2026-02-07T17:54	-1.9	1005	-2.9	30	1	59
2026-02-07T17:55	-1.9	1005	-2.9	30	2	59
2026-02-07T17:56	-1.9	1005	-2.9	20	1	59
2026-02-07T17:57	-1.9	1005	-2.7	20	2	58
2026-02-07T17:58	-1.9	1005	-2.7	20	2	58
2026-02-07T17:59	-1.9	1005	-2.7	10	2	58
2026-02-07T18:00	-1.9	1005	-2.7	30	2	58
2026-02-07T18:01	-1.9	1005	-2.7	30	2	57
2026-02-07T18:02	-1.9	1005	-2.7	40	2	57
2026-02-07T18:03	-1.9	1005	-2.7	40	2	56
2026-02-07T18:04	-1.9	1005	-2.7	40	2	55
2026-02-07T18:05	-1.9	1005	-2.7	40	2	55
2026-02-07T18:06	-1.9	1005	-2.7	40	2	55
2026-02-07T18:07	-1.9	1005	-2.7	40	2	47
2026-02-07T18:08	-1.9	1005	-2.7	40	2	45
2026-02-07T18:09	-1.9	1005	-2.7	40	2	42
2026-02-07T18:10	-1.9	1005	-2.7	40	2	39
2026-02-07T18:11	-1.9	1005	-2.7	40	2	37
2026-02-07T18:12	-1.9	1005	-2.7	40	3	36
2026-02-07T18:13	-2.0	1005	-2.8	40	3	36
2026-02-07T18:14	-2.0	1005	-2.8	40	3	36
2026-02-07T18:15	-2.0	1005	-2.8	40	3	36
2026-02-07T18:16	-2.0	1005	-2.8	40	3	38
2026-02-07T18:17	-2.0	1005	-2.7	40	3	39
2026-02-07T18:18	-2.0	1005	-2.8	30	2	39
2026-02-07T18:19	-2.0	1005	-2.8	30	2	41
2026-02-07T18:20	-2.0	1005	-2.8	30	2	43
2026-02-07T18:21	-2.0	1005	-2.8	30	2	46
2026-02-07T18:22	-2.0	1005	-2.8	30	2	49
2026-02-07T18:23	-2.0	1005	-2.8	30	2	55
2026-02-07T18:24	-2.0	1005	-2.8	30	2	55
2026-02-07T18:25	-2.0	1005	-2.8	30	2	56
2026-02-07T18:26	-2.0	1005	-2.8	20	2	56
2026-02-07T18:27	-2.0	1005	-2.8	30	2	56
2026-02-07T18:28	-2.0	1005	-2.8	30	2	57
2026-02-07T18:29	-2.0	1005	-2.8	30	2	57
2026-02-07T18:30	-2.0	1005	-2.8	30	2	57
2026-02-07T18:31	-2.0	1005	-2.8	30	2	58
2026-02-07T18:32	-2.0	1005	-2.8	30	2	58
2026-02-07T18:33	-2.0	1005	-2.8	30	2	58
2026-02-07T18:34	-2.0	1005	-2.8	30	2	59
2026-02-07T18:35	-2.0	1005	-3.0	30	2	59
2026-02-07T18:36	-2.0	1005	-3.0	30	2	58
2026-02-07T18:37	-2.0	1005	-3.0	20	2	58
2026-02-07T18:38	-2.0	1005	-3.0	30	2	59
2026-02-07T18:39	-2.0	1005	-3.1	20	2	59
2026-02-07T18:40	-2.0	1005	-3.1	20	2	59
2026-02-07T18:41	-2.0	1005	-3.1	20	2	59
2026-02-07T18:42	-2.0	1005	-3.1	20	2	59
2026-02-07T18:43	-2.0	1005	-3.0	10	2	60
2026-02-07T18:44	-2.0	1005	-3.1	10	2	60
2026-02-07T18:45	-2.0	1005	-3.1	10	2	61
2026-02-07T18:46	-2.0	1005	-3.1	10	2	62
2026-02-07T18:47	-2.0	1005	-3.1	10	2	64
2026-02-07T18:48	-2.0	1005	-3.1	10	2	65
2026-02-07T18:49	-2.0	1005	-3.1	10	1	67
2026-02-07T18:50	-2.0	1005	-3.1	10	1	68
2026-02-07T18:51	-2.0	1005	-3.1	10	2	70
2026-02-07T18:52	-2.0	1005	-3.1	10	2	70
2026-02-07T18:53	-2.0	1005	-3.1	10	2	70
2026-02-07T18:54	-2.0	1005	-3.1	20	2	70
2026-02-07T18:55	-2.0	1005	-3.1	20	2	70
2026-02-07T18:56	-2.0	1005	-3.3	20	2	70
2026-02-07T18:57	-2.0	1005	-3.3	20	2	70
2026-02-07T18:58	-2.0	1005	-3.3	20	2	70
2026-02-07T18:59	-2.0	1005	-3.3	20	2	70
2026-02-07T19:00	-1.9	1005	-3.2	10	2	70
2026-02-07T19:01	-1.9	1005	-3.2	10	2	70
2026-02-07T19:02	-1.9	1005	-3.2	360	2	70
2026-02-07T19:03	-1.9	1005	-3.3	350	2	70
2026-02-07T19:04	-1.9	1005	-3.3	340	2	70
2026-02-07T19:05	-1.9	1005	-3.3	340	2	70
2026-02-07T19:06	-1.9	1005	-3.5	340	2	70
2026-02-07T19:07	-1.9	1005	-3.5	340	2	70
2026-02-07T19:08	-1.9	1004	-3.5	350	2	70
2026-02-07T19:09	-1.9	1004	-3.5	360	2	70
2026-02-07T19:10	-1.9	1004	-3.3	20	2	70
2026-02-07T19:11	-1.9	1004	-3.3	40	2	70
2026-02-07T19:12	-1.9	1004	-3.5	40	2	70
2026-02-07T19:13	-1.9	1005	-3.5	40	2	70
2026-02-07T19:14	-1.9	1005	-3.5	50	2	70
2026-02-07T19:15	-1.9	1005	-3.5	40	3	70
2026-02-07T19:16	-2.0	1005	-3.6	30	3	70
2026-02-07T19:17	-2.0	1005	-3.6	20	3	70
2026-02-07T19:18	-1.9	1005	-3.3	10	3	70
2026-02-07T19:19	-1.9	1005	-3.5	10	2	69
2026-02-07T19:20	-2.0	1005	-3.4	360	2	67
2026-02-07T19:21	-2.0	1005	-3.4	360	2	66
2026-02-07T19:22	-2.0	1005	-3.4	10	2	64
2026-02-07T19:23	-2.0	1005	-3.4	10	2	63
2026-02-07T19:24	-2.0	1005	-3.4	10	2	62
2026-02-07T19:25	-2.0	1005	-3.4	20	2	61
2026-02-07T19:26	-2.0	1005	-3.4	20	2	61
2026-02-07T19:27	-2.0	1005	-3.4	20	2	60
2026-02-07T19:28	-2.0	1005	-3.4	30	2	59
2026-02-07T19:29	-2.0	1005	-3.4	30	2	58
2026-02-07T19:30	-2.0	1005	-3.4	30	2	58
2026-02-07T19:31	-2.0	1005	-3.3	30	2	58
2026-02-07T19:32	-2.0	1004	-3.3	30	2	58
2026-02-07T19:33	-2.0	1004	-3.3	30	2	57
2026-02-07T19:34	-2.0	1004	-3.1	30	2	57
2026-02-07T19:35	-2.0	1004	-3.3	30	2	57
2026-02-07T19:36	-2.0	1004	-3.3	40	2	58
2026-02-07T19:37	-2.0	1004	-3.3	40	2	58
2026-02-07T19:38	-2.0	1004	-3.3	40	2	58
2026-02-07T19:39	-2.0	1004	-3.4	40	2	59
2026-02-07T19:40	-2.0	1004	-3.4	40	2	59
2026-02-07T19:41	-2.0	1004	-3.6	40	2	60
2026-02-07T19:42	-2.1	1004	-3.5	30	2	61
2026-02-07T19:43	-2.1	1004	-3.5	30	2	61
2026-02-07T19:44	-2.1	1004	-3.5	20	2	62
2026-02-07T19:45	-2.1	1004	-3.5	20	2	62
2026-02-07T19:46	-2.2	1004	-3.6	20	2	62
2026-02-07T19:47	-2.1	1004	-3.5	10	2	63
2026-02-07T19:48	-2.1	1004	-3.7	10	2	64
2026-02-07T19:49	-2.1	1004	-3.7	10	2	65
2026-02-07T19:50	-2.1	1004	-3.7	10	2	65
2026-02-07T19:51	-2.2	1004	-3.8	20	2	66
2026-02-07T19:52	-2.1	1004	-3.7	20	2	67
2026-02-07T19:53	-2.1	1004	-3.8	30	2	68
2026-02-07T19:54	-2.1	1004	-3.8	30	2	68
2026-02-07T19:55	-2.1	1004	-3.8	40	2	68
2026-02-07T19:56	-2.1	1004	-3.8	40	2	68
2026-02-07T19:57	-2.1	1004	-3.8	40	2	67
2026-02-07T19:58	-2.2	1004	-4.1	40	2	66
2026-02-07T19:59	-2.1	1004	-4.0	40	3	66
2026-02-07T20:00	-2.1	1004	-4.0	40	2	65
2026-02-07T20:01	-2.2	1004	-4.2	30	2	65
2026-02-07T20:02	-2.2	1004	-4.2	30	2	64
2026-02-07T20:03	-2.2	1004	-4.1	20	2	64
2026-02-07T20:04	-2.2	1004	-4.1	20	2	64
2026-02-07T20:05	-2.2	1004	-4.1	20	2	63
2026-02-07T20:06	-2.2	1004	-4.1	20	2	62
2026-02-07T20:07	-2.2	1004	-4.1	20	2	63
2026-02-07T20:08	-2.2	1004	-4.1	30	2	63
2026-02-07T20:09	-2.2	1004	-3.9	30	2	63
2026-02-07T20:10	-2.2	1004	-3.9	30	2	63
2026-02-07T20:11	-2.2	1004	-4.1	30	2	64
2026-02-07T20:12	-2.2	1004	-3.9	40	2	65
2026-02-07T20:13	-2.2	1004	-4.1	40	2	65
2026-02-07T20:14	-2.2	1004	-4.1	40	2	65
2026-02-07T20:15	-2.3	1004	-4.0	40	2	66
2026-02-07T20:16	-2.3	1004	-4.0	30	2	68
2026-02-07T20:17	-2.2	1004	-3.9	40	3	68
2026-02-07T20:18	-2.2	1004	-4.1	30	3	67
2026-02-07T20:19	-2.2	1004	-4.1	30	3	69
2026-02-07T20:20	-2.2	1004	-4.1	30	3	70
2026-02-07T20:21	-2.2	1004	-4.1	30	3	70
2026-02-07T20:22	-2.2	1004	-4.1	30	3	70
2026-02-07T20:23	-2.3	1004	-4.2	30	3	70
2026-02-07T20:24	-2.3	1004	-4.0	20	3	70
2026-02-07T20:25	-2.3	1004	-4.0	20	3	70
2026-02-07T20:26	-2.3	1004	-4.0	20	3	70
2026-02-07T20:27	-2.3	1004	-4.0	30	2	70
2026-02-07T20:28	-2.3	1004	-4.0	30	2	70
2026-02-07T20:29	-2.3	1004	-4.0	20	2	70
2026-02-07T20:30	-2.3	1004	-4.0	20	2	70
2026-02-07T20:31	-2.3	1004	-4.0	30	2	70
2026-02-07T20:32	-2.3	1004	-4.0	20	2	70
2026-02-07T20:33	-2.3	1004	-4.0	20	2	70
2026-02-07T20:34	-2.3	1004	-4.0	30	2	70
2026-02-07T20:35	-2.3	1004	-4.0	30	2	70
2026-02-07T20:36	-2.3	1004	-4.0	30	2	70
2026-02-07T20:37	-2.3	1004	-4.0	30	2	70
2026-02-07T20:38	-2.3	1004	-4.0	30	2	70
2026-02-07T20:39	-2.3	1004	-4.0	40	3	70
2026-02-07T20:40	-2.3	1004	-4.0	40	3	70
2026-02-07T20:41	-2.3	1004	-4.0	40	3	70
2026-02-07T20:42	-2.3	1004	-3.8	40	3	70
2026-02-07T20:43	-2.3	1004	-3.8	40	3	70
2026-02-07T20:44	-2.3	1004	-3.8	40	3	70
2026-02-07T20:45	-2.3	1004	-3.8	40	3	70
2026-02-07T20:46	-2.3	1004	-3.8	40	3	70
2026-02-07T20:47	-2.3	1004	-3.8	40	3	69
2026-02-07T20:48	-2.3	1004	-3.8	40	3	68
2026-02-07T20:49	-2.3	1004	-3.8	40	3	67
2026-02-07T20:50	-2.3	1004	-3.8	40	3	66
2026-02-07T20:51	-2.3	1004	-3.8	40	2	65
2026-02-07T20:52	-2.3	1004	-3.8	30	2	64
2026-02-07T20:53	-2.3	1004	-3.8	30	2	63
2026-02-07T20:54	-2.3	1004	-3.8	30	2	59
2026-02-07T20:55	-2.3	1004	-4.0	30	2	58
2026-02-07T20:56	-2.3	1004	-3.8	30	2	56
2026-02-07T20:57	-2.3	1004	-3.8	20	2	56
2026-02-07T20:58	-2.3	1004	-4.0	20	2	55
2026-02-07T20:59	-2.3	1004	-3.8	20	2	45
2026-02-07T21:00	-2.3	1004	-3.8	20	2	40
2026-02-07T21:01	-2.3	1004	-3.8	20	2	36
2026-02-07T21:02	-2.3	1004	-3.8	30	2	33
2026-02-07T21:03	-2.3	1004	-3.8	30	3	31
2026-02-07T21:04	-2.3	1004	-3.8	30	3	30
2026-02-07T21:05	-2.3	1004	-3.8	30	2	28
2026-02-07T21:06	-2.3	1004	-3.8	30	2	26
2026-02-07T21:07	-2.3	1004	-3.8	30	2	24
2026-02-07T21:08	-2.4	1004	-3.9	40	3	23
2026-02-07T21:09	-2.3	1004	-3.8	40	3	23
2026-02-07T21:10	-2.4	1004	-3.9	40	3	22
2026-02-07T21:11	-2.4	1004	-3.8	40	3	22
2026-02-07T21:12	-2.4	1004	-3.8	30	3	21
2026-02-07T21:13	-2.4	1004	-3.8	30	3	21
2026-02-07T21:14	-2.4	1004	-3.8	30	3	21
2026-02-07T21:15	-2.4	1004	-3.8	30	3	21
2026-02-07T21:16	-2.4	1004	-3.7	30	3	21
2026-02-07T21:17	-2.5	1004	-3.8	30	3	21
2026-02-07T21:18	-2.5	1004	-3.8	20	3	22
2026-02-07T21:19	-2.4	1004	-3.7	20	3	23
2026-02-07T21:20	-2.4	1004	-3.7	20	3	23
2026-02-07T21:21	-2.4	1004	-3.7	10	3	24
2026-02-07T21:22	-2.4	1004	-3.7	10	3	25
2026-02-07T21:23	-2.4	1004	-3.7	10	3	24
2026-02-07T21:24	-2.4	1004	-3.7	10	2	24
2026-02-07T21:25	-2.4	1004	-3.7	10	3	26
2026-02-07T21:26	-2.4	1004	-3.7	10	3	25
2026-02-07T21:27	-2.4	1004	-3.5	10	2	24
2026-02-07T21:28	-2.5	1004	-3.6	10	2	23
2026-02-07T21:29	-2.4	1004	-3.5	10	2	23
2026-02-07T21:30	-2.4	1004	-3.5	10	2	22
2026-02-07T21:31	-2.5	1004	-3.6	10	2	21
2026-02-07T21:32	-2.5	1004	-3.6	20	2	20
2026-02-07T21:33	-2.5	1004	-3.6	20	2	18
2026-02-07T21:34	-2.5	1004	-3.6	10	2	17
2026-02-07T21:35	-2.5	1004	-3.6	10	2	16
2026-02-07T21:36	-2.5	1004	-3.6	10	2	16
2026-02-07T21:37	-2.5	1004	-3.5	10	2	15
2026-02-07T21:38	-2.5	1004	-3.5	10	2	15
2026-02-07T21:39	-2.6	1004	-3.6	10	2	15
2026-02-07T21:40	-2.5	1004	-3.5	10	2	14
2026-02-07T21:41	-2.6	1004	-3.6	10	2	15
2026-02-07T21:42	-2.6	1004	-3.4	360	2	15
2026-02-07T21:43	-2.6	1004	-3.4	10	2	15
2026-02-07T21:44	-2.6	1004	-3.4	10	2	16
2026-02-07T21:45	-2.6	1004	-3.4	10	2	17
2026-02-07T21:46	-2.5	1004	-3.3	20	2	18
2026-02-07T21:47	-2.5	1004	-3.3	20	2	20
2026-02-07T21:48	-2.5	1004	-3.3	20	2	21
2026-02-07T21:49	-2.5	1004	-3.5	20	2	23
2026-02-07T21:50	-2.6	1004	-3.4	20	2	25
2026-02-07T21:51	-2.5	1004	-3.5	20	2	26
2026-02-07T21:52	-2.5	1004	-3.5	20	2	30
2026-02-07T21:53	-2.5	1004	-3.5	10	2	33
2026-02-07T21:54	-2.5	1004	-3.5	10	2	35
2026-02-07T21:55	-2.5	1004	-3.5	360	2	39
2026-02-07T21:56	-2.5	1004	-3.5	360	3	42
2026-02-07T21:57	-2.5	1005	-3.5	350	3	44
2026-02-07T21:58	-2.5	1005	-3.5	350	2	46
2026-02-07T21:59	-2.5	1005	-3.5	350	2	45
2026-02-07T22:00	-2.5	1005	-3.5	340	2	45
2026-02-07T22:01	-2.5	1005	-3.5	340	2	47
2026-02-07T22:02	-2.5	1005	-3.5	350	2	47
2026-02-07T22:03	-2.5	1005	-3.5	350	2	48
2026-02-07T22:04	-2.5	1005	-3.5	350	2	48
2026-02-07T22:05	-2.5	1005	-3.5	350	2	48
2026-02-07T22:06	-2.5	1005	-3.5	360	2	48
2026-02-07T22:07	-2.5	1005	-3.3	360	2	48
2026-02-07T22:08	-2.5	1005	-3.3	360	2	48
2026-02-07T22:09	-2.5	1005	-3.3	360	2	49
2026-02-07T22:10	-2.5	1005	-3.3	10	2	49
2026-02-07T22:11	-2.5	1005	-3.3	10	2	49
2026-02-07T22:12	-2.5	1005	-3.3	360	2	47
2026-02-07T22:13	-2.5	1005	-3.3	10	2	45
2026-02-07T22:14	-2.5	1005	-3.3	10	2	43
2026-02-07T22:15	-2.5	1005	-3.3	10	2	40
2026-02-07T22:16	-2.5	1005	-3.3	10	2	37
2026-02-07T22:17	-2.5	1005	-3.3	10	2	34
2026-02-07T22:18	-2.5	1005	-3.3	10	2	29
2026-02-07T22:19	-2.4	1005	-3.4	20	2	27
2026-02-07T22:20	-2.4	1005	-3.4	20	1	24
2026-02-07T22:21	-2.4	1005	-3.4	20	1	22
2026-02-07T22:22	-2.4	1005	-3.4	20	1	20
2026-02-07T22:23	-2.4	1005	-3.4	20	1	19
2026-02-07T22:24	-2.4	1005	-3.4	30	1	17
2026-02-07T22:25	-2.4	1005	-3.4	30	1	16
2026-02-07T22:26	-2.4	1005	-3.2	30	1	16
2026-02-07T22:27	-2.4	1005	-3.2	20	1	15
2026-02-07T22:28	-2.4	1005	-3.2	20	1	14
2026-02-07T22:29	-2.4	1005	-3.2	20	1	14
2026-02-07T22:30	-2.4	1005	-3.2	20	1	12
2026-02-07T22:31	-2.4	1005	-3.2	30	2	11
2026-02-07T22:32	-2.4	1005	-3.1	30	2	10
2026-02-07T22:33	-2.4	1005	-3.1	30	1	10
2026-02-07T22:34	-2.5	1005	-3.2	20	1	9
2026-02-07T22:35	-2.4	1005	-3.1	30	1	8
2026-02-07T22:36	-2.5	1005	-3.2	30	1	8
2026-02-07T22:37	-2.5	1005	-3.2	40	1	7
2026-02-07T22:38	-2.5	1005	-3.2	40	1	7
2026-02-07T22:39	-2.5	1005	-3.2	40	1	6
2026-02-07T22:40	-2.5	1005	-3.2	40	1	6
2026-02-07T22:41	-2.5	1005	-3.2	30	1	6
2026-02-07T22:42	-2.5	1005	-3.2	30	1	6
2026-02-07T22:43	-2.5	1005	-3.2	30	1	6
2026-02-07T22:44	-2.5	1005	-3.0	30	1	6
2026-02-07T22:45	-2.5	1005	-3.2	20	1	6
2026-02-07T22:46	-2.4	1005	-3.1	20	1	7
2026-02-07T22:47	-2.4	1005	-2.9	10	1	7
2026-02-07T22:48	-2.4	1005	-2.9	10	1	8
2026-02-07T22:49	-2.4	1005	-2.9	10	2	8
2026-02-07T22:50	-2.4	1004	-2.9	360	2	9
2026-02-07T22:51	-2.4	1004	-2.9	10	2	9
2026-02-07T22:52	-2.3	1004	-2.8	10	2	9
2026-02-07T22:53	-2.3	1004	-2.8	10	2	10
2026-02-07T22:54	-2.3	1004	-2.8	10	2	11
2026-02-07T22:55	-2.3	1004	-2.8	10	2	12
2026-02-07T22:56	-2.3	1004	-2.8	10	2	12
2026-02-07T22:57	-2.3	1004	-2.8	20	2	12
2026-02-07T22:58	-2.3	1004	-3.0	20	2	13
2026-02-07T22:59	-2.3	1004	-3.0	10	2	14
2026-02-07T23:00	-2.3	1004	-3.0	10	2	14
2026-02-07T23:01	-2.3	1004	-3.0	20	2	15
2026-02-07T23:02	-2.3	1004	-3.0	20	2	16
2026-02-07T23:03	-2.2	1004	-2.9	20	2	17
2026-02-07T23:04	-2.2	1004	-2.9	20	2	18
2026-02-07T23:05	-2.2	1004	-2.9	20	2	19
2026-02-07T23:06	-2.2	1004	-2.9	20	2	20
2026-02-07T23:07	-2.2	1004	-2.9	10	2	21
2026-02-07T23:08	-2.2	1004	-2.9	10	2	21
2026-02-07T23:09	-2.2	1004	-2.9	10	2	22
2026-02-07T23:10	-2.2	1004	-2.9	10	2	23
2026-02-07T23:11	-2.2	1004	-2.9	10	2	24
2026-02-07T23:12	-2.2	1004	-2.9	10	2	25
2026-02-07T23:13	-2.2	1004	-2.9	10	2	27
2026-02-07T23:14	-2.2	1005	-2.9	360	2	29
2026-02-07T23:15	-2.2	1004	-3.0	360	2	29
2026-02-07T23:16	-2.3	1004	-3.1	360	2	27
2026-02-07T23:17	-2.3	1004	-3.1	360	2	24
2026-02-07T23:18	-2.2	1004	-3.0	10	2	25
2026-02-07T23:19	-2.3	1005	-3.1	10	2	24
2026-02-07T23:20	-2.2	1005	-3.0	10	2	26
2026-02-07T23:21	-2.2	1005	-3.0	10	2	25
2026-02-07T23:22	-2.3	1005	-3.1	10	2	25
2026-02-07T23:23	-2.3	1005	-3.1	10	2	24
2026-02-07T23:24	-2.3	1005	-3.1	10	2	23
2026-02-07T23:25	-2.3	1005	-3.1	10	2	24
2026-02-07T23:26	-2.3	1005	-3.1	10	2	25
2026-02-07T23:27	-2.3	1005	-3.1	360	2	28
2026-02-07T23:28	-2.3	1005	-3.1	360	2	29
2026-02-07T23:29	-2.2	1005	-3.0	360	2	31
2026-02-07T23:30	-2.2	1005	-3.0	360	2	31
2026-02-07T23:31	-2.2	1004	-3.0	360	2	31
2026-02-07T23:32	-2.1	1004	-2.9	360	2	33
2026-02-07T23:33	-2.1	1004	-2.9	360	2	35
2026-02-07T23:34	-2.1	1004	-2.9	360	2	33
2026-02-07T23:35	-2.1	1004	-2.9	10	2	35
2026-02-07T23:36	-2.1	1004	-2.9	10	2	36
2026-02-07T23:37	-2.1	1004	-2.9	10	2	40
2026-02-07T23:38	-2.1	1004	-2.9	10	2	42
2026-02-07T23:39	-2.1	1004	-3.1	10	2	43
2026-02-07T23:40	-2.1	1004	-3.1	20	2	42
2026-02-07T23:41	-2.0	1004	-3.0	20	2	43
2026-02-07T23:42	-2.0	1004	-3.0	20	2	42
2026-02-07T23:43	-2.0	1004	-3.0	20	2	43
2026-02-07T23:44	-2.1	1004	-3.1	20	2	49
2026-02-07T23:45	-2.0	1004	-3.1	30	2	55
2026-02-07T23:46	-1.9	1004	-3.0	30	2	55
2026-02-07T23:47	-1.9	1004	-3.0	30	2	55
2026-02-07T23:48	-2.0	1004	-3.1	30	2	55
2026-02-07T23:49	-2.0	1004	-3.3	30	2	55
2026-02-07T23:50	-2.0	1004	-3.4	30	2	55
2026-02-07T23:51	-1.9	1004	-3.2	30	2	55
2026-02-07T23:52	-1.9	1004	-3.2	30	2	56
2026-02-07T23:53	-1.9	1004	-3.2	30	2	56
2026-02-07T23:54	-1.9	1004	-3.2	30	2	56
2026-02-07T23:55	-1.9	1004	-3.2	30	2	55
2026-02-07T23:56	-1.9	1004	-3.2	30	2	55
2026-02-07T23:57	-1.9	1004	-3.2	30	2	39
2026-02-07T23:58	-1.9	1004	-3.2	30	2	38
2026-02-07T23:59	-1.9	1004	-3.2	30	3	37
2026-02-08T00:00	-1.9	1004	-3.2	30	3	37
2026-02-08T00:01	-1.9	1004	-3.3	30	2	38
2026-02-08T00:02	-1.9	1004	-3.3	30	2	38
2026-02-08T00:03	-1.9	1004	-3.3	30	2	37
2026-02-08T00:04	-1.9	1004	-3.3	40	3	39
2026-02-08T00:05	-1.9	1004	-3.3	40	3	43
2026-02-08T00:06	-2.0	1004	-3.4	30	3	36
2026-02-08T00:07	-2.0	1004	-3.4	30	2	35
2026-02-08T00:08	-2.0	1004	-3.4	30	2	30
2026-02-08T00:09	-1.9	1004	-3.3	40	2	24
2026-02-08T00:10	-1.9	1004	-3.2	30	2	18
2026-02-08T00:11	-1.8	1004	-3.1	30	3	16
2026-02-08T00:12	-1.8	1004	-3.1	30	3	14
2026-02-08T00:13	-1.8	1004	-3.1	30	3	13
2026-02-08T00:14	-1.8	1004	-3.1	20	3	12
2026-02-08T00:15	-1.8	1004	-3.1	20	2	10
2026-02-08T00:16	-1.8	1004	-3.1	20	2	10
2026-02-08T00:17	-1.8	1004	-3.1	30	2	10
2026-02-08T00:18	-1.8	1004	-3.1	30	2	11
2026-02-08T00:19	-1.9	1004	-3.2	20	2	11
2026-02-08T00:20	-1.8	1004	-3.1	30	2	13
2026-02-08T00:21	-1.8	1004	-3.1	20	2	15
2026-02-08T00:22	-1.8	1004	-2.9	20	2	16
2026-02-08T00:23	-1.9	1004	-3.0	30	2	17
2026-02-08T00:24	-1.9	1004	-3.2	30	3	19
2026-02-08T00:25	-1.9	1004	-3.2	20	3	23
2026-02-08T00:26	-1.9	1004	-3.3	20	3	31
2026-02-08T00:27	-1.9	1004	-3.2	20	3	32
2026-02-08T00:28	-1.9	1004	-3.2	30	3	32
2026-02-08T00:29	-1.9	1004	-3.2	20	3	34
2026-02-08T00:30	-1.9	1004	-3.2	20	3	34
2026-02-08T00:31	-1.9	1004	-3.2	20	3	38
2026-02-08T00:32	-1.9	1004	-3.2	20	3	44
2026-02-08T00:33	-1.9	1004	-3.0	20	3	55
2026-02-08T00:34	-1.9	1004	-3.2	20	2	56
2026-02-08T00:35	-1.9	1004	-3.2	20	2	57
2026-02-08T00:36	-1.9	1004	-3.2	20	2	57
2026-02-08T00:37	-1.9	1004	-3.2	20	2	58
2026-02-08T00:38	-2.0	1004	-3.4	20	2	59
2026-02-08T00:39	-2.0	1004	-3.4	30	2	63
2026-02-08T00:40	-2.0	1004	-3.4	30	2	64
2026-02-08T00:41	-1.9	1004	-3.3	30	2	64
2026-02-08T00:42	-1.9	1004	-3.3	30	2	65
2026-02-08T00:43	-2.0	1004	-3.4	30	2	65
2026-02-08T00:44	-2.0	1004	-3.4	30	2	62
2026-02-08T00:45	-1.9	1004	-3.3	30	2	58
2026-02-08T00:46	-2.0	1004	-3.4	30	2	57
2026-02-08T00:47	-2.0	1004	-3.4	30	2	57
2026-02-08T00:48	-2.0	1004	-3.4	30	2	56
2026-02-08T00:49	-2.0	1004	-3.4	30	2	55
2026-02-08T00:50	-2.0	1004	-3.4	20	2	55
2026-02-08T00:51	-2.0	1004	-3.4	20	2	48
2026-02-08T00:52	-1.9	1004	-3.3	20	2	43
2026-02-08T00:53	-2.0	1004	-3.4	20	2	42
2026-02-08T00:54	-2.0	1004	-3.4	20	2	46
2026-02-08T00:55	-2.0	1004	-3.6	20	1	55
2026-02-08T00:56	-2.0	1004	-3.6	20	1	56
2026-02-08T00:57	-2.0	1004	-3.6	20	1	56
2026-02-08T00:58	-1.9	1004	-3.3	30	1	57
2026-02-08T00:59	-1.9	1004	-3.3	30	1	58
2026-02-08T01:00	-1.9	1004	-3.3	30	1	59
2026-02-08T01:01	-1.9	1004	-3.3	40	1	61
2026-02-08T01:02	-1.9	1004	-3.3	40	1	58
2026-02-08T01:03	-1.9	1004	-3.3	40	1	56
2026-02-08T01:04	-1.9	1004	-3.5	40	1	55
2026-02-08T01:05	-1.9	1004	-3.3	40	2	46
2026-02-08T01:06	-1.9	1004	-3.3	30	2	45
2026-02-08T01:07	-1.9	1004	-3.3	30	2	40
2026-02-08T01:08	-1.9	1004	-3.3	20	2	38
2026-02-08T01:09	-1.9	1004	-3.3	30	2	37
2026-02-08T01:10	-1.9	1004	-3.3	20	2	36
2026-02-08T01:11	-1.9	1004	-3.2	20	2	34
2026-02-08T01:12	-1.9	1004	-3.3	20	2	33
2026-02-08T01:13	-1.9	1004	-3.2	20	2	29
2026-02-08T01:14	-1.9	1004	-3.2	20	2	29
2026-02-08T01:15	-1.9	1004	-3.2	30	2	25
2026-02-08T01:16	-1.9	1004	-3.2	30	2	20
2026-02-08T01:17	-1.9	1004	-3.2	30	2	20
2026-02-08T01:18	-1.9	1004	-3.0	40	2	18
2026-02-08T01:19	-1.9	1004	-3.0	30	2	15
2026-02-08T01:20	-2.0	1004	-3.1	40	2	14
2026-02-08T01:21	-2.0	1004	-3.1	40	2	13
2026-02-08T01:22	-2.0	1004	-3.1	40	2	12
2026-02-08T01:23	-1.9	1004	-3.0	40	2	12
2026-02-08T01:24	-2.0	1004	-3.1	40	2	10
2026-02-08T01:25	-2.0	1004	-3.1	40	2	11
2026-02-08T01:26	-2.0	1004	-3.1	40	1	10
2026-02-08T01:27	-1.9	1004	-2.9	40	1	9
2026-02-08T01:28	-2.0	1004	-3.0	40	1	10
2026-02-08T01:29	-1.9	1004	-2.9	40	1	10
2026-02-08T01:30	-2.0	1004	-3.0	40	1	11
2026-02-08T01:31	-1.9	1004	-2.9	40	1	10
2026-02-08T01:32	-1.9	1004	-2.9	30	1	11
2026-02-08T01:33	-1.9	1004	-2.9	40	1	11
2026-02-08T01:34	-1.9	1004	-2.9	50	1	12
2026-02-08T01:35	-1.9	1004	-2.9	60	1	13
2026-02-08T01:36	-1.8	1004	-2.8	50	1	15
2026-02-08T01:37	-1.8	1004	-2.8	50	1	17
2026-02-08T01:38	-1.7	1004	-2.5	50	1	16
2026-02-08T01:39	-1.8	1004	-2.6	40	1	16
2026-02-08T01:40	-1.8	1004	-2.8	40	1	17
2026-02-08T01:41	-1.8	1004	-2.8	40	2	20
2026-02-08T01:42	-1.8	1004	-2.8	40	2	20
2026-02-08T01:43	-1.7	1004	-2.7	40	2	23
2026-02-08T01:44	-1.7	1004	-2.5	30	2	22
2026-02-08T01:45	-1.7	1004	-2.7	30	2	20
2026-02-08T01:46	-1.6	1004	-2.6	30	2	22
2026-02-08T01:47	-1.6	1004	-2.6	30	2	21
2026-02-08T01:48	-1.5	1004	-2.5	30	2	22
2026-02-08T01:49	-1.6	1004	-2.6	30	2	25
2026-02-08T01:50	-1.5	1004	-2.5	40	2	25
2026-02-08T01:51	-1.6	1004	-2.6	40	2	25
2026-02-08T01:52	-1.6	1004	-2.6	40	2	26
2026-02-08T01:53	-1.6	1004	-2.6	40	2	28
2026-02-08T01:54	-1.6	1004	-2.6	40	2	31
2026-02-08T01:55	-1.6	1004	-2.6	40	2	40
2026-02-08T01:56	-1.6	1004	-2.6	30	2	40
2026-02-08T01:57	-1.5	1004	-2.5	30	2	40
2026-02-08T01:58	-1.6	1004	-2.6	30	2	43
2026-02-08T01:59	-1.6	1004	-2.6	30	2	42
2026-02-08T02:00	-1.6	1004	-2.6	30	2	46
2026-02-08T02:01	-1.6	1004	-2.7	20	2	47
2026-02-08T02:02	-1.6	1004	-2.7	20	2	55
2026-02-08T02:03	-1.6	1004	-2.7	20	2	55
2026-02-08T02:04	-1.6	1004	-2.7	20	1	55
2026-02-08T02:05	-1.6	1004	-2.7	20	2	55
2026-02-08T02:06	-1.5	1004	-2.6	20	2	40
2026-02-08T02:07	-1.5	1004	-2.5	20	2	38
2026-02-08T02:08	-1.5	1004	-2.5	10	2	30
2026-02-08T02:09	-1.6	1004	-2.6	20	2	30
2026-02-08T02:10	-1.5	1004	-2.5	20	2	30
2026-02-08T02:11	-1.5	1004	-2.5	20	2	30
2026-02-08T02:12	-1.5	1004	-2.5	20	2	30
2026-02-08T02:13	-1.5	1004	-2.5	20	2	30
2026-02-08T02:14	-1.5	1004	-2.5	20	2	29
2026-02-08T02:15	-1.3	1004	-2.3	30	2	30
2026-02-08T02:16	-1.2	1004	-2.0	30	2	40
2026-02-08T02:17	-1.5	1004	-2.5	20	2	41
2026-02-08T02:18	-1.5	1004	-2.6	20	2	55
2026-02-08T02:19	-1.4	1004	-2.5	20	2	55
2026-02-08T02:20	-1.5	1004	-2.5	10	2	55
2026-02-08T02:21	-1.5	1004	-2.5	20	2	55
2026-02-08T02:22	-1.4	1004	-2.4	20	1	55
2026-02-08T02:23	-1.4	1004	-2.4	20	1	55
2026-02-08T02:24	-1.5	1004	-2.5	10	1	55
2026-02-08T02:25	-1.4	1004	-2.4	10	1	55
2026-02-08T02:26	-1.4	1003	-2.4	360	1	55
2026-02-08T02:27	-1.5	1003	-2.5	360	1	55
2026-02-08T02:28	-1.4	1003	-2.5	360	1	55
2026-02-08T02:29	-1.4	1003	-2.4	360	1	48
2026-02-08T02:30	-1.3	1003	-2.3	360	1	34
2026-02-08T02:31	-1.5	1003	-2.5	360	1	33
2026-02-08T02:32	-1.4	1003	-2.4	360	1	32
2026-02-08T02:33	-1.5	1003	-2.5	360	1	32
2026-02-08T02:34	-1.5	1003	-2.6	360	1	32
2026-02-08T02:35	-1.5	1003	-2.5	10	1	30
2026-02-08T02:36	-1.5	1003	-2.5	10	1	27
2026-02-08T02:37	-1.6	1003	-2.6	20	1	27
2026-02-08T02:38	-1.6	1003	-2.6	30	1	27
2026-02-08T02:39	-1.6	1003	-2.4	30	1	28
2026-02-08T02:40	-1.5	1003	-2.3	30	1	36
2026-02-08T02:41	-1.6	1003	-2.4	40	1	39
2026-02-08T02:42	-1.5	1003	-2.5	50	1	42
2026-02-08T02:43	-1.5	1003	-2.5	40	1	45
2026-02-08T02:44	-1.5	1003	-2.5	50	1	46
2026-02-08T02:45	-1.4	1003	-2.4	40	1	42
2026-02-08T02:46	-1.4	1003	-2.4	40	1	55
2026-02-08T02:47	-1.4	1003	-2.2	40	1	43
2026-02-08T02:48	-1.6	1003	-2.7	40	1	39
2026-02-08T02:49	-1.6	1003	-2.9	40	1	40
2026-02-08T02:50	-1.6	1003	-2.9	40	1	36
2026-02-08T02:51	-1.6	1003	-2.7	40	1	36
2026-02-08T02:52	-1.6	1003	-2.7	40	1	33
2026-02-08T02:53	-1.5	1003	-2.5	40	1	32
2026-02-08T02:54	-1.5	1003	-2.5	40	1	28
2026-02-08T02:55	-1.5	1003	-2.3	50	1	30
2026-02-08T02:56	-1.5	1003	-2.3	50	1	27
2026-02-08T02:57	-1.5	1003	-2.3	40	1	26
2026-02-08T02:58	-1.6	1003	-2.6	30	1	28
2026-02-08T02:59	-1.6	1003	-2.6	20	1	27
2026-02-08T03:00	-1.5	1003	-2.5	10	1	27
2026-02-08T03:01	-1.5	1003	-2.5	10	1	28
2026-02-08T03:02	-1.5	1003	-2.5	10	1	28
2026-02-08T03:03	-1.4	1003	-2.4	10	1	29
2026-02-08T03:04	-1.3	1003	-2.3	360	1	35
2026-02-08T03:05	-1.5	1003	-2.3	360	1	34
2026-02-08T03:06	-1.5	1003	-2.5	10	1	41
2026-02-08T03:07	-1.4	1003	-2.4	10	1	38
2026-02-08T03:08	-1.4	1003	-2.4	20	1	37
2026-02-08T03:09	-1.5	1003	-2.5	20	1	32
2026-02-08T03:10	-1.5	1003	-2.5	20	1	27
2026-02-08T03:11	-1.4	1003	-2.4	20	1	25
2026-02-08T03:12	-1.5	1003	-2.5	20	1	22
2026-02-08T03:13	-1.4	1003	-2.5	20	1	20
2026-02-08T03:14	-1.3	1003	-2.4	30	1	19
2026-02-08T03:15	-1.2	1003	-2.2	30	1	18
2026-02-08T03:16	-1.3	1003	-2.3	30	1	18
2026-02-08T03:17	-1.3	1003	-2.3	40	2	19
2026-02-08T03:18	-1.3	1003	-2.3	40	2	19
2026-02-08T03:19	-1.4	1003	-2.4	30	2	20
2026-02-08T03:20	-1.3	1003	-2.3	30	2	23
2026-02-08T03:21	-1.4	1003	-2.4	30	1	24
2026-02-08T03:22	-1.3	1003	-2.3	30	1	21
2026-02-08T03:23	-1.3	1003	-2.3	30	1	21
2026-02-08T03:24	-1.3	1003	-2.3	30	1	20
2026-02-08T03:25	-1.4	1003	-2.4	40	1	20
2026-02-08T03:26	-1.3	1003	-2.3	30	1	19
2026-02-08T03:27	-1.2	1003	-2.2	30	1	20
2026-02-08T03:28	-1.2	1003	-2.0	30	1	20
2026-02-08T03:29	-1.3	1003	-2.3	40	1	20
2026-02-08T03:30	-1.4	1003	-2.4	30	1	19
2026-02-08T03:31	-1.4	1003	-2.5	40	2	18
2026-02-08T03:32	-1.4	1003	-2.4	40	2	20
2026-02-08T03:33	-1.4	1003	-2.4	30	2	20
2026-02-08T03:34	-1.5	1003	-2.5	30	2	22
2026-02-08T03:35	-1.5	1003	-2.5	30	2	25
2026-02-08T03:36	-1.5	1003	-2.5	30	2	27
2026-02-08T03:37	-1.6	1003	-2.6	30	2	28
2026-02-08T03:38	-1.5	1003	-2.5	30	2	25
2026-02-08T03:39	-1.4	1003	-2.4	30	2	22
2026-02-08T03:40	-1.3	1003	-2.3	40	2	20
2026-02-08T03:41	-1.5	1003	-2.5	40	2	18
2026-02-08T03:42	-1.5	1003	-2.5	40	2	17
2026-02-08T03:43	-1.5	1003	-2.5	40	2	16
2026-02-08T03:44	-1.5	1003	-2.5	30	2	14
2026-02-08T03:45	-1.5	1003	-2.5	30	2	13
2026-02-08T03:46	-1.5	1003	-2.5	30	2	12
2026-02-08T03:47	-1.5	1003	-2.5	30	2	12
2026-02-08T03:48	-1.6	1003	-2.6	30	1	12
2026-02-08T03:49	-1.5	1003	-2.5	40	1	12
2026-02-08T03:50	-1.5	1003	-2.5	40	1	12
2026-02-08T03:51	-1.5	1003	-2.5	40	1	12
2026-02-08T03:52	-1.5	1003	-2.5	30	1	13
2026-02-08T03:53	-1.5	1003	-2.5	20	1	13
2026-02-08T03:54	-1.5	1003	-2.5	20	1	12
2026-02-08T03:55	-1.5	1003	-2.5	10	1	11
2026-02-08T03:56	-1.5	1003	-2.5	10	1	10
2026-02-08T03:57	-1.5	1003	-2.3	360	1	10
2026-02-08T03:58	-1.5	1003	-2.3	350	1	10
2026-02-08T03:59	-1.4	1003	-2.2	350	1	10
2026-02-08T04:00	-1.5	1003	-2.2	340	1	10
2026-02-08T04:01	-1.5	1003	-2.3	340	1	10
2026-02-08T04:02	-1.5	1003	-2.3	340	1	10
2026-02-08T04:03	-1.4	1003	-2.2	340	1	10
2026-02-08T04:04	-1.4	1003	-2.2	330	1	11
2026-02-08T04:05	-1.3	1003	-2.1	330	1	12
2026-02-08T04:06	-1.4	1003	-2.2	320	1	14
2026-02-08T04:07	-1.2	1003	-2.0	320	0	16
2026-02-08T04:08	-1.3	1003	-2.1	310	0	19
2026-02-08T04:09	-1.4	1003	-2.2	0	0	23
2026-02-08T04:10	-1.2	1003	-2.0	0	0	25
2026-02-08T04:11	-1.2	1003	-2.0	0	0	31
2026-02-08T04:12	-1.2	1003	-2.0	0	0	40
2026-02-08T04:13	-1.1	1003	-1.9	0	0	56
2026-02-08T04:14	-1.0	1003	-1.7	0	0	56
2026-02-08T04:15	-1.1	1003	-1.8	0	0	57
2026-02-08T04:16	-1.2	1003	-2.0	300	0	57
2026-02-08T04:17	-1.2	1003	-2.0	300	1	57
2026-02-08T04:18	-1.2	1003	-2.0	300	1	57
2026-02-08T04:19	-1.3	1003	-2.1	300	1	58
2026-02-08T04:20	-1.2	1003	-2.0	310	1	60
2026-02-08T04:21	-1.3	1003	-2.1	320	1	57
2026-02-08T04:22	-1.4	1003	-2.2	330	1	57
2026-02-08T04:23	-1.3	1003	-2.1	340	1	56
2026-02-08T04:24	-1.3	1003	-2.0	340	1	56
2026-02-08T04:25	-1.3	1003	-2.0	350	1	45
2026-02-08T04:26	-1.3	1003	-2.0	360	1	46
2026-02-08T04:27	-1.3	1003	-2.0	360	1	39
2026-02-08T04:28	-1.3	1003	-2.0	360	1	36
2026-02-08T04:29	-1.3	1003	-2.1	10	1	29
2026-02-08T04:30	-1.2	1003	-2.0	10	1	25
2026-02-08T04:31	-1.3	1003	-2.1	10	1	24
2026-02-08T04:32	-1.2	1003	-2.0	10	1	21
2026-02-08T04:33	-1.2	1003	-2.0	360	1	19
2026-02-08T04:34	-1.1	1003	-1.8	10	1	17
2026-02-08T04:35	-1.3	1003	-2.0	10	1	18
2026-02-08T04:36	-1.3	1003	-2.1	20	1	17
2026-02-08T04:37	-1.3	1003	-2.1	20	1	16
2026-02-08T04:38	-1.3	1003	-2.3	20	1	14
2026-02-08T04:39	-1.3	1003	-2.1	20	1	15
2026-02-08T04:40	-1.3	1003	-2.1	20	1	14
2026-02-08T04:41	-1.3	1003	-2.1	20	1	14
2026-02-08T04:42	-1.2	1003	-2.0	20	1	14
2026-02-08T04:43	-1.3	1003	-2.1	10	1	14
2026-02-08T04:44	-1.2	1003	-2.0	360	1	15
2026-02-08T04:45	-1.3	1003	-2.1	350	1	14
2026-02-08T04:46	-1.3	1003	-2.3	350	1	15
2026-02-08T04:47	-1.2	1003	-2.0	350	1	16
2026-02-08T04:48	-1.2	1003	-2.0	340	1	17
2026-02-08T04:49	-1.3	1003	-2.3	340	1	16
2026-02-08T04:50	-1.4	1003	-2.4	340	1	17
2026-02-08T04:51	-1.3	1003	-2.4	340	2	17
2026-02-08T04:52	-1.3	1003	-2.4	340	2	16
2026-02-08T04:53	-1.3	1003	-2.3	340	2	16
2026-02-08T04:54	-1.3	1003	-2.3	340	2	17
2026-02-08T04:55	-1.4	1003	-2.5	340	2	18
2026-02-08T04:56	-1.3	1003	-2.4	350	1	19
2026-02-08T04:57	-1.3	1003	-2.4	350	1	19
2026-02-08T04:58	-1.3	1003	-2.3	360	1	21
2026-02-08T04:59	-1.3	1003	-2.4	10	1	24
2026-02-08T05:00	-1.4	1003	-2.5	20	1	29
2026-02-08T05:01	-1.3	1003	-2.4	30	1	38
2026-02-08T05:02	-1.2	1003	-2.5	50	1	55
2026-02-08T05:03	-1.2	1002	-2.5	70	1	57
2026-02-08T05:04	-1.1	1002	-2.2	80	1	57
2026-02-08T05:05	-1.1	1002	-2.4	90	1	57
2026-02-08T05:06	-1.1	1002	-2.4	100	1	58
2026-02-08T05:07	-1.1	1002	-2.4	110	1	58
2026-02-08T05:08	-1.0	1002	-2.1	110	1	59
2026-02-08T05:09	-1.0	1002	-2.3	110	1	61
2026-02-08T05:10	-1.0	1002	-2.1	100	1	61
2026-02-08T05:11	-1.0	1002	-2.1	100	1	61
2026-02-08T05:12	-0.9	1002	-2.0	110	1	62
2026-02-08T05:13	-1.0	1002	-2.4	110	1	64
2026-02-08T05:14	-1.1	1002	-2.8	110	1	66
2026-02-08T05:15	-1.0	1002	-2.9	110	1	68
2026-02-08T05:16	-1.0	1002	-3.0	110	1	70
2026-02-08T05:17	-1.0	1002	-3.0	110	1	70
2026-02-08T05:18	-1.0	1002	-3.0	110	1	70
2026-02-08T05:19	-1.0	1002	-3.2	110	1	70
2026-02-08T05:20	-1.0	1002	-3.0	120	1	70
2026-02-08T05:21	-1.1	1002	-3.3	110	1	70
2026-02-08T05:22	-1.0	1002	-3.2	110	1	70
2026-02-08T05:23	-1.0	1002	-3.0	110	1	70
2026-02-08T05:24	-0.9	1002	-2.9	120	1	70
2026-02-08T05:25	-1.0	1002	-3.0	120	1	70
2026-02-08T05:26	-0.9	1002	-2.9	120	1	70
2026-02-08T05:27	-1.0	1002	-3.2	120	1	70
2026-02-08T05:28	-0.9	1002	-3.1	120	1	70
2026-02-08T05:29	-0.9	1002	-3.1	120	1	70
2026-02-08T05:30	-0.9	1002	-3.2	120	1	70
2026-02-08T05:31	-0.9	1002	-3.2	120	1	70
2026-02-08T05:32	-0.9	1002	-3.2	120	0	70
2026-02-08T05:33	-0.7	1002	-3.1	120	0	70
2026-02-08T05:34	-0.6	1002	-3.0	110	0	70
2026-02-08T05:35	-0.8	1002	-3.3	110	0	70
2026-02-08T05:36	-0.8	1002	-3.3	0	0	70
2026-02-08T05:37	-0.5	1002	-2.9	0	0	70
2026-02-08T05:38	-0.4	1002	-2.8	0	0	70
2026-02-08T05:39	-0.3	1002	-2.5	0	0	70
2026-02-08T05:40	-0.4	1002	-2.8	80	0	70
2026-02-08T05:41	-0.4	1002	-2.9	60	1	70
2026-02-08T05:42	-0.4	1002	-3.1	30	1	70
2026-02-08T05:43	-0.5	1002	-3.2	10	1	70
2026-02-08T05:44	-0.5	1002	-3.3	350	1	70
2026-02-08T05:45	-0.5	1002	-3.2	340	1	70
2026-02-08T05:46	-0.5	1002	-3.2	330	2	70
2026-02-08T05:47	-0.5	1002	-3.2	330	2	70
2026-02-08T05:48	-0.5	1002	-3.0	330	2	70
2026-02-08T05:49	-0.4	1002	-2.9	340	2	70
2026-02-08T05:50	-0.4	1002	-2.8	340	2	70
2026-02-08T05:51	-0.4	1002	-2.6	340	2	70
2026-02-08T05:52	-0.5	1002	-2.7	350	2	70
2026-02-08T05:53	-0.4	1002	-2.6	350	2	70
2026-02-08T05:54	-0.5	1002	-2.7	350	2	70
2026-02-08T05:55	-0.5	1002	-2.5	350	2	70
2026-02-08T05:56	-0.6	1002	-2.6	350	2	70
2026-02-08T05:57	-0.6	1002	-3.0	350	2	70
2026-02-08T05:58	-0.5	1002	-2.7	350	2	70
2026-02-08T05:59	-0.5	1002	-2.5	350	2	70
2026-02-08T06:00	-0.5	1002	-2.9	350	2	70
2026-02-08T06:01	-0.5	1002	-2.9	350	2	70
2026-02-08T06:02	-0.6	1002	-2.8	360	2	70
2026-02-08T06:03	-0.6	1002	-2.8	360	2	70
2026-02-08T06:04	-0.6	1002	-2.6	10	2	70
2026-02-08T06:05	-0.5	1002	-2.5	10	2	70
2026-02-08T06:06	-0.6	1002	-2.6	20	2	70
2026-02-08T06:07	-0.6	1002	-2.6	20	2	70
2026-02-08T06:08	-0.7	1002	-2.9	20	2	70
2026-02-08T06:09	-0.6	1002	-2.8	30	2	70
2026-02-08T06:10	-0.6	1002	-2.8	30	2	70
2026-02-08T06:11	-0.6	1002	-2.8	30	2	70
2026-02-08T06:12	-0.6	1002	-2.8	30	2	70
2026-02-08T06:13	-0.6	1002	-3.0	20	2	70
2026-02-08T06:14	-0.5	1002	-2.7	20	2	70
2026-02-08T06:15	-0.5	1002	-2.9	10	2	70
2026-02-08T06:16	-0.5	1002	-2.7	10	2	70
2026-02-08T06:17	-0.6	1002	-3.0	20	2	70
2026-02-08T06:18	-0.7	1002	-3.2	20	2	70
2026-02-08T06:19	-0.6	1002	-3.1	20	2	70
2026-02-08T06:20	-0.6	1002	-3.0	20	2	70
2026-02-08T06:21	-0.5	1002	-2.9	20	2	70
2026-02-08T06:22	-0.5	1002	-2.7	20	1	70
2026-02-08T06:23	-0.4	1002	-2.6	30	1	70
2026-02-08T06:24	-0.4	1002	-2.4	30	1	70
2026-02-08T06:25	-0.4	1002	-2.4	30	1	70
2026-02-08T06:26	-0.5	1002	-2.7	30	1	70
2026-02-08T06:27	-0.4	1002	-2.6	20	1	70
2026-02-08T06:28	-0.5	1002	-2.9	20	1	70
2026-02-08T06:29	-0.5	1002	-2.9	20	1	70
2026-02-08T06:30	-0.5	1002	-3.0	20	1	70
2026-02-08T06:31	-0.4	1003	-2.8	10	1	70
2026-02-08T06:32	-0.4	1003	-2.8	10	2	70
2026-02-08T06:33	-0.4	1003	-2.8	360	2	70
2026-02-08T06:34	-0.5	1003	-3.2	360	2	70
2026-02-08T06:35	-0.4	1003	-3.1	360	2	70
2026-02-08T06:36	-0.4	1003	-3.1	360	2	70
2026-02-08T06:37	-0.4	1003	-3.2	360	2	70
2026-02-08T06:38	-0.3	1003	-3.1	360	2	70
2026-02-08T06:39	-0.3	1003	-3.1	360	2	70
2026-02-08T06:40	-0.3	1003	-3.1	360	2	70
2026-02-08T06:41	-0.3	1003	-3.0	10	1	70
2026-02-08T06:42	-0.3	1003	-2.8	10	1	70
2026-02-08T06:43	-0.4	1003	-2.9	20	1	70
2026-02-08T06:44	-0.5	1003	-3.0	20	1	70
2026-02-08T06:45	-0.5	1003	-3.5	10	1	70
2026-02-08T06:46	-0.4	1003	-3.6	10	1	70
2026-02-08T06:47	-0.4	1003	-3.1	10	1	70
2026-02-08T06:48	-0.5	1003	-3.2	10	1	70
2026-02-08T06:49	-0.5	1003	-3.2	10	1	70
2026-02-08T06:50	-0.6	1003	-3.3	360	1	70
2026-02-08T06:51	-0.6	1003	-3.1	360	1	70
2026-02-08T06:52	-0.6	1003	-3.0	350	1	70
2026-02-08T06:53	-0.5	1003	-2.7	340	1	70
2026-02-08T06:54	-0.5	1003	-2.7	340	1	70
2026-02-08T06:55	-0.7	1003	-2.9	350	1	70
2026-02-08T06:56	-0.7	1003	-2.7	350	1	70
2026-02-08T06:57	-0.6	1003	-2.6	350	1	70
2026-02-08T06:58	-0.7	1003	-2.6	340	1	70
2026-02-08T06:59	-0.7	1003	-2.4	340	1	70
2026-02-08T07:00	-0.7	1003	-2.4	340	1	70
2026-02-08T07:01	-0.7	1003	-2.4	340	1	70
2026-02-08T07:02	-0.6	1003	-2.5	340	1	70
2026-02-08T07:03	-0.6	1003	-2.5	340	1	70
2026-02-08T07:04	-0.6	1003	-2.5	340	1	70
2026-02-08T07:05	-0.7	1003	-2.6	340	1	70
2026-02-08T07:06	-0.6	1003	-2.5	340	1	70
2026-02-08T07:07	-0.6	1003	-2.3	340	1	70
2026-02-08T07:08	-0.6	1003	-2.3	340	1	70
2026-02-08T07:09	-0.6	1003	-2.3	340	1	70
2026-02-08T07:10	-0.6	1003	-2.3	340	1	70
2026-02-08T07:11	-0.5	1003	-2.4	330	1	70
2026-02-08T07:12	-0.6	1003	-2.6	330	1	70
2026-02-08T07:13	-0.7	1003	-2.7	320	1	70
2026-02-08T07:14	-0.6	1003	-2.6	310	1	70
2026-02-08T07:15	-0.6	1003	-2.6	310	1	70
2026-02-08T07:16	-0.5	1003	-2.7	300	1	70
2026-02-08T07:17	-0.6	1003	-2.6	300	1	70
2026-02-08T07:18	-0.6	1003	-2.6	290	1	70
2026-02-08T07:19	-0.6	1003	-2.6	290	1	70
2026-02-08T07:20	-0.7	1003	-2.9	290	1	70
2026-02-08T07:21	-0.8	1003	-2.8	290	1	70
2026-02-08T07:22	-0.9	1003	-2.6	300	1	70
2026-02-08T07:23	-0.9	1003	-2.2	300	1	70
2026-02-08T07:24	-1.0	1003	-2.3	300	1	70
2026-02-08T07:25	-0.8	1003	-2.2	300	1	70
2026-02-08T07:26	-0.7	1003	-2.4	300	1	70
2026-02-08T07:27	-0.8	1003	-2.8	300	2	70
2026-02-08T07:28	-0.8	1003	-2.8	300	2	70
2026-02-08T07:29	-0.8	1003	-2.8	300	2	70
2026-02-08T07:30	-0.9	1003	-2.9	300	2	70
2026-02-08T07:31	-0.8	1003	-3.0	300	2	70
2026-02-08T07:32	-0.8	1003	-3.0	290	1	70
2026-02-08T07:33	-0.7	1003	-2.9	290	1	70
2026-02-08T07:34	-0.8	1003	-2.7	290	1	70
2026-02-08T07:35	-0.9	1003	-2.8	290	1	70
2026-02-08T07:36	-0.9	1003	-2.9	290	1	70
2026-02-08T07:37	-0.9	1003	-3.1	290	1	70
2026-02-08T07:38	-1.0	1003	-3.0	290	1	70
2026-02-08T07:39	-1.0	1003	-3.0	290	1	70
2026-02-08T07:40	-1.1	1003	-3.1	290	1	70
2026-02-08T07:41	-1.0	1003	-3.0	300	1	70
2026-02-08T07:42	-1.0	1003	-3.0	300	1	70
2026-02-08T07:43	-1.1	1003	-3.0	300	1	70
2026-02-08T07:44	-1.2	1003	-2.8	300	1	70
2026-02-08T07:45	-1.2	1003	-2.8	300	1	69
2026-02-08T07:46	-1.2	1003	-2.8	300	1	69
2026-02-08T07:47	-1.3	1003	-2.7	290	1	69
2026-02-08T07:48	-1.3	1003	-2.7	300	1	69
2026-02-08T07:49	-1.1	1003	-2.5	300	1	69
2026-02-08T07:50	-1.1	1003	-2.7	290	1	69
2026-02-08T07:51	-1.2	1003	-2.8	290	1	69
2026-02-08T07:52	-1.3	1003	-2.7	300	1	69
2026-02-08T07:53	-1.2	1003	-2.6	290	1	69
2026-02-08T07:54	-1.2	1003	-2.8	300	1	70
2026-02-08T07:55	-1.3	1003	-2.9	300	1	70
2026-02-08T07:56	-1.2	1003	-2.9	300	1	70
2026-02-08T07:57	-1.3	1003	-3.0	300	1	70
2026-02-08T07:58	-1.3	1003	-3.0	310	1	70
2026-02-08T07:59	-1.3	1003	-2.9	310	1	70
2026-02-08T08:00	-1.4	1003	-2.8	300	1	70
2026-02-08T08:01	-1.4	1003	-2.8	300	1	70
2026-02-08T08:02	-1.3	1004	-2.7	300	1	70
2026-02-08T08:03	-1.3	1004	-2.7	300	1	70
2026-02-08T08:04	-1.4	1004	-3.0	290	1	70
2026-02-08T08:05	-1.5	1004	-3.1	290	1	70
2026-02-08T08:06	-1.5	1004	-2.9	280	1	70
2026-02-08T08:07	-1.5	1004	-2.9	280	1	70
2026-02-08T08:08	-1.6	1004	-2.9	280	1	70
2026-02-08T08:09	-1.4	1004	-2.7	270	1	70
2026-02-08T08:10	-1.3	1004	-2.7	270	1	70
2026-02-08T08:11	-1.6	1004	-3.0	270	1	70
2026-02-08T08:12	-1.7	1004	-3.0	260	1	70
2026-02-08T08:13	-1.7	1004	-2.8	260	1	70
2026-02-08T08:14	-1.9	1004	-2.9	260	1	69
2026-02-08T08:15	-1.8	1004	-2.8	250	1	69
2026-02-08T08:16	-1.8	1004	-2.6	250	2	69
2026-02-08T08:17	-1.9	1004	-2.7	250	2	68
2026-02-08T08:18	-2.0	1004	-2.8	250	2	68
2026-02-08T08:19	-2.1	1004	-3.1	250	2	67
2026-02-08T08:20	-2.1	1004	-3.1	250	2	67
2026-02-08T08:21	-2.2	1004	-3.2	250	2	67
2026-02-08T08:22	-2.1	1004	-3.1	250	2	67
2026-02-08T08:23	-2.1	1004	-2.9	250	2	68
2026-02-08T08:24	-2.1	1004	-3.1	250	2	68
2026-02-08T08:25	-2.3	1004	-3.3	250	2	68
2026-02-08T08:26	-2.3	1004	-3.3	250	2	68
2026-02-08T08:27	-2.4	1004	-3.4	250	2	69
2026-02-08T08:28	-2.4	1004	-3.4	250	2	68
2026-02-08T08:29	-2.4	1004	-3.2	250	2	68
2026-02-08T08:30	-2.5	1004	-3.3	250	1	69
2026-02-08T08:31	-2.5	1004	-3.3	250	1	69
2026-02-08T08:32	-2.6	1004	-3.4	260	1	69
2026-02-08T08:33	-2.6	1004	-3.4	260	1	70
2026-02-08T08:34	-2.7	1004	-3.5	260	1	70
2026-02-08T08:35	-2.7	1004	-3.5	260	1	70
2026-02-08T08:36	-2.7	1004	-3.4	260	1	69
2026-02-08T08:37	-2.7	1004	-3.4	260	1	67
2026-02-08T08:38	-2.8	1004	-3.3	260	1	67
2026-02-08T08:39	-2.7	1004	-3.2	260	1	66
2026-02-08T08:40	-2.7	1004	-3.2	260	1	66
2026-02-08T08:41	-2.7	1004	-3.2	260	1	66
2026-02-08T08:42	-2.9	1004	-3.4	260	1	65
2026-02-08T08:43	-3.0	1004	-3.5	260	1	64
2026-02-08T08:44	-2.9	1004	-3.4	260	1	63
2026-02-08T08:45	-3.0	1004	-3.5	260	1	63
2026-02-08T08:46	-2.9	1004	-3.3	260	1	63
2026-02-08T08:47	-2.9	1004	-3.3	260	1	63
2026-02-08T08:48	-2.9	1004	-3.3	260	1	63
2026-02-08T08:49	-2.9	1004	-3.3	260	1	63
2026-02-08T08:50	-3.1	1004	-3.5	260	1	63
2026-02-08T08:51	-3.0	1004	-3.4	260	1	63
2026-02-08T08:52	-2.9	1004	-3.2	260	1	63
2026-02-08T08:53	-3.0	1004	-3.3	260	1	64
2026-02-08T08:54	-3.1	1004	-3.5	260	1	64
2026-02-08T08:55	-2.9	1004	-3.3	270	1	65
2026-02-08T08:56	-3.0	1004	-3.4	270	1	66
2026-02-08T08:57	-3.0	1004	-3.4	260	1	66
2026-02-08T08:58	-3.0	1004	-3.4	260	1	67
2026-02-08T08:59	-2.9	1004	-3.3	260	1	68
2026-02-08T09:00	-3.2	1004	-3.6	260	1	69
2026-02-08T09:01	-3.0	1004	-3.4	260	1	69
2026-02-08T09:02	-2.9	1004	-3.3	260	1	70
2026-02-08T09:03	-2.8	1004	-3.2	250	1	70
2026-02-08T09:04	-2.8	1004	-3.3	250	1	70
2026-02-08T09:05	-3.1	1004	-3.6	240	1	70
2026-02-08T09:06	-3.3	1004	-4.0	240	1	70
2026-02-08T09:07	-3.1	1004	-3.8	240	1	70
2026-02-08T09:08	-3.0	1004	-3.5	230	1	70
2026-02-08T09:09	-3.5	1004	-4.2	230	1	70
2026-02-08T09:10	-3.3	1004	-4.0	240	1	70
2026-02-08T09:11	-3.2	1004	-3.7	240	1	70
2026-02-08T09:12	-3.2	1004	-3.7	250	0	70
2026-02-08T09:13	-3.1	1004	-3.6	250	0	70
2026-02-08T09:14	-3.2	1004	-3.7	260	0	70
2026-02-08T09:15	-3.2	1004	-3.6	0	0	69
2026-02-08T09:16	-3.2	1004	-3.6	0	0	69
2026-02-08T09:17	-3.1	1004	-3.5	0	0	68
2026-02-08T09:18	-3.2	1004	-3.6	0	0	68
2026-02-08T09:19	-3.1	1004	-3.5	0	0	68
2026-02-08T09:20	-3.1	1004	-3.5	0	0	67
2026-02-08T09:21	-3.2	1004	-3.6	0	0	66
2026-02-08T09:22	-3.2	1004	-3.6	0	0	65
2026-02-08T09:23	-3.1	1004	-3.5	0	0	65
2026-02-08T09:24	-3.1	1004	-3.4	0	0	65
2026-02-08T09:25	-3.5	1004	-3.9	0	0	65
2026-02-08T09:26	-3.4	1004	-3.8	0	0	64
2026-02-08T09:27	-3.2	1004	-3.5	0	0	64
2026-02-08T09:28	-3.3	1004	-3.6	0	0	64
2026-02-08T09:29	-3.3	1004	-3.6	0	0	63
2026-02-08T09:30	-3.3	1004	-3.6	0	0	63
2026-02-08T09:31	-3.3	1004	-3.6	0	0	64
2026-02-08T09:32	-3.3	1004	-3.6	0	0	64
2026-02-08T09:33	-3.3	1004	-3.6	0	0	64
2026-02-08T09:34	-3.3	1004	-3.6	0	0	64
2026-02-08T09:35	-3.3	1004	-3.6	0	0	65
2026-02-08T09:36	-3.3	1004	-3.6	0	0	65
2026-02-08T09:37	-3.2	1004	-3.5	0	0	64
2026-02-08T09:38	-3.1	1004	-3.4	0	0	64
2026-02-08T09:39	-3.2	1004	-3.5	0	0	65
2026-02-08T09:40	-3.2	1004	-3.5	0	0	65
2026-02-08T09:41	-3.2	1004	-3.5	0	0	64
2026-02-08T09:42	-3.2	1004	-3.5	0	0	64
2026-02-08T09:43	-3.2	1004	-3.5	0	0	64
2026-02-08T09:44	-3.2	1004	-3.5	0	0	64
2026-02-08T09:45	-3.2	1004	-3.5	0	0	63
2026-02-08T09:46	-3.2	1004	-3.5	0	0	63
2026-02-08T09:47	-3.2	1004	-3.5	0	0	63
2026-02-08T09:48	-3.2	1004	-3.5	0	0	62
2026-02-08T09:49	-3.2	1004	-3.5	0	0	63
2026-02-08T09:50	-3.2	1004	-3.5	0	0	63
2026-02-08T09:51	-3.3	1004	-3.6	0	0	63
2026-02-08T09:52	-3.4	1004	-3.7	0	0	63
2026-02-08T09:53	-3.3	1004	-3.6	0	0	63
2026-02-08T09:54	-3.3	1004	-3.6	210	0	62
2026-02-08T09:55	-3.4	1004	-3.5	300	0	62
2026-02-08T09:56	-3.5	1004	-3.8	250	0	62
2026-02-08T09:57	-3.4	1004	-3.7	230	1	62
2026-02-08T09:58	-3.5	1004	-3.6	230	1	62
2026-02-08T09:59	-3.6	1004	-3.7	230	1	61
2026-02-08T10:00	-3.6	1004	-3.7	230	1	61
2026-02-08T10:01	-3.6	1004	-3.7	240	1	60
2026-02-08T10:02	-3.5	1004	-3.6	240	1	60
2026-02-08T10:03	-3.4	1004	-3.5	250	1	60
2026-02-08T10:04	-3.4	1004	-3.5	250	1	60
2026-02-08T10:05	-3.4	1004	-3.5	250	1	60
2026-02-08T10:06	-3.3	1004	-3.4	260	1	60
2026-02-08T10:07	-3.2	1004	-3.3	260	0	60
2026-02-08T10:08	-3.2	1004	-3.3	260	0	60
2026-02-08T10:09	-3.2	1004	-3.3	260	0	60
2026-02-08T10:10	-3.3	1004	-3.4	0	0	61
2026-02-08T10:11	-3.2	1004	-3.3	0	0	61
2026-02-08T10:12	-3.1	1004	-3.2	0	0	62
2026-02-08T10:13	-3.2	1004	-3.3	0	0	62
2026-02-08T10:14	-3.3	1004	-3.4	0	0	62
2026-02-08T10:15	-3.4	1004	-3.5	0	0	62
2026-02-08T10:16	-3.3	1005	-3.4	0	0	62
2026-02-08T10:17	-3.2	1005	-3.3	0	0	62
2026-02-08T10:18	-3.1	1005	-3.2	0	0	62
2026-02-08T10:19	-3.1	1005	-3.2	0	0	63
2026-02-08T10:20	-3.3	1005	-3.4	0	0	63
2026-02-08T10:21	-3.2	1005	-3.3	0	0	62
2026-02-08T10:22	-3.1	1005	-3.2	0	0	62
2026-02-08T10:23	-3.1	1005	-3.2	0	0	62
2026-02-08T10:24	-3.1	1005	-3.2	0	0	61
2026-02-08T10:25	-3.2	1005	-3.3	0	0	61
2026-02-08T10:26	-3.2	1005	-3.3	0	0	62
2026-02-08T10:27	-3.5	1005	-3.6	0	0	62
2026-02-08T10:28	-3.4	1005	-3.5	0	0	61
2026-02-08T10:29	-3.4	1005	-3.5	0	0	60
2026-02-08T10:30	-3.6	1005	-3.7	0	0	59
2026-02-08T10:31	-3.6	1005	-3.7	290	0	59
2026-02-08T10:32	-3.5	1005	-3.6	280	0	59
2026-02-08T10:33	-3.4	1005	-3.5	270	1	59
2026-02-08T10:34	-3.4	1005	-3.5	260	1	59
2026-02-08T10:35	-3.4	1005	-3.5	260	1	59
2026-02-08T10:36	-3.5	1005	-3.6	250	1	59
2026-02-08T10:37	-3.5	1005	-3.6	250	1	59
2026-02-08T10:38	-3.6	1005	-3.7	240	1	59
2026-02-08T10:39	-3.5	1005	-3.6	240	1	59
2026-02-08T10:40	-3.4	1005	-3.5	240	1	59
2026-02-08T10:41	-3.5	1005	-3.6	240	1	60
2026-02-08T10:42	-3.5	1005	-3.6	240	1	60
2026-02-08T10:43	-3.4	1005	-3.5	240	1	60
2026-02-08T10:44	-3.4	1005	-3.5	240	1	60
2026-02-08T10:45	-3.7	1005	-3.8	240	1	60
2026-02-08T10:46	-3.5	1005	-3.6	240	1	61
2026-02-08T10:47	-3.6	1005	-3.7	250	1	61
2026-02-08T10:48	-3.6	1005	-3.7	250	1	61
2026-02-08T10:49	-3.5	1005	-3.6	250	1	62
2026-02-08T10:50	-3.6	1005	-3.7	250	1	62
2026-02-08T10:51	-3.6	1005	-3.7	250	1	62
2026-02-08T10:52	-3.5	1005	-3.6	250	1	62
2026-02-08T10:53	-3.4	1005	-3.5	260	1	63
2026-02-08T10:54	-3.6	1005	-3.7	260	1	64
2026-02-08T10:55	-3.4	1005	-3.7	260	1	65
2026-02-08T10:56	-3.3	1005	-3.6	260	1	66
2026-02-08T10:57	-3.4	1005	-3.7	270	1	66
2026-02-08T10:58	-3.2	1005	-3.6	270	1	68
2026-02-08T10:59	-3.0	1005	-3.5	270	1	69
2026-02-08T11:00	-3.2	1005	-4.0	280	1	70
2026-02-08T11:01	-3.0	1005	-3.8	280	1	70
2026-02-08T11:02	-2.8	1005	-3.8	280	1	70
2026-02-08T11:03	-3.2	1005	-4.4	280	1	70
2026-02-08T11:04	-2.9	1006	-4.3	280	1	70
2026-02-08T11:05	-2.8	1006	-4.5	280	1	70
2026-02-08T11:06	-2.9	1006	-4.7	280	1	70
2026-02-08T11:07	-2.9	1006	-4.6	280	1	70
2026-02-08T11:08	-2.9	1006	-4.7	280	2	70
2026-02-08T11:09	-2.7	1006	-4.7	280	2	70
2026-02-08T11:10	-2.9	1006	-4.9	280	2	70
2026-02-08T11:11	-2.9	1006	-5.0	280	2	70
2026-02-08T11:12	-3.0	1006	-5.1	280	2	70
2026-02-08T11:13	-2.9	1006	-5.4	280	2	70
2026-02-08T11:14	-2.9	1006	-5.4	280	2	70
2026-02-08T11:15	-2.9	1006	-5.5	280	2	70
2026-02-08T11:16	-2.8	1006	-5.6	280	2	70
2026-02-08T11:17	-2.9	1006	-5.8	280	2	70
2026-02-08T11:18	-3.0	1006	-5.8	280	2	70
2026-02-08T11:19	-3.2	1006	-6.1	280	2	70
2026-02-08T11:20	-2.8	1006	-6.1	280	2	70
2026-02-08T11:21	-2.8	1006	-6.3	280	2	70
2026-02-08T11:22	-3.3	1006	-6.6	280	2	70
2026-02-08T11:23	-3.4	1006	-6.3	280	2	70
2026-02-08T11:24	-3.3	1006	-6.1	280	2	70
2026-02-08T11:25	-3.0	1006	-5.9	280	2	70
2026-02-08T11:26	-3.1	1006	-6.2	280	2	70
2026-02-08T11:27	-3.0	1006	-6.3	280	2	70
2026-02-08T11:28	-3.1	1006	-6.5	280	2	70
2026-02-08T11:29	-2.8	1006	-6.4	280	2	70
2026-02-08T11:30	-2.5	1006	-6.5	280	2	70
2026-02-08T11:31	-2.5	1006	-6.8	280	2	70
2026-02-08T11:32	-2.9	1006	-7.0	280	2	70
2026-02-08T11:33	-2.6	1006	-6.9	270	3	70
2026-02-08T11:34	-2.7	1006	-7.2	270	3	70
2026-02-08T11:35	-2.6	1006	-7.3	270	3	70
2026-02-08T11:36	-2.8	1006	-7.3	280	3	70
2026-02-08T11:37	-2.6	1006	-7.3	280	3	70
2026-02-08T11:38	-2.6	1006	-7.3	280	3	70
2026-02-08T11:39	-2.5	1006	-7.4	280	3	70
2026-02-08T11:40	-2.5	1006	-7.4	280	3	70
2026-02-08T11:41	-2.4	1006	-7.7	280	3	70
2026-02-08T11:42	-2.5	1006	-7.6	280	4	70
2026-02-08T11:43	-2.5	1006	-7.6	280	4	70
2026-02-08T11:44	-2.4	1006	-7.7	280	4	70
2026-02-08T11:45	-2.5	1006	-8.0	280	4	70
2026-02-08T11:46	-2.6	1006	-7.9	280	4	70
2026-02-08T11:47	-2.6	1006	-7.9	280	4	70
2026-02-08T11:48	-2.6	1007	-7.7	280	4	70
2026-02-08T11:49	-2.6	1007	-7.7	280	4	70
2026-02-08T11:50	-2.7	1007	-8.0	280	4	70
2026-02-08T11:51	-2.8	1007	-7.9	280	4	70
2026-02-08T11:52	-3.0	1007	-7.7	280	4	70
2026-02-08T11:53	-2.7	1007	-7.4	280	4	70
2026-02-08T11:54	-2.5	1007	-8.0	280	4	70
2026-02-08T11:55	-2.5	1007	-8.2	280	4	70
2026-02-08T11:56	-2.7	1007	-8.2	280	4	67
2026-02-08T11:57	-3.3	1007	-8.2	280	4	67
2026-02-08T11:58	-2.8	1007	-7.9	280	4	66
2026-02-08T11:59	-2.7	1007	-8.0	280	4	66
2026-02-08T12:00	-2.7	1007	-8.4	280	4	66
2026-02-08T12:01	-2.8	1007	-8.3	280	3	66
2026-02-08T12:02	-2.9	1007	-8.2	280	3	67
2026-02-08T12:03	-2.7	1007	-8.2	280	4	70
2026-02-08T12:04	-2.7	1007	-8.2	280	3	70
2026-02-08T12:05	-3.1	1007	-8.2	280	3	70
2026-02-08T12:06	-3.1	1007	-8.2	290	3	70
2026-02-08T12:07	-3.1	1007	-8.2	290	3	70
2026-02-08T12:08	-3.3	1007	-8.2	300	3	70
2026-02-08T12:09	-3.1	1007	-8.2	300	3	70
2026-02-08T12:10	-3.2	1007	-8.1	300	3	70
2026-02-08T12:11	-2.9	1007	-8.0	300	3	70
2026-02-08T12:12	-3.0	1007	-8.3	310	3	70
2026-02-08T12:13	-3.1	1007	-8.4	310	3	70
2026-02-08T12:14	-3.0	1007	-8.3	310	3	70
2026-02-08T12:15	-3.1	1007	-8.2	310	3	70
2026-02-08T12:16	-2.9	1007	-8.0	310	2	70
2026-02-08T12:17	-3.0	1007	-8.1	310	2	70
2026-02-08T12:18	-3.1	1007	-8.0	310	2	70
2026-02-08T12:19	-3.0	1007	-8.1	310	2	70
2026-02-08T12:20	-3.4	1007	-7.7	310	2	70
2026-02-08T12:21	-3.1	1007	-7.6	310	2	70
2026-02-08T12:22	-3.0	1007	-8.1	310	2	70
2026-02-08T12:23	-3.0	1007	-8.4	310	2	70
2026-02-08T12:24	-2.9	1007	-8.4	310	2	70
2026-02-08T12:25	-3.0	1007	-8.4	310	2	70
2026-02-08T12:26	-3.1	1007	-8.4	310	2	70
2026-02-08T12:27	-2.8	1007	-8.5	300	2	70
2026-02-08T12:28	-2.9	1007	-8.5	300	2	70
2026-02-08T12:29	-2.9	1007	-8.5	300	2	70
2026-02-08T12:30	-3.3	1007	-8.7	300	2	70
2026-02-08T12:31	-3.3	1007	-8.4	300	2	70
2026-02-08T12:32	-3.2	1007	-8.6	300	2	70
2026-02-08T12:33	-3.4	1007	-8.6	300	2	70
2026-02-08T12:34	-3.1	1007	-8.4	300	2	70
2026-02-08T12:35	-3.2	1007	-8.4	300	2	70
2026-02-08T12:36	-3.6	1007	-8.6	300	2	70
2026-02-08T12:37	-3.5	1007	-8.5	300	2	70
2026-02-08T12:38	-3.5	1008	-8.5	300	2	70
2026-02-08T12:39	-3.4	1007	-8.4	300	2	70
2026-02-08T12:40	-3.3	1007	-8.5	300	2	70
2026-02-08T12:41	-3.3	1008	-8.5	300	2	70
2026-02-08T12:42	-3.0	1008	-8.6	300	2	70
2026-02-08T12:43	-2.9	1008	-8.9	300	2	70
2026-02-08T12:44	-2.9	1008	-8.9	290	2	70
2026-02-08T12:45	-3.0	1008	-9.0	290	2	70
2026-02-08T12:46	-3.5	1008	-8.9	300	2	70
2026-02-08T12:47	-3.3	1008	-8.7	300	2	70
2026-02-08T12:48	-3.3	1008	-8.7	300	2	70
2026-02-08T12:49	-3.3	1008	-8.9	300	2	70
2026-02-08T12:50	-3.3	1008	-8.9	300	2	70
2026-02-08T12:51	-3.3	1008	-8.9	300	2	70
2026-02-08T12:52	-3.1	1008	-8.9	310	2	70
2026-02-08T12:53	-3.2	1008	-9.2	310	2	70
2026-02-08T12:54	-3.6	1008	-9.6	310	2	70
2026-02-08T12:55	-4.0	1008	-9.0	310	2	70
2026-02-08T12:56	-3.5	1008	-8.5	310	2	70
2026-02-08T12:57	-3.2	1008	-8.8	320	2	70
2026-02-08T12:58	-3.4	1008	-9.0	320	2	70
2026-02-08T12:59	-4.0	1008	-8.8	320	2	70
2026-02-08T13:00	-3.6	1008	-8.6	330	2	70
2026-02-08T13:01	-3.6	1008	-8.6	330	2	70
2026-02-08T13:02	-3.9	1008	-8.6	330	2	70
2026-02-08T13:03	-3.7	1008	-8.2	340	2	70
2026-02-08T13:04	-3.7	1008	-8.0	340	2	70
2026-02-08T13:05	-3.9	1008	-8.4	350	2	70
2026-02-08T13:06	-3.7	1008	-8.4	350	2	70
2026-02-08T13:07	-3.6	1008	-8.4	350	2	70
2026-02-08T13:08	-3.7	1008	-8.4	360	2	70
2026-02-08T13:09	-3.8	1008	-8.5	360	3	70
2026-02-08T13:10	-3.5	1008	-8.4	360	3	70
2026-02-08T13:11	-3.4	1008	-8.4	360	3	70
2026-02-08T13:12	-3.2	1008	-8.6	350	4	70
2026-02-08T13:13	-3.0	1008	-8.8	350	4	70
2026-02-08T13:14	-2.8	1008	-8.8	350	4	70
2026-02-08T13:15	-2.8	1008	-9.1	340	4	70
2026-02-08T13:16	-2.8	1008	-9.1	340	5	70
2026-02-08T13:17	-3.0	1008	-9.2	340	5	70
2026-02-08T13:18	-3.1	1008	-8.9	330	5	70
2026-02-08T13:19	-2.9	1008	-9.1	330	5	70
2026-02-08T13:20	-2.9	1008	-9.1	320	5	70
2026-02-08T13:21	-3.0	1008	-9.2	320	4	70
2026-02-08T13:22	-3.1	1008	-8.9	320	4	70
2026-02-08T13:23	-3.0	1008	-8.8	310	4	70
2026-02-08T13:24	-2.8	1008	-9.1	310	4	70
2026-02-08T13:25	-3.0	1008	-9.2	310	3	70
2026-02-08T13:26	-3.2	1008	-9.2	320	3	70
2026-02-08T13:27	-3.0	1008	-9.2	320	3	70
2026-02-08T13:28	-2.9	1008	-9.1	320	3	70
2026-02-08T13:29	-2.9	1008	-9.1	310	3	70
2026-02-08T13:30	-3.1	1008	-9.3	310	3	70
2026-02-08T13:31	-3.3	1008	-9.3	320	2	70
2026-02-08T13:32	-3.4	1008	-9.0	320	2	70
2026-02-08T13:33	-3.4	1009	-9.2	320	2	70
2026-02-08T13:34	-3.4	1009	-9.2	320	2	70
2026-02-08T13:35	-3.4	1009	-9.2	320	2	70
2026-02-08T13:36	-3.4	1009	-9.2	320	2	70
2026-02-08T13:37	-3.5	1009	-9.1	320	2	70
2026-02-08T13:38	-3.4	1009	-9.0	320	2	70
2026-02-08T13:39	-3.5	1009	-8.9	320	3	70
2026-02-08T13:40	-3.4	1009	-9.0	330	3	70
2026-02-08T13:41	-3.6	1009	-9.0	330	3	70
2026-02-08T13:42	-3.3	1009	-8.9	330	3	70
2026-02-08T13:43	-3.1	1009	-9.1	330	3	70
2026-02-08T13:44	-3.2	1009	-9.2	330	3	70
2026-02-08T13:45	-3.5	1009	-9.1	320	3	70
2026-02-08T13:46	-3.7	1009	-9.1	330	3	70
2026-02-08T13:47	-3.7	1009	-9.1	330	2	70
2026-02-08T13:48	-3.5	1009	-8.9	320	2	70
2026-02-08T13:49	-3.6	1009	-9.0	330	2	70
2026-02-08T13:50	-3.4	1009	-8.8	320	2	70
2026-02-08T13:51	-3.4	1009	-8.8	320	2	70
2026-02-08T13:52	-3.3	1009	-9.1	320	2	70
2026-02-08T13:53	-3.4	1009	-9.2	320	2	70
2026-02-08T13:54	-3.3	1009	-9.1	320	2	70
2026-02-08T13:55	-3.3	1009	-9.1	320	2	70
2026-02-08T13:56	-3.5	1009	-9.3	310	2	70
2026-02-08T13:57	-3.4	1009	-9.2	310	3	70
2026-02-08T13:58	-3.2	1009	-9.2	310	2	70
2026-02-08T13:59	-3.4	1009	-9.2	310	2	70
2026-02-08T14:00	-3.5	1009	-9.3	310	2	70
2026-02-08T14:01	-3.6	1009	-9.4	310	3	70
2026-02-08T14:02	-3.6	1009	-9.2	310	3	70
2026-02-08T14:03	-4.0	1009	-9.2	310	2	70
2026-02-08T14:04	-3.9	1009	-8.9	310	2	70
2026-02-08T14:05	-3.7	1009	-8.9	310	2	70
2026-02-08T14:06	-3.6	1009	-8.8	310	2	70
2026-02-08T14:07	-3.6	1009	-9.0	310	2	70
2026-02-08T14:08	-3.9	1009	-9.1	310	2	70
2026-02-08T14:09	-3.7	1009	-8.9	310	2	70
2026-02-08T14:10	-3.9	1009	-9.1	310	2	70
2026-02-08T14:11	-3.8	1009	-8.8	310	2	70
2026-02-08T14:12	-3.8	1009	-8.8	320	2	70
2026-02-08T14:13	-3.8	1009	-9.0	320	2	70
2026-02-08T14:14	-3.8	1009	-8.8	320	2	70
2026-02-08T14:15	-4.0	1009	-9.2	320	2	70
2026-02-08T14:16	-4.4	1009	-9.0	320	3	70
2026-02-08T14:17	-4.2	1009	-8.8	320	3	70
2026-02-08T14:18	-4.3	1009	-8.6	310	3	70
2026-02-08T14:19	-4.1	1009	-8.6	310	2	70
2026-02-08T14:20	-4.0	1009	-8.7	310	2	70
2026-02-08T14:21	-4.3	1009	-8.8	310	2	70
2026-02-08T14:22	-4.6	1009	-8.9	310	2	70
2026-02-08T14:23	-4.4	1009	-8.5	310	2	70
2026-02-08T14:24	-4.4	1009	-8.7	310	2	70
2026-02-08T14:25	-4.0	1009	-8.5	310	2	70
2026-02-08T14:26	-3.9	1009	-8.6	310	2	70
2026-02-08T14:27	-4.2	1009	-8.8	310	2	70
2026-02-08T14:28	-4.0	1009	-8.7	310	2	70
2026-02-08T14:29	-4.5	1009	-9.1	310	2	70
2026-02-08T14:30	-4.4	1009	-8.7	310	2	70
2026-02-08T14:31	-4.2	1009	-8.7	310	3	70
2026-02-08T14:32	-4.2	1009	-8.7	310	3	70
2026-02-08T14:33	-4.1	1009	-8.6	320	2	70
2026-02-08T14:34	-4.6	1009	-9.2	320	2	70
2026-02-08T14:35	-4.3	1009	-8.8	320	2	70
2026-02-08T14:36	-4.5	1009	-8.9	320	2	70
2026-02-08T14:37	-4.3	1009	-8.6	320	2	70
2026-02-08T14:38	-4.1	1009	-8.6	320	2	70
2026-02-08T14:39	-4.3	1009	-8.9	320	2	70
2026-02-08T14:40	-4.2	1009	-8.7	320	2	70
2026-02-08T14:41	-4.0	1009	-8.5	320	2	70
2026-02-08T14:42	-3.9	1009	-8.7	320	2	70
2026-02-08T14:43	-4.0	1009	-8.8	320	2	70
2026-02-08T14:44	-4.1	1009	-8.9	320	2	70
2026-02-08T14:45	-4.2	1009	-9.0	310	2	70
2026-02-08T14:46	-4.2	1009	-8.8	310	2	70
2026-02-08T14:47	-4.3	1009	-8.9	310	2	70
2026-02-08T14:48	-4.5	1009	-8.8	310	2	70
2026-02-08T14:49	-4.7	1009	-8.8	310	2	70
2026-02-08T14:50	-4.8	1009	-8.9	310	2	70
2026-02-08T14:51	-4.4	1009	-8.5	310	2	70
2026-02-08T14:52	-4.2	1009	-8.5	310	2	70
2026-02-08T14:53	-4.5	1009	-8.8	310	2	70
2026-02-08T14:54	-4.5	1009	-8.8	310	2	70
2026-02-08T14:55	-4.6	1009	-8.9	310	2	70
2026-02-08T14:56	-4.4	1009	-8.5	310	2	70
2026-02-08T14:57	-4.3	1009	-8.6	310	2	70
2026-02-08T14:58	-4.6	1009	-8.7	310	2	70
2026-02-08T14:59	-5.0	1009	-8.7	310	2	70
2026-02-08T15:00	-4.5	1009	-8.2	310	2	70
2026-02-08T15:01	-4.6	1009	-8.3	300	2	70
2026-02-08T15:02	-5.0	1009	-8.7	300	2	70
2026-02-08T15:03	-4.8	1009	-8.4	300	2	70
2026-02-08T15:04	-4.8	1009	-8.4	300	2	70
2026-02-08T15:05	-4.6	1009	-8.2	300	2	70
2026-02-08T15:06	-4.4	1009	-8.2	300	2	70
2026-02-08T15:07	-4.4	1009	-8.5	300	2	70
2026-02-08T15:08	-4.4	1009	-8.5	300	2	70
2026-02-08T15:09	-4.2	1009	-8.3	300	2	70
2026-02-08T15:10	-4.7	1009	-8.8	290	2	70
2026-02-08T15:11	-4.5	1009	-8.8	290	3	70
2026-02-08T15:12	-4.4	1009	-8.7	290	3	70
2026-02-08T15:13	-4.3	1009	-8.6	300	3	70
2026-02-08T15:14	-4.1	1009	-8.6	300	3	70
2026-02-08T15:15	-4.1	1009	-8.7	300	3	70
2026-02-08T15:16	-4.2	1009	-8.7	290	3	70
2026-02-08T15:17	-4.2	1009	-8.5	290	3	70
2026-02-08T15:18	-4.4	1010	-8.9	300	3	70
2026-02-08T15:19	-4.3	1010	-8.8	300	3	70
2026-02-08T15:20	-4.6	1010	-8.9	300	3	70
2026-02-08T15:21	-4.4	1010	-8.7	300	3	70
2026-02-08T15:22	-4.7	1010	-9.1	300	3	70
2026-02-08T15:23	-4.5	1010	-8.8	300	3	70
2026-02-08T15:24	-4.5	1010	-8.9	310	3	70
2026-02-08T15:25	-4.5	1010	-8.8	310	3	70
2026-02-08T15:26	-4.5	1010	-8.8	310	3	70
2026-02-08T15:27	-4.7	1010	-9.0	310	3	70
2026-02-08T15:28	-4.6	1010	-8.9	310	2	70
2026-02-08T15:29	-4.4	1010	-8.9	320	2	70
2026-02-08T15:30	-4.4	1010	-8.9	310	2	70
2026-02-08T15:31	-4.2	1010	-8.8	310	2	70
2026-02-08T15:32	-4.1	1010	-8.9	310	2	70
2026-02-08T15:33	-4.5	1010	-9.1	310	2	70
2026-02-08T15:34	-4.4	1010	-9.0	320	2	70
2026-02-08T15:35	-4.8	1010	-9.2	310	2	70
2026-02-08T15:36	-4.6	1010	-8.9	310	2	70
2026-02-08T15:37	-4.7	1010	-8.8	310	2	70
2026-02-08T15:38	-4.9	1010	-9.2	310	2	70
2026-02-08T15:39	-5.0	1010	-8.9	310	2	70
2026-02-08T15:40	-4.7	1010	-8.6	310	2	70
2026-02-08T15:41	-4.4	1010	-8.7	310	2	70
2026-02-08T15:42	-4.3	1010	-8.9	310	2	70
2026-02-08T15:43	-4.5	1010	-9.1	310	2	70
2026-02-08T15:44	-4.2	1010	-9.0	310	2	70
2026-02-08T15:45	-4.2	1010	-9.0	300	1	70
2026-02-08T15:46	-4.2	1010	-9.2	300	2	70
2026-02-08T15:47	-4.3	1010	-9.3	300	1	70
2026-02-08T15:48	-4.5	1010	-9.7	300	1	70
2026-02-08T15:49	-4.9	1010	-9.7	290	1	70
2026-02-08T15:50	-4.9	1010	-9.2	290	2	70
2026-02-08T15:51	-4.6	1010	-8.9	290	1	70
2026-02-08T15:52	-4.8	1010	-9.4	280	2	70
2026-02-08T15:53	-5.0	1010	-9.2	280	2	70
2026-02-08T15:54	-4.7	1010	-9.1	290	2	70
2026-02-08T15:55	-5.0	1010	-9.6	290	2	70
2026-02-08T15:56	-5.1	1010	-9.3	290	2	70
2026-02-08T15:57	-5.3	1010	-9.5	290	2	70
2026-02-08T15:58	-4.9	1010	-9.2	290	2	70
2026-02-08T15:59	-4.8	1010	-9.2	300	2	70
2026-02-08T16:00	-4.7	1010	-9.3	300	2	70
2026-02-08T16:01	-5.1	1010	-9.5	300	2	70
2026-02-08T16:02	-5.4	1010	-9.6	300	2	70
2026-02-08T16:03	-5.0	1010	-9.2	300	2	70
2026-02-08T16:04	-4.8	1010	-9.2	300	2	70
2026-02-08T16:05	-4.7	1010	-9.1	300	2	70
2026-02-08T16:06	-4.6	1010	-9.2	300	2	70
2026-02-08T16:07	-4.5	1010	-9.1	300	2	70
2026-02-08T16:08	-4.7	1010	-9.7	300	2	70
2026-02-08T16:09	-4.7	1010	-9.7	290	2	70
2026-02-08T16:10	-4.7	1010	-9.7	290	2	70
2026-02-08T16:11	-4.4	1010	-9.4	290	2	70
2026-02-08T16:12	-4.4	1010	-9.6	290	3	70
2026-02-08T16:13	-4.2	1010	-9.6	290	3	70
2026-02-08T16:14	-4.4	1010	-9.8	280	3	70
2026-02-08T16:15	-4.3	1010	-9.5	290	3	70
2026-02-08T16:16	-4.4	1010	-9.8	290	3	70
2026-02-08T16:17	-4.3	1010	-9.7	290	3	70
2026-02-08T16:18	-4.2	1010	-9.8	280	3	70
2026-02-08T16:19	-4.2	1010	-9.8	280	3	70
2026-02-08T16:20	-4.5	1010	-10.1	280	3	70
2026-02-08T16:21	-4.4	1010	-9.8	280	3	70
2026-02-08T16:22	-4.4	1010	-9.8	280	3	70
2026-02-08T16:23	-4.4	1010	-9.8	280	3	70
2026-02-08T16:24	-4.4	1010	-9.8	280	3	70
2026-02-08T16:25	-4.4	1010	-9.8	280	3	70
2026-02-08T16:26	-4.3	1010	-9.7	280	3	70
2026-02-08T16:27	-4.3	1010	-9.7	280	3	70
2026-02-08T16:28	-4.2	1010	-9.6	280	3	70
2026-02-08T16:29	-4.2	1010	-9.8	280	4	70
2026-02-08T16:30	-4.3	1010	-9.9	280	4	70
2026-02-08T16:31	-4.4	1010	-10.0	280	4	70
2026-02-08T16:32	-4.7	1010	-9.9	280	4	70
2026-02-08T16:33	-4.8	1010	-10.0	280	4	70
2026-02-08T16:34	-4.8	1010	-9.6	280	4	70
2026-02-08T16:35	-4.7	1010	-9.5	280	4	70
2026-02-08T16:36	-4.8	1010	-9.4	290	4	70
2026-02-08T16:37	-4.4	1010	-9.4	280	3	70
2026-02-08T16:38	-4.5	1010	-9.5	290	3	70
2026-02-08T16:39	-4.6	1010	-9.4	290	3	70
2026-02-08T16:40	-4.5	1010	-9.5	280	3	70
2026-02-08T16:41	-4.4	1011	-9.6	290	3	70
2026-02-08T16:42	-4.8	1011	-10.0	290	3	70
2026-02-08T16:43	-4.8	1011	-10.0	280	3	70
2026-02-08T16:44	-4.8	1011	-9.8	290	3	70
2026-02-08T16:45	-4.5	1011	-9.5	290	3	70
2026-02-08T16:46	-4.5	1011	-9.7	280	3	70
2026-02-08T16:47	-4.7	1011	-9.9	280	3	70
2026-02-08T16:48	-4.5	1011	-9.7	280	3	70
2026-02-08T16:49	-4.6	1011	-9.8	280	3	70
2026-02-08T16:50	-5.0	1011	-10.0	290	3	70
2026-02-08T16:51	-4.9	1011	-9.7	290	3	70
2026-02-08T16:52	-4.9	1011	-9.9	290	2	70
2026-02-08T16:53	-5.0	1011	-9.6	290	2	70
2026-02-08T16:54	-4.7	1011	-9.3	290	2	70
2026-02-08T16:55	-4.7	1011	-9.3	290	2	70
2026-02-08T16:56	-4.9	1011	-9.7	290	2	70
2026-02-08T16:57	-4.8	1011	-9.6	290	2	70
2026-02-08T16:58	-4.9	1011	-9.9	290	2	70
2026-02-08T16:59	-4.8	1011	-9.8	290	2	70
2026-02-08T17:00	-4.7	1011	-9.7	290	2	70
2026-02-08T17:01	-4.7	1011	-9.5	280	2	70
2026-02-08T17:02	-5.1	1011	-9.7	280	2	70
2026-02-08T17:03	-5.0	1011	-9.4	280	3	70
2026-02-08T17:04	-5.0	1011	-9.6	280	3	70
2026-02-08T17:05	-4.9	1011	-9.7	290	2	70
2026-02-08T17:06	-4.8	1011	-9.8	290	2	70
2026-02-08T17:07	-4.9	1011	-9.9	290	2	70
2026-02-08T17:08	-5.1	1011	-10.3	290	2	70
2026-02-08T17:09	-5.2	1011	-10.0	290	2	70
2026-02-08T17:10	-5.2	1011	-9.8	290	2	70
2026-02-08T17:11	-5.2	1011	-9.6	300	2	70
2026-02-08T17:12	-5.0	1011	-9.4	300	2	70
2026-02-08T17:13	-4.9	1011	-9.5	300	2	70
2026-02-08T17:14	-4.8	1011	-9.4	300	2	70
2026-02-08T17:15	-5.0	1011	-9.8	300	2	70
2026-02-08T17:16	-4.9	1011	-9.7	300	2	70
2026-02-08T17:17	-5.0	1011	-9.6	300	2	70
2026-02-08T17:18	-4.9	1011	-9.5	310	2	70
2026-02-08T17:19	-4.7	1011	-9.5	300	2	70
2026-02-08T17:20	-4.8	1011	-9.6	300	2	70
2026-02-08T17:21	-4.7	1011	-9.7	300	2	70
2026-02-08T17:22	-4.7	1011	-9.9	300	2	70
2026-02-08T17:23	-4.7	1011	-9.9	300	2	70
2026-02-08T17:24	-4.7	1011	-9.9	300	2	70
2026-02-08T17:25	-4.8	1011	-10.1	300	2	70
2026-02-08T17:26	-5.2	1011	-10.2	300	2	70
2026-02-08T17:27	-5.4	1011	-9.6	290	2	70
2026-02-08T17:28	-5.3	1011	-9.4	290	2	70
2026-02-08T17:29	-5.4	1011	-9.5	290	2	70
2026-02-08T17:30	-5.2	1011	-9.4	290	2	70
2026-02-08T17:31	-5.2	1011	-9.4	290	2	70
2026-02-08T17:32	-5.1	1011	-9.5	280	2	70
2026-02-08T17:33	-5.3	1011	-9.5	280	2	70
2026-02-08T17:34	-5.2	1011	-9.4	280	2	70
2026-02-08T17:35	-5.1	1011	-9.5	280	2	70
2026-02-08T17:36	-5.4	1011	-9.8	280	2	70
2026-02-08T17:37	-5.5	1011	-9.7	280	2	70
2026-02-08T17:38	-5.6	1011	-9.6	280	2	70
2026-02-08T17:39	-5.6	1011	-9.5	280	2	70
2026-02-08T17:40	-5.6	1011	-9.5	280	2	70
2026-02-08T17:41	-5.6	1011	-9.3	280	2	70
2026-02-08T17:42	-5.9	1011	-9.4	280	2	70
2026-02-08T17:43	-6.0	1011	-9.4	280	2	70
2026-02-08T17:44	-5.9	1011	-9.3	280	2	70
2026-02-08T17:45	-5.7	1011	-9.1	290	2	70
2026-02-08T17:46	-6.0	1011	-9.5	290	2	70
2026-02-08T17:47	-6.2	1011	-9.6	290	2	70
2026-02-08T17:48	-5.7	1011	-9.1	290	2	70
2026-02-08T17:49	-5.9	1011	-9.4	290	2	70
2026-02-08T17:50	-5.8	1011	-9.3	290	2	70
2026-02-08T17:51	-6.1	1011	-9.6	290	2	70
2026-02-08T17:52	-6.1	1011	-9.5	290	2	70
2026-02-08T17:53	-5.6	1011	-9.0	280	2	70
2026-02-08T17:54	-5.7	1011	-9.4	280	2	70
2026-02-08T17:55	-5.8	1011	-9.7	280	2	70
2026-02-08T17:56	-6.0	1011	-9.7	280	2	70
2026-02-08T17:57	-6.0	1011	-9.5	280	2	70
2026-02-08T17:58	-6.3	1011	-9.7	280	2	70
2026-02-08T17:59	-6.2	1011	-9.2	280	2	70
2026-02-08T18:00	-5.8	1011	-9.0	280	2	70
2026-02-08T18:01	-6.3	1011	-9.5	270	2	70
2026-02-08T18:02	-6.0	1011	-9.0	270	2	70
2026-02-08T18:03	-6.4	1011	-9.4	270	2	70
2026-02-08T18:04	-6.4	1011	-9.4	270	2	70
2026-02-08T18:05	-6.2	1011	-9.1	270	2	70
2026-02-08T18:06	-6.2	1011	-9.2	270	2	70
2026-02-08T18:07	-6.0	1011	-9.2	270	2	70
2026-02-08T18:08	-6.4	1011	-9.4	280	2	70
2026-02-08T18:09	-6.5	1011	-9.5	280	2	70
2026-02-08T18:10	-6.5	1011	-9.4	280	2	70
2026-02-08T18:11	-5.7	1011	-8.9	280	2	70
2026-02-08T18:12	-5.7	1011	-9.4	280	2	70
2026-02-08T18:13	-6.1	1011	-9.8	280	2	70
2026-02-08T18:14	-6.2	1011	-9.9	280	2	70
2026-02-08T18:15	-6.2	1011	-9.7	280	2	70
2026-02-08T18:16	-6.2	1011	-9.7	280	2	70
2026-02-08T18:17	-6.3	1011	-9.8	270	2	70
2026-02-08T18:18	-6.4	1011	-9.7	270	2	70
2026-02-08T18:19	-6.6	1011	-9.8	270	2	70
2026-02-08T18:20	-6.4	1011	-9.6	270	1	70
2026-02-08T18:21	-6.7	1011	-10.0	270	1	70
2026-02-08T18:22	-6.6	1011	-9.8	270	1	70
2026-02-08T18:23	-6.6	1011	-9.6	270	1	70
2026-02-08T18:24	-6.2	1011	-9.4	270	1	70
2026-02-08T18:25	-6.4	1011	-10.1	270	1	70
2026-02-08T18:26	-6.2	1011	-10.2	270	1	70
2026-02-08T18:27	-6.0	1011	-10.0	270	1	70
2026-02-08T18:28	-6.4	1011	-10.8	260	1	70
2026-02-08T18:29	-7.0	1011	-11.4	260	1	70
2026-02-08T18:30	-6.9	1011	-11.1	260	1	70
2026-02-08T18:31	-6.8	1011	-10.8	260	1	70
2026-02-08T18:32	-6.7	1011	-10.5	260	1	70
2026-02-08T18:33	-6.8	1011	-10.6	260	1	70
2026-02-08T18:34	-6.8	1011	-10.6	260	1	70
2026-02-08T18:35	-6.9	1011	-10.7	260	1	70
2026-02-08T18:36	-7.0	1011	-10.7	260	1	70
2026-02-08T18:37	-6.9	1011	-10.2	260	1	70
2026-02-08T18:38	-6.9	1011	-10.1	260	1	70
2026-02-08T18:39	-7.1	1011	-9.9	270	1	70
2026-02-08T18:40	-7.0	1011	-9.5	270	1	70
2026-02-08T18:41	-7.0	1011	-9.2	270	1	70
2026-02-08T18:42	-7.3	1011	-9.2	270	1	70
2026-02-08T18:43	-7.1	1011	-9.0	270	1	70
2026-02-08T18:44	-7.3	1011	-9.5	270	1	70
2026-02-08T18:45	-7.4	1011	-9.6	270	1	70
2026-02-08T18:46	-7.2	1011	-9.3	270	1	70
2026-02-08T18:47	-7.1	1011	-9.0	270	1	70
2026-02-08T18:48	-7.2	1011	-9.1	270	1	70
2026-02-08T18:49	-7.3	1011	-9.2	270	1	70
2026-02-08T18:50	-7.5	1011	-9.4	260	1	70
2026-02-08T18:51	-7.7	1011	-9.6	260	1	70
2026-02-08T18:52	-7.6	1011	-9.5	270	1	70
2026-02-08T18:53	-7.6	1011	-9.7	270	1	70
2026-02-08T18:54	-7.7	1011	-9.8	270	1	70
2026-02-08T18:55	-7.5	1011	-9.4	270	1	70
2026-02-08T18:56	-7.6	1011	-9.5	270	1	70
2026-02-08T18:57	-7.5	1011	-9.4	260	1	70
2026-02-08T18:58	-7.5	1011	-9.6	260	1	70
2026-02-08T18:59	-7.3	1011	-9.4	260	1	70
2026-02-08T19:00	-7.3	1011	-9.5	250	1	70
2026-02-08T19:01	-7.2	1011	-9.6	250	1	70
2026-02-08T19:02	-7.4	1011	-10.1	240	1	70
2026-02-08T19:03	-7.5	1011	-10.3	240	1	70
2026-02-08T19:04	-7.5	1011	-10.5	230	1	70
2026-02-08T19:05	-7.5	1011	-10.5	230	1	70
2026-02-08T19:06	-7.7	1011	-10.7	230	1	70
2026-02-08T19:07	-8.0	1011	-10.8	220	1	70
2026-02-08T19:08	-8.4	1011	-10.9	220	1	70
2026-02-08T19:09	-8.3	1011	-10.8	210	1	70
2026-02-08T19:10	-7.6	1011	-9.8	200	1	70
2026-02-08T19:11	-7.6	1011	-9.8	200	1	70
2026-02-08T19:12	-7.4	1011	-9.6	190	1	70
2026-02-08T19:13	-7.7	1011	-10.1	190	1	70
2026-02-08T19:14	-7.9	1011	-10.4	180	1	70
2026-02-08T19:15	-8.0	1011	-10.4	190	1	70
2026-02-08T19:16	-7.5	1011	-9.7	190	1	70
2026-02-08T19:17	-7.7	1011	-9.9	190	1	70
2026-02-08T19:18	-7.8	1011	-10.0	210	1	70
2026-02-08T19:19	-7.8	1011	-10.2	230	1	70
2026-02-08T19:20	-7.7	1011	-10.2	240	1	70
2026-02-08T19:21	-7.5	1011	-10.0	260	1	70
2026-02-08T19:22	-7.0	1011	-9.5	270	1	70
2026-02-08T19:23	-7.0	1011	-9.7	270	1	70
2026-02-08T19:24	-6.7	1011	-9.6	280	1	70
2026-02-08T19:25	-6.6	1011	-9.8	280	1	70
2026-02-08T19:26	-6.8	1011	-10.1	270	1	70
2026-02-08T19:27	-6.8	1011	-10.1	280	1	70
2026-02-08T19:28	-7.4	1011	-10.6	280	1	70
2026-02-08T19:29	-7.4	1011	-10.4	280	1	70
2026-02-08T19:30	-7.2	1011	-10.0	270	1	70
2026-02-08T19:31	-7.1	1011	-10.3	270	2	70
2026-02-08T19:32	-7.5	1011	-11.0	270	2	70
2026-02-08T19:33	-7.1	1011	-10.3	270	2	70
2026-02-08T19:34	-6.3	1011	-9.7	280	2	70
2026-02-08T19:35	-5.8	1011	-9.5	270	2	70
2026-02-08T19:36	-5.5	1011	-9.7	270	2	70
2026-02-08T19:37	-5.8	1011	-10.4	260	2	70
2026-02-08T19:38	-5.5	1011	-10.3	260	2	70
2026-02-08T19:39	-5.6	1011	-10.5	260	2	70
2026-02-08T19:40	-5.5	1011	-10.6	270	2	70
2026-02-08T19:41	-5.3	1011	-10.6	270	2	70
2026-02-08T19:42	-6.0	1011	-11.1	270	2	70
2026-02-08T19:43	-6.0	1011	-11.1	260	2	70
2026-02-08T19:44	-6.0	1011	-10.9	260	2	70
2026-02-08T19:45	-6.1	1011	-10.9	260	2	70
2026-02-08T19:46	-5.7	1011	-10.3	270	2	70
2026-02-08T19:47	-5.5	1011	-10.5	270	2	70
2026-02-08T19:48	-5.9	1011	-10.8	270	2	70
2026-02-08T19:49	-6.0	1011	-10.8	270	2	70
2026-02-08T19:50	-6.0	1011	-10.6	260	2	70
2026-02-08T19:51	-5.6	1011	-10.4	260	2	70
2026-02-08T19:52	-5.5	1011	-10.6	260	2	70
2026-02-08T19:53	-5.8	1011	-11.1	260	2	70
2026-02-08T19:54	-6.0	1011	-11.3	260	2	70
2026-02-08T19:55	-6.0	1011	-11.3	250	2	70
2026-02-08T19:56	-6.3	1011	-11.8	250	2	70
2026-02-08T19:57	-6.3	1011	-11.8	250	2	70
2026-02-08T19:58	-6.0	1011	-11.3	250	2	70
2026-02-08T19:59	-6.5	1011	-11.8	250	2	70
2026-02-08T20:00	-6.3	1011	-11.6	250	2	70
2026-02-08T20:01	-6.1	1011	-11.4	250	2	70
2026-02-08T20:02	-5.9	1011	-11.2	250	1	70
2026-02-08T20:03	-5.6	1011	-11.1	250	1	70
2026-02-08T20:04	-5.7	1011	-11.2	260	1	70
2026-02-08T20:05	-5.7	1011	-11.4	260	1	70
2026-02-08T20:06	-5.9	1011	-11.6	260	1	70
2026-02-08T20:07	-6.0	1011	-11.5	260	1	70
2026-02-08T20:08	-6.4	1011	-11.5	260	1	70
2026-02-08T20:09	-6.2	1011	-11.3	260	1	70
2026-02-08T20:10	-6.5	1011	-11.4	260	1	70
2026-02-08T20:11	-6.9	1011	-11.6	260	1	70
2026-02-08T20:12	-6.9	1011	-11.6	250	0	70
2026-02-08T20:13	-6.6	1011	-11.2	250	0	70
2026-02-08T20:14	-6.9	1011	-11.1	240	0	70
2026-02-08T20:15	-6.6	1011	-10.4	230	0	70
2026-02-08T20:16	-6.3	1011	-9.8	220	0	70
2026-02-08T20:17	-6.1	1011	-9.8	210	1	70
2026-02-08T20:18	-6.0	1011	-9.9	200	1	70
2026-02-08T20:19	-7.3	1011	-11.1	200	1	70
2026-02-08T20:20	-6.7	1011	-10.4	190	1	70
2026-02-08T20:21	-6.9	1011	-10.6	190	1	70
2026-02-08T20:22	-7.0	1011	-10.5	190	1	70
2026-02-08T20:23	-7.0	1011	-10.5	190	1	70
2026-02-08T20:24	-7.2	1011	-10.7	190	1	70
2026-02-08T20:25	-6.8	1011	-10.1	200	1	70
2026-02-08T20:26	-6.4	1011	-9.7	200	1	70
2026-02-08T20:27	-6.1	1011	-9.8	200	1	70
2026-02-08T20:28	-5.7	1011	-9.9	210	1	70
2026-02-08T20:29	-5.8	1011	-10.4	210	2	70
2026-02-08T20:30	-6.2	1011	-11.1	210	2	70
2026-02-08T20:31	-5.8	1011	-10.7	210	2	70
2026-02-08T20:32	-5.6	1011	-10.7	210	2	70
2026-02-08T20:33	-5.6	1011	-10.7	210	2	70
2026-02-08T20:34	-5.4	1011	-10.7	210	2	70
2026-02-08T20:35	-6.4	1011	-11.9	210	1	70
2026-02-08T20:36	-6.5	1012	-11.6	200	1	70
2026-02-08T20:37	-6.4	1012	-11.0	200	1	70
2026-02-08T20:38	-6.7	1012	-10.5	190	1	70
2026-02-08T20:39	-7.0	1012	-10.2	190	1	70
2026-02-08T20:40	-6.9	1012	-9.9	180	1	70
2026-02-08T20:41	-7.0	1012	-10.0	180	1	70
2026-02-08T20:42	-6.9	1012	-9.7	170	1	70
2026-02-08T20:43	-6.7	1012	-9.4	160	1	70
2026-02-08T20:44	-6.7	1012	-9.4	150	1	70
2026-02-08T20:45	-6.7	1012	-9.4	150	1	70
2026-02-08T20:46	-6.5	1012	-9.4	150	1	70
2026-02-08T20:47	-6.4	1012	-9.7	150	1	70
2026-02-08T20:48	-7.1	1012	-10.6	150	1	70
2026-02-08T20:49	-7.1	1012	-10.6	160	1	70
2026-02-08T20:50	-6.6	1012	-9.9	160	1	70
2026-02-08T20:51	-7.0	1012	-10.5	160	1	70
2026-02-08T20:52	-7.1	1012	-10.8	170	1	70
2026-02-08T20:53	-7.1	1012	-10.6	180	1	70
2026-02-08T20:54	-7.3	1012	-10.8	190	1	70
2026-02-08T20:55	-7.3	1012	-10.6	200	1	70
2026-02-08T20:56	-7.0	1012	-10.2	200	1	70
2026-02-08T20:57	-6.6	1012	-9.9	210	1	70
2026-02-08T20:58	-6.8	1012	-10.3	220	1	70
2026-02-08T20:59	-6.1	1012	-9.8	230	1	70
2026-02-08T21:00	-6.0	1012	-10.0	240	1	70
2026-02-08T21:01	-6.1	1012	-10.3	240	1	70
2026-02-08T21:02	-5.7	1012	-10.1	240	1	70
2026-02-08T21:03	-5.9	1012	-10.7	250	1	70
2026-02-08T21:04	-5.8	1012	-10.7	250	1	70
2026-02-08T21:05	-5.5	1012	-10.6	250	1	70
2026-02-08T21:06	-5.2	1012	-10.5	250	1	70
2026-02-08T21:07	-5.5	1012	-11.0	250	1	70
2026-02-08T21:08	-5.0	1012	-10.7	250	1	70
2026-02-08T21:09	-4.8	1012	-10.8	250	1	70
2026-02-08T21:10	-4.9	1012	-10.8	250	1	70
2026-02-08T21:11	-4.9	1012	-11.0	240	1	70
2026-02-08T21:12	-5.2	1012	-11.1	240	2	70
2026-02-08T21:13	-5.1	1012	-11.0	240	2	70
2026-02-08T21:14	-5.3	1012	-11.2	240	2	70
2026-02-08T21:15	-5.2	1012	-11.1	240	2	70
2026-02-08T21:16	-4.9	1012	-10.8	240	2	70
2026-02-08T21:17	-4.6	1012	-10.8	240	2	70
2026-02-08T21:18	-4.7	1012	-11.1	240	2	70
2026-02-08T21:19	-4.3	1012	-10.7	240	2	70
2026-02-08T21:20	-4.7	1012	-11.3	240	2	70
2026-02-08T21:21	-4.9	1012	-11.7	240	2	70
2026-02-08T21:22	-5.0	1012	-11.8	240	2	70
2026-02-08T21:23	-4.8	1012	-11.4	240	2	70
2026-02-08T21:24	-4.5	1012	-11.1	240	2	70
2026-02-08T21:25	-4.5	1012	-11.1	240	2	70
2026-02-08T21:26	-4.5	1012	-11.1	240	2	70
2026-02-08T21:27	-4.7	1012	-11.5	240	2	70
2026-02-08T21:28	-4.5	1012	-11.1	240	2	70
2026-02-08T21:29	-4.9	1012	-11.3	240	2	70
2026-02-08T21:30	-4.6	1012	-10.8	240	2	70
2026-02-08T21:31	-4.6	1012	-10.8	250	2	70
2026-02-08T21:32	-4.8	1012	-11.0	250	2	70
2026-02-08T21:33	-5.0	1012	-10.9	250	2	70
2026-02-08T21:34	-4.6	1012	-10.8	250	2	70
2026-02-08T21:35	-4.5	1012	-10.9	250	2	70
2026-02-08T21:36	-4.5	1012	-10.7	250	2	70
2026-02-08T21:37	-4.1	1012	-10.5	250	3	70
2026-02-08T21:38	-4.0	1012	-10.6	250	3	70
2026-02-08T21:39	-4.1	1012	-10.9	250	3	70
2026-02-08T21:40	-4.1	1012	-10.9	250	3	70
2026-02-08T21:41	-3.8	1012	-10.6	250	3	70
2026-02-08T21:42	-4.0	1012	-10.8	260	3	70
2026-02-08T21:43	-4.0	1012	-10.8	260	3	70
2026-02-08T21:44	-3.9	1012	-10.7	260	3	70
2026-02-08T21:45	-4.1	1012	-10.9	260	3	70
2026-02-08T21:46	-4.1	1012	-10.7	260	3	70
2026-02-08T21:47	-3.6	1012	-10.4	250	3	70
2026-02-08T21:48	-3.6	1012	-10.7	250	3	70
2026-02-08T21:49	-4.1	1012	-10.9	250	3	70
2026-02-08T21:50	-3.8	1012	-10.6	250	3	70
2026-02-08T21:51	-3.8	1012	-10.6	250	3	70
2026-02-08T21:52	-3.7	1012	-10.5	250	3	70
2026-02-08T21:53	-3.5	1012	-10.6	250	3	70
2026-02-08T21:54	-3.2	1012	-10.5	250	3	70
2026-02-08T21:55	-3.0	1012	-10.5	250	3	70
2026-02-08T21:56	-3.0	1012	-10.5	240	3	70
2026-02-08T21:57	-2.8	1012	-10.6	250	3	70
2026-02-08T21:58	-2.8	1012	-10.6	250	3	70
2026-02-08T21:59	-2.9	1012	-10.7	250	3	70
2026-02-08T22:00	-3.0	1012	-10.8	250	3	70
2026-02-08T22:01	-3.0	1012	-10.5	250	3	70
2026-02-08T22:02	-3.0	1012	-10.5	250	4	70
2026-02-08T22:03	-3.0	1012	-10.5	250	4	70
2026-02-08T22:04	-3.0	1012	-10.5	250	4	70
2026-02-08T22:05	-3.4	1012	-10.7	250	3	70
2026-02-08T22:06	-3.2	1012	-10.3	250	3	70
2026-02-08T22:07	-3.4	1012	-10.2	250	3	70
2026-02-08T22:08	-3.1	1012	-10.0	250	3	70
2026-02-08T22:09	-2.8	1012	-10.1	250	3	70
2026-02-08T22:10	-2.7	1012	-10.2	250	3	70
2026-02-08T22:11	-2.4	1012	-10.2	250	3	70
2026-02-08T22:12	-2.4	1012	-10.4	250	3	70
2026-02-08T22:13	-2.7	1012	-10.2	250	3	70
2026-02-08T22:14	-2.7	1012	-10.0	250	3	70
2026-02-08T22:15	-2.8	1013	-9.9	250	3	70
2026-02-08T22:16	-2.7	1013	-10.0	250	3	70
2026-02-08T22:17	-2.8	1013	-9.9	250	3	70
2026-02-08T22:18	-2.6	1013	-9.9	250	3	70
2026-02-08T22:19	-2.8	1013	-9.9	250	3	70
2026-02-08T22:20	-2.6	1013	-9.5	250	3	70
2026-02-08T22:21	-2.8	1013	-9.9	250	3	70
2026-02-08T22:22	-2.6	1013	-9.9	250	3	70
2026-02-08T22:23	-2.5	1013	-9.6	250	3	70
2026-02-08T22:24	-2.1	1013	-9.9	250	3	70
2026-02-08T22:25	-2.3	1013	-10.1	250	3	70
2026-02-08T22:26	-2.3	1013	-9.9	250	3	70
2026-02-08T22:27	-2.1	1013	-9.9	250	3	70
2026-02-08T22:28	-2.3	1013	-9.9	250	3	70
2026-02-08T22:29	-2.0	1013	-9.8	250	3	70
2026-02-08T22:30	-1.9	1013	-10.0	250	3	70
2026-02-08T22:31	-2.4	1013	-10.0	250	3	70
2026-02-08T22:32	-2.6	1013	-9.7	250	3	70
2026-02-08T22:33	-2.5	1013	-9.6	250	3	70
2026-02-08T22:34	-2.5	1013	-9.6	250	3	70
2026-02-08T22:35	-2.3	1013	-9.2	250	3	70
2026-02-08T22:36	-2.3	1013	-9.4	250	3	70
2026-02-08T22:37	-2.3	1013	-9.4	250	3	70
2026-02-08T22:38	-2.1	1013	-9.2	250	3	70
2026-02-08T22:39	-2.0	1013	-9.6	250	3	70
2026-02-08T22:40	-2.0	1013	-9.6	260	3	70
2026-02-08T22:41	-2.1	1013	-9.5	260	3	70
2026-02-08T22:42	-2.0	1013	-9.1	260	3	70
2026-02-08T22:43	-1.9	1013	-9.3	260	3	70
2026-02-08T22:44	-1.9	1013	-9.1	260	3	70
2026-02-08T22:45	-1.8	1013	-9.2	260	2	70
2026-02-08T22:46	-1.9	1013	-9.3	260	3	70
2026-02-08T22:47	-1.7	1013	-9.1	260	2	70
2026-02-08T22:48	-1.9	1013	-9.5	260	2	70
2026-02-08T22:49	-1.7	1013	-9.3	260	2	70
2026-02-08T22:50	-1.3	1013	-9.4	270	2	70
2026-02-08T22:51	-1.2	1013	-9.3	270	2	70
2026-02-08T22:52	-1.4	1013	-9.3	270	2	70
2026-02-08T22:53	-1.3	1013	-9.2	270	2	70
2026-02-08T22:54	-1.2	1013	-9.5	270	2	70
2026-02-08T22:55	-1.1	1013	-9.7	270	2	70
2026-02-08T22:56	-0.9	1013	-10.0	270	2	70
2026-02-08T22:57	-1.1	1013	-9.9	270	2	70
2026-02-08T22:58	-1.0	1013	-9.6	270	2	70
2026-02-08T22:59	-1.0	1013	-9.8	270	2	70
2026-02-08T23:00	-1.0	1013	-9.6	270	2	70
2026-02-08T23:01	-0.9	1013	-9.3	270	2	70
2026-02-08T23:02	-0.9	1013	-9.5	270	2	70
2026-02-08T23:03	-0.6	1013	-9.7	270	2	70
2026-02-08T23:04	-0.7	1013	-8.8	270	2	70
2026-02-08T23:05	-0.8	1013	-9.4	270	2	70
2026-02-08T23:06	-0.6	1013	-9.2	270	2	70
2026-02-08T23:07	-0.5	1013	-9.4	270	2	70
2026-02-08T23:08	-0.9	1013	-9.7	270	2	70
2026-02-08T23:09	-0.9	1013	-9.5	280	2	70
2026-02-08T23:10	-1.0	1013	-9.1	280	2	70
2026-02-08T23:11	-0.6	1013	-9.2	280	2	70
2026-02-08T23:12	-0.4	1013	-9.3	280	2	70
2026-02-08T23:13	-0.3	1013	-9.7	280	2	70
2026-02-08T23:14	-0.3	1013	-9.7	280	2	70
2026-02-08T23:15	-0.3	1013	-9.4	280	2	70
2026-02-08T23:16	-0.6	1013	-9.0	280	2	70
2026-02-08T23:17	-0.5	1013	-9.1	280	2	70
2026-02-08T23:18	-0.4	1013	-9.3	280	2	70
2026-02-08T23:19	-0.4	1013	-9.3	290	2	70
2026-02-08T23:20	-0.6	1013	-9.5	290	2	70
2026-02-08T23:21	-0.7	1013	-9.6	280	2	70
2026-02-08T23:22	-0.6	1013	-9.5	280	2	70
2026-02-08T23:23	-0.2	1013	-9.4	280	2	70
2026-02-08T23:24	0.0	1013	-9.7	280	2	70
2026-02-08T23:25	0.0	1013	-9.9	280	2	70
2026-02-08T23:26	0.0	1013	-9.4	280	2	70
2026-02-08T23:27	-0.1	1013	-9.0	280	2	70
2026-02-08T23:28	-0.2	1013	-9.1	280	2	70
2026-02-08T23:29	0.1	1013	-9.3	280	1	70
2026-02-08T23:30	0.2	1013	-9.2	280	1	70
2026-02-08T23:31	0.2	1013	-9.0	280	1	70
2026-02-08T23:32	0.1	1013	-8.8	280	1	70
2026-02-08T23:33	0.0	1013	-9.4	280	1	70
2026-02-08T23:34	0.2	1014	-9.5	280	1	70
2026-02-08T23:35	0.2	1014	-9.5	270	1	70
2026-02-08T23:36	0.3	1014	-8.9	270	1	70
2026-02-08T23:37	0.4	1014	-9.1	270	1	70
2026-02-08T23:38	0.4	1014	-9.3	270	1	70
2026-02-08T23:39	0.3	1014	-9.2	270	2	70
2026-02-08T23:40	0.5	1014	-9.2	270	2	70
2026-02-08T23:41	0.5	1014	-9.2	270	2	70
2026-02-08T23:42	0.4	1014	-9.1	270	2	70
2026-02-08T23:43	0.5	1014	-8.7	270	2	70
2026-02-08T23:44	0.6	1014	-8.9	270	2	70
2026-02-08T23:45	0.5	1014	-8.7	270	2	70
2026-02-08T23:46	0.4	1014	-9.6	280	2	70
2026-02-08T23:47	0.5	1014	-9.5	280	2	70
2026-02-08T23:48	0.7	1014	-8.8	280	2	70
2026-02-08T23:49	0.7	1014	-9.3	280	2	70
2026-02-08T23:50	0.8	1014	-9.2	270	2	70
2026-02-08T23:51	0.7	1014	-8.5	270	2	70
2026-02-08T23:52	0.7	1014	-8.5	280	2	70
2026-02-08T23:53	0.6	1014	-8.6	280	2	70
2026-02-08T23:54	0.5	1014	-8.5	280	2	70
2026-02-08T23:55	0.5	1013	-8.2	280	2	70
2026-02-08T23:56	0.7	1013	-8.5	270	2	70
2026-02-08T23:57	0.7	1013	-8.5	270	2	70
2026-02-08T23:58	0.6	1013	-7.6	270	2	70
2026-02-08T23:59	0.7	1014	-8.5	280	1	70
2026-02-09T00:00	1.0	1014	-8.2	280	1	70
2026-02-09T00:01	0.7	1013	-8.0	290	1	70
2026-02-09T00:02	0.8	1013	-9.0	290	1	70
2026-02-09T00:03	0.8	1013	-9.2	290	1	70
2026-02-09T00:04	0.8	1014	-9.2	300	1	70
2026-02-09T00:05	0.8	1014	-8.7	300	1	70
2026-02-09T00:06	0.8	1014	-8.2	320	1	70
2026-02-09T00:07	0.9	1014	-8.6	330	1	70
2026-02-09T00:08	0.9	1014	-8.9	340	1	70
2026-02-09T00:09	1.0	1014	-8.8	360	1	70
2026-02-09T00:10	1.0	1014	-9.0	20	1	70
2026-02-09T00:11	1.1	1014	-8.9	40	1	70
2026-02-09T00:12	1.1	1014	-9.2	60	1	70
2026-02-09T00:13	1.0	1014	-9.3	70	1	70
2026-02-09T00:14	1.0	1014	-9.3	60	1	70
2026-02-09T00:15	1.0	1014	-9.3	70	1	70
2026-02-09T00:16	1.1	1014	-9.2	70	1	70
2026-02-09T00:17	1.3	1014	-9.3	70	1	70
2026-02-09T00:18	1.3	1014	-9.6	70	1	70
2026-02-09T00:19	1.3	1014	-9.6	80	1	70
2026-02-09T00:20	1.2	1014	-9.7	100	1	70
2026-02-09T00:21	1.0	1014	-9.6	100	1	70
2026-02-09T00:22	1.3	1014	-9.3	110	1	70
2026-02-09T00:23	1.4	1014	-9.2	120	1	70
2026-02-09T00:24	1.6	1014	-9.3	140	1	70
2026-02-09T00:25	1.9	1014	-9.1	170	1	70
2026-02-09T00:26	1.8	1014	-9.1	190	1	70
2026-02-09T00:27	1.9	1014	-9.1	210	1	70
2026-02-09T00:28	2.0	1014	-9.0	220	1	70
2026-02-09T00:29	1.8	1014	-9.1	230	1	70
2026-02-09T00:30	1.9	1014	-8.8	250	1	70
2026-02-09T00:31	2.1	1014	-8.6	260	1	70
2026-02-09T00:32	2.2	1014	-8.5	270	2	70
2026-02-09T00:33	2.3	1014	-8.7	270	2	70
2026-02-09T00:34	2.1	1014	-7.8	270	2	70
2026-02-09T00:35	2.0	1014	-8.4	280	2	70
2026-02-09T00:36	2.0	1014	-8.1	280	2	70
2026-02-09T00:37	2.2	1014	-8.5	280	2	70
2026-02-09T00:38	2.4	1014	-7.5	280	2	70
2026-02-09T00:39	2.3	1014	-8.4	280	2	70
2026-02-09T00:40	2.5	1014	-8.5	280	2	70
2026-02-09T00:41	2.6	1014	-8.4	280	2	70
2026-02-09T00:42	2.5	1014	-8.8	280	2	70
2026-02-09T00:43	2.5	1014	-8.2	280	2	70
2026-02-09T00:44	2.6	1014	-8.4	280	2	70
2026-02-09T00:45	2.6	1014	-8.1	280	2	70
2026-02-09T00:46	2.6	1014	-8.1	270	2	70
2026-02-09T00:47	2.6	1014	-8.7	280	2	70
2026-02-09T00:48	2.8	1014	-8.2	270	2	70
2026-02-09T00:49	2.7	1014	-8.6	270	2	70
2026-02-09T00:50	2.8	1014	-8.2	270	2	70
2026-02-09T00:51	2.8	1014	-7.9	270	2	70
2026-02-09T00:52	2.7	1014	-8.3	270	2	70
2026-02-09T00:53	2.6	1014	-8.7	270	2	70
2026-02-09T00:54	2.8	1014	-7.9	270	2	70
2026-02-09T00:55	3.0	1014	-6.9	270	2	70
2026-02-09T00:56	2.9	1014	-8.1	270	2	70
2026-02-09T00:57	3.1	1014	-8.0	270	2	70
2026-02-09T00:58	3.2	1014	-7.6	270	2	70
2026-02-09T00:59	3.1	1014	-7.7	270	2	70
2026-02-09T01:00	3.1	1014	-8.3	270	2	70
2026-02-09T01:01	3.3	1014	-8.1	260	2	70
2026-02-09T01:02	3.3	1014	-7.8	260	2	70
2026-02-09T01:03	3.3	1014	-7.5	270	2	70
2026-02-09T01:04	3.2	1014	-7.6	270	2	70
2026-02-09T01:05	3.3	1014	-7.8	270	2	70
2026-02-09T01:06	3.4	1014	-7.7	270	2	70
2026-02-09T01:07	3.4	1014	-8.0	270	2	70
2026-02-09T01:08	3.5	1014	-7.9	270	2	70
2026-02-09T01:09	3.7	1013	-7.7	270	2	70
2026-02-09T01:10	3.6	1013	-7.5	270	3	70
2026-02-09T01:11	3.7	1013	-7.4	270	3	70
2026-02-09T01:12	3.8	1013	-7.0	270	3	70
2026-02-09T01:13	3.8	1013	-6.7	270	3	70
2026-02-09T01:14	3.8	1013	-6.7	280	3	70
2026-02-09T01:15	3.9	1013	-7.2	280	3	70
2026-02-09T01:16	4.0	1013	-6.8	270	3	70
2026-02-09T01:17	3.7	1013	-6.8	280	3	70
2026-02-09T01:18	3.6	1013	-8.1	280	3	70
2026-02-09T01:19	3.5	1013	-7.3	290	3	70
2026-02-09T01:20	3.2	1013	-6.2	300	3	70
2026-02-09T01:21	3.3	1013	-5.9	300	3	70
2026-02-09T01:22	3.5	1013	-7.0	310	3	70
2026-02-09T01:23	3.8	1013	-7.3	310	3	70
2026-02-09T01:24	3.9	1013	-6.9	310	3	70
2026-02-09T01:25	4.0	1013	-6.8	310	3	70
2026-02-09T01:26	3.9	1013	-7.2	310	2	70
2026-02-09T01:27	3.7	1013	-7.7	300	2	70
2026-02-09T01:28	3.7	1013	-8.0	300	2	70
2026-02-09T01:29	3.9	1013	-7.2	300	2	70
2026-02-09T01:30	3.9	1013	-7.5	290	3	70
2026-02-09T01:31	3.9	1013	-6.7	290	3	70
2026-02-09T01:32	4.0	1013	-7.1	280	3	70
2026-02-09T01:33	3.9	1013	-7.2	280	3	70
2026-02-09T01:34	4.0	1013	-7.1	280	3	70
2026-02-09T01:35	4.0	1013	-7.7	280	3	70
2026-02-09T01:36	4.0	1013	-8.1	280	3	70
2026-02-09T01:37	4.3	1013	-7.2	280	3	70
2026-02-09T01:38	4.3	1013	-6.9	280	3	70
2026-02-09T01:39	4.4	1013	-7.1	280	3	70
2026-02-09T01:40	4.3	1013	-7.2	280	3	70
2026-02-09T01:41	4.1	1013	-7.7	290	3	70
2026-02-09T01:42	4.3	1013	-7.2	290	2	70
2026-02-09T01:43	4.4	1013	-6.8	290	2	70
2026-02-09T01:44	4.5	1013	-7.0	280	2	70
2026-02-09T01:45	4.5	1013	-7.3	280	2	70
2026-02-09T01:46	4.5	1013	-7.0	270	2	70
2026-02-09T01:47	4.4	1013	-7.4	270	2	70
2026-02-09T01:48	4.4	1013	-8.0	270	2	70
2026-02-09T01:49	4.2	1013	-8.5	270	2	70
2026-02-09T01:50	4.2	1013	-8.2	260	2	70
2026-02-09T01:51	4.3	1013	-7.8	260	2	70
2026-02-09T01:52	4.5	1013	-7.3	260	3	70
2026-02-09T01:53	4.5	1013	-7.3	260	3	70
2026-02-09T01:54	4.3	1013	-7.8	260	3	70
2026-02-09T01:55	4.2	1013	-8.2	260	2	70
2026-02-09T01:56	4.3	1013	-7.8	250	2	70
2026-02-09T01:57	4.3	1013	-7.8	250	2	70
2026-02-09T01:58	4.3	1013	-8.1	250	2	70
2026-02-09T01:59	4.4	1013	-8.0	250	3	70
2026-02-09T02:00	4.4	1013	-8.0	250	3	70
2026-02-09T02:01	4.3	1013	-8.1	250	3	70
2026-02-09T02:02	4.5	1013	-7.9	250	3	70
2026-02-09T02:03	4.4	1013	-8.0	240	3	70
2026-02-09T02:04	4.5	1013	-7.6	240	3	70
2026-02-09T02:05	4.6	1013	-7.5	240	3	70
2026-02-09T02:06	4.5	1013	-7.9	250	3	70
2026-02-09T02:07	4.5	1013	-7.3	250	3	70
2026-02-09T02:08	4.5	1013	-7.0	250	3	70
2026-02-09T02:09	4.8	1013	-7.0	250	3	70
2026-02-09T02:10	4.8	1013	-7.7	250	3	70
2026-02-09T02:11	4.8	1013	-7.7	250	3	70
2026-02-09T02:12	4.8	1013	-7.7	250	3	70
2026-02-09T02:13	5.0	1013	-6.8	260	3	70
2026-02-09T02:14	4.8	1013	-7.0	260	3	70
2026-02-09T02:15	4.8	1013	-7.3	260	3	70
2026-02-09T02:16	4.9	1013	-7.6	250	3	70
2026-02-09T02:17	5.0	1013	-7.5	250	4	70
2026-02-09T02:18	5.1	1013	-7.4	250	4	70
2026-02-09T02:19	5.1	1013	-7.1	250	4	70
2026-02-09T02:20	5.1	1013	-7.7	250	4	70
2026-02-09T02:21	5.2	1013	-7.0	250	4	70
2026-02-09T02:22	5.2	1013	-7.0	250	4	70
2026-02-09T02:23	5.2	1013	-6.7	250	4	70
2026-02-09T02:24	5.1	1013	-7.4	250	4	70
2026-02-09T02:25	5.3	1013	-6.6	250	4	70
2026-02-09T02:26	5.3	1013	-6.3	250	4	70
2026-02-09T02:27	5.5	1013	-6.1	250	4	70
2026-02-09T02:28	5.5	1013	-6.7	260	4	70
2026-02-09T02:29	5.5	1013	-6.4	260	4	70
2026-02-09T02:30	5.6	1013	-6.9	260	4	70
2026-02-09T02:31	5.6	1013	-6.6	260	4	70
2026-02-09T02:32	5.6	1013	-6.9	260	4	70
2026-02-09T02:33	5.6	1013	-6.3	260	4	70
2026-02-09T02:34	5.8	1013	-6.4	260	4	70
2026-02-09T02:35	5.9	1013	-6.0	260	4	70
2026-02-09T02:36	5.8	1013	-6.1	260	4	70
2026-02-09T02:37	5.8	1013	-6.1	260	4	70
2026-02-09T02:38	5.8	1013	-6.1	260	4	70
2026-02-09T02:39	5.7	1013	-6.5	260	4	70
2026-02-09T02:40	5.6	1013	-6.6	260	4	70
2026-02-09T02:41	5.5	1013	-6.1	260	4	70
2026-02-09T02:42	5.6	1013	-6.3	260	4	70
2026-02-09T02:43	5.6	1013	-6.3	260	5	70
2026-02-09T02:44	5.7	1013	-6.5	260	5	70
2026-02-09T02:45	5.8	1013	-6.4	260	5	70
2026-02-09T02:46	5.7	1013	-5.9	260	5	70
2026-02-09T02:47	5.8	1013	-6.1	260	5	70
2026-02-09T02:48	5.8	1013	-6.4	260	5	70
2026-02-09T02:49	5.8	1013	-6.1	260	5	70
2026-02-09T02:50	5.9	1013	-5.7	260	5	70
2026-02-09T02:51	6.1	1013	-5.8	260	5	70
2026-02-09T02:52	6.2	1013	-6.1	260	5	70
2026-02-09T02:53	6.1	1013	-6.5	260	5	70
2026-02-09T02:54	6.2	1013	-5.7	260	5	70
2026-02-09T02:55	6.3	1013	-5.3	260	5	70
2026-02-09T02:56	6.3	1013	-6.3	270	5	70
2026-02-09T02:57	6.2	1013	-6.4	270	5	70
2026-02-09T02:58	6.3	1013	-6.0	270	5	70
2026-02-09T02:59	6.4	1013	-5.9	270	5	70
2026-02-09T03:00	6.2	1013	-6.7	270	5	70
2026-02-09T03:01	6.4	1013	-6.2	270	5	70
2026-02-09T03:02	6.5	1013	-6.1	270	5	70
2026-02-09T03:03	6.4	1013	-6.2	270	5	70
2026-02-09T03:04	6.3	1013	-6.6	270	5	70
2026-02-09T03:05	6.2	1013	-6.7	270	5	70
2026-02-09T03:06	6.2	1013	-7.1	270	5	70
2026-02-09T03:07	6.2	1013	-7.1	270	5	70
2026-02-09T03:08	6.3	1013	-6.6	270	6	70
2026-02-09T03:09	6.2	1013	-6.1	270	6	70
2026-02-09T03:10	6.2	1013	-6.1	270	6	70
2026-02-09T03:11	6.3	1013	-5.7	270	6	70
2026-02-09T03:12	6.4	1013	-5.9	260	6	70
2026-02-09T03:13	6.4	1013	-6.2	260	6	70
2026-02-09T03:14	6.4	1013	-6.5	260	5	70
2026-02-09T03:15	6.4	1013	-6.5	260	5	70
2026-02-09T03:16	6.3	1013	-6.6	270	5	70
2026-02-09T03:17	6.2	1013	-6.7	270	5	70
2026-02-09T03:18	6.4	1013	-6.5	270	5	70
2026-02-09T03:19	6.4	1013	-6.5	270	5	70
2026-02-09T03:20	6.5	1013	-6.8	270	5	70
2026-02-09T03:21	6.5	1013	-6.4	270	5	70
2026-02-09T03:22	6.5	1013	-6.1	270	5	70
2026-02-09T03:23	6.6	1013	-6.4	280	5	70
2026-02-09T03:24	6.5	1013	-6.4	280	5	70
2026-02-09T03:25	6.4	1013	-6.5	270	5	70
2026-02-09T03:26	6.6	1013	-6.4	270	4	70
2026-02-09T03:27	6.7	1013	-6.6	270	4	70
2026-02-09T03:28	6.6	1013	-7.0	270	5	70
2026-02-09T03:29	6.6	1013	-6.4	280	4	70
2026-02-09T03:30	6.5	1013	-7.1	280	4	70
2026-02-09T03:31	6.6	1013	-7.0	270	4	70
2026-02-09T03:32	6.8	1013	-6.5	270	4	70
2026-02-09T03:33	6.7	1013	-6.3	270	5	70
2026-02-09T03:34	6.7	1013	-6.3	270	5	70
2026-02-09T03:35	6.8	1013	-6.5	270	5	70
2026-02-09T03:36	6.7	1013	-5.9	270	5	70
2026-02-09T03:37	7.0	1013	-5.7	270	5	70
2026-02-09T03:38	6.9	1013	-6.4	280	5	70
2026-02-09T03:39	6.7	1013	-6.6	270	5	70
2026-02-09T03:40	6.5	1013	-7.1	270	5	70
2026-02-09T03:41	6.6	1013	-6.7	280	5	70
2026-02-09T03:42	6.8	1013	-5.8	280	5	70
2026-02-09T03:43	6.6	1013	-7.0	280	5	70
2026-02-09T03:44	6.7	1013	-7.0	280	5	70
2026-02-09T03:45	6.8	1013	-6.2	280	5	70
2026-02-09T03:46	6.8	1013	-6.5	280	5	70
2026-02-09T03:47	7.1	1013	-5.6	280	5	70
2026-02-09T03:48	7.0	1013	-6.7	280	5	70
2026-02-09T03:49	7.0	1013	-6.7	280	5	70
2026-02-09T03:50	6.9	1013	-7.1	280	5	70
2026-02-09T03:51	6.9	1013	-7.1	270	6	70
2026-02-09T03:52	6.9	1013	-7.1	270	5	70
2026-02-09T03:53	7.0	1013	-6.7	270	6	70
2026-02-09T03:54	6.9	1013	-7.1	270	6	70
2026-02-09T03:55	6.8	1013	-7.2	280	6	70
2026-02-09T03:56	6.7	1013	-7.7	280	6	70
2026-02-09T03:57	6.7	1013	-7.7	280	6	70
2026-02-09T03:58	6.7	1013	-7.0	280	6	70
2026-02-09T03:59	6.8	1013	-7.2	280	6	70
2026-02-09T04:00	7.1	1013	-6.6	280	6	70
2026-02-09T04:01	7.1	1013	-6.6	280	6	70
2026-02-09T04:02	7.1	1013	-6.9	280	6	70
2026-02-09T04:03	6.9	1013	-7.1	280	6	70
2026-02-09T04:04	6.7	1013	-7.0	280	6	70
2026-02-09T04:05	7.0	1013	-6.7	280	6	70
2026-02-09T04:06	7.3	1013	-6.1	280	6	70
2026-02-09T04:07	7.3	1013	-5.7	280	6	70
2026-02-09T04:08	7.3	1013	-6.4	280	5	70
2026-02-09T04:09	7.5	1013	-5.9	280	5	70
2026-02-09T04:10	7.5	1013	-5.9	280	5	70
2026-02-09T04:11	7.5	1013	-6.6	280	5	70
2026-02-09T04:12	7.5	1013	-6.2	280	5	70
2026-02-09T04:13	7.1	1013	-6.9	280	5	70
2026-02-09T04:14	7.4	1013	-6.7	280	5	70
2026-02-09T04:15	7.4	1013	-6.7	280	5	70
2026-02-09T04:16	7.3	1013	-6.4	280	5	70
2026-02-09T04:17	7.2	1013	-7.2	280	5	70
2026-02-09T04:18	7.0	1013	-7.0	270	5	70
2026-02-09T04:19	7.2	1013	-6.5	270	5	70
2026-02-09T04:20	7.2	1013	-6.9	270	5	70
2026-02-09T04:21	7.3	1013	-6.4	270	5	70
2026-02-09T04:22	7.5	1013	-5.9	270	5	70
2026-02-09T04:23	7.5	1013	-6.2	270	5	70
2026-02-09T04:24	7.5	1013	-6.2	270	5	70
2026-02-09T04:25	7.5	1013	-6.2	270	6	70
2026-02-09T04:26	7.6	1013	-5.8	270	6	70
2026-02-09T04:27	7.5	1013	-6.6	270	6	70
2026-02-09T04:28	7.5	1013	-5.9	270	6	70
2026-02-09T04:29	7.6	1013	-5.8	270	6	70
2026-02-09T04:30	7.7	1013	-5.7	270	6	70
2026-02-09T04:31	7.8	1013	-6.0	270	6	70
2026-02-09T04:32	7.7	1013	-6.4	270	5	70
2026-02-09T04:33	7.7	1013	-6.8	270	5	70
2026-02-09T04:34	7.7	1013	-6.8	270	6	70
2026-02-09T04:35	7.7	1013	-7.2	280	6	70
2026-02-09T04:36	7.6	1013	-6.9	280	6	70
2026-02-09T04:37	7.6	1014	-6.5	280	5	70
2026-02-09T04:38	7.8	1014	-6.3	280	5	70
2026-02-09T04:39	7.7	1014	-6.4	280	5	70
2026-02-09T04:40	7.3	1014	-7.1	280	5	70
2026-02-09T04:41	7.4	1014	-6.7	280	6	70
2026-02-09T04:42	7.6	1014	-6.5	280	6	70
2026-02-09T04:43	7.5	1014	-7.0	280	6	70
2026-02-09T04:44	7.7	1014	-6.4	280	6	70
2026-02-09T04:45	7.8	1014	-6.3	280	6	70
2026-02-09T04:46	7.8	1014	-6.3	270	6	70
2026-02-09T04:47	7.8	1014	-6.3	270	6	70
2026-02-09T04:48	7.8	1014	-6.0	270	7	70
2026-02-09T04:49	7.7	1014	-6.1	270	7	70
2026-02-09T04:50	7.7	1014	-6.1	270	7	70
2026-02-09T04:51	7.7	1014	-6.4	270	6	70
2026-02-09T04:52	7.7	1014	-5.7	270	6	70
2026-02-09T04:53	7.8	1014	-6.0	270	6	70
2026-02-09T04:54	7.7	1014	-6.4	270	6	70
2026-02-09T04:55	7.7	1014	-6.8	270	6	70
2026-02-09T04:56	7.6	1014	-6.1	270	6	70
2026-02-09T04:57	7.6	1014	-6.1	270	6	70
2026-02-09T04:58	7.6	1014	-6.1	270	5	70
2026-02-09T04:59	7.6	1014	-6.1	270	5	70
2026-02-09T05:00	7.8	1014	-6.0	280	5	70
2026-02-09T05:01	7.9	1014	-6.2	280	5	70
2026-02-09T05:02	7.8	1014	-6.0	280	5	70
2026-02-09T05:03	7.8	1014	-6.3	290	4	70
2026-02-09T05:04	7.8	1014	-5.3	290	4	70
2026-02-09T05:05	7.7	1014	-6.1	290	4	70
2026-02-09T05:06	7.6	1014	-6.1	290	4	70
2026-02-09T05:07	7.6	1014	-5.8	290	4	70
2026-02-09T05:08	8.0	1014	-5.1	290	4	70
2026-02-09T05:09	7.9	1014	-6.2	290	4	70
2026-02-09T05:10	7.9	1014	-6.2	290	4	70
2026-02-09T05:11	7.9	1014	-6.2	280	4	70
2026-02-09T05:12	7.9	1014	-5.9	280	4	70
2026-02-09T05:13	8.0	1014	-5.8	280	4	70
2026-02-09T05:14	8.0	1014	-5.8	270	5	70
2026-02-09T05:15	8.1	1014	-6.1	270	5	70
2026-02-09T05:16	8.1	1014	-5.7	270	5	70
2026-02-09T05:17	8.1	1014	-5.7	280	5	70
2026-02-09T05:18	8.0	1014	-6.1	280	5	70
2026-02-09T05:19	7.9	1014	-6.6	280	5	70
2026-02-09T05:20	7.8	1014	-6.7	280	5	70
2026-02-09T05:21	7.6	1014	-6.5	280	5	70
2026-02-09T05:22	7.9	1014	-5.9	280	5	70
2026-02-09T05:23	8.1	1014	-5.7	280	5	70
2026-02-09T05:24	8.2	1014	-4.9	280	5	70
2026-02-09T05:25	8.2	1014	-4.9	280	5	70
2026-02-09T05:26	8.3	1014	-5.2	280	5	70
2026-02-09T05:27	8.2	1014	-5.3	280	5	70
2026-02-09T05:28	8.3	1014	-5.9	280	4	70
2026-02-09T05:29	8.4	1014	-5.4	270	5	70
2026-02-09T05:30	8.5	1014	-5.0	270	5	70
2026-02-09T05:31	8.4	1014	-6.2	270	5	70
2026-02-09T05:32	8.2	1014	-6.0	270	5	70
2026-02-09T05:33	8.2	1014	-6.0	270	5	70
2026-02-09T05:34	8.0	1014	-6.5	270	5	70
2026-02-09T05:35	8.1	1014	-6.1	280	5	70
2026-02-09T05:36	8.1	1014	-6.4	280	5	70
2026-02-09T05:37	8.1	1015	-6.4	280	5	70
2026-02-09T05:38	8.1	1015	-6.4	280	6	70
2026-02-09T05:39	8.0	1015	-6.5	280	6	70
2026-02-09T05:40	8.1	1015	-6.1	280	5	70
2026-02-09T05:41	8.2	1015	-6.0	280	5	70
2026-02-09T05:42	8.2	1015	-6.0	280	5	70
2026-02-09T05:43	8.1	1015	-5.7	280	5	70
2026-02-09T05:44	8.1	1015	-5.3	280	5	70
2026-02-09T05:45	8.3	1015	-5.9	280	5	70
2026-02-09T05:46	8.3	1015	-5.9	280	5	70
2026-02-09T05:47	8.5	1015	-5.3	280	5	70
2026-02-09T05:48	8.2	1015	-6.0	280	5	70
2026-02-09T05:49	8.2	1015	-5.6	280	4	70
2026-02-09T05:50	8.1	1015	-5.7	280	5	70
2026-02-09T05:51	8.0	1015	-6.1	280	5	70
2026-02-09T05:52	8.0	1015	-6.1	280	5	70
2026-02-09T05:53	8.2	1015	-5.3	280	5	70
2026-02-09T05:54	8.0	1015	-6.5	280	5	70
2026-02-09T05:55	8.0	1015	-6.1	280	5	70
2026-02-09T05:56	7.9	1015	-6.6	280	5	70
2026-02-09T05:57	7.9	1015	-6.6	290	5	70
2026-02-09T05:58	7.8	1015	-7.1	290	5	70
2026-02-09T05:59	7.9	1015	-6.2	290	5	70
2026-02-09T06:00	7.9	1015	-6.2	280	5	70
2026-02-09T06:01	7.8	1015	-6.3	290	5	70
2026-02-09T06:02	7.8	1015	-6.3	290	5	70
2026-02-09T06:03	7.9	1015	-5.9	290	5	70
2026-02-09T06:04	7.8	1015	-6.3	290	5	70
2026-02-09T06:05	7.7	1015	-6.4	290	5	70
2026-02-09T06:06	7.8	1015	-6.3	290	5	70
2026-02-09T06:07	7.9	1015	-5.5	280	5	70
2026-02-09T06:08	7.8	1015	-6.3	280	5	70
2026-02-09T06:09	7.7	1015	-6.4	280	5	70
2026-02-09T06:10	7.6	1015	-6.1	290	4	70
2026-02-09T06:11	7.6	1015	-6.1	290	5	70
2026-02-09T06:12	7.6	1015	-6.5	290	4	70
2026-02-09T06:13	7.6	1015	-6.5	300	4	70
2026-02-09T06:14	7.8	1015	-6.0	290	4	70
2026-02-09T06:15	7.9	1015	-5.9	290	4	70
2026-02-09T06:16	7.8	1015	-6.7	290	4	70
2026-02-09T06:17	7.9	1015	-7.0	290	4	70
2026-02-09T06:18	7.7	1015	-6.4	300	4	70
2026-02-09T06:19	7.6	1015	-6.5	290	4	70
2026-02-09T06:20	7.8	1015	-6.3	290	4	70
2026-02-09T06:21	7.9	1015	-6.2	290	4	70
2026-02-09T06:22	7.6	1015	-6.9	290	5	70
2026-02-09T06:23	7.6	1015	-6.5	280	4	70
2026-02-09T06:24	7.7	1015	-6.8	280	4	70
2026-02-09T06:25	7.7	1015	-6.4	280	4	70
2026-02-09T06:26	7.6	1015	-6.5	280	4	70
2026-02-09T06:27	7.5	1015	-6.2	290	4	70
2026-02-09T06:28	7.4	1015	-6.7	290	4	70
2026-02-09T06:29	7.6	1015	-6.1	290	4	70
2026-02-09T06:30	7.7	1015	-6.1	290	4	70
2026-02-09T06:31	7.6	1015	-6.1	290	4	70
2026-02-09T06:32	7.5	1015	-6.6	290	4	70
2026-02-09T06:33	7.5	1015	-6.6	290	4	70
2026-02-09T06:34	7.3	1015	-6.4	300	4	70
2026-02-09T06:35	7.3	1015	-6.1	300	4	70
2026-02-09T06:36	7.6	1015	-6.5	300	4	70
2026-02-09T06:37	7.4	1015	-6.3	300	4	70
2026-02-09T06:38	7.5	1015	-6.2	300	4	70
2026-02-09T06:39	7.5	1015	-6.2	300	4	70
2026-02-09T06:40	7.4	1015	-6.7	300	3	70
2026-02-09T06:41	7.4	1015	-6.3	300	3	70
2026-02-09T06:42	7.5	1015	-6.2	300	3	70
2026-02-09T06:43	7.5	1015	-6.2	300	3	70
2026-02-09T06:44	7.6	1015	-6.1	290	3	70
2026-02-09T06:45	7.7	1015	-6.1	290	3	70
2026-02-09T06:46	7.7	1015	-6.1	280	3	70
2026-02-09T06:47	7.4	1015	-6.3	280	3	70
2026-02-09T06:48	7.5	1015	-6.2	280	3	70
2026-02-09T06:49	7.4	1015	-6.3	270	4	70
2026-02-09T06:50	7.2	1015	-6.5	280	4	70
2026-02-09T06:51	7.4	1015	-6.3	280	4	70
2026-02-09T06:52	7.3	1015	-6.4	280	4	70
2026-02-09T06:53	7.2	1015	-6.2	280	4	70
2026-02-09T06:54	7.0	1015	-6.3	280	4	70
2026-02-09T06:55	7.1	1015	-6.2	280	4	70
2026-02-09T06:56	7.1	1015	-6.2	280	4	70
2026-02-09T06:57	7.3	1015	-6.1	280	4	70
2026-02-09T06:58	7.0	1015	-6.3	290	4	70
2026-02-09T06:59	7.0	1015	-6.7	290	4	70
2026-02-09T07:00	7.2	1015	-6.5	290	4	70
2026-02-09T07:01	7.1	1015	-6.6	290	4	70
2026-02-09T07:02	7.0	1015	-6.3	290	4	70
2026-02-09T07:03	7.0	1015	-6.3	290	4	70
2026-02-09T07:04	7.1	1015	-6.2	290	4	70
2026-02-09T07:05	7.0	1015	-6.3	290	4	70
2026-02-09T07:06	6.9	1015	-6.4	290	4	70
2026-02-09T07:07	7.0	1015	-5.7	290	4	70
2026-02-09T07:08	6.9	1015	-6.4	290	4	70
2026-02-09T07:09	7.0	1015	-6.0	290	3	70
2026-02-09T07:10	7.0	1015	-6.3	280	3	70
2026-02-09T07:11	7.0	1015	-6.3	280	3	70
2026-02-09T07:12	7.1	1015	-5.9	280	3	70
2026-02-09T07:13	6.9	1015	-6.1	280	3	70
2026-02-09T07:14	6.9	1015	-6.4	280	3	70
2026-02-09T07:15	6.8	1015	-6.5	280	3	70
2026-02-09T07:16	6.6	1015	-6.4	270	3	70
2026-02-09T07:17	6.4	1015	-6.2	270	3	70
2026-02-09T07:18	6.8	1015	-6.2	270	2	70
2026-02-09T07:19	7.0	1015	-6.3	270	2	70
2026-02-09T07:20	6.8	1015	-6.5	270	2	70
2026-02-09T07:21	6.8	1015	-6.5	270	2	70
2026-02-09T07:22	6.8	1015	-6.9	280	2	70
2026-02-09T07:23	7.0	1015	-6.7	290	2	70
2026-02-09T07:24	6.7	1016	-6.6	290	2	70
2026-02-09T07:25	6.6	1016	-6.7	290	2	70
2026-02-09T07:26	6.9	1016	-6.8	290	2	70
2026-02-09T07:27	6.8	1016	-6.9	300	2	70
2026-02-09T07:28	6.7	1016	-6.6	300	2	70
2026-02-09T07:29	6.7	1016	-6.6	290	2	70
2026-02-09T07:30	6.7	1016	-6.6	290	2	70
2026-02-09T07:31	6.6	1016	-6.4	290	2	70
2026-02-09T07:32	6.7	1016	-6.3	280	2	70
2026-02-09T07:33	6.7	1016	-6.6	280	2	70
2026-02-09T07:34	6.8	1016	-6.5	280	2	70
2026-02-09T07:35	6.5	1016	-6.4	290	2	70
2026-02-09T07:36	6.5	1016	-6.8	280	2	70
2026-02-09T07:37	6.5	1016	-6.4	280	2	70
2026-02-09T07:38	6.3	1016	-6.0	280	2	70
2026-02-09T07:39	6.6	1016	-6.0	280	2	70
2026-02-09T07:40	6.5	1016	-6.1	280	2	70
2026-02-09T07:41	6.2	1016	-6.1	290	2	70
2026-02-09T07:42	6.3	1016	-6.3	280	2	70
2026-02-09T07:43	6.5	1016	-6.4	290	2	70
2026-02-09T07:44	6.3	1016	-6.3	290	2	70
2026-02-09T07:45	6.1	1016	-6.1	280	2	70
2026-02-09T07:46	5.8	1016	-6.1	280	2	70
2026-02-09T07:47	6.2	1016	-6.1	290	2	70
2026-02-09T07:48	6.3	1016	-6.3	290	2	70
2026-02-09T07:49	6.1	1016	-6.1	290	2	70
2026-02-09T07:50	6.3	1016	-6.3	300	2	70
2026-02-09T07:51	6.0	1016	-6.2	300	2	70
2026-02-09T07:52	5.8	1016	-6.4	300	2	70
2026-02-09T07:53	5.9	1016	-6.3	300	2	70
2026-02-09T07:54	5.7	1016	-6.2	300	1	70
2026-02-09T07:55	5.5	1016	-6.1	300	1	70
2026-02-09T07:56	5.2	1016	-5.5	310	1	70
2026-02-09T07:57	5.3	1016	-5.7	300	1	70
2026-02-09T07:58	4.9	1016	-5.7	310	1	70
2026-02-09T07:59	5.4	1016	-5.9	310	2	70
2026-02-09T08:00	5.2	1016	-5.7	310	2	70
2026-02-09T08:01	5.4	1016	-5.9	320	2	70
2026-02-09T08:02	5.2	1016	-6.0	320	2	70
2026-02-09T08:03	5.2	1016	-6.0	310	2	70
2026-02-09T08:04	5.2	1016	-5.7	310	2	70
2026-02-09T08:05	5.5	1016	-6.1	320	2	70
2026-02-09T08:06	5.5	1016	-6.1	320	2	70
2026-02-09T08:07	5.6	1016	-6.3	320	3	70
2026-02-09T08:08	5.3	1016	-6.3	320	3	70
2026-02-09T08:09	5.2	1016	-6.0	310	3	70
2026-02-09T08:10	5.2	1016	-6.0	310	3	70
2026-02-09T08:11	5.3	1016	-6.0	310	2	70
2026-02-09T08:12	5.1	1016	-5.8	310	2	70
2026-02-09T08:13	4.7	1016	-5.9	310	2	70
2026-02-09T08:14	4.8	1016	-5.8	310	2	70
2026-02-09T08:15	5.2	1016	-5.7	310	2	70
2026-02-09T08:16	5.4	1016	-5.9	310	2	70
2026-02-09T08:17	5.2	1016	-6.0	310	2	70
2026-02-09T08:18	5.1	1017	-5.8	300	2	70
2026-02-09T08:19	5.2	1017	-5.7	300	2	70
2026-02-09T08:20	5.2	1017	-5.7	300	2	70
2026-02-09T08:21	5.1	1017	-5.8	290	2	70
2026-02-09T08:22	5.3	1017	-6.0	290	2	70
2026-02-09T08:23	5.2	1017	-6.0	280	2	70
2026-02-09T08:24	5.2	1017	-6.0	270	2	70
2026-02-09T08:25	5.0	1017	-5.9	270	2	70
2026-02-09T08:26	4.9	1017	-5.7	260	2	70
2026-02-09T08:27	4.8	1017	-5.8	250	2	70
2026-02-09T08:28	4.6	1017	-5.7	250	2	70
2026-02-09T08:29	4.8	1017	-5.5	240	2	70
2026-02-09T08:30	4.7	1017	-5.6	240	2	70
2026-02-09T08:31	4.4	1017	-5.6	240	1	70
2026-02-09T08:32	4.3	1017	-5.7	230	1	70
2026-02-09T08:33	4.1	1017	-5.6	230	1	70
2026-02-09T08:34	4.1	1017	-5.6	230	1	70
2026-02-09T08:35	3.1	1017	-6.0	220	1	70
2026-02-09T08:36	2.9	1017	-6.0	220	1	70
2026-02-09T08:37	2.9	1017	-5.2	220	1	70
2026-02-09T08:38	3.0	1017	-4.4	230	1	70
2026-02-09T08:39	3.2	1017	-4.2	240	1	70
2026-02-09T08:40	2.9	1017	-4.5	240	0	70
2026-02-09T08:41	2.6	1017	-4.6	250	0	70
2026-02-09T08:42	2.6	1017	-4.8	0	0	70
2026-02-09T08:43	2.3	1017	-4.9	0	0	70
2026-02-09T08:44	2.3	1017	-4.9	0	0	70
2026-02-09T08:45	2.4	1017	-4.8	0	0	70
2026-02-09T08:46	2.7	1017	-4.7	0	0	70
2026-02-09T08:47	2.8	1017	-4.9	0	0	70
2026-02-09T08:48	3.0	1017	-5.1	0	0	70
2026-02-09T08:49	2.9	1017	-5.2	250	0	70
2026-02-09T08:50	2.6	1017	-5.8	230	0	70
2026-02-09T08:51	2.6	1017	-5.5	200	1	70
2026-02-09T08:52	2.8	1017	-5.6	180	1	70
2026-02-09T08:53	2.8	1017	-5.6	160	1	70
2026-02-09T08:54	2.8	1017	-5.8	150	1	70
2026-02-09T08:55	1.8	1017	-6.5	140	1	70
2026-02-09T08:56	1.5	1017	-6.1	140	1	70
2026-02-09T08:57	1.3	1017	-6.0	130	1	70
2026-02-09T08:58	1.6	1017	-5.5	130	1	70
2026-02-09T08:59	1.8	1017	-5.1	130	1	70
2026-02-09T09:00	2.1	1017	-5.1	130	1	70
2026-02-09T09:01	2.3	1017	-4.9	130	1	70
2026-02-09T09:02	2.4	1017	-5.0	130	1	70
2026-02-09T09:03	2.4	1017	-5.2	130	1	70
2026-02-09T09:04	2.3	1017	-5.3	140	1	70
2026-02-09T09:05	2.4	1017	-5.5	140	1	70
2026-02-09T09:06	2.3	1017	-5.6	150	1	70
2026-02-09T09:07	1.9	1017	-5.7	150	1	70
2026-02-09T09:08	2.0	1017	-5.6	160	1	70
2026-02-09T09:09	1.7	1017	-5.7	160	1	70
2026-02-09T09:10	1.4	1017	-5.7	170	1	70
2026-02-09T09:11	1.5	1017	-5.2	180	1	70
2026-02-09T09:12	1.6	1017	-5.1	180	1	70
2026-02-09T09:13	1.6	1017	-5.1	190	1	70
2026-02-09T09:14	1.7	1017	-4.8	190	1	70
2026-02-09T09:15	1.9	1017	-5.0	190	1	70
2026-02-09T09:16	1.8	1017	-5.1	200	1	70
2026-02-09T09:17	2.0	1017	-5.2	200	1	70
2026-02-09T09:18	2.4	1017	-5.0	200	1	70
2026-02-09T09:19	2.8	1017	-4.9	200	1	70
2026-02-09T09:20	3.2	1017	-5.0	200	1	70
2026-02-09T09:21	3.0	1017	-5.4	200	1	70
2026-02-09T09:22	2.4	1017	-5.9	200	1	70
2026-02-09T09:23	1.9	1018	-6.2	200	1	70
2026-02-09T09:24	2.0	1018	-5.6	200	2	70
2026-02-09T09:25	1.9	1017	-5.7	210	2	70
2026-02-09T09:26	1.5	1017	-5.8	210	1	70
2026-02-09T09:27	0.8	1017	-6.3	220	1	70
2026-02-09T09:28	1.5	1017	-5.6	220	1	70
2026-02-09T09:29	1.6	1018	-5.5	240	1	70
2026-02-09T09:30	1.6	1018	-5.5	250	1	70
2026-02-09T09:31	1.4	1018	-5.7	270	1	70
2026-02-09T09:32	1.2	1018	-5.7	280	1	70
2026-02-09T09:33	1.0	1018	-5.4	300	1	70
2026-02-09T09:34	1.4	1018	-5.1	310	1	70
2026-02-09T09:35	1.4	1018	-5.3	320	1	70
2026-02-09T09:36	1.4	1018	-5.3	330	1	70
2026-02-09T09:37	1.0	1018	-5.4	330	0	70
2026-02-09T09:38	1.0	1018	-5.0	340	1	70
2026-02-09T09:39	1.2	1018	-4.8	330	0	70
2026-02-09T09:40	1.4	1018	-5.1	330	0	70
2026-02-09T09:41	1.2	1018	-5.3	210	0	70
2026-02-09T09:42	1.1	1018	-5.3	280	1	70
2026-02-09T09:43	0.8	1018	-5.4	250	1	70
2026-02-09T09:44	0.8	1018	-5.4	220	1	70
2026-02-09T09:45	0.9	1018	-5.3	210	1	70
2026-02-09T09:46	1.2	1018	-5.0	200	1	70
2026-02-09T09:47	1.4	1018	-5.3	200	1	70
2026-02-09T09:48	1.6	1018	-5.3	190	1	70
2026-02-09T09:49	1.1	1018	-5.8	190	1	70
2026-02-09T09:50	1.1	1018	-5.6	180	1	70
2026-02-09T09:51	0.8	1018	-5.6	170	1	70
2026-02-09T09:52	0.2	1018	-5.8	170	1	70
2026-02-09T09:53	0.1	1018	-5.5	160	1	70
2026-02-09T09:54	0.8	1018	-5.0	160	1	70
2026-02-09T09:55	1.2	1018	-4.8	160	1	70
2026-02-09T09:56	0.9	1018	-5.3	160	1	70
2026-02-09T09:57	0.7	1018	-5.5	160	0	70
2026-02-09T09:58	0.9	1018	-5.1	170	1	70
2026-02-09T09:59	1.2	1018	-5.0	170	1	70
2026-02-09T10:00	1.1	1018	-5.3	180	1	70
2026-02-09T10:01	1.8	1018	-5.1	180	1	70
2026-02-09T10:02	1.4	1018	-5.7	180	1	70
2026-02-09T10:03	0.9	1018	-5.8	190	1	70
2026-02-09T10:04	1.2	1018	-5.5	190	1	70
2026-02-09T10:05	1.6	1018	-5.3	190	1	70
2026-02-09T10:06	1.6	1018	-5.3	180	1	70
2026-02-09T10:07	1.6	1018	-5.3	180	1	70
2026-02-09T10:08	1.6	1018	-5.5	180	1	70
2026-02-09T10:09	1.9	1018	-5.2	180	2	70
2026-02-09T10:10	2.0	1018	-5.4	190	2	70
2026-02-09T10:11	2.2	1018	-5.4	190	2	70
2026-02-09T10:12	2.4	1018	-5.5	200	2	70
2026-02-09T10:13	2.2	1018	-5.9	200	2	70
2026-02-09T10:14	2.6	1018	-5.5	200	2	70
2026-02-09T10:15	2.8	1018	-5.6	210	2	70
2026-02-09T10:16	2.1	1018	-6.2	210	2	70
2026-02-09T10:17	1.6	1018	-6.5	220	2	70
2026-02-09T10:18	1.1	1018	-6.5	220	2	70
2026-02-09T10:19	1.1	1018	-6.0	230	2	70
2026-02-09T10:20	1.3	1018	-5.6	230	2	70
2026-02-09T10:21	1.0	1018	-5.9	230	1	70
2026-02-09T10:22	1.0	1018	-5.9	230	1	70
2026-02-09T10:23	1.8	1018	-5.3	230	1	70
2026-02-09T10:24	1.9	1018	-5.5	240	1	70
2026-02-09T10:25	1.9	1018	-5.5	240	1	70
2026-02-09T10:26	2.2	1018	-5.4	240	1	70
2026-02-09T10:27	1.8	1018	-6.0	240	1	70
2026-02-09T10:28	1.6	1018	-6.0	240	1	70
2026-02-09T10:29	1.6	1018	-6.0	240	1	70
2026-02-09T10:30	2.0	1018	-5.6	240	1	70
2026-02-09T10:31	2.5	1018	-5.4	240	1	70
2026-02-09T10:32	2.8	1018	-5.6	240	2	70
2026-02-09T10:33	2.8	1018	-5.8	240	2	70
2026-02-09T10:34	3.0	1018	-5.9	240	2	70
2026-02-09T10:35	2.3	1018	-6.3	240	2	70
2026-02-09T10:36	2.7	1018	-5.9	240	2	70
2026-02-09T10:37	2.3	1018	-6.3	240	2	70
2026-02-09T10:38	2.9	1018	-5.7	240	2	70
2026-02-09T10:39	2.8	1018	-6.1	240	2	70
2026-02-09T10:40	2.8	1018	-6.1	240	2	70
2026-02-09T10:41	2.4	1018	-6.4	240	2	70
2026-02-09T10:42	2.6	1018	-6.0	240	2	70
2026-02-09T10:43	2.6	1018	-6.0	240	2	70
2026-02-09T10:44	2.7	1018	-5.9	240	2	70
2026-02-09T10:45	2.9	1018	-6.0	240	2	70
2026-02-09T10:46	2.5	1018	-6.3	240	2	70
2026-02-09T10:47	2.6	1018	-6.0	240	2	70
2026-02-09T10:48	3.0	1018	-5.6	240	2	70
2026-02-09T10:49	2.8	1018	-6.1	230	2	70
2026-02-09T10:50	2.8	1018	-6.1	230	2	70
2026-02-09T10:51	2.9	1018	-6.0	230	2	70
2026-02-09T10:52	2.3	1018	-6.5	230	2	70
2026-02-09T10:53	2.1	1018	-6.5	230	2	70
2026-02-09T10:54	2.7	1018	-5.7	230	2	70
2026-02-09T10:55	2.7	1018	-5.9	230	2	70
2026-02-09T10:56	2.6	1018	-6.0	230	2	70
2026-02-09T10:57	2.3	1018	-6.3	230	2	70
2026-02-09T10:58	2.4	1019	-5.9	230	2	70
2026-02-09T10:59	2.5	1019	-5.8	230	2	70
2026-02-09T11:00	2.4	1019	-5.9	230	2	70
2026-02-09T11:01	2.3	1019	-6.0	230	2	70
2026-02-09T11:02	2.0	1019	-6.3	240	2	70
2026-02-09T11:03	1.9	1019	-6.4	240	2	70
2026-02-09T11:04	1.8	1019	-6.3	240	2	70
2026-02-09T11:05	2.0	1019	-6.1	240	2	70
2026-02-09T11:06	2.6	1019	-5.5	240	2	70
2026-02-09T11:07	2.5	1019	-5.8	240	2	70
2026-02-09T11:08	2.2	1019	-6.1	240	2	70
2026-02-09T11:09	1.9	1019	-6.4	240	2	70
2026-02-09T11:10	1.9	1019	-6.2	240	2	70
2026-02-09T11:11	2.0	1019	-6.1	240	2	70
2026-02-09T11:12	2.0	1019	-6.1	240	2	70
2026-02-09T11:13	2.1	1019	-6.0	240	2	70
2026-02-09T11:14	2.1	1019	-6.0	240	2	70
2026-02-09T11:15	2.2	1019	-5.9	240	1	70
2026-02-09T11:16	2.3	1019	-5.8	240	1	70
2026-02-09T11:17	2.1	1019	-5.7	230	1	70
2026-02-09T11:18	2.1	1019	-5.7	230	2	70
2026-02-09T11:19	2.3	1019	-5.8	230	2	70
2026-02-09T11:20	2.3	1019	-5.8	230	2	70
2026-02-09T11:21	1.8	1019	-6.3	230	2	70
2026-02-09T11:22	1.4	1019	-6.4	220	2	70
2026-02-09T11:23	1.3	1019	-6.3	220	2	70
2026-02-09T11:24	1.6	1019	-5.8	220	2	70
2026-02-09T11:25	1.9	1019	-5.7	220	2	70
2026-02-09T11:26	1.9	1019	-5.7	230	2	70
2026-02-09T11:27	1.9	1019	-5.7	230	2	70
2026-02-09T11:28	2.0	1019	-5.6	230	2	70
2026-02-09T11:29	1.8	1019	-6.0	230	2	70
2026-02-09T11:30	1.9	1019	-5.9	230	2	70
2026-02-09T11:31	1.6	1019	-6.2	240	2	70
2026-02-09T11:32	1.2	1019	-6.1	240	2	70
2026-02-09T11:33	1.6	1019	-5.8	240	2	70
2026-02-09T11:34	1.5	1019	-5.8	240	2	70
2026-02-09T11:35	1.7	1019	-5.7	240	2	70
2026-02-09T11:36	1.6	1019	-6.0	240	2	70
2026-02-09T11:37	1.8	1019	-5.8	240	2	70
2026-02-09T11:38	2.0	1019	-5.6	240	2	70
2026-02-09T11:39	1.7	1019	-6.1	250	2	70
2026-02-09T11:40	1.7	1019	-5.9	250	2	70
2026-02-09T11:41	1.8	1019	-5.8	250	2	70
2026-02-09T11:42	2.0	1019	-5.6	240	2	70
2026-02-09T11:43	2.2	1019	-5.4	240	2	70
2026-02-09T11:44	2.2	1019	-5.7	240	2	70
2026-02-09T11:45	2.0	1019	-5.8	240	2	70
2026-02-09T11:46	1.9	1019	-5.9	240	2	70
2026-02-09T11:47	2.0	1019	-5.8	230	2	70
2026-02-09T11:48	1.8	1019	-6.0	230	2	70
2026-02-09T11:49	1.6	1019	-6.0	230	2	70
2026-02-09T11:50	2.0	1019	-5.6	230	2	70
2026-02-09T11:51	1.9	1019	-5.7	230	2	70
2026-02-09T11:52	1.7	1019	-5.9	230	1	70
2026-02-09T11:53	1.8	1019	-5.8	230	1	70
2026-02-09T11:54	2.0	1019	-5.6	230	1	70
2026-02-09T11:55	1.5	1019	-6.1	230	1	70
2026-02-09T11:56	1.7	1019	-5.9	230	1	70
2026-02-09T11:57	1.7	1019	-5.9	230	1	70
2026-02-09T11:58	1.5	1019	-6.1	230	1	70
2026-02-09T11:59	1.6	1019	-5.8	230	1	70
2026-02-09T12:00	1.4	1019	-5.9	230	1	70
2026-02-09T12:01	1.6	1019	-5.8	240	1	70
2026-02-09T12:02	1.3	1019	-6.0	240	1	70
2026-02-09T12:03	0.8	1019	-6.3	240	1	70
2026-02-09T12:04	0.5	1019	-6.1	240	2	70
2026-02-09T12:05	0.7	1019	-5.9	250	2	70
2026-02-09T12:06	1.0	1019	-5.7	250	2	70
2026-02-09T12:07	1.2	1019	-5.5	250	2	70
2026-02-09T12:08	0.8	1019	-6.1	250	2	70
2026-02-09T12:09	0.5	1019	-6.1	250	2	70
2026-02-09T12:10	0.4	1019	-6.0	250	2	70
2026-02-09T12:11	0.6	1019	-5.8	250	2	70
2026-02-09T12:12	0.4	1019	-5.8	250	2	70
2026-02-09T12:13	0.4	1019	-5.8	250	2	70
2026-02-09T12:14	0.6	1019	-5.6	250	2	70
2026-02-09T12:15	0.6	1019	-5.6	250	2	70
2026-02-09T12:16	1.1	1019	-5.1	240	2	70
2026-02-09T12:17	1.3	1019	-5.2	240	2	70
2026-02-09T12:18	1.5	1019	-5.2	240	2	70
2026-02-09T12:19	1.2	1019	-5.7	240	2	70
2026-02-09T12:20	1.2	1019	-5.7	240	2	70
2026-02-09T12:21	0.9	1019	-6.0	240	2	70
2026-02-09T12:22	1.2	1019	-5.5	240	2	70
2026-02-09T12:23	1.4	1019	-5.5	240	2	70
2026-02-09T12:24	1.4	1019	-5.5	240	2	70
2026-02-09T12:25	1.0	1019	-6.1	240	2	70
2026-02-09T12:26	0.9	1019	-6.0	240	2	70
2026-02-09T12:27	0.7	1019	-5.9	240	2	70
2026-02-09T12:28	0.8	1019	-5.6	240	2	70
2026-02-09T12:29	1.2	1019	-5.3	240	2	70
2026-02-09T12:30	1.5	1019	-5.2	250	2	70
2026-02-09T12:31	1.6	1019	-5.3	250	2	70
2026-02-09T12:32	1.4	1019	-5.7	250	2	70
2026-02-09T12:33	1.0	1019	-5.9	260	2	70
2026-02-09T12:34	1.0	1019	-5.7	260	2	70
2026-02-09T12:35	0.9	1019	-5.8	260	2	70
2026-02-09T12:36	1.0	1019	-5.4	260	2	70
2026-02-09T12:37	0.8	1019	-5.6	270	2	70
2026-02-09T12:38	0.6	1019	-5.6	270	2	70
2026-02-09T12:39	1.1	1019	-5.1	270	2	70
2026-02-09T12:40	1.0	1019	-5.4	270	2	70
2026-02-09T12:41	1.0	1019	-5.4	270	2	70
2026-02-09T12:42	1.2	1019	-5.3	270	2	70
2026-02-09T12:43	0.8	1019	-5.6	270	2	70
2026-02-09T12:44	0.7	1020	-5.7	270	2	70
2026-02-09T12:45	0.6	1020	-5.8	260	2	70
2026-02-09T12:46	1.2	1020	-5.3	260	2	70
2026-02-09T12:47	0.9	1020	-5.5	260	2	70
2026-02-09T12:48	0.8	1020	-5.6	260	2	70
2026-02-09T12:49	0.8	1020	-5.4	260	1	70
2026-02-09T12:50	0.8	1020	-5.4	260	1	70
2026-02-09T12:51	1.1	1020	-5.1	260	1	70
2026-02-09T12:52	1.0	1020	-5.4	260	1	70
2026-02-09T12:53	0.8	1020	-5.6	270	1	70
2026-02-09T12:54	1.0	1020	-5.4	270	1	70
2026-02-09T12:55	0.6	1020	-5.8	280	1	70
2026-02-09T12:56	0.5	1020	-5.7	280	1	70
2026-02-09T12:57	0.9	1020	-5.3	280	1	70
2026-02-09T12:58	1.1	1020	-5.1	280	1	70
2026-02-09T12:59	0.7	1020	-5.7	280	1	70
2026-02-09T13:00	0.4	1020	-5.8	280	1	70
2026-02-09T13:01	0.8	1020	-5.2	280	1	70
2026-02-09T13:02	0.8	1020	-5.2	280	1	70
2026-02-09T13:03	1.0	1020	-5.2	280	1	70
2026-02-09T13:04	0.7	1020	-5.5	280	1	70
2026-02-09T13:05	0.3	1020	-5.7	280	1	70
2026-02-09T13:06	0.0	1020	-5.6	280	1	70
2026-02-09T13:07	0.3	1020	-5.3	280	1	70
2026-02-09T13:08	0.1	1020	-5.3	280	1	70
2026-02-09T13:09	0.4	1020	-5.2	280	1	70
2026-02-09T13:10	0.7	1020	-5.1	280	2	70
2026-02-09T13:11	0.7	1020	-5.1	280	2	70
2026-02-09T13:12	0.3	1020	-5.7	280	2	70
2026-02-09T13:13	0.1	1020	-5.7	270	2	70
2026-02-09T13:14	0.7	1020	-5.1	270	2	70
2026-02-09T13:15	0.7	1020	-5.1	270	1	70
2026-02-09T13:16	0.5	1020	-5.3	270	1	70
2026-02-09T13:17	0.7	1020	-5.1	260	1	70
2026-02-09T13:18	0.6	1020	-5.4	260	1	70
2026-02-09T13:19	0.5	1020	-5.5	250	1	70
2026-02-09T13:20	0.4	1020	-5.6	250	1	70
2026-02-09T13:21	0.3	1020	-5.5	250	1	70
2026-02-09T13:22	0.3	1020	-5.5	250	1	70
2026-02-09T13:23	0.4	1020	-5.4	250	1	70
2026-02-09T13:24	-0.2	1020	-5.8	250	1	70
2026-02-09T13:25	0.1	1020	-5.5	250	1	70
2026-02-09T13:26	0.3	1020	-5.1	260	1	70
2026-02-09T13:27	-0.1	1020	-5.7	270	1	70
2026-02-09T13:28	0.2	1020	-5.2	270	1	70
2026-02-09T13:29	0.5	1020	-4.9	280	1	70
2026-02-09T13:30	0.2	1020	-5.4	290	1	70
2026-02-09T13:31	0.2	1020	-5.4	290	1	70
2026-02-09T13:32	0.2	1020	-5.2	300	1	70
2026-02-09T13:33	0.1	1020	-5.3	300	1	70
2026-02-09T13:34	-0.3	1020	-5.1	310	1	70
2026-02-09T13:35	-0.3	1020	-5.1	310	1	70
2026-02-09T13:36	-0.2	1020	-5.0	310	1	70
2026-02-09T13:37	-0.2	1020	-4.8	310	1	70
2026-02-09T13:38	-0.3	1020	-4.7	310	1	70
2026-02-09T13:39	-0.3	1020	-4.5	310	1	70
2026-02-09T13:40	-0.3	1020	-4.3	310	1	70
2026-02-09T13:41	-0.5	1020	-4.5	300	1	70
2026-02-09T13:42	-1.0	1020	-4.8	300	1	70
2026-02-09T13:43	-1.0	1020	-5.0	290	1	70
2026-02-09T13:44	-1.2	1020	-5.0	290	1	70
2026-02-09T13:45	-1.0	1020	-4.8	290	1	70
2026-02-09T13:46	-0.8	1020	-4.7	290	1	70
2026-02-09T13:47	-0.8	1020	-4.7	290	1	70
2026-02-09T13:48	-1.0	1020	-5.0	290	1	70
2026-02-09T13:49	-0.7	1020	-4.7	300	1	70
2026-02-09T13:50	-0.8	1020	-4.8	300	1	70
2026-02-09T13:51	-0.8	1020	-4.7	310	1	70
2026-02-09T13:52	-0.9	1020	-4.6	320	1	70
2026-02-09T13:53	-1.1	1020	-4.6	330	1	70
2026-02-09T13:54	-1.1	1020	-4.6	340	1	70
2026-02-09T13:55	-0.9	1020	-4.6	340	1	70
2026-02-09T13:56	-0.8	1020	-4.8	340	1	70
2026-02-09T13:57	-0.5	1020	-4.9	350	1	70
2026-02-09T13:58	-0.4	1020	-4.8	350	1	70
2026-02-09T13:59	-1.0	1020	-5.4	350	1	70
2026-02-09T14:00	-1.2	1020	-5.2	350	1	70
2026-02-09T14:01	-1.3	1020	-5.1	340	0	70
2026-02-09T14:02	-1.5	1020	-5.2	340	0	70
2026-02-09T14:03	-1.3	1020	-4.8	330	0	70
2026-02-09T14:04	-1.3	1020	-5.0	320	0	70
2026-02-09T14:05	-1.2	1020	-4.9	310	0	70
2026-02-09T14:06	-1.4	1020	-5.1	300	0	70
2026-02-09T14:07	-1.4	1020	-4.9	290	0	70
2026-02-09T14:08	-1.7	1020	-5.2	280	0	70
2026-02-09T14:09	-1.9	1020	-5.4	280	1	70
2026-02-09T14:10	-1.8	1020	-5.1	270	1	70
2026-02-09T14:11	-1.7	1020	-5.0	260	1	70
2026-02-09T14:12	-1.8	1020	-5.1	260	1	70
2026-02-09T14:13	-1.8	1020	-5.1	270	1	70
2026-02-09T14:14	-1.8	1020	-5.1	270	1	70
2026-02-09T14:15	-1.8	1020	-5.1	280	1	70
2026-02-09T14:16	-1.7	1020	-5.0	290	1	70
2026-02-09T14:17	-1.5	1020	-5.0	290	1	70
2026-02-09T14:18	-1.8	1020	-5.3	300	1	70
2026-02-09T14:19	-1.7	1020	-5.2	300	1	70
2026-02-09T14:20	-1.6	1020	-5.3	300	1	70
2026-02-09T14:21	-1.5	1020	-5.2	310	1	70
2026-02-09T14:22	-1.6	1020	-5.4	310	1	70
2026-02-09T14:23	-1.8	1020	-5.5	320	1	70
2026-02-09T14:24	-1.7	1020	-5.4	320	1	70
2026-02-09T14:25	-1.4	1020	-5.1	320	1	70
2026-02-09T14:26	-1.6	1020	-5.4	320	1	70
2026-02-09T14:27	-1.6	1020	-5.3	320	1	70
2026-02-09T14:28	-1.6	1020	-5.3	320	1	70
2026-02-09T14:29	-1.6	1020	-5.3	310	1	70
2026-02-09T14:30	-1.8	1020	-5.3	310	1	70
2026-02-09T14:31	-1.8	1020	-5.3	300	1	70
2026-02-09T14:32	-1.9	1020	-5.4	290	1	70
2026-02-09T14:33	-2.3	1020	-5.9	280	1	70
2026-02-09T14:34	-2.0	1020	-5.5	280	0	70
2026-02-09T14:35	-1.9	1020	-5.2	260	0	70
2026-02-09T14:36	-2.0	1020	-5.1	250	0	70
2026-02-09T14:37	-2.3	1020	-5.3	220	0	70
2026-02-09T14:38	-2.1	1020	-5.1	180	0	70
2026-02-09T14:39	-2.1	1020	-4.9	150	0	70
2026-02-09T14:40	-2.1	1020	-4.9	130	0	70
2026-02-09T14:41	-2.2	1020	-4.8	130	0	70
2026-02-09T14:42	-2.2	1020	-4.8	110	0	70
2026-02-09T14:43	-2.0	1020	-5.0	350	1	70
2026-02-09T14:44	-2.0	1020	-5.1	320	1	70
2026-02-09T14:45	-1.9	1020	-5.0	30	1	70
2026-02-09T14:46	-2.0	1020	-5.1	350	1	70
2026-02-09T14:47	-2.3	1020	-5.3	320	1	70
2026-02-09T14:48	-2.4	1020	-5.0	320	1	70
2026-02-09T14:49	-2.4	1020	-4.9	310	1	70
2026-02-09T14:50	-2.3	1020	-4.9	310	1	70
2026-02-09T14:51	-2.2	1020	-4.8	300	1	70
2026-02-09T14:52	-2.4	1020	-5.0	300	1	70
2026-02-09T14:53	-2.2	1020	-4.8	300	1	70
2026-02-09T14:54	-2.2	1020	-4.8	290	1	70
2026-02-09T14:55	-2.2	1020	-4.8	290	1	70
2026-02-09T14:56	-2.0	1020	-4.8	290	1	70
2026-02-09T14:57	-1.5	1020	-4.5	280	1	70
2026-02-09T14:58	-1.3	1020	-4.5	270	1	70
2026-02-09T14:59	-1.8	1020	-5.3	260	1	70
2026-02-09T15:00	-2.4	1021	-6.0	240	1	70
2026-02-09T15:01	-2.5	1021	-5.8	220	1	70
2026-02-09T15:02	-2.1	1021	-5.1	210	1	70
2026-02-09T15:03	-2.0	1021	-5.0	190	1	70
2026-02-09T15:04	-2.1	1021	-5.1	180	1	70
2026-02-09T15:05	-2.3	1021	-5.3	170	1	70
2026-02-09T15:06	-2.2	1021	-5.2	170	1	70
2026-02-09T15:07	-2.4	1021	-5.2	170	1	70
2026-02-09T15:08	-2.7	1021	-5.5	170	1	70
2026-02-09T15:09	-2.4	1021	-4.9	180	1	70
2026-02-09T15:10	-2.3	1021	-4.8	190	1	70
2026-02-09T15:11	-2.4	1020	-4.9	200	1	70
2026-02-09T15:12	-2.1	1020	-4.6	220	1	70
2026-02-09T15:13	-2.0	1020	-4.6	240	1	70
2026-02-09T15:14	-2.2	1020	-5.0	260	1	70
2026-02-09T15:15	-2.5	1020	-5.3	270	1	70
2026-02-09T15:16	-2.5	1020	-5.3	280	1	70
2026-02-09T15:17	-2.5	1020	-5.1	290	1	70
2026-02-09T15:18	-2.6	1020	-5.1	300	1	70
2026-02-09T15:19	-2.5	1020	-5.0	300	2	70
2026-02-09T15:20	-2.3	1020	-4.9	300	2	70
2026-02-09T15:21	-2.1	1020	-4.7	300	2	70
2026-02-09T15:22	-2.0	1020	-4.8	300	2	70
2026-02-09T15:23	-1.5	1020	-4.3	300	1	70
2026-02-09T15:24	-1.9	1020	-4.9	300	1	70
2026-02-09T15:25	-2.2	1020	-5.2	300	1	70
2026-02-09T15:26	-2.4	1020	-5.0	310	1	70
2026-02-09T15:27	-2.5	1020	-5.0	310	1	70
2026-02-09T15:28	-2.3	1020	-4.6	320	1	70
2026-02-09T15:29	-2.3	1020	-4.6	330	1	70
2026-02-09T15:30	-2.4	1020	-4.7	330	1	70
2026-02-09T15:31	-2.2	1020	-4.5	340	1	70
2026-02-09T15:32	-2.2	1020	-4.5	340	1	70
2026-02-09T15:33	-2.2	1020	-4.7	350	1	70
2026-02-09T15:34	-2.1	1020	-4.6	350	1	70
2026-02-09T15:35	-2.1	1020	-4.6	350	1	70
2026-02-09T15:36	-2.0	1021	-4.5	350	1	70
2026-02-09T15:37	-1.9	1021	-4.5	350	1	70
2026-02-09T15:38	-2.2	1021	-5.0	350	1	70
2026-02-09T15:39	-2.1	1021	-4.7	340	1	70
2026-02-09T15:40	-2.3	1021	-4.8	330	1	70
2026-02-09T15:41	-2.4	1021	-4.6	330	1	70
2026-02-09T15:42	-2.6	1020	-4.6	320	1	70
2026-02-09T15:43	-2.6	1020	-4.6	310	1	70
2026-02-09T15:44	-2.3	1020	-4.6	300	1	70
2026-02-09T15:45	-2.1	1020	-4.6	300	1	70
2026-02-09T15:46	-1.9	1020	-4.5	290	1	70
2026-02-09T15:47	-2.0	1020	-4.8	280	1	70
2026-02-09T15:48	-2.2	1020	-5.0	280	1	70
2026-02-09T15:49	-2.6	1020	-5.6	280	2	70
2026-02-09T15:50	-2.4	1020	-5.4	270	1	70
2026-02-09T15:51	-2.2	1021	-5.2	270	1	70
2026-02-09T15:52	-2.0	1021	-5.0	270	1	70
2026-02-09T15:53	-2.4	1021	-5.5	270	1	70
2026-02-09T15:54	-2.1	1021	-5.2	260	1	70
2026-02-09T15:55	-1.7	1021	-4.7	260	1	70
2026-02-09T15:56	-1.7	1021	-4.8	260	1	70
2026-02-09T15:57	-1.9	1021	-5.2	250	1	70
2026-02-09T15:58	-1.8	1021	-5.1	250	1	70
2026-02-09T15:59	-1.9	1021	-5.2	250	1	70
2026-02-09T16:00	-2.4	1021	-5.7	240	1	70
2026-02-09T16:01	-2.4	1021	-5.5	250	1	70
2026-02-09T16:02	-2.6	1021	-5.6	250	1	70
2026-02-09T16:03	-2.6	1021	-5.4	250	1	70
2026-02-09T16:04	-2.5	1021	-5.0	260	1	70
2026-02-09T16:05	-2.1	1021	-4.7	270	1	70
2026-02-09T16:06	-2.0	1021	-4.8	280	1	70
2026-02-09T16:07	-1.8	1021	-4.8	280	1	70
2026-02-09T16:08	-2.3	1021	-5.3	290	1	70
2026-02-09T16:09	-2.7	1021	-5.7	290	1	70
2026-02-09T16:10	-2.6	1021	-5.2	300	1	70
2026-02-09T16:11	-2.5	1021	-5.0	300	1	70
2026-02-09T16:12	-2.3	1021	-4.8	290	1	70
2026-02-09T16:13	-2.4	1021	-4.9	290	1	70
2026-02-09T16:14	-2.5	1021	-5.0	280	1	70
2026-02-09T16:15	-2.9	1021	-5.4	270	1	70
2026-02-09T16:16	-2.7	1021	-5.2	270	1	70
2026-02-09T16:17	-2.5	1021	-4.8	270	1	70
2026-02-09T16:18	-2.4	1021	-4.9	270	1	70
2026-02-09T16:19	-2.2	1021	-4.8	270	1	70
2026-02-09T16:20	-2.4	1021	-5.0	270	1	70
2026-02-09T16:21	-2.5	1021	-5.0	270	1	70
2026-02-09T16:22	-2.5	1021	-5.0	280	1	70
2026-02-09T16:23	-2.7	1021	-5.0	280	1	70
2026-02-09T16:24	-2.7	1021	-4.9	280	1	70
2026-02-09T16:25	-2.6	1021	-4.8	280	1	70
2026-02-09T16:26	-2.5	1021	-4.8	280	1	70
2026-02-09T16:27	-2.7	1021	-5.2	280	1	70
2026-02-09T16:28	-2.9	1021	-5.4	280	1	70
2026-02-09T16:29	-3.1	1021	-5.6	280	1	70
2026-02-09T16:30	-3.1	1021	-5.6	280	1	70
2026-02-09T16:31	-2.7	1021	-5.0	270	1	70
2026-02-09T16:32	-2.8	1021	-5.1	270	1	70
2026-02-09T16:33	-2.8	1021	-5.3	260	1	70
2026-02-09T16:34	-2.8	1021	-5.3	260	1	70
2026-02-09T16:35	-2.6	1021	-5.1	250	1	70
2026-02-09T16:36	-2.7	1021	-5.2	250	1	70
2026-02-09T16:37	-2.2	1021	-4.7	240	1	70
2026-02-09T16:38	-2.5	1021	-5.1	240	1	70
2026-02-09T16:39	-2.8	1021	-5.6	240	1	70
2026-02-09T16:40	-2.9	1021	-5.7	240	2	70
2026-02-09T16:41	-2.8	1021	-5.3	240	2	70
2026-02-09T16:42	-2.8	1021	-5.1	250	2	70
2026-02-09T16:43	-3.0	1021	-5.3	250	1	70
2026-02-09T16:44	-3.1	1021	-5.4	260	1	70
2026-02-09T16:45	-2.9	1021	-5.2	270	1	70
2026-02-09T16:46	-2.8	1021	-5.1	280	1	70
2026-02-09T16:47	-2.8	1021	-5.1	280	1	70
2026-02-09T16:48	-3.3	1021	-5.8	280	1	70
2026-02-09T16:49	-3.0	1021	-5.3	280	1	70
2026-02-09T16:50	-2.7	1021	-4.9	280	1	70
2026-02-09T16:51	-2.8	1021	-5.1	280	1	70
2026-02-09T16:52	-2.6	1021	-5.1	280	1	70
2026-02-09T16:53	-2.1	1021	-4.6	270	1	70
2026-02-09T16:54	-1.9	1021	-4.5	270	1	70
2026-02-09T16:55	-2.0	1021	-4.8	260	1	70
2026-02-09T16:56	-2.3	1021	-5.3	260	1	70
2026-02-09T16:57	-2.1	1021	-5.1	260	2	70
2026-02-09T16:58	-2.4	1021	-5.4	260	2	70
2026-02-09T16:59	-2.2	1021	-5.2	260	2	70
2026-02-09T17:00	-2.3	1021	-5.3	270	1	70
2026-02-09T17:01	-2.0	1021	-4.8	280	1	70
2026-02-09T17:02	-1.8	1021	-4.8	280	1	70
2026-02-09T17:03	-2.0	1021	-5.1	280	1	70
2026-02-09T17:04	-2.1	1021	-5.2	280	1	70
2026-02-09T17:05	-2.1	1021	-5.1	280	1	70
2026-02-09T17:06	-2.4	1021	-5.4	280	1	70
2026-02-09T17:07	-2.3	1021	-5.3	280	1	70
2026-02-09T17:08	-2.2	1021	-5.0	270	1	70
2026-02-09T17:09	-2.2	1021	-5.0	270	1	70
2026-02-09T17:10	-2.4	1021	-5.2	260	1	70
2026-02-09T17:11	-2.4	1021	-5.2	260	1	70
2026-02-09T17:12	-2.4	1021	-5.2	260	1	70
2026-02-09T17:13	-2.7	1021	-5.7	270	1	70
2026-02-09T17:14	-2.7	1021	-5.5	280	1	70
2026-02-09T17:15	-2.6	1021	-5.2	290	1	70
2026-02-09T17:16	-2.4	1021	-4.9	300	1	70
2026-02-09T17:17	-2.4	1021	-4.7	310	1	70
2026-02-09T17:18	-2.3	1021	-4.8	320	1	70
2026-02-09T17:19	-2.5	1021	-5.1	320	1	70
2026-02-09T17:20	-2.6	1021	-5.1	320	1	70
2026-02-09T17:21	-2.6	1021	-5.1	330	1	70
2026-02-09T17:22	-2.5	1021	-5.0	320	1	70
2026-02-09T17:23	-2.5	1021	-5.1	320	1	70
2026-02-09T17:24	-2.5	1021	-5.1	310	1	70
2026-02-09T17:25	-2.8	1021	-5.4	300	1	70
2026-02-09T17:26	-2.9	1021	-5.4	290	1	70
2026-02-09T17:27	-3.0	1021	-5.5	290	1	70
2026-02-09T17:28	-3.1	1021	-5.6	280	0	70
2026-02-09T17:29	-3.0	1021	-5.3	280	0	70
2026-02-09T17:30	-2.8	1021	-5.1	270	0	70
2026-02-09T17:31	-3.1	1021	-5.4	260	0	70
2026-02-09T17:32	-3.2	1021	-5.5	260	0	70
2026-02-09T17:33	-3.3	1021	-5.4	250	1	70
2026-02-09T17:34	-3.4	1021	-5.5	240	1	70
2026-02-09T17:35	-3.2	1021	-5.3	220	1	70
2026-02-09T17:36	-3.2	1021	-5.3	210	1	70
2026-02-09T17:37	-3.3	1021	-5.4	210	1	70
2026-02-09T17:38	-2.9	1021	-5.0	200	1	70
2026-02-09T17:39	-2.6	1021	-4.6	200	1	70
2026-02-09T17:40	-2.2	1021	-4.4	190	2	70
2026-02-09T17:41	-2.4	1021	-4.9	200	2	70
2026-02-09T17:42	-2.6	1021	-5.2	210	1	70
2026-02-09T17:43	-3.1	1021	-5.9	210	1	70
2026-02-09T17:44	-2.9	1021	-5.5	220	1	70
2026-02-09T17:45	-2.8	1022	-5.3	240	1	70
2026-02-09T17:46	-2.7	1022	-5.0	240	1	70
2026-02-09T17:47	-2.7	1021	-5.2	250	1	70
2026-02-09T17:48	-2.9	1021	-5.4	260	1	70
2026-02-09T17:49	-2.8	1021	-5.3	260	1	70
2026-02-09T17:50	-3.1	1021	-5.6	270	1	70
2026-02-09T17:51	-3.3	1021	-5.8	280	1	70
2026-02-09T17:52	-3.3	1021	-5.6	280	1	70
2026-02-09T17:53	-3.1	1021	-5.2	280	1	70
2026-02-09T17:54	-3.0	1021	-5.1	290	1	70
2026-02-09T17:55	-3.0	1021	-5.1	280	1	70
2026-02-09T17:56	-2.9	1022	-5.2	280	1	70
2026-02-09T17:57	-3.0	1022	-5.3	280	1	70
2026-02-09T17:58	-3.3	1022	-5.6	270	1	70
2026-02-09T17:59	-3.6	1022	-5.9	270	1	70
2026-02-09T18:00	-3.5	1022	-5.8	260	1	70
2026-02-09T18:01	-3.5	1022	-5.6	250	1	70
2026-02-09T18:02	-3.2	1022	-5.2	250	1	70
2026-02-09T18:03	-3.2	1022	-5.2	250	1	70
2026-02-09T18:04	-3.0	1022	-5.0	260	1	70
2026-02-09T18:05	-2.9	1022	-4.9	260	1	70
2026-02-09T18:06	-3.0	1022	-5.1	280	1	70
2026-02-09T18:07	-3.0	1022	-5.1	290	1	70
2026-02-09T18:08	-3.1	1022	-5.2	300	1	70
2026-02-09T18:09	-3.2	1022	-5.3	310	1	70
2026-02-09T18:10	-3.3	1021	-5.4	320	1	70
2026-02-09T18:11	-3.1	1021	-5.1	330	1	70
2026-02-09T18:12	-3.0	1022	-5.0	330	1	70
2026-02-09T18:13	-3.2	1022	-5.2	340	1	70
2026-02-09T18:14	-3.0	1022	-4.8	340	1	70
2026-02-09T18:15	-2.9	1022	-4.6	340	1	70
2026-02-09T18:16	-3.0	1022	-4.8	340	1	70
2026-02-09T18:17	-3.0	1022	-4.8	340	1	70
2026-02-09T18:18	-3.1	1022	-5.1	340	1	70
2026-02-09T18:19	-3.0	1022	-5.0	340	1	70
2026-02-09T18:20	-3.1	1022	-5.1	340	1	70
2026-02-09T18:21	-3.3	1022	-5.3	340	1	70
2026-02-09T18:22	-3.2	1022	-5.2	340	1	70
2026-02-09T18:23	-3.0	1022	-5.0	340	1	70
2026-02-09T18:24	-2.9	1022	-4.9	340	1	70
2026-02-09T18:25	-3.0	1022	-5.0	330	1	70
2026-02-09T18:26	-3.1	1022	-5.1	330	1	70
2026-02-09T18:27	-3.3	1022	-5.3	330	1	70
2026-02-09T18:28	-3.0	1022	-5.0	330	1	70
2026-02-09T18:29	-3.2	1022	-5.0	330	1	70
2026-02-09T18:30	-3.3	1022	-5.3	330	1	70
2026-02-09T18:31	-3.1	1022	-4.9	330	1	70
2026-02-09T18:32	-3.1	1022	-4.9	340	1	70
2026-02-09T18:33	-3.1	1022	-4.8	340	1	70
2026-02-09T18:34	-3.3	1022	-5.0	340	1	70
2026-02-09T18:35	-3.6	1022	-5.4	340	1	70
2026-02-09T18:36	-3.5	1022	-5.3	340	1	70
2026-02-09T18:37	-3.5	1022	-5.2	340	1	70
2026-02-09T18:38	-3.7	1022	-5.4	340	1	70
2026-02-09T18:39	-3.8	1022	-5.5	340	1	70
2026-02-09T18:40	-3.7	1022	-5.4	340	1	70
2026-02-09T18:41	-3.7	1022	-5.2	330	1	70
2026-02-09T18:42	-3.7	1022	-5.2	330	1	70
2026-02-09T18:43	-3.6	1022	-5.1	330	1	70
2026-02-09T18:44	-3.6	1022	-5.0	330	1	70
2026-02-09T18:45	-3.7	1022	-5.2	330	1	70
2026-02-09T18:46	-3.8	1022	-5.3	330	1	70
2026-02-09T18:47	-3.9	1022	-5.4	330	1	70
2026-02-09T18:48	-3.8	1022	-5.2	330	1	70
2026-02-09T18:49	-3.6	1022	-4.8	340	1	70
2026-02-09T18:50	-3.8	1022	-5.0	340	1	70
2026-02-09T18:51	-4.1	1022	-5.5	340	1	70
2026-02-09T18:52	-3.3	1022	-4.7	350	1	70
2026-02-09T18:53	-3.5	1022	-4.9	350	1	70
2026-02-09T18:54	-4.2	1022	-6.0	350	1	70
2026-02-09T18:55	-4.0	1022	-5.8	360	1	70
2026-02-09T18:56	-3.6	1022	-5.1	360	0	70
2026-02-09T18:57	-3.4	1022	-4.9	360	0	70
2026-02-09T18:58	-3.4	1022	-4.9	360	0	70
2026-02-09T18:59	-3.7	1022	-5.2	0	0	70
2026-02-09T19:00	-3.8	1022	-5.3	0	0	70
2026-02-09T19:01	-3.8	1022	-5.3	0	0	70
2026-02-09T19:02	-3.7	1022	-5.1	0	0	70
2026-02-09T19:03	-3.6	1022	-5.0	330	0	70
2026-02-09T19:04	-3.5	1022	-4.9	320	0	70
2026-02-09T19:05	-3.9	1022	-5.4	310	0	70
2026-02-09T19:06	-3.8	1022	-5.3	300	0	70
2026-02-09T19:07	-3.7	1022	-5.1	0	0	70
2026-02-09T19:08	-3.6	1022	-5.0	0	0	70
2026-02-09T19:09	-3.6	1022	-5.0	270	0	70
2026-02-09T19:10	-3.5	1022	-4.9	0	0	70
2026-02-09T19:11	-3.9	1022	-5.4	0	0	70
2026-02-09T19:12	-4.0	1022	-5.5	0	0	70
2026-02-09T19:13	-3.9	1022	-5.3	0	0	70
2026-02-09T19:14	-3.8	1022	-5.2	0	0	70
2026-02-09T19:15	-3.7	1022	-4.9	0	0	70
2026-02-09T19:16	-3.8	1022	-5.0	0	0	70
2026-02-09T19:17	-4.0	1022	-5.4	0	0	70
2026-02-09T19:18	-3.9	1022	-5.1	0	0	70
2026-02-09T19:19	-3.7	1022	-4.9	0	0	70
2026-02-09T19:20	-3.7	1022	-4.8	0	0	70
2026-02-09T19:21	-3.7	1022	-4.9	0	0	70
2026-02-09T19:22	-3.6	1022	-4.8	300	0	70
2026-02-09T19:23	-3.6	1022	-4.8	310	1	70
2026-02-09T19:24	-3.5	1022	-4.9	320	1	70
2026-02-09T19:25	-3.6	1022	-5.0	320	1	70
2026-02-09T19:26	-3.7	1022	-5.1	330	1	70
2026-02-09T19:27	-3.8	1022	-5.2	330	1	70
2026-02-09T19:28	-4.1	1022	-5.5	340	1	70
2026-02-09T19:29	-4.2	1022	-5.6	340	1	70
2026-02-09T19:30	-4.1	1022	-5.3	330	1	70
2026-02-09T19:31	-4.1	1022	-5.3	330	1	70
2026-02-09T19:32	-4.0	1022	-5.2	330	1	70
2026-02-09T19:33	-4.0	1022	-5.1	330	1	70
2026-02-09T19:34	-3.9	1022	-5.0	330	1	70
2026-02-09T19:35	-3.7	1022	-4.8	330	1	70
2026-02-09T19:36	-3.6	1022	-4.7	320	1	70
2026-02-09T19:37	-3.7	1022	-4.8	320	1	70
2026-02-09T19:38	-3.8	1022	-5.0	330	1	70
2026-02-09T19:39	-3.7	1022	-4.9	330	1	70
2026-02-09T19:40	-3.6	1022	-4.8	330	1	70
2026-02-09T19:41	-3.7	1022	-4.8	330	1	70
2026-02-09T19:42	-3.7	1022	-4.9	330	1	70
2026-02-09T19:43	-4.0	1022	-5.2	330	1	70
2026-02-09T19:44	-3.9	1022	-5.1	340	1	70
2026-02-09T19:45	-3.9	1022	-5.1	340	1	70
2026-02-09T19:46	-3.8	1022	-5.0	340	1	70
2026-02-09T19:47	-3.7	1022	-4.9	340	1	70
2026-02-09T19:48	-3.7	1022	-4.9	340	1	70
2026-02-09T19:49	-3.6	1022	-4.8	340	1	70
2026-02-09T19:50	-3.6	1022	-4.8	340	1	70
2026-02-09T19:51	-3.7	1022	-4.9	340	1	70
2026-02-09T19:52	-3.8	1022	-5.0	340	1	70
2026-02-09T19:53	-3.8	1022	-5.0	340	1	70
2026-02-09T19:54	-3.8	1022	-5.0	340	1	70
2026-02-09T19:55	-3.9	1022	-5.1	340	1	69
2026-02-09T19:56	-3.8	1022	-5.0	340	1	69
2026-02-09T19:57	-3.7	1022	-4.8	340	1	69
2026-02-09T19:58	-3.7	1022	-4.8	340	1	69
2026-02-09T19:59	-3.7	1022	-4.8	330	1	69
2026-02-09T20:00	-3.8	1022	-4.9	340	1	69
2026-02-09T20:01	-4.0	1022	-5.2	340	1	68
2026-02-09T20:02	-4.0	1022	-5.2	340	1	68
2026-02-09T20:03	-3.9	1022	-5.0	340	1	68
2026-02-09T20:04	-3.8	1022	-4.9	340	1	69
2026-02-09T20:05	-3.8	1022	-4.9	350	1	68
2026-02-09T20:06	-3.8	1022	-4.9	350	1	68
2026-02-09T20:07	-4.2	1022	-5.3	350	1	68
2026-02-09T20:08	-4.3	1022	-5.5	360	1	68
2026-02-09T20:09	-4.4	1022	-5.5	360	1	67
2026-02-09T20:10	-4.4	1022	-5.5	360	1	67
2026-02-09T20:11	-4.3	1022	-5.2	360	1	67
2026-02-09T20:12	-4.4	1022	-5.3	350	1	67
2026-02-09T20:13	-4.5	1022	-5.4	350	1	67
2026-02-09T20:14	-4.5	1022	-5.3	350	1	67
2026-02-09T20:15	-4.7	1022	-5.5	340	0	66
2026-02-09T20:16	-4.6	1022	-5.4	340	0	66
2026-02-09T20:17	-4.4	1022	-5.2	330	0	66
2026-02-09T20:18	-4.4	1022	-5.1	330	0	66
2026-02-09T20:19	-4.3	1022	-5.0	0	0	67
2026-02-09T20:20	-4.4	1022	-5.1	330	0	67
2026-02-09T20:21	-4.3	1022	-5.0	330	0	67
2026-02-09T20:22	-4.2	1022	-5.0	330	0	67
2026-02-09T20:23	-4.1	1022	-4.9	330	0	68
2026-02-09T20:24	-4.2	1022	-5.0	330	0	68
2026-02-09T20:25	-4.2	1022	-5.1	330	0	68
2026-02-09T20:26	-4.4	1022	-5.3	330	0	68
2026-02-09T20:27	-4.4	1022	-5.3	330	0	69
2026-02-09T20:28	-4.4	1022	-5.3	320	0	69
2026-02-09T20:29	-4.3	1022	-5.2	320	1	69
2026-02-09T20:30	-4.4	1022	-5.3	310	1	69
2026-02-09T20:31	-4.8	1022	-5.9	300	1	69
2026-02-09T20:32	-4.6	1022	-5.7	290	1	69
2026-02-09T20:33	-4.5	1022	-5.4	280	1	69
2026-02-09T20:34	-4.4	1022	-5.3	270	1	69
2026-02-09T20:35	-4.6	1022	-5.5	260	0	69
2026-02-09T20:36	-4.5	1022	-5.4	250	1	69
2026-02-09T20:37	-4.4	1022	-5.3	250	1	69
2026-02-09T20:38	-4.3	1022	-5.2	250	1	69
2026-02-09T20:39	-4.3	1022	-5.2	240	0	69
2026-02-09T20:40	-4.3	1022	-5.2	240	0	69
2026-02-09T20:41	-4.4	1022	-5.3	240	0	69
2026-02-09T20:42	-4.4	1022	-5.3	250	0	69
2026-02-09T20:43	-4.3	1022	-5.2	250	0	69
2026-02-09T20:44	-4.3	1022	-5.2	250	0	69
2026-02-09T20:45	-4.5	1022	-5.4	250	0	69
2026-02-09T20:46	-4.5	1022	-5.4	250	0	69
2026-02-09T20:47	-4.5	1022	-5.4	250	0	69
2026-02-09T20:48	-4.4	1022	-5.3	250	0	69
2026-02-09T20:49	-4.3	1022	-5.2	250	0	69
2026-02-09T20:50	-4.2	1022	-5.1	240	0	70
2026-02-09T20:51	-4.4	1022	-5.3	240	0	69
2026-02-09T20:52	-4.5	1022	-5.4	240	0	69
2026-02-09T20:53	-4.5	1022	-5.4	230	0	69
2026-02-09T20:54	-4.5	1022	-5.4	230	0	69
2026-02-09T20:55	-4.5	1022	-5.4	220	0	69
2026-02-09T20:56	-4.3	1022	-5.1	220	0	69
2026-02-09T20:57	-4.4	1022	-5.2	0	0	69
2026-02-09T20:58	-4.6	1022	-5.4	0	0	69
2026-02-09T20:59	-4.5	1022	-5.3	0	0	69
2026-02-09T21:00	-4.5	1022	-5.3	0	0	69
2026-02-09T21:01	-4.5	1023	-5.3	220	0	69
2026-02-09T21:02	-4.4	1023	-5.2	220	0	69
2026-02-09T21:03	-4.5	1023	-5.4	220	0	69
2026-02-09T21:04	-4.7	1023	-5.6	220	1	69
2026-02-09T21:05	-4.7	1023	-5.6	220	1	69
2026-02-09T21:06	-4.9	1023	-5.8	220	1	69
2026-02-09T21:07	-4.7	1023	-5.6	220	1	69
2026-02-09T21:08	-4.9	1023	-5.7	230	1	68
2026-02-09T21:09	-4.9	1023	-5.7	230	1	68
2026-02-09T21:10	-4.8	1023	-5.6	230	1	68
2026-02-09T21:11	-4.7	1023	-5.5	240	1	68
2026-02-09T21:12	-4.8	1023	-5.6	240	1	68
2026-02-09T21:13	-4.9	1023	-5.7	230	1	68
2026-02-09T21:14	-5.1	1023	-5.9	230	1	68
2026-02-09T21:15	-5.0	1023	-5.9	230	1	68
2026-02-09T21:16	-5.0	1023	-5.9	230	1	69
2026-02-09T21:17	-5.0	1023	-5.9	230	1	69
2026-02-09T21:18	-5.0	1023	-5.9	230	1	69
2026-02-09T21:19	-4.9	1023	-5.8	230	1	70
2026-02-09T21:20	-4.9	1023	-5.8	230	1	69
2026-02-09T21:21	-5.0	1023	-5.9	220	1	69
2026-02-09T21:22	-4.7	1023	-5.6	220	1	69
2026-02-09T21:23	-4.6	1023	-5.4	230	1	70
2026-02-09T21:24	-4.4	1023	-5.2	230	1	70
2026-02-09T21:25	-4.5	1023	-5.3	240	1	70
2026-02-09T21:26	-4.7	1023	-5.6	240	1	69
2026-02-09T21:27	-4.7	1023	-5.6	250	1	69
2026-02-09T21:28	-4.7	1023	-5.6	250	1	69
2026-02-09T21:29	-4.8	1023	-5.7	260	1	69
2026-02-09T21:30	-4.9	1023	-5.8	270	0	69
2026-02-09T21:31	-4.8	1023	-5.7	280	0	69
2026-02-09T21:32	-4.8	1023	-5.6	290	0	69
2026-02-09T21:33	-4.7	1023	-5.5	290	0	69
2026-02-09T21:34	-4.7	1023	-5.5	290	0	68
2026-02-09T21:35	-4.7	1023	-5.5	290	0	68
2026-02-09T21:36	-4.7	1023	-5.5	290	0	68
2026-02-09T21:37	-4.7	1023	-5.5	290	0	68
2026-02-09T21:38	-4.7	1023	-5.5	290	0	68
2026-02-09T21:39	-4.6	1023	-5.4	280	0	68
2026-02-09T21:40	-4.6	1023	-5.4	280	1	69
2026-02-09T21:41	-4.5	1023	-5.3	280	1	69
2026-02-09T21:42	-4.6	1023	-5.4	280	1	68
2026-02-09T21:43	-4.5	1023	-5.4	280	1	68
2026-02-09T21:44	-4.8	1023	-5.7	280	1	68
2026-02-09T21:45	-4.7	1023	-5.6	280	1	68
2026-02-09T21:46	-4.4	1023	-5.2	280	1	68
2026-02-09T21:47	-4.5	1023	-5.3	280	1	68
2026-02-09T21:48	-4.2	1023	-5.0	280	1	68
2026-02-09T21:49	-4.3	1023	-5.2	270	1	68
2026-02-09T21:50	-4.1	1023	-5.0	270	1	68
2026-02-09T21:51	-4.2	1023	-5.1	270	1	69
2026-02-09T21:52	-4.0	1023	-4.9	260	1	69
2026-02-09T21:53	-4.2	1023	-5.3	260	0	69
2026-02-09T21:54	-4.2	1023	-5.4	260	0	70
2026-02-09T21:55	-4.1	1023	-5.3	260	0	70
2026-02-09T21:56	-4.0	1023	-5.2	260	1	70
2026-02-09T21:57	-4.0	1023	-5.2	260	1	70
2026-02-09T21:58	-3.8	1023	-4.9	260	1	70
2026-02-09T21:59	-3.8	1023	-4.9	270	1	70
2026-02-09T22:00	-3.8	1023	-5.0	270	1	70
2026-02-09T22:01	-3.8	1023	-5.0	270	1	70
2026-02-09T22:02	-3.7	1023	-4.9	270	1	70
2026-02-09T22:03	-3.8	1023	-5.0	270	1	70
2026-02-09T22:04	-3.8	1023	-5.0	270	1	70
2026-02-09T22:05	-4.0	1023	-5.2	270	1	70
2026-02-09T22:06	-4.0	1023	-5.2	270	1	70
2026-02-09T22:07	-4.0	1023	-5.2	270	1	70
2026-02-09T22:08	-3.9	1023	-5.1	270	1	70
2026-02-09T22:09	-4.0	1023	-5.2	270	1	70
2026-02-09T22:10	-3.9	1023	-5.1	270	1	70
2026-02-09T22:11	-3.7	1023	-4.9	270	1	70
2026-02-09T22:12	-3.6	1023	-4.8	270	1	70
2026-02-09T22:13	-3.5	1023	-4.7	280	1	70
2026-02-09T22:14	-3.5	1023	-4.9	280	1	70
2026-02-09T22:15	-3.6	1023	-5.0	290	1	70
2026-02-09T22:16	-3.5	1023	-4.9	290	1	70
2026-02-09T22:17	-3.7	1023	-5.1	290	1	70
2026-02-09T22:18	-3.7	1023	-5.1	290	1	70
2026-02-09T22:19	-3.7	1023	-5.1	290	1	70
2026-02-09T22:20	-3.2	1023	-4.6	290	1	70
2026-02-09T22:21	-3.4	1023	-4.9	290	1	70
2026-02-09T22:22	-3.6	1023	-5.1	300	1	70
2026-02-09T22:23	-3.3	1023	-4.8	300	1	70
2026-02-09T22:24	-3.1	1023	-4.6	300	1	70
2026-02-09T22:25	-3.0	1023	-4.5	300	1	70
2026-02-09T22:26	-2.7	1023	-4.4	290	1	70
2026-02-09T22:27	-2.5	1023	-4.3	300	1	70
2026-02-09T22:28	-2.5	1023	-4.5	300	1	70
2026-02-09T22:29	-2.7	1023	-4.9	300	1	70
2026-02-09T22:30	-2.7	1023	-4.9	300	1	70
2026-02-09T22:31	-2.7	1023	-4.9	300	1	70
2026-02-09T22:32	-2.6	1023	-4.8	300	1	70
2026-02-09T22:33	-2.4	1023	-4.6	300	1	70
2026-02-09T22:34	-2.2	1023	-4.5	300	1	70
2026-02-09T22:35	-2.1	1023	-4.4	290	1	70
2026-02-09T22:36	-1.9	1023	-4.2	290	1	70
2026-02-09T22:37	-1.9	1023	-4.2	290	1	70
2026-02-09T22:38	-1.9	1023	-4.4	290	1	70
2026-02-09T22:39	-2.0	1023	-4.6	290	1	70
2026-02-09T22:40	-2.1	1023	-4.9	290	1	70
2026-02-09T22:41	-2.0	1023	-4.8	290	1	70
2026-02-09T22:42	-2.0	1023	-4.8	290	1	70
2026-02-09T22:43	-1.9	1023	-4.9	290	1	70
2026-02-09T22:44	-1.9	1023	-4.9	290	1	70
2026-02-09T22:45	-1.8	1023	-4.8	290	1	70
2026-02-09T22:46	-1.6	1023	-4.6	290	1	70
2026-02-09T22:47	-1.6	1023	-4.6	300	1	70
2026-02-09T22:48	-1.7	1023	-4.8	300	1	70
2026-02-09T22:49	-1.8	1023	-4.9	300	1	70
2026-02-09T22:50	-1.7	1023	-4.8	300	1	70
2026-02-09T22:51	-1.6	1023	-4.7	300	1	70
2026-02-09T22:52	-1.5	1023	-4.6	300	1	70
2026-02-09T22:53	-1.7	1023	-4.7	290	1	70
2026-02-09T22:54	-1.6	1023	-4.6	300	2	70
2026-02-09T22:55	-1.6	1023	-4.6	300	1	70
2026-02-09T22:56	-1.5	1023	-4.6	300	1	70
2026-02-09T22:57	-1.4	1023	-4.6	300	1	70
2026-02-09T22:58	-1.3	1023	-4.5	300	1	70
2026-02-09T22:59	-1.2	1023	-4.4	300	1	70
2026-02-09T23:00	-1.1	1023	-4.6	300	1	70
2026-02-09T23:01	-1.2	1023	-4.9	300	1	70
2026-02-09T23:02	-1.1	1023	-4.6	300	1	70
2026-02-09T23:03	-1.0	1023	-4.5	300	1	70
2026-02-09T23:04	-0.9	1023	-4.4	300	1	70
2026-02-09T23:05	-0.9	1023	-4.4	290	1	70
2026-02-09T23:06	-0.9	1023	-4.8	290	1	70
2026-02-09T23:07	-0.8	1023	-4.7	290	1	70
2026-02-09T23:08	-0.6	1023	-4.3	280	1	70
2026-02-09T23:09	-0.6	1023	-4.5	280	1	70
2026-02-09T23:10	-0.6	1023	-4.6	280	1	70
2026-02-09T23:11	-0.6	1023	-4.6	270	1	70
2026-02-09T23:12	-0.5	1023	-4.4	270	1	70
2026-02-09T23:13	-0.5	1023	-4.4	260	1	70
2026-02-09T23:14	-0.5	1023	-4.4	260	1	70
2026-02-09T23:15	-0.5	1023	-4.5	260	1	70
2026-02-09T23:16	-0.5	1023	-4.5	260	1	70
2026-02-09T23:17	-0.4	1023	-4.3	260	1	70
2026-02-09T23:18	-0.3	1023	-4.2	260	1	70
2026-02-09T23:19	-0.3	1023	-4.3	250	1	70
2026-02-09T23:20	-0.3	1023	-4.5	250	1	70
2026-02-09T23:21	-0.2	1023	-4.3	240	1	70
2026-02-09T23:22	-0.2	1023	-4.3	240	1	70
2026-02-09T23:23	-0.2	1023	-4.3	240	1	70
2026-02-09T23:24	0.0	1023	-4.1	240	1	70
2026-02-09T23:25	0.0	1023	-4.1	230	1	70
2026-02-09T23:26	0.0	1023	-4.2	230	1	70
2026-02-09T23:27	0.2	1023	-3.9	230	1	70
2026-02-09T23:28	0.4	1023	-3.5	230	1	70
2026-02-09T23:29	0.3	1023	-4.0	230	1	70
2026-02-09T23:30	0.4	1023	-3.9	230	1	70
2026-02-09T23:31	0.3	1023	-4.1	230	1	70
2026-02-09T23:32	0.4	1023	-4.2	240	1	70
2026-02-09T23:33	0.6	1023	-3.8	240	1	70
2026-02-09T23:34	0.8	1023	-3.5	240	1	70
2026-02-09T23:35	0.9	1023	-3.6	240	1	70
2026-02-09T23:36	0.9	1023	-3.7	240	1	70
2026-02-09T23:37	0.9	1023	-3.9	240	1	70
2026-02-09T23:38	0.9	1023	-3.9	240	1	70
2026-02-09T23:39	1.1	1023	-3.6	240	1	70
2026-02-09T23:40	1.5	1023	-2.8	250	1	70
2026-02-09T23:41	1.4	1023	-3.5	250	1	70
2026-02-09T23:42	1.5	1023	-3.4	250	1	70
2026-02-09T23:43	1.3	1023	-3.6	250	1	70
2026-02-09T23:44	1.3	1023	-3.7	250	1	70
2026-02-09T23:45	1.8	1023	-2.9	250	1	70
2026-02-09T23:46	1.8	1023	-2.9	250	1	70
2026-02-09T23:47	1.8	1023	-3.3	260	1	70
2026-02-09T23:48	1.8	1023	-3.5	260	1	70
2026-02-09T23:49	1.6	1023	-3.8	250	1	70
2026-02-09T23:50	1.5	1023	-4.1	250	1	70
2026-02-09T23:51	1.6	1023	-3.8	250	1	70
2026-02-09T23:52	1.7	1023	-3.8	250	1	70
2026-02-09T23:53	2.1	1023	-3.2	250	1	70
2026-02-09T23:54	1.9	1023	-3.4	250	1	70
2026-02-09T23:55	2.0	1023	-3.3	250	1	70
2026-02-09T23:56	1.9	1023	-3.6	250	1	70
2026-02-09T23:57	1.8	1023	-3.9	250	1	70
2026-02-09T23:58	1.9	1023	-3.8	250	1	70
2026-02-09T23:59	2.0	1023	-3.5	250	1	70
2026-02-10T00:00	2.2	1023	-3.3	250	1	70
2026-02-10T00:01	2.6	1023	-2.5	250	1	70
2026-02-10T00:02	2.8	1023	-2.7	250	1	70
2026-02-10T00:03	2.8	1023	-2.9	250	1	70
2026-02-10T00:04	2.7	1023	-3.2	250	1	70
2026-02-10T00:05	2.9	1023	-3.2	240	1	70
2026-02-10T00:06	2.8	1023	-3.5	240	1	70
2026-02-10T00:07	2.9	1023	-3.4	240	1	70
2026-02-10T00:08	2.9	1023	-3.6	230	1	70
2026-02-10T00:09	3.3	1023	-2.6	230	1	70
2026-02-10T00:10	3.2	1023	-2.9	220	1	70
2026-02-10T00:11	3.4	1023	-3.0	220	1	70
2026-02-10T00:12	3.2	1023	-3.4	220	1	70
2026-02-10T00:13	3.2	1023	-3.4	210	1	70
2026-02-10T00:14	3.5	1023	-2.7	210	1	70
2026-02-10T00:15	3.4	1023	-3.2	210	1	70
2026-02-10T00:16	3.3	1023	-3.3	210	1	70
2026-02-10T00:17	3.4	1023	-3.0	210	1	70
2026-02-10T00:18	3.3	1022	-3.3	210	1	70
2026-02-10T00:19	3.2	1022	-3.6	220	1	70
2026-02-10T00:20	3.1	1022	-3.7	220	1	70
2026-02-10T00:21	3.2	1022	-3.4	220	1	70
2026-02-10T00:22	3.4	1022	-3.2	230	1	70
2026-02-10T00:23	3.5	1023	-2.9	230	1	70
2026-02-10T00:24	3.6	1023	-3.2	220	1	70
2026-02-10T00:25	3.6	1023	-3.4	220	1	70
2026-02-10T00:26	3.7	1023	-3.6	220	1	70
2026-02-10T00:27	3.7	1023	-3.6	220	1	70
2026-02-10T00:28	3.6	1023	-3.6	220	1	70
2026-02-10T00:29	3.5	1023	-4.0	230	1	70
2026-02-10T00:30	3.5	1023	-4.0	230	1	70
2026-02-10T00:31	3.5	1023	-4.0	230	1	70
2026-02-10T00:32	3.5	1023	-4.2	230	1	70
2026-02-10T00:33	3.5	1023	-4.2	230	1	70
2026-02-10T00:34	3.7	1023	-3.8	230	1	70
2026-02-10T00:35	3.8	1023	-3.5	230	1	70
2026-02-10T00:36	3.9	1023	-3.6	240	1	70
2026-02-10T00:37	3.7	1023	-4.0	240	1	70
2026-02-10T00:38	3.6	1023	-4.3	240	1	70
2026-02-10T00:39	3.7	1023	-4.0	240	1	70
2026-02-10T00:40	3.7	1023	-3.8	240	1	70
2026-02-10T00:41	3.6	1023	-3.9	250	1	70
2026-02-10T00:42	3.6	1023	-3.4	250	1	70
2026-02-10T00:43	3.6	1023	-3.4	250	1	70
2026-02-10T00:44	3.7	1023	-3.1	250	1	70
2026-02-10T00:45	3.6	1023	-3.4	260	1	70
2026-02-10T00:46	3.7	1023	-3.3	260	1	70
2026-02-10T00:47	3.5	1023	-3.5	260	1	70
2026-02-10T00:48	3.5	1023	-3.5	260	1	70
2026-02-10T00:49	3.5	1023	-3.5	260	1	70
2026-02-10T00:50	3.6	1023	-3.6	260	1	70
2026-02-10T00:51	3.6	1023	-3.6	260	1	70
2026-02-10T00:52	3.8	1023	-3.5	260	1	70
2026-02-10T00:53	3.8	1023	-3.5	260	1	70
2026-02-10T00:54	3.7	1023	-3.8	260	1	70
2026-02-10T00:55	3.8	1023	-3.5	260	1	70
2026-02-10T00:56	3.7	1023	-3.8	260	1	70
2026-02-10T00:57	3.6	1023	-3.9	260	1	70
2026-02-10T00:58	3.5	1023	-4.0	260	2	70
2026-02-10T00:59	3.6	1023	-3.6	260	2	70
2026-02-10T01:00	3.6	1023	-3.6	260	2	70
2026-02-10T01:01	3.7	1023	-3.3	260	2	70
2026-02-10T01:02	3.8	1023	-3.2	260	2	70
2026-02-10T01:03	3.9	1023	-2.9	270	2	70
2026-02-10T01:04	3.8	1023	-3.0	260	2	70
2026-02-10T01:05	3.8	1023	-3.0	260	2	70
2026-02-10T01:06	3.8	1023	-3.2	260	2	70
2026-02-10T01:07	3.9	1023	-3.1	250	2	70
2026-02-10T01:08	3.9	1023	-3.1	250	2	70
2026-02-10T01:09	4.0	1023	-3.0	250	2	70
2026-02-10T01:10	4.1	1023	-2.7	250	2	70
2026-02-10T01:11	4.1	1023	-3.0	240	2	70
2026-02-10T01:12	3.9	1023	-3.6	240	1	70
2026-02-10T01:13	4.1	1023	-3.2	230	1	70
2026-02-10T01:14	3.8	1023	-3.9	230	1	70
2026-02-10T01:15	3.8	1023	-3.9	230	1	70
2026-02-10T01:16	3.9	1023	-3.6	240	1	70
2026-02-10T01:17	3.7	1023	-4.0	240	1	70
2026-02-10T01:18	3.7	1023	-3.8	250	1	70
2026-02-10T01:19	3.8	1023	-3.7	260	1	70
2026-02-10T01:20	3.7	1023	-3.8	260	1	70
2026-02-10T01:21	3.9	1023	-3.4	260	1	70
2026-02-10T01:22	3.9	1023	-3.4	270	1	70
2026-02-10T01:23	3.8	1023	-3.7	270	1	70
2026-02-10T01:24	3.8	1023	-3.5	270	1	70
2026-02-10T01:25	3.8	1023	-3.7	270	1	70
2026-02-10T01:26	3.7	1023	-3.6	270	1	70
2026-02-10T01:27	3.8	1023	-3.5	270	1	70
2026-02-10T01:28	3.7	1023	-3.6	270	1	70
2026-02-10T01:29	3.7	1023	-3.3	270	1	70
2026-02-10T01:30	3.7	1022	-3.6	260	1	70
2026-02-10T01:31	3.8	1022	-3.2	260	1	70
2026-02-10T01:32	3.8	1022	-3.0	260	1	70
2026-02-10T01:33	3.8	1022	-3.5	260	1	70
2026-02-10T01:34	3.8	1022	-3.2	260	1	70
2026-02-10T01:35	3.8	1022	-3.2	260	1	70
2026-02-10T01:36	3.9	1022	-2.7	260	1	70
2026-02-10T01:37	3.9	1022	-2.9	260	1	70
2026-02-10T01:38	3.8	1022	-3.2	250	1	70
2026-02-10T01:39	3.8	1022	-3.5	250	1	70
2026-02-10T01:40	3.8	1022	-3.2	250	1	70
2026-02-10T01:41	3.8	1022	-3.2	250	1	70
2026-02-10T01:42	3.8	1022	-3.2	250	1	70
2026-02-10T01:43	3.7	1022	-3.3	250	1	70
2026-02-10T01:44	3.7	1022	-3.6	250	1	70
2026-02-10T01:45	3.6	1022	-3.6	250	1	70
2026-02-10T01:46	3.6	1022	-3.6	250	1	70
2026-02-10T01:47	3.6	1022	-3.6	260	1	70
2026-02-10T01:48	3.7	1022	-3.3	260	1	70
2026-02-10T01:49	3.7	1022	-3.1	260	1	70
2026-02-10T01:50	3.8	1022	-3.0	270	1	70
2026-02-10T01:51	3.7	1022	-3.3	270	2	70
2026-02-10T01:52	3.8	1022	-3.2	270	2	70
2026-02-10T01:53	3.8	1022	-3.2	270	2	70
2026-02-10T01:54	3.8	1022	-3.2	270	2	70
2026-02-10T01:55	3.7	1022	-3.3	270	2	70
2026-02-10T01:56	3.7	1022	-3.3	280	2	70
2026-02-10T01:57	3.6	1022	-3.4	280	2	70
2026-02-10T01:58	3.6	1022	-3.4	270	2	70
2026-02-10T01:59	3.6	1022	-3.4	280	2	70
2026-02-10T02:00	3.7	1022	-3.1	270	2	70
2026-02-10T02:01	3.7	1022	-3.1	280	2	70
2026-02-10T02:02	3.7	1022	-3.1	280	2	70
2026-02-10T02:03	3.7	1022	-3.3	280	2	70
2026-02-10T02:04	3.8	1022	-3.0	280	2	70
2026-02-10T02:05	3.8	1022	-3.0	270	2	70
2026-02-10T02:06	3.8	1022	-2.8	270	2	70
2026-02-10T02:07	3.9	1022	-2.7	270	2	70
2026-02-10T02:08	3.9	1022	-2.7	270	2	70
2026-02-10T02:09	3.9	1022	-2.7	270	2	70
2026-02-10T02:10	3.9	1022	-2.7	270	2	70
2026-02-10T02:11	4.0	1022	-2.6	270	2	70
2026-02-10T02:12	4.1	1022	-2.3	270	2	70
2026-02-10T02:13	4.3	1022	-2.1	270	2	70
2026-02-10T02:14	4.4	1022	-2.0	270	2	70
2026-02-10T02:15	4.4	1022	-2.2	270	2	70
2026-02-10T02:16	5.2	1022	-0.8	280	2	70
2026-02-10T02:17	5.1	1022	-1.6	270	2	70
2026-02-10T02:18	4.9	1022	-2.2	270	2	70
2026-02-10T02:19	4.7	1022	-2.4	270	2	70
2026-02-10T02:20	4.6	1021	-2.5	280	1	70
2026-02-10T02:21	4.7	1021	-2.2	280	1	70
2026-02-10T02:22	4.7	1021	-2.6	290	1	70
2026-02-10T02:23	5.0	1021	-2.1	280	1	70
2026-02-10T02:24	5.2	1021	-1.9	290	1	70
2026-02-10T02:25	5.2	1021	-2.4	290	1	70
2026-02-10T02:26	5.1	1021	-2.7	290	1	70
2026-02-10T02:27	5.2	1021	-2.6	290	1	70
2026-02-10T02:28	5.6	1021	-2.0	290	1	70
2026-02-10T02:29	5.1	1021	-3.2	290	2	70
2026-02-10T02:30	5.0	1021	-3.3	290	2	70
2026-02-10T02:31	5.2	1021	-2.8	290	2	70
2026-02-10T02:32	5.4	1021	-2.9	290	2	70
2026-02-10T02:33	5.5	1021	-2.8	300	2	70
2026-02-10T02:34	5.4	1021	-3.1	310	2	70
2026-02-10T02:35	5.4	1021	-2.7	320	2	70
2026-02-10T02:36	5.5	1021	-2.6	330	2	70
2026-02-10T02:37	5.9	1021	-2.0	330	2	70
2026-02-10T02:38	6.1	1021	-2.0	330	1	70
2026-02-10T02:39	5.9	1021	-2.9	330	1	70
2026-02-10T02:40	5.7	1021	-3.1	330	1	70
2026-02-10T02:41	5.7	1021	-3.4	320	1	70
2026-02-10T02:42	6.2	1021	-2.4	320	1	70
2026-02-10T02:43	6.3	1021	-3.1	310	2	70
2026-02-10T02:44	6.9	1021	-2.0	300	2	70
2026-02-10T02:45	6.8	1021	-2.6	290	2	70
2026-02-10T02:46	6.3	1021	-3.3	290	2	70
2026-02-10T02:47	6.0	1021	-3.6	280	2	70
2026-02-10T02:48	5.9	1021	-3.4	280	2	70
2026-02-10T02:49	5.8	1021	-3.5	280	2	70
2026-02-10T02:50	5.8	1021	-3.5	280	2	70
2026-02-10T02:51	6.0	1021	-3.1	270	2	70
2026-02-10T02:52	6.3	1021	-2.6	270	2	70
2026-02-10T02:53	6.1	1021	-3.0	270	2	70
2026-02-10T02:54	6.1	1021	-3.0	270	2	70
2026-02-10T02:55	5.9	1021	-3.4	270	1	70
2026-02-10T02:56	6.0	1021	-3.1	280	1	70
2026-02-10T02:57	5.9	1021	-3.4	280	1	70
2026-02-10T02:58	6.0	1021	-3.4	290	1	70
2026-02-10T02:59	6.1	1021	-3.5	310	1	70
2026-02-10T03:00	6.2	1021	-3.2	310	1	70
2026-02-10T03:01	6.2	1021	-3.4	320	1	70
2026-02-10T03:02	6.3	1021	-3.3	330	1	70
2026-02-10T03:03	6.3	1021	-3.3	330	1	70
2026-02-10T03:04	6.3	1021	-3.3	330	1	70
2026-02-10T03:05	6.5	1021	-3.2	330	1	70
2026-02-10T03:06	7.1	1021	-2.3	320	1	70
2026-02-10T03:07	6.9	1021	-3.1	300	1	70
2026-02-10T03:08	6.9	1021	-3.3	290	1	70
2026-02-10T03:09	6.8	1021	-3.7	280	1	70
2026-02-10T03:10	6.5	1021	-4.6	270	1	70
2026-02-10T03:11	6.4	1021	-4.4	260	1	70
2026-02-10T03:12	6.7	1021	-3.8	270	1	70
2026-02-10T03:13	7.0	1021	-3.2	270	1	70
2026-02-10T03:14	6.9	1021	-3.6	260	1	70
2026-02-10T03:15	6.9	1020	-3.6	260	1	70
2026-02-10T03:16	6.7	1020	-4.1	250	1	70
2026-02-10T03:17	6.7	1020	-3.8	250	1	70
2026-02-10T03:18	6.9	1020	-3.3	250	1	70
2026-02-10T03:19	7.1	1020	-3.2	240	1	70
2026-02-10T03:20	6.9	1020	-3.6	240	1	70
2026-02-10T03:21	7.1	1020	-3.4	230	1	70
2026-02-10T03:22	7.4	1020	-2.6	230	1	70
2026-02-10T03:23	7.4	1020	-2.9	230	1	70
2026-02-10T03:24	7.1	1020	-3.4	230	1	70
2026-02-10T03:25	6.9	1020	-3.6	230	1	70
2026-02-10T03:26	7.1	1020	-3.2	230	1	70
2026-02-10T03:27	7.4	1020	-2.9	240	1	70
2026-02-10T03:28	7.6	1020	-2.7	240	1	70
2026-02-10T03:29	8.2	1020	-2.1	250	1	70
2026-02-10T03:30	7.7	1020	-3.2	260	1	70
2026-02-10T03:31	7.6	1020	-3.3	270	1	70
2026-02-10T03:32	7.7	1020	-2.9	280	1	70
2026-02-10T03:33	7.2	1020	-3.9	280	1	70
2026-02-10T03:34	7.2	1020	-3.9	280	1	70
2026-02-10T03:35	7.3	1020	-3.5	280	1	70
2026-02-10T03:36	7.2	1020	-3.9	270	1	70
2026-02-10T03:37	7.1	1020	-4.0	260	1	70
2026-02-10T03:38	7.2	1020	-3.9	240	1	70
2026-02-10T03:39	7.4	1020	-3.7	210	1	70
2026-02-10T03:40	7.7	1020	-3.2	190	1	70
2026-02-10T03:41	7.7	1020	-2.9	170	1	70
2026-02-10T03:42	7.6	1020	-3.0	170	1	70
2026-02-10T03:43	7.4	1020	-3.4	160	1	70
2026-02-10T03:44	7.5	1020	-3.4	160	1	70
2026-02-10T03:45	7.4	1020	-3.4	160	1	70
2026-02-10T03:46	7.7	1020	-2.9	170	1	70
2026-02-10T03:47	8.2	1020	-2.4	170	1	70
2026-02-10T03:48	8.1	1020	-2.8	180	1	70
2026-02-10T03:49	7.9	1020	-3.3	190	1	70
2026-02-10T03:50	7.6	1020	-3.6	200	1	70
2026-02-10T03:51	7.8	1020	-3.1	200	1	70
2026-02-10T03:52	7.7	1020	-3.2	210	1	70
2026-02-10T03:53	8.2	1020	-2.4	220	1	70
2026-02-10T03:54	8.1	1020	-3.1	220	1	70
2026-02-10T03:55	8.0	1020	-3.2	220	1	70
2026-02-10T03:56	8.3	1019	-2.6	220	1	70
2026-02-10T03:57	8.3	1019	-2.9	210	1	70
2026-02-10T03:58	8.3	1019	-2.9	210	1	70
2026-02-10T03:59	8.3	1019	-2.9	210	1	70
2026-02-10T04:00	8.7	1019	-2.3	200	1	70
2026-02-10T04:01	8.8	1019	-2.5	200	1	70
2026-02-10T04:02	8.6	1019	-2.9	190	2	70
2026-02-10T04:03	8.8	1019	-2.5	180	2	70
2026-02-10T04:04	9.1	1019	-1.9	170	2	70
2026-02-10T04:05	9.1	1019	-2.2	170	2	70
2026-02-10T04:06	8.9	1019	-2.4	170	2	70
2026-02-10T04:07	9.0	1019	-2.0	180	2	70
2026-02-10T04:08	8.9	1019	-2.4	170	2	70
2026-02-10T04:09	8.8	1019	-2.5	170	2	70
2026-02-10T04:10	8.6	1019	-2.6	170	2	70
2026-02-10T04:11	8.9	1019	-2.1	170	2	70
2026-02-10T04:12	8.8	1019	-2.5	180	2	70
2026-02-10T04:13	8.8	1019	-2.2	190	2	70
2026-02-10T04:14	8.9	1019	-2.1	190	2	70
2026-02-10T04:15	8.9	1019	-2.1	190	2	70
2026-02-10T04:16	9.0	1019	-2.0	190	2	70
2026-02-10T04:17	9.0	1019	-2.3	190	2	70
2026-02-10T04:18	9.5	1019	-1.5	190	2	70
2026-02-10T04:19	9.2	1019	-2.1	200	2	70
2026-02-10T04:20	8.8	1019	-2.5	200	2	70
2026-02-10T04:21	8.9	1019	-2.4	190	2	70
2026-02-10T04:22	9.2	1019	-1.8	190	2	70
2026-02-10T04:23	8.9	1019	-2.1	190	2	70
2026-02-10T04:24	9.0	1019	-2.0	200	2	70
2026-02-10T04:25	9.5	1019	-1.2	200	2	70
2026-02-10T04:26	9.4	1019	-1.6	200	2	70
2026-02-10T04:27	9.4	1019	-1.6	210	2	70
2026-02-10T04:28	9.6	1019	-1.1	220	2	70
2026-02-10T04:29	9.8	1019	-1.0	220	2	70
2026-02-10T04:30	9.6	1019	-1.1	220	2	70
2026-02-10T04:31	9.7	1019	-1.1	220	2	70
2026-02-10T04:32	9.8	1019	-1.0	220	2	70
2026-02-10T04:33	9.8	1019	-1.0	220	2	70
2026-02-10T04:34	10.1	1019	-0.7	220	2	70
2026-02-10T04:35	9.9	1019	-0.9	220	2	70
2026-02-10T04:36	10.0	1019	-0.8	210	2	70
2026-02-10T04:37	10.3	1019	-0.2	200	2	70
2026-02-10T04:38	10.2	1019	-0.3	200	2	70
2026-02-10T04:39	10.0	1019	-0.5	190	2	70
2026-02-10T04:40	10.1	1019	-0.4	190	2	70
2026-02-10T04:41	10.3	1019	-0.2	190	2	70
2026-02-10T04:42	10.2	1019	-0.6	190	2	70
2026-02-10T04:43	10.3	1019	-0.2	180	2	70
2026-02-10T04:44	10.2	1019	-0.6	180	2	70
2026-02-10T04:45	10.2	1019	-0.6	180	2	70
2026-02-10T04:46	9.9	1019	-0.9	180	3	70
2026-02-10T04:47	9.7	1019	-1.1	180	3	70
2026-02-10T04:48	9.7	1019	-1.1	180	3	70
2026-02-10T04:49	9.9	1019	-0.6	180	3	70
2026-02-10T04:50	9.7	1019	-1.1	190	3	70
2026-02-10T04:51	9.5	1019	-1.2	200	3	70
2026-02-10T04:52	9.4	1019	-1.3	200	3	70
2026-02-10T04:53	9.6	1019	-0.9	200	3	70
2026-02-10T04:54	9.7	1019	-0.8	210	3	70
2026-02-10T04:55	9.6	1019	-1.1	210	3	70
2026-02-10T04:56	9.6	1019	-1.1	210	3	70
2026-02-10T04:57	9.5	1019	-1.2	220	3	70
2026-02-10T04:58	9.6	1018	-0.9	220	3	70
2026-02-10T04:59	9.6	1018	-0.9	220	3	70
2026-02-10T05:00	9.8	1018	-0.7	220	3	70
2026-02-10T05:01	9.5	1018	-1.2	210	3	70
2026-02-10T05:02	9.4	1018	-1.0	210	3	70
2026-02-10T05:03	9.4	1018	-1.0	210	2	70
2026-02-10T05:04	9.3	1018	-1.1	220	2	70
2026-02-10T05:05	9.5	1018	-0.7	220	2	70
2026-02-10T05:06	9.4	1018	-1.0	220	2	70
2026-02-10T05:07	9.5	1018	-0.7	220	2	70
2026-02-10T05:08	9.6	1018	-0.6	220	2	70
2026-02-10T05:09	9.5	1018	-1.0	220	2	70
2026-02-10T05:10	9.4	1018	-1.0	220	2	70
2026-02-10T05:11	9.5	1018	-1.0	220	2	70
2026-02-10T05:12	9.7	1018	-0.5	230	2	70
2026-02-10T05:13	9.9	1018	-0.3	230	2	70
2026-02-10T05:14	9.8	1018	-0.7	220	2	70
2026-02-10T05:15	9.6	1018	-0.9	220	2	70
2026-02-10T05:16	9.7	1018	-0.5	220	2	70
2026-02-10T05:17	9.7	1018	-0.8	220	2	70
2026-02-10T05:18	9.7	1018	-0.8	220	2	70
2026-02-10T05:19	10.0	1018	-0.5	220	2	70
2026-02-10T05:20	10.0	1018	-0.8	220	2	70
2026-02-10T05:21	9.9	1018	-0.9	220	3	70
2026-02-10T05:22	9.9	1018	-0.9	210	3	70
2026-02-10T05:23	9.8	1018	-1.0	220	3	70
2026-02-10T05:24	9.9	1018	-0.6	220	3	70
2026-02-10T05:25	9.8	1018	-1.0	210	3	70
2026-02-10T05:26	9.7	1018	-1.1	210	3	70
2026-02-10T05:27	9.7	1018	-1.1	210	4	70
2026-02-10T05:28	9.7	1018	-1.1	210	3	70
2026-02-10T05:29	9.7	1018	-1.1	210	4	70
2026-02-10T05:30	9.7	1018	-0.8	210	4	70
2026-02-10T05:31	9.7	1018	-0.8	210	4	70
2026-02-10T05:32	9.6	1018	-0.9	210	4	70
2026-02-10T05:33	9.7	1018	-0.5	210	4	70
2026-02-10T05:34	9.7	1018	-0.5	200	4	70
2026-02-10T05:35	9.7	1018	-0.5	200	4	70
2026-02-10T05:36	9.8	1018	-0.4	200	4	70
2026-02-10T05:37	9.8	1018	-0.4	200	4	70
2026-02-10T05:38	9.7	1018	-0.8	210	4	70
2026-02-10T05:39	9.7	1018	-0.8	210	4	70
2026-02-10T05:40	9.7	1018	-0.8	210	4	70
2026-02-10T05:41	9.6	1018	-0.9	210	4	70
2026-02-10T05:42	9.6	1018	-0.6	210	4	70
2026-02-10T05:43	9.5	1018	-0.7	210	4	70
2026-02-10T05:44	9.6	1018	-0.6	210	4	70
2026-02-10T05:45	9.6	1018	-0.6	210	4	70
2026-02-10T05:46	9.6	1018	-0.6	210	4	70
2026-02-10T05:47	9.5	1018	-0.7	210	4	70
2026-02-10T05:48	9.5	1018	-0.7	210	4	70
2026-02-10T05:49	9.5	1018	-0.4	210	4	70
2026-02-10T05:50	9.5	1018	-0.4	210	4	70
2026-02-10T05:51	9.5	1018	-0.4	210	4	70
2026-02-10T05:52	9.4	1018	-0.5	210	4	70
2026-02-10T05:53	9.4	1018	-0.5	210	4	70
2026-02-10T05:54	9.4	1018	-0.2	210	4	70
2026-02-10T05:55	9.4	1018	-0.2	210	4	70
2026-02-10T05:56	9.4	1018	-0.2	210	4	70
2026-02-10T05:57	9.5	1018	-0.1	210	3	70
2026-02-10T05:58	9.4	1018	-0.2	210	3	70
2026-02-10T05:59	9.4	1018	-0.2	210	3	70
2026-02-10T06:00	9.4	1018	0.1	210	3	70
2026-02-10T06:01	9.4	1018	-0.2	210	3	70
2026-02-10T06:02	9.4	1018	-0.2	210	3	70
2026-02-10T06:03	9.4	1018	0.1	210	3	70
2026-02-10T06:04	9.4	1018	-0.2	210	3	70
2026-02-10T06:05	9.4	1018	0.1	200	3	70
2026-02-10T06:06	9.4	1018	0.1	200	3	70
2026-02-10T06:07	9.5	1018	0.2	210	3	70
2026-02-10T06:08	9.5	1018	0.2	210	4	70
2026-02-10T06:09	9.4	1018	0.1	210	4	70
2026-02-10T06:10	9.4	1018	0.1	210	4	70
2026-02-10T06:11	9.4	1018	0.1	210	4	70
2026-02-10T06:12	9.3	1018	0.0	210	3	70
2026-02-10T06:13	9.3	1018	0.0	220	3	70
2026-02-10T06:14	9.3	1018	0.0	220	4	70
2026-02-10T06:15	9.3	1018	0.0	230	4	70
2026-02-10T06:16	9.4	1018	0.1	230	4	70
2026-02-10T06:17	9.4	1018	0.1	220	3	70
2026-02-10T06:18	9.4	1018	0.1	220	3	70
2026-02-10T06:19	9.4	1018	0.1	220	3	70
2026-02-10T06:20	9.4	1018	0.1	220	3	70
2026-02-10T06:21	9.4	1018	0.3	220	3	70
2026-02-10T06:22	9.4	1018	0.3	220	3	70
2026-02-10T06:23	9.4	1018	0.1	220	3	70
2026-02-10T06:24	9.4	1018	0.1	220	3	70
2026-02-10T06:25	9.4	1018	0.3	210	3	70
2026-02-10T06:26	9.4	1018	0.3	220	2	70
2026-02-10T06:27	9.5	1018	0.4	220	2	70
2026-02-10T06:28	9.5	1018	0.4	220	2	70
2026-02-10T06:29	9.4	1018	0.3	220	2	70
2026-02-10T06:30	9.4	1018	0.3	220	3	70
2026-02-10T06:31	9.5	1018	0.4	220	3	70
2026-02-10T06:32	9.5	1018	0.7	220	3	70
2026-02-10T06:33	9.5	1018	0.7	220	3	70
2026-02-10T06:34	9.4	1018	0.6	220	3	70
2026-02-10T06:35	9.4	1018	0.6	220	3	70
2026-02-10T06:36	9.4	1018	0.6	220	3	70
2026-02-10T06:37	9.4	1018	0.8	220	3	70
2026-02-10T06:38	9.4	1018	0.8	220	3	70
2026-02-10T06:39	9.4	1018	0.8	220	3	70
2026-02-10T06:40	9.4	1018	0.8	220	3	70
2026-02-10T06:41	9.4	1018	1.1	220	3	70
2026-02-10T06:42	9.3	1018	1.0	220	3	70
2026-02-10T06:43	9.3	1018	1.0	220	3	70
2026-02-10T06:44	9.3	1017	1.0	220	3	70
2026-02-10T06:45	9.3	1017	1.2	210	3	70
2026-02-10T06:46	9.3	1018	1.2	210	3	70
2026-02-10T06:47	9.3	1018	1.2	210	3	70
2026-02-10T06:48	9.3	1018	1.2	210	3	70
2026-02-10T06:49	9.3	1017	1.2	210	3	70
2026-02-10T06:50	9.3	1018	1.2	210	3	70
2026-02-10T06:51	9.3	1018	1.2	210	3	70
2026-02-10T06:52	9.3	1018	1.2	210	3	70
2026-02-10T06:53	9.3	1018	1.2	210	4	70
2026-02-10T06:54	9.3	1018	1.5	210	3	70
2026-02-10T06:55	9.2	1017	1.4	210	3	70
2026-02-10T06:56	9.2	1017	1.4	220	3	70
2026-02-10T06:57	9.2	1017	1.4	220	3	70
2026-02-10T06:58	9.2	1017	1.4	220	3	70
2026-02-10T06:59	9.2	1017	1.4	230	3	70
2026-02-10T07:00	9.1	1017	1.3	220	3	70
2026-02-10T07:01	9.1	1017	1.3	220	3	70
2026-02-10T07:02	9.1	1017	1.3	230	3	70
2026-02-10T07:03	9.1	1017	1.3	220	3	70
2026-02-10T07:04	9.1	1017	1.3	230	2	70
2026-02-10T07:05	9.1	1017	1.3	230	2	70
2026-02-10T07:06	9.1	1017	1.3	230	2	70
2026-02-10T07:07	9.1	1017	1.3	220	2	70
2026-02-10T07:08	9.1	1017	1.3	220	2	70
2026-02-10T07:09	9.1	1017	1.5	220	2	70
2026-02-10T07:10	9.0	1017	1.4	220	3	70
2026-02-10T07:11	9.0	1017	1.4	220	3	70
2026-02-10T07:12	9.0	1017	1.4	230	2	70
2026-02-10T07:13	9.0	1017	1.4	230	2	70
2026-02-10T07:14	9.0	1017	1.4	230	2	70
2026-02-10T07:15	9.0	1017	1.4	230	2	70
2026-02-10T07:16	9.0	1017	1.4	230	2	70
2026-02-10T07:17	9.0	1017	1.4	220	2	70
2026-02-10T07:18	9.0	1017	1.4	220	2	70
2026-02-10T07:19	9.0	1017	1.4	230	2	70
2026-02-10T07:20	9.0	1017	1.7	230	2	70
2026-02-10T07:21	9.0	1017	1.7	220	2	70
2026-02-10T07:22	8.9	1017	1.6	230	2	70
2026-02-10T07:23	8.9	1017	1.6	220	2	70
2026-02-10T07:24	8.9	1017	1.6	220	1	70
2026-02-10T07:25	8.9	1017	1.6	220	1	70
2026-02-10T07:26	8.9	1017	1.6	220	1	70
2026-02-10T07:27	8.9	1017	1.6	220	1	70
2026-02-10T07:28	8.9	1017	1.6	220	1	70
2026-02-10T07:29	8.8	1017	1.5	220	1	70
2026-02-10T07:30	8.8	1017	1.5	220	1	70
2026-02-10T07:31	8.7	1017	1.6	220	1	70
2026-02-10T07:32	8.5	1017	1.4	220	1	70
2026-02-10T07:33	8.5	1017	1.4	220	1	70
2026-02-10T07:34	8.7	1017	1.6	230	1	70
2026-02-10T07:35	8.7	1017	1.6	230	1	70
2026-02-10T07:36	8.8	1017	1.7	220	1	70
2026-02-10T07:37	8.7	1017	1.6	220	1	70
2026-02-10T07:38	8.7	1017	1.6	220	1	70
2026-02-10T07:39	8.6	1017	1.5	220	1	70
2026-02-10T07:40	8.6	1017	1.7	210	1	70
2026-02-10T07:41	8.5	1017	1.6	200	1	70
2026-02-10T07:42	8.2	1017	1.4	190	1	70
2026-02-10T07:43	8.1	1017	1.5	190	1	70
2026-02-10T07:44	8.1	1017	1.5	180	1	70
2026-02-10T07:45	7.7	1017	1.8	180	0	70
2026-02-10T07:46	7.7	1017	2.0	170	0	70
2026-02-10T07:47	7.8	1017	1.9	170	0	70
2026-02-10T07:48	7.7	1017	2.0	170	0	70
2026-02-10T07:49	7.5	1017	2.0	160	0	70
2026-02-10T07:50	7.4	1017	1.9	0	0	70
2026-02-10T07:51	7.5	1017	1.8	0	0	70
2026-02-10T07:52	7.4	1017	1.9	0	0	70
2026-02-10T07:53	7.1	1017	1.8	0	0	70
2026-02-10T07:54	7.1	1017	2.0	360	0	70
2026-02-10T07:55	7.1	1017	2.2	360	0	70
2026-02-10T07:56	7.2	1017	2.1	360	0	70
2026-02-10T07:57	7.1	1017	2.2	40	0	70
2026-02-10T07:58	7.2	1017	2.1	10	1	70
2026-02-10T07:59	7.1	1017	1.8	360	1	70
2026-02-10T08:00	7.1	1017	2.0	360	1	70
2026-02-10T08:01	7.2	1017	1.9	350	1	70
2026-02-10T08:02	7.2	1017	1.9	350	1	70
2026-02-10T08:03	6.9	1017	1.6	350	0	70
2026-02-10T08:04	6.9	1017	1.8	350	0	70
2026-02-10T08:05	7.1	1017	1.8	340	0	70
2026-02-10T08:06	6.9	1017	1.8	0	0	70
2026-02-10T08:07	7.0	1017	2.1	0	0	70
2026-02-10T08:08	7.0	1017	2.1	0	0	70
2026-02-10T08:09	7.1	1017	2.0	0	0	70
2026-02-10T08:10	7.0	1017	1.9	0	0	70
2026-02-10T08:11	6.9	1017	1.8	0	0	70
2026-02-10T08:12	6.9	1017	1.8	0	0	70
2026-02-10T08:13	6.9	1017	1.8	0	0	70
2026-02-10T08:14	6.8	1017	1.7	0	0	70
2026-02-10T08:15	6.7	1017	1.8	0	0	70
2026-02-10T08:16	6.7	1017	1.8	0	0	70
2026-02-10T08:17	6.8	1017	1.9	0	0	70
2026-02-10T08:18	6.7	1017	1.8	0	0	70
2026-02-10T08:19	6.2	1017	1.3	0	0	70
2026-02-10T08:20	6.2	1017	1.7	0	0	70
2026-02-10T08:21	6.3	1017	1.8	0	0	70
2026-02-10T08:22	6.5	1017	2.0	0	0	70
2026-02-10T08:23	6.6	1017	1.9	0	0	70
2026-02-10T08:24	6.6	1017	1.7	0	0	70
2026-02-10T08:25	6.5	1017	1.6	0	0	70
2026-02-10T08:26	6.3	1017	1.4	0	0	70
2026-02-10T08:27	6.2	1017	1.5	0	0	70
2026-02-10T08:28	6.3	1017	1.8	0	0	70
2026-02-10T08:29	6.4	1017	1.9	310	0	70
2026-02-10T08:30	6.3	1017	1.6	310	0	70
2026-02-10T08:31	6.1	1017	1.4	310	0	70
2026-02-10T08:32	5.9	1017	1.4	310	0	70
2026-02-10T08:33	5.8	1017	1.5	310	0	70
2026-02-10T08:34	5.9	1017	1.6	310	1	70
2026-02-10T08:35	6.0	1017	1.9	310	0	70
2026-02-10T08:36	5.9	1017	1.8	310	0	70
2026-02-10T08:37	5.9	1017	1.8	310	0	70
2026-02-10T08:38	5.7	1017	1.6	310	0	70
2026-02-10T08:39	5.7	1017	1.8	320	0	70
2026-02-10T08:40	5.9	1017	1.8	320	0	70
2026-02-10T08:41	6.0	1017	1.9	330	0	70
2026-02-10T08:42	5.9	1017	1.8	330	0	70
2026-02-10T08:43	5.9	1017	1.8	340	1	70
2026-02-10T08:44	5.9	1017	1.8	340	1	70
2026-02-10T08:45	5.8	1017	1.9	350	1	70
2026-02-10T08:46	5.6	1017	1.7	350	1	70
2026-02-10T08:47	5.7	1017	2.0	360	1	70
2026-02-10T08:48	5.8	1017	2.1	10	1	70
2026-02-10T08:49	5.8	1017	2.1	10	1	70
2026-02-10T08:50	5.7	1017	2.2	20	1	70
2026-02-10T08:51	5.7	1017	2.4	20	1	70
2026-02-10T08:52	5.7	1017	2.2	20	0	70
2026-02-10T08:53	5.8	1017	2.3	30	0	70
2026-02-10T08:54	5.9	1017	2.4	30	0	70
2026-02-10T08:55	5.9	1017	2.2	0	0	70
2026-02-10T08:56	5.8	1017	2.1	0	0	70
2026-02-10T08:57	5.7	1017	2.0	0	0	70
2026-02-10T08:58	5.7	1017	2.0	0	0	70
2026-02-10T08:59	5.6	1017	1.7	0	0	70
2026-02-10T09:00	5.6	1017	1.9	0	0	70
2026-02-10T09:01	5.6	1017	1.9	350	0	70
2026-02-10T09:02	5.4	1017	1.9	330	0	70
2026-02-10T09:03	5.4	1017	1.9	320	0	70
2026-02-10T09:04	5.4	1017	1.9	300	0	70
2026-02-10T09:05	5.4	1017	1.7	300	0	70
2026-02-10T09:06	5.4	1017	1.7	290	1	70
2026-02-10T09:07	5.4	1017	1.9	290	0	70
2026-02-10T09:08	5.5	1017	2.0	300	0	70
2026-02-10T09:09	5.5	1017	2.0	300	0	70
2026-02-10T09:10	5.3	1016	2.0	310	1	70
2026-02-10T09:11	5.3	1016	2.1	340	1	70
2026-02-10T09:12	5.0	1016	2.0	360	1	70
2026-02-10T09:13	5.0	1017	2.2	20	1	70
2026-02-10T09:14	5.3	1017	2.5	40	1	70
2026-02-10T09:15	5.6	1017	2.4	60	1	70
2026-02-10T09:16	5.8	1017	2.5	70	1	70
2026-02-10T09:17	5.8	1017	2.3	90	1	70
2026-02-10T09:18	5.8	1016	2.3	100	1	70
2026-02-10T09:19	5.6	1016	1.9	100	1	70
2026-02-10T09:20	5.4	1016	1.7	110	1	70
2026-02-10T09:21	5.3	1016	1.8	120	0	70
2026-02-10T09:22	5.3	1016	1.8	130	0	70
2026-02-10T09:23	5.3	1017	2.0	130	0	70
2026-02-10T09:24	5.1	1017	1.8	140	0	70
2026-02-10T09:25	5.2	1017	1.9	140	0	70
2026-02-10T09:26	5.2	1017	2.0	140	0	70
2026-02-10T09:27	5.2	1017	2.0	0	0	70
2026-02-10T09:28	5.1	1017	1.9	0	0	70
2026-02-10T09:29	5.1	1017	1.9	0	0	70
2026-02-10T09:30	5.1	1017	1.9	160	0	70
2026-02-10T09:31	4.9	1017	1.8	180	0	70
2026-02-10T09:32	4.9	1017	1.8	200	1	70
2026-02-10T09:33	4.8	1017	1.7	220	1	70
2026-02-10T09:34	4.8	1017	1.7	230	1	70
2026-02-10T09:35	5.2	1017	2.0	240	1	70
2026-02-10T09:36	5.6	1017	2.4	250	1	70
2026-02-10T09:37	5.2	1017	1.9	260	1	70
2026-02-10T09:38	4.8	1017	1.3	270	1	70
2026-02-10T09:39	4.8	1017	1.5	270	1	70
2026-02-10T09:40	5.1	1017	1.9	280	1	70
2026-02-10T09:41	5.1	1017	1.9	290	1	70
2026-02-10T09:42	4.9	1017	1.8	290	1	70
2026-02-10T09:43	5.0	1017	1.8	300	1	70
2026-02-10T09:44	5.3	1017	2.0	300	1	70
2026-02-10T09:45	5.2	1016	1.7	310	1	70
2026-02-10T09:46	5.3	1017	1.8	310	1	70
2026-02-10T09:47	5.5	1017	2.0	320	1	70
2026-02-10T09:48	5.5	1017	1.6	320	1	70
2026-02-10T09:49	5.2	1017	1.5	310	2	70
2026-02-10T09:50	5.6	1017	1.5	310	1	70
2026-02-10T09:51	5.6	1017	1.5	310	1	70
2026-02-10T09:52	5.4	1017	1.3	310	1	70
2026-02-10T09:53	5.0	1017	1.1	310	2	70
2026-02-10T09:54	4.9	1017	1.2	310	2	70
2026-02-10T09:55	5.3	1017	1.4	300	2	70
2026-02-10T09:56	5.7	1017	1.4	300	2	70
2026-02-10T09:57	5.6	1017	1.3	300	2	70
2026-02-10T09:58	5.5	1017	1.1	300	2	70
2026-02-10T09:59	5.6	1017	1.0	300	2	70
2026-02-10T10:00	5.8	1017	1.0	300	2	70
2026-02-10T10:01	5.9	1016	0.7	300	2	70
2026-02-10T10:02	5.9	1016	0.7	300	2	70
2026-02-10T10:03	6.1	1016	0.5	300	2	70
2026-02-10T10:04	6.3	1017	0.2	310	2	70
2026-02-10T10:05	5.9	1017	0.1	310	2	70
2026-02-10T10:06	6.1	1017	0.2	310	2	70
2026-02-10T10:07	6.1	1017	0.2	310	2	70
2026-02-10T10:08	6.1	1017	0.0	300	2	70
2026-02-10T10:09	5.9	1016	-0.1	300	2	70
2026-02-10T10:10	5.8	1016	0.2	300	1	70
2026-02-10T10:11	5.8	1016	0.0	310	1	70
2026-02-10T10:12	5.2	1016	-0.2	310	1	70
2026-02-10T10:13	5.4	1016	0.2	310	1	70
2026-02-10T10:14	6.0	1016	0.2	310	1	70
2026-02-10T10:15	5.4	1016	-0.2	300	1	70
2026-02-10T10:16	5.6	1016	0.0	300	1	70
2026-02-10T10:17	5.9	1016	0.1	310	1	70
2026-02-10T10:18	5.6	1016	-0.2	310	1	70
2026-02-10T10:19	5.5	1016	-0.1	310	1	70
2026-02-10T10:20	5.6	1016	0.0	310	1	70
2026-02-10T10:21	5.5	1016	-0.1	310	1	70
2026-02-10T10:22	5.3	1016	-0.1	320	1	70
2026-02-10T10:23	5.1	1016	-0.1	320	1	70
2026-02-10T10:24	5.2	1016	0.0	330	1	70
2026-02-10T10:25	4.8	1016	0.0	340	1	70
2026-02-10T10:26	5.2	1016	0.2	350	1	70
2026-02-10T10:27	5.3	1016	0.1	350	1	70
2026-02-10T10:28	5.3	1016	0.1	350	1	70
2026-02-10T10:29	5.5	1016	0.1	340	1	70
2026-02-10T10:30	5.4	1016	0.0	330	1	70
2026-02-10T10:31	5.4	1016	0.0	300	1	70
2026-02-10T10:32	5.2	1016	0.0	260	1	70
2026-02-10T10:33	5.0	1016	-0.2	240	1	70
2026-02-10T10:34	5.0	1016	-0.2	240	1	70
2026-02-10T10:35	5.0	1016	-0.2	240	1	70
2026-02-10T10:36	5.0	1016	-0.2	240	1	70
2026-02-10T10:37	5.0	1016	-0.2	240	1	70
2026-02-10T10:38	5.1	1016	-0.1	250	1	70
2026-02-10T10:39	5.3	1016	-0.3	260	1	70
2026-02-10T10:40	5.1	1016	-0.3	260	1	70
2026-02-10T10:41	5.0	1016	-0.4	270	1	70
2026-02-10T10:42	4.9	1016	-0.3	290	1	70
2026-02-10T10:43	4.8	1015	-0.4	300	1	70
2026-02-10T10:44	4.8	1015	-0.2	300	1	70
2026-02-10T10:45	4.7	1015	-0.3	310	1	70
2026-02-10T10:46	4.7	1016	-0.3	320	1	70
2026-02-10T10:47	4.7	1016	-0.3	320	1	70
2026-02-10T10:48	4.6	1015	-0.2	320	1	70
2026-02-10T10:49	4.4	1015	0.0	320	1	70
2026-02-10T10:50	4.6	1015	0.0	320	0	70
2026-02-10T10:51	4.8	1015	0.0	320	0	70
2026-02-10T10:52	4.6	1016	-0.2	310	0	70
2026-02-10T10:53	4.4	1016	-0.2	300	0	70
2026-02-10T10:54	4.5	1016	-0.1	290	0	70
2026-02-10T10:55	4.4	1016	0.0	270	1	70
2026-02-10T10:56	4.4	1016	0.0	260	1	70
2026-02-10T10:57	4.7	1016	0.1	250	1	70
2026-02-10T10:58	4.7	1016	0.1	240	1	70
2026-02-10T10:59	4.4	1016	0.0	230	1	70
2026-02-10T11:00	4.5	1016	0.1	220	1	70
2026-02-10T11:01	4.5	1016	0.1	220	1	70
2026-02-10T11:02	4.4	1016	0.0	220	1	70
2026-02-10T11:03	4.4	1016	0.0	220	1	70
2026-02-10T11:04	4.6	1015	0.2	220	0	70
2026-02-10T11:05	4.4	1015	0.0	220	0	70
2026-02-10T11:06	4.5	1015	-0.1	0	0	70
2026-02-10T11:07	4.5	1015	-0.1	0	0	70
2026-02-10T11:08	4.6	1015	0.0	0	0	70
2026-02-10T11:09	4.5	1015	-0.1	0	0	70
2026-02-10T11:10	4.5	1015	-0.1	0	0	70
2026-02-10T11:11	4.5	1015	-0.1	0	0	70
2026-02-10T11:12	4.5	1015	-0.1	0	0	70
2026-02-10T11:13	4.6	1015	0.0	0	0	70
2026-02-10T11:14	4.5	1015	-0.1	0	0	70
2026-02-10T11:15	4.4	1015	0.0	0	0	70
2026-02-10T11:16	4.2	1015	-0.2	0	0	70
2026-02-10T11:17	4.2	1015	-0.2	0	0	70
2026-02-10T11:18	4.5	1015	0.1	0	0	70
2026-02-10T11:19	4.5	1015	-0.1	0	0	70
2026-02-10T11:20	4.4	1015	-0.2	0	0	70
2026-02-10T11:21	4.3	1015	-0.1	0	0	70
2026-02-10T11:22	4.3	1015	-0.3	0	0	70
2026-02-10T11:23	4.3	1015	-0.5	0	0	70
2026-02-10T11:24	4.4	1015	-0.4	0	0	70
2026-02-10T11:25	4.3	1015	-0.3	0	0	70
2026-02-10T11:26	4.4	1015	-0.2	0	0	70
2026-02-10T11:27	4.2	1015	-0.2	0	0	70
2026-02-10T11:28	4.2	1015	0.0	310	0	70
2026-02-10T11:29	4.2	1015	0.0	310	0	70
2026-02-10T11:30	4.2	1015	0.0	220	0	70
2026-02-10T11:31	4.1	1015	-0.1	280	0	70
2026-02-10T11:32	4.0	1015	0.0	250	0	70
2026-02-10T11:33	4.0	1015	0.0	230	0	70
2026-02-10T11:34	4.2	1015	0.2	220	0	70
2026-02-10T11:35	4.4	1015	0.2	210	1	70
2026-02-10T11:36	4.4	1015	0.0	210	1	70
2026-02-10T11:37	4.1	1015	-0.3	210	1	70
2026-02-10T11:38	4.0	1015	-0.2	210	1	70
2026-02-10T11:39	4.0	1015	-0.2	210	1	70
2026-02-10T11:40	4.2	1015	0.0	210	1	70
2026-02-10T11:41	4.3	1015	-0.1	210	1	70
2026-02-10T11:42	4.3	1015	-0.1	210	1	70
2026-02-10T11:43	4.2	1015	-0.2	200	1	70
2026-02-10T11:44	4.1	1015	-0.3	200	1	70
2026-02-10T11:45	4.3	1015	-0.1	190	1	70
2026-02-10T11:46	4.1	1015	-0.3	180	1	70
2026-02-10T11:47	3.9	1015	-0.5	180	1	70
2026-02-10T11:48	4.0	1015	-0.2	170	0	70
2026-02-10T11:49	4.2	1015	-0.2	160	1	70
2026-02-10T11:50	4.2	1015	-0.4	150	1	70
2026-02-10T11:51	4.2	1015	-0.4	150	1	70
2026-02-10T11:52	4.1	1015	-0.3	360	1	70
2026-02-10T11:53	4.0	1015	-0.4	340	1	70
2026-02-10T11:54	3.9	1015	-0.1	330	1	70
2026-02-10T11:55	3.9	1015	0.1	320	1	70
2026-02-10T11:56	4.1	1015	0.1	300	1	70
2026-02-10T11:57	4.0	1015	-0.2	290	1	70
2026-02-10T11:58	4.0	1015	0.0	290	1	70
2026-02-10T11:59	3.8	1015	0.0	280	1	70
2026-02-10T12:00	3.6	1015	-0.2	270	1	70
2026-02-10T12:01	3.7	1015	-0.1	260	1	70
2026-02-10T12:02	3.7	1015	-0.1	250	1	70
2026-02-10T12:03	3.6	1015	-0.2	240	1	70
2026-02-10T12:04	3.6	1015	0.0	230	1	70
2026-02-10T12:05	3.5	1015	-0.1	230	1	70
2026-02-10T12:06	3.6	1015	0.0	230	1	70
2026-02-10T12:07	3.7	1015	0.1	230	1	70
2026-02-10T12:08	3.5	1015	-0.1	230	1	69
2026-02-10T12:09	3.3	1015	-0.3	230	1	69
2026-02-10T12:10	3.5	1015	0.0	230	1	69
2026-02-10T12:11	3.5	1015	-0.1	240	1	69
2026-02-10T12:12	3.3	1015	-0.3	250	1	69
2026-02-10T12:13	3.5	1015	-0.3	250	1	69
2026-02-10T12:14	3.3	1015	-0.3	260	1	69
2026-02-10T12:15	3.2	1015	-0.4	260	1	69
2026-02-10T12:16	3.5	1015	-0.1	250	1	69
2026-02-10T12:17	3.3	1015	-0.3	250	1	69
2026-02-10T12:18	2.8	1015	-1.0	240	1	69
2026-02-10T12:19	3.0	1015	-0.4	230	1	69
2026-02-10T12:20	3.4	1015	0.1	220	1	69
2026-02-10T12:21	3.3	1015	-0.1	220	1	69
2026-02-10T12:22	3.2	1015	-0.4	220	1	69
2026-02-10T12:23	2.8	1015	-0.8	210	1	69
2026-02-10T12:24	2.9	1015	-0.5	210	1	69
2026-02-10T12:25	3.0	1015	-0.4	220	1	69
2026-02-10T12:26	2.8	1015	-0.6	230	1	69
2026-02-10T12:27	2.8	1015	-0.5	230	1	68
2026-02-10T12:28	2.9	1015	-0.4	240	1	68
2026-02-10T12:29	3.0	1015	-0.3	250	1	68
2026-02-10T12:30	3.0	1015	-0.4	250	1	69
2026-02-10T12:31	2.8	1015	-0.8	260	1	69
2026-02-10T12:32	2.8	1015	-0.6	270	1	69
2026-02-10T12:33	2.6	1015	-0.7	270	1	69
2026-02-10T12:34	2.6	1015	-0.3	280	1	69
2026-02-10T12:35	2.8	1015	-0.3	280	1	69
2026-02-10T12:36	2.8	1015	-0.3	290	1	69
2026-02-10T12:37	2.6	1015	-0.5	290	1	69
2026-02-10T12:38	2.4	1015	-0.7	290	1	69
2026-02-10T12:39	2.4	1015	-0.7	280	1	68
2026-02-10T12:40	2.3	1015	-0.8	280	1	68
2026-02-10T12:41	2.3	1015	-0.8	270	1	68
2026-02-10T12:42	2.1	1015	-1.0	260	1	67
2026-02-10T12:43	2.0	1015	-0.9	260	1	67
2026-02-10T12:44	1.9	1015	-1.0	260	1	67
2026-02-10T12:45	1.8	1015	-0.9	250	1	67
2026-02-10T12:46	2.1	1015	-0.6	250	1	67
2026-02-10T12:47	2.0	1015	-0.7	250	1	67
2026-02-10T12:48	2.0	1015	-0.7	250	1	67
2026-02-10T12:49	2.1	1015	-0.8	250	1	67
2026-02-10T12:50	2.0	1015	-0.9	250	2	67
2026-02-10T12:51	2.0	1015	-0.7	250	2	67
2026-02-10T12:52	2.2	1015	-0.5	250	2	67
2026-02-10T12:53	2.2	1015	-0.7	260	2	67
2026-02-10T12:54	1.9	1015	-1.2	260	2	67
2026-02-10T12:55	2.4	1015	-0.5	270	1	67
2026-02-10T12:56	2.4	1015	-0.7	270	1	67
2026-02-10T12:57	2.3	1015	-0.8	270	2	67
2026-02-10T12:58	2.5	1015	-0.6	280	2	68
2026-02-10T12:59	3.0	1015	-0.3	290	2	68
2026-02-10T13:00	3.0	1015	-0.4	290	2	68
2026-02-10T13:01	2.9	1015	-0.7	290	2	68
2026-02-10T13:02	3.1	1015	-0.5	300	2	69
2026-02-10T13:03	3.4	1015	-0.6	300	2	69
2026-02-10T13:04	3.4	1015	-0.8	310	2	69
2026-02-10T13:05	3.1	1015	-1.1	300	2	69
2026-02-10T13:06	3.6	1015	-0.6	300	2	69
2026-02-10T13:07	3.5	1015	-0.7	310	2	69
2026-02-10T13:08	3.3	1015	-1.1	300	2	69
2026-02-10T13:09	2.9	1015	-1.3	290	2	69
2026-02-10T13:10	2.0	1015	-2.0	300	2	69
2026-02-10T13:11	2.6	1015	-1.0	300	1	69
2026-02-10T13:12	2.5	1015	-1.1	300	1	69
2026-02-10T13:13	3.3	1015	-0.3	300	1	69
2026-02-10T13:14	3.6	1015	-0.4	300	1	69
2026-02-10T13:15	3.9	1015	-0.5	290	1	69
2026-02-10T13:16	3.2	1015	-1.4	290	1	69
2026-02-10T13:17	2.5	1015	-1.7	290	1	69
2026-02-10T13:18	2.3	1015	-1.5	290	1	68
2026-02-10T13:19	2.2	1015	-1.4	290	1	68
2026-02-10T13:20	2.3	1015	-1.1	290	1	69
2026-02-10T13:21	2.2	1015	-1.2	290	1	68
2026-02-10T13:22	2.1	1015	-1.3	290	1	69
2026-02-10T13:23	2.3	1014	-1.0	290	1	69
2026-02-10T13:24	2.2	1014	-1.1	290	1	68
2026-02-10T13:25	2.1	1014	-1.2	300	1	68
2026-02-10T13:26	1.7	1014	-1.5	290	1	68
2026-02-10T13:27	1.7	1014	-1.4	290	1	68
2026-02-10T13:28	1.8	1014	-1.1	280	1	68
2026-02-10T13:29	1.6	1014	-1.5	260	1	69
2026-02-10T13:30	1.6	1014	-1.5	250	1	69
2026-02-10T13:31	1.8	1014	-1.3	250	1	68
2026-02-10T13:32	1.7	1014	-1.4	240	1	68
2026-02-10T13:33	1.8	1014	-1.4	240	1	68
2026-02-10T13:34	1.9	1014	-1.3	240	1	68
2026-02-10T13:35	2.0	1014	-1.1	250	1	68
2026-02-10T13:36	2.1	1014	-1.0	250	1	68
2026-02-10T13:37	2.1	1014	-1.2	260	1	68
2026-02-10T13:38	1.6	1014	-1.6	270	1	68
2026-02-10T13:39	1.8	1014	-1.3	280	1	68
2026-02-10T13:40	1.9	1014	-1.2	280	1	68
2026-02-10T13:41	1.9	1014	-1.2	290	1	68
2026-02-10T13:42	1.9	1014	-1.2	280	1	68
2026-02-10T13:43	1.2	1014	-2.2	270	1	68
2026-02-10T13:44	1.4	1014	-1.7	260	1	68
2026-02-10T13:45	1.4	1014	-1.5	250	1	68
2026-02-10T13:46	1.6	1014	-1.3	240	1	68
2026-02-10T13:47	1.2	1014	-1.7	220	1	68
2026-02-10T13:48	1.5	1014	-1.4	220	1	68
2026-02-10T13:49	1.6	1014	-1.3	220	1	68
2026-02-10T13:50	1.4	1014	-1.5	220	1	68
2026-02-10T13:51	1.5	1014	-1.4	220	1	68
2026-02-10T13:52	1.5	1014	-1.2	220	0	68
2026-02-10T13:53	1.4	1014	-1.3	230	0	68
2026-02-10T13:54	1.3	1014	-1.4	240	1	68
2026-02-10T13:55	1.4	1014	-1.5	240	1	68
2026-02-10T13:56	1.0	1014	-1.9	240	1	68
2026-02-10T13:57	0.9	1014	-2.0	250	1	68
2026-02-10T13:58	1.1	1014	-1.6	250	1	68
2026-02-10T13:59	1.1	1014	-1.6	240	1	67
2026-02-10T14:00	1.2	1014	-1.5	240	1	67
2026-02-10T14:01	1.4	1014	-1.2	240	1	67
2026-02-10T14:02	1.5	1014	-1.2	240	1	67
2026-02-10T14:03	1.3	1014	-1.4	240	1	67
2026-02-10T14:04	1.3	1014	-1.4	240	0	67
2026-02-10T14:05	1.5	1014	-1.2	240	0	67
2026-02-10T14:06	1.5	1014	-1.2	0	0	67
2026-02-10T14:07	1.3	1014	-1.6	0	0	67
2026-02-10T14:08	1.4	1014	-1.5	0	0	67
2026-02-10T14:09	1.2	1014	-1.7	0	0	67
2026-02-10T14:10	1.2	1014	-1.5	0	0	67
2026-02-10T14:11	1.3	1014	-1.4	0	0	67
2026-02-10T14:12	1.2	1014	-1.5	250	0	67
2026-02-10T14:13	1.2	1014	-1.5	250	0	67
2026-02-10T14:14	1.3	1014	-1.3	240	0	67
2026-02-10T14:15	1.5	1014	-1.1	230	1	67
2026-02-10T14:16	1.4	1014	-1.2	220	1	67
2026-02-10T14:17	1.4	1014	-1.2	210	1	67
2026-02-10T14:18	0.9	1013	-1.8	190	1	67
2026-02-10T14:19	0.5	1013	-2.0	170	1	66
2026-02-10T14:20	0.7	1014	-1.5	160	1	66
2026-02-10T14:21	0.7	1014	-1.4	160	1	66
2026-02-10T14:22	0.9	1014	-1.0	150	1	66
2026-02-10T14:23	0.9	1014	-1.2	150	1	66
2026-02-10T14:24	1.0	1014	-1.1	150	1	66
2026-02-10T14:25	0.9	1014	-1.3	170	1	66
2026-02-10T14:26	0.9	1014	-1.3	180	0	65
2026-02-10T14:27	1.1	1014	-1.1	190	0	65
2026-02-10T14:28	1.1	1014	-1.1	200	0	65
2026-02-10T14:29	1.0	1014	-1.2	0	0	66
2026-02-10T14:30	1.1	1013	-1.1	0	0	66
2026-02-10T14:31	0.9	1013	-1.5	0	0	66
2026-02-10T14:32	0.9	1013	-1.5	0	0	65
2026-02-10T14:33	0.8	1013	-1.6	0	0	65
2026-02-10T14:34	0.8	1013	-1.4	0	0	65
2026-02-10T14:35	0.9	1013	-1.2	0	0	65
2026-02-10T14:36	1.0	1013	-0.9	0	0	65
2026-02-10T14:37	1.2	1013	-0.9	0	0	65
2026-02-10T14:38	1.1	1013	-1.3	0	0	65
2026-02-10T14:39	1.0	1013	-1.4	0	0	65
2026-02-10T14:40	0.9	1013	-1.3	0	0	65
2026-02-10T14:41	0.8	1013	-1.4	0	0	65
2026-02-10T14:42	0.9	1013	-1.3	0	0	65
2026-02-10T14:43	1.0	1013	-1.2	0	0	65
2026-02-10T14:44	1.0	1013	-1.2	0	0	65
2026-02-10T14:45	0.9	1013	-1.3	0	0	65
2026-02-10T14:46	0.8	1013	-1.4	0	0	65
2026-02-10T14:47	0.9	1013	-1.3	0	0	65
2026-02-10T14:48	0.8	1013	-1.4	0	0	65
2026-02-10T14:49	0.7	1013	-1.5	0	0	65
2026-02-10T14:50	0.5	1013	-1.7	0	0	65
2026-02-10T14:51	0.3	1013	-1.9	0	0	65
2026-02-10T14:52	0.8	1013	-1.3	0	0	65
2026-02-10T14:53	0.9	1013	-1.2	0	0	65
2026-02-10T14:54	0.8	1013	-1.4	0	0	65
2026-02-10T14:55	0.4	1013	-2.0	0	0	64
2026-02-10T14:56	0.3	1013	-1.9	0	0	64
2026-02-10T14:57	0.5	1013	-1.6	0	0	64
2026-02-10T14:58	0.7	1013	-1.4	0	0	64
2026-02-10T14:59	0.7	1013	-1.4	0	0	64
2026-02-10T15:00	0.4	1013	-1.8	0	0	64
2026-02-10T15:01	0.5	1013	-1.6	0	0	64
2026-02-10T15:02	0.4	1013	-1.7	0	0	64
2026-02-10T15:03	0.4	1013	-1.7	0	0	64
2026-02-10T15:04	0.4	1013	-1.7	0	0	63
2026-02-10T15:05	0.6	1013	-1.5	0	0	63
2026-02-10T15:06	0.5	1013	-1.6	120	0	63
2026-02-10T15:07	0.5	1013	-1.6	100	0	63
2026-02-10T15:08	0.3	1013	-1.8	80	0	63
2026-02-10T15:09	0.4	1013	-1.7	80	0	63
2026-02-10T15:10	0.6	1013	-1.3	70	0	63
2026-02-10T15:11	0.6	1013	-1.5	80	1	63
2026-02-10T15:12	0.7	1013	-1.4	80	1	63
2026-02-10T15:13	0.7	1013	-1.4	90	1	63
2026-02-10T15:14	0.3	1013	-1.9	90	1	62
2026-02-10T15:15	0.0	1013	-2.2	110	1	62
2026-02-10T15:16	0.1	1013	-2.0	120	1	62
2026-02-10T15:17	0.4	1013	-1.5	120	1	62
2026-02-10T15:18	0.6	1013	-1.3	130	1	62
2026-02-10T15:19	0.5	1013	-1.4	130	1	62
2026-02-10T15:20	0.4	1013	-1.7	120	1	62
2026-02-10T15:21	0.1	1013	-1.8	120	1	62
2026-02-10T15:22	-0.1	1013	-2.1	120	0	62
2026-02-10T15:23	0.2	1013	-1.5	130	0	62
2026-02-10T15:24	0.2	1013	-1.5	130	0	62
2026-02-10T15:25	-0.1	1013	-1.8	140	0	62
2026-02-10T15:26	-0.3	1013	-2.0	150	0	62
2026-02-10T15:27	-0.5	1013	-2.2	160	0	62
2026-02-10T15:28	-0.5	1013	-2.1	270	1	61
2026-02-10T15:29	-0.6	1013	-2.2	210	1	61
2026-02-10T15:30	-0.4	1013	-1.8	250	0	61
2026-02-10T15:31	-0.2	1013	-1.5	270	1	61
2026-02-10T15:32	-0.1	1013	-1.5	280	1	61
2026-02-10T15:33	-0.1	1013	-1.5	290	0	61
2026-02-10T15:34	0.0	1012	-1.4	300	0	61
2026-02-10T15:35	0.0	1012	-1.6	300	0	61
2026-02-10T15:36	-0.1	1012	-1.7	310	0	61
2026-02-10T15:37	-0.1	1012	-1.7	310	0	61
2026-02-10T15:38	0.0	1012	-1.6	0	0	61
2026-02-10T15:39	0.1	1012	-1.5	70	0	61
2026-02-10T15:40	0.1	1012	-1.5	100	0	61
2026-02-10T15:41	0.1	1012	-1.5	40	0	61
2026-02-10T15:42	-0.2	1012	-1.9	90	1	61
2026-02-10T15:43	-0.4	1012	-2.1	100	1	61
2026-02-10T15:44	-0.1	1012	-1.7	100	1	61
2026-02-10T15:45	0.0	1013	-1.6	100	1	61
2026-02-10T15:46	0.0	1013	-1.6	110	1	61
2026-02-10T15:47	0.2	1013	-1.4	110	1	61
2026-02-10T15:48	0.1	1013	-1.5	100	1	61
2026-02-10T15:49	0.0	1013	-1.7	100	1	61
2026-02-10T15:50	0.1	1013	-1.6	350	1	62
2026-02-10T15:51	0.2	1013	-1.5	320	1	62
2026-02-10T15:52	0.1	1012	-1.6	20	1	62
2026-02-10T15:53	0.1	1012	-1.6	350	1	62
2026-02-10T15:54	-0.1	1012	-1.8	330	1	62
2026-02-10T15:55	0.0	1012	-1.7	330	1	62
2026-02-10T15:56	0.1	1012	-1.6	320	1	62
2026-02-10T15:57	0.0	1012	-1.7	320	1	62
2026-02-10T15:58	-0.2	1012	-1.9	310	1	62
2026-02-10T15:59	-0.3	1012	-2.0	300	1	62
2026-02-10T16:00	-0.3	1012	-2.0	290	1	62
2026-02-10T16:01	-0.2	1012	-1.9	280	1	61
2026-02-10T16:02	-0.1	1012	-1.7	270	1	61
2026-02-10T16:03	-0.4	1012	-2.1	260	1	61
2026-02-10T16:04	-0.3	1012	-2.0	240	1	61
2026-02-10T16:05	-0.2	1012	-1.8	220	1	61
2026-02-10T16:06	0.0	1012	-1.6	210	1	61
2026-02-10T16:07	0.0	1012	-1.6	210	1	61
2026-02-10T16:08	-0.1	1012	-1.7	220	1	61
2026-02-10T16:09	-0.2	1012	-1.9	230	1	61
2026-02-10T16:10	0.0	1012	-1.6	230	1	61
2026-02-10T16:11	0.0	1012	-1.6	240	1	61
2026-02-10T16:12	-0.1	1012	-1.8	240	1	62
2026-02-10T16:13	-0.2	1012	-1.9	240	1	62
2026-02-10T16:14	-0.3	1012	-2.0	260	1	62
2026-02-10T16:15	-0.4	1012	-2.1	270	1	62
2026-02-10T16:16	-0.5	1012	-2.1	280	1	61
2026-02-10T16:17	-0.4	1012	-1.8	280	1	61
2026-02-10T16:18	-0.2	1012	-1.6	280	1	61
2026-02-10T16:19	-0.1	1012	-1.5	270	1	61
2026-02-10T16:20	-0.2	1012	-1.6	270	1	61
2026-02-10T16:21	-0.2	1012	-1.8	270	0	61
2026-02-10T16:22	-0.1	1012	-1.7	270	0	61
2026-02-10T16:23	-0.3	1012	-1.9	260	0	61
2026-02-10T16:24	-0.6	1012	-2.2	260	0	61
2026-02-10T16:25	-0.5	1012	-2.1	0	0	61
2026-02-10T16:26	-0.5	1012	-1.9	0	0	61
2026-02-10T16:27	-0.2	1012	-1.5	0	0	61
2026-02-10T16:28	-0.2	1012	-1.6	0	0	61
2026-02-10T16:29	-0.3	1012	-1.7	0	0	61
2026-02-10T16:30	-0.1	1012	-1.5	0	0	61
2026-02-10T16:31	-0.1	1012	-1.5	0	0	61
2026-02-10T16:32	-0.2	1012	-1.8	0	0	61
2026-02-10T16:33	-0.1	1012	-1.7	0	0	61
2026-02-10T16:34	-0.1	1012	-1.7	0	0	61
2026-02-10T16:35	-0.1	1012	-1.7	250	0	61
2026-02-10T16:36	-0.1	1012	-1.7	250	1	61
2026-02-10T16:37	-0.2	1012	-1.8	240	1	61
2026-02-10T16:38	-0.4	1012	-2.1	240	1	61
2026-02-10T16:39	-0.5	1012	-2.2	230	1	61
2026-02-10T16:40	-0.2	1012	-1.8	230	1	62
2026-02-10T16:41	-0.1	1012	-1.7	220	1	61
2026-02-10T16:42	0.0	1012	-1.6	220	1	62
2026-02-10T16:43	-0.5	1012	-2.2	220	1	62
2026-02-10T16:44	-0.1	1012	-1.7	220	1	62
2026-02-10T16:45	-0.2	1012	-1.8	220	1	62
2026-02-10T16:46	-0.4	1012	-2.0	220	1	61
2026-02-10T16:47	-0.4	1012	-2.0	220	1	61
2026-02-10T16:48	-0.4	1012	-2.0	230	0	61
2026-02-10T16:49	-0.3	1012	-1.9	230	0	61
2026-02-10T16:50	-0.4	1012	-2.0	0	0	61
2026-02-10T16:51	-0.2	1012	-1.6	0	0	61
2026-02-10T16:52	0.0	1011	-1.4	0	0	61
2026-02-10T16:53	0.0	1011	-1.4	0	0	61
2026-02-10T16:54	-0.1	1011	-1.7	0	0	61
2026-02-10T16:55	-0.4	1011	-2.1	0	0	61
2026-02-10T16:56	-0.6	1011	-2.2	260	0	61
2026-02-10T16:57	-0.6	1011	-2.2	260	0	61
2026-02-10T16:58	-0.8	1011	-2.2	270	0	61
2026-02-10T16:59	-0.8	1011	-2.2	280	1	61
2026-02-10T17:00	-0.7	1011	-2.0	290	1	61
2026-02-10T17:01	-0.7	1011	-2.0	290	1	60
2026-02-10T17:02	-0.5	1011	-1.8	300	1	60
2026-02-10T17:03	-0.8	1011	-2.1	300	1	60
2026-02-10T17:04	-0.9	1011	-2.2	300	1	60
2026-02-10T17:05	-0.7	1011	-2.0	290	1	59
2026-02-10T17:06	-0.8	1011	-2.1	290	1	60
2026-02-10T17:07	-0.9	1011	-2.2	290	1	59
2026-02-10T17:08	-0.9	1011	-2.2	290	1	59
2026-02-10T17:09	-0.9	1011	-2.0	280	1	59
2026-02-10T17:10	-0.8	1011	-1.9	280	1	59
2026-02-10T17:11	-0.8	1011	-1.9	270	1	59
2026-02-10T17:12	-0.6	1011	-1.7	260	1	59
2026-02-10T17:13	-0.6	1011	-1.7	260	1	59
2026-02-10T17:14	-0.8	1011	-2.1	260	1	60
2026-02-10T17:15	-0.8	1011	-2.1	260	1	60
2026-02-10T17:16	-0.8	1011	-2.1	260	1	60
2026-02-10T17:17	-0.8	1011	-2.1	260	1	60
2026-02-10T17:18	-0.7	1011	-2.0	250	1	60
2026-02-10T17:19	-0.9	1011	-2.2	260	1	60
2026-02-10T17:20	-0.8	1011	-2.1	260	1	60
2026-02-10T17:21	-0.9	1011	-2.2	270	1	60
2026-02-10T17:22	-0.8	1011	-2.1	280	1	60
2026-02-10T17:23	-0.9	1011	-2.0	280	1	60
2026-02-10T17:24	-0.8	1011	-1.9	280	1	60
2026-02-10T17:25	-0.8	1011	-1.9	290	1	60
2026-02-10T17:26	-0.9	1011	-2.0	290	1	60
2026-02-10T17:27	-1.0	1011	-2.1	290	1	60
2026-02-10T17:28	-0.9	1011	-2.0	290	1	60
2026-02-10T17:29	-0.9	1011	-2.0	290	1	60
2026-02-10T17:30	-0.8	1011	-1.9	290	1	60
2026-02-10T17:31	-0.8	1011	-1.9	290	1	60
2026-02-10T17:32	-0.9	1011	-2.0	280	1	60
2026-02-10T17:33	-1.1	1011	-2.4	270	1	60
2026-02-10T17:34	-1.0	1011	-2.3	260	1	60
2026-02-10T17:35	-1.0	1011	-2.3	260	1	60
2026-02-10T17:36	-1.0	1011	-2.1	260	1	60
2026-02-10T17:37	-1.1	1011	-2.4	260	1	60
2026-02-10T17:38	-1.0	1011	-2.1	260	1	60
2026-02-10T17:39	-0.9	1011	-2.0	250	1	60
2026-02-10T17:40	-1.1	1010	-2.4	250	1	60
2026-02-10T17:41	-1.2	1010	-2.5	250	1	60
2026-02-10T17:42	-1.1	1010	-2.4	250	1	60
2026-02-10T17:43	-0.9	1011	-2.0	260	1	60
2026-02-10T17:44	-0.9	1011	-2.0	270	1	60
2026-02-10T17:45	-0.8	1010	-1.9	270	1	60
2026-02-10T17:46	-0.8	1010	-1.9	260	1	60
2026-02-10T17:47	-0.6	1011	-1.7	270	1	60
2026-02-10T17:48	-0.9	1011	-2.0	270	1	60
2026-02-10T17:49	-1.1	1010	-2.4	270	1	60
2026-02-10T17:50	-1.2	1010	-2.6	270	1	60
2026-02-10T17:51	-1.0	1010	-2.3	270	1	60
2026-02-10T17:52	-1.0	1010	-2.1	260	1	60
2026-02-10T17:53	-1.1	1010	-2.4	250	1	60
2026-02-10T17:54	-1.0	1010	-2.3	250	1	60
2026-02-10T17:55	-1.0	1010	-2.3	240	1	60
2026-02-10T17:56	-1.1	1010	-2.4	240	1	60
2026-02-10T17:57	-0.9	1010	-2.2	240	1	60
2026-02-10T17:58	-0.8	1010	-2.1	240	1	60
2026-02-10T17:59	-0.7	1010	-2.0	240	1	60
2026-02-10T18:00	-0.7	1010	-2.0	240	1	60
2026-02-10T18:01	-0.7	1010	-2.0	240	1	60
2026-02-10T18:02	-0.6	1010	-2.0	240	1	61
2026-02-10T18:03	-0.8	1010	-2.2	250	1	61
2026-02-10T18:04	-1.0	1010	-2.3	250	1	60
2026-02-10T18:05	-0.9	1010	-2.2	250	1	60
2026-02-10T18:06	-0.4	1010	-1.7	240	1	61
2026-02-10T18:07	0.2	1010	-1.1	240	1	61
2026-02-10T18:08	-0.4	1010	-2.1	250	1	61
2026-02-10T18:09	-0.6	1010	-2.5	250	1	61
2026-02-10T18:10	-0.5	1010	-2.4	240	1	61
2026-02-10T18:11	-0.2	1010	-1.9	240	1	61
2026-02-10T18:12	-0.6	1010	-2.5	240	1	61
2026-02-10T18:13	-0.7	1010	-2.7	240	1	61
2026-02-10T18:14	-0.5	1010	-2.4	240	1	62
2026-02-10T18:15	-0.1	1010	-1.8	250	1	62
2026-02-10T18:16	0.2	1009	-1.5	250	1	62
2026-02-10T18:17	0.0	1009	-2.1	260	1	62
2026-02-10T18:18	0.2	1009	-1.9	260	1	62
2026-02-10T18:19	0.1	1009	-2.1	260	1	62
2026-02-10T18:20	0.5	1009	-1.7	270	1	63
2026-02-10T18:21	0.6	1009	-1.8	280	1	63
2026-02-10T18:22	0.1	1009	-2.4	280	1	63
2026-02-10T18:23	-0.2	1009	-2.7	270	1	63
2026-02-10T18:24	0.0	1009	-2.2	260	1	63
2026-02-10T18:25	-0.2	1009	-2.2	260	1	63
2026-02-10T18:26	-0.3	1009	-2.3	260	1	63
2026-02-10T18:27	-0.4	1009	-2.3	260	1	63
2026-02-10T18:28	-0.4	1009	-2.3	260	1	62
2026-02-10T18:29	0.0	1009	-1.9	270	1	62
2026-02-10T18:30	0.1	1009	-1.8	280	1	62
2026-02-10T18:31	-0.2	1009	-2.2	280	1	62
2026-02-10T18:32	-0.2	1009	-2.2	280	1	62
2026-02-10T18:33	-0.3	1009	-2.3	280	1	62
2026-02-10T18:34	-0.3	1009	-2.2	290	1	62
2026-02-10T18:35	-0.2	1009	-2.1	300	1	62
2026-02-10T18:36	-0.4	1009	-2.3	290	1	62
2026-02-10T18:37	-0.4	1009	-2.3	280	1	62
2026-02-10T18:38	-0.2	1009	-2.1	270	1	62
2026-02-10T18:39	-0.4	1009	-2.3	260	1	62
2026-02-10T18:40	-0.9	1009	-2.9	250	1	62
2026-02-10T18:41	-0.6	1009	-2.5	240	1	62
2026-02-10T18:42	-0.4	1009	-2.1	240	1	62
2026-02-10T18:43	-0.2	1009	-1.9	240	1	62
2026-02-10T18:44	-0.2	1009	-2.1	240	1	62
2026-02-10T18:45	-0.1	1009	-2.0	230	1	62
2026-02-10T18:46	-0.3	1009	-2.2	240	1	62
2026-02-10T18:47	-0.6	1009	-2.6	250	1	62
2026-02-10T18:48	-0.3	1009	-2.2	250	0	62
2026-02-10T18:49	-0.3	1009	-2.2	260	0	62
2026-02-10T18:50	-0.3	1009	-2.2	260	0	62
2026-02-10T18:51	-0.6	1009	-2.5	260	0	62
2026-02-10T18:52	-0.5	1009	-2.4	260	0	62
2026-02-10T18:53	-0.3	1009	-2.0	260	0	62
2026-02-10T18:54	-0.2	1009	-1.9	250	0	62
2026-02-10T18:55	-0.3	1009	-2.2	250	0	62
2026-02-10T18:56	-0.2	1009	-2.1	250	0	62
2026-02-10T18:57	-0.2	1009	-2.1	250	0	62
2026-02-10T18:58	-0.2	1009	-2.1	260	0	62
2026-02-10T18:59	-0.4	1009	-2.3	260	1	62
2026-02-10T19:00	-0.6	1009	-2.5	270	1	62
2026-02-10T19:01	-0.6	1009	-2.3	280	1	62
2026-02-10T19:02	-0.7	1009	-2.4	280	1	62
2026-02-10T19:03	-0.5	1009	-2.1	290	1	62
2026-02-10T19:04	-0.4	1009	-2.0	290	1	62
2026-02-10T19:05	-0.5	1009	-2.2	300	1	62
2026-02-10T19:06	-0.6	1009	-2.3	300	1	62
2026-02-10T19:07	-0.6	1009	-2.3	310	1	62
2026-02-10T19:08	-0.7	1009	-2.3	300	1	62
2026-02-10T19:09	-0.7	1009	-2.3	300	1	61
2026-02-10T19:10	-0.7	1009	-2.3	300	1	61
2026-02-10T19:11	-0.9	1009	-2.5	300	1	61
2026-02-10T19:12	-1.1	1009	-2.7	300	1	61
2026-02-10T19:13	-1.1	1009	-2.5	290	1	61
2026-02-10T19:14	-1.0	1009	-2.3	290	1	61
2026-02-10T19:15	-1.0	1009	-2.3	290	1	60
2026-02-10T19:16	-0.9	1009	-2.2	290	1	60
2026-02-10T19:17	-0.9	1009	-2.2	290	1	60
2026-02-10T19:18	-0.7	1009	-2.0	280	1	60
2026-02-10T19:19	-0.6	1009	-2.0	270	1	60
2026-02-10T19:20	-1.2	1009	-2.8	270	1	60
2026-02-10T19:21	-1.2	1009	-2.8	260	1	60
2026-02-10T19:22	-1.0	1009	-2.4	250	1	60
2026-02-10T19:23	-0.8	1009	-2.2	240	1	60
2026-02-10T19:24	-1.0	1009	-2.4	230	1	61
2026-02-10T19:25	-1.0	1009	-2.4	230	1	61
2026-02-10T19:26	-1.0	1009	-2.4	220	1	61
2026-02-10T19:27	-0.9	1009	-2.3	230	1	61
2026-02-10T19:28	-0.7	1009	-2.1	230	1	61
2026-02-10T19:29	-0.8	1009	-2.2	240	1	61
2026-02-10T19:30	-0.7	1009	-2.1	240	1	61
2026-02-10T19:31	-0.8	1009	-2.2	250	1	61
2026-02-10T19:32	-0.7	1009	-2.1	260	1	61
2026-02-10T19:33	-0.8	1009	-2.2	270	1	61
2026-02-10T19:34	-0.8	1009	-2.2	270	1	61
2026-02-10T19:35	-0.7	1009	-2.1	280	1	61
2026-02-10T19:36	-0.7	1009	-2.1	290	1	61
2026-02-10T19:37	-0.9	1009	-2.3	290	1	61
2026-02-10T19:38	-1.0	1009	-2.4	300	1	61
2026-02-10T19:39	-0.8	1009	-2.2	300	1	61
2026-02-10T19:40	-0.7	1009	-2.0	310	1	61
2026-02-10T19:41	-0.8	1009	-2.2	310	1	61
2026-02-10T19:42	-0.6	1009	-2.0	310	1	61
2026-02-10T19:43	-1.1	1009	-2.7	310	1	61
2026-02-10T19:44	-1.1	1009	-2.5	320	1	61
2026-02-10T19:45	-0.6	1009	-1.9	320	1	61
2026-02-10T19:46	-0.5	1008	-1.8	310	1	61
2026-02-10T19:47	-0.8	1008	-2.2	310	1	61
2026-02-10T19:48	-0.8	1008	-2.4	310	0	61
2026-02-10T19:49	-0.4	1009	-1.8	310	0	61
2026-02-10T19:50	-0.3	1009	-1.7	0	0	61
2026-02-10T19:51	-0.5	1009	-2.1	0	0	61
2026-02-10T19:52	-0.4	1009	-2.0	0	0	61
2026-02-10T19:53	-0.3	1009	-1.9	0	0	62
2026-02-10T19:54	-0.3	1009	-2.0	0	0	62
2026-02-10T19:55	-0.5	1009	-2.2	0	0	62
2026-02-10T19:56	-0.5	1009	-2.2	0	0	62
2026-02-10T19:57	-0.5	1009	-2.2	0	0	62
2026-02-10T19:58	-0.7	1009	-2.4	0	0	62
2026-02-10T19:59	-0.5	1009	-2.1	0	0	62
2026-02-10T20:00	-0.5	1009	-2.1	0	0	62
2026-02-10T20:01	-0.4	1009	-2.0	0	0	62
2026-02-10T20:02	-0.2	1009	-1.8	0	0	62
2026-02-10T20:03	-0.3	1009	-1.9	280	0	62
2026-02-10T20:04	-0.4	1009	-2.1	290	0	62
2026-02-10T20:05	-0.5	1009	-2.1	290	0	62
2026-02-10T20:06	-0.5	1009	-1.9	290	1	62
2026-02-10T20:07	-0.6	1009	-2.0	290	1	62
2026-02-10T20:08	-0.6	1009	-2.0	300	1	62
2026-02-10T20:09	-0.5	1009	-1.9	300	1	62
2026-02-10T20:10	-0.5	1009	-1.9	300	1	62
2026-02-10T20:11	-0.5	1009	-1.9	300	1	62
2026-02-10T20:12	-0.5	1009	-1.8	300	1	61
2026-02-10T20:13	-0.4	1009	-1.8	300	1	61
2026-02-10T20:14	-0.5	1009	-1.9	300	1	61
2026-02-10T20:15	-0.4	1009	-1.8	300	1	61
2026-02-10T20:16	0.0	1009	-1.4	300	1	61
2026-02-10T20:17	0.4	1009	-1.0	300	1	61
2026-02-10T20:18	0.5	1009	-1.2	300	1	62
2026-02-10T20:19	0.2	1009	-1.7	300	1	62
2026-02-10T20:20	0.1	1009	-1.8	300	1	62
2026-02-10T20:21	0.1	1009	-1.8	310	1	62
2026-02-10T20:22	0.4	1009	-1.5	310	1	62
2026-02-10T20:23	0.7	1009	-1.2	300	1	63
2026-02-10T20:24	0.8	1009	-1.3	300	1	63
2026-02-10T20:25	0.8	1009	-1.4	300	1	63
2026-02-10T20:26	0.7	1009	-1.5	290	1	64
2026-02-10T20:27	0.6	1009	-1.6	280	1	63
2026-02-10T20:28	0.5	1009	-1.7	270	1	64
2026-02-10T20:29	0.3	1009	-1.8	260	1	63
2026-02-10T20:30	0.2	1009	-1.9	260	1	64
2026-02-10T20:31	0.3	1009	-1.8	270	1	63
2026-02-10T20:32	0.3	1009	-1.8	270	1	63
2026-02-10T20:33	0.4	1009	-1.7	270	1	63
2026-02-10T20:34	0.3	1009	-1.6	280	1	63
2026-02-10T20:35	0.3	1009	-1.6	290	1	63
2026-02-10T20:36	0.3	1009	-1.6	300	1	63
2026-02-10T20:37	0.2	1009	-1.7	310	1	63
2026-02-10T20:38	0.3	1009	-1.4	310	1	63
2026-02-10T20:39	0.4	1009	-1.3	310	1	63
2026-02-10T20:40	0.6	1009	-1.1	300	1	63
2026-02-10T20:41	0.6	1009	-1.3	290	1	63
2026-02-10T20:42	0.8	1009	-1.3	280	1	63
2026-02-10T20:43	0.9	1009	-1.2	270	2	63
2026-02-10T20:44	0.7	1009	-1.5	270	2	63
2026-02-10T20:45	0.6	1009	-1.6	260	2	63
2026-02-10T20:46	0.6	1009	-1.5	260	2	63
2026-02-10T20:47	0.7	1009	-1.4	260	2	63
2026-02-10T20:48	0.7	1009	-1.4	260	2	64
2026-02-10T20:49	0.8	1009	-1.3	260	2	64
2026-02-10T20:50	0.9	1009	-1.2	260	2	63
2026-02-10T20:51	0.8	1009	-1.4	270	1	63
2026-02-10T20:52	0.7	1009	-1.4	270	1	63
2026-02-10T20:53	0.7	1009	-1.5	280	1	62
2026-02-10T20:54	0.6	1009	-1.5	280	1	62
2026-02-10T20:55	0.5	1009	-1.6	280	1	63
2026-02-10T20:56	0.7	1009	-1.2	270	1	63
2026-02-10T20:57	0.8	1009	-1.1	270	1	62
2026-02-10T20:58	0.8	1009	-1.0	280	1	62
2026-02-10T20:59	0.9	1009	-0.9	280	1	62
2026-02-10T21:00	0.8	1009	-1.0	280	1	62
2026-02-10T21:01	0.8	1009	-1.0	290	1	63
2026-02-10T21:02	0.7	1009	-1.1	290	1	63
2026-02-10T21:03	0.6	1009	-1.1	290	1	63
2026-02-10T21:04	0.7	1009	-1.1	290	1	63
2026-02-10T21:05	0.8	1009	-0.8	290	1	63
2026-02-10T21:06	1.0	1009	-0.8	290	1	63
2026-02-10T21:07	1.0	1009	-0.9	300	1	63
2026-02-10T21:08	1.0	1009	-0.9	300	1	63
2026-02-10T21:09	1.1	1009	-1.0	290	1	63
2026-02-10T21:10	1.1	1009	-1.0	280	1	64
2026-02-10T21:11	1.1	1009	-1.0	270	1	64
2026-02-10T21:12	1.0	1009	-1.1	250	1	64
2026-02-10T21:13	0.9	1009	-1.0	220	1	64
2026-02-10T21:14	0.8	1009	-1.0	190	1	64
2026-02-10T21:15	0.9	1009	-0.9	170	1	64
2026-02-10T21:16	0.9	1009	-0.7	160	1	63
2026-02-10T21:17	0.9	1009	-0.7	160	1	63
2026-02-10T21:18	0.9	1009	-0.7	140	1	63
2026-02-10T21:19	0.9	1009	-0.7	130	1	63
2026-02-10T21:20	0.8	1009	-0.8	120	1	63
2026-02-10T21:21	0.9	1009	-0.7	10	1	63
2026-02-10T21:22	0.9	1009	-0.7	330	1	63
2026-02-10T21:23	0.9	1009	-0.7	220	1	62
2026-02-10T21:24	0.9	1009	-0.7	250	0	62
2026-02-10T21:25	0.9	1009	-0.7	270	0	62
2026-02-10T21:26	0.9	1009	-0.7	280	0	63
2026-02-10T21:27	0.9	1009	-0.7	290	1	63
2026-02-10T21:28	0.9	1009	-0.7	280	1	63
2026-02-10T21:29	0.8	1009	-0.8	270	1	63
2026-02-10T21:30	0.8	1009	-0.8	270	1	63
2026-02-10T21:31	0.8	1009	-0.8	270	1	63
2026-02-10T21:32	0.7	1009	-0.9	270	1	63
2026-02-10T21:33	0.8	1009	-0.6	270	1	63
2026-02-10T21:34	0.7	1009	-0.7	280	1	63
2026-02-10T21:35	0.7	1009	-0.7	290	1	63
2026-02-10T21:36	0.7	1009	-0.7	290	1	63
2026-02-10T21:37	0.7	1009	-0.7	290	1	62
2026-02-10T21:38	0.7	1009	-0.6	300	1	62
2026-02-10T21:39	0.8	1009	-0.6	300	1	62
2026-02-10T21:40	0.9	1009	-0.7	300	1	62
2026-02-10T21:41	1.0	1009	-0.6	310	1	62
2026-02-10T21:42	1.0	1009	-0.6	310	1	62
2026-02-10T21:43	0.9	1009	-0.7	310	1	62
2026-02-10T21:44	0.9	1009	-0.7	310	1	62
2026-02-10T21:45	0.8	1009	-0.6	310	1	62
2026-02-10T21:46	0.8	1009	-0.5	320	1	62
2026-02-10T21:47	0.7	1009	-0.6	320	1	62
2026-02-10T21:48	0.9	1009	-0.5	320	1	62
2026-02-10T21:49	1.1	1009	-0.3	320	1	62
2026-02-10T21:50	1.0	1009	-0.6	320	1	62
2026-02-10T21:51	1.0	1009	-0.6	320	1	62
2026-02-10T21:52	1.2	1009	-0.6	320	1	62
2026-02-10T21:53	1.2	1009	-0.6	320	1	62
2026-02-10T21:54	1.0	1009	-0.6	320	1	63
2026-02-10T21:55	1.1	1009	-0.5	330	1	63
2026-02-10T21:56	1.2	1009	-0.6	330	1	63
2026-02-10T21:57	1.2	1009	-0.6	330	1	63
2026-02-10T21:58	1.1	1009	-0.7	330	1	63
2026-02-10T21:59	1.0	1009	-0.6	330	1	63
2026-02-10T22:00	1.0	1009	-0.6	330	1	63
2026-02-10T22:01	1.1	1009	-0.3	330	1	63
2026-02-10T22:02	1.2	1009	-0.1	320	1	63
2026-02-10T22:03	1.2	1009	-0.2	320	1	63
2026-02-10T22:04	1.3	1009	-0.5	320	1	63
2026-02-10T22:05	1.3	1009	-0.5	310	1	63
2026-02-10T22:06	1.4	1009	-0.5	310	1	63
2026-02-10T22:07	1.4	1009	-0.5	300	1	63
2026-02-10T22:08	1.5	1009	-0.6	290	1	62
2026-02-10T22:09	1.5	1009	-0.6	290	1	63
2026-02-10T22:10	1.5	1009	-0.7	300	1	62
2026-02-10T22:11	1.4	1009	-0.8	300	1	62
2026-02-10T22:12	1.4	1009	-0.7	300	1	62
2026-02-10T22:13	1.4	1009	-0.7	300	1	62
2026-02-10T22:14	1.4	1009	-0.7	300	1	61
2026-02-10T22:15	1.4	1009	-0.5	300	1	61
2026-02-10T22:16	1.5	1009	-0.6	310	1	60
2026-02-10T22:17	1.5	1009	-0.6	310	1	60
2026-02-10T22:18	1.5	1009	-0.6	310	1	60
2026-02-10T22:19	1.4	1009	-0.5	320	1	60
2026-02-10T22:20	1.3	1009	-0.3	320	1	60
2026-02-10T22:21	1.2	1009	-0.2	320	1	60
2026-02-10T22:22	1.2	1009	-0.2	320	1	60
2026-02-10T22:23	1.2	1009	-0.1	320	1	59
2026-02-10T22:24	1.3	1009	-0.1	330	1	60
2026-02-10T22:25	1.3	1009	-0.3	350	1	60
2026-02-10T22:26	1.4	1009	-0.2	350	1	60
2026-02-10T22:27	1.3	1009	-0.3	360	1	60
2026-02-10T22:28	1.3	1009	-0.3	360	1	60
2026-02-10T22:29	1.3	1009	-0.3	360	1	60
2026-02-10T22:30	1.4	1009	-0.2	360	1	60
2026-02-10T22:31	1.4	1009	-0.2	360	1	60
2026-02-10T22:32	1.4	1009	-0.2	10	1	60
2026-02-10T22:33	1.3	1009	-0.1	10	1	60
2026-02-10T22:34	1.4	1009	0.0	360	1	60
2026-02-10T22:35	1.4	1009	0.1	120	1	60
2026-02-10T22:36	1.4	1009	0.1	140	1	60
2026-02-10T22:37	1.4	1009	0.3	90	1	60
2026-02-10T22:38	1.3	1009	0.3	130	1	59
2026-02-10T22:39	1.3	1009	0.3	150	1	59
2026-02-10T22:40	1.3	1009	0.3	150	1	59
2026-02-10T22:41	1.3	1009	0.3	150	1	58
2026-02-10T22:42	1.3	1009	0.5	150	1	58
2026-02-10T22:43	1.4	1009	0.6	150	1	58
2026-02-10T22:44	1.4	1009	0.6	150	1	58
2026-02-10T22:45	1.4	1009	0.6	150	1	57
2026-02-10T22:46	1.4	1009	0.6	150	1	57
2026-02-10T22:47	1.4	1009	0.6	150	1	57
2026-02-10T22:48	1.4	1009	0.6	140	1	57
2026-02-10T22:49	1.5	1009	0.7	140	1	57
2026-02-10T22:50	1.5	1009	0.7	140	1	57
2026-02-10T22:51	1.5	1009	0.7	140	1	58
2026-02-10T22:52	1.5	1009	0.7	140	2	58
2026-02-10T22:53	1.5	1009	0.7	140	2	58
2026-02-10T22:54	1.5	1009	0.7	140	1	58
2026-02-10T22:55	1.5	1009	0.7	150	1	58
2026-02-10T22:56	1.5	1009	0.7	150	1	58
2026-02-10T22:57	1.4	1009	0.6	150	1	57
2026-02-10T22:58	1.4	1009	0.7	300	2	56
2026-02-10T22:59	1.4	1009	0.7	310	2	56
2026-02-10T23:00	1.5	1009	0.9	240	2	56
2026-02-10T23:01	1.5	1009	0.9	250	2	56
2026-02-10T23:02	1.5	1009	0.8	270	1	55
2026-02-10T23:03	1.5	1009	0.8	280	1	55
2026-02-10T23:04	1.5	1009	0.8	290	1	55
2026-02-10T23:05	1.5	1009	0.9	300	2	47
2026-02-10T23:06	1.5	1009	0.9	300	2	43
2026-02-10T23:07	1.5	1009	0.9	300	2	42
2026-02-10T23:08	1.5	1009	1.1	290	1	43
2026-02-10T23:09	1.4	1009	1.0	290	1	43
2026-02-10T23:10	1.4	1009	0.8	300	1	43
2026-02-10T23:11	1.5	1009	0.9	300	1	42
2026-02-10T23:12	1.5	1009	0.9	300	1	41
2026-02-10T23:13	1.5	1009	0.8	190	1	40
2026-02-10T23:14	1.5	1009	0.8	170	1	41
2026-02-10T23:15	1.6	1008	0.9	230	1	42
2026-02-10T23:16	1.5	1008	0.9	180	1	43
2026-02-10T23:17	1.5	1008	0.9	160	1	44
2026-02-10T23:18	1.5	1009	0.9	140	1	42
2026-02-10T23:19	1.5	1009	1.1	140	1	38
2026-02-10T23:20	1.5	1009	1.1	10	1	34
2026-02-10T23:21	1.5	1009	1.1	320	1	34
2026-02-10T23:22	1.4	1009	1.0	300	1	35
2026-02-10T23:23	1.5	1009	1.1	250	1	35
2026-02-10T23:24	1.6	1009	1.2	150	1	36
2026-02-10T23:25	1.6	1009	1.2	150	1	38
2026-02-10T23:26	1.6	1008	1.2	160	1	38
2026-02-10T23:27	1.5	1008	1.1	170	1	38
2026-02-10T23:28	1.6	1008	1.2	160	1	38
2026-02-10T23:29	1.6	1008	1.2	150	1	40
2026-02-10T23:30	1.5	1008	1.1	140	1	45
2026-02-10T23:31	1.5	1008	1.1	130	1	43
2026-02-10T23:32	1.5	1008	1.1	120	1	41
2026-02-10T23:33	1.5	1008	1.2	120	1	41
2026-02-10T23:34	1.6	1008	1.3	130	1	39
2026-02-10T23:35	1.6	1008	1.3	120	1	39
2026-02-10T23:36	1.6	1009	1.3	130	1	40
2026-02-10T23:37	1.6	1009	1.3	130	1	41
2026-02-10T23:38	1.6	1009	1.3	140	1	42
2026-02-10T23:39	1.6	1009	1.3	160	1	45
2026-02-10T23:40	1.6	1009	1.2	180	1	47
2026-02-10T23:41	1.7	1009	1.3	200	1	48
2026-02-10T23:42	1.8	1009	1.4	210	1	44
2026-02-10T23:43	1.8	1009	1.5	230	1	41
2026-02-10T23:44	1.7	1009	1.4	230	1	39
2026-02-10T23:45	1.7	1009	1.4	240	1	39
2026-02-10T23:46	1.7	1009	1.4	250	1	37
2026-02-10T23:47	1.7	1009	1.4	250	1	36
2026-02-10T23:48	1.7	1009	1.4	250	1	33
2026-02-10T23:49	1.7	1009	1.4	260	0	31
2026-02-10T23:50	1.7	1009	1.4	270	0	29
2026-02-10T23:51	1.7	1009	1.4	270	0	29
2026-02-10T23:52	1.7	1009	1.4	0	0	31
2026-02-10T23:53	1.7	1009	1.4	290	0	32
2026-02-10T23:54	1.8	1009	1.5	300	0	31
2026-02-10T23:55	1.9	1009	1.8	310	1	28
2026-02-10T23:56	1.9	1009	1.8	310	1	26
2026-02-10T23:57	1.9	1009	1.8	310	1	25
2026-02-10T23:58	1.8	1009	1.7	310	1	25
2026-02-10T23:59	1.7	1009	1.6	300	1	26
2026-02-11T00:00	1.7	1009	1.6	290	1	26
2026-02-11T00:01	1.7	1009	1.6	280	1	27
2026-02-11T00:02	1.8	1009	1.7	270	1	27
2026-02-11T00:03	1.8	1009	1.7	260	1	27
2026-02-11T00:04	1.8	1009	1.7	250	1	29
2026-02-11T00:05	1.8	1009	1.7	240	1	32
2026-02-11T00:06	1.9	1009	1.8	240	1	36
2026-02-11T00:07	1.9	1009	1.8	230	1	40
2026-02-11T00:08	1.9	1009	1.6	230	1	43
2026-02-11T00:09	2.0	1009	1.7	230	1	44
2026-02-11T00:10	1.9	1009	1.6	220	1	44
2026-02-11T00:11	2.0	1009	1.7	220	1	45
2026-02-11T00:12	2.0	1009	1.7	210	1	45
2026-02-11T00:13	1.9	1008	1.6	200	1	46
2026-02-11T00:14	2.0	1008	1.7	200	1	47
2026-02-11T00:15	1.9	1008	1.6	200	1	46
2026-02-11T00:16	2.0	1008	1.7	200	1	45
2026-02-11T00:17	1.9	1008	1.6	200	1	46
2026-02-11T00:18	1.9	1008	1.5	200	1	47
2026-02-11T00:19	2.0	1008	1.6	200	1	46
2026-02-11T00:20	2.0	1008	1.6	210	1	46
2026-02-11T00:21	2.0	1008	1.7	220	1	45
2026-02-11T00:22	2.0	1008	1.7	230	1	44
2026-02-11T00:23	1.9	1008	1.6	230	1	43
2026-02-11T00:24	1.9	1008	1.6	230	1	43
2026-02-11T00:25	2.0	1008	1.7	230	0	43
2026-02-11T00:26	2.0	1008	1.7	220	0	44
2026-02-11T00:27	2.1	1008	1.8	0	0	43
2026-02-11T00:28	2.0	1008	1.7	0	0	42
2026-02-11T00:29	2.0	1008	1.7	0	0	42
2026-02-11T00:30	2.1	1008	1.8	0	0	42
2026-02-11T00:31	2.1	1008	1.8	0	0	43
2026-02-11T00:32	2.2	1008	1.9	0	0	44
2026-02-11T00:33	2.3	1008	2.0	0	0	45
2026-02-11T00:34	2.1	1008	1.8	0	0	45
2026-02-11T00:35	2.2	1008	1.9	0	0	44
2026-02-11T00:36	2.2	1008	1.9	0	0	44
2026-02-11T00:37	2.2	1008	1.9	0	0	44
2026-02-11T00:38	2.3	1008	2.0	0	0	44
2026-02-11T00:39	2.3	1008	2.0	0	0	43
2026-02-11T00:40	2.3	1008	2.0	0	0	43
2026-02-11T00:41	2.3	1008	2.0	0	0	42
2026-02-11T00:42	2.3	1008	2.0	0	0	42
2026-02-11T00:43	2.4	1008	2.1	0	0	42
2026-02-11T00:44	2.3	1008	2.0	150	0	41
2026-02-11T00:45	2.4	1008	2.1	150	0	40
2026-02-11T00:46	2.4	1008	2.1	280	0	36
2026-02-11T00:47	2.4	1008	2.1	330	0	35
2026-02-11T00:48	2.4	1008	2.1	270	0	32
2026-02-11T00:49	2.5	1008	2.4	280	1	29
2026-02-11T00:50	2.5	1008	2.4	290	1	26
2026-02-11T00:51	2.5	1008	2.4	300	1	25
2026-02-11T00:52	2.6	1008	2.5	310	1	24
2026-02-11T00:53	2.3	1008	2.2	310	1	24
2026-02-11T00:54	2.3	1008	2.2	310	1	25
2026-02-11T00:55	2.3	1008	2.2	310	1	25
2026-02-11T00:56	2.3	1008	2.2	310	1	27
2026-02-11T00:57	2.3	1008	2.2	300	1	27
2026-02-11T00:58	2.4	1008	2.3	300	1	29
2026-02-11T00:59	2.5	1008	2.4	300	1	30
2026-02-11T01:00	2.4	1008	2.3	300	1	30
2026-02-11T01:01	2.4	1008	2.3	310	1	31
2026-02-11T01:02	2.3	1008	2.2	310	0	31
2026-02-11T01:03	2.3	1008	2.2	300	0	31
2026-02-11T01:04	2.3	1008	2.2	300	0	30
2026-02-11T01:05	2.5	1008	2.4	290	0	29
2026-02-11T01:06	2.5	1008	2.4	290	0	28
2026-02-11T01:07	2.5	1008	2.4	290	0	28
2026-02-11T01:08	2.4	1008	2.3	280	0	27
2026-02-11T01:09	2.4	1008	2.3	270	0	28
2026-02-11T01:10	2.4	1008	2.3	260	0	30
2026-02-11T01:11	2.4	1008	2.3	250	0	30
2026-02-11T01:12	2.4	1008	2.3	250	1	31
2026-02-11T01:13	2.4	1008	2.3	240	1	30
2026-02-11T01:14	2.4	1008	2.3	230	1	30
2026-02-11T01:15	2.4	1008	2.3	230	1	31
2026-02-11T01:16	2.4	1008	2.3	230	1	32
2026-02-11T01:17	2.3	1008	2.2	230	1	33
2026-02-11T01:18	2.4	1008	2.3	230	1	35
2026-02-11T01:19	2.3	1008	2.2	240	1	36
2026-02-11T01:20	2.4	1008	2.1	240	1	35
2026-02-11T01:21	2.4	1008	2.1	240	1	35
2026-02-11T01:22	2.4	1008	2.3	240	1	36
2026-02-11T01:23	2.4	1008	2.3	250	1	36
2026-02-11T01:24	2.4	1008	2.3	250	1	35
2026-02-11T01:25	2.5	1008	2.4	260	1	34
2026-02-11T01:26	2.4	1008	2.3	260	1	34
2026-02-11T01:27	2.4	1008	2.3	260	1	33
2026-02-11T01:28	2.3	1008	2.2	250	1	34
2026-02-11T01:29	2.3	1008	2.0	260	1	34
2026-02-11T01:30	2.4	1008	2.1	260	1	33
2026-02-11T01:31	2.4	1007	2.3	260	1	33
2026-02-11T01:32	2.5	1007	2.4	260	1	33
2026-02-11T01:33	2.4	1007	2.3	260	1	33
2026-02-11T01:34	2.4	1007	2.1	260	1	34
2026-02-11T01:35	2.3	1007	2.0	250	1	35
2026-02-11T01:36	2.3	1007	2.0	250	1	35
2026-02-11T01:37	2.4	1007	2.1	250	1	35
2026-02-11T01:38	2.4	1007	2.1	260	1	35
2026-02-11T01:39	2.4	1007	2.1	260	1	35
2026-02-11T01:40	2.4	1007	2.1	250	1	36
2026-02-11T01:41	2.4	1007	2.1	250	1	37
2026-02-11T01:42	2.5	1007	2.2	250	1	38
2026-02-11T01:43	2.5	1007	2.2	250	1	38
2026-02-11T01:44	2.5	1007	2.2	250	1	38
2026-02-11T01:45	2.7	1007	2.4	250	0	38
2026-02-11T01:46	2.6	1007	2.3	240	0	38
2026-02-11T01:47	2.6	1007	2.3	240	1	38
2026-02-11T01:48	2.6	1007	2.3	240	1	36
2026-02-11T01:49	2.7	1007	2.4	230	1	34
2026-02-11T01:50	2.7	1007	2.6	240	1	32
2026-02-11T01:51	2.7	1007	2.6	240	1	29
2026-02-11T01:52	2.7	1007	2.6	240	1	27
2026-02-11T01:53	2.7	1007	2.6	240	1	25
2026-02-11T01:54	2.8	1007	2.7	250	1	23
2026-02-11T01:55	2.9	1007	2.8	250	1	22
2026-02-11T01:56	2.7	1007	2.6	260	1	22
2026-02-11T01:57	2.8	1007	2.7	260	1	21
2026-02-11T01:58	3.0	1007	2.9	260	1	20
2026-02-11T01:59	2.9	1007	2.8	260	1	20
2026-02-11T02:00	2.6	1007	2.5	260	1	20
2026-02-11T02:01	2.6	1007	2.5	260	1	21
2026-02-11T02:02	2.5	1007	2.4	260	1	22
2026-02-11T02:03	2.6	1007	2.5	260	1	23
2026-02-11T02:04	2.7	1007	2.6	260	1	24
2026-02-11T02:05	2.7	1007	2.6	260	1	24
2026-02-11T02:06	2.8	1007	2.7	260	1	23
2026-02-11T02:07	2.8	1007	2.7	260	1	23
2026-02-11T02:08	2.7	1007	2.6	260	1	24
2026-02-11T02:09	2.7	1007	2.6	250	1	24
2026-02-11T02:10	2.6	1007	2.5	250	1	23
2026-02-11T02:11	2.6	1007	2.5	250	1	23
2026-02-11T02:12	2.6	1006	2.5	250	1	23
2026-02-11T02:13	2.6	1006	2.5	250	1	22
2026-02-11T02:14	2.8	1006	2.7	240	1	22
2026-02-11T02:15	2.8	1006	2.8	230	1	22
2026-02-11T02:16	2.8	1006	2.7	220	1	22
2026-02-11T02:17	2.8	1006	2.8	210	1	23
2026-02-11T02:18	2.8	1006	2.8	210	1	23
2026-02-11T02:19	2.8	1006	2.8	210	1	22
2026-02-11T02:20	2.8	1006	2.8	220	1	20
2026-02-11T02:21	2.9	1006	2.9	220	1	18
2026-02-11T02:22	2.8	1006	2.8	220	1	17
2026-02-11T02:23	2.8	1006	2.8	240	1	16
2026-02-11T02:24	2.7	1006	2.7	260	1	16
2026-02-11T02:25	2.7	1006	2.7	270	1	16
2026-02-11T02:26	2.6	1006	2.6	280	2	16
2026-02-11T02:27	2.6	1006	2.6	280	2	16
2026-02-11T02:28	2.6	1006	2.6	280	2	16
2026-02-11T02:29	2.6	1006	2.6	280	2	16
2026-02-11T02:30	2.5	1006	2.5	280	2	18
2026-02-11T02:31	2.6	1006	2.6	280	2	20
2026-02-11T02:32	2.6	1006	2.6	270	2	21
2026-02-11T02:33	2.6	1006	2.6	270	2	22
2026-02-11T02:34	2.6	1006	2.6	270	2	22
2026-02-11T02:35	2.5	1006	2.5	260	2	23
2026-02-11T02:36	2.5	1006	2.5	260	2	24
2026-02-11T02:37	2.5	1006	2.5	250	1	25
2026-02-11T02:38	2.5	1006	2.5	250	1	26
2026-02-11T02:39	2.5	1006	2.5	250	1	27
2026-02-11T02:40	2.4	1006	2.4	250	1	27
2026-02-11T02:41	2.4	1006	2.3	250	1	27
2026-02-11T02:42	2.5	1006	2.4	250	1	28
2026-02-11T02:43	2.4	1006	2.3	250	1	30
2026-02-11T02:44	2.4	1006	2.3	250	1	31
2026-02-11T02:45	2.3	1006	2.2	250	1	33
2026-02-11T02:46	2.4	1006	2.3	250	1	34
2026-02-11T02:47	2.4	1006	2.3	240	1	34
2026-02-11T02:48	2.4	1006	2.3	240	1	34
2026-02-11T02:49	2.4	1006	2.3	240	1	35
2026-02-11T02:50	2.4	1006	2.3	250	1	34
2026-02-11T02:51	2.6	1006	2.5	250	1	31
2026-02-11T02:52	2.5	1006	2.4	250	1	30
2026-02-11T02:53	2.5	1006	2.4	250	1	29
2026-02-11T02:54	2.5	1005	2.4	260	1	28
2026-02-11T02:55	2.6	1005	2.5	260	1	27
2026-02-11T02:56	2.5	1005	2.4	260	1	27
2026-02-11T02:57	2.4	1005	2.3	260	1	27
2026-02-11T02:58	2.5	1005	2.4	260	1	27
2026-02-11T02:59	2.5	1005	2.4	250	1	27
2026-02-11T03:00	2.6	1005	2.5	260	1	26
2026-02-11T03:01	2.7	1005	2.6	260	1	25
2026-02-11T03:02	2.8	1005	2.8	260	1	22
2026-02-11T03:03	2.9	1005	2.9	260	1	22
2026-02-11T03:04	2.7	1005	2.7	260	1	22
2026-02-11T03:05	2.7	1005	2.7	260	2	21
2026-02-11T03:06	2.7	1005	2.7	270	2	21
2026-02-11T03:07	2.6	1005	2.6	270	2	20
2026-02-11T03:08	2.8	1005	2.8	280	2	19
2026-02-11T03:09	2.7	1005	2.7	280	2	19
2026-02-11T03:10	2.7	1005	2.7	280	2	19
2026-02-11T03:11	2.7	1005	2.7	280	2	20
2026-02-11T03:12	2.6	1005	2.6	280	2	23
2026-02-11T03:13	2.5	1005	2.5	280	2	24
2026-02-11T03:14	2.7	1005	2.7	290	2	24
2026-02-11T03:15	2.7	1005	2.7	290	2	24
2026-02-11T03:16	2.7	1005	2.7	300	2	24
2026-02-11T03:17	2.7	1004	2.7	300	2	24
2026-02-11T03:18	2.8	1004	2.8	310	2	25
2026-02-11T03:19	2.7	1004	2.7	310	2	25
2026-02-11T03:20	2.8	1005	2.8	310	2	25
2026-02-11T03:21	2.9	1005	2.9	320	2	24
2026-02-11T03:22	2.8	1004	2.8	310	2	23
2026-02-11T03:23	2.8	1004	2.8	320	2	23
2026-02-11T03:24	2.8	1004	2.8	310	2	23
2026-02-11T03:25	2.8	1004	2.8	310	2	23
2026-02-11T03:26	2.8	1005	2.8	310	2	24
2026-02-11T03:27	2.9	1005	2.9	300	2	24
2026-02-11T03:28	2.8	1005	2.8	300	2	24
2026-02-11T03:29	2.9	1005	2.9	300	2	25
2026-02-11T03:30	2.9	1005	2.9	300	2	26
2026-02-11T03:31	3.0	1005	3.0	300	2	28
2026-02-11T03:32	2.9	1005	2.9	300	2	30
2026-02-11T03:33	2.9	1004	2.8	300	2	30
2026-02-11T03:34	2.8	1004	2.7	300	1	31
2026-02-11T03:35	2.9	1004	2.8	300	1	32
2026-02-11T03:36	3.1	1004	3.0	300	1	33
2026-02-11T03:37	2.8	1004	2.7	310	1	34
2026-02-11T03:38	2.8	1004	2.7	310	1	36
2026-02-11T03:39	2.9	1004	2.8	310	1	37
2026-02-11T03:40	2.9	1004	2.8	310	1	38
2026-02-11T03:41	2.8	1004	2.7	310	1	39
2026-02-11T03:42	3.1	1004	3.0	300	1	37
2026-02-11T03:43	3.0	1004	2.9	300	1	35
2026-02-11T03:44	3.1	1004	3.0	300	1	33
2026-02-11T03:45	3.0	1004	2.9	310	1	34
2026-02-11T03:46	2.9	1004	2.8	310	1	34
2026-02-11T03:47	3.0	1004	2.9	310	1	33
2026-02-11T03:48	3.0	1004	2.7	320	1	34
2026-02-11T03:49	3.1	1004	2.8	320	2	34
2026-02-11T03:50	3.1	1004	2.8	320	2	35
2026-02-11T03:51	3.0	1004	2.7	320	2	36
2026-02-11T03:52	3.0	1004	2.7	320	2	38
2026-02-11T03:53	3.1	1004	2.8	320	2	42
2026-02-11T03:54	3.2	1004	2.9	320	2	46
2026-02-11T03:55	3.2	1004	2.9	320	2	46
2026-02-11T03:56	3.1	1004	2.8	310	2	45
2026-02-11T03:57	3.4	1004	3.1	310	2	45
2026-02-11T03:58	3.2	1004	2.9	300	2	45
2026-02-11T03:59	3.2	1004	2.9	300	2	46
2026-02-11T04:00	3.4	1004	3.1	290	2	46
2026-02-11T04:01	3.2	1004	2.9	290	1	45
2026-02-11T04:02	3.2	1004	2.9	290	1	46
2026-02-11T04:03	3.3	1004	3.0	290	1	46
2026-02-11T04:04	3.4	1004	3.1	300	1	46
2026-02-11T04:05	3.4	1004	3.1	300	1	49
2026-02-11T04:06	3.3	1003	3.0	300	1	55
2026-02-11T04:07	3.5	1003	3.1	310	1	55
2026-02-11T04:08	3.4	1003	3.0	320	1	55
2026-02-11T04:09	3.6	1003	3.3	320	1	48
2026-02-11T04:10	3.7	1003	3.4	330	1	47
2026-02-11T04:11	3.8	1003	3.5	330	1	46
2026-02-11T04:12	3.7	1003	3.4	330	1	45
2026-02-11T04:13	3.7	1003	3.4	330	1	45
2026-02-11T04:14	3.7	1003	3.4	330	1	46
2026-02-11T04:15	3.9	1003	3.6	330	1	44
2026-02-11T04:16	4.0	1003	3.7	330	1	41
2026-02-11T04:17	4.1	1003	3.8	330	1	42
2026-02-11T04:18	4.1	1003	3.8	320	2	42
2026-02-11T04:19	4.0	1003	3.7	310	2	42
2026-02-11T04:20	3.7	1004	3.4	310	2	44
2026-02-11T04:21	3.7	1004	3.3	310	2	46
2026-02-11T04:22	3.8	1004	3.4	300	2	48
2026-02-11T04:23	3.8	1004	3.4	300	2	49
2026-02-11T04:24	3.7	1004	3.3	300	2	48
2026-02-11T04:25	3.7	1004	3.3	300	2	55
2026-02-11T04:26	3.7	1004	3.3	300	2	55
2026-02-11T04:27	3.6	1004	3.2	300	2	55
2026-02-11T04:28	3.6	1004	3.2	310	2	55
2026-02-11T04:29	3.7	1004	3.3	310	2	55
2026-02-11T04:30	3.7	1004	3.3	310	2	55
2026-02-11T04:31	3.7	1004	3.3	310	2	55
2026-02-11T04:32	3.8	1003	3.4	320	2	55
2026-02-11T04:33	3.8	1003	3.4	320	1	55
2026-02-11T04:34	3.7	1003	3.3	320	1	55
2026-02-11T04:35	3.8	1003	3.4	320	1	55
2026-02-11T04:36	3.8	1003	3.4	320	1	55
2026-02-11T04:37	3.8	1003	3.4	320	1	55
2026-02-11T04:38	3.9	1003	3.5	320	1	55
2026-02-11T04:39	3.8	1003	3.4	320	1	55
2026-02-11T04:40	3.9	1003	3.5	320	1	55
2026-02-11T04:41	3.8	1003	3.4	320	1	55
2026-02-11T04:42	4.0	1003	3.6	320	1	55
2026-02-11T04:43	4.1	1003	3.7	320	1	55
2026-02-11T04:44	4.0	1003	3.6	320	1	56
2026-02-11T04:45	4.1	1003	3.7	320	1	56
2026-02-11T04:46	4.1	1003	3.7	310	1	55
2026-02-11T04:47	4.1	1003	3.7	310	1	55
2026-02-11T04:48	4.1	1003	3.7	310	1	55
2026-02-11T04:49	4.3	1003	3.9	310	1	55
2026-02-11T04:50	4.3	1003	3.9	310	1	55
2026-02-11T04:51	4.2	1003	3.8	310	1	55
2026-02-11T04:52	4.3	1003	3.9	310	1	55
2026-02-11T04:53	4.2	1003	3.8	310	2	55
2026-02-11T04:54	4.1	1004	3.7	300	2	55
2026-02-11T04:55	4.1	1004	3.7	300	2	55
2026-02-11T04:56	4.2	1004	3.8	300	2	55
2026-02-11T04:57	4.2	1004	3.8	300	2	55
2026-02-11T04:58	4.3	1004	3.9	300	2	55
2026-02-11T04:59	4.3	1004	3.9	300	2	55
2026-02-11T05:00	4.4	1004	3.8	290	2	55
2026-02-11T05:01	4.7	1004	4.3	290	2	56
2026-02-11T05:02	4.5	1004	4.1	290	2	56
2026-02-11T05:03	4.5	1004	4.1	290	2	56
2026-02-11T05:04	4.4	1004	4.0	290	2	56
2026-02-11T05:05	4.4	1004	3.8	290	2	56
2026-02-11T05:06	4.3	1004	3.7	300	2	56
2026-02-11T05:07	4.3	1004	3.6	300	2	56
2026-02-11T05:08	4.3	1004	3.6	300	2	56
2026-02-11T05:09	4.3	1004	3.6	310	2	56
2026-02-11T05:10	4.3	1004	3.4	310	2	56
2026-02-11T05:11	4.4	1004	3.7	310	2	56
2026-02-11T05:12	4.4	1004	3.7	310	2	56
2026-02-11T05:13	4.4	1004	3.7	320	2	56
2026-02-11T05:14	4.5	1004	3.8	320	2	56
2026-02-11T05:15	4.5	1004	3.8	310	2	56
2026-02-11T05:16	4.7	1004	4.0	310	2	56
2026-02-11T05:17	4.7	1004	4.0	300	2	56
2026-02-11T05:18	4.6	1004	3.7	300	2	56
2026-02-11T05:19	4.7	1004	3.8	300	2	56
2026-02-11T05:20	4.7	1004	4.0	300	1	56
2026-02-11T05:21	4.7	1004	3.8	300	1	56
2026-02-11T05:22	4.8	1004	3.9	300	1	56
2026-02-11T05:23	4.8	1004	4.1	310	1	56
2026-02-11T05:24	4.7	1003	3.8	310	1	56
2026-02-11T05:25	4.7	1003	3.7	320	1	56
2026-02-11T05:26	4.7	1003	3.7	320	1	56
2026-02-11T05:27	4.8	1003	3.8	320	2	56
2026-02-11T05:28	4.9	1003	3.9	330	2	56
2026-02-11T05:29	4.9	1003	3.9	330	2	56
2026-02-11T05:30	4.9	1003	3.9	330	2	57
2026-02-11T05:31	5.0	1003	4.0	330	1	57
2026-02-11T05:32	5.0	1003	4.0	330	1	57
2026-02-11T05:33	4.9	1003	3.9	330	1	57
2026-02-11T05:34	4.9	1003	3.7	330	1	57
2026-02-11T05:35	4.9	1003	3.9	330	1	57
2026-02-11T05:36	4.9	1003	3.9	320	1	57
2026-02-11T05:37	4.9	1003	3.9	330	1	57
2026-02-11T05:38	5.1	1003	4.1	320	1	57
2026-02-11T05:39	5.0	1003	4.1	320	1	57
2026-02-11T05:40	5.1	1003	4.1	320	1	57
2026-02-11T05:41	5.3	1003	4.4	320	1	57
2026-02-11T05:42	5.1	1003	4.1	320	1	57
2026-02-11T05:43	5.0	1003	3.7	320	1	57
2026-02-11T05:44	5.1	1004	3.8	320	1	57
2026-02-11T05:45	5.2	1004	3.9	320	1	57
2026-02-11T05:46	5.2	1004	3.9	310	1	57
2026-02-11T05:47	5.2	1004	3.9	300	1	57
2026-02-11T05:48	5.2	1004	3.9	300	1	57
2026-02-11T05:49	5.2	1004	4.2	300	1	58
2026-02-11T05:50	5.1	1004	4.1	290	2	58
2026-02-11T05:51	5.0	1004	4.0	290	2	58
2026-02-11T05:52	5.1	1004	4.1	290	2	57
2026-02-11T05:53	5.2	1004	4.3	280	2	57
2026-02-11T05:54	5.1	1004	4.2	280	2	57
2026-02-11T05:55	5.2	1004	4.3	280	2	57
2026-02-11T05:56	5.2	1004	4.3	290	1	57
2026-02-11T05:57	5.2	1004	4.2	290	1	57
2026-02-11T05:58	5.3	1004	4.3	300	1	57
2026-02-11T05:59	5.3	1004	4.3	300	1	57
2026-02-11T06:00	5.4	1004	4.5	300	1	57
2026-02-11T06:01	5.3	1004	4.3	300	1	57
2026-02-11T06:02	5.4	1004	4.4	300	1	57
2026-02-11T06:03	5.3	1004	4.3	300	1	57
2026-02-11T06:04	5.3	1004	4.1	290	1	57
2026-02-11T06:05	5.4	1004	4.4	300	1	57
2026-02-11T06:06	5.4	1003	4.5	300	1	57
2026-02-11T06:07	5.3	1003	4.6	300	1	57
2026-02-11T06:08	5.3	1003	4.6	300	1	56
2026-02-11T06:09	5.4	1004	4.7	300	1	56
2026-02-11T06:10	5.4	1004	4.5	300	1	56
2026-02-11T06:11	5.4	1004	4.4	300	1	56
2026-02-11T06:12	5.5	1004	4.5	290	1	57
2026-02-11T06:13	5.6	1004	4.6	290	1	57
2026-02-11T06:14	5.5	1004	4.3	290	1	57
2026-02-11T06:15	5.5	1004	4.2	280	1	57
2026-02-11T06:16	5.5	1004	4.3	280	1	57
2026-02-11T06:17	5.6	1004	4.4	280	1	57
2026-02-11T06:18	5.5	1004	4.3	270	1	58
2026-02-11T06:19	5.5	1004	4.3	280	1	58
2026-02-11T06:20	5.5	1004	4.5	280	1	58
2026-02-11T06:21	5.5	1004	4.5	280	1	58
2026-02-11T06:22	5.5	1004	4.5	280	1	58
2026-02-11T06:23	5.6	1004	4.4	280	1	58
2026-02-11T06:24	5.6	1004	4.4	280	1	58
2026-02-11T06:25	5.6	1004	4.4	280	1	58
2026-02-11T06:26	5.7	1004	4.5	280	1	58
2026-02-11T06:27	5.8	1004	4.6	280	1	58
2026-02-11T06:28	5.7	1004	4.5	280	1	58
2026-02-11T06:29	5.7	1004	4.5	280	1	58
2026-02-11T06:30	5.7	1004	4.5	280	1	59
2026-02-11T06:31	5.7	1004	4.5	280	1	59
2026-02-11T06:32	5.6	1004	4.4	280	1	59
2026-02-11T06:33	5.7	1004	4.5	280	1	59
2026-02-11T06:34	5.7	1004	4.5	280	2	59
2026-02-11T06:35	5.8	1004	4.6	280	2	59
2026-02-11T06:36	5.8	1004	4.6	280	1	59
2026-02-11T06:37	5.8	1004	4.6	280	1	59
2026-02-11T06:38	5.8	1004	4.5	280	1	59
2026-02-11T06:39	5.9	1004	4.6	280	1	59
2026-02-11T06:40	5.9	1004	4.6	280	1	59
2026-02-11T06:41	6.0	1004	4.7	270	1	59
2026-02-11T06:42	6.1	1004	4.8	270	1	59
2026-02-11T06:43	6.1	1005	4.9	270	1	59
2026-02-11T06:44	6.0	1005	4.8	270	1	59
2026-02-11T06:45	6.1	1005	4.8	260	1	59
2026-02-11T06:46	6.1	1005	4.8	260	1	59
2026-02-11T06:47	6.1	1005	4.6	250	1	59
2026-02-11T06:48	6.1	1005	4.8	250	1	59
2026-02-11T06:49	6.1	1005	4.6	250	1	59
2026-02-11T06:50	6.0	1005	4.7	250	1	60
2026-02-11T06:51	6.0	1004	4.5	250	2	60
2026-02-11T06:52	6.0	1004	4.5	250	2	60
2026-02-11T06:53	6.0	1004	4.5	260	1	61
2026-02-11T06:54	6.0	1004	4.7	260	1	60
2026-02-11T06:55	6.0	1004	4.5	260	1	60
2026-02-11T06:56	6.0	1004	4.5	260	1	60
2026-02-11T06:57	5.9	1004	4.7	260	1	60
2026-02-11T06:58	5.9	1004	4.6	270	1	60
2026-02-11T06:59	6.0	1004	4.5	270	1	60
2026-02-11T07:00	5.9	1004	4.6	270	1	60
2026-02-11T07:01	5.9	1004	4.6	270	1	60
2026-02-11T07:02	5.9	1004	4.6	270	1	60
2026-02-11T07:03	5.9	1004	4.6	270	1	60
2026-02-11T07:04	5.8	1004	4.5	260	1	60
2026-02-11T07:05	5.8	1004	4.5	260	1	60
2026-02-11T07:06	5.9	1004	4.6	260	1	60
2026-02-11T07:07	5.8	1004	4.5	270	1	60
2026-02-11T07:08	5.8	1004	4.5	270	1	60
2026-02-11T07:09	5.9	1004	4.6	270	1	60
2026-02-11T07:10	5.9	1004	4.7	270	1	59
2026-02-11T07:11	5.8	1004	4.8	270	1	59
2026-02-11T07:12	5.7	1005	4.7	270	1	59
2026-02-11T07:13	5.7	1005	4.7	270	1	59
2026-02-11T07:14	5.7	1005	4.7	270	2	58
2026-02-11T07:15	5.7	1005	4.7	270	2	58
2026-02-11T07:16	5.8	1005	4.8	280	2	58
2026-02-11T07:17	5.8	1005	4.8	280	2	58
2026-02-11T07:18	5.9	1005	4.9	280	2	58
2026-02-11T07:19	5.9	1005	4.9	280	2	58
2026-02-11T07:20	5.9	1005	4.9	280	2	59
2026-02-11T07:21	5.9	1005	4.9	280	2	58
2026-02-11T07:22	5.8	1005	4.8	280	1	58
2026-02-11T07:23	5.8	1005	4.8	280	1	58
2026-02-11T07:24	5.8	1005	4.9	280	1	58
2026-02-11T07:25	5.9	1005	4.9	280	1	58
2026-02-11T07:26	5.9	1005	4.9	280	1	58
2026-02-11T07:27	6.0	1005	5.0	280	1	58
2026-02-11T07:28	6.0	1005	5.0	290	1	57
2026-02-11T07:29	6.0	1005	5.0	290	1	57
2026-02-11T07:30	6.0	1005	5.0	290	1	57
2026-02-11T07:31	6.0	1005	4.8	290	1	58
2026-02-11T07:32	6.0	1005	4.8	290	1	58
2026-02-11T07:33	6.0	1005	4.8	280	1	58
2026-02-11T07:34	6.0	1005	5.0	280	1	58
2026-02-11T07:35	5.9	1005	4.9	280	1	58
2026-02-11T07:36	5.9	1005	4.9	280	1	58
2026-02-11T07:37	6.0	1005	5.0	270	1	58
2026-02-11T07:38	6.0	1005	5.0	270	1	58
2026-02-11T07:39	6.0	1005	5.1	270	1	58
2026-02-11T07:40	6.0	1005	5.0	270	1	58
2026-02-11T07:41	6.0	1005	4.8	270	1	58
2026-02-11T07:42	6.1	1005	4.9	270	1	58
2026-02-11T07:43	6.1	1005	4.9	270	1	58
2026-02-11T07:44	6.1	1005	4.9	270	1	58
2026-02-11T07:45	6.1	1005	4.8	270	1	58
2026-02-11T07:46	6.1	1005	4.9	270	1	58
2026-02-11T07:47	6.1	1005	4.8	280	1	58
2026-02-11T07:48	6.2	1005	4.9	280	1	59
2026-02-11T07:49	6.1	1005	4.8	290	0	58
2026-02-11T07:50	5.9	1005	4.9	300	0	58
2026-02-11T07:51	5.9	1005	5.0	300	0	58
2026-02-11T07:52	5.8	1005	4.9	310	0	57
2026-02-11T07:53	5.8	1005	5.1	310	0	56
2026-02-11T07:54	5.8	1005	5.1	310	0	56
2026-02-11T07:55	5.8	1005	5.1	310	0	56
2026-02-11T07:56	5.8	1005	5.1	310	0	55
2026-02-11T07:57	5.8	1005	5.1	300	0	55
2026-02-11T07:58	5.7	1005	5.0	290	0	55
2026-02-11T07:59	5.8	1005	4.9	280	0	55
2026-02-11T08:00	5.8	1005	4.9	280	0	55
2026-02-11T08:01	5.7	1005	4.8	270	0	55
2026-02-11T08:02	5.7	1005	4.8	270	0	56
2026-02-11T08:03	5.6	1005	4.9	270	0	56
2026-02-11T08:04	5.4	1005	4.7	260	0	55
2026-02-11T08:05	5.4	1005	4.7	260	0	55
2026-02-11T08:06	5.4	1005	4.8	270	0	55
2026-02-11T08:07	5.3	1005	4.7	270	0	55
2026-02-11T08:08	5.3	1005	4.7	270	0	47
2026-02-11T08:09	5.3	1005	4.9	270	0	43
2026-02-11T08:10	5.2	1005	4.8	270	0	40
2026-02-11T08:11	5.2	1005	4.8	270	0	38
2026-02-11T08:12	5.2	1005	4.8	270	1	38
2026-02-11T08:13	5.2	1005	4.8	270	1	38
2026-02-11T08:14	5.1	1005	4.7	270	1	39
2026-02-11T08:15	5.0	1005	4.6	270	1	38
2026-02-11T08:16	4.9	1005	4.5	270	1	35
2026-02-11T08:17	4.9	1005	4.5	270	1	33
2026-02-11T08:18	4.9	1005	4.6	270	1	32
2026-02-11T08:19	4.9	1005	4.6	270	0	30
2026-02-11T08:20	4.9	1005	4.6	270	0	29
2026-02-11T08:21	4.8	1005	4.5	270	0	27
2026-02-11T08:22	4.7	1005	4.4	270	0	24
2026-02-11T08:23	4.6	1006	4.3	270	0	23
2026-02-11T08:24	4.6	1006	4.3	270	0	21
2026-02-11T08:25	4.5	1006	4.4	280	0	17
2026-02-11T08:26	4.4	1006	4.3	280	0	16
2026-02-11T08:27	4.6	1006	4.5	290	1	15
2026-02-11T08:28	4.6	1006	4.5	300	1	15
2026-02-11T08:29	4.6	1006	4.5	300	1	15
2026-02-11T08:30	4.4	1006	4.3	300	1	15
2026-02-11T08:31	4.4	1006	4.3	300	1	15
2026-02-11T08:32	4.4	1006	4.3	310	1	15
2026-02-11T08:33	4.5	1006	4.4	310	1	14
2026-02-11T08:34	4.3	1006	4.2	320	1	14
2026-02-11T08:35	4.4	1006	4.3	320	1	16
2026-02-11T08:36	4.4	1006	4.4	320	1	17
2026-02-11T08:37	4.5	1006	4.5	320	1	17
2026-02-11T08:38	4.4	1006	4.4	320	1	17
2026-02-11T08:39	4.3	1006	4.3	320	1	17
2026-02-11T08:40	4.2	1006	4.2	320	1	16
2026-02-11T08:41	4.1	1006	4.1	310	1	15
2026-02-11T08:42	4.0	1006	4.0	310	1	12
2026-02-11T08:43	4.0	1006	4.0	300	1	12
2026-02-11T08:44	3.9	1006	3.9	300	1	12
2026-02-11T08:45	4.1	1006	4.1	300	1	11
2026-02-11T08:46	4.1	1006	4.1	300	1	11
2026-02-11T08:47	4.1	1006	4.1	300	1	11
2026-02-11T08:48	4.0	1006	4.0	310	1	10
2026-02-11T08:49	4.0	1006	4.0	320	1	9
2026-02-11T08:50	3.8	1006	3.8	330	1	9
2026-02-11T08:51	3.8	1006	3.8	330	1	9
2026-02-11T08:52	3.8	1006	3.8	340	1	9
2026-02-11T08:53	3.7	1006	3.7	350	1	9
2026-02-11T08:54	3.9	1006	3.9	350	1	9
2026-02-11T08:55	3.7	1006	3.7	350	1	9
2026-02-11T08:56	3.6	1006	3.6	350	1	7
2026-02-11T08:57	3.7	1006	3.7	350	1	7
2026-02-11T08:58	3.7	1006	3.7	360	1	7
2026-02-11T08:59	3.7	1006	3.7	360	1	8
2026-02-11T09:00	3.9	1006	3.9	350	1	8
2026-02-11T09:01	3.8	1006	3.8	350	1	8
2026-02-11T09:02	3.5	1006	3.5	350	1	9
2026-02-11T09:03	3.4	1006	3.4	340	0	8
2026-02-11T09:04	3.5	1006	3.5	330	0	7
2026-02-11T09:05	3.5	1006	3.5	330	0	6
2026-02-11T09:06	3.5	1006	3.5	0	0	7
2026-02-11T09:07	3.5	1006	3.5	0	0	7
2026-02-11T09:08	3.6	1006	3.6	0	0	7
2026-02-11T09:09	3.6	1006	3.6	0	0	7
2026-02-11T09:10	3.4	1006	3.4	0	0	6
2026-02-11T09:11	3.3	1006	3.3	0	0	6
2026-02-11T09:12	3.4	1006	3.4	0	0	6
2026-02-11T09:13	3.5	1006	3.5	0	0	6
2026-02-11T09:14	3.6	1006	3.6	0	0	7
2026-02-11T09:15	3.4	1006	3.4	0	0	8
2026-02-11T09:16	3.4	1006	3.4	0	0	8
2026-02-11T09:17	3.6	1006	3.6	0	0	6
2026-02-11T09:18	3.3	1006	3.3	0	0	4
2026-02-11T09:19	3.3	1006	3.3	0	0	4
2026-02-11T09:20	3.2	1006	3.2	0	0	4
2026-02-11T09:21	3.3	1006	3.3	0	0	4
2026-02-11T09:22	3.4	1006	3.4	0	0	4
2026-02-11T09:23	3.6	1006	3.6	0	0	4
2026-02-11T09:24	3.5	1006	3.5	0	0	4
2026-02-11T09:25	3.4	1006	3.4	0	0	4
2026-02-11T09:26	3.4	1006	3.4	0	0	4
2026-02-11T09:27	3.3	1006	3.3	0	0	4
2026-02-11T09:28	3.3	1006	3.3	0	0	5
2026-02-11T09:29	3.2	1006	3.2	0	0	5
2026-02-11T09:30	3.1	1006	3.1	0	0	4
2026-02-11T09:31	3.1	1006	3.1	0	0	4
2026-02-11T09:32	2.9	1006	2.9	0	0	3
2026-02-11T09:33	3.2	1006	3.2	0	0	3
2026-02-11T09:34	3.3	1006	3.3	0	0	3
2026-02-11T09:35	3.3	1006	3.3	0	0	3
2026-02-11T09:36	3.2	1007	3.2	0	0	3
2026-02-11T09:37	2.9	1007	2.9	0	0	4
2026-02-11T09:38	3.0	1007	3.0	0	0	3
2026-02-11T09:39	3.0	1007	3.0	0	0	
2026-02-11T09:40	3.0	1007	3.0	0	0	
2026-02-11T09:41	2.9	1007	2.9	0	0	
2026-02-11T09:42	2.8	1007	2.8	0	0	
2026-02-11T09:43	2.9	1007	2.9	0	0	
2026-02-11T09:44	2.9	1007	2.9	0	0	
2026-02-11T09:45	2.8	1007	2.8	0	0	
2026-02-11T09:46	2.8	1007	2.8	0	0	
2026-02-11T09:47	2.8	1007	2.8	0	0	
2026-02-11T09:48	2.9	1007	2.9	0	0	
2026-02-11T09:49	2.9	1007	2.9	0	0	
2026-02-11T09:50	2.8	1007	2.8	0	0	
2026-02-11T09:51	2.7	1007	2.7	0	0	
2026-02-11T09:52	2.7	1007	2.7	0	0	3
2026-02-11T09:53	2.7	1007	2.7	0	0	3
2026-02-11T09:54	2.8	1007	2.8	260	0	3
2026-02-11T09:55	2.8	1007	2.8	260	0	3
2026-02-11T09:56	2.6	1007	2.6	260	0	3
2026-02-11T09:57	2.7	1007	2.7	260	0	3
2026-02-11T09:58	2.7	1007	2.7	260	0	3
2026-02-11T09:59	2.6	1007	2.6	260	1	3
2026-02-11T10:00	2.7	1007	2.7	260	1	3
2026-02-11T10:01	2.5	1007	2.5	260	1	3
2026-02-11T10:02	2.5	1007	2.5	260	1	3
2026-02-11T10:03	2.5	1007	2.5	260	0	3
2026-02-11T10:04	2.6	1007	2.6	260	1	3
2026-02-11T10:05	2.5	1007	2.5	260	0	2
2026-02-11T10:06	2.6	1007	2.6	260	0	2
2026-02-11T10:07	2.6	1007	2.6	260	0	2
2026-02-11T10:08	2.0	1007	2.0	260	0	2
2026-02-11T10:09	2.3	1007	2.3	250	0	2
2026-02-11T10:10	2.3	1007	2.3	0	0	2
2026-02-11T10:11	2.4	1007	2.4	0	0	1
2026-02-11T10:12	2.3	1007	2.3	0	0	1
2026-02-11T10:13	2.3	1007	2.3	0	0	1
2026-02-11T10:14	2.1	1007	2.1	0	0	1
2026-02-11T10:15	2.1	1007	2.1	0	0	1
2026-02-11T10:16	2.0	1007	2.0	0	0	1
2026-02-11T10:17	2.4	1007	2.4	0	0	1
2026-02-11T10:18	2.6	1007	2.6	0	0	1
2026-02-11T10:19	2.5	1007	2.5	0	0	1
2026-02-11T10:20	2.4	1007	2.4	0	0	2
2026-02-11T10:21	2.5	1007	2.5	0	0	2
2026-02-11T10:22	2.5	1007	2.5	0	0	2
2026-02-11T10:23	2.5	1007	2.5	0	0	2
2026-02-11T10:24	2.5	1007	2.5	0	0	2
2026-02-11T10:25	2.3	1007	2.3	0	0	2
2026-02-11T10:26	2.4	1007	2.4	0	0	2
2026-02-11T10:27	2.1	1007	2.1	0	0	2
2026-02-11T10:28	2.3	1007	2.3	0	0	1
2026-02-11T10:29	2.5	1007	2.5	0	0	1
2026-02-11T10:30	2.5	1007	2.5	0	0	1
2026-02-11T10:31	2.4	1007	2.4	0	0	1
2026-02-11T10:32	2.3	1007	2.3	0	0	1
2026-02-11T10:33	2.2	1007	2.2	0	0	1
2026-02-11T10:34	1.8	1007	1.8	0	0	1
2026-02-11T10:35	1.5	1007	1.5	0	0	1
2026-02-11T10:36	1.4	1007	1.4	0	0	1
2026-02-11T10:37	1.5	1007	1.5	0	0	1
2026-02-11T10:38	1.6	1007	1.6	210	0	1
2026-02-11T10:39	1.7	1007	1.7	220	0	1
2026-02-11T10:40	1.6	1007	1.6	230	0	1
2026-02-11T10:41	2.1	1007	2.1	230	0	1
2026-02-11T10:42	2.0	1007	2.0	240	0	1
2026-02-11T10:43	1.8	1007	1.8	240	0	1
2026-02-11T10:44	1.6	1007	1.6	250	0	1
2026-02-11T10:45	1.8	1007	1.8	250	0	1
2026-02-11T10:46	1.8	1007	1.8	240	0	1
2026-02-11T10:47	1.8	1007	1.8	240	0	1
2026-02-11T10:48	1.9	1007	1.9	240	0	1
2026-02-11T10:49	1.9	1007	1.9	240	0	1
2026-02-11T10:50	1.8	1007	1.8	230	0	1
2026-02-11T10:51	1.8	1007	1.8	230	1	1
2026-02-11T10:52	2.1	1007	2.1	230	1	1
2026-02-11T10:53	1.9	1007	1.9	230	1	1
2026-02-11T10:54	1.7	1007	1.7	240	1	1
2026-02-11T10:55	2.0	1007	2.0	240	1	1
2026-02-11T10:56	2.0	1007	2.0	240	0	1
2026-02-11T10:57	1.9	1007	1.9	250	0	1
2026-02-11T10:58	1.9	1007	1.9	250	0	1
2026-02-11T10:59	1.9	1007	1.9	260	0	1
2026-02-11T11:00	1.9	1007	1.9	0	0	1
2026-02-11T11:01	1.8	1007	1.8	0	0	1
2026-02-11T11:02	1.0	1007	1.0	0	0	1
2026-02-11T11:03	1.4	1007	1.4	0	0	1
2026-02-11T11:04	2.0	1007	2.0	0	0	1
2026-02-11T11:05	1.8	1007	1.8	0	0	1
2026-02-11T11:06	1.6	1007	1.6	0	0	1
2026-02-11T11:07	1.7	1007	1.7	0	0	1
2026-02-11T11:08	1.8	1007	1.8	0	0	1
2026-02-11T11:09	1.6	1007	1.6	0	0	1
2026-02-11T11:10	1.3	1007	1.3	0	0	1
2026-02-11T11:11	1.5	1007	1.5	0	0	1
2026-02-11T11:12	1.5	1007	1.5	0	0	1
2026-02-11T11:13	1.3	1007	1.3	0	0	1
2026-02-11T11:14	1.3	1007	1.3	290	0	1
2026-02-11T11:15	0.9	1007	0.9	280	0	1
2026-02-11T11:16	0.7	1007	0.7	280	0	1
2026-02-11T11:17	1.1	1007	1.1	260	1	1
2026-02-11T11:18	1.1	1007	1.1	240	1	1
2026-02-11T11:19	1.1	1007	1.1	250	1	2
2026-02-11T11:20	1.3	1007	1.3	250	1	2
2026-02-11T11:21	1.3	1007	1.3	250	1	2
2026-02-11T11:22	1.3	1007	1.3	250	1	3
2026-02-11T11:23	1.5	1007	1.5	240	1	3
2026-02-11T11:24	1.4	1007	1.4	230	1	3
2026-02-11T11:25	1.4	1007	1.4	220	1	2
2026-02-11T11:26	0.9	1007	0.9	210	1	2
2026-02-11T11:27	0.8	1007	0.8	210	1	2
2026-02-11T11:28	1.1	1007	1.1	200	0	1
2026-02-11T11:29	0.9	1007	0.9	200	0	1
2026-02-11T11:30	0.8	1007	0.8	200	0	1
2026-02-11T11:31	0.8	1007	0.8	200	0	1
2026-02-11T11:32	1.2	1007	1.2	0	0	1
2026-02-11T11:33	1.6	1007	1.6	0	0	1
2026-02-11T11:34	1.3	1007	1.3	0	0	1
2026-02-11T11:35	1.3	1007	1.3	0	0	1
2026-02-11T11:36	1.0	1007	1.0	0	0	1
2026-02-11T11:37	0.8	1007	0.8	0	0	1
2026-02-11T11:38	1.3	1007	1.3	340	0	1
2026-02-11T11:39	1.3	1007	1.3	350	0	1
2026-02-11T11:40	1.1	1007	1.1	340	0	1
2026-02-11T11:41	1.1	1007	1.1	340	0	1
2026-02-11T11:42	1.2	1007	1.2	340	0	1
2026-02-11T11:43	1.0	1007	1.0	330	0	1
2026-02-11T11:44	0.9	1007	0.9	330	0	1
2026-02-11T11:45	1.4	1007	1.4	330	0	1
2026-02-11T11:46	1.3	1007	1.3	330	0	1
2026-02-11T11:47	1.0	1007	1.0	330	0	1
2026-02-11T11:48	0.7	1007	0.7	320	0	1
2026-02-11T11:49	0.8	1007	0.8	320	0	1
2026-02-11T11:50	0.8	1007	0.8	0	0	2
2026-02-11T11:51	0.9	1007	0.9	0	0	2
2026-02-11T11:52	1.0	1007	1.0	0	0	2
2026-02-11T11:53	1.0	1007	1.0	0	0	1
2026-02-11T11:54	0.9	1007	0.9	0	0	1
2026-02-11T11:55	1.0	1007	1.0	0	0	1
2026-02-11T11:56	1.1	1007	1.1	0	0	1
2026-02-11T11:57	1.1	1007	1.1	0	0	1
2026-02-11T11:58	1.1	1007	1.1	0	0	1
2026-02-11T11:59	1.1	1007	1.1	0	0	1
2026-02-11T12:00	0.9	1007	0.9	0	0	1
2026-02-11T12:01	0.8	1007	0.8	0	0	1
2026-02-11T12:02	0.7	1007	0.7	0	0	1
2026-02-11T12:03	1.0	1007	1.0	200	0	1
2026-02-11T12:04	0.7	1007	0.7	180	0	1
2026-02-11T12:05	0.9	1008	0.9	160	0	1
2026-02-11T12:06	0.9	1008	0.9	150	0	1
2026-02-11T12:07	1.0	1008	1.0	150	1	1
2026-02-11T12:08	0.9	1008	0.9	140	1	1
2026-02-11T12:09	0.9	1008	0.9	130	1	1
2026-02-11T12:10	0.7	1008	0.7	130	1	1
2026-02-11T12:11	0.6	1008	0.6	120	1	1
2026-02-11T12:12	0.5	1008	0.5	120	1	1
2026-02-11T12:13	0.3	1008	0.3	120	1	1
2026-02-11T12:14	0.3	1008	0.3	120	1	1
2026-02-11T12:15	0.6	1008	0.6	110	1	1
2026-02-11T12:16	0.8	1008	0.8	110	1	1
2026-02-11T12:17	1.2	1008	1.2	110	1	1
2026-02-11T12:18	1.4	1008	1.4	110	1	1
2026-02-11T12:19	1.5	1008	1.5	110	1	1
2026-02-11T12:20	1.2	1008	1.2	120	1	2
2026-02-11T12:21	0.7	1007	0.7	120	1	2
2026-02-11T12:22	0.7	1007	0.7	120	1	1
2026-02-11T12:23	0.9	1007	0.9	120	1	1
2026-02-11T12:24	0.7	1007	0.7	120	1	1
2026-02-11T12:25	0.6	1008	0.6	120	1	1
2026-02-11T12:26	0.6	1008	0.6	120	1	1
2026-02-11T12:27	0.6	1008	0.6	110	1	1
2026-02-11T12:28	0.7	1008	0.7	110	1	1
2026-02-11T12:29	0.8	1008	0.8	110	0	1
2026-02-11T12:30	0.7	1008	0.7	100	0	1
2026-02-11T12:31	0.6	1008	0.6	0	0	1
2026-02-11T12:32	0.4	1008	0.4	0	0	1
2026-02-11T12:33	0.5	1008	0.5	0	0	1
2026-02-11T12:34	0.5	1008	0.5	0	0	1
2026-02-11T12:35	0.5	1007	0.5	0	0	1
2026-02-11T12:36	0.5	1007	0.5	0	0	1
2026-02-11T12:37	0.2	1007	0.2	0	0	1
2026-02-11T12:38	0.5	1008	0.5	80	0	1
2026-02-11T12:39	0.5	1008	0.5	70	0	1
2026-02-11T12:40	0.3	1008	0.3	60	1	1
2026-02-11T12:41	0.4	1008	0.4	50	1	1
2026-02-11T12:42	0.6	1008	0.6	40	1	1
2026-02-11T12:43	0.6	1008	0.6	40	1	1
2026-02-11T12:44	0.5	1008	0.5	40	1	1
2026-02-11T12:45	0.7	1007	0.7	40	1	1
2026-02-11T12:46	0.9	1007	0.9	40	1	1
2026-02-11T12:47	0.8	1007	0.8	40	1	1
2026-02-11T12:48	0.5	1007	0.5	50	1	2
2026-02-11T12:49	0.4	1008	0.4	70	1	2
2026-02-11T12:50	0.7	1008	0.7	70	1	2
2026-02-11T12:51	0.4	1008	0.4	80	1	2
2026-02-11T12:52	0.1	1008	0.1	90	1	2
2026-02-11T12:53	0.5	1008	0.5	90	1	1
2026-02-11T12:54	0.4	1008	0.4	90	1	1
2026-02-11T12:55	0.4	1008	0.4	90	1	1
2026-02-11T12:56	0.6	1008	0.6	100	1	1
2026-02-11T12:57	0.6	1008	0.6	100	1	1
2026-02-11T12:58	0.3	1008	0.3	100	1	1
2026-02-11T12:59	0.2	1008	0.2	110	1	1
2026-02-11T13:00	0.2	1007	0.2	110	1	1
2026-02-11T13:01	0.4	1007	0.4	110	1	1
2026-02-11T13:02	0.1	1008	0.1	110	1	1
2026-02-11T13:03	-0.1	1008	-0.1	110	1	1
2026-02-11T13:04	-0.2	1008	-0.2	110	1	1
2026-02-11T13:05	-0.2	1008	-0.2	110	1	1
2026-02-11T13:06	0.2	1008	0.2	100	1	1
2026-02-11T13:07	0.3	1008	0.3	100	1	1
2026-02-11T13:08	0.3	1008	0.3	90	1	1
2026-02-11T13:09	0.3	1008	0.3	90	1	1
2026-02-11T13:10	0.4	1008	0.4	80	1	1
2026-02-11T13:11	0.5	1008	0.5	80	1	2
2026-02-11T13:12	0.5	1008	0.5	80	1	2
2026-02-11T13:13	0.4	1008	0.4	70	1	2
2026-02-11T13:14	0.2	1008	0.2	60	1	2
2026-02-11T13:15	0.2	1008	0.2	50	1	2
2026-02-11T13:16	-0.1	1008	-0.1	50	1	2
2026-02-11T13:17	0.3	1008	0.3	60	1	2
2026-02-11T13:18	0.5	1008	0.5	70	1	2
2026-02-11T13:19	0.5	1008	0.5	70	1	2
2026-02-11T13:20	0.0	1008	0.0	80	1	2
2026-02-11T13:21	0.0	1008	0.0	180	1	2
2026-02-11T13:22	0.0	1008	0.0	250	1	2
2026-02-11T13:23	-0.2	1008	-0.2	360	1	2
2026-02-11T13:24	-0.2	1008	-0.2	350	1	2
2026-02-11T13:25	-0.2	1008	-0.2	340	1	2
2026-02-11T13:26	-0.2	1008	-0.2	320	1	2
2026-02-11T13:27	-0.1	1008	-0.1	320	1	2
2026-02-11T13:28	-0.3	1008	-0.3	310	1	3
2026-02-11T13:29	-0.5	1008	-0.5	310	1	3
2026-02-11T13:30	-0.3	1008	-0.3	310	1	3
2026-02-11T13:31	0.0	1008	0.0	290	1	4
2026-02-11T13:32	0.0	1008	0.0	280	1	4
2026-02-11T13:33	0.1	1008	0.1	260	1	4
2026-02-11T13:34	0.3	1008	0.3	240	1	4
2026-02-11T13:35	0.2	1008	0.2	210	1	4
2026-02-11T13:36	0.3	1008	0.3	190	1	4
2026-02-11T13:37	-0.2	1008	-0.2	180	1	4
2026-02-11T13:38	-0.3	1008	-0.3	160	1	3
2026-02-11T13:39	-0.3	1008	-0.3	140	1	3
2026-02-11T13:40	-0.1	1008	-0.1	130	1	2
2026-02-11T13:41	-0.2	1008	-0.2	120	1	2
2026-02-11T13:42	0.0	1008	0.0	110	1	2
2026-02-11T13:43	-0.1	1008	-0.1	100	1	2
2026-02-11T13:44	0.1	1008	0.1	100	1	2
2026-02-11T13:45	0.1	1008	0.1	110	1	2
2026-02-11T13:46	-0.1	1008	-0.1	110	1	2
2026-02-11T13:47	0.0	1008	0.0	110	1	2
2026-02-11T13:48	0.1	1008	0.1	100	1	3
2026-02-11T13:49	-0.1	1008	-0.1	80	1	3
2026-02-11T13:50	-0.1	1008	-0.1	40	1	4
2026-02-11T13:51	0.2	1008	0.2	270	1	4
2026-02-11T13:52	-0.4	1008	-0.4	250	1	5
2026-02-11T13:53	-0.7	1008	-0.7	240	1	5
2026-02-11T13:54	0.0	1008	0.0	240	1	5
2026-02-11T13:55	0.0	1008	0.0	260	1	5
2026-02-11T13:56	0.0	1008	0.0	290	1	5
2026-02-11T13:57	-0.1	1008	-0.1	290	1	6
2026-02-11T13:58	-0.3	1008	-0.3	300	1	5
2026-02-11T13:59	-0.3	1008	-0.3	290	1	6
2026-02-11T14:00	0.2	1008	0.2	290	1	6
2026-02-11T14:01	0.2	1008	0.2	280	1	6
2026-02-11T14:02	-0.1	1008	-0.1	290	1	6
2026-02-11T14:03	0.0	1008	0.0	170	1	7
2026-02-11T14:04	0.0	1008	0.0	130	1	6
2026-02-11T14:05	-0.2	1008	-0.2	30	1	6
2026-02-11T14:06	-0.1	1008	-0.1	60	1	6
2026-02-11T14:07	0.0	1008	0.0	90	1	7
2026-02-11T14:08	0.1	1008	0.1	140	1	8
2026-02-11T14:09	-0.4	1008	-0.4	150	1	8
2026-02-11T14:10	-0.3	1008	-0.3	150	1	8
2026-02-11T14:11	-0.2	1008	-0.2	140	1	8
2026-02-11T14:12	-0.4	1008	-0.4	140	0	8
2026-02-11T14:13	-0.1	1008	-0.1	160	0	7
2026-02-11T14:14	-0.2	1008	-0.2	180	0	7
2026-02-11T14:15	-0.3	1008	-0.3	190	0	8
2026-02-11T14:16	-0.3	1008	-0.3	190	0	9
2026-02-11T14:17	-0.3	1008	-0.3	190	0	9
2026-02-11T14:18	-0.4	1008	-0.4	200	1	9
2026-02-11T14:19	-0.3	1008	-0.3	210	1	8
2026-02-11T14:20	-0.3	1008	-0.3	220	1	8
2026-02-11T14:21	-0.5	1008	-0.5	240	1	7
2026-02-11T14:22	-0.7	1008	-0.7	250	1	6
2026-02-11T14:23	-0.3	1008	-0.3	240	1	7
2026-02-11T14:24	-0.6	1008	-0.6	230	1	6
2026-02-11T14:25	-0.5	1008	-0.5	240	1	6
2026-02-11T14:26	-0.5	1008	-0.5	260	1	5
2026-02-11T14:27	-0.5	1008	-0.5	270	1	5
2026-02-11T14:28	-0.6	1008	-0.6	260	1	4
2026-02-11T14:29	-0.5	1008	-0.5	250	1	4
2026-02-11T14:30	-0.2	1008	-0.2	230	1	4
2026-02-11T14:31	-0.4	1008	-0.4	230	1	5
2026-02-11T14:32	-0.6	1008	-0.6	230	1	5
2026-02-11T14:33	-0.5	1008	-0.5	240	1	5
2026-02-11T14:34	-0.7	1008	-0.7	240	1	5
2026-02-11T14:35	-0.9	1008	-0.9	240	1	4
2026-02-11T14:36	-0.6	1008	-0.6	230	1	4
2026-02-11T14:37	-0.2	1008	-0.2	220	1	4
2026-02-11T14:38	-0.3	1008	-0.3	220	1	5
2026-02-11T14:39	-0.4	1008	-0.4	220	1	5
2026-02-11T14:40	-0.4	1008	-0.4	210	1	5
2026-02-11T14:41	-0.5	1008	-0.5	200	1	4
2026-02-11T14:42	-0.6	1008	-0.6	180	1	4
2026-02-11T14:43	-0.5	1009	-0.5	160	1	4
2026-02-11T14:44	-0.5	1009	-0.5	120	1	4
2026-02-11T14:45	-0.5	1009	-0.5	100	1	4
2026-02-11T14:46	-0.5	1009	-0.5	90	1	4
2026-02-11T14:47	-0.4	1009	-0.4	80	1	4
2026-02-11T14:48	-0.4	1009	-0.4	80	1	3
2026-02-11T14:49	-0.2	1009	-0.2	80	1	3
2026-02-11T14:50	0.0	1009	0.0	80	1	3
2026-02-11T14:51	0.0	1009	0.0	90	1	3
2026-02-11T14:52	-0.3	1009	-0.3	100	1	3
2026-02-11T14:53	-0.6	1009	-0.6	110	1	3
2026-02-11T14:54	-0.5	1009	-0.5	120	1	3
2026-02-11T14:55	-0.5	1009	-0.5	130	1	4
2026-02-11T14:56	-0.9	1009	-0.9	130	1	4
2026-02-11T14:57	-0.5	1009	-0.5	140	1	4
2026-02-11T14:58	-0.7	1009	-0.7	140	1	5
2026-02-11T14:59	-1.2	1009	-1.2	130	1	5
2026-02-11T15:00	-0.8	1009	-0.8	130	1	5
2026-02-11T15:01	-0.8	1009	-0.8	130	0	5
2026-02-11T15:02	-1.1	1009	-1.1	130	0	5
2026-02-11T15:03	-0.9	1008	-0.9	0	0	4
2026-02-11T15:04	-0.9	1009	-0.9	0	0	4
2026-02-11T15:05	-0.8	1009	-0.8	0	0	3
2026-02-11T15:06	-0.6	1009	-0.6	0	0	3
2026-02-11T15:07	-0.8	1009	-0.8	0	0	3
2026-02-11T15:08	-0.9	1009	-0.9	0	0	2
2026-02-11T15:09	-0.9	1009	-0.9	0	0	2
2026-02-11T15:10	-0.7	1009	-0.7	0	0	3
2026-02-11T15:11	-0.6	1009	-0.6	0	0	3
2026-02-11T15:12	-0.7	1009	-0.7	140	0	3
2026-02-11T15:13	-0.6	1009	-0.6	140	0	3
2026-02-11T15:14	-0.6	1009	-0.6	130	0	3
2026-02-11T15:15	-0.7	1009	-0.7	130	0	3
2026-02-11T15:16	-0.7	1009	-0.7	120	1	3
2026-02-11T15:17	-0.8	1009	-0.8	120	1	3
2026-02-11T15:18	-0.7	1009	-0.7	100	1	3
2026-02-11T15:19	-0.7	1009	-0.7	80	1	3
2026-02-11T15:20	-0.4	1009	-0.4	70	1	3
2026-02-11T15:21	-0.5	1009	-0.5	70	1	3
2026-02-11T15:22	-0.7	1009	-0.7	70	1	3
2026-02-11T15:23	-0.6	1009	-0.6	70	1	3
2026-02-11T15:24	-0.4	1009	-0.4	70	1	3
2026-02-11T15:25	-0.6	1009	-0.6	90	1	3
2026-02-11T15:26	-0.8	1009	-0.8	90	0	3
2026-02-11T15:27	-0.8	1009	-0.8	100	0	2
2026-02-11T15:28	-0.6	1009	-0.6	100	0	2
2026-02-11T15:29	-0.6	1009	-0.6	100	0	2
2026-02-11T15:30	-0.5	1009	-0.5	0	0	2
2026-02-11T15:31	-0.6	1009	-0.6	0	0	2
2026-02-11T15:32	-0.7	1009	-0.7	0	0	2
2026-02-11T15:33	-0.7	1009	-0.7	0	0	2
2026-02-11T15:34	-0.8	1009	-0.8	0	0	2
2026-02-11T15:35	-0.8	1009	-0.8	0	0	2
2026-02-11T15:36	-0.7	1009	-0.7	0	0	2
2026-02-11T15:37	-0.9	1009	-0.9	0	0	2
2026-02-11T15:38	-0.8	1009	-0.8	330	0	2
2026-02-11T15:39	-0.9	1009	-0.9	310	0	2
2026-02-11T15:40	-0.7	1009	-0.7	300	1	2
2026-02-11T15:41	-0.7	1009	-0.7	290	1	2
2026-02-11T15:42	-0.6	1009	-0.6	280	1	2
2026-02-11T15:43	-0.7	1009	-0.7	280	1	2
2026-02-11T15:44	-0.8	1009	-0.8	280	1	2
2026-02-11T15:45	-0.7	1009	-0.7	290	1	2
2026-02-11T15:46	-0.7	1009	-0.7	300	1	2
2026-02-11T15:47	-0.6	1009	-0.6	310	1	3
2026-02-11T15:48	-0.6	1009	-0.6	320	1	3
2026-02-11T15:49	-0.5	1009	-0.5	340	1	4
2026-02-11T15:50	-0.5	1009	-0.5	360	1	4
2026-02-11T15:51	-0.5	1009	-0.5	30	1	4
2026-02-11T15:52	-0.6	1009	-0.6	50	1	4
2026-02-11T15:53	-0.5	1009	-0.5	60	1	4
2026-02-11T15:54	-0.5	1009	-0.5	70	1	4
2026-02-11T15:55	-0.6	1009	-0.6	80	1	4
2026-02-11T15:56	-0.5	1009	-0.5	90	1	4
2026-02-11T15:57	-0.3	1009	-0.3	100	1	3
2026-02-11T15:58	-0.3	1009	-0.3	100	1	3
2026-02-11T15:59	-0.5	1009	-0.5	110	1	3
2026-02-11T16:00	-0.9	1009	-0.9	110	1	2
2026-02-11T16:01	-1.0	1009	-1.0	110	1	2
2026-02-11T16:02	-0.7	1009	-0.7	120	1	2
2026-02-11T16:03	-0.6	1009	-0.6	120	1	3
2026-02-11T16:04	-0.6	1009	-0.6	120	1	2
2026-02-11T16:05	-0.9	1009	-0.9	120	1	2
2026-02-11T16:06	-0.9	1009	-0.9	110	1	2
2026-02-11T16:07	-0.9	1009	-0.9	110	1	2
2026-02-11T16:08	-0.7	1009	-0.7	100	1	2
2026-02-11T16:09	-0.8	1009	-0.8	90	1	3
2026-02-11T16:10	-0.8	1009	-0.8	90	1	3
2026-02-11T16:11	-0.7	1009	-0.7	80	1	3
2026-02-11T16:12	-0.7	1009	-0.7	80	1	3
2026-02-11T16:13	-0.8	1009	-0.8	80	1	3
2026-02-11T16:14	-0.7	1009	-0.7	90	1	3
2026-02-11T16:15	-0.6	1009	-0.6	90	1	3
2026-02-11T16:16	-0.6	1009	-0.6	90	1	2
2026-02-11T16:17	-0.6	1009	-0.6	100	1	2
2026-02-11T16:18	-0.6	1009	-0.6	100	0	2
2026-02-11T16:19	-0.6	1009	-0.6	100	0	2
2026-02-11T16:20	-0.7	1009	-0.7	100	0	2
2026-02-11T16:21	-0.7	1009	-0.7	100	0	2
2026-02-11T16:22	-0.8	1009	-0.8	110	0	2
2026-02-11T16:23	-0.8	1009	-0.8	110	0	2
2026-02-11T16:24	-0.7	1009	-0.7	100	0	2
2026-02-11T16:25	-1.3	1009	-1.3	0	0	2
2026-02-11T16:26	-1.0	1009	-1.0	0	0	2
2026-02-11T16:27	-0.9	1009	-0.9	0	0	3
2026-02-11T16:28	-1.0	1009	-1.0	0	0	2
2026-02-11T16:29	-1.0	1009	-1.0	0	0	2
2026-02-11T16:30	-0.9	1009	-0.9	0	0	2
2026-02-11T16:31	-1.0	1009	-1.0	0	0	2
2026-02-11T16:32	-1.0	1009	-1.0	0	0	3
2026-02-11T16:33	-0.9	1009	-0.9	0	0	3
2026-02-11T16:34	-1.0	1009	-1.0	0	0	3
2026-02-11T16:35	-1.0	1009	-1.0	0	0	3
2026-02-11T16:36	-1.0	1009	-1.0	50	0	4
2026-02-11T16:37	-1.0	1009	-1.0	40	0	4
2026-02-11T16:38	-0.9	1009	-0.9	40	0	6
2026-02-11T16:39	-1.0	1009	-1.0	30	1	9
2026-02-11T16:40	-1.0	1009	-1.0	30	1	9
2026-02-11T16:41	-1.0	1009	-1.0	30	1	9
2026-02-11T16:42	-0.9	1009	-0.9	20	1	9
2026-02-11T16:43	-0.9	1009	-0.9	20	1	9
2026-02-11T16:44	-0.8	1009	-0.8	10	1	9
2026-02-11T16:45	-0.9	1009	-0.9	10	1	9
2026-02-11T16:46	-0.9	1009	-0.9	360	1	9
2026-02-11T16:47	-0.9	1009	-0.9	360	1	9
2026-02-11T16:48	-1.0	1009	-1.0	350	1	9
2026-02-11T16:49	-1.2	1009	-1.2	350	1	9
2026-02-11T16:50	-1.1	1009	-1.1	350	1	9
2026-02-11T16:51	-1.0	1009	-1.0	340	1	9
2026-02-11T16:52	-0.9	1009	-0.9	340	1	9
2026-02-11T16:53	-1.0	1009	-1.0	340	1	9
2026-02-11T16:54	-1.2	1009	-1.2	340	1	9
2026-02-11T16:55	-0.9	1009	-0.9	340	1	10
2026-02-11T16:56	-1.0	1009	-1.0	340	1	7
2026-02-11T16:57	-0.9	1009	-0.9	340	1	6
2026-02-11T16:58	-0.9	1009	-0.9	340	1	7
2026-02-11T16:59	-1.0	1009	-1.0	330	1	7
2026-02-11T17:00	-1.0	1009	-1.0	330	0	7
2026-02-11T17:01	-1.0	1009	-1.0	330	0	7
2026-02-11T17:02	-1.2	1009	-1.2	330	0	7
2026-02-11T17:03	-1.5	1009	-1.5	0	0	7
2026-02-11T17:04	-1.5	1009	-1.5	120	0	6
2026-02-11T17:05	-1.5	1009	-1.5	110	0	6
2026-02-11T17:06	-1.6	1009	-1.6	70	0	8
2026-02-11T17:07	-1.5	1009	-1.5	100	0	10
2026-02-11T17:08	-1.2	1009	-1.2	110	1	9
2026-02-11T17:09	-1.2	1009	-1.2	110	1	8
2026-02-11T17:10	-1.0	1009	-1.0	110	1	7
2026-02-11T17:11	-0.9	1010	-0.9	110	1	7
2026-02-11T17:12	-0.9	1010	-0.9	110	1	6
2026-02-11T17:13	-0.8	1010	-0.8	100	1	6
2026-02-11T17:14	-0.9	1010	-0.9	100	1	7
2026-02-11T17:15	-1.0	1010	-1.0	100	1	7
2026-02-11T17:16	-1.0	1010	-1.0	100	1	6
2026-02-11T17:17	-1.1	1010	-1.1	100	1	6
2026-02-11T17:18	-0.8	1010	-0.8	90	1	7
2026-02-11T17:19	-0.8	1010	-0.8	90	1	7
2026-02-11T17:20	-0.9	1010	-0.9	90	1	8
2026-02-11T17:21	-1.0	1010	-1.0	90	1	7
2026-02-11T17:22	-0.9	1010	-0.9	80	1	8
2026-02-11T17:23	-0.9	1010	-0.9	70	1	9
2026-02-11T17:24	-1.3	1009	-1.3	60	1	9
2026-02-11T17:25	-1.1	1009	-1.1	60	1	9
2026-02-11T17:26	-1.2	1009	-1.2	50	1	9
2026-02-11T17:27	-1.1	1010	-1.1	40	1	9
2026-02-11T17:28	-1.1	1010	-1.1	30	1	9
2026-02-11T17:29	-1.0	1009	-1.0	10	1	9
2026-02-11T17:30	-1.5	1010	-1.5	10	1	11
2026-02-11T17:31	-1.5	1010	-1.5	10	1	14
2026-02-11T17:32	-1.4	1010	-1.4	10	1	15
2026-02-11T17:33	-1.3	1010	-1.3	10	1	14
2026-02-11T17:34	-1.2	1010	-1.2	360	1	15
2026-02-11T17:35	-1.2	1010	-1.2	360	1	15
2026-02-11T17:36	-1.2	1010	-1.2	350	1	15
2026-02-11T17:37	-1.2	1010	-1.2	350	1	14
2026-02-11T17:38	-1.3	1010	-1.3	350	1	14
2026-02-11T17:39	-1.4	1010	-1.4	340	1	15
2026-02-11T17:40	-1.5	1010	-1.5	330	0	15
2026-02-11T17:41	-1.6	1010	-1.6	310	0	15
2026-02-11T17:42	-1.7	1010	-1.7	280	0	15
2026-02-11T17:43	-1.7	1010	-1.7	240	0	15
2026-02-11T17:44	-1.6	1010	-1.6	220	0	16
2026-02-11T17:45	-1.4	1010	-1.4	210	0	16
2026-02-11T17:46	-1.4	1010	-1.4	200	1	18
2026-02-11T17:47	-1.8	1010	-1.8	200	1	19
2026-02-11T17:48	-2.0	1010	-2.0	200	1	20
2026-02-11T17:49	-1.9	1010	-1.9	200	1	18
2026-02-11T17:50	-1.8	1010	-1.8	200	1	15
2026-02-11T17:51	-1.7	1010	-1.7	220	1	14
2026-02-11T17:52	-1.7	1010	-1.7	220	1	13
2026-02-11T17:53	-1.5	1010	-1.5	220	1	11
2026-02-11T17:54	-1.5	1010	-1.5	210	1	8
2026-02-11T17:55	-1.4	1010	-1.4	230	1	8
2026-02-11T17:56	-1.3	1010	-1.3	230	1	7
2026-02-11T17:57	-1.8	1010	-1.8	220	1	7
2026-02-11T17:58	-1.8	1010	-1.8	200	1	7
2026-02-11T17:59	-1.8	1010	-1.8	190	1	7
2026-02-11T18:00	-1.6	1010	-1.6	180	1	8
2026-02-11T18:01	-1.7	1010	-1.7	170	1	9
2026-02-11T18:02	-1.5	1010	-1.5	160	1	9
2026-02-11T18:03	-1.5	1010	-1.5	160	1	11
2026-02-11T18:04	-1.5	1010	-1.5	170	1	16
2026-02-11T18:05	-1.5	1010	-1.5	170	1	18
2026-02-11T18:06	-1.4	1010	-1.4	190	1	19
2026-02-11T18:07	-1.6	1010	-1.6	200	1	20
2026-02-11T18:08	-1.9	1010	-1.9	210	1	21
2026-02-11T18:09	-1.7	1010	-1.7	210	1	22
2026-02-11T18:10	-1.7	1010	-1.7	220	1	21
2026-02-11T18:11	-1.6	1010	-1.6	230	0	21
2026-02-11T18:12	-1.6	1010	-1.6	240	0	20
2026-02-11T18:13	-1.7	1010	-1.7	240	0	19
2026-02-11T18:14	-1.7	1010	-1.7	0	0	18
2026-02-11T18:15	-1.7	1010	-1.7	0	0	17
2026-02-11T18:16	-1.6	1010	-1.6	0	0	16
2026-02-11T18:17	-1.8	1010	-1.8	0	0	13
2026-02-11T18:18	-1.8	1010	-1.8	0	0	10
2026-02-11T18:19	-1.6	1010	-1.6	0	0	10
2026-02-11T18:20	-1.6	1010	-1.6	0	0	10
2026-02-11T18:21	-1.5	1010	-1.5	180	0	10
2026-02-11T18:22	-1.4	1010	-1.4	170	0	9
2026-02-11T18:23	-1.4	1010	-1.4	150	0	9
2026-02-11T18:24	-1.5	1010	-1.5	140	1	8
2026-02-11T18:25	-1.6	1010	-1.6	130	1	8
2026-02-11T18:26	-1.5	1010	-1.5	130	1	7
2026-02-11T18:27	-1.5	1010	-1.5	130	1	8
2026-02-11T18:28	-1.5	1010	-1.5	130	1	9
2026-02-11T18:29	-1.4	1010	-1.4	140	1	9
2026-02-11T18:30	-1.5	1010	-1.5	140	1	8
2026-02-11T18:31	-1.4	1010	-1.4	140	1	8
2026-02-11T18:32	-1.5	1010	-1.5	140	1	8
2026-02-11T18:33	-1.8	1010	-1.8	140	1	9
2026-02-11T18:34	-1.7	1010	-1.7	140	1	11
2026-02-11T18:35	-1.4	1010	-1.4	140	1	11
2026-02-11T18:36	-1.5	1010	-1.5	140	1	12
2026-02-11T18:37	-1.7	1010	-1.7	150	1	13
2026-02-11T18:38	-1.5	1010	-1.5	150	1	15
2026-02-11T18:39	-1.5	1010	-1.5	160	1	15
2026-02-11T18:40	-1.4	1010	-1.4	160	1	17
2026-02-11T18:41	-1.6	1010	-1.6	170	0	15
2026-02-11T18:42	-1.7	1010	-1.7	170	0	12
2026-02-11T18:43	-1.7	1010	-1.7	180	1	11
2026-02-11T18:44	-1.6	1010	-1.6	190	1	11
2026-02-11T18:45	-1.6	1010	-1.6	200	1	11
2026-02-11T18:46	-1.6	1010	-1.6	200	0	12
2026-02-11T18:47	-1.9	1010	-1.9	210	0	12
2026-02-11T18:48	-1.9	1010	-1.9	210	0	12
2026-02-11T18:49	-1.9	1010	-1.9	210	0	13
2026-02-11T18:50	-1.9	1010	-1.9	220	0	15
2026-02-11T18:51	-1.9	1010	-1.9	220	0	16
2026-02-11T18:52	-1.8	1010	-1.8	220	0	23
2026-02-11T18:53	-1.7	1010	-1.7	220	0	25
2026-02-11T18:54	-1.8	1010	-1.8	230	0	26
2026-02-11T18:55	-1.8	1010	-1.8	230	0	26
2026-02-11T18:56	-1.7	1010	-1.7	230	0	25
2026-02-11T18:57	-1.8	1010	-1.8	240	0	25
2026-02-11T18:58	-1.8	1010	-1.8	240	0	26
2026-02-11T18:59	-1.9	1010	-1.9	250	1	26
2026-02-11T19:00	-1.9	1010	-1.9	250	1	26
2026-02-11T19:01	-1.9	1010	-1.9	260	1	27
2026-02-11T19:02	-1.9	1010	-1.9	270	1	27
2026-02-11T19:03	-1.8	1010	-1.8	280	1	27
2026-02-11T19:04	-1.7	1010	-1.7	290	1	27
2026-02-11T19:05	-1.6	1010	-1.6	300	1	28
2026-02-11T19:06	-1.5	1010	-1.5	310	1	29
2026-02-11T19:07	-1.8	1010	-1.8	320	1	31
2026-02-11T19:08	-1.8	1010	-1.8	330	1	32
2026-02-11T19:09	-1.8	1010	-1.8	330	1	33
2026-02-11T19:10	-1.8	1010	-1.8	340	1	35
2026-02-11T19:11	-1.8	1010	-1.8	350	1	36
2026-02-11T19:12	-1.9	1010	-1.9	350	1	35
2026-02-11T19:13	-1.8	1010	-1.8	360	1	34
2026-02-11T19:14	-1.7	1010	-1.7	360	1	33
2026-02-11T19:15	-1.6	1010	-1.6	10	1	33
2026-02-11T19:16	-1.5	1010	-1.5	20	1	31
2026-02-11T19:17	-1.5	1010	-1.5	20	1	30
2026-02-11T19:18	-1.4	1010	-1.4	30	1	29
2026-02-11T19:19	-1.6	1010	-1.6	40	1	27
2026-02-11T19:20	-1.7	1010	-1.7	40	1	25
2026-02-11T19:21	-1.6	1010	-1.6	50	1	23
2026-02-11T19:22	-1.6	1010	-1.6	50	1	22
2026-02-11T19:23	-1.5	1010	-1.5	60	1	22
2026-02-11T19:24	-1.5	1010	-1.5	60	1	21
2026-02-11T19:25	-1.6	1010	-1.6	70	1	20
2026-02-11T19:26	-1.7	1010	-1.7	70	1	19
2026-02-11T19:27	-1.7	1010	-1.7	80	1	18
2026-02-11T19:28	-1.8	1010	-1.8	80	1	18
2026-02-11T19:29	-1.6	1010	-1.6	80	1	18
2026-02-11T19:30	-1.5	1010	-1.5	80	1	19
2026-02-11T19:31	-1.5	1010	-1.5	80	1	20
2026-02-11T19:32	-1.5	1010	-1.5	80	1	20
2026-02-11T19:33	-1.6	1010	-1.6	80	1	20
2026-02-11T19:34	-1.6	1010	-1.6	80	1	21
2026-02-11T19:35	-1.5	1010	-1.5	80	1	21
2026-02-11T19:36	-1.5	1010	-1.5	80	1	23
2026-02-11T19:37	-1.9	1010	-1.9	90	1	23
2026-02-11T19:38	-1.7	1010	-1.7	90	1	24
2026-02-11T19:39	-1.8	1010	-1.8	90	1	24
2026-02-11T19:40	-2.0	1010	-2.0	90	1	21
2026-02-11T19:41	-2.2	1010	-2.2	90	0	20
2026-02-11T19:42	-2.3	1010	-2.3	100	0	20
2026-02-11T19:43	-2.0	1010	-2.0	100	0	20
2026-02-11T19:44	-2.1	1010	-2.1	100	0	20
2026-02-11T19:45	-2.0	1010	-2.0	100	0	20
2026-02-11T19:46	-1.9	1010	-1.9	100	0	20
2026-02-11T19:47	-1.9	1010	-1.9	100	0	21
2026-02-11T19:48	-1.8	1010	-1.8	90	0	21
2026-02-11T19:49	-2.0	1010	-2.0	90	0	21
2026-02-11T19:50	-1.9	1010	-1.9	100	0	24
2026-02-11T19:51	-1.7	1010	-1.7	100	1	25
2026-02-11T19:52	-2.0	1010	-2.0	110	0	26
2026-02-11T19:53	-2.2	1010	-2.2	110	0	26
2026-02-11T19:54	-1.9	1010	-1.9	110	1	27
2026-02-11T19:55	-1.7	1010	-1.7	110	1	28
2026-02-11T19:56	-1.7	1010	-1.7	110	1	30
2026-02-11T19:57	-1.6	1010	-1.6	110	1	30
2026-02-11T19:58	-1.8	1010	-1.8	110	1	31
2026-02-11T19:59	-2.0	1010	-2.0	110	1	32
2026-02-11T20:00	-2.1	1010	-2.1	110	1	33
2026-02-11T20:01	-2.1	1010	-2.1	110	1	33
2026-02-11T20:02	-2.0	1010	-2.0	100	1	34
2026-02-11T20:03	-2.4	1010	-2.4	230	1	37
2026-02-11T20:04	-2.5	1010	-2.5	230	1	37
2026-02-11T20:05	-2.4	1010	-2.4	170	1	38
2026-02-11T20:06	-2.1	1010	-2.1	180	1	39
2026-02-11T20:07	-2.2	1010	-2.2	190	1	41
2026-02-11T20:08	-3.1	1010	-3.1	200	1	41
2026-02-11T20:09	-2.9	1011	-2.9	200	1	43
2026-02-11T20:10	-2.4	1011	-2.4	210	1	46
2026-02-11T20:11	-2.5	1011	-2.5	210	1	46
2026-02-11T20:12	-2.6	1011	-2.6	200	1	47
2026-02-11T20:13	-2.5	1011	-2.5	200	1	47
2026-02-11T20:14	-2.7	1011	-2.7	200	1	49
2026-02-11T20:15	-2.6	1011	-2.6	210	1	55
2026-02-11T20:16	-2.6	1011	-2.6	210	1	55
2026-02-11T20:17	-2.5	1011	-2.5	220	1	48
2026-02-11T20:18	-2.2	1011	-2.2	240	1	48
2026-02-11T20:19	-2.0	1011	-2.0	250	1	47
2026-02-11T20:20	-2.1	1011	-2.1	270	1	46
2026-02-11T20:21	-2.1	1011	-2.1	280	1	46
2026-02-11T20:22	-2.3	1011	-2.3	290	1	46
2026-02-11T20:23	-2.3	1011	-2.3	310	1	46
2026-02-11T20:24	-2.7	1011	-2.7	90	1	45
2026-02-11T20:25	-2.4	1011	-2.4	120	1	44
2026-02-11T20:26	-2.4	1011	-2.4	140	1	44
2026-02-11T20:27	-2.6	1011	-2.6	210	1	44
2026-02-11T20:28	-2.6	1011	-2.6	360	1	45
2026-02-11T20:29	-2.4	1011	-2.4	20	1	46
2026-02-11T20:30	-2.3	1011	-2.3	30	1	47
2026-02-11T20:31	-2.3	1011	-2.3	30	1	45
2026-02-11T20:32	-2.1	1011	-2.1	10	1	44
2026-02-11T20:33	-2.3	1011	-2.3	360	1	43
2026-02-11T20:34	-2.4	1011	-2.4	350	1	44
2026-02-11T20:35	-2.4	1011	-2.4	350	1	44
2026-02-11T20:36	-2.4	1011	-2.4	350	0	43
2026-02-11T20:37	-2.6	1011	-2.6	360	0	43
2026-02-11T20:38	-2.4	1011	-2.4	0	0	42
2026-02-11T20:39	-2.3	1011	-2.3	0	0	41
2026-02-11T20:40	-2.4	1011	-2.4	0	0	40
2026-02-11T20:41	-2.4	1011	-2.4	0	0	39
2026-02-11T20:42	-2.4	1011	-2.4	0	0	39
2026-02-11T20:43	-2.4	1011	-2.4	0	0	39
2026-02-11T20:44	-2.3	1011	-2.3	10	0	39
2026-02-11T20:45	-2.3	1011	-2.3	10	0	38
2026-02-11T20:46	-2.2	1011	-2.2	30	0	37
2026-02-11T20:47	-2.2	1011	-2.2	40	1	37
2026-02-11T20:48	-2.5	1011	-2.5	60	1	36
2026-02-11T20:49	-2.4	1011	-2.4	80	1	36
2026-02-11T20:50	-2.5	1011	-2.5	100	1	35
2026-02-11T20:51	-2.6	1011	-2.6	110	1	34
2026-02-11T20:52	-2.5	1011	-2.5	120	1	34
2026-02-11T20:53	-2.6	1011	-2.6	130	1	34
2026-02-11T20:54	-2.5	1011	-2.5	140	1	35
2026-02-11T20:55	-2.5	1011	-2.5	140	1	36
2026-02-11T20:56	-2.5	1011	-2.5	150	1	38
2026-02-11T20:57	-2.5	1011	-2.5	150	1	39
2026-02-11T20:58	-2.5	1011	-2.5	160	1	40
2026-02-11T20:59	-2.5	1011	-2.5	160	1	42
2026-02-11T21:00	-2.6	1011	-2.6	160	1	44
2026-02-11T21:01	-2.9	1011	-2.9	160	0	47
2026-02-11T21:02	-2.9	1011	-2.9	170	0	46
2026-02-11T21:03	-2.8	1011	-2.8	170	0	46
2026-02-11T21:04	-2.8	1011	-2.8	180	0	44
2026-02-11T21:05	-2.6	1011	-2.6	180	0	42
2026-02-11T21:06	-2.7	1011	-2.7	0	0	39
2026-02-11T21:07	-2.6	1011	-2.6	0	0	37
2026-02-11T21:08	-2.4	1011	-2.4	0	0	36
2026-02-11T21:09	-2.5	1011	-2.5	0	0	34
2026-02-11T21:10	-2.4	1011	-2.4	0	0	33
2026-02-11T21:11	-2.5	1011	-2.5	0	0	33
2026-02-11T21:12	-2.5	1011	-2.5	0	0	34
2026-02-11T21:13	-2.5	1011	-2.5	0	0	34
2026-02-11T21:14	-2.5	1011	-2.5	0	0	34
2026-02-11T21:15	-2.6	1012	-2.6	0	0	34
2026-02-11T21:16	-2.5	1012	-2.5	0	0	34
2026-02-11T21:17	-2.5	1012	-2.5	0	0	35
2026-02-11T21:18	-2.5	1012	-2.5	0	0	35
2026-02-11T21:19	-2.4	1012	-2.4	0	0	37
2026-02-11T21:20	-2.6	1012	-2.6	0	0	38
2026-02-11T21:21	-2.6	1012	-2.6	0	0	39
2026-02-11T21:22	-2.4	1012	-2.4	0	0	39
2026-02-11T21:23	-2.5	1012	-2.5	0	0	38
2026-02-11T21:24	-2.8	1012	-2.8	160	0	38
2026-02-11T21:25	-2.8	1012	-2.8	140	0	39
2026-02-11T21:26	-2.6	1012	-2.6	130	0	40
2026-02-11T21:27	-2.5	1012	-2.5	120	0	41
2026-02-11T21:28	-2.3	1012	-2.3	110	1	39
2026-02-11T21:29	-2.2	1012	-2.2	110	1	38
2026-02-11T21:30	-2.3	1012	-2.3	110	1	37
2026-02-11T21:31	-2.3	1012	-2.3	110	1	35
2026-02-11T21:32	-2.4	1012	-2.4	110	0	34
2026-02-11T21:33	-2.3	1012	-2.3	110	1	33
2026-02-11T21:34	-2.3	1012	-2.3	120	1	32
2026-02-11T21:35	-2.5	1012	-2.5	120	1	31
2026-02-11T21:36	-2.7	1012	-2.7	120	1	29
2026-02-11T21:37	-2.5	1012	-2.5	130	1	29
2026-02-11T21:38	-2.5	1012	-2.5	130	1	29
2026-02-11T21:39	-2.7	1012	-2.7	130	1	30
2026-02-11T21:40	-2.8	1012	-2.8	140	1	31
2026-02-11T21:41	-2.8	1012	-2.8	150	1	33
2026-02-11T21:42	-2.8	1012	-2.8	160	1	35
2026-02-11T21:43	-2.8	1012	-2.8	160	1	37
2026-02-11T21:44	-2.8	1012	-2.8	170	0	39
2026-02-11T21:45	-2.9	1012	-2.9	170	0	41
2026-02-11T21:46	-2.8	1012	-2.8	170	0	44
2026-02-11T21:47	-2.8	1012	-2.8	180	0	45
2026-02-11T21:48	-2.9	1012	-2.9	180	0	46
2026-02-11T21:49	-2.8	1012	-2.8	0	0	46
2026-02-11T21:50	-2.7	1012	-2.7	0	0	45
2026-02-11T21:51	-2.7	1012	-2.7	0	0	41
2026-02-11T21:52	-2.8	1012	-2.8	0	0	39
2026-02-11T21:53	-2.8	1012	-2.8	0	0	38
2026-02-11T21:54	-2.6	1012	-2.6	0	0	37
2026-02-11T21:55	-2.7	1012	-2.7	0	0	37
2026-02-11T21:56	-2.5	1012	-2.5	160	0	37
2026-02-11T21:57	-2.5	1012	-2.5	150	0	36
2026-02-11T21:58	-2.5	1012	-2.5	140	0	36
2026-02-11T21:59	-2.4	1012	-2.4	130	1	36
2026-02-11T22:00	-2.6	1012	-2.6	120	1	35
2026-02-11T22:01	-2.6	1012	-2.6	120	1	37
2026-02-11T22:02	-2.4	1012	-2.4	110	1	38
2026-02-11T22:03	-2.2	1012	-2.2	110	1	37
2026-02-11T22:04	-2.1	1012	-2.1	100	1	37
2026-02-11T22:05	-2.0	1012	-2.0	100	1	38
2026-02-11T22:06	-2.0	1012	-2.0	100	1	38
2026-02-11T22:07	-2.0	1012	-2.0	100	1	39
2026-02-11T22:08	-2.2	1012	-2.2	100	1	39
2026-02-11T22:09	-2.1	1012	-2.1	100	1	39
2026-02-11T22:10	-2.1	1012	-2.1	100	0	39
2026-02-11T22:11	-2.1	1012	-2.1	100	0	39
2026-02-11T22:12	-2.0	1012	-2.0	90	0	39
2026-02-11T22:13	-2.0	1012	-2.0	90	0	38
2026-02-11T22:14	-2.0	1012	-2.0	0	0	38
2026-02-11T22:15	-2.1	1012	-2.1	0	0	38
2026-02-11T22:16	-2.0	1012	-2.0	0	0	37
2026-02-11T22:17	-2.0	1012	-2.0	0	0	37
2026-02-11T22:18	-2.0	1012	-2.0	0	0	37
2026-02-11T22:19	-1.9	1012	-1.9	0	0	37
2026-02-11T22:20	-1.9	1012	-1.9	0	0	37
2026-02-11T22:21	-1.9	1012	-1.9	0	0	36
2026-02-11T22:22	-1.9	1012	-1.9	0	0	36
2026-02-11T22:23	-1.9	1012	-1.9	40	0	37
2026-02-11T22:24	-1.9	1012	-1.9	30	0	37
2026-02-11T22:25	-1.9	1012	-1.9	20	0	37
2026-02-11T22:26	-1.8	1012	-1.8	20	0	37
2026-02-11T22:27	-1.6	1012	-1.6	0	0	38
2026-02-11T22:28	-1.6	1013	-1.6	0	0	37
2026-02-11T22:29	-1.5	1013	-1.5	0	0	37
2026-02-11T22:30	-1.4	1013	-1.4	0	0	37
2026-02-11T22:31	-1.4	1013	-1.4	0	0	36
2026-02-11T22:32	-1.4	1013	-1.4	0	0	36
2026-02-11T22:33	-1.3	1013	-1.3	0	0	36
2026-02-11T22:34	-1.3	1013	-1.3	0	0	35
2026-02-11T22:35	-1.2	1013	-1.2	0	0	36
2026-02-11T22:36	-1.2	1013	-1.2	0	0	36
2026-02-11T22:37	-1.1	1013	-1.1	0	0	36
2026-02-11T22:38	-1.1	1013	-1.1	0	0	37
2026-02-11T22:39	-1.1	1013	-1.1	0	0	38
2026-02-11T22:40	-1.1	1013	-1.1	0	0	40
2026-02-11T22:41	-1.0	1013	-1.0	0	0	41
2026-02-11T22:42	-1.0	1013	-1.0	0	0	43
2026-02-11T22:43	-1.1	1013	-1.1	0	0	43
2026-02-11T22:44	-1.1	1013	-1.1	0	0	44
2026-02-11T22:45	-1.0	1013	-1.0	0	0	44
2026-02-11T22:46	-1.0	1013	-1.0	0	0	44
2026-02-11T22:47	-0.9	1013	-0.9	0	0	41
2026-02-11T22:48	-0.9	1013	-0.9	0	0	37
2026-02-11T22:49	-0.8	1013	-0.8	0	0	35
2026-02-11T22:50	-0.8	1013	-0.8	320	0	32
2026-02-11T22:51	-0.7	1013	-0.7	320	0	29
2026-02-11T22:52	-0.7	1013	-0.7	330	0	28
2026-02-11T22:53	-0.7	1013	-0.7	320	0	26
2026-02-11T22:54	-0.6	1013	-0.6	320	0	25
2026-02-11T22:55	-0.6	1013	-0.6	320	0	24
2026-02-11T22:56	-0.6	1013	-0.6	320	0	24
2026-02-11T22:57	-0.6	1013	-0.6	320	0	25
2026-02-11T22:58	-0.5	1013	-0.5	310	0	25
2026-02-11T22:59	-0.5	1013	-0.5	310	0	24
2026-02-11T23:00	-0.5	1013	-0.5	310	0	23
2026-02-11T23:01	-0.4	1013	-0.4	310	0	22
2026-02-11T23:02	-0.4	1013	-0.4	300	0	21
2026-02-11T23:03	-0.3	1013	-0.3	300	0	22
2026-02-11T23:04	-0.3	1013	-0.3	300	0	22
2026-02-11T23:05	-0.3	1013	-0.3	290	0	22
2026-02-11T23:06	-0.3	1013	-0.3	290	0	23
2026-02-11T23:07	-0.2	1013	-0.2	290	1	23
2026-02-11T23:08	-0.2	1013	-0.2	290	1	24
2026-02-11T23:09	-0.2	1013	-0.2	280	0	26
2026-02-11T23:10	-0.1	1013	-0.1	280	0	30
2026-02-11T23:11	-0.1	1013	-0.1	290	0	34
2026-02-11T23:12	0.0	1013	0.0	290	0	38
2026-02-11T23:13	0.0	1013	0.0	300	0	39
2026-02-11T23:14	0.0	1013	0.0	300	0	40
2026-02-11T23:15	0.2	1013	0.2	310	0	40
2026-02-11T23:16	0.1	1013	0.1	0	0	41
2026-02-11T23:17	0.2	1013	0.2	0	0	42
2026-02-11T23:18	0.2	1013	0.2	0	0	44
2026-02-11T23:19	0.3	1013	0.3	0	0	45
2026-02-11T23:20	0.4	1013	0.4	0	0	47
2026-02-11T23:21	0.4	1013	0.4	0	0	47
2026-02-11T23:22	0.3	1013	0.3	0	0	48
2026-02-11T23:23	0.4	1013	0.4	0	0	55
2026-02-11T23:24	0.4	1013	0.4	0	0	55
2026-02-11T23:25	0.5	1013	0.5	0	0	55
2026-02-11T23:26	0.5	1013	0.5	270	0	55
2026-02-11T23:27	0.6	1013	0.6	270	0	49
2026-02-11T23:28	0.7	1013	0.7	260	0	49
2026-02-11T23:29	0.9	1013	0.9	250	0	48
2026-02-11T23:30	0.8	1013	0.8	250	0	45
2026-02-11T23:31	0.7	1013	0.7	250	0	38
2026-02-11T23:32	0.7	1013	0.7	260	0	36
2026-02-11T23:33	0.7	1013	0.7	270	0	32
2026-02-11T23:34	0.7	1013	0.7	280	0	28
2026-02-11T23:35	0.9	1013	0.9	290	0	25
2026-02-11T23:36	0.9	1013	0.9	300	0	22
2026-02-11T23:37	0.8	1013	0.8	310	0	19
2026-02-11T23:38	0.9	1013	0.9	320	0	17
2026-02-11T23:39	0.9	1013	0.9	330	0	16
2026-02-11T23:40	0.9	1013	0.9	330	0	15
2026-02-11T23:41	1.0	1013	1.0	330	1	15
2026-02-11T23:42	1.0	1013	1.0	330	1	15
2026-02-11T23:43	1.0	1013	1.0	320	1	15
2026-02-11T23:44	1.1	1013	1.1	310	1	17
2026-02-11T23:45	1.1	1013	1.1	300	1	18
2026-02-11T23:46	1.1	1013	1.1	290	1	21
2026-02-11T23:47	1.1	1013	1.1	280	1	25
2026-02-11T23:48	1.2	1013	1.2	270	1	30
2026-02-11T23:49	1.3	1013	1.3	260	1	36
2026-02-11T23:50	1.3	1013	1.3	250	1	44
2026-02-11T23:51	1.5	1013	1.5	250	1	55
2026-02-11T23:52	1.8	1013	1.8	250	1	56
2026-02-11T23:53	2.0	1013	2.0	250	1	56
2026-02-11T23:54	1.6	1013	1.6	260	1	56
2026-02-11T23:55	1.9	1013	1.9	260	1	56
2026-02-11T23:56	1.8	1013	1.8	260	1	56
2026-02-11T23:57	1.7	1013	1.7	260	1	56
2026-02-11T23:58	1.7	1013	1.7	260	1	56
2026-02-11T23:59	1.7	1013	1.7	260	1	57
2026-02-12T00:00	1.6	1013	1.6	260	1	57
2026-02-12T00:01	2.0	1013	2.0	260	1	59
2026-02-12T00:02	2.0	1013	2.0	260	1	60
2026-02-12T00:03	1.9	1013	1.9	260	1	62
2026-02-12T00:04	1.9	1013	1.9	250	1	62
2026-02-12T00:05	2.4	1013	2.4	250	1	63
2026-02-12T00:06	2.5	1013	2.5	250	1	63
2026-02-12T00:07	2.2	1013	2.1	250	1	63
2026-02-12T00:08	2.0	1013	1.7	240	1	63
2026-02-12T00:09	2.0	1013	1.7	240	1	63
2026-02-12T00:10	1.9	1013	1.5	240	1	64
2026-02-12T00:11	2.0	1013	1.4	240	1	64
2026-02-12T00:12	2.2	1013	1.6	240	1	65
2026-02-12T00:13	2.3	1013	1.7	240	1	65
2026-02-12T00:14	2.6	1013	2.0	250	1	65
2026-02-12T00:15	3.0	1013	2.6	250	1	65
2026-02-12T00:16	2.6	1013	2.0	240	0	66
2026-02-12T00:17	3.1	1013	2.5	230	0	66
2026-02-12T00:18	3.0	1013	2.3	230	0	66
2026-02-12T00:19	3.1	1013	2.2	220	1	66
2026-02-12T00:20	3.3	1013	2.4	210	1	67
2026-02-12T00:21	3.2	1013	2.2	190	1	67
2026-02-12T00:22	3.0	1013	1.8	180	1	67
2026-02-12T00:23	3.0	1013	1.5	180	1	67
2026-02-12T00:24	3.2	1013	1.7	170	1	68
2026-02-12T00:25	3.6	1013	2.4	170	1	67
2026-02-12T00:26	3.6	1013	2.6	170	1	67
2026-02-12T00:27	3.3	1013	1.7	180	1	68
2026-02-12T00:28	3.4	1013	1.8	190	1	68
2026-02-12T00:29	3.6	1013	2.1	200	1	68
2026-02-12T00:30	3.7	1013	2.2	210	1	68
2026-02-12T00:31	3.6	1013	2.0	230	1	67
2026-02-12T00:32	3.3	1013	1.0	230	1	68
2026-02-12T00:33	3.4	1013	1.0	230	1	68
2026-02-12T00:34	3.4	1013	0.8	230	1	68
2026-02-12T00:35	3.5	1013	0.7	230	1	70
2026-02-12T00:36	3.8	1013	1.0	220	1	70
2026-02-12T00:37	3.8	1013	0.7	210	1	70
2026-02-12T00:38	3.7	1013	0.2	190	1	70
2026-02-12T00:39	3.9	1013	0.6	190	1	70
2026-02-12T00:40	3.9	1013	0.6	180	1	70
2026-02-12T00:41	4.0	1013	0.7	180	1	70
2026-02-12T00:42	4.0	1013	0.4	170	1	70
2026-02-12T00:43	4.4	1013	1.1	160	1	70
2026-02-12T00:44	4.5	1013	0.7	160	1	70
2026-02-12T00:45	4.5	1013	0.1	160	1	70
2026-02-12T00:46	4.5	1013	0.1	170	1	70
2026-02-12T00:47	4.6	1013	0.0	170	1	70
2026-02-12T00:48	4.7	1013	0.3	160	1	70
2026-02-12T00:49	5.0	1013	0.8	160	1	70
2026-02-12T00:50	5.4	1013	1.5	340	1	70
2026-02-12T00:51	5.2	1013	0.6	340	1	70
2026-02-12T00:52	5.5	1013	1.2	320	1	70
2026-02-12T00:53	5.3	1013	0.5	180	1	70
2026-02-12T00:54	5.3	1013	0.5	190	1	70
2026-02-12T00:55	5.2	1013	0.0	190	1	70
2026-02-12T00:56	5.4	1013	0.4	160	1	70
2026-02-12T00:57	5.6	1013	0.8	150	1	70
2026-02-12T00:58	5.5	1013	0.3	160	1	70
2026-02-12T00:59	5.3	1013	-0.5	160	1	70
2026-02-12T01:00	5.1	1013	-0.9	150	1	70
2026-02-12T01:01	5.0	1013	-1.2	150	1	70
2026-02-12T01:02	5.0	1013	-1.2	140	1	70
2026-02-12T01:03	5.1	1013	-1.1	140	1	70
2026-02-12T01:04	5.2	1013	-0.8	140	1	70
2026-02-12T01:05	5.3	1013	-0.3	140	1	70
2026-02-12T01:06	5.3	1013	-0.5	150	1	70
2026-02-12T01:07	5.3	1013	-0.7	160	1	70
2026-02-12T01:08	5.3	1013	-0.5	170	1	70
2026-02-12T01:09	5.5	1013	-0.1	170	1	70
2026-02-12T01:10	5.6	1013	-0.2	170	1	70
2026-02-12T01:11	5.8	1013	0.2	170	1	70
2026-02-12T01:12	6.0	1013	0.2	180	1	70
2026-02-12T01:13	5.9	1013	0.1	190	1	70
2026-02-12T01:14	5.9	1013	-0.1	190	1	70
2026-02-12T01:15	5.7	1013	-0.8	190	1	70
2026-02-12T01:16	5.7	1013	-0.8	190	1	70
2026-02-12T01:17	5.7	1013	-1.0	200	1	70
2026-02-12T01:18	5.8	1013	-0.7	200	1	70
2026-02-12T01:19	5.7	1013	-1.0	200	1	70
2026-02-12T01:20	5.9	1013	-0.6	210	1	70
2026-02-12T01:21	5.8	1013	-0.9	220	1	70
2026-02-12T01:22	5.7	1013	-1.2	220	1	70
2026-02-12T01:23	5.8	1013	-0.9	220	1	70
2026-02-12T01:24	6.0	1013	-0.7	220	1	70
2026-02-12T01:25	5.9	1013	-1.0	220	1	70
2026-02-12T01:26	5.8	1013	-1.4	220	1	70
2026-02-12T01:27	5.8	1013	-1.4	210	1	70
2026-02-12T01:28	5.9	1013	-1.0	90	1	70
2026-02-12T01:29	6.0	1013	-0.9	60	1	70
2026-02-12T01:30	6.0	1013	-0.7	80	1	70
2026-02-12T01:31	6.1	1013	-0.8	50	1	70
2026-02-12T01:32	6.0	1013	-1.2	50	1	70
2026-02-12T01:33	5.9	1013	-1.5	40	1	70
2026-02-12T01:34	5.9	1013	-1.5	40	1	70
2026-02-12T01:35	6.0	1013	-0.9	40	1	70
2026-02-12T01:36	6.0	1013	-1.2	40	1	70
2026-02-12T01:37	6.0	1013	-1.2	50	1	70
2026-02-12T01:38	6.0	1013	-1.2	50	1	70
2026-02-12T01:39	6.1	1013	-0.8	50	1	70
2026-02-12T01:40	6.2	1013	-1.0	50	1	70
2026-02-12T01:41	6.5	1013	-0.2	50	1	70
2026-02-12T01:42	6.4	1013	-1.0	50	1	70
2026-02-12T01:43	6.4	1013	-1.3	50	1	70
2026-02-12T01:44	6.2	1013	-1.9	60	1	70
2026-02-12T01:45	6.1	1013	-2.0	60	1	70
2026-02-12T01:46	6.3	1013	-1.8	40	1	70
2026-02-12T01:47	6.6	1013	-1.1	20	1	70
2026-02-12T01:48	6.5	1013	-1.4	350	1	70
2026-02-12T01:49	6.9	1013	-0.5	330	1	70
2026-02-12T01:50	6.7	1013	-1.0	310	1	70
2026-02-12T01:51	6.7	1013	-1.0	290	1	70
2026-02-12T01:52	6.5	1013	-1.6	270	1	70
2026-02-12T01:53	6.6	1013	-1.3	270	1	70
2026-02-12T01:54	6.5	1013	-1.2	280	1	70
2026-02-12T01:55	6.4	1013	-1.5	280	1	70
2026-02-12T01:56	6.5	1013	-1.4	280	1	70
2026-02-12T01:57	7.2	1013	-0.3	280	1	70
2026-02-12T01:58	7.4	1013	-0.3	270	1	70
2026-02-12T01:59	7.9	1013	0.4	260	1	70
2026-02-12T02:00	7.7	1013	-0.5	260	1	70
2026-02-12T02:01	7.3	1013	-1.6	250	1	70
2026-02-12T02:02	7.2	1013	-2.0	240	1	70
2026-02-12T02:03	7.1	1013	-2.1	230	1	70
2026-02-12T02:04	7.4	1013	-1.3	240	1	70
2026-02-12T02:05	7.4	1013	-1.3	240	1	70
2026-02-12T02:06	7.1	1013	-1.8	240	1	70
2026-02-12T02:07	7.3	1013	-1.1	240	1	70
2026-02-12T02:08	7.7	1013	-0.5	240	1	70
2026-02-12T02:09	7.8	1013	-0.7	240	1	70
2026-02-12T02:10	7.5	1013	-1.7	250	1	70
2026-02-12T02:11	7.2	1012	-2.5	260	1	70
2026-02-12T02:12	8.2	1012	-0.5	260	1	70
2026-02-12T02:13	7.7	1012	-2.3	270	1	70
2026-02-12T02:14	7.9	1012	-1.9	60	1	70
2026-02-12T02:15	8.1	1012	-1.4	70	1	70
2026-02-12T02:16	8.4	1012	-0.9	80	1	70
2026-02-12T02:17	8.0	1012	-2.3	140	1	70
2026-02-12T02:18	7.6	1012	-3.6	250	1	70
2026-02-12T02:19	7.5	1012	-3.6	240	1	70
2026-02-12T02:20	7.7	1012	-3.2	220	1	70
2026-02-12T02:21	7.6	1012	-3.6	220	1	70
2026-02-12T02:22	8.0	1012	-2.6	240	1	70
2026-02-12T02:23	8.0	1012	-3.2	250	1	70
2026-02-12T02:24	7.9	1012	-3.0	250	1	70
2026-02-12T02:25	7.9	1012	-3.3	250	1	70
2026-02-12T02:26	8.1	1012	-2.8	240	1	70
2026-02-12T02:27	8.3	1012	-2.1	240	1	70
2026-02-12T02:28	7.8	1012	-2.8	240	1	70
2026-02-12T02:29	7.8	1012	-2.5	250	1	70
2026-02-12T02:30	8.7	1012	-0.6	260	1	70
2026-02-12T02:31	9.0	1012	-0.9	260	1	70
2026-02-12T02:32	8.1	1012	-3.1	260	1	70
2026-02-12T02:33	8.1	1012	-2.5	360	1	70
2026-02-12T02:34	8.2	1012	-2.1	360	1	70
2026-02-12T02:35	8.0	1012	-3.2	280	1	70
2026-02-12T02:36	7.7	1012	-3.8	280	1	70
2026-02-12T02:37	7.7	1012	-3.8	290	1	70
2026-02-12T02:38	7.7	1012	-3.2	290	1	70
2026-02-12T02:39	8.0	1012	-2.3	290	1	70
2026-02-12T02:40	8.0	1012	-2.3	280	1	70
2026-02-12T02:41	7.8	1012	-2.5	280	2	70
2026-02-12T02:42	7.7	1012	-2.3	270	2	70
2026-02-12T02:43	7.5	1012	-2.8	270	2	70
2026-02-12T02:44	7.5	1012	-3.1	260	2	70
2026-02-12T02:45	7.6	1012	-2.4	250	2	70
2026-02-12T02:46	8.0	1012	-1.8	250	2	70
2026-02-12T02:47	7.9	1012	-2.1	240	2	70
2026-02-12T02:48	7.6	1012	-2.7	240	2	70
2026-02-12T02:49	7.7	1012	-2.3	240	2	70
2026-02-12T02:50	8.3	1012	-1.0	230	2	70
2026-02-12T02:51	8.6	1012	-1.2	230	2	70
2026-02-12T02:52	8.3	1012	-2.1	230	2	70
2026-02-12T02:53	8.1	1012	-2.5	230	2	70
2026-02-12T02:54	7.8	1012	-2.8	230	1	70
2026-02-12T02:55	7.8	1012	-2.5	240	2	70
2026-02-12T02:56	7.9	1012	-2.1	240	2	70
2026-02-12T02:57	7.8	1012	-2.5	250	2	70
2026-02-12T02:58	7.6	1012	-2.7	260	2	70
2026-02-12T02:59	7.6	1012	-2.7	270	2	70
2026-02-12T03:00	7.7	1012	-2.3	280	2	70
2026-02-12T03:01	7.6	1012	-2.7	290	2	70
2026-02-12T03:02	7.8	1012	-2.2	290	2	70
2026-02-12T03:03	8.0	1012	-1.8	290	2	70
2026-02-12T03:04	8.2	1012	-1.6	290	2	70
2026-02-12T03:05	8.0	1012	-2.6	290	2	70
2026-02-12T03:06	7.8	1012	-3.1	280	1	70
2026-02-12T03:07	7.7	1012	-3.5	280	1	70
2026-02-12T03:08	7.6	1012	-3.6	270	1	70
2026-02-12T03:09	7.6	1012	-3.6	270	1	70
2026-02-12T03:10	7.8	1012	-3.1	260	1	70
2026-02-12T03:11	7.7	1012	-3.8	250	1	70
2026-02-12T03:12	7.9	1012	-3.0	250	1	70
2026-02-12T03:13	7.9	1012	-3.0	240	1	70
2026-02-12T03:14	8.0	1012	-3.2	250	1	70
2026-02-12T03:15	8.1	1012	-2.8	250	1	70
2026-02-12T03:16	8.0	1012	-4.1	260	1	70
2026-02-12T03:17	8.0	1012	-4.1	270	1	70
2026-02-12T03:18	8.2	1012	-3.3	270	1	70
2026-02-12T03:19	8.2	1012	-3.6	260	2	70
2026-02-12T03:20	7.9	1012	-4.2	260	2	70
2026-02-12T03:21	7.9	1012	-4.2	270	2	70
2026-02-12T03:22	8.0	1012	-3.8	270	2	70
2026-02-12T03:23	8.2	1012	-3.6	270	2	70
2026-02-12T03:24	8.6	1012	-3.3	270	2	70
2026-02-12T03:25	8.7	1012	-4.1	270	2	70
2026-02-12T03:26	9.1	1012	-3.8	270	2	70
2026-02-12T03:27	9.1	1012	-4.4	270	2	70
2026-02-12T03:28	9.2	1012	-4.7	270	2	70
2026-02-12T03:29	9.3	1012	-4.6	270	2	70
2026-02-12T03:30	9.5	1012	-4.4	280	2	70
2026-02-12T03:31	9.1	1012	-5.2	290	2	70
2026-02-12T03:32	9.2	1011	-4.7	290	2	70
2026-02-12T03:33	8.6	1011	-6.0	300	2	70
2026-02-12T03:34	8.6	1011	-5.6	300	2	70
2026-02-12T03:35	8.7	1011	-5.2	300	2	70
2026-02-12T03:36	8.5	1011	-5.7	300	2	70
2026-02-12T03:37	8.4	1011	-5.8	300	2	70
2026-02-12T03:38	8.3	1011	-5.9	300	2	70
2026-02-12T03:39	8.3	1011	-5.5	310	2	70
2026-02-12T03:40	8.7	1011	-4.8	310	2	70
2026-02-12T03:41	9.0	1011	-4.5	320	2	70
2026-02-12T03:42	8.8	1011	-5.1	320	1	70
2026-02-12T03:43	8.7	1011	-5.5	320	1	70
2026-02-12T03:44	8.5	1011	-5.7	330	1	70
2026-02-12T03:45	8.4	1011	-5.8	330	1	70
2026-02-12T03:46	8.5	1011	-5.3	330	1	70
2026-02-12T03:47	9.0	1011	-4.5	340	1	70
2026-02-12T03:48	9.0	1011	-4.9	330	1	70
2026-02-12T03:49	9.2	1011	-4.4	330	1	70
2026-02-12T03:50	9.1	1011	-4.8	320	1	70
2026-02-12T03:51	8.9	1011	-5.3	310	1	70
2026-02-12T03:52	8.8	1011	-5.4	300	1	70
2026-02-12T03:53	8.9	1011	-5.3	290	1	70
2026-02-12T03:54	8.7	1011	-5.9	280	1	70
2026-02-12T03:55	8.7	1011	-5.5	270	1	70
2026-02-12T03:56	8.7	1011	-5.5	260	1	70
2026-02-12T03:57	9.1	1011	-4.8	260	1	70
2026-02-12T03:58	9.3	1011	-4.3	260	2	70
2026-02-12T03:59	9.1	1011	-4.8	250	2	70
2026-02-12T04:00	8.9	1011	-5.3	240	2	70
2026-02-12T04:01	9.3	1011	-3.9	250	1	70
2026-02-12T04:02	9.2	1011	-4.7	250	1	70
2026-02-12T04:03	9.4	1011	-4.9	250	1	70
2026-02-12T04:04	9.7	1011	-4.3	260	1	70
2026-02-12T04:05	9.5	1011	-4.8	280	1	70
2026-02-12T04:06	9.6	1011	-4.7	280	1	70
2026-02-12T04:07	10.1	1011	-3.6	290	1	70
2026-02-12T04:08	10.2	1011	-3.8	300	1	70
2026-02-12T04:09	10.3	1011	-3.7	310	1	70
2026-02-12T04:10	10.1	1011	-3.9	310	1	70
2026-02-12T04:11	10.3	1011	-3.4	310	1	70
2026-02-12T04:12	10.4	1011	-3.6	310	2	70
2026-02-12T04:13	10.3	1011	-4.1	300	2	70
2026-02-12T04:14	10.5	1011	-3.6	300	2	70
2026-02-12T04:15	10.3	1011	-3.7	290	2	70
2026-02-12T04:16	10.0	1011	-4.7	290	2	70
2026-02-12T04:17	9.8	1011	-4.5	290	2	70
2026-02-12T04:18	9.5	1011	-5.2	290	2	70
2026-02-12T04:19	9.6	1011	-5.1	300	2	70
2026-02-12T04:20	9.7	1011	-5.0	310	1	70
2026-02-12T04:21	10.1	1011	-4.6	310	1	70
2026-02-12T04:22	10.0	1011	-5.1	300	1	70
2026-02-12T04:23	10.0	1011	-5.1	300	1	70
2026-02-12T04:24	10.1	1011	-3.9	210	1	70
2026-02-12T04:25	10.4	1011	-3.3	170	1	70
2026-02-12T04:26	10.3	1011	-3.4	160	1	70
2026-02-12T04:27	10.0	1011	-3.3	220	1	70
2026-02-12T04:28	10.3	1011	-2.7	200	1	70
2026-02-12T04:29	10.3	1011	-2.7	180	2	70
2026-02-12T04:30	10.2	1011	-2.8	170	1	70
2026-02-12T04:31	10.4	1011	-2.6	170	2	70
2026-02-12T04:32	10.2	1011	-3.1	170	2	70
2026-02-12T04:33	10.2	1011	-3.1	180	2	70
2026-02-12T04:34	10.3	1011	-3.0	190	2	70
2026-02-12T04:35	10.1	1011	-3.9	200	2	70
2026-02-12T04:36	10.3	1011	-3.4	200	2	70
2026-02-12T04:37	10.6	1011	-2.8	200	2	70
2026-02-12T04:38	10.3	1011	-3.7	200	2	70
2026-02-12T04:39	10.1	1011	-3.6	200	2	70
2026-02-12T04:40	10.1	1011	-3.6	210	2	70
2026-02-12T04:41	10.0	1011	-3.3	210	3	70
2026-02-12T04:42	9.9	1011	-3.0	210	3	70
2026-02-12T04:43	9.9	1011	-3.0	200	2	70
2026-02-12T04:44	9.6	1011	-4.0	200	2	70
2026-02-12T04:45	9.8	1011	-3.5	200	2	70
2026-02-12T04:46	10.0	1011	-3.0	200	2	70
2026-02-12T04:47	9.9	1011	-3.0	210	2	70
2026-02-12T04:48	9.9	1011	-3.0	210	2	70
2026-02-12T04:49	9.9	1011	-3.0	210	2	70
2026-02-12T04:50	9.6	1011	-3.3	210	2	70
2026-02-12T04:51	9.4	1011	-3.5	200	2	70
2026-02-12T04:52	9.3	1011	-3.6	210	2	70
2026-02-12T04:53	9.0	1011	-3.9	210	2	70
2026-02-12T04:54	9.0	1011	-3.5	200	2	70
2026-02-12T04:55	9.5	1011	-2.4	200	2	70
2026-02-12T04:56	9.6	1011	-3.0	200	2	70
2026-02-12T04:57	9.6	1011	-3.0	200	2	70
2026-02-12T04:58	9.6	1011	-3.0	200	2	70
2026-02-12T04:59	9.8	1011	-2.8	200	2	70
2026-02-12T05:00	9.5	1011	-3.4	200	2	70
2026-02-12T05:01	9.3	1011	-3.9	210	2	70
2026-02-12T05:02	9.2	1011	-3.7	210	2	70
2026-02-12T05:03	9.4	1011	-3.2	210	3	70
2026-02-12T05:04	9.4	1011	-3.2	210	3	70
2026-02-12T05:05	9.4	1011	-3.2	220	3	70
2026-02-12T05:06	9.1	1011	-3.8	210	3	70
2026-02-12T05:07	9.1	1011	-3.4	210	3	70
2026-02-12T05:08	9.1	1011	-3.8	210	3	70
2026-02-12T05:09	9.1	1011	-3.4	210	2	70
2026-02-12T05:10	9.2	1011	-3.3	210	2	70
2026-02-12T05:11	9.2	1011	-3.0	200	2	70
2026-02-12T05:12	9.1	1011	-3.4	200	2	70
2026-02-12T05:13	9.1	1011	-3.4	200	2	70
2026-02-12T05:14	8.9	1011	-3.6	210	2	70
2026-02-12T05:15	9.0	1011	-3.5	210	2	70
2026-02-12T05:16	9.1	1011	-3.4	220	2	70
2026-02-12T05:17	9.4	1011	-3.2	210	2	70
2026-02-12T05:18	9.2	1011	-3.7	210	2	70
2026-02-12T05:19	9.1	1011	-4.1	210	2	70
2026-02-12T05:20	9.1	1011	-3.4	210	2	70
2026-02-12T05:21	9.3	1011	-2.9	200	2	70
2026-02-12T05:22	9.4	1011	-2.8	200	2	70
2026-02-12T05:23	9.2	1011	-3.7	200	2	70
2026-02-12T05:24	9.3	1011	-3.3	200	2	70
2026-02-12T05:25	9.3	1011	-3.3	200	2	70
2026-02-12T05:26	9.4	1011	-3.2	200	2	70
2026-02-12T05:27	9.5	1011	-3.1	190	2	70
2026-02-12T05:28	9.4	1011	-3.2	190	2	70
2026-02-12T05:29	9.6	1011	-3.0	190	2	70
2026-02-12T05:30	9.6	1011	-3.0	190	2	70
2026-02-12T05:31	9.6	1011	-3.0	200	2	70
2026-02-12T05:32	9.5	1011	-3.1	200	2	70
2026-02-12T05:33	9.4	1011	-3.2	190	2	70
2026-02-12T05:34	9.4	1011	-3.2	200	3	70
2026-02-12T05:35	9.4	1011	-3.2	190	3	70
2026-02-12T05:36	9.3	1011	-3.3	190	3	70
2026-02-12T05:37	9.2	1011	-3.7	200	3	70
2026-02-12T05:38	9.3	1011	-3.6	210	3	70
2026-02-12T05:39	9.5	1011	-3.4	210	3	70
2026-02-12T05:40	9.5	1011	-3.4	210	3	70
2026-02-12T05:41	9.5	1011	-3.4	200	3	70
2026-02-12T05:42	9.5	1011	-3.7	200	3	70
2026-02-12T05:43	9.7	1011	-3.2	200	2	70
2026-02-12T05:44	9.9	1011	-3.0	200	3	70
2026-02-12T05:45	10.0	1011	-3.3	210	3	70
2026-02-12T05:46	9.9	1011	-3.7	210	2	70
2026-02-12T05:47	9.9	1011	-3.4	210	2	70
2026-02-12T05:48	9.7	1011	-3.9	200	2	70
2026-02-12T05:49	9.5	1011	-3.7	200	2	70
2026-02-12T05:50	9.3	1011	-3.9	200	2	70
2026-02-12T05:51	9.2	1011	-4.4	210	2	70
2026-02-12T05:52	9.1	1011	-4.4	210	2	70
2026-02-12T05:53	9.1	1011	-3.8	210	2	70
2026-02-12T05:54	9.1	1011	-3.8	200	2	70
2026-02-12T05:55	9.1	1011	-3.4	200	2	70
2026-02-12T05:56	9.2	1011	-3.3	190	2	70
2026-02-12T05:57	9.4	1011	-3.5	190	2	70
2026-02-12T05:58	9.5	1011	-3.4	190	2	70
2026-02-12T05:59	9.6	1011	-3.3	190	2	70
2026-02-12T06:00	9.6	1011	-3.3	180	2	70
2026-02-12T06:01	9.5	1011	-3.7	180	2	70
2026-02-12T06:02	9.8	1011	-3.1	180	2	70
2026-02-12T06:03	10.0	1011	-3.0	170	2	70
2026-02-12T06:04	9.8	1011	-3.8	180	2	70
2026-02-12T06:05	9.7	1011	-3.9	180	2	70
2026-02-12T06:06	9.9	1011	-3.4	180	2	70
2026-02-12T06:07	9.9	1011	-3.4	180	2	70
2026-02-12T06:08	9.9	1011	-3.4	180	2	70
2026-02-12T06:09	10.1	1011	-3.2	180	2	70
2026-02-12T06:10	10.2	1011	-3.1	190	2	70
2026-02-12T06:11	9.9	1011	-3.7	200	2	70
2026-02-12T06:12	10.1	1011	-3.6	200	2	70
2026-02-12T06:13	10.0	1011	-4.0	200	2	70
2026-02-12T06:14	10.0	1011	-4.0	200	2	70
2026-02-12T06:15	9.8	1011	-4.2	200	2	70
2026-02-12T06:16	10.0	1011	-3.6	210	2	70
2026-02-12T06:17	9.9	1011	-3.7	200	2	70
2026-02-12T06:18	10.0	1011	-3.6	210	2	70
2026-02-12T06:19	10.0	1011	-3.6	210	2	70
2026-02-12T06:20	10.0	1011	-3.6	210	2	70
2026-02-12T06:21	9.9	1011	-3.7	210	2	70
2026-02-12T06:22	9.8	1011	-4.2	210	2	70
2026-02-12T06:23	9.7	1011	-3.9	220	2	70
2026-02-12T06:24	9.9	1011	-3.7	220	2	70
2026-02-12T06:25	10.1	1011	-3.2	220	2	70
2026-02-12T06:26	9.9	1011	-3.7	210	2	70
2026-02-12T06:27	9.9	1011	-3.7	220	2	70
2026-02-12T06:28	9.8	1011	-3.8	210	2	70
2026-02-12T06:29	9.8	1011	-4.2	220	3	70
2026-02-12T06:30	9.8	1011	-4.2	210	3	70
2026-02-12T06:31	9.9	1011	-4.1	210	3	70
2026-02-12T06:32	9.9	1011	-4.5	210	3	70
2026-02-12T06:33	9.9	1011	-4.1	200	3	70
2026-02-12T06:34	9.8	1011	-4.5	190	3	70
2026-02-12T06:35	9.9	1011	-4.5	190	2	70
2026-02-12T06:36	9.9	1011	-4.5	190	2	70
2026-02-12T06:37	9.8	1011	-4.2	190	2	70
2026-02-12T06:38	9.8	1011	-4.2	190	2	70
2026-02-12T06:39	9.9	1011	-4.1	180	2	70
2026-02-12T06:40	9.8	1011	-4.2	180	2	70
2026-02-12T06:41	9.8	1011	-3.8	180	2	70
2026-02-12T06:42	9.9	1011	-3.7	170	2	70
2026-02-12T06:43	9.8	1011	-3.8	170	2	70
2026-02-12T06:44	9.8	1011	-4.2	170	2	70
2026-02-12T06:45	9.8	1011	-4.2	170	2	70
2026-02-12T06:46	9.8	1011	-4.2	170	2	70
2026-02-12T06:47	9.8	1011	-4.2	170	2	70
2026-02-12T06:48	9.9	1011	-4.1	170	2	70
2026-02-12T06:49	9.9	1011	-3.7	170	2	70
2026-02-12T06:50	9.8	1011	-3.8	170	2	70
2026-02-12T06:51	9.8	1011	-3.8	170	2	70
2026-02-12T06:52	9.9	1011	-3.7	170	2	70
2026-02-12T06:53	9.8	1011	-3.5	170	2	70
2026-02-12T06:54	9.8	1011	-3.5	170	2	70
2026-02-12T06:55	9.8	1011	-3.5	170	2	70
2026-02-12T06:56	9.8	1011	-3.5	170	2	70
2026-02-12T06:57	9.9	1011	-3.4	170	2	70
2026-02-12T06:58	9.8	1011	-3.5	170	2	70
2026-02-12T06:59	9.8	1011	-3.5	170	2	70
2026-02-12T07:00	9.8	1011	-3.5	170	2	70
2026-02-12T07:01	9.9	1011	-3.4	170	2	70
2026-02-12T07:02	9.8	1011	-3.5	170	2	70
2026-02-12T07:03	9.7	1011	-3.6	170	1	70
2026-02-12T07:04	9.7	1011	-3.6	170	1	70
2026-02-12T07:05	9.6	1011	-3.7	170	1	70
2026-02-12T07:06	9.6	1011	-3.7	160	1	70
2026-02-12T07:07	9.6	1011	-3.7	160	1	70
2026-02-12T07:08	9.7	1011	-3.2	160	1	70
2026-02-12T07:09	9.7	1011	-3.2	160	2	70
2026-02-12T07:10	9.7	1011	-3.6	160	2	70
2026-02-12T07:11	9.7	1011	-3.6	160	2	70
2026-02-12T07:12	9.7	1011	-3.6	160	2	70
2026-02-12T07:13	9.7	1011	-3.6	160	2	70
2026-02-12T07:14	9.7	1011	-3.6	160	2	70
2026-02-12T07:15	9.7	1011	-3.6	160	2	70
2026-02-12T07:16	9.7	1011	-3.6	160	2	70
2026-02-12T07:17	9.7	1011	-3.6	160	2	70
2026-02-12T07:18	9.7	1011	-3.6	160	2	70
2026-02-12T07:19	9.6	1011	-3.7	160	1	70
2026-02-12T07:20	9.6	1011	-3.7	150	1	70
2026-02-12T07:21	9.7	1011	-3.6	150	1	70
2026-02-12T07:22	9.7	1011	-3.6	150	1	70
2026-02-12T07:23	9.7	1011	-3.9	150	2	70
2026-02-12T07:24	9.7	1011	-3.9	150	2	70
2026-02-12T07:25	9.6	1011	-4.0	150	2	70
2026-02-12T07:26	9.5	1011	-4.1	150	2	70
2026-02-12T07:27	9.5	1011	-4.1	150	2	70
2026-02-12T07:28	9.5	1011	-4.1	150	2	70
2026-02-12T07:29	9.4	1011	-4.2	150	2	70
2026-02-12T07:30	9.3	1011	-3.9	150	2	70
2026-02-12T07:31	9.4	1011	-4.2	150	2	70
2026-02-12T07:32	9.5	1011	-4.1	150	2	70
2026-02-12T07:33	9.4	1011	-4.2	150	2	70
2026-02-12T07:34	9.3	1011	-3.9	150	2	70
2026-02-12T07:35	9.4	1011	-4.2	150	2	70
2026-02-12T07:36	9.4	1011	-4.2	150	2	70
2026-02-12T07:37	9.4	1011	-4.2	160	2	70
2026-02-12T07:38	9.4	1011	-4.2	160	2	70
2026-02-12T07:39	9.3	1011	-3.9	160	2	70
2026-02-12T07:40	9.2	1011	-4.0	160	2	70
2026-02-12T07:41	9.2	1011	-4.0	160	2	70
2026-02-12T07:42	9.1	1011	-3.8	170	2	70
2026-02-12T07:43	9.2	1011	-3.7	180	2	70
2026-02-12T07:44	9.4	1011	-3.8	180	2	70
2026-02-12T07:45	9.3	1011	-3.9	180	2	70
2026-02-12T07:46	9.3	1011	-3.9	190	1	70
2026-02-12T07:47	9.4	1011	-3.8	190	1	70
2026-02-12T07:48	9.2	1011	-4.0	180	1	70
2026-02-12T07:49	9.2	1011	-4.0	180	1	70
2026-02-12T07:50	9.0	1011	-3.9	190	1	70
2026-02-12T07:51	9.1	1011	-3.8	190	1	70
2026-02-12T07:52	9.1	1011	-3.8	190	1	70
2026-02-12T07:53	9.2	1011	-4.0	190	1	70
2026-02-12T07:54	9.3	1011	-3.9	190	1	70
2026-02-12T07:55	9.3	1011	-3.9	190	1	70
2026-02-12T07:56	8.9	1011	-3.9	200	1	70
2026-02-12T07:57	8.6	1011	-3.9	210	1	70
2026-02-12T07:58	8.9	1011	-3.6	210	1	70
2026-02-12T07:59	9.1	1011	-3.8	220	1	70
2026-02-12T08:00	9.1	1011	-3.8	220	1	70
2026-02-12T08:01	8.8	1011	-4.0	230	1	70
2026-02-12T08:02	8.8	1011	-4.0	230	1	70
2026-02-12T08:03	8.7	1011	-3.8	230	1	70
2026-02-12T08:04	8.6	1011	-3.9	230	2	70
2026-02-12T08:05	8.8	1011	-3.7	220	2	70
2026-02-12T08:06	8.8	1011	-4.0	210	2	70
2026-02-12T08:07	8.8	1011	-3.7	210	2	70
2026-02-12T08:08	8.4	1011	-4.1	210	2	70
2026-02-12T08:09	8.6	1011	-3.9	210	2	70
2026-02-12T08:10	8.6	1011	-3.9	200	2	70
2026-02-12T08:11	8.6	1011	-3.9	200	2	70
2026-02-12T08:12	8.4	1011	-4.1	200	2	70
2026-02-12T08:13	8.5	1011	-4.0	200	2	70
2026-02-12T08:14	8.6	1011	-3.9	200	2	70
2026-02-12T08:15	8.7	1011	-3.8	210	2	70
2026-02-12T08:16	8.5	1011	-3.7	220	2	70
2026-02-12T08:17	8.3	1011	-3.8	220	2	70
2026-02-12T08:18	8.1	1011	-3.7	230	2	70
2026-02-12T08:19	8.2	1011	-3.9	230	2	70
2026-02-12T08:20	8.2	1011	-3.6	230	2	70
2026-02-12T08:21	8.5	1011	-3.7	230	2	70
2026-02-12T08:22	8.4	1011	-3.7	230	2	70
2026-02-12T08:23	8.4	1011	-3.7	230	2	70
2026-02-12T08:24	8.3	1012	-3.8	230	2	70
2026-02-12T08:25	7.9	1012	-4.2	230	2	70
2026-02-12T08:26	7.9	1012	-3.9	230	1	70
2026-02-12T08:27	8.3	1012	-3.5	230	1	70
2026-02-12T08:28	8.2	1012	-3.6	220	1	70
2026-02-12T08:29	7.8	1012	-4.0	220	1	70
2026-02-12T08:30	7.4	1012	-4.0	210	1	70
2026-02-12T08:31	7.2	1012	-3.9	210	1	70
2026-02-12T08:32	7.2	1012	-3.6	200	1	70
2026-02-12T08:33	7.6	1012	-3.6	200	1	70
2026-02-12T08:34	7.9	1012	-3.3	200	1	70
2026-02-12T08:35	7.8	1012	-3.7	190	2	70
2026-02-12T08:36	7.8	1012	-3.7	190	2	70
2026-02-12T08:37	7.8	1012	-3.7	190	2	70
2026-02-12T08:38	7.9	1012	-3.6	200	2	70
2026-02-12T08:39	8.0	1012	-3.8	200	2	70
2026-02-12T08:40	8.1	1012	-3.7	210	2	70
2026-02-12T08:41	8.0	1012	-3.8	220	2	70
2026-02-12T08:42	8.0	1012	-3.8	220	3	70
2026-02-12T08:43	7.8	1012	-4.0	220	3	70
2026-02-12T08:44	7.7	1012	-3.8	220	3	70
2026-02-12T08:45	7.7	1012	-3.8	220	3	70
2026-02-12T08:46	7.7	1012	-3.8	220	3	70
2026-02-12T08:47	7.7	1012	-3.5	220	3	70
2026-02-12T08:48	7.7	1012	-3.5	220	3	70
2026-02-12T08:49	7.6	1012	-3.6	220	3	70
2026-02-12T08:50	7.6	1012	-3.6	210	3	70
2026-02-12T08:51	7.6	1012	-3.6	210	3	70
2026-02-12T08:52	7.5	1012	-3.6	210	3	70
2026-02-12T08:53	7.5	1012	-3.6	210	3	70
2026-02-12T08:54	7.4	1012	-3.7	210	3	70
2026-02-12T08:55	7.0	1012	-3.8	220	3	70
2026-02-12T08:56	6.4	1012	-3.8	220	3	70
2026-02-12T08:57	6.3	1012	-3.6	230	3	70
2026-02-12T08:58	6.1	1012	-3.5	240	2	70
2026-02-12T08:59	6.2	1012	-3.4	240	2	70
2026-02-12T09:00	6.1	1012	-3.5	250	2	70
2026-02-12T09:01	6.1	1012	-3.5	260	2	70
2026-02-12T09:02	6.2	1012	-3.4	260	2	70
2026-02-12T09:03	6.5	1012	-3.2	260	2	70
2026-02-12T09:04	6.1	1012	-3.5	260	2	70
2026-02-12T09:05	5.2	1012	-4.1	260	2	70
2026-02-12T09:06	5.2	1012	-3.6	260	2	70
2026-02-12T09:07	5.3	1012	-3.5	260	2	70
2026-02-12T09:08	6.2	1012	-3.2	250	2	70
2026-02-12T09:09	6.5	1012	-3.2	240	2	70
2026-02-12T09:10	6.6	1012	-3.3	240	2	70
2026-02-12T09:11	6.2	1012	-4.0	240	2	70
2026-02-12T09:12	6.0	1012	-3.9	240	2	70
2026-02-12T09:13	6.0	1012	-3.9	250	2	70
2026-02-12T09:14	5.8	1012	-3.8	250	2	70
2026-02-12T09:15	5.0	1012	-4.0	250	2	70
2026-02-12T09:16	5.5	1012	-3.6	250	2	70
2026-02-12T09:17	6.0	1012	-3.4	260	2	70
2026-02-12T09:18	5.9	1012	-3.7	260	2	70
2026-02-12T09:19	5.7	1012	-3.9	270	2	70
2026-02-12T09:20	5.3	1012	-3.7	270	2	70
2026-02-12T09:21	5.9	1012	-3.4	280	2	70
2026-02-12T09:22	5.9	1012	-3.4	270	2	70
2026-02-12T09:23	5.7	1012	-3.6	270	2	70
2026-02-12T09:24	5.6	1012	-3.7	270	2	70
2026-02-12T09:25	5.6	1012	-3.7	270	2	70
2026-02-12T09:26	5.9	1012	-3.4	270	2	70
2026-02-12T09:27	5.6	1012	-3.7	270	2	70
2026-02-12T09:28	5.7	1012	-3.6	260	2	70
2026-02-12T09:29	5.9	1013	-3.7	260	2	70
2026-02-12T09:30	5.8	1013	-3.8	260	2	70
2026-02-12T09:31	5.9	1013	-3.7	260	2	70
2026-02-12T09:32	5.6	1013	-4.0	270	2	70
2026-02-12T09:33	5.5	1013	-3.8	270	2	70
2026-02-12T09:34	5.6	1013	-3.5	270	2	70
2026-02-12T09:35	5.6	1013	-3.5	270	2	70
2026-02-12T09:36	5.4	1013	-3.6	260	2	70
2026-02-12T09:37	5.7	1013	-3.4	260	2	70
2026-02-12T09:38	5.9	1013	-3.2	260	2	70
2026-02-12T09:39	6.0	1013	-3.4	260	2	70
2026-02-12T09:40	6.1	1013	-3.3	260	2	70
2026-02-12T09:41	6.0	1013	-3.6	250	2	70
2026-02-12T09:42	6.0	1013	-3.6	250	2	70
2026-02-12T09:43	5.8	1013	-3.8	250	2	70
2026-02-12T09:44	5.3	1013	-4.3	250	2	70
2026-02-12T09:45	5.9	1013	-3.7	250	1	70
2026-02-12T09:46	5.8	1013	-3.8	260	1	70
2026-02-12T09:47	5.6	1013	-4.0	260	1	70
2026-02-12T09:48	5.7	1013	-3.9	260	1	70
2026-02-12T09:49	5.3	1013	-4.0	260	1	70
2026-02-12T09:50	5.5	1013	-3.8	270	1	70
2026-02-12T09:51	5.6	1013	-3.7	270	1	70
2026-02-12T09:52	5.6	1013	-3.7	280	1	70
2026-02-12T09:53	5.5	1013	-3.8	280	1	70
2026-02-12T09:54	5.4	1013	-3.9	280	1	70
2026-02-12T09:55	5.6	1013	-3.7	280	1	70
2026-02-12T09:56	5.8	1013	-3.8	290	1	70
2026-02-12T09:57	5.5	1013	-4.1	290	1	70
2026-02-12T09:58	5.5	1013	-4.1	290	1	70
2026-02-12T09:59	5.2	1013	-4.1	290	1	70
2026-02-12T10:00	5.3	1013	-4.0	290	1	70
2026-02-12T10:01	5.5	1013	-4.1	290	1	70
2026-02-12T10:02	5.5	1013	-4.1	290	1	70
2026-02-12T10:03	5.0	1013	-4.3	290	1	70
2026-02-12T10:04	5.4	1013	-3.9	290	1	70
2026-02-12T10:05	5.5	1013	-4.1	290	1	70
2026-02-12T10:06	5.3	1013	-4.3	290	1	70
2026-02-12T10:07	4.8	1013	-4.5	290	1	70
2026-02-12T10:08	5.1	1013	-3.9	290	1	70
2026-02-12T10:09	5.6	1013	-4.0	290	1	70
2026-02-12T10:10	5.7	1013	-4.2	280	1	70
2026-02-12T10:11	5.3	1013	-4.5	280	1	70
2026-02-12T10:12	5.1	1013	-4.4	280	1	70
2026-02-12T10:13	5.6	1013	-4.3	280	2	70
2026-02-12T10:14	5.7	1013	-4.4	270	2	70
2026-02-12T10:15	5.3	1013	-4.8	270	2	70
2026-02-12T10:16	5.3	1013	-4.8	270	2	70
2026-02-12T10:17	5.4	1013	-4.7	270	2	70
2026-02-12T10:18	5.8	1013	-4.6	260	2	70
2026-02-12T10:19	5.6	1013	-4.8	260	2	70
2026-02-12T10:20	5.6	1013	-4.8	260	1	70
2026-02-12T10:21	5.6	1013	-4.8	260	1	70
2026-02-12T10:22	5.5	1013	-4.9	250	1	70
2026-02-12T10:23	4.9	1013	-5.2	250	1	70
2026-02-12T10:24	5.0	1013	-5.1	250	1	70
2026-02-12T10:25	5.5	1013	-4.9	250	1	70
2026-02-12T10:26	5.6	1013	-5.1	250	1	70
2026-02-12T10:27	5.3	1013	-5.4	250	1	70
2026-02-12T10:28	5.3	1013	-5.4	250	1	70
2026-02-12T10:29	5.3	1013	-5.4	250	2	70
2026-02-12T10:30	5.6	1013	-5.4	250	2	70
2026-02-12T10:31	5.6	1013	-5.4	250	2	70
2026-02-12T10:32	5.5	1013	-5.5	250	2	70
2026-02-12T10:33	5.6	1013	-5.4	250	2	70
2026-02-12T10:34	5.3	1013	-5.7	250	2	70
2026-02-12T10:35	5.1	1013	-5.8	250	1	70
2026-02-12T10:36	5.6	1013	-5.4	250	2	70
2026-02-12T10:37	5.5	1013	-5.8	250	2	70
2026-02-12T10:38	5.4	1013	-5.9	250	1	70
2026-02-12T10:39	4.8	1013	-6.1	250	1	70
2026-02-12T10:40	5.2	1013	-5.7	250	1	70
2026-02-12T10:41	4.9	1013	-6.0	250	1	70
2026-02-12T10:42	4.8	1013	-5.8	250	1	70
2026-02-12T10:43	4.8	1013	-5.8	250	2	70
2026-02-12T10:44	4.9	1013	-5.7	250	2	70
2026-02-12T10:45	5.1	1013	-5.5	250	2	70
2026-02-12T10:46	5.1	1013	-5.5	250	2	70
2026-02-12T10:47	5.0	1013	-5.9	250	2	70
2026-02-12T10:48	4.8	1013	-5.8	250	2	70
2026-02-12T10:49	4.7	1013	-5.9	250	2	70
2026-02-12T10:50	5.1	1013	-5.5	250	2	70
2026-02-12T10:51	5.1	1013	-5.5	250	2	70
2026-02-12T10:52	5.0	1013	-5.6	250	2	70
2026-02-12T10:53	4.9	1013	-5.7	250	2	70
2026-02-12T10:54	5.2	1013	-5.7	250	2	70
2026-02-12T10:55	5.4	1013	-5.9	250	2	70
2026-02-12T10:56	5.5	1013	-5.8	250	2	70
2026-02-12T10:57	5.3	1013	-6.0	250	2	70
2026-02-12T10:58	5.1	1013	-6.1	240	2	70
2026-02-12T10:59	4.9	1013	-6.0	240	2	70
2026-02-12T11:00	4.5	1013	-6.4	240	1	70
2026-02-12T11:01	4.4	1013	-6.2	240	1	70
2026-02-12T11:02	4.8	1013	-5.8	240	1	70
2026-02-12T11:03	4.7	1013	-5.9	240	1	70
2026-02-12T11:04	4.6	1013	-6.0	230	1	70
2026-02-12T11:05	4.6	1013	-6.0	230	1	70
2026-02-12T11:06	4.2	1013	-6.1	230	1	70
2026-02-12T11:07	3.6	1013	-6.1	230	1	70
2026-02-12T11:08	3.7	1013	-5.7	230	1	70
2026-02-12T11:09	3.8	1013	-5.4	220	1	70
2026-02-12T11:10	3.4	1013	-5.8	220	1	70
2026-02-12T11:11	3.9	1013	-5.6	220	1	70
2026-02-12T11:12	3.5	1013	-5.7	220	1	70
2026-02-12T11:13	3.4	1013	-5.8	220	1	70
2026-02-12T11:14	3.0	1013	-5.9	220	1	70
2026-02-12T11:15	2.9	1013	-5.7	210	1	70
2026-02-12T11:16	3.4	1013	-5.3	210	1	70
2026-02-12T11:17	3.1	1013	-5.5	200	1	70
2026-02-12T11:18	2.9	1013	-5.7	200	1	70
2026-02-12T11:19	3.0	1013	-5.6	200	1	70
2026-02-12T11:20	3.2	1013	-5.2	200	1	70
2026-02-12T11:21	3.0	1013	-5.4	200	1	70
2026-02-12T11:22	2.6	1013	-5.5	200	1	70
2026-02-12T11:23	1.9	1013	-5.7	190	1	70
2026-02-12T11:24	2.4	1013	-5.2	190	1	70
2026-02-12T11:25	3.1	1013	-4.6	190	0	70
2026-02-12T11:26	3.0	1013	-4.4	200	1	70
2026-02-12T11:27	2.9	1013	-4.3	200	1	70
2026-02-12T11:28	2.6	1013	-4.4	200	1	70
2026-02-12T11:29	2.5	1013	-4.5	200	0	70
2026-02-12T11:30	2.9	1013	-4.3	200	1	70
2026-02-12T11:31	2.8	1013	-4.0	200	1	70
2026-02-12T11:32	2.7	1013	-3.6	200	0	70
2026-02-12T11:33	2.9	1013	-3.6	200	0	70
2026-02-12T11:34	2.9	1013	-4.3	200	1	70
2026-02-12T11:35	2.8	1013	-4.2	210	1	70
2026-02-12T11:36	2.9	1013	-4.5	210	1	70
2026-02-12T11:37	3.1	1013	-4.8	210	1	70
2026-02-12T11:38	3.0	1013	-4.7	220	1	70
2026-02-12T11:39	3.2	1013	-4.7	220	1	70
2026-02-12T11:40	3.6	1013	-5.1	230	1	70
2026-02-12T11:41	3.5	1013	-5.4	240	1	70
2026-02-12T11:42	3.3	1013	-5.3	250	1	70
2026-02-12T11:43	3.7	1013	-5.5	260	1	70
2026-02-12T11:44	3.3	1013	-5.9	270	1	70
2026-02-12T11:45	3.2	1013	-5.7	270	0	70
2026-02-12T11:46	3.2	1013	-5.4	280	0	70
2026-02-12T11:47	3.1	1013	-5.3	290	0	70
2026-02-12T11:48	2.7	1013	-5.2	0	0	70
2026-02-12T11:49	2.7	1013	-4.9	0	0	70
2026-02-12T11:50	2.8	1013	-4.9	0	0	70
2026-02-12T11:51	2.6	1013	-5.0	0	0	70
2026-02-12T11:52	2.8	1013	-5.1	0	0	70
2026-02-12T11:53	2.9	1013	-5.0	0	0	70
2026-02-12T11:54	2.9	1013	-5.0	0	0	70
2026-02-12T11:55	2.8	1013	-4.9	0	0	70
2026-02-12T11:56	2.9	1013	-4.8	0	0	70
2026-02-12T11:57	2.9	1013	-4.8	0	0	70
2026-02-12T11:58	2.6	1013	-5.0	0	0	70
2026-02-12T11:59	2.7	1013	-4.9	0	0	70
2026-02-12T12:00	2.7	1013	-4.9	0	0	70
2026-02-12T12:01	2.7	1013	-5.2	0	0	70
2026-02-12T12:02	2.6	1013	-5.3	0	0	70
2026-02-12T12:03	2.7	1013	-5.2	280	0	70
2026-02-12T12:04	2.9	1013	-5.2	270	0	70
2026-02-12T12:05	2.6	1013	-5.5	270	0	70
2026-02-12T12:06	2.5	1013	-5.4	260	1	70
2026-02-12T12:07	2.7	1013	-5.4	260	1	70
2026-02-12T12:08	2.6	1013	-5.5	250	1	70
2026-02-12T12:09	2.3	1013	-5.6	240	1	70
2026-02-12T12:10	2.3	1013	-5.6	240	1	70
2026-02-12T12:11	2.2	1013	-5.7	240	1	70
2026-02-12T12:12	2.6	1013	-5.5	240	1	70
2026-02-12T12:13	2.8	1013	-5.6	240	1	70
2026-02-12T12:14	2.0	1013	-6.1	240	1	70
2026-02-12T12:15	1.8	1013	-5.8	250	1	70
2026-02-12T12:16	1.8	1013	-5.6	250	1	70
2026-02-12T12:17	2.0	1013	-5.6	250	1	70
2026-02-12T12:18	2.1	1013	-5.5	250	1	70
2026-02-12T12:19	2.4	1013	-5.5	260	1	70
2026-02-12T12:20	2.9	1013	-5.2	260	1	70
2026-02-12T12:21	2.2	1013	-5.9	260	1	70
2026-02-12T12:22	3.0	1013	-5.1	250	1	70
2026-02-12T12:23	3.2	1013	-5.4	250	1	70
2026-02-12T12:24	3.0	1013	-5.6	240	1	70
2026-02-12T12:25	2.9	1013	-5.7	230	1	70
2026-02-12T12:26	2.4	1013	-6.2	230	1	70
2026-02-12T12:27	2.5	1013	-5.8	220	1	70
2026-02-12T12:28	2.6	1013	-5.8	220	1	70
2026-02-12T12:29	2.8	1013	-5.8	210	1	70
2026-02-12T12:30	2.9	1013	-5.7	210	1	70
2026-02-12T12:31	2.5	1013	-6.1	220	1	70
2026-02-12T12:32	2.9	1013	-5.7	230	1	70
2026-02-12T12:33	2.7	1013	-5.7	230	1	70
2026-02-12T12:34	2.6	1013	-5.8	250	1	70
2026-02-12T12:35	2.8	1013	-5.3	260	1	70
2026-02-12T12:36	2.5	1013	-5.8	260	1	70
2026-02-12T12:37	2.1	1013	-6.0	270	1	70
2026-02-12T12:38	2.4	1013	-5.7	280	1	70
2026-02-12T12:39	2.5	1013	-5.6	280	0	70
2026-02-12T12:40	2.8	1013	-5.6	290	1	70
2026-02-12T12:41	2.7	1013	-5.7	290	1	70
2026-02-12T12:42	2.3	1013	-5.8	300	1	70
2026-02-12T12:43	2.4	1013	-5.5	310	1	70
2026-02-12T12:44	2.6	1013	-5.0	310	1	70
2026-02-12T12:45	2.5	1013	-4.9	320	1	70
2026-02-12T12:46	2.2	1013	-5.0	320	1	70
2026-02-12T12:47	2.4	1013	-5.0	330	0	70
2026-02-12T12:48	2.2	1013	-5.2	340	0	70
2026-02-12T12:49	2.0	1013	-5.2	340	0	70
2026-02-12T12:50	2.5	1013	-4.9	340	0	70
2026-02-12T12:51	2.0	1013	-4.9	340	0	70
2026-02-12T12:52	1.5	1013	-5.2	0	0	70
2026-02-12T12:53	1.8	1013	-4.9	0	0	70
2026-02-12T12:54	1.9	1013	-5.0	0	0	70
2026-02-12T12:55	1.6	1013	-5.1	0	0	70
2026-02-12T12:56	1.7	1013	-5.0	0	0	70
2026-02-12T12:57	1.7	1013	-4.8	30	0	70
2026-02-12T12:58	1.7	1013	-4.8	60	0	70
2026-02-12T12:59	1.7	1013	-5.0	90	1	70
2026-02-12T13:00	1.8	1013	-4.9	110	1	70
2026-02-12T13:01	1.5	1013	-4.8	120	1	70
2026-02-12T13:02	0.9	1013	-5.1	130	1	70
2026-02-12T13:03	1.2	1013	-4.4	130	1	70
2026-02-12T13:04	1.5	1013	-3.7	130	1	70
2026-02-12T13:05	1.3	1013	-3.7	130	1	70
2026-02-12T13:06	0.9	1013	-4.1	130	1	70
2026-02-12T13:07	0.9	1013	-3.9	130	1	70
2026-02-12T13:08	1.1	1013	-3.6	120	1	70
2026-02-12T13:09	1.2	1013	-3.5	120	1	70
2026-02-12T13:10	1.5	1013	-3.2	120	1	70
2026-02-12T13:11	1.1	1013	-3.7	110	1	70
2026-02-12T13:12	0.6	1013	-4.0	110	1	70
2026-02-12T13:13	1.3	1013	-3.6	110	1	70
2026-02-12T13:14	1.5	1013	-3.6	100	1	70
2026-02-12T13:15	1.3	1013	-3.7	100	1	70
2026-02-12T13:16	1.3	1013	-3.9	90	1	70
2026-02-12T13:17	1.2	1013	-4.0	90	1	70
2026-02-12T13:18	1.0	1013	-4.2	90	1	70
2026-02-12T13:19	1.0	1013	-4.0	90	0	70
2026-02-12T13:20	1.1	1013	-3.9	90	0	70
2026-02-12T13:21	1.1	1013	-3.7	80	0	70
2026-02-12T13:22	0.9	1013	-3.6	0	0	70
2026-02-12T13:23	0.8	1013	-3.7	0	0	70
2026-02-12T13:24	0.7	1013	-3.6	0	0	70
2026-02-12T13:25	0.7	1013	-3.8	0	0	70
2026-02-12T13:26	0.9	1013	-3.7	0	0	70
2026-02-12T13:27	1.2	1013	-3.8	0	0	70
2026-02-12T13:28	1.1	1013	-4.1	0	0	70
2026-02-12T13:29	0.9	1013	-4.3	0	0	70
2026-02-12T13:30	0.9	1013	-4.3	0	0	70
2026-02-12T13:31	0.7	1013	-4.5	0	0	70
2026-02-12T13:32	0.8	1013	-4.2	0	0	70
2026-02-12T13:33	1.2	1013	-4.2	0	0	70
2026-02-12T13:34	1.0	1013	-4.6	0	0	70
2026-02-12T13:35	0.5	1013	-4.7	0	0	70
2026-02-12T13:36	0.6	1013	-4.4	0	0	70
2026-02-12T13:37	0.9	1013	-4.3	0	0	70
2026-02-12T13:38	1.0	1013	-4.2	0	0	70
2026-02-12T13:39	0.8	1013	-4.4	0	0	70
2026-02-12T13:40	0.7	1013	-4.5	0	0	70
2026-02-12T13:41	0.6	1013	-4.6	0	0	70
2026-02-12T13:42	0.5	1013	-4.7	0	0	70
2026-02-12T13:43	0.4	1013	-4.8	0	0	70
2026-02-12T13:44	0.5	1013	-4.7	0	0	70
2026-02-12T13:45	0.8	1013	-4.4	150	0	70
2026-02-12T13:46	1.0	1013	-4.4	180	0	70
2026-02-12T13:47	0.9	1013	-4.5	200	0	70
2026-02-12T13:48	0.5	1013	-4.9	210	0	70
2026-02-12T13:49	0.2	1013	-5.2	220	1	70
2026-02-12T13:50	0.6	1013	-4.6	220	1	70
2026-02-12T13:51	0.4	1013	-4.8	220	1	70
2026-02-12T13:52	0.1	1013	-5.1	220	1	70
2026-02-12T13:53	0.2	1013	-4.8	220	1	70
2026-02-12T13:54	0.2	1013	-4.8	220	1	70
2026-02-12T13:55	0.6	1013	-4.4	210	1	70
2026-02-12T13:56	0.8	1013	-4.4	210	1	70
2026-02-12T13:57	1.1	1013	-4.3	210	1	70
2026-02-12T13:58	1.3	1013	-4.1	210	1	70
2026-02-12T13:59	1.3	1013	-4.3	210	1	70
2026-02-12T14:00	1.3	1013	-4.5	200	1	70
2026-02-12T14:01	1.3	1013	-4.5	210	1	70
2026-02-12T14:02	1.4	1013	-4.4	210	1	70
2026-02-12T14:03	1.6	1013	-4.5	210	1	70
2026-02-12T14:04	0.8	1013	-5.2	210	1	70
2026-02-12T14:05	0.5	1013	-5.1	210	1	70
2026-02-12T14:06	1.4	1013	-4.2	210	1	70
2026-02-12T14:07	1.5	1013	-4.3	220	1	70
2026-02-12T14:08	1.3	1013	-4.7	220	1	70
2026-02-12T14:09	0.7	1013	-5.1	220	1	70
2026-02-12T14:10	1.7	1013	-4.2	230	1	70
2026-02-12T14:11	1.5	1013	-4.5	230	1	70
2026-02-12T14:12	1.7	1013	-4.6	230	1	70
2026-02-12T14:13	1.7	1013	-4.6	230	1	70
2026-02-12T14:14	2.2	1013	-4.3	230	1	70
2026-02-12T14:15	1.7	1013	-5.0	240	1	70
2026-02-12T14:16	1.4	1013	-5.3	240	1	70
2026-02-12T14:17	1.9	1013	-4.8	240	1	70
2026-02-12T14:18	1.8	1013	-4.9	240	1	70
2026-02-12T14:19	2.0	1013	-4.7	240	1	70
2026-02-12T14:20	1.6	1013	-5.1	240	1	70
2026-02-12T14:21	1.6	1013	-4.9	240	0	70
2026-02-12T14:22	0.8	1013	-5.4	240	0	70
2026-02-12T14:23	0.6	1013	-5.4	0	0	70
2026-02-12T14:24	0.6	1013	-4.6	0	0	70
2026-02-12T14:25	0.5	1013	-4.5	0	0	70
2026-02-12T14:26	0.6	1013	-4.2	0	0	70
2026-02-12T14:27	0.5	1013	-4.1	190	0	70
2026-02-12T14:28	0.1	1013	-4.5	170	0	70
2026-02-12T14:29	-0.1	1013	-4.5	160	0	70
2026-02-12T14:30	0.6	1013	-3.5	140	0	70
2026-02-12T14:31	0.6	1013	-3.5	130	1	70
2026-02-12T14:32	0.9	1013	-3.4	120	1	70
2026-02-12T14:33	1.2	1013	-3.6	110	1	70
2026-02-12T14:34	0.9	1013	-4.1	100	1	70
2026-02-12T14:35	1.0	1013	-4.0	100	1	70
2026-02-12T14:36	0.2	1013	-4.6	90	1	70
2026-02-12T14:37	0.0	1013	-4.4	90	1	70
2026-02-12T14:38	0.5	1013	-3.8	80	1	70
2026-02-12T14:39	0.6	1013	-3.8	80	1	70
2026-02-12T14:40	0.4	1013	-4.0	90	1	70
2026-02-12T14:41	0.2	1013	-4.0	90	1	70
2026-02-12T14:42	0.4	1013	-4.0	90	1	70
2026-02-12T14:43	0.8	1013	-3.7	90	1	70
2026-02-12T14:44	0.7	1013	-3.9	100	1	70
2026-02-12T14:45	0.9	1013	-3.7	90	1	70
2026-02-12T14:46	0.3	1013	-4.5	90	1	70
2026-02-12T14:47	0.5	1013	-4.1	90	1	70
2026-02-12T14:48	0.7	1013	-4.1	90	1	70
2026-02-12T14:49	0.1	1013	-4.7	80	1	70
2026-02-12T14:50	-0.6	1013	-5.0	80	1	70
2026-02-12T14:51	0.0	1013	-3.9	80	1	70
2026-02-12T14:52	0.4	1013	-3.3	70	1	70
2026-02-12T14:53	0.4	1013	-3.3	70	1	70
2026-02-12T14:54	0.4	1013	-3.1	70	1	70
2026-02-12T14:55	0.3	1013	-3.2	70	1	70
2026-02-12T14:56	0.3	1013	-3.2	70	1	70
2026-02-12T14:57	0.3	1013	-3.2	70	1	70
2026-02-12T14:58	0.3	1013	-3.2	60	1	70
2026-02-12T14:59	0.3	1013	-3.1	60	1	70
2026-02-12T15:00	0.4	1013	-3.1	60	1	70
2026-02-12T15:01	0.2	1013	-3.3	60	1	70
2026-02-12T15:02	0.2	1013	-3.5	50	1	70
2026-02-12T15:03	0.0	1013	-3.5	50	1	70
2026-02-12T15:04	-0.4	1013	-3.9	40	1	70
2026-02-12T15:05	-0.4	1013	-3.7	30	1	70
2026-02-12T15:06	0.0	1013	-3.5	10	0	70
2026-02-12T15:07	-0.2	1013	-3.7	350	0	70
2026-02-12T15:08	-0.2	1013	-3.9	340	0	70
2026-02-12T15:09	-0.4	1013	-4.1	330	0	70
2026-02-12T15:10	-0.4	1013	-4.1	320	0	70
2026-02-12T15:11	-0.2	1013	-3.7	310	0	70
2026-02-12T15:12	-0.2	1013	-3.7	310	0	70
2026-02-12T15:13	-0.2	1013	-3.7	310	1	70
2026-02-12T15:14	-0.4	1013	-3.9	310	1	70
2026-02-12T15:15	-0.2	1013	-3.7	310	1	70
2026-02-12T15:16	0.0	1013	-3.7	320	1	70
2026-02-12T15:17	-0.1	1013	-4.0	320	1	70
2026-02-12T15:18	0.3	1013	-4.0	320	1	70
2026-02-12T15:19	0.0	1013	-4.2	320	1	70
2026-02-12T15:20	-0.4	1013	-4.1	320	1	70
2026-02-12T15:21	-0.2	1013	-3.7	330	1	70
2026-02-12T15:22	-0.3	1013	-3.7	330	1	70
2026-02-12T15:23	-0.3	1013	-3.5	330	1	70
2026-02-12T15:24	0.1	1013	-2.6	330	1	70
2026-02-12T15:25	-0.1	1013	-2.5	340	1	70
2026-02-12T15:26	-0.2	1013	-2.6	350	1	70
2026-02-12T15:27	-0.6	1013	-3.3	360	1	70
2026-02-12T15:28	-1.1	1013	-3.9	10	1	70
2026-02-12T15:29	-0.9	1013	-3.6	20	1	70
2026-02-12T15:30	-1.0	1013	-3.5	30	1	70
2026-02-12T15:31	-0.9	1013	-3.2	40	1	70
2026-02-12T15:32	-0.3	1013	-2.7	50	1	70
2026-02-12T15:33	0.1	1013	-2.8	60	1	70
2026-02-12T15:34	0.1	1013	-3.1	70	1	70
2026-02-12T15:35	-0.5	1013	-4.0	80	1	70
2026-02-12T15:36	0.0	1013	-3.4	80	1	70
2026-02-12T15:37	-0.1	1013	-3.5	90	1	70
2026-02-12T15:38	-0.1	1013	-3.8	90	1	70
2026-02-12T15:39	-0.2	1013	-3.9	100	1	70
2026-02-12T15:40	-0.6	1013	-4.1	100	1	70
2026-02-12T15:41	-0.4	1013	-3.7	110	1	70
2026-02-12T15:42	-0.1	1013	-3.5	110	1	70
2026-02-12T15:43	0.2	1013	-3.2	120	1	70
2026-02-12T15:44	-0.3	1013	-3.8	120	1	70
2026-02-12T15:45	-0.5	1013	-4.2	120	1	70
2026-02-12T15:46	-0.5	1013	-3.8	120	1	70
2026-02-12T15:47	-0.6	1013	-3.9	120	1	70
2026-02-12T15:48	-0.6	1013	-3.9	120	1	70
2026-02-12T15:49	-0.6	1013	-3.9	120	1	70
2026-02-12T15:50	-0.8	1013	-4.1	120	1	70
2026-02-12T15:51	-0.7	1013	-4.0	130	0	70
2026-02-12T15:52	-0.6	1013	-3.9	130	0	70
2026-02-12T15:53	-0.8	1013	-4.1	130	0	70
2026-02-12T15:54	-0.6	1013	-3.8	130	0	70
2026-02-12T15:55	-0.6	1013	-3.6	0	0	70
2026-02-12T15:56	-0.6	1013	-3.8	0	0	70
2026-02-12T15:57	-0.6	1013	-3.8	0	0	70
2026-02-12T15:58	-0.5	1013	-3.8	0	0	70
2026-02-12T15:59	-0.4	1013	-3.9	0	0	70
2026-02-12T16:00	-0.8	1013	-4.3	0	0	70
2026-02-12T16:01	-0.9	1013	-4.2	0	0	70
2026-02-12T16:02	-1.0	1013	-4.3	0	0	70
2026-02-12T16:03	-1.1	1013	-4.4	0	0	70
2026-02-12T16:04	-1.1	1013	-4.3	0	0	70
2026-02-12T16:05	-1.0	1013	-4.0	0	0	70
2026-02-12T16:06	-0.7	1013	-3.7	0	0	70
2026-02-12T16:07	-0.7	1013	-3.9	0	0	70
2026-02-12T16:08	-0.6	1013	-3.8	0	0	70
2026-02-12T16:09	-0.6	1013	-3.9	0	0	70
2026-02-12T16:10	-0.6	1013	-3.9	0	0	70
2026-02-12T16:11	-0.8	1013	-4.1	0	0	70
2026-02-12T16:12	-1.0	1013	-4.3	140	0	70
2026-02-12T16:13	-0.9	1013	-4.1	140	0	70
2026-02-12T16:14	-0.9	1013	-4.1	140	0	70
2026-02-12T16:15	-0.8	1013	-4.0	140	1	70
2026-02-12T16:16	-0.8	1013	-4.0	140	1	70
2026-02-12T16:17	-1.0	1013	-4.0	140	1	70
2026-02-12T16:18	-1.1	1013	-4.1	140	1	70
2026-02-12T16:19	-1.1	1013	-4.1	140	1	70
2026-02-12T16:20	-1.1	1013	-3.9	140	1	70
2026-02-12T16:21	-1.2	1013	-4.0	140	1	70
2026-02-12T16:22	-1.3	1013	-4.1	140	1	70
2026-02-12T16:23	-1.2	1013	-3.9	140	1	70
2026-02-12T16:24	-1.3	1013	-4.0	130	1	70
2026-02-12T16:25	-1.4	1013	-4.1	130	0	70
2026-02-12T16:26	-1.2	1013	-3.7	120	0	70
2026-02-12T16:27	-1.1	1013	-3.6	120	0	70
2026-02-12T16:28	-1.1	1013	-3.6	110	0	70
2026-02-12T16:29	-0.9	1013	-3.4	100	0	70
2026-02-12T16:30	-1.0	1013	-4.0	90	0	70
2026-02-12T16:31	-1.1	1013	-4.1	80	0	70
2026-02-12T16:32	-1.1	1013	-4.1	0	0	70
2026-02-12T16:33	-1.1	1013	-3.9	0	0	70
2026-02-12T16:34	-1.3	1013	-4.1	0	0	70
2026-02-12T16:35	-1.6	1013	-4.6	150	0	70
2026-02-12T16:36	-1.5	1013	-4.5	200	0	70
2026-02-12T16:37	-1.8	1013	-4.9	210	0	70
2026-02-12T16:38	-1.9	1013	-5.0	160	0	70
2026-02-12T16:39	-1.4	1013	-4.2	180	1	70
2026-02-12T16:40	-1.1	1013	-4.1	180	1	70
2026-02-12T16:41	-1.3	1013	-4.5	180	1	70
2026-02-12T16:42	-1.9	1013	-5.2	180	1	70
2026-02-12T16:43	-1.8	1013	-4.9	180	1	70
2026-02-12T16:44	-1.5	1013	-4.2	180	1	70
2026-02-12T16:45	-1.5	1013	-3.8	170	0	70
2026-02-12T16:46	-1.7	1013	-4.0	170	0	70
2026-02-12T16:47	-1.6	1013	-4.1	160	0	70
2026-02-12T16:48	-1.5	1013	-4.0	0	0	70
2026-02-12T16:49	-1.4	1013	-3.9	0	0	70
2026-02-12T16:50	-1.5	1013	-4.0	0	0	70
2026-02-12T16:51	-1.5	1013	-4.2	0	0	70
2026-02-12T16:52	-1.6	1013	-4.4	290	0	70
2026-02-12T16:53	-1.9	1013	-4.5	320	0	70
2026-02-12T16:54	-1.8	1013	-4.3	270	1	70
2026-02-12T16:55	-1.7	1013	-4.0	290	1	70
2026-02-12T16:56	-1.6	1013	-3.9	300	1	70
2026-02-12T16:57	-1.4	1013	-3.9	300	1	70
2026-02-12T16:58	-1.4	1013	-4.1	310	1	70
2026-02-12T16:59	-1.8	1013	-4.6	320	1	70
2026-02-12T17:00	-1.7	1013	-4.3	330	1	70
2026-02-12T17:01	-1.5	1013	-4.0	330	1	70
2026-02-12T17:02	-1.5	1013	-4.2	320	0	70
2026-02-12T17:03	-1.6	1013	-4.3	320	0	70
2026-02-12T17:04	-1.4	1013	-4.1	0	0	70
2026-02-12T17:05	-1.5	1013	-4.2	0	0	70
2026-02-12T17:06	-1.5	1013	-4.2	0	0	70
2026-02-12T17:07	-1.3	1013	-4.1	0	0	70
2026-02-12T17:08	-1.3	1013	-4.1	0	0	70
2026-02-12T17:09	-1.4	1013	-4.4	0	0	70
2026-02-12T17:10	-1.8	1013	-4.8	0	0	70
2026-02-12T17:11	-1.6	1013	-4.4	0	0	70
2026-02-12T17:12	-1.3	1013	-4.1	0	0	70
2026-02-12T17:13	-1.3	1013	-4.3	0	0	70
2026-02-12T17:14	-1.4	1013	-4.4	0	0	70
2026-02-12T17:15	-1.3	1013	-4.3	0	0	70
2026-02-12T17:16	-1.6	1013	-4.6	0	0	70
2026-02-12T17:17	-1.7	1013	-4.7	0	0	70
2026-02-12T17:18	-1.9	1013	-4.9	0	0	70
2026-02-12T17:19	-1.8	1013	-4.6	0	0	70
2026-02-12T17:20	-1.7	1013	-4.3	290	0	70
2026-02-12T17:21	-1.6	1013	-4.4	270	0	70
2026-02-12T17:22	-1.6	1013	-4.4	250	0	70
2026-02-12T17:23	-1.7	1013	-4.5	220	0	70
2026-02-12T17:24	-1.9	1013	-4.7	200	0	70
2026-02-12T17:25	-2.0	1013	-4.8	210	0	70
2026-02-12T17:26	-1.8	1013	-4.4	40	0	70
2026-02-12T17:27	-1.7	1013	-4.3	220	0	70
2026-02-12T17:28	-1.7	1013	-4.3	240	0	70
2026-02-12T17:29	-1.6	1013	-4.3	0	0	70
2026-02-12T17:30	-1.8	1013	-4.6	0	0	70
2026-02-12T17:31	-1.9	1013	-4.7	0	0	70
2026-02-12T17:32	-1.8	1013	-4.4	0	0	70
2026-02-12T17:33	-1.8	1013	-4.4	0	0	70
2026-02-12T17:34	-1.7	1013	-4.3	0	0	70
2026-02-12T17:35	-1.7	1013	-4.2	0	0	70
2026-02-12T17:36	-1.6	1013	-4.1	0	0	70
2026-02-12T17:37	-1.7	1013	-4.3	0	0	70
2026-02-12T17:38	-1.7	1013	-4.3	0	0	70
2026-02-12T17:39	-1.9	1013	-4.7	0	0	70
2026-02-12T17:40	-1.7	1013	-4.3	0	0	70
2026-02-12T17:41	-1.6	1013	-4.3	0	0	70
2026-02-12T17:42	-1.6	1013	-4.3	0	0	70
2026-02-12T17:43	-1.7	1013	-4.5	0	0	70
2026-02-12T17:44	-1.7	1013	-4.5	310	0	70
2026-02-12T17:45	-1.7	1013	-4.3	320	1	70
2026-02-12T17:46	-1.8	1013	-4.4	330	1	70
2026-02-12T17:47	-1.7	1013	-4.5	340	1	70
2026-02-12T17:48	-1.8	1013	-4.6	360	1	70
2026-02-12T17:49	-1.8	1013	-4.4	10	1	70
2026-02-12T17:50	-1.9	1013	-4.4	20	1	70
2026-02-12T17:51	-1.7	1013	-4.2	20	1	70
2026-02-12T17:52	-1.8	1013	-4.4	30	1	70
2026-02-12T17:53	-1.6	1013	-4.3	40	1	70
2026-02-12T17:54	-1.5	1013	-4.2	40	1	70
2026-02-12T17:55	-1.7	1013	-4.3	40	1	70
2026-02-12T17:56	-1.6	1013	-4.3	40	1	70
2026-02-12T17:57	-2.0	1013	-4.8	30	1	70
2026-02-12T17:58	-2.3	1013	-4.9	20	1	70
2026-02-12T17:59	-2.1	1013	-4.6	20	1	70
2026-02-12T18:00	-1.9	1013	-4.2	20	0	70
2026-02-12T18:01	-1.9	1013	-4.2	20	0	70
2026-02-12T18:02	-2.0	1013	-4.3	10	0	70
2026-02-12T18:03	-2.0	1013	-4.3	10	0	70
2026-02-12T18:04	-1.9	1013	-4.2	10	1	70
2026-02-12T18:05	-1.8	1013	-4.1	10	0	70
2026-02-12T18:06	-1.9	1013	-4.2	10	1	70
2026-02-12T18:07	-1.9	1013	-4.2	10	1	70
2026-02-12T18:08	-2.0	1013	-4.5	10	1	70
2026-02-12T18:09	-2.0	1013	-4.3	360	1	70
2026-02-12T18:10	-1.7	1013	-4.2	360	1	70
2026-02-12T18:11	-1.8	1013	-4.3	360	1	70
2026-02-12T18:12	-1.8	1013	-4.3	360	1	70
2026-02-12T18:13	-1.5	1013	-4.0	10	1	70
2026-02-12T18:14	-1.8	1013	-4.4	10	1	70
2026-02-12T18:15	-1.8	1013	-4.4	10	1	70
2026-02-12T18:16	-2.2	1013	-5.0	10	1	70
2026-02-12T18:17	-2.1	1013	-4.7	10	1	70
2026-02-12T18:18	-2.0	1013	-4.5	10	1	70
2026-02-12T18:19	-1.9	1013	-4.2	360	1	70
2026-02-12T18:20	-2.1	1013	-4.4	360	1	70
2026-02-12T18:21	-2.1	1013	-4.1	360	1	70
2026-02-12T18:22	-2.0	1013	-4.0	360	1	70
2026-02-12T18:23	-2.0	1013	-4.0	350	1	70
2026-02-12T18:24	-1.9	1013	-4.1	340	1	70
2026-02-12T18:25	-1.8	1013	-4.0	340	1	70
2026-02-12T18:26	-1.9	1013	-4.2	340	1	70
2026-02-12T18:27	-2.0	1013	-4.3	340	1	70
2026-02-12T18:28	-1.7	1013	-4.0	340	1	70
2026-02-12T18:29	-1.9	1013	-4.2	340	1	70
2026-02-12T18:30	-1.8	1013	-4.1	330	1	70
2026-02-12T18:31	-1.9	1013	-4.2	330	1	70
2026-02-12T18:32	-2.2	1013	-4.5	330	1	70
2026-02-12T18:33	-2.4	1013	-4.6	330	1	70
2026-02-12T18:34	-2.1	1013	-4.1	330	1	70
2026-02-12T18:35	-2.2	1013	-4.1	330	1	70
2026-02-12T18:36	-2.3	1013	-4.2	320	1	70
2026-02-12T18:37	-2.1	1013	-3.8	320	1	70
2026-02-12T18:38	-1.9	1013	-3.8	320	1	70
2026-02-12T18:39	-2.1	1013	-4.1	320	1	70
2026-02-12T18:40	-2.2	1013	-4.2	320	1	70
2026-02-12T18:41	-2.1	1013	-4.0	320	1	70
2026-02-12T18:42	-2.0	1013	-3.7	320	1	70
2026-02-12T18:43	-1.9	1013	-3.8	320	1	70
2026-02-12T18:44	-2.0	1013	-4.0	320	1	70
2026-02-12T18:45	-2.0	1013	-4.2	320	1	70
2026-02-12T18:46	-2.1	1013	-4.1	310	1	70
2026-02-12T18:47	-2.4	1013	-4.4	310	1	70
2026-02-12T18:48	-2.4	1013	-4.4	310	1	69
2026-02-12T18:49	-2.3	1013	-4.0	310	1	70
2026-02-12T18:50	-2.3	1013	-4.0	310	1	70
2026-02-12T18:51	-2.2	1013	-3.9	310	1	70
2026-02-12T18:52	-2.0	1013	-3.7	310	1	70
2026-02-12T18:53	-1.8	1013	-3.7	310	1	70
2026-02-12T18:54	-1.8	1013	-3.8	300	1	70
2026-02-12T18:55	-1.9	1013	-4.1	300	1	70
2026-02-12T18:56	-1.7	1013	-4.0	290	1	70
2026-02-12T18:57	-2.1	1013	-4.6	290	1	70
2026-02-12T18:58	-2.2	1013	-4.8	280	1	70
2026-02-12T18:59	-2.1	1013	-4.6	270	1	70
2026-02-12T19:00	-2.0	1013	-4.5	270	1	70
2026-02-12T19:01	-1.8	1013	-4.3	270	1	70
2026-02-12T19:02	-1.8	1013	-4.3	270	1	70
2026-02-12T19:03	-1.6	1013	-4.3	270	1	70
2026-02-12T19:04	-1.7	1013	-4.3	270	1	70
2026-02-12T19:05	-1.6	1013	-4.3	270	1	70
2026-02-12T19:06	-1.7	1013	-4.5	280	1	70
2026-02-12T19:07	-1.9	1013	-4.5	280	1	70
2026-02-12T19:08	-2.2	1013	-4.5	290	1	70
2026-02-12T19:09	-2.1	1013	-4.1	290	1	70
2026-02-12T19:10	-1.7	1013	-3.7	290	1	70
2026-02-12T19:11	-1.7	1013	-3.9	290	1	70
2026-02-12T19:12	-1.9	1013	-4.2	280	1	70
2026-02-12T19:13	-1.8	1013	-4.1	280	1	70
2026-02-12T19:14	-1.7	1013	-4.0	280	1	70
2026-02-12T19:15	-1.7	1013	-4.2	270	1	70
2026-02-12T19:16	-1.9	1013	-4.4	270	1	70
2026-02-12T19:17	-2.0	1013	-4.5	270	1	70
2026-02-12T19:18	-1.9	1013	-4.4	270	1	70
2026-02-12T19:19	-2.0	1013	-4.3	260	1	70
2026-02-12T19:20	-2.0	1013	-4.3	260	1	70
2026-02-12T19:21	-2.1	1013	-4.4	260	1	70
2026-02-12T19:22	-2.1	1013	-4.4	260	1	70
2026-02-12T19:23	-1.9	1013	-4.1	260	1	70
2026-02-12T19:24	-1.8	1013	-4.0	270	1	70
2026-02-12T19:25	-1.8	1013	-4.0	270	1	70
2026-02-12T19:26	-1.9	1013	-4.1	270	1	70
2026-02-12T19:27	-2.0	1013	-4.2	260	1	70
2026-02-12T19:28	-2.0	1013	-4.0	260	1	70
2026-02-12T19:29	-1.9	1013	-4.1	260	1	70
2026-02-12T19:30	-2.0	1013	-4.3	260	1	70
2026-02-12T19:31	-2.0	1013	-4.3	250	1	70
2026-02-12T19:32	-1.9	1013	-4.2	250	1	70
2026-02-12T19:33	-1.8	1013	-4.1	250	1	70
2026-02-12T19:34	-1.9	1013	-4.4	250	1	70
2026-02-12T19:35	-1.8	1013	-4.3	250	1	70
2026-02-12T19:36	-1.8	1013	-4.3	250	1	70
2026-02-12T19:37	-1.7	1013	-4.2	250	1	70
2026-02-12T19:38	-1.6	1013	-4.3	250	1	70
2026-02-12T19:39	-1.7	1013	-4.3	250	1	70
2026-02-12T19:40	-1.6	1013	-4.3	250	1	70
2026-02-12T19:41	-2.0	1013	-4.6	250	1	70
2026-02-12T19:42	-1.9	1013	-4.5	250	1	70
2026-02-12T19:43	-1.8	1013	-4.3	250	1	70
2026-02-12T19:44	-1.6	1013	-4.3	250	1	70
2026-02-12T19:45	-1.7	1013	-4.5	250	1	70
2026-02-12T19:46	-1.7	1013	-4.5	250	1	70
2026-02-12T19:47	-1.7	1013	-4.5	250	1	70
2026-02-12T19:48	-1.8	1013	-4.6	240	1	70
2026-02-12T19:49	-1.8	1013	-4.6	240	1	70
2026-02-12T19:50	-1.9	1013	-4.7	240	1	70
2026-02-12T19:51	-1.9	1013	-4.5	240	1	70
2026-02-12T19:52	-1.7	1013	-4.3	240	1	70
2026-02-12T19:53	-1.8	1013	-4.6	240	1	70
2026-02-12T19:54	-2.1	1013	-4.9	230	1	70
2026-02-12T19:55	-2.2	1013	-5.0	230	1	70
2026-02-12T19:56	-2.0	1013	-4.6	240	1	70
2026-02-12T19:57	-2.0	1013	-4.6	240	1	70
2026-02-12T19:58	-2.0	1013	-4.6	240	1	70
2026-02-12T19:59	-1.9	1013	-4.5	240	1	70
2026-02-12T20:00	-1.8	1013	-4.4	240	1	70
2026-02-12T20:01	-1.6	1013	-4.4	250	1	70
2026-02-12T20:02	-1.7	1013	-4.5	250	1	70
2026-02-12T20:03	-1.9	1013	-4.7	260	1	70
2026-02-12T20:04	-1.9	1013	-4.2	260	1	70
2026-02-12T20:05	-1.8	1013	-3.8	260	1	70
2026-02-12T20:06	-1.8	1013	-4.0	260	1	70
2026-02-12T20:07	-2.1	1013	-4.4	260	1	69
2026-02-12T20:08	-2.4	1013	-4.9	260	1	69
2026-02-12T20:09	-2.0	1013	-4.5	260	1	69
2026-02-12T20:10	-1.7	1013	-4.2	260	1	69
2026-02-12T20:11	-1.5	1013	-4.2	260	1	69
2026-02-12T20:12	-1.6	1013	-4.4	250	1	69
2026-02-12T20:13	-1.8	1013	-4.6	250	1	70
2026-02-12T20:14	-1.8	1013	-4.6	240	1	70
2026-02-12T20:15	-1.9	1013	-4.7	240	1	70
2026-02-12T20:16	-2.1	1013	-4.9	240	1	70
2026-02-12T20:17	-2.1	1013	-4.9	240	1	70
2026-02-12T20:18	-2.2	1013	-4.8	240	1	70
2026-02-12T20:19	-2.1	1013	-4.7	240	1	70
2026-02-12T20:20	-2.2	1013	-4.8	240	1	70
2026-02-12T20:21	-2.0	1013	-4.5	240	1	70
2026-02-12T20:22	-1.8	1013	-4.3	250	1	70
2026-02-12T20:23	-1.9	1013	-4.5	250	1	70
2026-02-12T20:24	-2.2	1013	-4.8	260	1	70
2026-02-12T20:25	-2.1	1013	-4.7	270	1	70
2026-02-12T20:26	-1.9	1013	-4.4	270	1	70
2026-02-12T20:27	-1.7	1013	-4.2	280	0	70
2026-02-12T20:28	-1.7	1013	-4.3	290	0	70
2026-02-12T20:29	-1.7	1013	-4.2	0	0	70
2026-02-12T20:30	-1.8	1013	-4.3	0	0	70
2026-02-12T20:31	-1.8	1013	-4.1	0	0	70
2026-02-12T20:32	-1.9	1014	-4.2	0	0	70
2026-02-12T20:33	-1.8	1014	-4.0	0	0	69
2026-02-12T20:34	-1.7	1014	-3.9	0	0	69
2026-02-12T20:35	-1.8	1014	-4.1	0	0	69
2026-02-12T20:36	-2.0	1014	-4.3	0	0	69
2026-02-12T20:37	-2.0	1014	-4.3	0	0	69
2026-02-12T20:38	-1.9	1014	-4.1	0	0	68
2026-02-12T20:39	-1.8	1014	-3.8	0	0	69
2026-02-12T20:40	-1.7	1014	-4.0	0	0	69
2026-02-12T20:41	-1.9	1014	-4.2	0	0	69
2026-02-12T20:42	-2.1	1014	-4.4	0	0	70
2026-02-12T20:43	-2.1	1014	-4.4	0	0	70
2026-02-12T20:44	-2.1	1014	-4.4	0	0	70
2026-02-12T20:45	-2.2	1014	-4.4	0	0	70
2026-02-12T20:46	-2.3	1014	-4.5	350	0	69
2026-02-12T20:47	-2.3	1014	-4.5	360	0	69
2026-02-12T20:48	-2.4	1014	-4.4	360	1	69
2026-02-12T20:49	-2.4	1014	-4.4	360	1	68
2026-02-12T20:50	-2.3	1014	-4.3	360	1	68
2026-02-12T20:51	-2.0	1014	-4.2	10	1	68
2026-02-12T20:52	-2.0	1014	-4.2	10	1	68
2026-02-12T20:53	-2.2	1014	-4.5	10	1	68
2026-02-12T20:54	-1.9	1014	-4.2	20	1	68
2026-02-12T20:55	-1.6	1014	-3.9	20	1	68
2026-02-12T20:56	-1.8	1014	-4.1	20	1	69
2026-02-12T20:57	-1.7	1014	-4.2	20	1	69
2026-02-12T20:58	-1.6	1014	-4.1	20	1	69
2026-02-12T20:59	-2.3	1014	-4.8	20	1	69
2026-02-12T21:00	-2.3	1014	-4.6	10	1	69
2026-02-12T21:01	-2.0	1014	-4.3	10	1	69
2026-02-12T21:02	-1.6	1014	-3.9	10	1	69
2026-02-12T21:03	-1.9	1014	-4.4	10	1	69
2026-02-12T21:04	-2.0	1014	-4.5	360	1	69
2026-02-12T21:05	-2.4	1014	-4.9	360	1	68
2026-02-12T21:06	-2.4	1014	-4.7	360	1	68
2026-02-12T21:07	-2.2	1014	-4.4	350	1	68
2026-02-12T21:08	-2.2	1014	-4.4	350	1	68
2026-02-12T21:09	-2.6	1014	-4.9	350	1	68
2026-02-12T21:10	-2.4	1014	-4.6	340	1	68
2026-02-12T21:11	-2.3	1014	-4.5	340	1	68
2026-02-12T21:12	-2.4	1014	-4.6	340	1	68
2026-02-12T21:13	-2.6	1014	-4.8	330	1	68
2026-02-12T21:14	-2.4	1014	-4.4	330	1	68
2026-02-12T21:15	-2.6	1014	-4.6	330	1	68
2026-02-12T21:16	-2.7	1014	-4.5	320	1	68
2026-02-12T21:17	-2.6	1014	-4.4	320	1	68
2026-02-12T21:18	-2.5	1014	-4.3	320	1	68
2026-02-12T21:19	-2.3	1014	-4.2	310	1	68
2026-02-12T21:20	-2.2	1014	-4.1	310	1	68
2026-02-12T21:21	-2.5	1014	-4.5	300	1	68
2026-02-12T21:22	-2.9	1014	-4.9	310	1	68
2026-02-12T21:23	-3.1	1014	-5.1	310	1	68
2026-02-12T21:24	-2.8	1014	-4.5	310	1	68
2026-02-12T21:25	-2.6	1014	-4.3	300	1	68
2026-02-12T21:26	-2.7	1014	-4.4	300	1	68
2026-02-12T21:27	-2.7	1014	-4.4	290	1	67
2026-02-12T21:28	-2.5	1014	-4.3	280	1	67
2026-02-12T21:29	-2.5	1014	-4.5	270	1	67
2026-02-12T21:30	-2.5	1014	-4.5	260	1	67
2026-02-12T21:31	-2.5	1014	-4.7	250	1	67
2026-02-12T21:32	-2.5	1014	-4.7	250	1	67
2026-02-12T21:33	-3.1	1014	-5.4	240	1	67
2026-02-12T21:34	-2.9	1014	-5.0	240	1	67
2026-02-12T21:35	-2.7	1014	-4.7	240	1	68
2026-02-12T21:36	-2.6	1014	-4.6	240	1	68
2026-02-12T21:37	-2.3	1014	-4.2	240	1	68
2026-02-12T21:38	-2.5	1014	-4.5	250	1	68
2026-02-12T21:39	-2.6	1014	-4.8	250	1	68
2026-02-12T21:40	-2.4	1014	-4.4	250	1	68
2026-02-12T21:41	-2.2	1014	-4.2	250	1	68
2026-02-12T21:42	-2.7	1014	-4.9	250	1	68
2026-02-12T21:43	-2.8	1014	-5.1	250	1	68
2026-02-12T21:44	-2.6	1014	-4.8	250	1	68
2026-02-12T21:45	-2.5	1014	-4.5	250	1	68
2026-02-12T21:46	-2.6	1014	-4.6	250	1	68
2026-02-12T21:47	-2.5	1014	-4.5	260	1	67
2026-02-12T21:48	-2.4	1014	-4.4	260	1	67
2026-02-12T21:49	-2.1	1014	-4.3	260	1	68
2026-02-12T21:50	-2.3	1014	-4.6	260	1	67
2026-02-12T21:51	-2.1	1014	-4.4	260	1	67
2026-02-12T21:52	-2.2	1014	-4.5	260	1	67
2026-02-12T21:53	-2.5	1014	-4.8	260	1	68
2026-02-12T21:54	-2.4	1014	-4.7	250	1	67
2026-02-12T21:55	-2.5	1014	-4.8	250	1	67
2026-02-12T21:56	-2.4	1014	-4.7	250	1	67
2026-02-12T21:57	-2.3	1014	-4.6	250	1	68
2026-02-12T21:58	-2.0	1014	-4.3	250	1	68
2026-02-12T21:59	-2.2	1014	-4.5	250	1	68
2026-02-12T22:00	-2.3	1014	-4.8	250	1	68
2026-02-12T22:01	-1.9	1014	-4.2	250	1	68
2026-02-12T22:02	-2.0	1014	-4.5	250	1	68
2026-02-12T22:03	-2.1	1014	-4.6	260	1	68
2026-02-12T22:04	-2.2	1014	-4.7	260	1	68
2026-02-12T22:05	-2.0	1014	-4.5	270	1	69
2026-02-12T22:06	-2.0	1014	-4.3	280	1	69
2026-02-12T22:07	-2.1	1014	-4.4	290	1	69
2026-02-12T22:08	-1.9	1014	-4.1	290	0	68
2026-02-12T22:09	-1.7	1014	-4.0	300	0	68
2026-02-12T22:10	-1.7	1014	-4.0	310	0	68
2026-02-12T22:11	-1.7	1014	-3.9	310	0	68
2026-02-12T22:12	-1.7	1014	-3.9	320	0	68
2026-02-12T22:13	-1.8	1014	-4.0	330	0	68
2026-02-12T22:14	-1.8	1014	-4.0	330	0	68
2026-02-12T22:15	-1.9	1014	-4.1	340	0	68
2026-02-12T22:16	-1.8	1014	-4.0	340	1	68
2026-02-12T22:17	-1.9	1014	-4.2	340	1	68
2026-02-12T22:18	-1.8	1014	-4.1	340	1	68
2026-02-12T22:19	-1.7	1014	-4.0	350	1	68
2026-02-12T22:20	-1.5	1014	-3.8	350	1	69
2026-02-12T22:21	-1.5	1014	-4.0	350	1	69
2026-02-12T22:22	-1.5	1014	-4.0	350	1	69
2026-02-12T22:23	-1.3	1014	-4.0	340	1	70
2026-02-12T22:24	-1.3	1014	-4.0	330	1	70
2026-02-12T22:25	-1.1	1014	-3.6	320	1	70
2026-02-12T22:26	-0.8	1014	-3.5	300	1	70
2026-02-12T22:27	-0.6	1014	-3.4	280	1	69
2026-02-12T22:28	-0.9	1014	-3.9	260	1	69
2026-02-12T22:29	-1.1	1014	-4.1	240	1	69
2026-02-12T22:30	-1.1	1014	-4.1	230	1	69
2026-02-12T22:31	-1.1	1014	-4.1	220	1	69
2026-02-12T22:32	-0.9	1014	-4.1	220	1	69
2026-02-12T22:33	-0.8	1014	-4.0	220	1	69
2026-02-12T22:34	-0.8	1014	-4.0	220	1	69
2026-02-12T22:35	-0.7	1014	-4.0	220	1	69
2026-02-12T22:36	-0.8	1014	-4.0	220	1	69
2026-02-12T22:37	-0.7	1014	-4.0	220	0	69
2026-02-12T22:38	-0.6	1014	-3.9	230	0	70
2026-02-12T22:39	-0.6	1014	-3.8	240	0	69
2026-02-12T22:40	-0.7	1014	-3.9	250	0	70
2026-02-12T22:41	-0.7	1014	-3.9	260	1	70
2026-02-12T22:42	-0.8	1014	-4.0	280	1	70
2026-02-12T22:43	-0.8	1014	-4.1	300	1	70
2026-02-12T22:44	-1.0	1014	-4.3	310	1	70
2026-02-12T22:45	-1.0	1014	-4.2	320	1	70
2026-02-12T22:46	-1.0	1014	-4.2	330	1	70
2026-02-12T22:47	-0.9	1014	-4.1	340	1	70
2026-02-12T22:48	-0.8	1014	-4.0	350	1	70
2026-02-12T22:49	-0.8	1014	-4.0	350	1	70
2026-02-12T22:50	-0.9	1014	-4.1	350	2	70
2026-02-12T22:51	-0.8	1014	-3.8	360	2	70
2026-02-12T22:52	-0.4	1014	-3.6	360	2	70
2026-02-12T22:53	-0.3	1014	-3.7	360	2	70
2026-02-12T22:54	-0.5	1014	-3.8	360	2	70
2026-02-12T22:55	-0.4	1014	-3.6	10	2	70
2026-02-12T22:56	-0.1	1014	-3.3	10	2	70
2026-02-12T22:57	0.3	1014	-3.1	10	2	70
2026-02-12T22:58	0.5	1014	-3.0	10	2	70
2026-02-12T22:59	0.6	1014	-3.1	10	2	69
2026-02-12T23:00	0.4	1014	-3.3	10	2	70
2026-02-12T23:01	0.2	1014	-3.5	360	2	70
2026-02-12T23:02	0.2	1014	-3.3	360	2	69
2026-02-12T23:03	0.3	1014	-3.4	360	2	69
2026-02-12T23:04	0.4	1014	-3.1	360	2	69
2026-02-12T23:05	0.6	1014	-3.3	360	2	70
2026-02-12T23:06	0.4	1014	-3.5	360	2	70
2026-02-12T23:07	0.6	1014	-3.3	360	2	70
2026-02-12T23:08	0.8	1014	-3.1	360	2	70
2026-02-12T23:09	1.0	1014	-3.1	360	2	70
2026-02-12T23:10	1.1	1014	-3.2	360	2	70
2026-02-12T23:11	1.2	1014	-3.1	360	2	70
2026-02-12T23:12	1.2	1014	-3.3	360	2	70
2026-02-12T23:13	1.3	1014	-3.2	10	2	70
2026-02-12T23:14	1.3	1014	-3.4	10	2	70
2026-02-12T23:15	1.0	1014	-3.3	10	1	70
2026-02-12T23:16	1.2	1014	-3.3	10	1	70
2026-02-12T23:17	1.3	1014	-3.2	10	1	70
2026-02-12T23:18	1.4	1014	-3.3	20	1	69
2026-02-12T23:19	1.3	1014	-3.2	20	1	68
2026-02-12T23:20	1.5	1014	-3.2	20	1	68
2026-02-12T23:21	1.6	1014	-3.3	30	1	67
2026-02-12T23:22	1.6	1014	-3.3	40	1	67
2026-02-12T23:23	1.6	1014	-3.1	50	1	67
2026-02-12T23:24	1.7	1014	-3.2	60	1	67
2026-02-12T23:25	1.7	1014	-3.0	90	1	66
2026-02-12T23:26	1.7	1014	-3.0	130	1	66
2026-02-12T23:27	1.9	1014	-2.8	140	1	66
2026-02-12T23:28	1.9	1014	-2.8	150	1	67
2026-02-12T23:29	1.9	1014	-2.8	160	1	67
2026-02-12T23:30	2.0	1014	-3.1	160	1	67
2026-02-12T23:31	2.1	1014	-2.8	170	1	67
2026-02-12T23:32	2.2	1014	-2.3	170	1	68
2026-02-12T23:33	2.2	1014	-2.7	160	1	68
2026-02-12T23:34	2.2	1014	-2.7	160	1	69
2026-02-12T23:35	2.2	1014	-2.7	150	1	69
2026-02-12T23:36	2.3	1014	-2.6	150	1	69
2026-02-12T23:37	2.4	1014	-2.3	150	1	69
2026-02-12T23:38	2.4	1014	-2.7	150	1	69
2026-02-12T23:39	2.5	1014	-2.6	150	1	69
2026-02-12T23:40	2.5	1014	-2.6	160	1	69
2026-02-12T23:41	2.6	1014	-2.3	170	1	69
2026-02-12T23:42	2.7	1014	-2.2	170	1	69
2026-02-12T23:43	2.8	1014	-1.9	180	1	70
2026-02-12T23:44	2.8	1014	-2.1	190	1	70
2026-02-12T23:45	2.8	1014	-2.1	200	1	70
2026-02-12T23:46	2.8	1014	-2.1	200	1	70
2026-02-12T23:47	2.7	1014	-2.4	210	1	70
2026-02-12T23:48	2.7	1014	-2.6	220	1	70
2026-02-12T23:49	2.8	1014	-2.3	220	1	70
2026-02-12T23:50	2.7	1014	-2.6	220	1	70
2026-02-12T23:51	2.6	1014	-2.7	220	1	70
2026-02-12T23:52	2.6	1014	-2.7	230	1	69
2026-02-12T23:53	2.6	1014	-2.7	230	1	69
2026-02-12T23:54	2.6	1014	-2.9	240	1	70
2026-02-12T23:55	2.7	1014	-2.4	240	1	69
2026-02-12T23:56	2.8	1014	-2.5	240	1	69
2026-02-12T23:57	2.8	1014	-2.5	250	1	69
2026-02-12T23:58	2.9	1014	-2.6	250	1	70
2026-02-12T23:59	3.0	1014	-2.5	260	1	70
2026-02-13T00:00	3.3	1014	-2.0	260	1	70
2026-02-13T00:01	3.4	1014	-1.9	260	1	70
2026-02-13T00:02	3.3	1014	-2.2	260	1	70
2026-02-13T00:03	3.3	1014	-2.2	260	2	70
2026-02-13T00:04	3.3	1014	-2.2	260	2	70
2026-02-13T00:05	3.2	1014	-2.3	260	2	70
2026-02-13T00:06	3.3	1014	-2.2	270	2	70
2026-02-13T00:07	3.2	1014	-2.5	270	2	70
2026-02-13T00:08	3.1	1014	-2.6	270	2	70
2026-02-13T00:09	3.2	1014	-2.7	270	2	70
2026-02-13T00:10	3.3	1014	-2.4	280	2	70
2026-02-13T00:11	3.3	1014	-2.6	280	2	69
2026-02-13T00:12	3.4	1014	-2.5	290	2	69
2026-02-13T00:13	3.4	1014	-2.5	290	2	69
2026-02-13T00:14	3.4	1014	-2.5	290	2	69
2026-02-13T00:15	3.6	1014	-2.1	300	2	70
2026-02-13T00:16	3.6	1014	-2.1	310	2	70
2026-02-13T00:17	3.8	1014	-1.8	310	2	70
2026-02-13T00:18	3.7	1014	-2.3	310	2	70
2026-02-13T00:19	3.8	1014	-2.2	320	2	70
2026-02-13T00:20	3.9	1014	-1.9	320	2	70
2026-02-13T00:21	4.0	1014	-1.8	320	2	70
2026-02-13T00:22	4.1	1014	-1.7	320	2	70
2026-02-13T00:23	4.0	1014	-2.2	320	2	70
2026-02-13T00:24	4.0	1014	-2.2	320	2	69
2026-02-13T00:25	4.2	1014	-1.8	310	2	69
2026-02-13T00:26	4.3	1014	-1.7	310	2	68
2026-02-13T00:27	4.3	1014	-1.9	310	2	68
2026-02-13T00:28	4.2	1014	-2.2	300	2	68
2026-02-13T00:29	4.3	1014	-2.1	300	2	68
2026-02-13T00:30	4.2	1014	-2.2	300	2	68
2026-02-13T00:31	4.2	1014	-2.2	300	2	68
2026-02-13T00:32	4.5	1014	-1.5	300	2	68
2026-02-13T00:33	4.7	1014	-1.3	300	2	69
2026-02-13T00:34	4.5	1014	-1.9	290	2	69
2026-02-13T00:35	4.5	1015	-2.1	290	2	69
2026-02-13T00:36	4.4	1015	-2.2	290	2	70
2026-02-13T00:37	4.5	1014	-2.1	290	2	70
2026-02-13T00:38	4.3	1014	-2.5	290	2	70
2026-02-13T00:39	4.3	1014	-2.5	300	2	70
2026-02-13T00:40	4.4	1014	-2.0	300	2	70
2026-02-13T00:41	4.5	1014	-1.9	300	2	70
2026-02-13T00:42	4.4	1014	-2.4	300	2	70
2026-02-13T00:43	4.5	1014	-2.4	300	2	70
2026-02-13T00:44	4.6	1014	-2.0	300	2	70
2026-02-13T00:45	4.8	1014	-1.9	300	1	70
2026-02-13T00:46	4.7	1014	-2.4	290	1	70
2026-02-13T00:47	4.7	1014	-2.4	290	1	70
2026-02-13T00:48	5.0	1014	-1.7	290	1	70
2026-02-13T00:49	5.0	1014	-1.9	290	1	70
2026-02-13T00:50	4.7	1014	-2.6	290	1	70
2026-02-13T00:51	4.9	1014	-2.4	280	1	70
2026-02-13T00:52	5.1	1014	-2.2	280	1	70
2026-02-13T00:53	5.4	1014	-1.7	270	1	70
2026-02-13T00:54	5.3	1014	-2.3	270	1	70
2026-02-13T00:55	5.2	1014	-2.4	270	1	70
2026-02-13T00:56	5.5	1014	-1.9	270	1	70
2026-02-13T00:57	5.5	1014	-1.9	270	1	70
2026-02-13T00:58	5.3	1014	-2.5	270	1	70
2026-02-13T00:59	5.3	1014	-2.8	270	1	70
2026-02-13T01:00	5.3	1014	-2.8	270	2	70
2026-02-13T01:01	5.4	1014	-2.7	270	2	70
2026-02-13T01:02	5.4	1014	-2.7	270	2	70
2026-02-13T01:03	5.5	1014	-2.8	280	2	70
2026-02-13T01:04	5.7	1014	-2.6	280	2	70
2026-02-13T01:05	5.8	1014	-2.3	290	1	70
2026-02-13T01:06	5.9	1014	-2.2	290	1	70
2026-02-13T01:07	6.1	1014	-2.0	280	1	70
2026-02-13T01:08	5.8	1014	-2.8	280	1	70
2026-02-13T01:09	5.8	1014	-2.8	280	1	70
2026-02-13T01:10	5.9	1014	-2.7	270	1	70
2026-02-13T01:11	6.2	1014	-2.2	270	1	70
2026-02-13T01:12	6.1	1014	-2.5	260	1	70
2026-02-13T01:13	6.3	1014	-2.1	260	1	70
2026-02-13T01:14	6.4	1014	-2.2	250	1	70
2026-02-13T01:15	6.5	1014	-2.4	250	1	70
2026-02-13T01:16	6.7	1014	-2.2	250	1	70
2026-02-13T01:17	7.3	1014	-1.4	260	1	70
2026-02-13T01:18	7.1	1014	-2.1	260	1	70
2026-02-13T01:19	6.8	1014	-2.6	270	1	70
2026-02-13T01:20	6.8	1014	-2.4	270	1	70
2026-02-13T01:21	6.7	1014	-2.7	270	1	70
2026-02-13T01:22	6.5	1014	-2.9	270	1	70
2026-02-13T01:23	6.6	1014	-2.5	270	1	70
2026-02-13T01:24	6.7	1014	-2.4	270	1	70
2026-02-13T01:25	6.7	1014	-2.2	260	1	70
2026-02-13T01:26	6.6	1014	-2.5	260	1	70
2026-02-13T01:27	6.6	1014	-2.3	260	1	70
2026-02-13T01:28	6.8	1014	-2.1	260	1	70
2026-02-13T01:29	6.8	1014	-2.4	250	1	70
2026-02-13T01:30	6.6	1014	-2.8	260	1	70
2026-02-13T01:31	6.7	1014	-2.7	260	1	70
2026-02-13T01:32	6.7	1014	-2.7	270	1	70
2026-02-13T01:33	7.1	1014	-2.1	280	1	70
2026-02-13T01:34	7.2	1014	-2.2	290	1	70
2026-02-13T01:35	7.0	1014	-2.7	300	1	70
2026-02-13T01:36	6.9	1014	-2.8	310	1	70
2026-02-13T01:37	7.1	1014	-2.3	310	1	70
2026-02-13T01:38	7.2	1014	-2.2	310	1	70
2026-02-13T01:39	7.0	1014	-2.7	310	1	70
2026-02-13T01:40	7.5	1014	-2.0	300	1	70
2026-02-13T01:41	7.2	1014	-2.5	300	1	70
2026-02-13T01:42	7.2	1014	-2.5	290	1	70
2026-02-13T01:43	7.3	1014	-2.4	270	1	70
2026-02-13T01:44	7.5	1014	-2.0	260	1	70
2026-02-13T01:45	7.3	1014	-2.4	250	1	70
2026-02-13T01:46	7.4	1014	-2.3	240	1	70
2026-02-13T01:47	7.5	1014	-2.2	240	1	70
2026-02-13T01:48	7.4	1014	-2.3	230	1	70
2026-02-13T01:49	7.2	1014	-2.5	230	1	70
2026-02-13T01:50	7.3	1014	-2.4	230	1	70
2026-02-13T01:51	7.3	1014	-2.4	230	1	70
2026-02-13T01:52	7.4	1014	-2.3	230	1	70
2026-02-13T01:53	7.5	1014	-2.2	230	1	70
2026-02-13T01:54	7.5	1014	-2.2	230	1	70
2026-02-13T01:55	7.5	1014	-2.2	230	1	70
2026-02-13T01:56	7.5	1014	-2.2	230	1	70
2026-02-13T01:57	7.6	1014	-2.4	230	1	70
2026-02-13T01:58	7.8	1014	-2.2	240	1	70
2026-02-13T01:59	7.6	1014	-2.4	230	0	70
2026-02-13T02:00	7.6	1014	-2.4	230	0	70
2026-02-13T02:01	8.0	1014	-1.8	230	0	70
2026-02-13T02:02	8.1	1014	-1.7	220	1	70
2026-02-13T02:03	8.2	1014	-1.9	220	1	70
2026-02-13T02:04	8.4	1014	-1.7	220	1	70
2026-02-13T02:05	8.2	1014	-2.1	210	1	70
2026-02-13T02:06	7.8	1014	-2.5	200	1	70
2026-02-13T02:07	7.7	1014	-2.6	180	1	70
2026-02-13T02:08	7.8	1014	-2.2	170	1	70
2026-02-13T02:09	7.7	1014	-2.3	150	1	70
2026-02-13T02:10	7.9	1013	-2.1	150	1	70
2026-02-13T02:11	8.0	1013	-2.0	130	1	70
2026-02-13T02:12	7.9	1013	-2.1	110	1	70
2026-02-13T02:13	7.9	1013	-2.1	90	1	70
2026-02-13T02:14	7.8	1013	-2.2	60	1	70
2026-02-13T02:15	7.8	1013	-2.2	30	1	70
2026-02-13T02:16	7.9	1013	-2.1	360	1	70
2026-02-13T02:17	7.9	1013	-2.1	340	1	70
2026-02-13T02:18	7.9	1013	-2.1	340	1	70
2026-02-13T02:19	7.9	1013	-2.1	330	1	70
2026-02-13T02:20	8.0	1013	-2.0	330	1	70
2026-02-13T02:21	8.0	1013	-2.0	330	1	70
2026-02-13T02:22	7.9	1013	-2.4	330	1	70
2026-02-13T02:23	8.0	1013	-2.0	320	1	70
2026-02-13T02:24	8.1	1013	-2.2	320	1	70
2026-02-13T02:25	8.3	1013	-1.8	160	1	70
2026-02-13T02:26	8.4	1013	-1.7	170	1	70
2026-02-13T02:27	8.2	1013	-2.1	210	1	70
2026-02-13T02:28	8.2	1013	-2.1	160	1	70
2026-02-13T02:29	8.3	1013	-1.8	160	1	70
2026-02-13T02:30	9.0	1013	-0.9	150	1	70
2026-02-13T02:31	9.4	1013	-0.8	150	1	70
2026-02-13T02:32	9.3	1013	-1.4	140	1	70
2026-02-13T02:33	8.7	1013	-2.3	130	1	70
2026-02-13T02:34	8.8	1013	-1.9	140	1	70
2026-02-13T02:35	8.9	1013	-1.8	140	1	70
2026-02-13T02:36	9.1	1013	-1.6	140	1	70
2026-02-13T02:37	9.1	1013	-1.6	130	1	70
2026-02-13T02:38	9.3	1013	-1.4	120	1	70
2026-02-13T02:39	9.6	1013	-1.1	110	1	70
2026-02-13T02:40	9.4	1013	-1.6	90	1	70
2026-02-13T02:41	9.2	1013	-1.5	90	1	70
2026-02-13T02:42	9.2	1013	-1.2	100	2	70
2026-02-13T02:43	9.3	1013	-0.9	100	2	70
2026-02-13T02:44	9.5	1013	-0.7	90	2	70
2026-02-13T02:45	9.7	1013	-0.5	90	1	70
2026-02-13T02:46	9.5	1013	-1.0	80	1	70
2026-02-13T02:47	9.2	1013	-1.2	80	1	70
2026-02-13T02:48	9.1	1013	-0.8	80	1	70
2026-02-13T02:49	9.1	1013	-0.8	80	1	70
2026-02-13T02:50	9.2	1013	-0.7	90	1	70
2026-02-13T02:51	9.3	1013	-0.3	90	1	70
2026-02-13T02:52	9.4	1013	-0.2	90	1	70
2026-02-13T02:53	9.6	1013	0.0	100	1	70
2026-02-13T02:54	9.3	1013	-0.9	100	1	70
2026-02-13T02:55	9.4	1013	-0.5	110	1	70
2026-02-13T02:56	9.4	1013	-0.5	100	1	70
2026-02-13T02:57	9.3	1013	-0.9	100	1	70
2026-02-13T02:58	9.4	1013	-0.5	90	1	70
2026-02-13T02:59	10.1	1013	0.2	100	1	70
2026-02-13T03:00	10.1	1013	0.2	90	1	70
2026-02-13T03:01	11.1	1013	1.4	90	1	70
2026-02-13T03:02	11.4	1013	1.1	80	1	70
2026-02-13T03:03	10.4	1013	-0.4	70	1	70
2026-02-13T03:04	10.3	1013	-0.2	70	1	70
2026-02-13T03:05	9.9	1013	-0.3	60	1	70
2026-02-13T03:06	9.7	1013	-0.5	70	1	70
2026-02-13T03:07	9.7	1013	-0.2	80	1	70
2026-02-13T03:08	9.8	1013	0.2	90	1	70
2026-02-13T03:09	9.8	1013	0.2	90	1	70
2026-02-13T03:10	9.8	1013	0.2	90	1	70
2026-02-13T03:11	9.9	1013	0.3	90	2	70
2026-02-13T03:12	10.0	1013	0.3	100	2	70
2026-02-13T03:13	10.1	1013	0.7	100	2	70
2026-02-13T03:14	10.4	1013	1.0	90	2	70
2026-02-13T03:15	10.7	1012	1.0	90	2	70
2026-02-13T03:16	10.5	1012	0.5	90	2	70
2026-02-13T03:17	10.7	1012	1.0	80	2	70
2026-02-13T03:18	10.8	1012	0.8	70	2	70
2026-02-13T03:19	10.7	1012	0.7	70	2	70
2026-02-13T03:20	10.7	1013	0.7	70	2	70
2026-02-13T03:21	10.1	1013	-0.1	70	2	70
2026-02-13T03:22	9.9	1012	0.0	80	2	70
2026-02-13T03:23	10.0	1012	0.3	80	2	70
2026-02-13T03:24	9.9	1012	0.5	80	2	70
2026-02-13T03:25	9.9	1012	0.5	90	2	70
2026-02-13T03:26	9.9	1012	0.8	90	2	70
2026-02-13T03:27	10.0	1012	0.9	90	2	70
2026-02-13T03:28	10.0	1012	0.9	100	2	70
2026-02-13T03:29	9.8	1013	0.7	100	2	70
2026-02-13T03:30	9.8	1013	0.7	110	1	70
2026-02-13T03:31	10.0	1013	1.1	110	2	70
2026-02-13T03:32	10.0	1013	1.1	110	2	70
2026-02-13T03:33	10.0	1013	0.9	100	2	70
2026-02-13T03:34	10.0	1012	0.9	100	2	70
2026-02-13T03:35	10.0	1012	0.9	90	2	70
2026-02-13T03:36	10.1	1012	1.0	90	2	70
2026-02-13T03:37	9.9	1012	0.5	90	2	70
2026-02-13T03:38	9.8	1012	0.7	90	2	70
2026-02-13T03:39	9.8	1012	0.7	80	2	70
2026-02-13T03:40	9.8	1012	0.7	70	2	70
2026-02-13T03:41	10.0	1012	1.1	70	2	70
2026-02-13T03:42	10.2	1012	1.1	70	2	70
2026-02-13T03:43	10.1	1012	1.0	70	2	70
2026-02-13T03:44	10.1	1012	1.0	70	2	70
2026-02-13T03:45	10.4	1012	1.2	80	2	70
2026-02-13T03:46	10.3	1012	1.2	80	1	70
2026-02-13T03:47	10.4	1012	1.2	80	1	70
2026-02-13T03:48	10.5	1012	1.3	80	1	70
2026-02-13T03:49	10.5	1012	1.1	80	1	70
2026-02-13T03:50	10.6	1012	1.2	80	1	70
2026-02-13T03:51	10.3	1012	0.6	80	1	70
2026-02-13T03:52	10.6	1012	1.2	90	1	70
2026-02-13T03:53	10.8	1012	1.4	80	1	70
2026-02-13T03:54	10.6	1012	1.2	80	1	70
2026-02-13T03:55	10.6	1012	1.2	70	1	70
2026-02-13T03:56	10.7	1012	1.3	80	2	70
2026-02-13T03:57	11.1	1012	1.6	80	2	70
2026-02-13T03:58	10.8	1012	0.8	80	2	70
2026-02-13T03:59	10.5	1012	0.5	90	2	70
2026-02-13T04:00	10.6	1012	0.9	100	2	70
2026-02-13T04:01	10.6	1012	0.9	100	2	70
2026-02-13T04:02	10.9	1012	1.4	100	2	70
2026-02-13T04:03	10.6	1012	0.6	100	2	70
2026-02-13T04:04	10.8	1012	1.1	110	2	70
2026-02-13T04:05	11.0	1012	1.3	110	2	70
2026-02-13T04:06	11.2	1012	1.2	110	2	70
2026-02-13T04:07	11.1	1012	1.4	110	2	70
2026-02-13T04:08	11.5	1012	1.7	110	2	70
2026-02-13T04:09	11.1	1012	0.8	120	2	70
2026-02-13T04:10	11.0	1012	0.7	110	2	70
2026-02-13T04:11	10.9	1012	0.9	110	2	70
2026-02-13T04:12	11.0	1012	1.0	110	2	70
2026-02-13T04:13	11.3	1012	1.3	110	2	70
2026-02-13T04:14	10.7	1012	0.4	110	2	70
2026-02-13T04:15	11.0	1012	1.0	110	2	70
2026-02-13T04:16	11.0	1012	0.7	120	2	70
2026-02-13T04:17	10.8	1012	0.8	120	2	70
2026-02-13T04:18	11.0	1012	1.0	120	2	70
2026-02-13T04:19	11.1	1012	1.1	120	2	70
2026-02-13T04:20	11.2	1012	1.2	130	2	70
2026-02-13T04:21	11.2	1012	0.9	130	2	70
2026-02-13T04:22	10.7	1012	0.4	130	2	70
2026-02-13T04:23	10.8	1012	0.8	130	2	70
2026-02-13T04:24	11.1	1012	1.1	130	2	70
2026-02-13T04:25	11.5	1012	1.5	130	2	70
2026-02-13T04:26	11.2	1012	0.6	130	2	70
2026-02-13T04:27	11.4	1012	1.1	130	2	70
2026-02-13T04:28	11.2	1012	0.6	130	2	70
2026-02-13T04:29	11.2	1012	0.9	130	2	70
2026-02-13T04:30	11.3	1012	1.0	130	2	70
2026-02-13T04:31	11.4	1012	1.1	130	2	70
2026-02-13T04:32	11.4	1012	1.1	130	2	70
2026-02-13T04:33	11.6	1012	1.3	130	2	70
2026-02-13T04:34	11.4	1012	0.5	130	2	70
2026-02-13T04:35	11.6	1012	1.3	140	2	70
2026-02-13T04:36	11.4	1012	0.8	140	3	70
2026-02-13T04:37	11.2	1012	0.6	140	3	70
2026-02-13T04:38	11.3	1012	1.0	140	3	70
2026-02-13T04:39	11.3	1012	0.7	140	3	70
2026-02-13T04:40	11.2	1012	0.6	140	3	70
2026-02-13T04:41	11.5	1012	1.2	140	3	70
2026-02-13T04:42	11.5	1012	1.2	140	3	70
2026-02-13T04:43	11.4	1012	0.8	140	3	70
2026-02-13T04:44	11.4	1012	0.5	140	3	70
2026-02-13T04:45	11.5	1011	0.6	140	3	70
2026-02-13T04:46	11.5	1011	0.9	140	3	70
2026-02-13T04:47	11.6	1011	1.0	140	3	70
2026-02-13T04:48	11.6	1011	0.1	140	3	70
2026-02-13T04:49	11.2	1011	-0.6	140	3	70
2026-02-13T04:50	11.1	1011	-0.7	150	2	70
2026-02-13T04:51	10.9	1011	-0.2	150	2	70
2026-02-13T04:52	11.4	1011	0.8	150	2	70
2026-02-13T04:53	11.6	1011	0.7	150	2	70
2026-02-13T04:54	11.5	1011	0.3	150	2	70
2026-02-13T04:55	11.7	1011	0.5	150	2	70
2026-02-13T04:56	11.8	1011	0.6	150	2	70
2026-02-13T04:57	11.8	1011	0.9	150	2	70
2026-02-13T04:58	12.0	1011	1.1	150	2	70
2026-02-13T04:59	11.7	1011	0.5	160	2	70
2026-02-13T05:00	11.6	1011	0.4	160	2	70
2026-02-13T05:01	11.8	1011	0.9	160	2	70
2026-02-13T05:02	11.9	1011	1.0	160	2	70
2026-02-13T05:03	12.1	1011	1.1	160	2	70
2026-02-13T05:04	12.3	1011	1.3	160	2	70
2026-02-13T05:05	12.5	1011	1.2	160	2	70
2026-02-13T05:06	12.4	1011	0.8	160	2	70
2026-02-13T05:07	12.1	1011	0.2	170	2	70
2026-02-13T05:08	12.2	1011	0.6	160	2	70
2026-02-13T05:09	12.2	1011	0.3	160	2	70
2026-02-13T05:10	12.2	1011	0.3	150	2	70
2026-02-13T05:11	12.0	1011	0.2	150	2	70
2026-02-13T05:12	12.1	1011	0.2	160	2	70
2026-02-13T05:13	12.2	1011	0.3	160	2	70
2026-02-13T05:14	12.3	1011	0.4	160	2	70
2026-02-13T05:15	12.2	1011	0.0	160	2	70
2026-02-13T05:16	12.1	1011	-0.1	150	2	70
2026-02-13T05:17	12.0	1011	-0.2	150	2	70
2026-02-13T05:18	11.8	1011	-0.3	150	2	70
2026-02-13T05:19	11.9	1011	-0.3	150	2	70
2026-02-13T05:20	12.4	1011	0.5	150	2	70
2026-02-13T05:21	12.6	1011	0.7	150	2	70
2026-02-13T05:22	12.0	1011	-0.2	140	2	70
2026-02-13T05:23	11.8	1011	-0.3	140	2	70
2026-02-13T05:24	12.0	1011	0.2	140	2	70
2026-02-13T05:25	11.8	1011	0.0	140	2	70
2026-02-13T05:26	11.6	1011	-0.2	150	1	70
2026-02-13T05:27	11.8	1011	0.0	150	1	70
2026-02-13T05:28	12.1	1011	0.2	150	1	70
2026-02-13T05:29	12.1	1011	0.2	140	1	70
2026-02-13T05:30	12.5	1011	0.6	150	1	70
2026-02-13T05:31	12.3	1011	0.1	150	1	70
2026-02-13T05:32	12.1	1011	-0.4	160	1	70
2026-02-13T05:33	12.2	1011	0.0	160	1	70
2026-02-13T05:34	12.3	1011	-0.2	160	1	70
2026-02-13T05:35	12.1	1011	-0.7	160	1	70
2026-02-13T05:36	11.8	1011	-0.7	160	1	70
2026-02-13T05:37	11.8	1011	-0.3	160	2	70
2026-02-13T05:38	11.8	1011	-0.3	160	2	70
2026-02-13T05:39	11.8	1012	-0.7	160	2	70
2026-02-13T05:40	11.9	1012	-0.6	160	2	70
2026-02-13T05:41	12.0	1012	-0.8	160	2	70
2026-02-13T05:42	11.9	1012	-0.9	150	2	70
2026-02-13T05:43	11.9	1012	-0.9	160	2	70
2026-02-13T05:44	11.9	1011	-0.9	150	2	70
2026-02-13T05:45	11.9	1012	-0.9	150	2	70
2026-02-13T05:46	11.8	1012	-1.0	150	2	70
2026-02-13T05:47	11.6	1012	-1.2	150	2	70
2026-02-13T05:48	11.7	1012	-1.1	140	2	70
2026-02-13T05:49	11.8	1012	-1.0	140	2	70
2026-02-13T05:50	12.0	1012	-0.8	150	2	70
2026-02-13T05:51	11.9	1012	-0.9	140	2	70
2026-02-13T05:52	11.9	1012	-1.3	140	2	70
2026-02-13T05:53	11.8	1012	-1.3	130	2	70
2026-02-13T05:54	11.9	1012	-0.9	130	2	70
2026-02-13T05:55	12.0	1012	-0.8	130	2	70
2026-02-13T05:56	11.9	1012	-0.9	130	2	70
2026-02-13T05:57	12.1	1012	-0.4	140	2	70
2026-02-13T05:58	12.1	1012	-0.4	140	2	70
2026-02-13T05:59	12.2	1012	-0.3	130	2	70
2026-02-13T06:00	11.9	1012	-0.9	130	1	70
2026-02-13T06:01	12.2	1012	-0.3	130	2	70
2026-02-13T06:02	12.2	1012	-0.3	140	2	70
2026-02-13T06:03	12.0	1012	-0.5	150	2	70
2026-02-13T06:04	12.4	1012	0.2	150	2	70
2026-02-13T06:05	12.2	1012	-0.3	150	2	70
2026-02-13T06:06	12.2	1012	-0.3	150	2	70
2026-02-13T06:07	12.2	1012	-0.3	150	2	70
2026-02-13T06:08	12.1	1012	-0.4	150	2	70
2026-02-13T06:09	12.0	1012	-0.5	140	2	70
2026-02-13T06:10	11.8	1012	-0.7	140	2	70
2026-02-13T06:11	11.9	1012	-0.6	140	2	70
2026-02-13T06:12	12.2	1012	0.0	140	2	70
2026-02-13T06:13	12.3	1012	-0.2	140	2	70
2026-02-13T06:14	12.3	1012	-0.2	130	2	70
2026-02-13T06:15	12.2	1012	-0.3	130	2	70
2026-02-13T06:16	12.2	1012	-0.3	130	2	70
2026-02-13T06:17	12.0	1012	-0.8	120	2	70
2026-02-13T06:18	11.9	1012	-0.6	130	2	70
2026-02-13T06:19	12.0	1012	-0.5	130	2	70
2026-02-13T06:20	12.1	1012	-0.4	130	2	70
2026-02-13T06:21	12.0	1012	-0.5	130	2	70
2026-02-13T06:22	12.0	1012	-0.5	130	2	70
2026-02-13T06:23	12.2	1012	-0.3	140	2	70
2026-02-13T06:24	12.1	1012	-0.4	150	2	70
2026-02-13T06:25	11.9	1012	-0.6	160	2	70
2026-02-13T06:26	11.9	1012	-0.6	180	2	70
2026-02-13T06:27	12.1	1012	-0.1	190	2	70
2026-02-13T06:28	12.0	1012	-0.2	190	2	70
2026-02-13T06:29	11.9	1012	-0.3	190	2	70
2026-02-13T06:30	12.0	1012	0.2	200	2	70
2026-02-13T06:31	12.0	1012	0.2	200	2	70
2026-02-13T06:32	12.1	1012	0.2	190	2	70
2026-02-13T06:33	12.1	1012	0.5	180	2	70
2026-02-13T06:34	12.0	1012	0.2	180	2	70
2026-02-13T06:35	11.8	1012	0.0	170	2	70
2026-02-13T06:36	11.8	1012	0.3	160	2	70
2026-02-13T06:37	12.0	1012	0.5	140	2	70
2026-02-13T06:38	12.0	1012	0.5	130	2	70
2026-02-13T06:39	12.0	1012	0.5	130	2	70
2026-02-13T06:40	11.8	1012	0.3	120	2	70
2026-02-13T06:41	11.9	1012	0.4	110	2	70
2026-02-13T06:42	11.9	1012	0.4	110	2	70
2026-02-13T06:43	12.0	1012	0.2	110	2	70
2026-02-13T06:44	12.0	1012	0.2	120	2	70
2026-02-13T06:45	11.8	1012	0.0	120	2	70
2026-02-13T06:46	11.9	1012	0.1	150	2	70
2026-02-13T06:47	11.9	1012	0.1	160	3	70
2026-02-13T06:48	11.8	1012	0.0	180	3	70
2026-02-13T06:49	11.9	1012	0.1	190	3	70
2026-02-13T06:50	11.9	1012	0.1	200	3	70
2026-02-13T06:51	11.8	1012	0.0	210	3	70
2026-02-13T06:52	11.7	1012	-0.1	210	2	70
2026-02-13T06:53	11.7	1012	0.2	210	2	70
2026-02-13T06:54	11.8	1012	0.0	200	2	70
2026-02-13T06:55	11.8	1012	0.0	190	2	70
2026-02-13T06:56	11.9	1012	0.4	190	2	70
2026-02-13T06:57	11.7	1012	0.2	200	2	70
2026-02-13T06:58	11.7	1012	0.2	190	1	70
2026-02-13T06:59	11.8	1012	0.6	190	1	70
2026-02-13T07:00	11.7	1012	0.2	180	1	70
2026-02-13T07:01	11.7	1012	0.2	170	1	70
2026-02-13T07:02	11.7	1012	1.1	170	1	70
2026-02-13T07:03	11.5	1012	1.5	170	1	70
2026-02-13T07:04	11.5	1012	1.7	160	1	70
2026-02-13T07:05	11.5	1012	1.7	150	1	70
2026-02-13T07:06	11.4	1012	1.6	150	1	70
2026-02-13T07:07	11.4	1012	1.9	140	1	70
2026-02-13T07:08	11.5	1012	2.0	140	1	70
2026-02-13T07:09	11.4	1012	1.9	130	2	70
2026-02-13T07:10	11.3	1012	1.5	130	2	70
2026-02-13T07:11	11.4	1012	1.6	130	1	70
2026-02-13T07:12	11.4	1012	1.6	120	1	70
2026-02-13T07:13	11.4	1012	1.6	120	1	70
2026-02-13T07:14	11.5	1012	1.7	120	1	70
2026-02-13T07:15	11.5	1012	1.2	130	1	70
2026-02-13T07:16	11.5	1012	0.9	130	2	70
2026-02-13T07:17	11.5	1012	1.2	120	1	70
2026-02-13T07:18	11.3	1012	1.3	120	1	70
2026-02-13T07:19	11.2	1012	1.5	120	1	70
2026-02-13T07:20	11.1	1012	1.6	110	1	70
2026-02-13T07:21	11.1	1012	1.6	110	1	70
2026-02-13T07:22	11.1	1012	1.6	100	1	70
2026-02-13T07:23	11.1	1012	1.6	100	1	70
2026-02-13T07:24	11.1	1012	1.6	100	1	70
2026-02-13T07:25	11.1	1012	1.9	100	1	70
2026-02-13T07:26	11.1	1012	1.9	100	1	70
2026-02-13T07:27	11.0	1012	2.1	100	1	70
2026-02-13T07:28	10.8	1012	2.1	90	1	70
2026-02-13T07:29	10.8	1012	2.4	90	2	70
2026-02-13T07:30	10.7	1012	2.3	100	2	70
2026-02-13T07:31	10.7	1012	2.5	90	2	70
2026-02-13T07:32	10.6	1012	2.4	90	2	70
2026-02-13T07:33	10.6	1012	2.7	90	2	70
2026-02-13T07:34	10.5	1012	2.6	90	2	70
2026-02-13T07:35	10.5	1012	2.6	80	2	70
2026-02-13T07:36	10.5	1012	2.6	90	2	70
2026-02-13T07:37	10.5	1012	2.6	90	2	70
2026-02-13T07:38	10.5	1012	2.8	90	2	70
2026-02-13T07:39	10.4	1012	2.7	90	2	70
2026-02-13T07:40	10.4	1012	2.7	100	2	70
2026-02-13T07:41	10.3	1012	2.7	100	2	70
2026-02-13T07:42	10.3	1012	2.7	100	1	70
2026-02-13T07:43	10.2	1012	2.8	110	1	70
2026-02-13T07:44	10.3	1012	2.9	110	1	70
2026-02-13T07:45	10.3	1012	2.9	110	1	70
2026-02-13T07:46	10.3	1012	2.9	110	1	70
2026-02-13T07:47	10.3	1012	2.9	110	1	70
2026-02-13T07:48	10.1	1012	2.7	110	1	70
2026-02-13T07:49	10.2	1012	2.8	110	1	70
2026-02-13T07:50	10.2	1012	2.8	100	1	70
2026-02-13T07:51	10.3	1012	2.9	110	1	70
2026-02-13T07:52	10.1	1012	2.7	100	1	70
2026-02-13T07:53	10.0	1012	2.6	100	1	70
2026-02-13T07:54	9.9	1012	2.5	90	1	70
2026-02-13T07:55	10.0	1012	2.8	90	1	70
2026-02-13T07:56	9.9	1012	2.7	90	1	70
2026-02-13T07:57	10.0	1012	2.8	90	1	70
2026-02-13T07:58	9.7	1012	2.6	80	1	70
2026-02-13T07:59	9.9	1012	3.0	80	1	70
2026-02-13T08:00	9.9	1012	3.0	80	1	70
2026-02-13T08:01	9.9	1012	3.0	80	1	70
2026-02-13T08:02	9.7	1012	2.8	90	1	70
2026-02-13T08:03	9.8	1013	2.9	90	1	70
2026-02-13T08:04	9.7	1013	2.8	90	1	70
2026-02-13T08:05	9.8	1013	2.9	100	1	70
2026-02-13T08:06	9.8	1013	2.9	100	1	70
2026-02-13T08:07	9.7	1013	2.8	110	1	70
2026-02-13T08:08	9.8	1013	2.9	110	1	70
2026-02-13T08:09	9.6	1013	2.7	110	1	70
2026-02-13T08:10	9.6	1013	2.7	110	1	70
2026-02-13T08:11	9.6	1013	2.7	110	1	70
2026-02-13T08:12	9.6	1013	2.9	100	1	70
2026-02-13T08:13	9.6	1013	2.9	100	1	70
2026-02-13T08:14	9.3	1013	2.6	100	1	70
2026-02-13T08:15	9.4	1013	2.7	100	1	70
2026-02-13T08:16	9.2	1013	2.8	100	1	70
2026-02-13T08:17	9.4	1013	2.9	90	1	70
2026-02-13T08:18	9.4	1013	2.9	80	1	70
2026-02-13T08:19	9.4	1013	2.9	90	1	70
2026-02-13T08:20	9.0	1013	2.6	90	1	70
2026-02-13T08:21	9.3	1013	3.1	90	1	70
2026-02-13T08:22	9.3	1013	3.1	90	1	70
2026-02-13T08:23	9.2	1013	3.0	80	1	70
2026-02-13T08:24	9.1	1013	2.9	80	1	70
2026-02-13T08:25	8.9	1013	2.7	80	1	70
2026-02-13T08:26	9.2	1013	3.2	80	1	70
2026-02-13T08:27	9.2	1013	3.2	80	1	70
2026-02-13T08:28	9.2	1013	3.0	90	1	70
2026-02-13T08:29	8.9	1013	2.7	90	1	70
2026-02-13T08:30	8.7	1013	2.5	80	1	70
2026-02-13T08:31	8.5	1013	2.7	90	1	70
2026-02-13T08:32	8.8	1013	3.2	90	1	70
2026-02-13T08:33	8.5	1013	2.9	90	1	70
2026-02-13T08:34	8.7	1013	3.1	100	1	70
2026-02-13T08:35	9.0	1013	3.6	100	1	70
2026-02-13T08:36	9.1	1013	3.7	100	1	70
2026-02-13T08:37	9.0	1013	3.4	100	1	70
2026-02-13T08:38	9.1	1013	3.5	110	1	70
2026-02-13T08:39	8.8	1013	3.2	100	1	70
2026-02-13T08:40	8.6	1013	3.0	110	1	70
2026-02-13T08:41	8.8	1013	3.4	100	1	70
2026-02-13T08:42	8.7	1013	3.3	90	1	70
2026-02-13T08:43	8.4	1013	3.1	90	1	70
2026-02-13T08:44	8.7	1013	3.6	90	1	70
2026-02-13T08:45	8.7	1013	3.6	90	1	70
2026-02-13T08:46	8.3	1013	3.2	90	1	70
2026-02-13T08:47	8.5	1014	3.6	90	1	70
2026-02-13T08:48	8.5	1014	3.6	90	1	70
2026-02-13T08:49	8.2	1014	3.3	80	1	70
2026-02-13T08:50	8.2	1014	3.3	90	1	70
2026-02-13T08:51	7.5	1014	2.6	90	0	70
2026-02-13T08:52	7.6	1014	3.1	90	1	70
2026-02-13T08:53	7.4	1014	2.9	90	1	70
2026-02-13T08:54	7.2	1014	2.9	90	1	70
2026-02-13T08:55	7.1	1014	2.8	100	1	70
2026-02-13T08:56	6.8	1014	2.5	100	1	70
2026-02-13T08:57	7.2	1014	3.5	110	1	70
2026-02-13T08:58	7.3	1014	3.6	110	1	70
2026-02-13T08:59	7.2	1014	3.5	120	1	70
2026-02-13T09:00	7.3	1013	3.6	120	1	70
2026-02-13T09:01	6.9	1013	3.2	130	1	70
2026-02-13T09:02	6.7	1013	3.1	140	1	70
2026-02-13T09:03	6.7	1013	3.3	140	1	70
2026-02-13T09:04	6.9	1013	3.5	150	1	70
2026-02-13T09:05	6.8	1013	3.4	150	1	70
2026-02-13T09:06	6.8	1013	3.6	150	1	70
2026-02-13T09:07	6.8	1013	3.6	150	1	70
2026-02-13T09:08	6.9	1013	3.7	160	1	70
2026-02-13T09:09	6.7	1013	3.3	160	1	70
2026-02-13T09:10	6.4	1013	3.0	160	1	70
2026-02-13T09:11	6.4	1013	3.2	160	1	70
2026-02-13T09:12	6.8	1013	3.8	160	1	70
2026-02-13T09:13	6.8	1013	3.8	150	1	70
2026-02-13T09:14	7.0	1013	4.0	140	0	70
2026-02-13T09:15	7.5	1013	4.3	130	0	70
2026-02-13T09:16	7.5	1013	4.1	130	0	70
2026-02-13T09:17	7.4	1013	3.8	120	0	70
2026-02-13T09:18	7.4	1013	3.8	110	0	70
2026-02-13T09:19	7.2	1014	3.5	110	0	70
2026-02-13T09:20	7.3	1014	3.7	100	0	70
2026-02-13T09:21	7.1	1014	3.4	100	0	70
2026-02-13T09:22	6.6	1014	2.9	100	0	70
2026-02-13T09:23	7.0	1014	3.6	100	0	70
2026-02-13T09:24	6.9	1014	3.5	100	1	70
2026-02-13T09:25	6.7	1014	3.3	110	1	70
2026-02-13T09:26	7.1	1014	3.9	100	0	70
2026-02-13T09:27	6.5	1014	3.1	100	1	70
2026-02-13T09:28	6.8	1014	3.6	100	0	70
2026-02-13T09:29	6.7	1014	3.5	100	1	70
2026-02-13T09:30	7.0	1014	4.0	100	1	70
2026-02-13T09:31	6.9	1014	3.7	100	1	70
2026-02-13T09:32	6.1	1014	2.7	100	0	70
2026-02-13T09:33	5.9	1014	2.7	90	0	70
2026-02-13T09:34	6.3	1014	3.5	90	0	70
2026-02-13T09:35	6.0	1014	3.2	80	0	70
2026-02-13T09:36	5.6	1014	2.8	80	0	70
2026-02-13T09:37	5.7	1014	3.0	80	0	70
2026-02-13T09:38	5.8	1014	3.3	80	0	70
2026-02-13T09:39	5.6	1014	3.1	80	0	70
2026-02-13T09:40	5.7	1014	3.4	80	1	70
2026-02-13T09:41	5.6	1014	3.3	80	1	70
2026-02-13T09:42	5.4	1014	3.1	90	1	70
2026-02-13T09:43	5.4	1014	3.3	90	1	70
2026-02-13T09:44	5.7	1014	3.7	90	1	70
2026-02-13T09:45	5.7	1014	3.6	100	1	70
2026-02-13T09:46	6.0	1014	4.0	100	1	70
2026-02-13T09:47	5.8	1014	3.7	110	1	70
2026-02-13T09:48	5.4	1014	3.1	110	1	70
2026-02-13T09:49	5.6	1014	3.5	110	1	70
2026-02-13T09:50	5.7	1014	3.7	110	0	70
2026-02-13T09:51	5.9	1014	3.9	110	0	70
2026-02-13T09:52	5.5	1014	3.4	100	0	70
2026-02-13T09:53	5.3	1014	3.2	90	0	70
2026-02-13T09:54	5.4	1014	3.4	80	0	70
2026-02-13T09:55	5.5	1014	3.5	70	0	70
2026-02-13T09:56	5.3	1014	3.3	0	0	70
2026-02-13T09:57	4.6	1014	2.3	0	0	70
2026-02-13T09:58	4.8	1014	2.8	0	0	70
2026-02-13T09:59	5.2	1014	3.5	0	0	70
2026-02-13T10:00	5.2	1014	3.5	0	0	70
2026-02-13T10:01	5.5	1014	4.0	0	0	70
2026-02-13T10:02	5.5	1014	3.8	0	0	70
2026-02-13T10:03	5.1	1014	3.3	0	0	70
2026-02-13T10:04	5.1	1014	3.4	0	0	70
2026-02-13T10:05	5.1	1014	3.4	0	0	70
2026-02-13T10:06	5.0	1014	3.4	0	0	70
2026-02-13T10:07	5.3	1014	3.8	0	0	70
2026-02-13T10:08	5.2	1014	3.7	0	0	70
2026-02-13T10:09	5.0	1014	3.5	0	0	70
2026-02-13T10:10	4.9	1014	3.4	0	0	70
2026-02-13T10:11	5.0	1014	3.5	0	0	70
2026-02-13T10:12	5.0	1014	3.5	0	0	70
2026-02-13T10:13	4.9	1014	3.4	0	0	70
2026-02-13T10:14	4.7	1014	3.2	0	0	70
2026-02-13T10:15	5.0	1014	3.7	0	0	70
2026-02-13T10:16	5.1	1014	3.8	0	0	70
2026-02-13T10:17	5.0	1014	3.7	0	0	70
2026-02-13T10:18	4.8	1014	3.5	0	0	70
2026-02-13T10:19	4.8	1014	3.5	60	0	70
2026-02-13T10:20	4.8	1014	3.5	50	0	70
2026-02-13T10:21	4.9	1014	3.7	50	0	70
2026-02-13T10:22	4.7	1014	3.4	50	0	70
2026-02-13T10:23	4.7	1014	3.4	50	0	70
2026-02-13T10:24	4.8	1014	3.6	40	0	70
2026-02-13T10:25	4.8	1014	3.6	40	0	70
2026-02-13T10:26	4.9	1014	3.7	50	0	70
2026-02-13T10:27	4.8	1014	3.6	50	0	70
2026-02-13T10:28	4.6	1014	3.4	0	0	70
2026-02-13T10:29	4.7	1014	3.5	0	0	70
2026-02-13T10:30	4.9	1014	3.9	0	0	70
2026-02-13T10:31	4.9	1014	3.9	0	0	70
2026-02-13T10:32	5.1	1014	4.1	0	0	70
2026-02-13T10:33	4.9	1014	3.7	0	0	69
2026-02-13T10:34	4.7	1014	3.4	0	0	69
2026-02-13T10:35	4.8	1014	3.6	110	0	68
2026-02-13T10:36	4.9	1014	3.7	120	0	68
2026-02-13T10:37	4.7	1014	3.5	130	0	67
2026-02-13T10:38	4.4	1014	3.1	130	0	67
2026-02-13T10:39	4.3	1014	3.1	140	0	67
2026-02-13T10:40	4.1	1014	2.9	140	0	66
2026-02-13T10:41	4.2	1014	3.2	130	0	66
2026-02-13T10:42	4.2	1014	3.3	130	0	66
2026-02-13T10:43	4.3	1014	3.4	0	0	65
2026-02-13T10:44	4.2	1014	3.3	0	0	65
2026-02-13T10:45	4.1	1014	3.2	0	0	65
2026-02-13T10:46	4.2	1014	3.3	0	0	66
2026-02-13T10:47	4.1	1014	3.2	0	0	66
2026-02-13T10:48	4.0	1014	3.0	0	0	66
2026-02-13T10:49	4.1	1014	2.9	0	0	65
2026-02-13T10:50	4.1	1014	3.1	0	0	66
2026-02-13T10:51	4.1	1014	3.2	0	0	66
2026-02-13T10:52	4.0	1014	3.1	0	0	67
2026-02-13T10:53	4.0	1014	3.1	0	0	68
2026-02-13T10:54	4.2	1014	3.5	0	0	68
2026-02-13T10:55	4.1	1014	3.4	10	0	68
2026-02-13T10:56	4.2	1014	3.5	360	0	68
2026-02-13T10:57	4.2	1014	3.5	360	0	68
2026-02-13T10:58	4.1	1014	3.4	350	0	68
2026-02-13T10:59	4.0	1014	3.3	350	0	68
2026-02-13T11:00	4.1	1014	3.4	350	0	68
2026-02-13T11:01	4.1	1014	3.4	350	0	67
2026-02-13T11:02	4.1	1014	3.4	350	0	66
2026-02-13T11:03	4.1	1014	3.4	360	0	65
2026-02-13T11:04	4.0	1015	3.3	0	0	65
2026-02-13T11:05	3.9	1015	3.2	0	0	64
2026-02-13T11:06	3.8	1015	3.1	0	0	64
2026-02-13T11:07	3.7	1015	3.0	0	0	64
2026-02-13T11:08	3.7	1015	3.0	0	0	63
2026-02-13T11:09	3.7	1015	3.1	0	0	63
2026-02-13T11:10	3.8	1015	3.2	0	0	63
2026-02-13T11:11	3.8	1015	3.2	0	0	63
2026-02-13T11:12	3.9	1015	3.3	0	0	63
2026-02-13T11:13	3.8	1015	3.4	0	0	62
2026-02-13T11:14	3.8	1015	3.2	0	0	62
2026-02-13T11:15	3.9	1015	3.5	10	0	62
2026-02-13T11:16	3.8	1015	3.4	10	0	62
2026-02-13T11:17	3.4	1015	2.8	10	0	62
2026-02-13T11:18	3.6	1015	3.0	10	0	62
2026-02-13T11:19	3.8	1015	3.4	10	0	62
2026-02-13T11:20	3.9	1015	3.5	10	0	62
2026-02-13T11:21	3.7	1015	3.3	20	0	62
2026-02-13T11:22	3.5	1015	3.1	20	1	62
2026-02-13T11:23	3.5	1015	3.1	30	1	62
2026-02-13T11:24	3.6	1015	3.2	30	0	61
2026-02-13T11:25	4.0	1015	3.6	40	0	61
2026-02-13T11:26	3.9	1015	3.6	50	0	61
2026-02-13T11:27	3.9	1015	3.6	50	0	61
2026-02-13T11:28	3.8	1015	3.4	50	0	62
2026-02-13T11:29	3.7	1015	3.3	60	0	62
2026-02-13T11:30	3.7	1015	3.3	50	0	62
2026-02-13T11:31	3.7	1015	3.3	0	0	62
2026-02-13T11:32	3.9	1015	3.5	0	0	62
2026-02-13T11:33	3.8	1015	3.4	0	0	62
2026-02-13T11:34	3.2	1015	2.8	0	0	62
2026-02-13T11:35	3.5	1015	2.9	0	0	62
2026-02-13T11:36	3.4	1015	3.0	0	0	61
2026-02-13T11:37	3.3	1015	2.9	0	0	61
2026-02-13T11:38	3.5	1015	3.1	0	0	60
2026-02-13T11:39	3.3	1015	3.0	0	0	60
2026-02-13T11:40	3.4	1015	3.1	0	0	59
2026-02-13T11:41	3.5	1015	3.2	0	0	59
2026-02-13T11:42	3.1	1015	2.8	0	0	59
2026-02-13T11:43	3.4	1015	3.1	0	0	58
2026-02-13T11:44	3.6	1015	3.3	0	0	58
2026-02-13T11:45	3.6	1015	3.5	0	0	58
2026-02-13T11:46	3.3	1015	3.0	0	0	58
2026-02-13T11:47	3.2	1015	2.9	0	0	57
2026-02-13T11:48	3.5	1015	3.2	0	0	57
2026-02-13T11:49	3.6	1015	3.5	0	0	57
2026-02-13T11:50	3.3	1015	3.2	0	0	57
2026-02-13T11:51	3.1	1015	2.8	0	0	56
2026-02-13T11:52	3.2	1015	3.1	0	0	56
2026-02-13T11:53	3.2	1015	3.1	0	0	56
2026-02-13T11:54	3.2	1015	3.1	0	0	56
2026-02-13T11:55	3.0	1015	2.9	0	0	55
2026-02-13T11:56	3.1	1015	3.0	0	0	55
2026-02-13T11:57	3.2	1015	3.1	0	0	55
2026-02-13T11:58	3.2	1015	3.1	0	0	48
2026-02-13T11:59	2.9	1015	2.8	0	0	42
2026-02-13T12:00	3.1	1015	3.0	0	0	40
2026-02-13T12:01	3.0	1015	3.0	0	0	41
2026-02-13T12:02	3.1	1015	3.1	0	0	41
2026-02-13T12:03	2.9	1015	2.9	0	0	42
2026-02-13T12:04	2.7	1015	2.6	0	0	43
2026-02-13T12:05	2.9	1015	2.8	0	0	44
2026-02-13T12:06	2.9	1015	2.9	0	0	46
2026-02-13T12:07	2.9	1015	2.9	0	0	49
2026-02-13T12:08	2.9	1015	2.9	0	0	55
2026-02-13T12:09	3.0	1015	3.0	0	0	56
2026-02-13T12:10	3.1	1015	3.1	0	0	56
2026-02-13T12:11	3.1	1015	3.1	0	0	56
2026-02-13T12:12	3.1	1015	3.1	0	0	55
2026-02-13T12:13	3.0	1015	3.0	0	0	55
2026-02-13T12:14	3.0	1015	3.0	80	0	55
2026-02-13T12:15	3.0	1015	3.0	90	0	55
2026-02-13T12:16	3.1	1015	3.1	90	0	55
2026-02-13T12:17	3.1	1015	3.1	100	0	55
2026-02-13T12:18	2.9	1015	2.9	100	0	55
2026-02-13T12:19	2.8	1015	2.8	100	0	47
2026-02-13T12:20	2.8	1015	2.8	100	0	46
2026-02-13T12:21	2.8	1015	2.8	100	0	46
2026-02-13T12:22	2.9	1015	2.9	100	0	46
2026-02-13T12:23	2.7	1015	2.7	90	1	45
2026-02-13T12:24	2.7	1015	2.7	90	1	48
2026-02-13T12:25	2.6	1015	2.6	90	1	49
2026-02-13T12:26	2.8	1015	2.8	80	1	49
2026-02-13T12:27	2.8	1015	2.8	80	1	55
2026-02-13T12:28	2.7	1015	2.7	80	1	55
2026-02-13T12:29	2.8	1015	2.8	70	1	55
2026-02-13T12:30	2.8	1015	2.8	70	1	55
2026-02-13T12:31	2.9	1015	2.9	70	1	55
2026-02-13T12:32	2.6	1015	2.6	80	1	55
2026-02-13T12:33	2.4	1015	2.4	80	1	55
2026-02-13T12:34	2.8	1015	2.8	80	1	55
2026-02-13T12:35	2.9	1015	2.9	80	1	55
2026-02-13T12:36	2.6	1015	2.6	80	1	49
2026-02-13T12:37	2.3	1015	2.3	80	1	46
2026-02-13T12:38	2.6	1015	2.6	80	0	46
2026-02-13T12:39	2.4	1015	2.4	80	0	46
2026-02-13T12:40	2.7	1015	2.7	70	0	46
2026-02-13T12:41	2.5	1015	2.5	0	0	45
2026-02-13T12:42	2.9	1015	2.9	0	0	45
2026-02-13T12:43	2.5	1015	2.5	0	0	55
2026-02-13T12:44	2.5	1015	2.5	0	0	55
2026-02-13T12:45	2.1	1015	2.1	0	0	49
2026-02-13T12:46	2.6	1015	2.6	0	0	55
2026-02-13T12:47	2.4	1015	2.4	0	0	55
2026-02-13T12:48	2.6	1015	2.6	0	0	49
2026-02-13T12:49	2.7	1015	2.7	0	0	47
2026-02-13T12:50	2.5	1015	2.5	0	0	46
2026-02-13T12:51	2.6	1015	2.6	0	0	39
2026-02-13T12:52	2.8	1015	2.8	0	0	38
2026-02-13T12:53	2.5	1015	2.5	0	0	35
2026-02-13T12:54	2.5	1015	2.5	0	0	14
2026-02-13T12:55	2.5	1015	2.5	0	0	13
2026-02-13T12:56	2.5	1015	2.5	0	0	13
2026-02-13T12:57	2.5	1015	2.5	0	0	12
2026-02-13T12:58	2.5	1015	2.5	0	0	9
2026-02-13T12:59	2.4	1015	2.4	0	0	8
2026-02-13T13:00	2.7	1015	2.7	0	0	8
2026-02-13T13:01	2.7	1015	2.7	0	0	8
2026-02-13T13:02	2.3	1015	2.3	0	0	6
2026-02-13T13:03	2.1	1015	2.1	0	0	6
2026-02-13T13:04	2.2	1015	2.2	0	0	7
2026-02-13T13:05	2.2	1015	2.2	0	0	5
2026-02-13T13:06	2.1	1015	2.1	0	0	4
2026-02-13T13:07	2.1	1015	2.1	0	0	4
2026-02-13T13:08	2.6	1015	2.6	0	0	4
2026-02-13T13:09	2.6	1015	2.6	0	0	5
2026-02-13T13:10	2.5	1015	2.5	0	0	5
2026-02-13T13:11	2.3	1015	2.3	0	0	5
2026-02-13T13:12	2.4	1015	2.4	0	0	6
2026-02-13T13:13	2.5	1015	2.5	0	0	6
2026-02-13T13:14	2.2	1015	2.2	0	0	6
2026-02-13T13:15	2.2	1015	2.2	0	0	9
2026-02-13T13:16	2.4	1015	2.4	0	0	15
2026-02-13T13:17	2.6	1015	2.6	0	0	26
2026-02-13T13:18	2.6	1015	2.6	0	0	30
2026-02-13T13:19	2.5	1015	2.5	0	0	30
2026-02-13T13:20	2.4	1015	2.4	0	0	30
2026-02-13T13:21	2.5	1015	2.5	0	0	27
2026-02-13T13:22	2.5	1015	2.5	0	0	27
2026-02-13T13:23	2.6	1015	2.6	0	0	27
2026-02-13T13:24	2.5	1015	2.5	0	0	27
2026-02-13T13:25	2.5	1015	2.5	0	0	26
2026-02-13T13:26	2.5	1015	2.5	0	0	26
2026-02-13T13:27	2.4	1015	2.4	0	0	26
2026-02-13T13:28	2.4	1015	2.4	0	0	24
2026-02-13T13:29	2.3	1015	2.3	0	0	24
2026-02-13T13:30	2.2	1015	2.2	0	0	23
2026-02-13T13:31	2.2	1015	2.2	0	0	24
2026-02-13T13:32	2.1	1015	2.1	0	0	23
2026-02-13T13:33	2.2	1015	2.2	0	0	22
2026-02-13T13:34	2.4	1015	2.4	0	0	21
2026-02-13T13:35	2.1	1015	2.1	0	0	20
2026-02-13T13:36	2.2	1015	2.2	0	0	19
2026-02-13T13:37	2.2	1015	2.2	0	0	18
2026-02-13T13:38	2.1	1015	2.1	0	0	15
2026-02-13T13:39	2.1	1015	2.1	0	0	14
2026-02-13T13:40	2.2	1015	2.2	0	0	14
2026-02-13T13:41	2.2	1015	2.2	0	0	13
2026-02-13T13:42	2.2	1015	2.2	0	0	13
2026-02-13T13:43	2.2	1015	2.2	0	0	12
2026-02-13T13:44	2.2	1015	2.2	0	0	11
2026-02-13T13:45	2.1	1015	2.1	0	0	11
2026-02-13T13:46	2.1	1015	2.1	0	0	10
2026-02-13T13:47	2.2	1015	2.2	0	0	10
2026-02-13T13:48	2.3	1015	2.3	0	0	11
2026-02-13T13:49	2.3	1015	2.3	0	0	12
2026-02-13T13:50	2.2	1015	2.2	0	0	12
2026-02-13T13:51	2.2	1015	2.2	0	0	12
2026-02-13T13:52	2.3	1015	2.3	0	0	13
2026-02-13T13:53	2.2	1015	2.2	0	0	14
2026-02-13T13:54	2.1	1015	2.1	0	0	15
2026-02-13T13:55	1.9	1015	1.9	70	0	12
2026-02-13T13:56	2.0	1015	2.0	70	0	12
2026-02-13T13:57	2.1	1015	2.1	70	0	13
2026-02-13T13:58	2.3	1015	2.3	70	0	13
2026-02-13T13:59	2.4	1015	2.4	70	0	13
2026-02-13T14:00	2.4	1015	2.4	70	0	13
2026-02-13T14:01	2.3	1015	2.3	70	0	14
2026-02-13T14:02	2.1	1015	2.1	80	0	14
2026-02-13T14:03	1.7	1015	1.7	80	0	8
2026-02-13T14:04	1.9	1015	1.9	80	0	6
2026-02-13T14:05	2.1	1015	2.1	80	0	7
2026-02-13T14:06	2.0	1015	2.0	80	0	7
2026-02-13T14:07	2.0	1015	2.0	80	0	7
2026-02-13T14:08	2.1	1015	2.1	80	0	7
2026-02-13T14:09	2.1	1015	2.1	80	0	7
2026-02-13T14:10	2.0	1015	2.0	0	0	7
2026-02-13T14:11	2.1	1015	2.1	0	0	7
2026-02-13T14:12	2.1	1015	2.1	0	0	7
2026-02-13T14:13	2.0	1015	2.0	0	0	11
2026-02-13T14:14	1.9	1015	1.9	0	0	18
2026-02-13T14:15	2.0	1015	2.0	0	0	18
2026-02-13T14:16	2.0	1015	2.0	0	0	18
2026-02-13T14:17	2.1	1015	2.1	0	0	19
2026-02-13T14:18	2.1	1015	2.1	0	0	20
2026-02-13T14:19	2.0	1015	2.0	0	0	16
2026-02-13T14:20	2.0	1015	2.0	0	0	16
2026-02-13T14:21	1.8	1015	1.8	100	0	12
2026-02-13T14:22	1.9	1015	1.9	110	0	10
2026-02-13T14:23	2.0	1015	2.0	110	0	9
2026-02-13T14:24	2.1	1015	2.1	120	0	9
2026-02-13T14:25	1.7	1015	1.7	120	0	7
2026-02-13T14:26	1.5	1015	1.5	130	0	5
2026-02-13T14:27	1.7	1015	1.7	130	0	4
2026-02-13T14:28	1.6	1015	1.6	130	0	4
2026-02-13T14:29	1.6	1015	1.6	0	0	3
2026-02-13T14:30	1.7	1015	1.7	0	0	3
2026-02-13T14:31	1.6	1015	1.6	0	0	3
2026-02-13T14:32	1.3	1015	1.3	0	0	3
2026-02-13T14:33	1.5	1015	1.5	0	0	3
2026-02-13T14:34	1.6	1015	1.6	0	0	3
2026-02-13T14:35	1.6	1015	1.6	0	0	4
2026-02-13T14:36	1.8	1015	1.8	0	0	4
2026-02-13T14:37	1.8	1015	1.8	0	0	5
2026-02-13T14:38	1.6	1015	1.6	0	0	6
2026-02-13T14:39	1.7	1015	1.7	0	0	8
2026-02-13T14:40	1.9	1015	1.9	0	0	10
2026-02-13T14:41	1.7	1015	1.7	0	0	10
2026-02-13T14:42	1.7	1015	1.7	0	0	10
2026-02-13T14:43	2.0	1016	2.0	0	0	10
2026-02-13T14:44	2.0	1016	2.0	0	0	10
2026-02-13T14:45	2.0	1016	2.0	0	0	11
2026-02-13T14:46	1.6	1016	1.6	110	0	9
2026-02-13T14:47	1.7	1016	1.7	110	0	9
2026-02-13T14:48	1.9	1016	1.9	120	0	9
2026-02-13T14:49	1.8	1016	1.8	0	0	9
2026-02-13T14:50	1.6	1016	1.6	0	0	7
2026-02-13T14:51	1.3	1016	1.3	100	0	7
2026-02-13T14:52	1.5	1016	1.5	100	0	7
2026-02-13T14:53	1.5	1016	1.5	90	0	6
2026-02-13T14:54	1.5	1016	1.5	80	0	6
2026-02-13T14:55	1.4	1016	1.4	0	0	6
2026-02-13T14:56	1.3	1016	1.3	0	0	8
2026-02-13T14:57	1.5	1016	1.5	0	0	8
2026-02-13T14:58	1.6	1016	1.6	0	0	8
2026-02-13T14:59	1.5	1016	1.5	0	0	8
2026-02-13T15:00	1.4	1016	1.4	0	0	10
2026-02-13T15:01	1.5	1016	1.5	0	0	12
2026-02-13T15:02	1.6	1016	1.6	0	0	11
2026-02-13T15:03	1.3	1016	1.3	0	0	11
2026-02-13T15:04	1.2	1016	1.2	0	0	11
2026-02-13T15:05	1.4	1016	1.4	0	0	12
2026-02-13T15:06	1.2	1016	1.2	0	0	12
2026-02-13T15:07	1.1	1016	1.1	0	0	12
2026-02-13T15:08	1.2	1015	1.2	0	0	11
2026-02-13T15:09	1.4	1015	1.4	0	0	11
2026-02-13T15:10	1.4	1015	1.4	0	0	11
2026-02-13T15:11	1.3	1016	1.3	0	0	10
2026-02-13T15:12	1.4	1016	1.4	0	0	9
2026-02-13T15:13	1.5	1016	1.5	0	0	9
2026-02-13T15:14	1.2	1016	1.2	0	0	8
2026-02-13T15:15	1.3	1015	1.3	0	0	7
2026-02-13T15:16	1.2	1015	1.2	0	0	5
2026-02-13T15:17	1.1	1015	1.1	0	0	5
2026-02-13T15:18	1.4	1015	1.4	0	0	5
2026-02-13T15:19	1.4	1015	1.4	0	0	4
2026-02-13T15:20	1.3	1015	1.3	0	0	4
2026-02-13T15:21	1.0	1015	1.0	0	0	3
2026-02-13T15:22	0.8	1015	0.8	0	0	3
2026-02-13T15:23	0.8	1015	0.8	0	0	4
2026-02-13T15:24	0.7	1015	0.7	0	0	4
2026-02-13T15:25	0.7	1015	0.7	0	0	4
2026-02-13T15:26	0.9	1015	0.9	260	0	5
2026-02-13T15:27	0.7	1015	0.7	240	0	6
2026-02-13T15:28	0.5	1015	0.5	240	1	7
2026-02-13T15:29	0.5	1015	0.5	230	1	9
2026-02-13T15:30	0.2	1015	0.2	230	1	15
2026-02-13T15:31	0.1	1015	0.1	230	1	42
2026-02-13T15:32	0.0	1015	0.0	240	1	42
2026-02-13T15:33	0.2	1015	0.2	240	1	40
2026-02-13T15:34	0.5	1015	0.5	240	1	38
2026-02-13T15:35	0.7	1015	0.7	240	1	35
2026-02-13T15:36	0.8	1015	0.8	240	1	32
2026-02-13T15:37	0.7	1015	0.7	240	1	30
2026-02-13T15:38	0.6	1016	0.6	240	1	24
2026-02-13T15:39	0.5	1016	0.5	240	1	22
2026-02-13T15:40	0.6	1016	0.6	240	1	21
2026-02-13T15:41	0.9	1016	0.9	240	1	19
2026-02-13T15:42	0.7	1016	0.7	240	1	19
2026-02-13T15:43	0.1	1016	0.1	240	1	19
2026-02-13T15:44	0.3	1016	0.3	250	1	18
2026-02-13T15:45	0.4	1016	0.4	250	1	19
2026-02-13T15:46	0.6	1016	0.6	250	1	20
2026-02-13T15:47	0.4	1016	0.4	260	1	20
2026-02-13T15:48	0.2	1016	0.2	260	1	21
2026-02-13T15:49	0.4	1016	0.4	270	1	22
2026-02-13T15:50	0.4	1016	0.4	270	1	23
2026-02-13T15:51	0.6	1016	0.6	270	0	24
2026-02-13T15:52	0.6	1016	0.6	270	0	27
2026-02-13T15:53	0.5	1016	0.5	270	0	26
2026-02-13T15:54	0.4	1016	0.4	270	0	25
2026-02-13T15:55	0.4	1016	0.4	0	0	23
2026-02-13T15:56	0.6	1016	0.6	0	0	20
2026-02-13T15:57	0.5	1016	0.5	0	0	16
2026-02-13T15:58	0.8	1016	0.8	0	0	16
2026-02-13T15:59	0.7	1016	0.7	0	0	16
2026-02-13T16:00	0.5	1016	0.5	0	0	16
2026-02-13T16:01	0.5	1016	0.5	0	0	15
2026-02-13T16:02	0.3	1016	0.3	0	0	12
2026-02-13T16:03	0.5	1016	0.5	0	0	7
2026-02-13T16:04	0.7	1016	0.7	0	0	5
2026-02-13T16:05	0.9	1016	0.9	0	0	5
2026-02-13T16:06	0.8	1016	0.8	0	0	4
2026-02-13T16:07	0.6	1016	0.6	0	0	4
2026-02-13T16:08	0.6	1016	0.6	0	0	4
2026-02-13T16:09	0.6	1016	0.6	0	0	4
2026-02-13T16:10	0.5	1016	0.5	0	0	4
2026-02-13T16:11	0.6	1016	0.6	0	0	4
2026-02-13T16:12	0.7	1016	0.7	0	0	4
2026-02-13T16:13	0.7	1016	0.7	0	0	5
2026-02-13T16:14	0.8	1016	0.8	0	0	7
2026-02-13T16:15	0.8	1016	0.8	0	0	7
2026-02-13T16:16	0.8	1016	0.8	0	0	9
2026-02-13T16:17	0.8	1016	0.8	0	0	9
2026-02-13T16:18	0.5	1016	0.5	0	0	8
2026-02-13T16:19	0.3	1016	0.3	0	0	6
2026-02-13T16:20	0.3	1016	0.3	140	0	4
2026-02-13T16:21	0.3	1016	0.3	0	0	4
2026-02-13T16:22	0.4	1016	0.4	0	0	4
2026-02-13T16:23	0.2	1016	0.2	0	0	4
2026-02-13T16:24	0.2	1016	0.2	0	0	4
2026-02-13T16:25	0.4	1016	0.4	0	0	4
2026-02-13T16:26	0.3	1016	0.3	0	0	4
2026-02-13T16:27	0.0	1016	0.0	170	0	4
2026-02-13T16:28	-0.2	1016	-0.2	180	0	5
2026-02-13T16:29	-0.3	1016	-0.3	190	0	7
2026-02-13T16:30	-0.3	1016	-0.3	200	0	10
2026-02-13T16:31	-0.2	1016	-0.2	220	0	19
2026-02-13T16:32	0.0	1016	0.0	230	1	21
2026-02-13T16:33	0.2	1016	0.2	240	1	18
2026-02-13T16:34	0.1	1016	0.1	240	1	16
2026-02-13T16:35	0.0	1016	0.0	250	0	15
2026-02-13T16:36	-0.1	1016	-0.1	250	0	12
2026-02-13T16:37	0.0	1016	0.0	250	0	11
2026-02-13T16:38	-0.2	1016	-0.2	0	0	10
2026-02-13T16:39	-0.4	1016	-0.4	0	0	9
2026-02-13T16:40	-0.1	1016	-0.1	0	0	8
2026-02-13T16:41	0.0	1016	0.0	0	0	7
2026-02-13T16:42	0.3	1016	0.3	0	0	5
2026-02-13T16:43	0.1	1016	0.1	0	0	5
2026-02-13T16:44	0.1	1016	0.1	0	0	4
2026-02-13T16:45	0.4	1016	0.4	0	0	4
2026-02-13T16:46	0.3	1016	0.3	0	0	4
2026-02-13T16:47	0.2	1016	0.2	0	0	3
2026-02-13T16:48	0.2	1016	0.2	0	0	3
2026-02-13T16:49	0.3	1016	0.3	0	0	3
2026-02-13T16:50	0.4	1016	0.4	0	0	3
2026-02-13T16:51	0.4	1016	0.4	0	0	3
2026-02-13T16:52	0.4	1016	0.4	0	0	3
2026-02-13T16:53	0.3	1016	0.3	0	0	3
2026-02-13T16:54	0.3	1016	0.3	0	0	4
2026-02-13T16:55	0.5	1016	0.5	0	0	3
2026-02-13T16:56	0.4	1016	0.4	0	0	4
2026-02-13T16:57	0.5	1016	0.5	0	0	4
2026-02-13T16:58	0.5	1016	0.5	80	0	5
2026-02-13T16:59	0.4	1016	0.4	90	0	5
2026-02-13T17:00	0.4	1016	0.4	100	1	5
2026-02-13T17:01	0.4	1016	0.4	100	1	6
2026-02-13T17:02	0.3	1016	0.3	110	1	5
2026-02-13T17:03	0.2	1016	0.2	110	1	6
2026-02-13T17:04	0.2	1016	0.2	110	1	6
2026-02-13T17:05	0.0	1016	0.0	120	1	6
2026-02-13T17:06	-0.1	1016	-0.1	120	1	7
2026-02-13T17:07	0.0	1016	0.0	120	1	9
2026-02-13T17:08	0.0	1016	0.0	120	1	10
2026-02-13T17:09	0.0	1016	0.0	120	1	13
2026-02-13T17:10	0.1	1016	0.1	120	1	13
2026-02-13T17:11	0.1	1016	0.1	120	0	14
2026-02-13T17:12	0.2	1016	0.2	120	0	18
2026-02-13T17:13	0.2	1016	0.2	120	0	19
2026-02-13T17:14	0.1	1016	0.1	120	0	18
2026-02-13T17:15	0.1	1016	0.1	120	0	17
2026-02-13T17:16	0.0	1016	0.0	120	0	16
2026-02-13T17:17	-0.2	1016	-0.2	130	0	15
2026-02-13T17:18	-0.3	1016	-0.3	130	0	15
2026-02-13T17:19	-0.1	1016	-0.1	130	0	14
2026-02-13T17:20	-0.1	1016	-0.1	140	0	13
2026-02-13T17:21	-0.5	1016	-0.5	140	0	13
2026-02-13T17:22	-0.7	1016	-0.7	150	0	14
2026-02-13T17:23	-0.6	1016	-0.6	280	0	14
2026-02-13T17:24	-0.6	1016	-0.6	200	0	14
2026-02-13T17:25	-0.5	1016	-0.5	240	0	15
2026-02-13T17:26	-0.6	1016	-0.6	260	0	15
2026-02-13T17:27	-0.5	1016	-0.5	280	0	15
2026-02-13T17:28	-0.3	1016	-0.3	290	1	14
2026-02-13T17:29	-0.4	1016	-0.4	300	1	14
2026-02-13T17:30	-1.0	1016	-1.0	300	1	13
2026-02-13T17:31	-0.7	1016	-0.7	300	1	12
2026-02-13T17:32	-0.6	1016	-0.6	300	1	11
2026-02-13T17:33	-0.7	1016	-0.7	300	1	10
2026-02-13T17:34	-0.6	1016	-0.6	300	1	10
2026-02-13T17:35	-0.6	1016	-0.6	300	1	11
2026-02-13T17:36	-0.6	1016	-0.6	310	1	11
2026-02-13T17:37	-0.8	1016	-0.8	310	1	11
2026-02-13T17:38	-1.0	1016	-1.0	310	1	11
2026-02-13T17:39	-0.6	1016	-0.6	310	1	11
2026-02-13T17:40	-1.0	1016	-1.0	310	1	10
2026-02-13T17:41	-1.0	1016	-1.0	310	1	9
2026-02-13T17:42	-1.1	1016	-1.1	310	1	9
2026-02-13T17:43	-1.3	1016	-1.3	310	1	9
2026-02-13T17:44	-1.2	1016	-1.2	320	1	9
2026-02-13T17:45	-1.2	1016	-1.2	320	1	9
2026-02-13T17:46	-1.1	1016	-1.1	310	1	9
2026-02-13T17:47	-0.9	1016	-0.9	310	1	9
2026-02-13T17:48	-0.8	1016	-0.8	310	1	9
2026-02-13T17:49	-0.6	1016	-0.6	310	1	9
2026-02-13T17:50	-0.6	1016	-0.6	310	1	10
2026-02-13T17:51	-0.6	1016	-0.6	320	1	12
2026-02-13T17:52	-0.4	1016	-0.4	320	1	13
2026-02-13T17:53	-0.5	1016	-0.5	320	1	13
2026-02-13T17:54	-0.5	1016	-0.5	320	1	12
2026-02-13T17:55	-0.5	1016	-0.5	320	1	11
2026-02-13T17:56	-0.4	1016	-0.4	330	1	9
2026-02-13T17:57	-0.3	1016	-0.3	330	1	9
2026-02-13T17:58	-0.4	1016	-0.4	330	1	9
2026-02-13T17:59	-0.9	1016	-0.9	330	1	7
2026-02-13T18:00	-0.8	1016	-0.8	330	1	7
2026-02-13T18:01	-0.7	1016	-0.7	320	1	6
2026-02-13T18:02	-0.5	1016	-0.5	320	0	6
2026-02-13T18:03	-0.4	1016	-0.4	310	0	6
2026-02-13T18:04	-0.4	1016	-0.4	0	0	6
2026-02-13T18:05	-0.3	1016	-0.3	0	0	5
2026-02-13T18:06	-0.5	1016	-0.5	0	0	5
2026-02-13T18:07	-0.7	1016	-0.7	0	0	4
2026-02-13T18:08	-0.7	1016	-0.7	0	0	4
2026-02-13T18:09	-0.7	1016	-0.7	0	0	3
2026-02-13T18:10	-0.7	1016	-0.7	0	0	3
2026-02-13T18:11	-0.6	1016	-0.6	250	0	3
2026-02-13T18:12	-0.9	1016	-0.9	240	0	3
2026-02-13T18:13	-0.6	1016	-0.6	230	0	2
2026-02-13T18:14	-0.4	1016	-0.4	220	0	2
2026-02-13T18:15	-0.5	1016	-0.5	210	0	2
2026-02-13T18:16	-0.5	1016	-0.5	210	0	2
2026-02-13T18:17	-0.2	1016	-0.2	200	0	3
2026-02-13T18:18	-0.2	1016	-0.2	190	0	3
2026-02-13T18:19	-0.2	1016	-0.2	180	0	3
2026-02-13T18:20	-0.3	1016	-0.3	170	0	3
2026-02-13T18:21	-0.6	1016	-0.6	160	0	3
2026-02-13T18:22	-0.5	1016	-0.5	140	0	2
2026-02-13T18:23	-0.4	1016	-0.4	140	0	2
2026-02-13T18:24	-0.4	1016	-0.4	130	0	2
2026-02-13T18:25	-0.3	1016	-0.3	120	1	2
2026-02-13T18:26	-0.3	1015	-0.3	120	1	2
2026-02-13T18:27	-0.3	1015	-0.3	120	1	2
2026-02-13T18:28	-0.3	1015	-0.3	120	1	2
2026-02-13T18:29	-0.3	1015	-0.3	130	1	2
2026-02-13T18:30	-0.2	1015	-0.2	130	1	2
2026-02-13T18:31	-0.2	1015	-0.2	130	1	2
2026-02-13T18:32	-0.3	1015	-0.3	140	1	3
2026-02-13T18:33	-0.3	1015	-0.3	140	1	3
2026-02-13T18:34	-0.7	1015	-0.7	140	0	3
2026-02-13T18:35	-1.0	1015	-1.0	140	0	2
2026-02-13T18:36	-0.8	1015	-0.8	140	0	2
2026-02-13T18:37	-0.6	1015	-0.6	140	0	2
2026-02-13T18:38	-0.5	1015	-0.5	130	0	2
2026-02-13T18:39	-0.8	1015	-0.8	130	0	2
2026-02-13T18:40	-0.9	1015	-0.9	0	0	1
2026-02-13T18:41	-0.6	1015	-0.6	0	0	1
2026-02-13T18:42	-0.5	1015	-0.5	0	0	1
2026-02-13T18:43	-0.5	1015	-0.5	0	0	1
2026-02-13T18:44	-0.6	1015	-0.6	0	0	1
2026-02-13T18:45	-0.7	1015	-0.7	0	0	1
2026-02-13T18:46	-0.7	1015	-0.7	0	0	1
2026-02-13T18:47	-0.7	1015	-0.7	0	0	1
2026-02-13T18:48	-0.8	1015	-0.8	0	0	1
2026-02-13T18:49	-1.0	1016	-1.0	0	0	1
2026-02-13T18:50	-1.0	1016	-1.0	0	0	1
2026-02-13T18:51	-0.9	1016	-0.9	0	0	1
2026-02-13T18:52	-1.0	1016	-1.0	0	0	1
2026-02-13T18:53	-0.9	1016	-0.9	0	0	1
2026-02-13T18:54	-0.9	1016	-0.9	0	0	1
2026-02-13T18:55	-1.0	1016	-1.0	0	0	1
2026-02-13T18:56	-1.1	1016	-1.1	0	0	1
2026-02-13T18:57	-1.3	1016	-1.3	0	0	1
2026-02-13T18:58	-1.3	1016	-1.3	0	0	1
2026-02-13T18:59	-1.2	1016	-1.2	0	0	1
2026-02-13T19:00	-1.0	1016	-1.0	0	0	1
2026-02-13T19:01	-0.9	1016	-0.9	0	0	1
2026-02-13T19:02	-1.0	1016	-1.0	0	0	1
2026-02-13T19:03	-1.0	1016	-1.0	0	0	1
2026-02-13T19:04	-1.0	1016	-1.0	0	0	1
2026-02-13T19:05	-0.9	1016	-0.9	0	0	1
2026-02-13T19:06	-0.9	1016	-0.9	0	0	1
2026-02-13T19:07	-0.9	1016	-0.9	0	0	1
2026-02-13T19:08	-1.0	1016	-1.0	140	0	1
2026-02-13T19:09	-0.9	1016	-0.9	130	0	1
2026-02-13T19:10	-1.0	1016	-1.0	130	0	1
2026-02-13T19:11	-1.0	1016	-1.0	130	0	1
2026-02-13T19:12	-1.1	1016	-1.1	120	0	1
2026-02-13T19:13	-1.2	1016	-1.2	110	0	1
2026-02-13T19:14	-1.0	1016	-1.0	110	0	1
2026-02-13T19:15	-1.2	1016	-1.2	100	0	1
2026-02-13T19:16	-1.0	1016	-1.0	90	0	1
2026-02-13T19:17	-1.0	1016	-1.0	80	0	1
2026-02-13T19:18	-1.0	1016	-1.0	80	0	1
2026-02-13T19:19	-1.3	1016	-1.3	0	0	1
2026-02-13T19:20	-1.1	1016	-1.1	0	0	1
2026-02-13T19:21	-1.0	1016	-1.0	0	0	1
2026-02-13T19:22	-1.3	1016	-1.3	0	0	2
2026-02-13T19:23	-1.5	1016	-1.5	0	0	2
2026-02-13T19:24	-1.2	1016	-1.2	0	0	2
2026-02-13T19:25	-1.1	1016	-1.1	0	0	3
2026-02-13T19:26	-1.0	1016	-1.0	0	0	3
2026-02-13T19:27	-1.1	1016	-1.1	0	0	3
2026-02-13T19:28	-1.1	1016	-1.1	0	0	3
2026-02-13T19:29	-1.2	1016	-1.2	100	0	2
2026-02-13T19:30	-1.1	1016	-1.1	100	0	2
2026-02-13T19:31	-1.2	1016	-1.2	110	0	2
2026-02-13T19:32	-1.4	1016	-1.4	110	1	1
2026-02-13T19:33	-1.3	1016	-1.3	120	1	1
2026-02-13T19:34	-1.2	1016	-1.2	120	1	1
2026-02-13T19:35	-1.2	1016	-1.2	120	1	2
2026-02-13T19:36	-1.4	1016	-1.4	120	1	2
2026-02-13T19:37	-1.4	1016	-1.4	130	1	2
2026-02-13T19:38	-1.2	1016	-1.2	130	1	2
2026-02-13T19:39	-1.2	1016	-1.2	130	1	3
2026-02-13T19:40	-1.6	1016	-1.6	140	1	4
2026-02-13T19:41	-1.6	1016	-1.6	150	1	6
2026-02-13T19:42	-1.6	1016	-1.6	150	1	9
2026-02-13T19:43	-1.5	1016	-1.5	160	1	13
2026-02-13T19:44	-1.2	1016	-1.2	160	1	15
2026-02-13T19:45	-1.4	1016	-1.4	160	1	16
2026-02-13T19:46	-1.5	1016	-1.5	170	1	17
2026-02-13T19:47	-1.5	1016	-1.5	180	0	19
2026-02-13T19:48	-1.5	1016	-1.5	180	0	20
2026-02-13T19:49	-1.4	1016	-1.4	190	0	19
2026-02-13T19:50	-1.6	1016	-1.6	190	0	18
2026-02-13T19:51	-1.8	1016	-1.8	210	0	17
2026-02-13T19:52	-1.9	1016	-1.9	320	0	16
2026-02-13T19:53	-1.8	1016	-1.8	0	0	16
2026-02-13T19:54	-1.6	1016	-1.6	0	0	15
2026-02-13T19:55	-1.5	1016	-1.5	310	0	15
2026-02-13T19:56	-1.7	1016	-1.7	310	0	15
2026-02-13T19:57	-1.8	1016	-1.8	320	0	15
2026-02-13T19:58	-1.8	1016	-1.8	320	0	16
2026-02-13T19:59	-1.6	1016	-1.6	0	0	17
2026-02-13T20:00	-1.6	1016	-1.6	0	0	17
2026-02-13T20:01	-1.5	1016	-1.5	0	0	16
2026-02-13T20:02	-1.6	1016	-1.6	0	0	16
2026-02-13T20:03	-1.5	1016	-1.5	0	0	15
2026-02-13T20:04	-1.5	1016	-1.5	0	0	15
2026-02-13T20:05	-1.6	1016	-1.6	310	0	15
2026-02-13T20:06	-1.4	1016	-1.4	320	0	14
2026-02-13T20:07	-1.5	1016	-1.5	320	0	13
2026-02-13T20:08	-1.5	1016	-1.5	330	1	13
2026-02-13T20:09	-1.2	1016	-1.2	340	1	12
2026-02-13T20:10	-1.2	1016	-1.2	350	1	12
2026-02-13T20:11	-1.3	1016	-1.3	360	1	12
2026-02-13T20:12	-1.3	1016	-1.3	360	1	12
2026-02-13T20:13	-1.2	1016	-1.2	10	1	12
2026-02-13T20:14	-1.1	1016	-1.1	10	1	11
2026-02-13T20:15	-1.1	1016	-1.1	20	0	10
2026-02-13T20:16	-1.4	1016	-1.4	20	0	9
2026-02-13T20:17	-1.5	1016	-1.5	30	0	9
2026-02-13T20:18	-1.7	1016	-1.7	20	0	9
2026-02-13T20:19	-1.7	1016	-1.7	20	0	9
2026-02-13T20:20	-1.7	1016	-1.7	20	0	10
2026-02-13T20:21	-1.6	1016	-1.6	10	0	10
2026-02-13T20:22	-1.8	1016	-1.8	10	1	10
2026-02-13T20:23	-1.6	1016	-1.6	360	1	11
2026-02-13T20:24	-1.5	1016	-1.5	350	1	11
2026-02-13T20:25	-1.5	1016	-1.5	350	1	12
2026-02-13T20:26	-1.6	1016	-1.6	340	1	14
2026-02-13T20:27	-1.6	1016	-1.6	340	1	14
2026-02-13T20:28	-1.5	1016	-1.5	330	1	14
2026-02-13T20:29	-1.4	1016	-1.4	330	1	14
2026-02-13T20:30	-1.4	1016	-1.4	330	1	14
2026-02-13T20:31	-1.6	1016	-1.6	330	1	13
2026-02-13T20:32	-1.6	1017	-1.6	330	1	13
2026-02-13T20:33	-1.6	1017	-1.6	330	1	13
2026-02-13T20:34	-1.9	1017	-1.9	320	1	13
2026-02-13T20:35	-1.9	1017	-1.9	320	1	13
2026-02-13T20:36	-1.7	1017	-1.7	320	1	14
2026-02-13T20:37	-1.9	1017	-1.9	310	1	14
2026-02-13T20:38	-2.0	1017	-2.0	300	1	15
2026-02-13T20:39	-2.0	1017	-2.0	290	1	16
2026-02-13T20:40	-2.1	1017	-2.1	280	1	16
2026-02-13T20:41	-2.1	1017	-2.1	270	1	18
2026-02-13T20:42	-2.2	1017	-2.2	250	1	19
2026-02-13T20:43	-2.1	1017	-2.1	240	1	21
2026-02-13T20:44	-2.1	1017	-2.1	240	1	21
2026-02-13T20:45	-2.1	1017	-2.1	230	1	21
2026-02-13T20:46	-2.2	1017	-2.2	230	1	21
2026-02-13T20:47	-2.1	1017	-2.1	230	1	22
2026-02-13T20:48	-2.1	1017	-2.1	230	1	22
2026-02-13T20:49	-2.1	1017	-2.1	230	1	23
2026-02-13T20:50	-2.1	1017	-2.1	230	1	24
2026-02-13T20:51	-2.0	1017	-2.0	230	1	24
2026-02-13T20:52	-1.9	1017	-1.9	230	1	25
2026-02-13T20:53	-1.9	1017	-1.9	220	1	25
2026-02-13T20:54	-2.0	1017	-2.0	220	1	25
2026-02-13T20:55	-1.9	1017	-1.9	220	1	24
2026-02-13T20:56	-1.9	1017	-1.9	210	1	23
2026-02-13T20:57	-2.1	1017	-2.1	210	1	22
2026-02-13T20:58	-2.2	1017	-2.2	210	0	21
2026-02-13T20:59	-2.3	1017	-2.3	210	0	22
2026-02-13T21:00	-2.3	1017	-2.3	210	0	21
2026-02-13T21:01	-2.3	1017	-2.3	220	0	21
2026-02-13T21:02	-2.3	1017	-2.3	220	0	20
2026-02-13T21:03	-2.4	1017	-2.4	230	0	19
2026-02-13T21:04	-2.2	1017	-2.2	230	0	19
2026-02-13T21:05	-1.9	1017	-1.9	0	0	20
2026-02-13T21:06	-1.9	1017	-1.9	0	0	19
2026-02-13T21:07	-1.9	1017	-1.9	0	0	19
2026-02-13T21:08	-2.0	1017	-2.0	0	0	16
2026-02-13T21:09	-2.2	1017	-2.2	0	0	16
2026-02-13T21:10	-2.0	1017	-2.0	0	0	16
2026-02-13T21:11	-2.0	1017	-2.0	0	0	15
2026-02-13T21:12	-1.9	1017	-1.9	0	0	15
2026-02-13T21:13	-2.0	1017	-2.0	0	0	13
2026-02-13T21:14	-2.1	1017	-2.1	0	0	12
2026-02-13T21:15	-2.0	1017	-2.0	200	0	12
2026-02-13T21:16	-2.0	1017	-2.0	190	0	12
2026-02-13T21:17	-2.0	1017	-2.0	180	0	12
2026-02-13T21:18	-2.1	1017	-2.1	170	0	13
2026-02-13T21:19	-2.2	1017	-2.2	160	1	13
2026-02-13T21:20	-2.2	1017	-2.2	160	1	13
2026-02-13T21:21	-2.3	1017	-2.3	160	1	14
2026-02-13T21:22	-2.5	1017	-2.5	160	1	15
2026-02-13T21:23	-2.7	1017	-2.7	160	1	18
2026-02-13T21:24	-2.4	1017	-2.4	160	0	19
2026-02-13T21:25	-2.4	1017	-2.4	170	0	22
2026-02-13T21:26	-2.4	1017	-2.4	170	0	25
2026-02-13T21:27	-2.4	1017	-2.4	0	0	27
2026-02-13T21:28	-2.4	1017	-2.4	0	0	29
2026-02-13T21:29	-2.4	1017	-2.4	0	0	30
2026-02-13T21:30	-2.4	1017	-2.4	0	0	30
2026-02-13T21:31	-2.3	1017	-2.3	0	0	27
2026-02-13T21:32	-2.3	1017	-2.3	0	0	26
2026-02-13T21:33	-2.1	1017	-2.1	0	0	25
2026-02-13T21:34	-2.2	1017	-2.2	0	0	24
2026-02-13T21:35	-2.4	1017	-2.4	0	0	23
2026-02-13T21:36	-2.3	1017	-2.3	0	0	22
2026-02-13T21:37	-2.4	1017	-2.4	0	0	22
2026-02-13T21:38	-2.4	1017	-2.4	0	0	22
2026-02-13T21:39	-2.4	1017	-2.4	0	0	22
2026-02-13T21:40	-2.5	1017	-2.5	0	0	23
2026-02-13T21:41	-2.3	1017	-2.3	0	0	24
2026-02-13T21:42	-2.3	1017	-2.3	0	0	24
2026-02-13T21:43	-2.5	1017	-2.5	0	0	25
2026-02-13T21:44	-2.7	1017	-2.7	190	0	27
2026-02-13T21:45	-2.7	1017	-2.7	180	0	28
2026-02-13T21:46	-2.5	1017	-2.5	180	0	27
2026-02-13T21:47	-2.3	1017	-2.3	170	1	26
2026-02-13T21:48	-2.1	1017	-2.1	160	1	26
2026-02-13T21:49	-2.1	1017	-2.1	160	1	25
2026-02-13T21:50	-2.0	1017	-2.0	150	1	24
2026-02-13T21:51	-1.9	1017	-1.9	150	1	24
2026-02-13T21:52	-1.8	1017	-1.8	150	1	24
2026-02-13T21:53	-1.8	1017	-1.8	160	1	24
2026-02-13T21:54	-1.9	1017	-1.9	160	1	23
2026-02-13T21:55	-1.9	1017	-1.9	160	1	23
2026-02-13T21:56	-1.8	1017	-1.8	170	1	23
2026-02-13T21:57	-1.7	1017	-1.7	170	1	22
2026-02-13T21:58	-1.7	1017	-1.7	170	1	22
2026-02-13T21:59	-1.6	1017	-1.6	170	1	22
2026-02-13T22:00	-1.6	1017	-1.6	170	1	22
2026-02-13T22:01	-1.6	1018	-1.6	170	1	22
2026-02-13T22:02	-1.6	1018	-1.6	180	1	23
2026-02-13T22:03	-1.8	1018	-1.8	180	1	23
2026-02-13T22:04	-1.7	1018	-1.7	180	1	23
2026-02-13T22:05	-1.7	1018	-1.7	180	1	23
2026-02-13T22:06	-1.6	1018	-1.6	180	1	23
2026-02-13T22:07	-1.6	1018	-1.6	180	1	24
2026-02-13T22:08	-1.5	1018	-1.5	180	1	25
2026-02-13T22:09	-1.4	1018	-1.4	180	1	25
2026-02-13T22:10	-1.4	1018	-1.4	180	1	25
2026-02-13T22:11	-1.4	1018	-1.4	180	1	24
2026-02-13T22:12	-1.4	1018	-1.4	170	0	24
2026-02-13T22:13	-1.3	1018	-1.3	170	0	24
2026-02-13T22:14	-1.2	1018	-1.2	170	0	23
2026-02-13T22:15	-1.2	1018	-1.2	160	0	23
2026-02-13T22:16	-1.3	1018	-1.3	160	0	23
2026-02-13T22:17	-1.4	1018	-1.4	150	0	22
2026-02-13T22:18	-1.4	1018	-1.4	150	0	21
2026-02-13T22:19	-1.3	1018	-1.3	140	0	21
2026-02-13T22:20	-1.2	1018	-1.2	140	0	20
2026-02-13T22:21	-1.2	1018	-1.2	140	0	20
2026-02-13T22:22	-1.1	1018	-1.1	140	0	20
2026-02-13T22:23	-1.0	1018	-1.0	140	0	19
2026-02-13T22:24	-1.2	1018	-1.2	140	0	19
2026-02-13T22:25	-0.9	1018	-0.9	140	0	19
2026-02-13T22:26	-0.7	1018	-0.7	140	0	19
2026-02-13T22:27	-0.7	1018	-0.7	0	0	20
2026-02-13T22:28	-0.7	1018	-0.7	0	0	20
2026-02-13T22:29	-0.6	1018	-0.6	0	0	21
2026-02-13T22:30	-0.5	1018	-0.5	0	0	22
2026-02-13T22:31	-0.9	1018	-0.9	0	0	22
2026-02-13T22:32	-1.0	1018	-1.0	0	0	22
2026-02-13T22:33	-0.7	1018	-0.7	0	0	22
2026-02-13T22:34	-0.7	1018	-0.7	0	0	22
2026-02-13T22:35	-0.6	1018	-0.6	0	0	22
2026-02-13T22:36	-0.5	1018	-0.5	0	0	23
2026-02-13T22:37	-0.4	1018	-0.4	0	0	23
2026-02-13T22:38	-0.3	1018	-0.3	0	0	24
2026-02-13T22:39	-0.3	1018	-0.3	0	0	25
2026-02-13T22:40	-0.3	1018	-0.3	0	0	24
2026-02-13T22:41	-0.4	1018	-0.4	0	0	25
2026-02-13T22:42	-0.5	1018	-0.5	0	0	26
2026-02-13T22:43	-0.4	1018	-0.4	0	0	28
2026-02-13T22:44	-0.2	1018	-0.2	0	0	30
2026-02-13T22:45	-0.2	1018	-0.2	0	0	32
2026-02-13T22:46	0.0	1018	0.0	0	0	32
2026-02-13T22:47	0.2	1018	0.2	0	0	32
2026-02-13T22:48	0.4	1018	0.4	0	0	30
2026-02-13T22:49	0.5	1018	0.5	0	0	29
2026-02-13T22:50	0.5	1018	0.5	10	0	28
2026-02-13T22:51	0.5	1018	0.5	360	0	28
2026-02-13T22:52	0.5	1018	0.5	350	1	27
2026-02-13T22:53	0.5	1018	0.5	340	1	26
2026-02-13T22:54	0.6	1018	0.6	340	1	25
2026-02-13T22:55	0.7	1018	0.7	340	1	25
2026-02-13T22:56	0.9	1018	0.9	340	1	24
2026-02-13T22:57	1.0	1018	1.0	340	1	24
2026-02-13T22:58	1.1	1018	1.1	340	1	25
2026-02-13T22:59	1.1	1018	1.1	350	1	26
2026-02-13T23:00	1.2	1018	1.2	350	1	29
2026-02-13T23:01	1.5	1018	1.5	350	1	31
2026-02-13T23:02	1.5	1018	1.5	350	1	34
2026-02-13T23:03	1.4	1018	1.4	350	1	37
2026-02-13T23:04	1.5	1018	1.5	350	1	40
2026-02-13T23:05	1.5	1018	1.5	350	1	41
2026-02-13T23:06	1.8	1018	1.8	350	1	45
2026-02-13T23:07	2.0	1018	2.0	350	1	49
2026-02-13T23:08	2.1	1018	2.1	350	1	55
2026-02-13T23:09	2.0	1018	2.0	340	1	55
2026-02-13T23:10	1.9	1018	1.9	340	1	55
2026-02-13T23:11	2.0	1018	2.0	340	1	55
2026-02-13T23:12	2.1	1018	2.1	340	1	55
2026-02-13T23:13	2.1	1018	2.1	340	1	55
2026-02-13T23:14	2.1	1018	2.1	340	1	55
2026-02-13T23:15	2.1	1018	2.1	340	1	56
2026-02-13T23:16	2.1	1018	2.1	340	1	56
2026-02-13T23:17	2.2	1018	2.1	340	1	56
2026-02-13T23:18	2.2	1018	2.1	340	1	57
2026-02-13T23:19	2.2	1018	1.9	340	1	57
2026-02-13T23:20	2.2	1018	1.8	340	1	57
2026-02-13T23:21	2.4	1018	2.0	340	1	58
2026-02-13T23:22	2.6	1018	2.2	350	1	59
2026-02-13T23:23	2.6	1018	2.0	350	1	59
2026-02-13T23:24	2.5	1018	1.8	350	1	59
2026-02-13T23:25	2.6	1018	1.7	350	1	59
2026-02-13T23:26	2.7	1018	1.8	340	1	59
2026-02-13T23:27	2.7	1018	1.8	340	2	59
2026-02-13T23:28	2.7	1018	1.8	340	2	59
2026-02-13T23:29	2.8	1018	1.9	340	2	59
2026-02-13T23:30	2.7	1018	1.8	340	2	59
2026-02-13T23:31	2.8	1018	1.9	340	2	59
2026-02-13T23:32	2.9	1018	2.0	340	2	59
2026-02-13T23:33	3.0	1018	2.0	340	2	59
2026-02-13T23:34	3.1	1018	2.1	340	2	59
2026-02-13T23:35	3.1	1018	2.1	340	2	58
2026-02-13T23:36	3.3	1018	2.3	340	2	58
2026-02-13T23:37	3.4	1018	2.4	340	2	59
2026-02-13T23:38	3.4	1018	2.1	340	2	59
2026-02-13T23:39	3.5	1018	2.2	350	2	59
2026-02-13T23:40	3.6	1018	2.1	350	2	59
2026-02-13T23:41	3.9	1018	2.4	350	2	60
2026-02-13T23:42	4.2	1018	2.7	350	1	60
2026-02-13T23:43	4.5	1018	2.9	350	1	60
2026-02-13T23:44	4.6	1018	2.8	340	1	61
2026-02-13T23:45	4.8	1018	2.7	340	1	61
2026-02-13T23:46	4.8	1018	2.2	330	2	62
2026-02-13T23:47	4.9	1018	2.1	330	2	62
2026-02-13T23:48	5.1	1018	1.9	320	2	62
2026-02-13T23:49	5.1	1018	1.8	320	2	62
2026-02-13T23:50	5.1	1018	1.4	310	2	62
2026-02-13T23:51	5.1	1018	1.2	310	2	63
2026-02-13T23:52	5.2	1018	1.1	310	2	63
2026-02-13T23:53	5.2	1018	1.1	310	2	63
2026-02-13T23:54	5.1	1018	0.9	320	2	64
2026-02-13T23:55	5.3	1018	1.1	320	2	64
2026-02-13T23:56	5.3	1018	1.1	320	2	65
2026-02-13T23:57	5.5	1018	1.4	320	2	65
2026-02-13T23:58	5.4	1018	1.2	320	2	65
2026-02-13T23:59	5.5	1018	1.2	320	2	66
2026-02-14T00:00	5.5	1018	1.2	330	2	66
2026-02-14T00:01	5.6	1018	1.2	330	2	66
2026-02-14T00:02	5.7	1018	1.1	330	2	66
2026-02-14T00:03	5.7	1018	0.9	320	2	67
2026-02-14T00:04	5.7	1018	0.7	320	2	67
2026-02-14T00:05	6.1	1018	1.4	320	2	66
2026-02-14T00:06	6.1	1018	0.9	320	2	65
2026-02-14T00:07	6.3	1018	1.2	320	2	65
2026-02-14T00:08	6.5	1018	1.8	320	2	65
2026-02-14T00:09	6.4	1018	1.3	310	2	65
2026-02-14T00:10	6.5	1018	1.4	300	2	65
2026-02-14T00:11	6.7	1018	1.6	300	2	65
2026-02-14T00:12	6.8	1018	1.7	290	2	64
2026-02-14T00:13	6.4	1018	0.7	290	2	64
2026-02-14T00:14	6.7	1018	1.2	280	2	65
2026-02-14T00:15	6.7	1018	1.2	270	2	66
2026-02-14T00:16	6.7	1018	1.2	270	2	66
2026-02-14T00:17	7.0	1018	1.7	270	2	66
2026-02-14T00:18	7.1	1018	1.6	270	2	66
2026-02-14T00:19	7.0	1018	1.3	270	2	66
2026-02-14T00:20	7.1	1018	1.2	270	2	66
2026-02-14T00:21	7.0	1018	0.7	280	2	67
2026-02-14T00:22	7.0	1018	0.5	280	2	68
2026-02-14T00:23	7.0	1018	0.2	280	2	69
2026-02-14T00:24	7.2	1018	0.6	290	2	69
2026-02-14T00:25	7.3	1018	0.5	290	2	69
2026-02-14T00:26	7.4	1018	0.6	290	2	69
2026-02-14T00:27	7.6	1018	0.8	290	2	70
2026-02-14T00:28	7.8	1018	1.0	290	1	70
2026-02-14T00:29	8.2	1018	1.6	290	2	70
2026-02-14T00:30	8.2	1018	1.1	290	2	70
2026-02-14T00:31	8.0	1018	0.3	290	2	70
2026-02-14T00:32	7.8	1018	-0.2	300	2	70
2026-02-14T00:33	7.9	1018	0.2	300	2	70
2026-02-14T00:34	7.8	1018	-0.2	300	2	70
2026-02-14T00:35	7.6	1018	-0.4	300	2	70
2026-02-14T00:36	7.9	1018	0.2	310	2	70
2026-02-14T00:37	7.9	1018	0.2	310	2	70
2026-02-14T00:38	8.0	1018	0.0	310	2	70
2026-02-14T00:39	8.3	1018	0.5	320	2	70
2026-02-14T00:40	8.6	1018	0.8	320	2	70
2026-02-14T00:41	8.5	1018	0.2	320	3	70
2026-02-14T00:42	8.3	1018	-0.2	320	2	70
2026-02-14T00:43	8.3	1018	-0.4	310	3	70
2026-02-14T00:44	8.5	1018	-0.3	310	3	70
2026-02-14T00:45	8.9	1018	0.4	310	3	70
2026-02-14T00:46	9.1	1018	0.6	300	3	70
2026-02-14T00:47	8.9	1018	-0.4	300	3	70
2026-02-14T00:48	8.6	1018	-0.7	300	3	70
2026-02-14T00:49	8.7	1018	-0.3	300	3	70
2026-02-14T00:50	9.1	1018	0.1	300	3	70
2026-02-14T00:51	9.0	1018	-0.3	300	2	70
2026-02-14T00:52	9.0	1018	-0.3	300	3	70
2026-02-14T00:53	9.0	1018	-0.3	310	2	70
2026-02-14T00:54	9.0	1018	-0.3	310	3	70
2026-02-14T00:55	9.2	1018	-0.1	310	2	70
2026-02-14T00:56	9.2	1018	-0.4	310	2	70
2026-02-14T00:57	8.8	1018	-1.0	310	3	70
2026-02-14T00:58	9.0	1018	-0.6	300	3	70
2026-02-14T00:59	9.3	1018	0.0	300	3	70
2026-02-14T01:00	9.4	1018	0.1	300	3	70
2026-02-14T01:01	9.5	1018	-0.1	290	3	70
2026-02-14T01:02	9.8	1018	0.2	290	3	70
2026-02-14T01:03	9.8	1018	0.2	280	3	70
2026-02-14T01:04	9.7	1018	-0.2	270	3	69
2026-02-14T01:05	9.6	1018	-0.3	270	3	68
2026-02-14T01:06	9.9	1018	0.3	270	3	69
2026-02-14T01:07	9.8	1018	-0.1	270	3	68
2026-02-14T01:08	9.7	1018	-0.5	280	3	69
2026-02-14T01:09	9.7	1018	-0.5	280	3	69
2026-02-14T01:10	9.8	1018	-0.1	290	2	70
2026-02-14T01:11	9.6	1018	-0.6	290	2	70
2026-02-14T01:12	9.3	1018	-0.9	300	2	70
2026-02-14T01:13	9.4	1018	-0.8	300	2	70
2026-02-14T01:14	9.6	1018	-0.3	310	2	70
2026-02-14T01:15	9.5	1018	-0.4	320	2	70
2026-02-14T01:16	9.5	1018	-0.4	330	2	70
2026-02-14T01:17	9.7	1018	-0.2	330	2	70
2026-02-14T01:18	10.1	1018	0.2	320	2	70
2026-02-14T01:19	10.0	1018	-0.2	320	2	70
2026-02-14T01:20	10.1	1018	-0.4	310	2	70
2026-02-14T01:21	10.2	1018	-0.3	310	2	70
2026-02-14T01:22	10.1	1018	-0.4	310	2	70
2026-02-14T01:23	10.4	1018	-0.1	310	2	70
2026-02-14T01:24	10.5	1018	0.0	300	2	70
2026-02-14T01:25	10.7	1018	-0.1	300	2	70
2026-02-14T01:26	10.9	1018	0.1	290	2	70
2026-02-14T01:27	10.8	1018	-0.3	290	2	70
2026-02-14T01:28	10.7	1018	-0.4	290	2	70
2026-02-14T01:29	10.7	1018	-0.4	290	2	70
2026-02-14T01:30	10.6	1018	-0.8	290	2	70
2026-02-14T01:31	10.4	1018	-1.0	290	2	70
2026-02-14T01:32	10.5	1018	-0.6	280	2	70
2026-02-14T01:33	10.5	1018	-0.6	280	2	70
2026-02-14T01:34	10.7	1018	-0.4	290	2	70
2026-02-14T01:35	11.0	1018	-0.1	290	2	70
2026-02-14T01:36	11.0	1018	-0.1	290	2	70
2026-02-14T01:37	11.1	1018	-0.1	290	2	70
2026-02-14T01:38	11.5	1018	0.3	290	2	70
2026-02-14T01:39	11.3	1018	-0.2	280	2	70
2026-02-14T01:40	11.4	1018	-0.1	270	2	70
2026-02-14T01:41	11.3	1018	-1.1	270	2	70
2026-02-14T01:42	11.7	1018	-0.4	270	2	70
2026-02-14T01:43	11.6	1018	-1.2	270	2	70
2026-02-14T01:44	11.6	1018	-1.2	270	2	70
2026-02-14T01:45	11.4	1018	-1.4	270	2	70
2026-02-14T01:46	11.3	1018	-1.5	270	3	70
2026-02-14T01:47	11.3	1018	-1.5	280	3	70
2026-02-14T01:48	11.4	1017	-1.0	280	2	70
2026-02-14T01:49	12.2	1017	0.0	280	2	70
2026-02-14T01:50	12.3	1017	-0.6	280	2	70
2026-02-14T01:51	12.0	1017	-1.5	280	2	70
2026-02-14T01:52	11.7	1017	-1.8	280	2	70
2026-02-14T01:53	12.0	1017	-1.2	280	2	70
2026-02-14T01:54	12.1	1017	-1.4	270	2	70
2026-02-14T01:55	12.2	1017	-1.7	270	2	70
2026-02-14T01:56	12.2	1017	-1.7	260	2	70
2026-02-14T01:57	12.4	1017	-1.5	260	2	70
2026-02-14T01:58	12.6	1017	-1.7	260	3	70
2026-02-14T01:59	12.4	1017	-1.5	260	3	70
2026-02-14T02:00	12.2	1017	-1.7	260	3	70
2026-02-14T02:01	12.2	1017	-1.7	260	3	70
2026-02-14T02:02	12.4	1017	-1.9	260	3	70
2026-02-14T02:03	12.2	1017	-2.8	260	3	70
2026-02-14T02:04	12.3	1017	-2.3	260	3	70
2026-02-14T02:05	12.1	1017	-2.9	260	3	70
2026-02-14T02:06	12.0	1017	-3.0	260	3	70
2026-02-14T02:07	12.1	1017	-2.5	260	3	70
2026-02-14T02:08	12.3	1017	-3.1	260	3	70
2026-02-14T02:09	12.5	1017	-2.1	260	3	70
2026-02-14T02:10	12.9	1017	-1.8	260	3	70
2026-02-14T02:11	12.6	1017	-3.2	270	3	70
2026-02-14T02:12	12.5	1017	-3.3	270	3	70
2026-02-14T02:13	12.5	1017	-2.5	280	3	70
2026-02-14T02:14	12.4	1017	-2.2	290	3	70
2026-02-14T02:15	12.9	1017	-1.8	290	2	70
2026-02-14T02:16	12.8	1017	-2.3	290	2	70
2026-02-14T02:17	12.7	1017	-2.7	290	3	70
2026-02-14T02:18	12.7	1017	-2.7	290	3	70
2026-02-14T02:19	12.3	1017	-3.5	280	2	70
2026-02-14T02:20	12.2	1017	-3.2	280	2	70
2026-02-14T02:21	12.3	1017	-2.3	280	2	70
2026-02-14T02:22	12.4	1017	-2.2	270	2	70
2026-02-14T02:23	12.7	1017	-1.6	270	2	70
2026-02-14T02:24	12.5	1017	-2.1	270	2	70
2026-02-14T02:25	12.7	1017	-2.0	260	2	70
2026-02-14T02:26	13.0	1017	-1.7	260	2	70
2026-02-14T02:27	12.7	1017	-2.4	270	2	70
2026-02-14T02:28	12.2	1017	-3.2	280	2	70
2026-02-14T02:29	12.0	1017	-3.4	290	2	70
2026-02-14T02:30	12.4	1017	-2.6	290	2	70
2026-02-14T02:31	12.7	1017	-2.4	300	2	70
2026-02-14T02:32	12.7	1017	-2.4	300	2	70
2026-02-14T02:33	12.9	1017	-2.2	300	2	70
2026-02-14T02:34	13.0	1017	-2.5	300	2	70
2026-02-14T02:35	13.0	1017	-2.5	300	2	70
2026-02-14T02:36	12.7	1017	-2.7	310	2	70
2026-02-14T02:37	12.5	1017	-2.9	310	2	70
2026-02-14T02:38	12.6	1017	-2.8	310	1	70
2026-02-14T02:39	12.5	1017	-2.9	310	1	70
2026-02-14T02:40	12.9	1017	-2.6	300	1	70
2026-02-14T02:41	13.3	1017	-2.2	290	1	70
2026-02-14T02:42	13.0	1017	-2.9	290	1	70
2026-02-14T02:43	13.2	1017	-2.3	290	2	70
2026-02-14T02:44	13.2	1017	-2.3	290	2	70
2026-02-14T02:45	12.9	1017	-2.6	290	2	70
2026-02-14T02:46	13.0	1017	-2.5	290	2	70
2026-02-14T02:47	13.4	1017	-2.1	290	2	70
2026-02-14T02:48	13.5	1017	-2.0	280	2	70
2026-02-14T02:49	13.0	1017	-2.5	280	2	70
2026-02-14T02:50	12.9	1017	-2.2	270	2	70
2026-02-14T02:51	12.8	1017	-2.3	270	2	70
2026-02-14T02:52	12.6	1017	-2.8	260	2	70
2026-02-14T02:53	12.8	1017	-2.3	260	2	70
2026-02-14T02:54	12.8	1017	-2.3	250	2	70
2026-02-14T02:55	13.2	1017	-1.9	240	2	70
2026-02-14T02:56	13.5	1017	-1.6	230	2	70
2026-02-14T02:57	13.2	1017	-2.3	230	2	70
2026-02-14T02:58	13.2	1017	-2.3	240	2	70
2026-02-14T02:59	13.1	1016	-2.4	230	1	70
2026-02-14T03:00	13.3	1016	-1.8	220	2	70
2026-02-14T03:01	13.4	1016	-1.7	230	2	70
2026-02-14T03:02	13.1	1016	-2.0	240	2	70
2026-02-14T03:03	13.4	1016	-1.0	250	2	70
2026-02-14T03:04	13.4	1016	-1.0	250	2	70
2026-02-14T03:05	13.2	1016	-0.8	260	2	70
2026-02-14T03:06	13.4	1016	-0.2	270	2	70
2026-02-14T03:07	14.1	1016	0.7	260	2	69
2026-02-14T03:08	13.6	1016	-0.1	250	2	69
2026-02-14T03:09	13.2	1016	-0.4	260	2	69
2026-02-14T03:10	13.7	1016	0.4	260	2	70
2026-02-14T03:11	14.4	1016	1.0	250	2	70
2026-02-14T03:12	14.5	1016	0.4	250	2	70
2026-02-14T03:13	13.6	1016	-0.8	260	2	70
2026-02-14T03:14	13.1	1016	-0.9	260	2	70
2026-02-14T03:15	13.2	1016	-0.4	260	2	70
2026-02-14T03:16	13.5	1016	0.2	260	2	70
2026-02-14T03:17	13.3	1016	-0.3	260	2	70
2026-02-14T03:18	13.5	1016	0.2	260	2	70
2026-02-14T03:19	13.6	1016	0.3	270	2	70
2026-02-14T03:20	13.4	1016	0.1	270	2	70
2026-02-14T03:21	13.7	1016	0.7	280	2	70
2026-02-14T03:22	13.4	1016	0.4	290	2	70
2026-02-14T03:23	13.4	1016	0.4	280	2	70
2026-02-14T03:24	13.7	1016	1.0	280	2	70
2026-02-14T03:25	14.2	1016	2.1	280	2	70
2026-02-14T03:26	14.2	1016	1.8	280	2	70
2026-02-14T03:27	13.8	1016	1.1	280	2	70
2026-02-14T03:28	14.0	1016	1.3	270	2	70
2026-02-14T03:29	13.9	1016	1.2	270	2	70
2026-02-14T03:30	14.2	1016	1.8	250	2	70
2026-02-14T03:31	14.1	1016	1.7	240	2	70
2026-02-14T03:32	13.7	1016	1.7	240	2	70
2026-02-14T03:33	14.1	1016	2.0	230	2	70
2026-02-14T03:34	14.2	1016	2.1	220	2	70
2026-02-14T03:35	14.5	1016	2.4	220	2	70
2026-02-14T03:36	14.4	1016	2.0	220	2	70
2026-02-14T03:37	14.1	1016	1.7	210	2	70
2026-02-14T03:38	14.2	1016	2.5	210	2	70
2026-02-14T03:39	14.2	1016	2.5	210	2	70
2026-02-14T03:40	14.1	1016	2.4	220	2	70
2026-02-14T03:41	14.0	1016	2.0	230	2	70
2026-02-14T03:42	13.8	1016	1.8	240	2	70
2026-02-14T03:43	14.2	1016	2.5	250	2	70
2026-02-14T03:44	14.8	1016	3.3	260	2	70
2026-02-14T03:45	14.7	1016	2.9	260	2	70
2026-02-14T03:46	14.9	1016	3.1	260	2	70
2026-02-14T03:47	15.0	1016	2.9	260	2	70
2026-02-14T03:48	14.6	1016	2.5	260	2	70
2026-02-14T03:49	14.4	1016	2.3	260	2	70
2026-02-14T03:50	14.0	1016	2.0	260	2	70
2026-02-14T03:51	14.1	1016	2.4	250	2	70
2026-02-14T03:52	14.0	1016	2.3	240	2	70
2026-02-14T03:53	13.9	1016	2.2	230	2	70
2026-02-14T03:54	14.0	1016	2.6	220	2	70
2026-02-14T03:55	14.1	1016	2.7	220	2	70
2026-02-14T03:56	14.6	1016	3.1	220	2	70
2026-02-14T03:57	15.0	1016	3.5	220	2	70
2026-02-14T03:58	14.5	1015	2.7	220	2	70
2026-02-14T03:59	14.4	1015	2.6	210	2	70
2026-02-14T04:00	14.3	1015	2.5	210	2	70
2026-02-14T04:01	14.0	1016	2.3	210	2	70
2026-02-14T04:02	13.9	1016	2.2	210	2	70
2026-02-14T04:03	13.9	1016	2.2	210	2	70
2026-02-14T04:04	13.9	1016	1.9	210	2	70
2026-02-14T04:05	13.8	1016	1.8	210	2	70
2026-02-14T04:06	14.0	1016	2.3	210	2	70
2026-02-14T04:07	14.1	1016	2.0	210	3	70
2026-02-14T04:08	14.0	1015	1.6	210	2	70
2026-02-14T04:09	13.8	1015	1.5	210	2	70
2026-02-14T04:10	13.9	1015	1.9	210	2	70
2026-02-14T04:11	13.8	1015	1.8	210	2	70
2026-02-14T04:12	14.1	1015	2.0	210	2	70
2026-02-14T04:13	13.8	1015	1.8	220	2	70
2026-02-14T04:14	13.7	1015	1.7	220	2	70
2026-02-14T04:15	13.7	1015	1.7	230	2	70
2026-02-14T04:16	13.7	1015	1.7	240	2	70
2026-02-14T04:17	13.9	1015	1.9	240	2	70
2026-02-14T04:18	13.9	1015	1.9	250	2	70
2026-02-14T04:19	14.0	1015	2.0	250	2	70
2026-02-14T04:20	14.2	1015	2.1	260	2	70
2026-02-14T04:21	14.0	1015	2.0	250	2	70
2026-02-14T04:22	14.1	1015	2.0	250	2	70
2026-02-14T04:23	14.0	1015	2.0	240	1	70
2026-02-14T04:24	14.1	1015	2.0	230	1	70
2026-02-14T04:25	14.4	1015	2.3	220	1	70
2026-02-14T04:26	14.5	1015	2.1	210	2	70
2026-02-14T04:27	14.6	1015	2.2	200	2	70
2026-02-14T04:28	14.0	1015	1.3	190	2	70
2026-02-14T04:29	14.0	1015	1.6	180	2	70
2026-02-14T04:30	14.5	1015	2.1	170	2	70
2026-02-14T04:31	14.6	1015	2.2	170	2	70
2026-02-14T04:32	14.5	1015	1.8	170	2	70
2026-02-14T04:33	14.7	1015	1.9	170	2	70
2026-02-14T04:34	14.9	1015	2.5	180	2	70
2026-02-14T04:35	14.6	1015	1.8	180	2	70
2026-02-14T04:36	14.4	1015	1.7	180	2	70
2026-02-14T04:37	14.3	1015	1.9	180	2	70
2026-02-14T04:38	14.3	1015	1.9	190	2	70
2026-02-14T04:39	14.2	1015	1.8	190	2	70
2026-02-14T04:40	14.2	1015	1.8	190	2	70
2026-02-14T04:41	14.0	1015	1.6	180	2	70
2026-02-14T04:42	14.3	1015	2.2	180	2	70
2026-02-14T04:43	14.4	1015	2.3	190	2	70
2026-02-14T04:44	14.2	1015	2.1	190	1	70
2026-02-14T04:45	14.5	1015	2.4	190	1	70
2026-02-14T04:46	14.5	1015	2.4	190	2	70
2026-02-14T04:47	14.5	1015	2.1	200	2	70
2026-02-14T04:48	14.5	1015	2.1	200	2	70
2026-02-14T04:49	14.6	1015	2.2	210	2	70
2026-02-14T04:50	14.7	1015	1.9	210	2	70
2026-02-14T04:51	14.6	1015	1.5	210	2	70
2026-02-14T04:52	14.8	1015	1.7	210	1	70
2026-02-14T04:53	14.7	1015	1.6	200	1	70
2026-02-14T04:54	14.6	1015	1.5	180	1	70
2026-02-14T04:55	14.7	1015	1.6	180	1	70
2026-02-14T04:56	14.5	1015	1.4	170	1	70
2026-02-14T04:57	14.3	1015	1.2	180	1	70
2026-02-14T04:58	14.6	1015	1.8	180	2	70
2026-02-14T04:59	14.5	1015	1.4	180	2	70
2026-02-14T05:00	14.5	1015	1.4	180	2	70
2026-02-14T05:01	14.3	1015	1.2	180	2	70
2026-02-14T05:02	14.2	1015	1.2	200	2	70
2026-02-14T05:03	14.3	1015	1.6	210	2	70
2026-02-14T05:04	14.7	1015	1.9	210	2	70
2026-02-14T05:05	14.5	1015	1.4	220	2	70
2026-02-14T05:06	14.5	1015	1.8	220	2	70
2026-02-14T05:07	14.3	1015	1.6	220	2	70
2026-02-14T05:08	14.2	1015	1.5	220	2	70
2026-02-14T05:09	14.3	1015	1.9	220	2	70
2026-02-14T05:10	14.5	1015	2.1	220	2	70
2026-02-14T05:11	14.6	1015	1.8	220	2	70
2026-02-14T05:12	14.6	1015	1.8	220	2	70
2026-02-14T05:13	14.6	1015	1.8	220	2	70
2026-02-14T05:14	14.5	1015	1.8	220	2	70
2026-02-14T05:15	14.3	1015	1.6	230	2	70
2026-02-14T05:16	14.2	1015	1.5	230	3	70
2026-02-14T05:17	14.2	1015	1.8	230	3	70
2026-02-14T05:18	14.3	1015	1.9	230	3	70
2026-02-14T05:19	14.5	1015	2.1	230	3	70
2026-02-14T05:20	14.3	1015	1.6	230	2	70
2026-02-14T05:21	14.3	1015	1.9	230	2	70
2026-02-14T05:22	14.4	1015	2.3	240	2	70
2026-02-14T05:23	14.3	1015	2.2	230	2	70
2026-02-14T05:24	14.4	1015	2.3	230	2	70
2026-02-14T05:25	14.5	1015	2.4	230	2	70
2026-02-14T05:26	14.1	1015	2.0	230	2	70
2026-02-14T05:27	14.2	1015	2.1	230	2	70
2026-02-14T05:28	14.4	1015	2.6	230	2	70
2026-02-14T05:29	14.3	1015	2.2	230	3	70
2026-02-14T05:30	14.4	1015	2.6	230	3	70
2026-02-14T05:31	14.5	1015	2.7	230	3	70
2026-02-14T05:32	14.5	1015	2.7	230	3	70
2026-02-14T05:33	14.6	1015	2.8	230	3	70
2026-02-14T05:34	14.4	1015	2.3	230	3	70
2026-02-14T05:35	14.2	1015	2.1	230	3	70
2026-02-14T05:36	14.2	1015	2.5	230	3	70
2026-02-14T05:37	14.2	1015	2.5	240	3	70
2026-02-14T05:38	14.2	1015	2.5	240	3	70
2026-02-14T05:39	14.3	1015	2.5	230	3	70
2026-02-14T05:40	14.4	1015	2.6	230	2	70
2026-02-14T05:41	14.4	1015	2.6	230	2	70
2026-02-14T05:42	14.2	1015	2.5	230	2	70
2026-02-14T05:43	14.2	1015	2.5	230	2	70
2026-02-14T05:44	14.2	1015	2.5	230	2	70
2026-02-14T05:45	14.2	1015	2.5	230	2	70
2026-02-14T05:46	14.2	1015	2.5	230	2	70
2026-02-14T05:47	14.1	1015	2.4	230	2	70
2026-02-14T05:48	14.2	1015	2.5	230	2	70
2026-02-14T05:49	14.1	1015	2.4	230	2	70
2026-02-14T05:50	14.2	1015	2.8	230	2	70
2026-02-14T05:51	14.2	1015	2.5	240	2	70
2026-02-14T05:52	14.2	1015	2.5	230	2	70
2026-02-14T05:53	14.3	1015	2.9	230	2	70
2026-02-14T05:54	14.1	1015	2.4	220	2	70
2026-02-14T05:55	14.2	1015	2.8	220	2	70
2026-02-14T05:56	14.3	1015	2.9	220	2	70
2026-02-14T05:57	14.2	1015	2.8	220	2	70
2026-02-14T05:58	14.1	1015	2.7	220	1	70
2026-02-14T05:59	14.2	1015	2.8	230	1	70
2026-02-14T06:00	14.0	1015	2.6	230	1	70
2026-02-14T06:01	14.0	1015	2.6	230	1	70
2026-02-14T06:02	14.2	1015	2.8	240	1	70
2026-02-14T06:03	14.1	1015	2.7	250	1	70
2026-02-14T06:04	14.2	1015	2.8	260	1	70
2026-02-14T06:05	14.1	1015	2.7	260	1	70
2026-02-14T06:06	14.1	1015	2.7	270	1	70
2026-02-14T06:07	14.1	1015	2.7	270	1	70
2026-02-14T06:08	14.2	1015	3.1	270	1	70
2026-02-14T06:09	14.1	1015	3.0	260	1	70
2026-02-14T06:10	14.1	1015	3.0	250	1	70
2026-02-14T06:11	14.2	1015	3.1	250	1	70
2026-02-14T06:12	14.1	1015	3.0	250	1	70
2026-02-14T06:13	14.0	1015	2.9	250	2	70
2026-02-14T06:14	14.0	1015	2.9	250	2	70
2026-02-14T06:15	13.9	1015	2.8	250	2	70
2026-02-14T06:16	13.9	1015	2.8	250	2	70
2026-02-14T06:17	13.9	1015	2.8	250	2	70
2026-02-14T06:18	13.9	1015	2.8	260	2	70
2026-02-14T06:19	13.9	1015	3.1	260	2	70
2026-02-14T06:20	13.9	1015	3.1	260	2	70
2026-02-14T06:21	13.9	1015	3.1	270	2	70
2026-02-14T06:22	13.9	1015	3.1	270	1	70
2026-02-14T06:23	13.9	1015	3.1	260	1	70
2026-02-14T06:24	14.0	1015	3.2	260	1	70
2026-02-14T06:25	14.1	1015	3.3	250	1	70
2026-02-14T06:26	14.1	1015	3.3	230	1	70
2026-02-14T06:27	14.2	1015	3.4	210	1	70
2026-02-14T06:28	14.1	1015	3.0	190	1	70
2026-02-14T06:29	14.0	1015	3.2	180	1	70
2026-02-14T06:30	14.1	1015	3.3	160	1	70
2026-02-14T06:31	14.2	1015	3.1	150	1	70
2026-02-14T06:32	14.2	1015	3.1	140	1	70
2026-02-14T06:33	14.1	1015	2.7	140	2	70
2026-02-14T06:34	14.1	1015	3.0	140	2	70
2026-02-14T06:35	14.1	1015	3.0	140	2	70
2026-02-14T06:36	14.1	1015	3.0	130	2	70
2026-02-14T06:37	14.1	1015	3.0	130	2	70
2026-02-14T06:38	14.1	1015	3.0	130	2	70
2026-02-14T06:39	14.1	1015	3.3	120	2	70
2026-02-14T06:40	14.2	1015	3.4	120	2	70
2026-02-14T06:41	14.0	1015	2.9	110	1	70
2026-02-14T06:42	14.0	1015	3.2	100	1	70
2026-02-14T06:43	14.1	1015	3.3	100	1	70
2026-02-14T06:44	14.0	1015	3.2	90	1	70
2026-02-14T06:45	14.0	1015	3.2	90	1	70
2026-02-14T06:46	14.0	1015	3.2	100	1	70
2026-02-14T06:47	13.9	1015	3.1	90	1	70
2026-02-14T06:48	13.9	1015	3.1	90	1	70
2026-02-14T06:49	13.9	1015	3.1	90	1	70
2026-02-14T06:50	13.9	1015	3.1	90	2	70
2026-02-14T06:51	13.9	1015	3.1	90	2	70
2026-02-14T06:52	13.8	1015	3.0	90	2	70
2026-02-14T06:53	13.8	1015	3.0	90	2	70
2026-02-14T06:54	13.8	1015	3.0	80	2	70
2026-02-14T06:55	13.8	1015	3.0	90	2	70
2026-02-14T06:56	13.7	1015	2.9	80	2	70
2026-02-14T06:57	13.7	1015	2.9	80	2	70
2026-02-14T06:58	13.7	1015	2.9	80	2	70
2026-02-14T06:59	13.7	1015	2.9	80	2	70
2026-02-14T07:00	13.7	1015	2.9	90	1	70
2026-02-14T07:01	13.6	1015	2.8	90	1	70
2026-02-14T07:02	13.6	1015	2.8	90	1	70
2026-02-14T07:03	13.5	1015	2.7	90	1	70
2026-02-14T07:04	13.5	1015	2.7	90	1	70
2026-02-14T07:05	13.6	1015	2.8	90	1	70
2026-02-14T07:06	13.6	1015	2.8	90	1	70
2026-02-14T07:07	13.5	1015	2.7	90	1	70
2026-02-14T07:08	13.5	1015	2.7	90	1	70
2026-02-14T07:09	13.5	1015	3.0	90	1	70
2026-02-14T07:10	13.5	1015	3.0	90	1	70
2026-02-14T07:11	13.5	1015	3.0	90	1	70
2026-02-14T07:12	13.5	1015	3.0	90	1	70
2026-02-14T07:13	13.4	1015	2.9	100	1	70
2026-02-14T07:14	13.4	1015	3.2	90	1	70
2026-02-14T07:15	13.4	1015	3.2	90	1	70
2026-02-14T07:16	13.4	1015	3.2	90	1	70
2026-02-14T07:17	13.4	1015	3.2	90	1	70
2026-02-14T07:18	13.3	1015	3.1	80	1	70
2026-02-14T07:19	13.3	1015	3.1	90	1	70
2026-02-14T07:20	13.3	1015	3.1	90	1	70
2026-02-14T07:21	13.3	1015	3.1	80	1	70
2026-02-14T07:22	13.3	1015	3.4	80	1	70
2026-02-14T07:23	13.3	1015	3.4	80	1	70
2026-02-14T07:24	13.3	1015	3.4	80	1	70
2026-02-14T07:25	13.3	1015	3.4	70	1	70
2026-02-14T07:26	13.3	1015	3.4	70	1	70
2026-02-14T07:27	13.3	1015	3.4	70	1	70
2026-02-14T07:28	13.2	1015	3.6	70	1	70
2026-02-14T07:29	13.0	1015	3.4	70	1	70
2026-02-14T07:30	13.2	1015	3.6	70	1	70
2026-02-14T07:31	13.1	1015	3.5	70	1	70
2026-02-14T07:32	13.1	1015	3.8	80	1	70
2026-02-14T07:33	13.1	1015	3.5	70	1	70
2026-02-14T07:34	13.2	1015	3.6	70	1	70
2026-02-14T07:35	13.2	1015	3.8	80	1	70
2026-02-14T07:36	13.1	1015	3.8	80	1	70
2026-02-14T07:37	13.1	1015	3.8	80	1	70
2026-02-14T07:38	13.1	1015	3.8	80	1	70
2026-02-14T07:39	13.0	1015	3.9	80	1	70
2026-02-14T07:40	13.1	1015	4.0	80	1	70
2026-02-14T07:41	13.0	1015	3.9	80	1	70
2026-02-14T07:42	13.0	1015	3.9	80	1	70
2026-02-14T07:43	13.0	1015	3.9	80	1	70
2026-02-14T07:44	12.9	1015	3.8	80	1	70
2026-02-14T07:45	13.0	1015	4.2	80	1	70
2026-02-14T07:46	12.9	1015	4.1	80	1	70
2026-02-14T07:47	12.8	1015	4.0	70	1	70
2026-02-14T07:48	12.6	1015	4.1	70	1	70
2026-02-14T07:49	12.5	1015	4.2	80	1	70
2026-02-14T07:50	12.8	1015	4.3	80	1	70
2026-02-14T07:51	12.8	1015	4.3	80	1	70
2026-02-14T07:52	12.8	1015	4.3	70	1	70
2026-02-14T07:53	12.6	1015	4.1	70	1	70
2026-02-14T07:54	12.6	1015	4.3	70	1	70
2026-02-14T07:55	12.8	1015	4.5	70	1	70
2026-02-14T07:56	12.9	1015	4.6	70	1	70
2026-02-14T07:57	12.8	1015	4.5	80	1	70
2026-02-14T07:58	12.7	1015	4.4	80	1	70
2026-02-14T07:59	12.4	1015	4.1	80	1	70
2026-02-14T08:00	12.4	1015	4.4	80	1	70
2026-02-14T08:01	12.4	1015	4.4	80	1	70
2026-02-14T08:02	12.6	1015	4.6	80	1	70
2026-02-14T08:03	12.6	1015	4.6	80	1	70
2026-02-14T08:04	12.6	1015	4.6	70	1	70
2026-02-14T08:05	12.7	1015	4.7	70	1	70
2026-02-14T08:06	12.6	1015	4.6	70	1	70
2026-02-14T08:07	12.6	1015	4.6	80	1	70
2026-02-14T08:08	12.5	1015	4.5	80	1	70
2026-02-14T08:09	12.6	1015	4.6	80	1	70
2026-02-14T08:10	12.6	1015	4.6	90	1	70
2026-02-14T08:11	12.6	1015	4.6	90	1	70
2026-02-14T08:12	12.6	1015	4.6	90	1	70
2026-02-14T08:13	12.6	1015	4.6	100	1	70
2026-02-14T08:14	12.5	1015	4.5	100	1	70
2026-02-14T08:15	12.3	1015	4.5	110	1	70
2026-02-14T08:16	12.3	1015	4.5	110	1	70
2026-02-14T08:17	12.4	1015	4.6	110	1	70
2026-02-14T08:18	12.3	1015	4.5	100	1	70
2026-02-14T08:19	12.5	1015	4.7	100	1	70
2026-02-14T08:20	12.5	1015	4.7	100	1	70
2026-02-14T08:21	12.5	1015	4.7	100	1	70
2026-02-14T08:22	12.5	1015	4.7	90	1	70
2026-02-14T08:23	12.6	1015	4.8	90	1	70
2026-02-14T08:24	12.6	1015	4.8	90	1	70
2026-02-14T08:25	12.5	1015	4.7	80	1	70
2026-02-14T08:26	12.4	1015	4.6	70	1	70
2026-02-14T08:27	12.0	1015	4.5	70	1	70
2026-02-14T08:28	11.8	1015	4.5	60	1	70
2026-02-14T08:29	11.8	1015	4.8	60	1	70
2026-02-14T08:30	12.2	1015	4.9	60	1	70
2026-02-14T08:31	11.7	1015	4.7	60	1	70
2026-02-14T08:32	11.9	1015	4.9	60	1	70
2026-02-14T08:33	12.0	1015	5.0	60	1	70
2026-02-14T08:34	12.1	1015	5.1	60	1	70
2026-02-14T08:35	12.1	1015	5.1	60	1	70
2026-02-14T08:36	12.2	1015	5.2	70	1	70
2026-02-14T08:37	11.9	1015	4.9	80	1	70
2026-02-14T08:38	11.9	1015	4.9	90	1	70
2026-02-14T08:39	11.9	1015	4.9	100	1	70
2026-02-14T08:40	12.0	1015	5.0	100	1	70
2026-02-14T08:41	12.2	1015	5.2	110	1	70
2026-02-14T08:42	12.1	1015	5.1	110	1	70
2026-02-14T08:43	12.1	1015	5.1	120	1	70
2026-02-14T08:44	11.8	1015	5.0	120	1	70
2026-02-14T08:45	11.9	1015	5.1	110	1	70
2026-02-14T08:46	12.1	1015	5.3	110	1	70
2026-02-14T08:47	11.9	1015	5.1	100	1	70
2026-02-14T08:48	11.8	1015	5.0	100	1	70
2026-02-14T08:49	12.1	1015	5.3	100	1	70
2026-02-14T08:50	12.1	1015	5.3	90	1	70
2026-02-14T08:51	11.8	1015	5.0	90	1	70
2026-02-14T08:52	11.4	1015	4.6	80	1	70
2026-02-14T08:53	11.2	1015	4.9	80	0	70
2026-02-14T08:54	11.6	1015	5.3	80	0	70
2026-02-14T08:55	11.5	1015	5.2	90	0	70
2026-02-14T08:56	11.6	1015	5.3	90	0	70
2026-02-14T08:57	11.7	1015	5.4	90	1	70
2026-02-14T08:58	11.6	1015	5.3	90	1	70
2026-02-14T08:59	11.4	1015	5.1	100	1	70
2026-02-14T09:00	11.8	1015	5.5	90	1	70
2026-02-14T09:01	11.9	1015	5.5	100	1	70
2026-02-14T09:02	11.9	1015	5.3	100	1	70
2026-02-14T09:03	11.9	1015	5.3	100	1	70
2026-02-14T09:04	11.9	1015	5.3	100	1	70
2026-02-14T09:05	11.7	1015	5.1	100	1	70
2026-02-14T09:06	11.4	1015	5.1	100	1	70
2026-02-14T09:07	11.5	1015	5.2	100	1	70
2026-02-14T09:08	11.6	1015	5.5	90	1	70
2026-02-14T09:09	11.5	1015	5.4	90	1	70
2026-02-14T09:10	11.2	1015	5.1	90	1	70
2026-02-14T09:11	11.5	1015	5.4	100	1	70
2026-02-14T09:12	11.7	1015	5.6	100	1	70
2026-02-14T09:13	11.6	1015	5.5	100	1	70
2026-02-14T09:14	11.6	1015	5.5	100	1	70
2026-02-14T09:15	11.6	1015	5.5	100	1	70
2026-02-14T09:16	11.7	1015	5.6	100	1	69
2026-02-14T09:17	11.8	1015	5.7	100	1	69
2026-02-14T09:18	11.5	1015	5.4	100	1	69
2026-02-14T09:19	11.8	1015	5.9	110	1	69
2026-02-14T09:20	11.5	1015	5.4	110	1	69
2026-02-14T09:21	11.7	1015	5.8	110	1	69
2026-02-14T09:22	11.4	1015	5.3	110	0	69
2026-02-14T09:23	11.5	1015	5.6	100	0	69
2026-02-14T09:24	11.4	1015	5.5	100	1	69
2026-02-14T09:25	11.1	1015	5.2	100	1	69
2026-02-14T09:26	10.9	1015	5.2	100	1	70
2026-02-14T09:27	11.1	1015	5.6	100	1	70
2026-02-14T09:28	11.3	1015	5.8	100	1	70
2026-02-14T09:29	11.1	1015	5.4	100	1	70
2026-02-14T09:30	11.0	1015	5.6	100	1	70
2026-02-14T09:31	11.1	1015	5.6	100	1	70
2026-02-14T09:32	11.2	1015	5.7	100	1	70
2026-02-14T09:33	11.4	1015	5.9	110	1	70
2026-02-14T09:34	11.4	1015	5.9	110	1	70
2026-02-14T09:35	11.0	1015	5.3	110	1	70
2026-02-14T09:36	11.0	1015	5.6	120	1	70
2026-02-14T09:37	11.2	1015	6.0	120	1	70
2026-02-14T09:38	11.2	1015	5.7	120	1	70
2026-02-14T09:39	11.3	1015	5.8	120	1	70
2026-02-14T09:40	11.4	1015	5.9	130	1	70
2026-02-14T09:41	11.2	1015	5.7	130	0	70
2026-02-14T09:42	11.1	1015	5.6	140	0	70
2026-02-14T09:43	10.9	1015	5.5	140	0	70
2026-02-14T09:44	10.4	1015	5.0	140	0	70
2026-02-14T09:45	10.5	1015	5.5	140	0	70
2026-02-14T09:46	10.6	1015	5.8	140	0	70
2026-02-14T09:47	10.6	1015	5.8	140	0	70
2026-02-14T09:48	10.4	1015	5.4	140	0	70
2026-02-14T09:49	10.3	1015	5.5	140	0	70
2026-02-14T09:50	10.3	1015	5.7	140	0	70
2026-02-14T09:51	10.2	1015	5.6	130	0	70
2026-02-14T09:52	10.2	1015	5.6	120	0	70
2026-02-14T09:53	10.4	1015	5.8	110	1	70
2026-02-14T09:54	10.2	1015	5.6	110	1	70
2026-02-14T09:55	10.3	1015	5.9	110	1	70
2026-02-14T09:56	10.4	1015	6.0	110	1	70
2026-02-14T09:57	10.4	1015	6.0	100	1	70
2026-02-14T09:58	10.1	1015	5.7	100	1	70
2026-02-14T09:59	10.0	1015	5.6	90	1	70
2026-02-14T10:00	9.8	1015	5.4	90	1	70
2026-02-14T10:01	9.9	1015	5.7	100	1	70
2026-02-14T10:02	10.1	1015	5.9	100	1	70
2026-02-14T10:03	10.3	1015	6.1	110	1	70
2026-02-14T10:04	10.8	1015	6.6	110	0	70
2026-02-14T10:05	10.6	1015	6.0	110	0	70
2026-02-14T10:06	10.3	1015	5.7	120	0	70
2026-02-14T10:07	10.2	1015	5.8	0	0	70
2026-02-14T10:08	10.1	1015	5.7	0	0	70
2026-02-14T10:09	10.1	1015	5.9	120	0	70
2026-02-14T10:10	10.3	1015	6.1	120	0	70
2026-02-14T10:11	10.2	1015	5.8	0	0	70
2026-02-14T10:12	10.0	1015	5.8	130	0	70
2026-02-14T10:13	10.1	1015	5.9	120	0	70
2026-02-14T10:14	10.1	1015	5.9	120	0	70
2026-02-14T10:15	10.2	1015	6.0	130	0	70
2026-02-14T10:16	10.6	1015	6.4	120	0	70
2026-02-14T10:17	10.7	1015	6.3	120	0	70
2026-02-14T10:18	10.2	1015	5.6	120	0	70
2026-02-14T10:19	9.9	1015	5.5	110	0	70
2026-02-14T10:20	9.9	1015	5.7	0	0	70
2026-02-14T10:21	9.7	1015	5.7	0	0	69
2026-02-14T10:22	9.6	1015	5.8	0	0	69
2026-02-14T10:23	9.9	1015	6.3	100	0	69
2026-02-14T10:24	10.0	1015	6.4	100	0	69
2026-02-14T10:25	9.9	1015	6.3	90	0	69
2026-02-14T10:26	9.9	1015	6.3	100	1	69
2026-02-14T10:27	9.9	1015	6.3	100	1	69
2026-02-14T10:28	9.9	1015	6.3	90	1	69
2026-02-14T10:29	10.0	1015	6.4	90	1	68
2026-02-14T10:30	10.1	1015	6.5	90	1	68
2026-02-14T10:31	10.0	1014	6.2	90	1	68
2026-02-14T10:32	9.9	1015	6.1	80	1	68
2026-02-14T10:33	10.1	1015	6.5	80	1	68
2026-02-14T10:34	9.5	1015	5.9	80	1	68
2026-02-14T10:35	9.3	1015	5.7	80	1	68
2026-02-14T10:36	9.4	1015	6.0	80	1	68
2026-02-14T10:37	9.6	1015	6.2	80	1	67
2026-02-14T10:38	9.7	1015	6.3	90	1	68
2026-02-14T10:39	9.7	1015	6.3	90	1	68
2026-02-14T10:40	9.7	1015	6.3	90	1	68
2026-02-14T10:41	9.8	1014	6.3	90	1	68
2026-02-14T10:42	9.6	1014	6.2	90	1	68
2026-02-14T10:43	10.0	1014	6.5	90	1	68
2026-02-14T10:44	9.9	1014	6.3	90	1	68
2026-02-14T10:45	10.1	1014	6.5	90	1	68
2026-02-14T10:46	10.2	1014	6.6	90	1	68
2026-02-14T10:47	10.4	1014	6.7	90	1	68
2026-02-14T10:48	10.2	1014	6.4	90	1	68
2026-02-14T10:49	10.2	1014	6.4	90	1	68
2026-02-14T10:50	9.9	1014	5.9	100	1	68
2026-02-14T10:51	9.8	1014	6.0	100	1	67
2026-02-14T10:52	9.8	1014	6.2	100	1	67
2026-02-14T10:53	9.6	1014	6.0	100	1	67
2026-02-14T10:54	9.6	1014	6.0	100	1	67
2026-02-14T10:55	9.8	1014	6.3	90	1	66
2026-02-14T10:56	9.7	1014	6.1	90	1	66
2026-02-14T10:57	9.4	1014	5.8	90	1	66
2026-02-14T10:58	9.2	1014	5.8	90	1	66
2026-02-14T10:59	9.4	1014	6.1	90	1	66
2026-02-14T11:00	9.8	1014	6.5	90	1	66
2026-02-14T11:01	10.0	1014	6.5	90	1	66
2026-02-14T11:02	10.2	1014	6.6	90	1	66
2026-02-14T11:03	10.1	1014	6.5	90	1	66
2026-02-14T11:04	10.1	1014	6.3	100	1	67
2026-02-14T11:05	10.0	1014	6.2	100	1	67
2026-02-14T11:06	10.1	1014	6.3	100	1	67
2026-02-14T11:07	10.2	1014	6.4	100	1	67
2026-02-14T11:08	10.2	1014	6.4	100	1	67
2026-02-14T11:09	9.8	1014	6.0	110	1	67
2026-02-14T11:10	9.7	1014	6.1	110	1	67
2026-02-14T11:11	9.7	1014	6.3	110	1	67
2026-02-14T11:12	9.9	1014	6.4	110	1	66
2026-02-14T11:13	9.6	1014	6.2	110	1	66
2026-02-14T11:14	9.5	1014	6.1	110	1	66
2026-02-14T11:15	9.6	1014	6.2	110	1	66
2026-02-14T11:16	9.1	1014	5.7	100	1	66
2026-02-14T11:17	9.1	1014	6.0	100	1	66
2026-02-14T11:18	9.0	1014	5.9	100	1	66
2026-02-14T11:19	9.1	1014	6.2	90	1	65
2026-02-14T11:20	9.1	1014	6.2	90	1	65
2026-02-14T11:21	9.2	1014	6.3	90	1	65
2026-02-14T11:22	9.2	1014	6.1	90	1	65
2026-02-14T11:23	9.1	1014	6.2	100	1	65
2026-02-14T11:24	9.1	1014	6.2	100	1	65
2026-02-14T11:25	9.0	1014	6.1	100	1	65
2026-02-14T11:26	9.0	1014	6.1	100	0	65
2026-02-14T11:27	8.7	1014	5.8	100	0	65
2026-02-14T11:28	8.8	1014	6.1	100	0	65
2026-02-14T11:29	8.9	1014	6.2	100	0	65
2026-02-14T11:30	9.0	1015	6.3	100	0	66
2026-02-14T11:31	8.9	1015	6.2	100	0	65
2026-02-14T11:32	8.8	1015	6.1	110	0	65
2026-02-14T11:33	9.0	1015	6.5	110	0	65
2026-02-14T11:34	9.1	1015	6.4	110	1	65
2026-02-14T11:35	8.8	1015	5.9	120	1	65
2026-02-14T11:36	8.6	1015	5.9	120	1	65
2026-02-14T11:37	8.5	1015	5.8	130	1	65
2026-02-14T11:38	8.7	1015	6.2	130	1	64
2026-02-14T11:39	8.8	1015	6.3	140	1	64
2026-02-14T11:40	8.7	1015	6.2	140	1	64
2026-02-14T11:41	8.6	1015	6.1	150	1	64
2026-02-14T11:42	8.5	1015	6.0	150	1	64
2026-02-14T11:43	8.4	1015	5.9	160	1	64
2026-02-14T11:44	8.4	1015	5.9	170	1	64
2026-02-14T11:45	8.4	1015	5.9	170	1	64
2026-02-14T11:46	8.5	1015	6.0	180	1	64
2026-02-14T11:47	8.4	1015	5.9	180	1	64
2026-02-14T11:48	8.3	1015	5.8	190	1	64
2026-02-14T11:49	8.5	1015	6.1	190	1	64
2026-02-14T11:50	8.4	1015	5.9	190	1	64
2026-02-14T11:51	9.0	1015	6.6	190	1	64
2026-02-14T11:52	9.2	1015	6.7	190	1	64
2026-02-14T11:53	9.2	1015	6.5	190	1	64
2026-02-14T11:54	9.1	1015	6.2	190	1	64
2026-02-14T11:55	8.8	1015	5.9	190	1	64
2026-02-14T11:56	9.0	1015	6.1	190	1	64
2026-02-14T11:57	9.2	1015	6.3	190	1	64
2026-02-14T11:58	9.5	1015	6.4	180	1	64
2026-02-14T11:59	9.5	1015	6.2	180	1	64
2026-02-14T12:00	9.6	1015	6.2	180	1	64
2026-02-14T12:01	9.2	1015	5.6	180	1	64
2026-02-14T12:02	9.2	1015	5.8	180	1	64
2026-02-14T12:03	9.0	1015	5.6	180	1	64
2026-02-14T12:04	8.7	1015	5.5	180	1	64
2026-02-14T12:05	8.8	1015	5.7	190	1	64
2026-02-14T12:06	8.7	1015	5.6	180	1	64
2026-02-14T12:07	9.1	1015	6.0	180	1	64
2026-02-14T12:08	8.8	1015	5.7	180	0	64
2026-02-14T12:09	8.6	1015	5.5	180	0	63
2026-02-14T12:10	8.5	1015	5.4	180	0	63
2026-02-14T12:11	8.4	1015	5.5	180	0	63
2026-02-14T12:12	8.4	1015	5.7	0	0	63
2026-02-14T12:13	8.3	1015	5.6	0	0	63
2026-02-14T12:14	8.1	1015	5.4	0	0	63
2026-02-14T12:15	8.2	1015	5.7	0	0	63
2026-02-14T12:16	8.3	1015	5.8	0	0	63
2026-02-14T12:17	8.2	1015	5.7	0	0	62
2026-02-14T12:18	7.9	1015	5.4	0	0	62
2026-02-14T12:19	8.0	1015	5.6	0	0	62
2026-02-14T12:20	8.0	1015	5.6	0	0	62
2026-02-14T12:21	8.0	1015	5.5	0	0	62
2026-02-14T12:22	8.0	1015	5.5	0	0	62
2026-02-14T12:23	7.8	1015	5.3	180	0	62
2026-02-14T12:24	7.9	1015	5.6	170	0	62
2026-02-14T12:25	8.0	1015	5.6	160	0	62
2026-02-14T12:26	8.1	1015	5.9	150	0	62
2026-02-14T12:27	8.1	1015	5.9	140	1	62
2026-02-14T12:28	8.1	1015	5.9	140	1	62
2026-02-14T12:29	8.2	1015	5.8	130	1	62
2026-02-14T12:30	8.3	1015	5.8	140	1	62
2026-02-14T12:31	8.4	1015	5.9	140	1	62
2026-02-14T12:32	8.2	1014	5.5	140	1	62
2026-02-14T12:33	8.3	1014	5.8	140	1	62
2026-02-14T12:34	8.2	1014	5.7	150	1	62
2026-02-14T12:35	7.8	1014	5.3	150	1	62
2026-02-14T12:36	7.7	1014	5.4	160	1	62
2026-02-14T12:37	7.7	1014	5.4	160	0	62
2026-02-14T12:38	7.8	1014	5.6	160	0	62
2026-02-14T12:39	7.7	1014	5.5	160	0	62
2026-02-14T12:40	7.4	1014	5.2	0	0	62
2026-02-14T12:41	7.6	1014	5.6	0	0	62
2026-02-14T12:42	7.7	1014	5.7	0	0	62
2026-02-14T12:43	7.8	1014	5.8	0	0	61
2026-02-14T12:44	7.9	1014	5.9	0	0	61
2026-02-14T12:45	7.8	1014	5.6	120	0	61
2026-02-14T12:46	7.5	1014	5.3	110	0	61
2026-02-14T12:47	7.7	1014	5.7	100	0	61
2026-02-14T12:48	7.8	1014	5.8	100	0	61
2026-02-14T12:49	7.8	1014	5.8	90	0	61
2026-02-14T12:50	7.9	1014	5.7	80	0	61
2026-02-14T12:51	7.9	1014	5.7	80	0	61
2026-02-14T12:52	7.6	1014	5.3	70	0	61
2026-02-14T12:53	7.4	1014	5.2	60	0	61
2026-02-14T12:54	7.4	1014	5.2	60	0	61
2026-02-14T12:55	7.5	1014	5.3	0	0	61
2026-02-14T12:56	7.6	1014	5.4	0	0	61
2026-02-14T12:57	7.6	1014	5.4	0	0	61
2026-02-14T12:58	7.3	1014	5.1	0	0	61
2026-02-14T12:59	7.2	1014	5.2	0	0	61
2026-02-14T13:00	7.1	1014	4.9	0	0	61
2026-02-14T13:01	7.1	1014	5.1	0	0	61
2026-02-14T13:02	7.2	1014	5.2	0	0	61
2026-02-14T13:03	7.3	1014	5.5	0	0	61
2026-02-14T13:04	7.3	1014	5.5	0	0	61
2026-02-14T13:05	7.2	1014	5.2	0	0	61
2026-02-14T13:06	7.1	1014	5.3	0	0	61
2026-02-14T13:07	7.1	1014	5.3	0	0	61
2026-02-14T13:08	7.1	1014	5.3	150	0	60
2026-02-14T13:09	7.0	1014	5.2	150	0	60
2026-02-14T13:10	7.1	1014	5.4	150	0	60
2026-02-14T13:11	7.2	1014	5.5	140	0	60
2026-02-14T13:12	7.0	1014	5.2	140	1	60
2026-02-14T13:13	7.1	1014	5.4	130	1	60
2026-02-14T13:14	7.0	1014	5.3	130	1	60
2026-02-14T13:15	6.9	1014	5.2	130	1	59
2026-02-14T13:16	6.7	1014	5.0	130	1	59
2026-02-14T13:17	6.6	1014	4.9	140	1	59
2026-02-14T13:18	6.7	1014	5.2	140	1	59
2026-02-14T13:19	6.8	1014	5.3	140	1	59
2026-02-14T13:20	6.6	1014	5.1	140	1	59
2026-02-14T13:21	6.8	1014	5.3	140	1	59
2026-02-14T13:22	6.9	1014	5.5	140	1	59
2026-02-14T13:23	6.8	1014	5.3	140	1	59
2026-02-14T13:24	6.9	1014	5.4	140	1	59
2026-02-14T13:25	6.9	1014	5.4	140	1	59
2026-02-14T13:26	6.9	1014	5.4	140	1	59
2026-02-14T13:27	6.8	1014	5.3	140	1	59
2026-02-14T13:28	6.8	1014	5.3	140	1	59
2026-02-14T13:29	7.0	1014	5.5	140	1	59
2026-02-14T13:30	7.0	1014	5.5	140	1	59
2026-02-14T13:31	7.1	1014	5.6	130	1	59
2026-02-14T13:32	6.9	1014	5.2	140	1	59
2026-02-14T13:33	6.7	1014	5.0	140	1	59
2026-02-14T13:34	6.8	1014	5.3	140	1	59
2026-02-14T13:35	6.9	1014	5.4	140	1	58
2026-02-14T13:36	6.7	1014	5.2	140	1	58
2026-02-14T13:37	6.6	1014	5.1	130	1	58
2026-02-14T13:38	6.5	1014	5.0	130	0	58
2026-02-14T13:39	6.5	1014	4.8	130	0	58
2026-02-14T13:40	6.6	1014	4.9	130	0	58
2026-02-14T13:41	6.7	1014	5.2	0	0	59
2026-02-14T13:42	6.5	1014	4.8	0	0	59
2026-02-14T13:43	6.6	1014	5.1	0	0	59
2026-02-14T13:44	6.6	1014	5.1	0	0	59
2026-02-14T13:45	6.6	1014	5.3	0	0	59
2026-02-14T13:46	6.5	1014	5.0	0	0	59
2026-02-14T13:47	6.5	1014	5.0	0	0	59
2026-02-14T13:48	6.5	1014	5.2	0	0	59
2026-02-14T13:49	6.4	1014	5.1	0	0	59
2026-02-14T13:50	6.3	1014	5.0	0	0	58
2026-02-14T13:51	6.3	1014	5.0	0	0	58
2026-02-14T13:52	6.3	1014	5.1	0	0	58
2026-02-14T13:53	6.4	1014	5.2	0	0	58
2026-02-14T13:54	6.4	1014	5.2	0	0	58
2026-02-14T13:55	6.5	1014	5.5	0	0	58
2026-02-14T13:56	6.5	1014	5.5	0	0	58
2026-02-14T13:57	6.6	1014	5.4	0	0	57
2026-02-14T13:58	6.5	1014	5.3	0	0	57
2026-02-14T13:59	6.5	1014	5.3	0	0	57
2026-02-14T14:00	6.4	1014	5.2	0	0	57
2026-02-14T14:01	6.3	1014	5.1	0	0	57
2026-02-14T14:02	6.3	1014	5.3	0	0	57
2026-02-14T14:03	6.3	1014	5.3	0	0	57
2026-02-14T14:04	6.5	1014	5.5	0	0	57
2026-02-14T14:05	6.3	1014	5.3	0	0	57
2026-02-14T14:06	6.3	1014	5.3	0	0	57
2026-02-14T14:07	6.4	1014	5.4	0	0	57
2026-02-14T14:08	6.4	1014	5.4	0	0	56
2026-02-14T14:09	6.4	1014	5.4	0	0	56
2026-02-14T14:10	6.5	1014	5.5	0	0	56
2026-02-14T14:11	6.6	1014	5.6	0	0	56
2026-02-14T14:12	6.6	1014	5.6	120	0	56
2026-02-14T14:13	6.4	1014	5.2	130	0	56
2026-02-14T14:14	6.4	1014	5.2	140	0	56
2026-02-14T14:15	6.5	1014	5.3	150	1	56
2026-02-14T14:16	6.5	1014	5.3	150	1	56
2026-02-14T14:17	6.6	1014	5.4	150	1	56
2026-02-14T14:18	6.4	1014	5.2	150	1	56
2026-02-14T14:19	6.4	1014	5.2	150	1	57
2026-02-14T14:20	6.3	1014	5.1	150	1	57
2026-02-14T14:21	6.2	1014	5.0	140	1	57
2026-02-14T14:22	6.1	1014	4.9	140	1	57
2026-02-14T14:23	6.2	1014	5.0	140	1	57
2026-02-14T14:24	6.3	1014	5.3	140	1	56
2026-02-14T14:25	5.9	1014	4.7	140	1	56
2026-02-14T14:26	5.7	1014	4.5	140	1	56
2026-02-14T14:27	5.8	1014	4.8	140	1	56
2026-02-14T14:28	5.9	1014	5.0	140	1	56
2026-02-14T14:29	5.8	1014	4.9	140	1	56
2026-02-14T14:30	5.6	1014	4.7	150	1	56
2026-02-14T14:31	5.7	1014	4.8	150	1	56
2026-02-14T14:32	5.6	1014	4.7	140	1	55
2026-02-14T14:33	5.7	1014	4.8	140	1	55
2026-02-14T14:34	5.8	1014	4.9	140	1	55
2026-02-14T14:35	5.8	1014	4.9	140	1	55
2026-02-14T14:36	5.9	1014	5.0	140	1	55
2026-02-14T14:37	6.0	1014	5.1	130	1	55
2026-02-14T14:38	6.0	1014	5.1	130	1	55
2026-02-14T14:39	5.8	1014	4.8	130	1	55
2026-02-14T14:40	5.8	1014	4.8	130	1	55
2026-02-14T14:41	6.0	1014	5.1	140	1	56
2026-02-14T14:42	6.2	1014	5.3	140	1	56
2026-02-14T14:43	6.1	1014	5.2	150	1	56
2026-02-14T14:44	6.1	1014	5.2	150	1	56
2026-02-14T14:45	6.1	1014	5.2	160	1	56
2026-02-14T14:46	6.1	1014	5.1	160	1	56
2026-02-14T14:47	5.7	1014	4.7	170	1	56
2026-02-14T14:48	5.5	1014	4.3	170	1	56
2026-02-14T14:49	5.8	1014	4.8	170	1	56
2026-02-14T14:50	5.9	1014	4.9	170	1	56
2026-02-14T14:51	6.0	1014	5.0	170	0	56
2026-02-14T14:52	5.9	1014	4.9	160	0	56
2026-02-14T14:53	5.9	1014	4.9	160	0	56
2026-02-14T14:54	5.9	1014	5.0	150	0	56
2026-02-14T14:55	5.9	1014	5.0	150	0	56
2026-02-14T14:56	6.0	1014	5.1	140	0	56
2026-02-14T14:57	6.0	1014	5.1	130	0	56
2026-02-14T14:58	6.1	1014	5.2	130	0	56
2026-02-14T14:59	6.1	1014	5.2	130	0	56
2026-02-14T15:00	6.1	1014	5.2	130	0	56
2026-02-14T15:01	6.0	1014	5.1	130	1	56
2026-02-14T15:02	6.0	1014	5.1	130	1	56
2026-02-14T15:03	5.9	1014	5.0	130	1	56
2026-02-14T15:04	5.9	1014	5.0	140	1	56
2026-02-14T15:05	5.8	1014	4.9	140	1	56
2026-02-14T15:06	5.8	1014	4.9	140	1	56
2026-02-14T15:07	5.9	1014	5.0	140	1	56
2026-02-14T15:08	5.9	1014	5.0	140	1	56
2026-02-14T15:09	5.7	1014	4.7	140	1	56
2026-02-14T15:10	5.8	1014	4.8	140	1	56
2026-02-14T15:11	5.6	1014	4.6	130	1	56
2026-02-14T15:12	5.8	1014	4.9	130	1	56
2026-02-14T15:13	6.1	1013	5.2	130	1	56
2026-02-14T15:14	6.0	1013	5.0	130	1	56
2026-02-14T15:15	6.0	1014	5.0	130	1	56
2026-02-14T15:16	6.1	1014	5.1	130	1	57
2026-02-14T15:17	6.0	1014	4.8	130	1	57
2026-02-14T15:18	6.3	1014	5.3	130	1	57
2026-02-14T15:19	6.7	1014	5.7	130	1	57
2026-02-14T15:20	6.7	1014	5.5	140	1	57
2026-02-14T15:21	6.8	1014	5.4	140	1	57
2026-02-14T15:22	6.2	1014	4.5	140	1	57
2026-02-14T15:23	6.3	1014	4.8	140	1	57
2026-02-14T15:24	6.3	1014	5.0	140	1	57
2026-02-14T15:25	6.2	1014	4.9	140	1	57
2026-02-14T15:26	6.2	1014	4.9	140	1	57
2026-02-14T15:27	6.2	1014	5.0	130	1	57
2026-02-14T15:28	5.9	1014	4.7	130	1	57
2026-02-14T15:29	6.2	1014	5.0	120	1	57
2026-02-14T15:30	6.2	1014	5.2	120	1	57
2026-02-14T15:31	6.1	1014	4.9	110	1	57
2026-02-14T15:32	6.0	1014	4.8	100	0	57
2026-02-14T15:33	6.0	1013	4.8	90	0	57
2026-02-14T15:34	6.1	1013	5.1	80	0	57
2026-02-14T15:35	6.2	1013	5.2	70	0	57
2026-02-14T15:36	5.9	1013	4.9	50	0	57
2026-02-14T15:37	5.8	1013	4.8	50	0	57
2026-02-14T15:38	5.9	1013	4.9	50	0	57
2026-02-14T15:39	6.1	1013	5.2	50	0	57
2026-02-14T15:40	6.0	1013	5.1	50	0	57
2026-02-14T15:41	6.1	1013	5.2	50	0	56
2026-02-14T15:42	6.1	1013	5.2	60	0	56
2026-02-14T15:43	6.1	1013	5.2	70	0	56
2026-02-14T15:44	6.1	1013	5.2	80	0	56
2026-02-14T15:45	6.1	1013	5.2	90	0	56
2026-02-14T15:46	6.2	1013	5.3	90	0	56
2026-02-14T15:47	6.2	1013	5.3	100	0	56
2026-02-14T15:48	6.1	1013	5.2	100	1	56
2026-02-14T15:49	6.0	1013	5.1	100	1	56
2026-02-14T15:50	6.0	1013	5.1	110	1	56
2026-02-14T15:51	5.9	1013	5.0	110	1	56
2026-02-14T15:52	5.9	1013	5.0	110	1	56
2026-02-14T15:53	5.9	1013	5.2	100	0	56
2026-02-14T15:54	6.0	1013	5.3	100	0	56
2026-02-14T15:55	6.1	1013	5.4	100	0	56
2026-02-14T15:56	6.1	1013	5.4	100	0	56
2026-02-14T15:57	6.1	1013	5.4	100	0	56
2026-02-14T15:58	6.1	1013	5.4	100	0	56
2026-02-14T15:59	6.1	1013	5.4	100	0	56
2026-02-14T16:00	6.1	1013	5.2	100	0	56
2026-02-14T16:01	6.0	1013	5.1	100	0	56
2026-02-14T16:02	5.9	1013	5.0	100	1	56
2026-02-14T16:03	5.9	1013	5.0	100	1	56
2026-02-14T16:04	5.9	1013	5.0	110	1	56
2026-02-14T16:05	5.9	1013	5.0	110	1	56
2026-02-14T16:06	6.0	1013	5.3	100	1	56
2026-02-14T16:07	6.0	1013	5.3	100	1	56
2026-02-14T16:08	6.0	1013	5.3	100	1	56
2026-02-14T16:09	5.7	1013	4.8	90	1	56
2026-02-14T16:10	5.6	1013	4.7	90	1	56
2026-02-14T16:11	5.5	1013	4.8	90	1	56
2026-02-14T16:12	5.6	1013	4.9	100	1	56
2026-02-14T16:13	5.7	1013	5.1	100	1	56
2026-02-14T16:14	5.7	1013	5.1	100	1	56
2026-02-14T16:15	5.7	1013	5.1	100	1	56
2026-02-14T16:16	5.7	1013	5.0	110	1	55
2026-02-14T16:17	5.7	1013	5.0	120	1	55
2026-02-14T16:18	5.6	1014	4.9	120	1	55
2026-02-14T16:19	5.6	1014	4.9	130	1	55
2026-02-14T16:20	5.7	1014	5.0	130	1	55
2026-02-14T16:21	5.7	1014	5.1	130	1	55
2026-02-14T16:22	5.7	1014	5.1	130	1	55
2026-02-14T16:23	5.7	1014	5.1	130	1	55
2026-02-14T16:24	5.8	1014	5.2	120	0	55
2026-02-14T16:25	5.8	1014	5.2	120	1	55
2026-02-14T16:26	5.8	1013	5.2	100	0	55
2026-02-14T16:27	5.8	1013	5.2	90	1	55
2026-02-14T16:28	5.7	1013	5.1	70	1	55
2026-02-14T16:29	5.6	1013	5.0	50	1	55
2026-02-14T16:30	5.5	1013	4.9	40	0	55
2026-02-14T16:31	5.5	1014	4.9	20	0	55
2026-02-14T16:32	5.6	1014	5.0	20	0	55
2026-02-14T16:33	5.4	1014	4.8	10	0	55
2026-02-14T16:34	5.5	1014	4.9	10	0	55
2026-02-14T16:35	5.4	1014	4.8	360	0	55
2026-02-14T16:36	5.4	1014	4.8	0	0	55
2026-02-14T16:37	5.6	1014	5.0	0	0	55
2026-02-14T16:38	5.5	1014	4.9	0	0	55
2026-02-14T16:39	5.4	1014	4.8	0	0	55
2026-02-14T16:40	5.5	1014	4.9	0	0	55
2026-02-14T16:41	5.5	1014	4.9	0	0	55
2026-02-14T16:42	5.5	1014	4.9	0	0	55
2026-02-14T16:43	5.5	1014	4.8	0	0	55
2026-02-14T16:44	5.4	1014	4.7	0	0	55
2026-02-14T16:45	5.4	1014	4.7	0	0	55
2026-02-14T16:46	5.5	1014	4.9	0	0	55
2026-02-14T16:47	5.5	1014	4.9	0	0	55
2026-02-14T16:48	5.2	1014	4.5	0	0	55
2026-02-14T16:49	5.3	1014	4.6	0	0	55
2026-02-14T16:50	5.4	1014	4.8	0	0	55
2026-02-14T16:51	5.3	1014	4.7	0	0	55
2026-02-14T16:52	5.4	1014	4.8	0	0	55
2026-02-14T16:53	5.3	1014	4.7	0	0	55
2026-02-14T16:54	5.5	1014	4.9	0	0	55
2026-02-14T16:55	5.5	1014	5.1	0	0	55
2026-02-14T16:56	5.6	1014	5.2	0	0	55
2026-02-14T16:57	5.5	1014	5.1	0	0	55
2026-02-14T16:58	5.5	1014	5.1	0	0	55
2026-02-14T16:59	5.2	1014	4.6	0	0	55
2026-02-14T17:00	5.2	1014	4.6	0	0	55
2026-02-14T17:01	5.1	1014	4.5	0	0	55
2026-02-14T17:02	5.3	1014	4.7	350	0	55
2026-02-14T17:03	5.3	1014	4.9	350	0	49
2026-02-14T17:04	5.0	1014	4.6	340	0	48
2026-02-14T17:05	5.3	1014	4.9	330	0	49
2026-02-14T17:06	5.3	1014	4.9	320	0	49
2026-02-14T17:07	5.4	1014	5.0	320	0	55
2026-02-14T17:08	5.5	1014	5.1	310	0	55
2026-02-14T17:09	5.2	1014	4.6	310	1	55
2026-02-14T17:10	5.3	1014	4.7	310	1	55
2026-02-14T17:11	5.3	1014	4.7	310	0	55
2026-02-14T17:12	5.2	1014	4.6	320	0	55
2026-02-14T17:13	5.1	1014	4.5	320	0	55
2026-02-14T17:14	5.3	1014	4.9	330	0	55
2026-02-14T17:15	5.3	1014	4.9	340	0	55
2026-02-14T17:16	5.2	1014	4.8	350	0	55
2026-02-14T17:17	5.1	1013	4.7	360	0	49
2026-02-14T17:18	5.1	1013	4.7	10	0	48
2026-02-14T17:19	5.2	1013	4.8	20	0	46
2026-02-14T17:20	5.3	1013	5.0	30	0	45
2026-02-14T17:21	5.3	1013	5.0	40	0	45
2026-02-14T17:22	5.2	1013	4.9	50	0	44
2026-02-14T17:23	5.3	1013	5.0	0	0	44
2026-02-14T17:24	5.2	1013	4.9	0	0	44
2026-02-14T17:25	5.1	1013	4.8	80	0	42
2026-02-14T17:26	5.2	1013	4.9	90	0	43
2026-02-14T17:27	5.3	1013	5.0	100	0	43
2026-02-14T17:28	5.2	1013	4.9	110	0	43
2026-02-14T17:29	5.0	1013	4.7	120	0	43
2026-02-14T17:30	5.0	1013	4.7	130	0	43
2026-02-14T17:31	5.2	1013	4.9	130	0	44
2026-02-14T17:32	5.2	1013	4.9	140	0	43
2026-02-14T17:33	5.1	1013	4.8	150	0	42
2026-02-14T17:34	5.1	1013	4.8	150	0	41
2026-02-14T17:35	5.1	1013	4.8	140	0	42
2026-02-14T17:36	5.2	1013	4.9	0	0	41
2026-02-14T17:37	5.2	1013	4.9	0	0	41
2026-02-14T17:38	5.2	1013	4.9	0	0	40
2026-02-14T17:39	5.2	1013	4.9	130	0	39
2026-02-14T17:40	4.8	1013	4.5	130	0	39
2026-02-14T17:41	5.0	1013	4.6	120	0	38
2026-02-14T17:42	5.1	1013	4.8	110	0	38
2026-02-14T17:43	5.1	1013	4.8	110	0	39
2026-02-14T17:44	5.2	1013	4.9	110	0	39
2026-02-14T17:45	5.3	1013	5.0	100	0	40
2026-02-14T17:46	5.3	1013	5.0	90	0	40
2026-02-14T17:47	5.3	1013	5.0	80	0	41
2026-02-14T17:48	5.1	1013	4.8	70	0	41
2026-02-14T17:49	5.0	1013	4.7	50	0	41
2026-02-14T17:50	5.1	1013	4.8	0	0	42
2026-02-14T17:51	5.0	1013	4.7	0	0	44
2026-02-14T17:52	5.0	1013	4.6	0	0	45
2026-02-14T17:53	5.0	1013	4.6	0	0	46
2026-02-14T17:54	4.9	1013	4.5	0	0	46
2026-02-14T17:55	4.9	1013	4.5	0	0	46
2026-02-14T17:56	5.1	1013	4.7	0	0	46
2026-02-14T17:57	5.1	1013	4.8	0	0	46
2026-02-14T17:58	5.0	1013	4.7	0	0	47
2026-02-14T17:59	5.1	1013	4.8	0	0	47
2026-02-14T18:00	5.1	1013	4.8	0	0	47
2026-02-14T18:01	5.2	1013	4.9	80	0	46
2026-02-14T18:02	5.2	1013	4.9	100	0	44
2026-02-14T18:03	5.2	1013	4.9	120	0	44
2026-02-14T18:04	5.2	1013	4.9	130	0	44
2026-02-14T18:05	4.9	1013	4.6	130	0	44
2026-02-14T18:06	4.8	1013	4.4	140	0	44
2026-02-14T18:07	4.9	1013	4.5	140	0	43
2026-02-14T18:08	5.0	1013	4.7	140	0	43
2026-02-14T18:09	4.9	1013	4.6	140	0	43
2026-02-14T18:10	4.9	1013	4.6	0	0	43
2026-02-14T18:11	4.8	1013	4.5	0	0	42
2026-02-14T18:12	4.9	1013	4.6	0	0	42
2026-02-14T18:13	5.0	1013	4.7	0	0	42
2026-02-14T18:14	5.0	1013	4.7	0	0	41
2026-02-14T18:15	5.0	1013	4.7	0	0	41
2026-02-14T18:16	5.1	1013	4.8	0	0	41
2026-02-14T18:17	5.1	1013	4.8	0	0	42
2026-02-14T18:18	5.2	1013	4.9	0	0	42
2026-02-14T18:19	5.2	1013	4.9	0	0	42
2026-02-14T18:20	5.0	1013	4.7	0	0	43
2026-02-14T18:21	5.0	1013	4.7	0	0	43
2026-02-14T18:22	5.1	1013	4.8	0	0	43
2026-02-14T18:23	5.1	1013	4.8	0	0	44
2026-02-14T18:24	5.0	1013	4.7	0	0	45
2026-02-14T18:25	5.2	1013	4.9	0	0	45
2026-02-14T18:26	5.1	1013	4.8	0	0	45
2026-02-14T18:27	5.1	1013	4.8	0	0	46
2026-02-14T18:28	5.0	1013	4.7	0	0	47
2026-02-14T18:29	5.0	1013	4.6	0	0	47
2026-02-14T18:30	5.0	1013	4.6	0	0	48
2026-02-14T18:31	5.0	1013	4.6	0	0	49
2026-02-14T18:32	5.0	1013	4.6	330	0	55
2026-02-14T18:33	5.1	1013	4.7	310	0	55
2026-02-14T18:34	5.1	1013	4.7	270	0	55
2026-02-14T18:35	5.1	1013	4.7	250	1	55
2026-02-14T18:36	5.1	1013	4.7	230	1	55
2026-02-14T18:37	5.1	1013	4.7	210	1	55
2026-02-14T18:38	5.0	1013	4.6	200	1	48
2026-02-14T18:39	5.2	1013	4.8	190	1	48
2026-02-14T18:40	5.2	1013	4.9	180	1	48
2026-02-14T18:41	5.0	1013	4.6	170	1	48
2026-02-14T18:42	5.0	1013	4.6	170	1	47
2026-02-14T18:43	5.1	1013	4.7	170	1	47
2026-02-14T18:44	5.1	1013	4.8	170	1	47
2026-02-14T18:45	5.0	1013	4.6	170	1	47
2026-02-14T18:46	5.1	1013	4.7	180	1	48
2026-02-14T18:47	5.2	1013	4.9	200	1	48
2026-02-14T18:48	5.0	1013	4.6	230	1	49
2026-02-14T18:49	4.9	1013	4.5	250	1	49
2026-02-14T18:50	5.0	1013	4.6	270	1	49
2026-02-14T18:51	5.0	1013	4.6	270	1	49
2026-02-14T18:52	5.1	1013	4.7	280	1	49
2026-02-14T18:53	5.1	1013	4.7	290	1	47
2026-02-14T18:54	5.0	1013	4.6	290	1	47
2026-02-14T18:55	4.9	1013	4.5	290	1	46
2026-02-14T18:56	5.0	1013	4.6	290	1	45
2026-02-14T18:57	5.1	1013	4.8	290	1	44
2026-02-14T18:58	5.0	1013	4.7	300	1	44
2026-02-14T18:59	4.9	1013	4.6	300	0	43
2026-02-14T19:00	4.8	1013	4.5	310	0	42
2026-02-14T19:01	5.0	1013	4.7	310	0	41
2026-02-14T19:02	5.0	1013	4.7	0	0	41
2026-02-14T19:03	4.9	1013	4.6	0	0	40
2026-02-14T19:04	4.9	1013	4.6	0	0	39
2026-02-14T19:05	4.7	1013	4.4	0	0	38
2026-02-14T19:06	4.7	1013	4.4	0	0	38
2026-02-14T19:07	4.8	1013	4.5	0	0	38
2026-02-14T19:08	4.9	1013	4.6	0	0	38
2026-02-14T19:09	4.9	1013	4.8	0	0	38
2026-02-14T19:10	4.9	1013	4.8	300	0	37
2026-02-14T19:11	4.7	1013	4.6	290	1	37
2026-02-14T19:12	4.7	1013	4.4	300	1	36
2026-02-14T19:13	4.7	1013	4.6	310	1	35
2026-02-14T19:14	4.7	1013	4.6	320	1	35
2026-02-14T19:15	4.7	1013	4.6	330	1	35
2026-02-14T19:16	4.7	1013	4.6	340	1	34
2026-02-14T19:17	4.7	1013	4.6	340	1	33
2026-02-14T19:18	4.7	1013	4.6	340	1	32
2026-02-14T19:19	4.7	1013	4.6	340	1	31
2026-02-14T19:20	4.6	1013	4.5	340	1	31
2026-02-14T19:21	4.5	1013	4.4	330	1	31
2026-02-14T19:22	4.6	1013	4.5	330	1	32
2026-02-14T19:23	4.6	1013	4.5	320	1	32
2026-02-14T19:24	4.7	1013	4.6	320	1	33
2026-02-14T19:25	4.7	1013	4.6	320	1	33
2026-02-14T19:26	4.5	1013	4.4	320	1	32
2026-02-14T19:27	4.5	1013	4.4	310	1	32
2026-02-14T19:28	4.4	1013	4.3	310	1	32
2026-02-14T19:29	4.3	1013	4.2	310	1	31
2026-02-14T19:30	4.2	1013	4.1	310	1	32
2026-02-14T19:31	4.2	1013	4.1	310	1	31
2026-02-14T19:32	4.3	1013	4.2	310	1	30
2026-02-14T19:33	4.3	1013	4.2	310	1	30
2026-02-14T19:34	4.4	1013	4.3	300	1	30
2026-02-14T19:35	4.2	1013	4.1	290	1	29
2026-02-14T19:36	4.1	1013	4.0	280	1	30
2026-02-14T19:37	4.2	1013	4.1	280	1	29
2026-02-14T19:38	3.8	1013	3.7	270	1	28
2026-02-14T19:39	3.9	1013	3.8	260	1	27
2026-02-14T19:40	4.0	1013	3.9	260	1	26
2026-02-14T19:41	4.0	1013	3.9	250	1	25
2026-02-14T19:42	3.9	1013	3.8	250	1	24
2026-02-14T19:43	4.0	1013	3.9	250	1	24
2026-02-14T19:44	4.0	1013	4.0	260	1	23
2026-02-14T19:45	4.1	1013	4.1	270	1	23
2026-02-14T19:46	4.1	1013	4.1	280	1	23
2026-02-14T19:47	4.1	1013	4.1	290	1	23
2026-02-14T19:48	4.1	1013	4.1	290	1	24
2026-02-14T19:49	4.0	1013	4.0	300	1	24
2026-02-14T19:50	4.1	1013	4.1	300	1	23
2026-02-14T19:51	4.2	1013	4.2	300	1	23
2026-02-14T19:52	4.1	1013	4.1	310	1	23
2026-02-14T19:53	4.1	1013	4.1	310	1	22
2026-02-14T19:54	4.2	1013	4.2	300	1	21
2026-02-14T19:55	3.8	1013	3.8	300	0	19
2026-02-14T19:56	4.0	1013	4.0	290	0	19
2026-02-14T19:57	3.7	1013	3.7	280	0	19
2026-02-14T19:58	3.7	1013	3.7	270	0	19
2026-02-14T19:59	3.8	1013	3.8	260	0	18
2026-02-14T20:00	3.4	1013	3.4	250	0	17
2026-02-14T20:01	3.8	1013	3.8	250	0	17
2026-02-14T20:02	3.9	1013	3.9	250	0	17
2026-02-14T20:03	4.0	1013	4.0	250	0	17
2026-02-14T20:04	3.7	1013	3.7	250	0	18
2026-02-14T20:05	3.7	1013	3.7	250	0	18
2026-02-14T20:06	3.9	1013	3.9	240	0	16
2026-02-14T20:07	3.7	1013	3.7	240	0	16
2026-02-14T20:08	3.7	1013	3.7	250	0	15
2026-02-14T20:09	3.8	1013	3.8	250	0	15
2026-02-14T20:10	3.7	1013	3.7	250	0	15
2026-02-14T20:11	3.5	1013	3.5	250	1	13
2026-02-14T20:12	3.4	1013	3.4	240	1	11
2026-02-14T20:13	3.6	1013	3.6	240	1	10
2026-02-14T20:14	3.7	1013	3.7	240	1	10
2026-02-14T20:15	3.7	1013	3.7	240	1	10
2026-02-14T20:16	3.5	1013	3.5	250	1	10
2026-02-14T20:17	3.5	1013	3.5	260	1	10
2026-02-14T20:18	3.6	1013	3.6	270	1	10
2026-02-14T20:19	3.4	1013	3.4	280	1	10
2026-02-14T20:20	3.2	1013	3.2	280	1	10
2026-02-14T20:21	3.3	1013	3.3	290	0	11
2026-02-14T20:22	3.5	1013	3.5	290	0	14
2026-02-14T20:23	3.3	1013	3.3	300	0	14
2026-02-14T20:24	3.3	1013	3.3	310	0	14
2026-02-14T20:25	3.5	1013	3.5	310	0	14
2026-02-14T20:26	3.6	1013	3.6	320	0	13
2026-02-14T20:27	3.6	1013	3.6	320	0	13
2026-02-14T20:28	3.6	1013	3.6	330	0	14
2026-02-14T20:29	3.6	1013	3.6	330	1	14
2026-02-14T20:30	3.6	1013	3.6	340	1	13
2026-02-14T20:31	3.1	1013	3.1	340	1	12
2026-02-14T20:32	3.0	1013	3.0	350	1	11
2026-02-14T20:33	3.2	1013	3.2	350	1	10
2026-02-14T20:34	3.2	1013	3.2	350	1	9
2026-02-14T20:35	3.1	1013	3.1	350	1	7
2026-02-14T20:36	3.4	1013	3.4	360	1	7
2026-02-14T20:37	3.3	1013	3.3	10	1	6
2026-02-14T20:38	3.2	1013	3.2	20	1	6
2026-02-14T20:39	3.2	1013	3.2	40	1	6
2026-02-14T20:40	3.1	1013	3.1	70	0	5
2026-02-14T20:41	3.0	1013	3.0	90	0	5
2026-02-14T20:42	3.0	1013	3.0	0	0	5
2026-02-14T20:43	3.2	1013	3.2	0	0	
2026-02-14T20:44	3.2	1013	3.2	0	0	
2026-02-14T20:45	2.9	1013	2.9	0	0	5
2026-02-14T20:46	3.0	1013	3.0	0	0	5
2026-02-14T20:47	3.2	1013	3.2	0	0	5
2026-02-14T20:48	3.0	1013	3.0	0	0	5
2026-02-14T20:49	3.2	1013	3.2	0	0	4
2026-02-14T20:50	3.1	1013	3.1	0	0	5
2026-02-14T20:51	2.8	1013	2.8	0	0	3
2026-02-14T20:52	3.0	1013	3.0	0	0	3
2026-02-14T20:53	3.0	1013	3.0	0	0	2
2026-02-14T20:54	2.9	1013	2.9	0	0	2
2026-02-14T20:55	3.1	1013	3.1	0	0	2
2026-02-14T20:56	2.9	1013	2.9	0	0	2
2026-02-14T20:57	3.0	1013	3.0	0	0	2
2026-02-14T20:58	3.0	1013	3.0	110	0	2
2026-02-14T20:59	2.8	1013	2.8	120	0	2
2026-02-14T21:00	2.7	1013	2.7	130	0	2
2026-02-14T21:01	2.8	1013	2.8	130	1	2
2026-02-14T21:02	3.1	1013	3.1	140	1	2
2026-02-14T21:03	3.1	1013	3.1	140	1	3
2026-02-14T21:04	2.9	1013	2.9	140	1	4
2026-02-14T21:05	3.0	1013	3.0	140	1	4
2026-02-14T21:06	2.9	1013	2.9	140	1	3
2026-02-14T21:07	2.6	1013	2.6	140	1	2
2026-02-14T21:08	2.6	1013	2.6	130	1	2
2026-02-14T21:09	2.6	1013	2.6	130	1	2
2026-02-14T21:10	2.8	1013	2.8	130	1	1
2026-02-14T21:11	2.9	1013	2.9	120	1	1
2026-02-14T21:12	2.8	1013	2.8	120	1	1
2026-02-14T21:13	2.8	1013	2.8	120	1	1
2026-02-14T21:14	2.8	1013	2.8	110	1	1
2026-02-14T21:15	2.8	1013	2.8	110	0	1
2026-02-14T21:16	2.9	1013	2.9	100	0	1
2026-02-14T21:17	2.8	1013	2.8	100	0	2
2026-02-14T21:18	2.8	1013	2.8	100	0	2
2026-02-14T21:19	2.5	1013	2.5	110	0	2
2026-02-14T21:20	2.5	1013	2.5	110	0	2
2026-02-14T21:21	2.3	1013	2.3	110	0	2
2026-02-14T21:22	2.6	1013	2.6	0	0	2
2026-02-14T21:23	2.7	1013	2.7	0	0	1
2026-02-14T21:24	2.5	1013	2.5	0	0	1
2026-02-14T21:25	2.4	1013	2.4	0	0	1
2026-02-14T21:26	2.5	1013	2.5	0	0	1
2026-02-14T21:27	2.6	1013	2.6	0	0	2
2026-02-14T21:28	2.6	1013	2.6	0	0	2
2026-02-14T21:29	2.3	1013	2.3	0	0	2
2026-02-14T21:30	2.2	1013	2.2	0	0	2
2026-02-14T21:31	2.0	1013	2.0	0	0	3
2026-02-14T21:32	2.4	1013	2.4	0	0	5
2026-02-14T21:33	2.6	1013	2.6	0	0	8
2026-02-14T21:34	2.4	1013	2.4	0	0	7
2026-02-14T21:35	2.4	1013	2.4	0	0	6
2026-02-14T21:36	2.5	1013	2.5	0	0	4
2026-02-14T21:37	2.7	1013	2.7	0	0	3
2026-02-14T21:38	2.6	1013	2.6	120	0	3
2026-02-14T21:39	2.5	1013	2.5	120	0	2
2026-02-14T21:40	2.5	1013	2.5	110	0	2
2026-02-14T21:41	2.6	1013	2.6	110	1	2
2026-02-14T21:42	2.5	1013	2.5	110	1	2
2026-02-14T21:43	2.3	1013	2.3	110	1	2
2026-02-14T21:44	2.5	1013	2.5	110	1	2
2026-02-14T21:45	2.7	1013	2.7	110	1	2
2026-02-14T21:46	2.8	1013	2.8	110	1	3
2026-02-14T21:47	2.5	1013	2.5	110	1	3
2026-02-14T21:48	1.9	1013	1.9	110	1	4
2026-02-14T21:49	1.9	1013	1.9	110	1	4
2026-02-14T21:50	1.9	1013	1.9	110	0	5
2026-02-14T21:51	2.0	1013	2.0	110	0	6
2026-02-14T21:52	2.1	1013	2.1	120	0	6
2026-02-14T21:53	2.0	1013	2.0	120	0	6
2026-02-14T21:54	2.3	1013	2.3	120	0	5
2026-02-14T21:55	2.3	1013	2.3	120	0	4
2026-02-14T21:56	2.0	1013	2.0	110	0	3
2026-02-14T21:57	2.2	1013	2.2	110	0	2
2026-02-14T21:58	2.4	1013	2.4	110	0	2
2026-02-14T21:59	2.5	1013	2.5	110	0	2
2026-02-14T22:00	2.6	1013	2.6	110	0	2
2026-02-14T22:01	2.5	1013	2.5	110	0	1
2026-02-14T22:02	2.6	1013	2.6	100	0	1
2026-02-14T22:03	2.5	1013	2.5	100	0	1
2026-02-14T22:04	2.3	1013	2.3	0	0	2
2026-02-14T22:05	2.4	1013	2.4	0	0	2
2026-02-14T22:06	2.6	1013	2.6	0	0	2
2026-02-14T22:07	2.5	1014	2.5	0	0	3
2026-02-14T22:08	2.4	1014	2.4	0	0	4
2026-02-14T22:09	2.4	1014	2.4	0	0	5
2026-02-14T22:10	2.5	1014	2.5	140	0	5
2026-02-14T22:11	2.8	1014	2.8	140	0	7
2026-02-14T22:12	2.7	1014	2.7	140	0	8
2026-02-14T22:13	2.7	1014	2.7	150	0	9
2026-02-14T22:14	2.6	1014	2.6	140	1	9
2026-02-14T22:15	2.6	1014	2.6	140	1	11
2026-02-14T22:16	2.6	1014	2.6	140	1	13
2026-02-14T22:17	2.8	1014	2.8	130	0	12
2026-02-14T22:18	2.7	1014	2.7	120	0	12
2026-02-14T22:19	2.6	1014	2.6	110	0	12
2026-02-14T22:20	2.7	1014	2.7	0	0	13
2026-02-14T22:21	2.8	1014	2.8	0	0	14
2026-02-14T22:22	2.9	1014	2.9	0	0	15
2026-02-14T22:23	3.0	1014	3.0	0	0	16
2026-02-14T22:24	2.9	1014	2.9	0	0	18
2026-02-14T22:25	2.8	1014	2.8	170	0	20
2026-02-14T22:26	2.9	1014	2.9	190	0	22
2026-02-14T22:27	3.0	1014	3.0	200	0	23
2026-02-14T22:28	3.0	1014	3.0	210	0	23
2026-02-14T22:29	3.1	1014	3.1	220	1	23
2026-02-14T22:30	3.3	1014	3.3	220	1	23
2026-02-14T22:31	3.2	1014	3.2	230	1	23
2026-02-14T22:32	3.4	1014	3.4	230	1	23
2026-02-14T22:33	3.5	1014	3.5	230	1	23
2026-02-14T22:34	3.5	1014	3.5	240	1	23
2026-02-14T22:35	3.4	1014	3.4	240	1	24
2026-02-14T22:36	3.6	1014	3.6	250	1	24
2026-02-14T22:37	3.7	1014	3.7	250	1	25
2026-02-14T22:38	3.9	1014	3.9	260	1	25
2026-02-14T22:39	3.8	1014	3.8	260	1	24
2026-02-14T22:40	3.9	1014	3.9	260	1	24
2026-02-14T22:41	4.0	1014	4.0	260	1	23
2026-02-14T22:42	4.2	1014	4.2	260	1	23
2026-02-14T22:43	4.2	1014	4.2	260	1	22
2026-02-14T22:44	4.3	1014	4.3	260	1	22
2026-02-14T22:45	4.4	1014	4.4	260	1	23
2026-02-14T22:46	4.8	1014	4.8	260	1	23
2026-02-14T22:47	4.7	1014	4.7	260	1	23
2026-02-14T22:48	4.8	1014	4.8	260	1	24
2026-02-14T22:49	4.9	1014	4.9	260	1	24
2026-02-14T22:50	5.0	1014	5.0	260	1	25
2026-02-14T22:51	5.1	1014	5.1	260	1	27
2026-02-14T22:52	5.3	1014	5.3	270	1	28
2026-02-14T22:53	5.5	1014	5.5	270	1	30
2026-02-14T22:54	5.5	1014	5.5	270	1	30
2026-02-14T22:55	5.4	1014	5.4	260	1	31
2026-02-14T22:56	5.4	1014	5.4	260	1	34
2026-02-14T22:57	5.6	1014	5.6	250	1	35
2026-02-14T22:58	5.8	1014	5.8	250	1	38
2026-02-14T22:59	5.9	1014	5.9	250	0	40
2026-02-14T23:00	5.8	1014	5.8	260	0	42
2026-02-14T23:01	5.8	1014	5.8	260	0	42
2026-02-14T23:02	5.9	1014	5.8	260	0	43
2026-02-14T23:03	5.8	1014	5.7	260	0	45
2026-02-14T23:04	6.1	1014	5.8	0	0	47
2026-02-14T23:05	6.2	1014	5.9	0	0	47
2026-02-14T23:06	6.4	1014	6.0	0	0	47
2026-02-14T23:07	6.3	1014	5.9	0	0	47
2026-02-14T23:08	6.2	1014	5.6	0	0	48
2026-02-14T23:09	6.4	1014	5.7	0	0	49
2026-02-14T23:10	6.6	1014	6.0	0	0	48
2026-02-14T23:11	6.6	1014	5.9	0	0	49
2026-02-14T23:12	6.8	1014	6.1	0	0	49
2026-02-14T23:13	6.8	1014	5.9	0	0	55
2026-02-14T23:14	6.7	1014	5.7	0	0	55
2026-02-14T23:15	6.8	1014	5.8	0	0	55
2026-02-14T23:16	6.8	1014	5.6	0	0	55
2026-02-14T23:17	6.9	1014	5.7	0	0	55
2026-02-14T23:18	6.9	1014	5.7	260	0	55
2026-02-14T23:19	6.9	1014	5.5	260	0	55
2026-02-14T23:20	7.0	1014	5.6	260	0	55
2026-02-14T23:21	7.1	1014	5.7	260	0	55
2026-02-14T23:22	7.3	1014	5.9	250	1	55
2026-02-14T23:23	7.4	1014	5.9	250	1	55
2026-02-14T23:24	7.3	1014	5.6	250	1	55
2026-02-14T23:25	7.5	1014	5.8	250	1	55
2026-02-14T23:26	7.4	1014	5.7	250	1	55
2026-02-14T23:27	7.5	1014	5.8	240	1	55
2026-02-14T23:28	7.7	1014	6.0	240	1	55
2026-02-14T23:29	7.7	1014	5.9	240	0	55
2026-02-14T23:30	7.6	1014	5.6	240	0	55
2026-02-14T23:31	7.7	1014	5.7	240	0	55
2026-02-14T23:32	7.6	1014	5.6	240	0	55
2026-02-14T23:33	7.6	1014	5.6	240	0	55
2026-02-14T23:34	7.7	1014	5.7	250	0	55
2026-02-14T23:35	7.9	1014	5.9	250	0	55
2026-02-14T23:36	7.8	1014	5.6	250	0	55
2026-02-14T23:37	7.9	1014	5.7	250	1	55
2026-02-14T23:38	8.1	1014	5.9	260	1	55
2026-02-14T23:39	8.0	1014	5.6	260	1	55
2026-02-14T23:40	8.0	1014	5.6	260	1	55
2026-02-14T23:41	8.1	1014	5.7	250	1	55
2026-02-14T23:42	8.1	1014	5.7	250	1	56
2026-02-14T23:43	8.3	1014	5.9	250	1	56
2026-02-14T23:44	8.4	1014	6.0	240	1	56
2026-02-14T23:45	8.3	1014	5.8	240	1	56
2026-02-14T23:46	8.5	1014	6.0	230	1	56
2026-02-14T23:47	8.3	1014	5.6	230	1	56
2026-02-14T23:48	8.5	1014	6.0	230	1	56
2026-02-14T23:49	8.6	1014	6.1	220	1	56
2026-02-14T23:50	8.6	1014	5.9	220	1	56
2026-02-14T23:51	8.6	1014	5.9	220	1	56
2026-02-14T23:52	8.6	1014	5.7	230	1	56
2026-02-14T23:53	8.7	1014	5.8	230	1	56
2026-02-14T23:54	8.8	1014	5.9	230	1	56
2026-02-14T23:55	8.8	1014	5.9	240	1	56
2026-02-14T23:56	9.1	1014	6.2	240	1	56
2026-02-14T23:57	9.1	1014	6.0	240	1	56
2026-02-14T23:58	9.0	1014	5.8	250	1	56
2026-02-14T23:59	8.9	1014	5.7	250	1	56
2026-02-15T00:00	9.3	1014	6.2	250	1	56
2026-02-15T00:01	9.1	1014	5.8	260	1	56
2026-02-15T00:02	9.3	1014	6.0	260	1	56
2026-02-15T00:03	9.2	1014	5.8	270	1	56
2026-02-15T00:04	9.2	1014	5.8	280	1	56
2026-02-15T00:05	9.3	1014	5.9	290	1	56
2026-02-15T00:06	9.2	1014	5.8	300	1	56
2026-02-15T00:07	9.2	1014	5.8	320	1	56
2026-02-15T00:08	9.4	1014	6.0	330	1	56
2026-02-15T00:09	9.5	1014	6.1	330	1	56
2026-02-15T00:10	9.7	1014	6.3	340	1	56
2026-02-15T00:11	9.5	1014	5.9	340	1	56
2026-02-15T00:12	9.7	1014	6.1	340	1	56
2026-02-15T00:13	10.2	1014	6.6	350	1	56
2026-02-15T00:14	10.2	1014	6.4	350	1	56
2026-02-15T00:15	10.7	1014	6.8	330	1	56
2026-02-15T00:16	10.1	1014	5.9	310	1	56
2026-02-15T00:17	9.8	1014	5.6	280	1	56
2026-02-15T00:18	10.0	1014	6.0	260	1	56
2026-02-15T00:19	10.1	1014	6.1	260	1	56
2026-02-15T00:20	10.5	1014	6.5	250	1	56
2026-02-15T00:21	10.2	1014	6.0	240	1	56
2026-02-15T00:22	10.2	1014	6.0	250	1	56
2026-02-15T00:23	10.2	1013	6.0	250	1	56
2026-02-15T00:24	10.0	1013	5.8	260	1	56
2026-02-15T00:25	10.0	1013	6.0	270	1	56
2026-02-15T00:26	10.2	1013	6.2	280	1	56
2026-02-15T00:27	10.2	1013	6.2	300	1	56
2026-02-15T00:28	10.1	1013	5.9	310	1	56
2026-02-15T00:29	10.2	1013	6.2	320	1	56
2026-02-15T00:30	10.2	1013	6.2	320	1	56
2026-02-15T00:31	10.4	1013	6.4	330	1	56
2026-02-15T00:32	10.3	1013	6.1	340	1	56
2026-02-15T00:33	10.5	1013	6.3	350	1	56
2026-02-15T00:34	10.5	1013	6.3	350	1	56
2026-02-15T00:35	10.8	1013	6.6	340	1	56
2026-02-15T00:36	11.4	1013	7.1	320	1	56
2026-02-15T00:37	11.4	1013	6.7	310	1	56
2026-02-15T00:38	11.1	1013	6.3	290	1	56
2026-02-15T00:39	11.1	1013	6.3	300	1	56
2026-02-15T00:40	11.0	1013	6.2	300	1	56
2026-02-15T00:41	11.0	1013	6.2	300	1	56
2026-02-15T00:42	11.4	1013	6.5	300	1	56
2026-02-15T00:43	11.3	1013	6.3	300	1	56
2026-02-15T00:44	10.9	1013	5.9	310	1	56
2026-02-15T00:45	10.7	1013	5.9	320	1	56
2026-02-15T00:46	10.8	1013	6.0	330	1	56
2026-02-15T00:47	11.0	1013	6.4	330	1	56
2026-02-15T00:48	11.4	1013	6.5	330	1	56
2026-02-15T00:49	11.9	1013	7.0	220	1	56
2026-02-15T00:50	11.5	1013	6.2	290	1	56
2026-02-15T00:51	11.6	1013	6.5	260	1	56
2026-02-15T00:52	11.5	1013	6.4	240	1	56
2026-02-15T00:53	11.6	1013	6.5	240	1	56
2026-02-15T00:54	11.6	1013	6.5	230	1	56
2026-02-15T00:55	11.5	1013	6.4	230	1	56
2026-02-15T00:56	11.6	1013	6.5	230	1	57
2026-02-15T00:57	11.7	1013	6.6	230	1	57
2026-02-15T00:58	11.7	1013	6.6	230	1	57
2026-02-15T00:59	11.8	1013	6.5	240	1	57
2026-02-15T01:00	11.7	1013	6.6	240	1	57
2026-02-15T01:01	11.6	1013	6.3	240	1	57
2026-02-15T01:02	11.7	1013	6.6	240	1	57
2026-02-15T01:03	12.0	1013	6.9	240	1	57
2026-02-15T01:04	11.8	1013	6.5	240	1	57
2026-02-15T01:05	11.8	1013	6.5	230	1	57
2026-02-15T01:06	11.9	1013	6.6	230	1	57
2026-02-15T01:07	12.2	1013	6.9	230	1	57
2026-02-15T01:08	12.1	1013	6.6	230	1	57
2026-02-15T01:09	12.1	1013	6.6	220	1	57
2026-02-15T01:10	12.2	1013	6.7	220	1	57
2026-02-15T01:11	12.4	1013	6.9	220	1	57
2026-02-15T01:12	13.0	1013	7.5	90	1	57
2026-02-15T01:13	12.4	1013	6.5	20	1	57
2026-02-15T01:14	12.1	1013	6.2	10	1	57
2026-02-15T01:15	12.1	1013	6.4	230	1	57
2026-02-15T01:16	12.3	1013	6.8	230	1	57
2026-02-15T01:17	12.5	1013	7.0	240	1	57
2026-02-15T01:18	13.0	1013	7.2	240	1	57
2026-02-15T01:19	12.7	1013	6.7	230	1	57
2026-02-15T01:20	12.5	1013	6.6	220	1	57
2026-02-15T01:21	12.6	1013	6.9	210	1	57
2026-02-15T01:22	12.4	1013	6.5	210	1	57
2026-02-15T01:23	12.1	1013	6.2	200	1	57
2026-02-15T01:24	12.2	1013	6.5	180	1	57
2026-02-15T01:25	12.5	1013	6.8	160	1	57
2026-02-15T01:26	12.7	1013	7.0	140	1	57
2026-02-15T01:27	12.9	1013	7.2	120	1	57
2026-02-15T01:28	12.8	1013	6.8	110	1	57
2026-02-15T01:29	12.6	1013	6.7	110	1	56
2026-02-15T01:30	12.7	1013	6.7	100	1	56
2026-02-15T01:31	12.6	1013	6.7	240	1	56
2026-02-15T01:32	12.6	1013	6.7	250	1	56
2026-02-15T01:33	12.6	1013	6.7	260	1	56
2026-02-15T01:34	12.7	1013	6.7	300	1	55
2026-02-15T01:35	12.7	1013	6.7	300	1	55
2026-02-15T01:36	12.8	1013	6.8	290	1	55
2026-02-15T01:37	13.0	1013	7.0	280	1	55
2026-02-15T01:38	13.0	1013	7.0	280	1	55
2026-02-15T01:39	12.9	1013	6.7	280	2	55
2026-02-15T01:40	12.7	1013	6.5	280	2	55
2026-02-15T01:41	12.6	1013	6.4	290	2	55
2026-02-15T01:42	12.7	1013	6.7	290	2	49
2026-02-15T01:43	12.8	1013	6.8	290	2	55
2026-02-15T01:44	12.7	1013	6.5	290	2	55
2026-02-15T01:45	13.2	1013	7.2	290	2	55
2026-02-15T01:46	13.3	1013	7.1	290	2	55
2026-02-15T01:47	13.3	1013	6.9	280	2	55
2026-02-15T01:48	13.2	1013	6.8	280	2	55
2026-02-15T01:49	13.3	1013	6.9	280	2	55
2026-02-15T01:50	13.5	1013	6.8	280	2	55
2026-02-15T01:51	13.6	1013	6.7	270	2	55
2026-02-15T01:52	13.3	1013	6.4	270	2	55
2026-02-15T01:53	13.3	1012	6.4	260	2	55
2026-02-15T01:54	13.3	1012	6.7	250	2	55
2026-02-15T01:55	13.4	1012	6.7	240	2	55
2026-02-15T01:56	13.4	1012	6.5	240	2	55
2026-02-15T01:57	13.5	1012	6.8	230	2	55
2026-02-15T01:58	13.6	1012	6.7	220	1	55
2026-02-15T01:59	13.7	1012	6.8	220	2	56
2026-02-15T02:00	13.7	1012	6.8	230	2	56
2026-02-15T02:01	13.4	1012	6.3	230	2	56
2026-02-15T02:02	13.9	1012	7.0	230	2	56
2026-02-15T02:03	14.0	1012	6.9	240	2	56
2026-02-15T02:04	13.7	1012	6.3	240	2	56
2026-02-15T02:05	13.7	1012	6.3	250	2	56
2026-02-15T02:06	13.6	1012	6.5	260	2	56
2026-02-15T02:07	13.8	1012	6.7	270	2	57
2026-02-15T02:08	14.1	1012	6.7	270	2	57
2026-02-15T02:09	13.8	1012	5.9	270	2	57
2026-02-15T02:10	13.7	1012	5.9	280	2	58
2026-02-15T02:11	13.5	1012	5.7	280	2	58
2026-02-15T02:12	13.5	1012	5.9	280	2	58
2026-02-15T02:13	13.8	1012	6.2	280	2	58
2026-02-15T02:14	13.7	1012	6.1	270	2	58
2026-02-15T02:15	13.8	1012	6.4	270	2	58
2026-02-15T02:16	13.8	1012	6.2	270	2	57
2026-02-15T02:17	13.8	1012	6.2	260	2	57
2026-02-15T02:18	14.1	1012	6.5	250	1	57
2026-02-15T02:19	14.3	1012	6.7	240	1	56
2026-02-15T02:20	14.2	1012	6.3	240	1	56
2026-02-15T02:21	14.0	1012	6.1	220	1	56
2026-02-15T02:22	13.8	1012	5.9	200	1	56
2026-02-15T02:23	14.0	1012	6.6	180	1	55
2026-02-15T02:24	14.0	1012	6.6	160	1	55
2026-02-15T02:25	14.3	1012	6.9	160	1	55
2026-02-15T02:26	14.2	1012	6.3	160	1	55
2026-02-15T02:27	14.4	1012	6.5	150	1	55
2026-02-15T02:28	14.2	1012	6.3	140	1	55
2026-02-15T02:29	14.2	1012	6.3	150	1	55
2026-02-15T02:30	14.2	1012	6.3	160	1	55
2026-02-15T02:31	14.1	1012	6.2	170	1	55
2026-02-15T02:32	14.2	1012	6.3	190	1	55
2026-02-15T02:33	14.1	1011	6.2	210	1	55
2026-02-15T02:34	13.9	1011	6.0	210	1	55
2026-02-15T02:35	14.2	1011	6.6	200	1	55
2026-02-15T02:36	14.2	1011	6.3	190	1	55
2026-02-15T02:37	13.9	1011	6.0	190	1	55
2026-02-15T02:38	14.1	1011	6.2	210	1	55
2026-02-15T02:39	14.1	1011	6.2	220	1	55
2026-02-15T02:40	14.1	1011	6.2	250	1	55
2026-02-15T02:41	14.0	1011	6.1	290	1	55
2026-02-15T02:42	14.0	1011	6.1	260	1	55
2026-02-15T02:43	14.4	1011	6.5	240	1	55
2026-02-15T02:44	15.2	1011	7.3	240	1	55
2026-02-15T02:45	14.7	1011	6.3	250	1	55
2026-02-15T02:46	14.6	1011	6.2	250	1	55
2026-02-15T02:47	14.5	1011	6.1	250	1	55
2026-02-15T02:48	14.8	1011	6.4	240	2	55
2026-02-15T02:49	15.1	1011	6.1	230	2	55
2026-02-15T02:50	15.4	1011	6.2	220	2	55
2026-02-15T02:51	15.0	1011	5.5	210	2	55
2026-02-15T02:52	14.9	1011	5.4	210	2	56
2026-02-15T02:53	14.8	1011	5.6	210	2	56
2026-02-15T02:54	14.8	1011	5.6	210	2	57
2026-02-15T02:55	15.1	1011	5.9	220	2	57
2026-02-15T02:56	15.1	1011	5.9	220	2	58
2026-02-15T02:57	15.1	1011	5.9	220	2	59
2026-02-15T02:58	15.3	1011	6.1	220	2	60
2026-02-15T02:59	15.2	1011	5.7	220	2	61
2026-02-15T03:00	15.2	1011	5.7	230	2	61
2026-02-15T03:01	15.0	1011	5.5	230	2	62
2026-02-15T03:02	15.2	1011	6.0	230	3	62
2026-02-15T03:03	15.3	1011	5.8	230	3	63
2026-02-15T03:04	15.3	1010	5.8	230	3	63
2026-02-15T03:05	15.4	1010	5.9	230	3	63
2026-02-15T03:06	16.0	1010	6.7	230	3	63
2026-02-15T03:07	16.2	1011	6.6	230	3	63
2026-02-15T03:08	15.6	1011	5.8	220	3	62
2026-02-15T03:09	15.3	1011	5.8	220	3	62
2026-02-15T03:10	15.3	1011	5.8	220	3	62
2026-02-15T03:11	15.4	1011	6.2	220	3	61
2026-02-15T03:12	15.4	1011	6.2	220	2	61
2026-02-15T03:13	15.3	1010	5.8	220	2	61
2026-02-15T03:14	15.3	1010	6.1	220	2	61
2026-02-15T03:15	15.5	1010	6.3	220	2	61
2026-02-15T03:16	15.6	1010	6.1	220	2	60
2026-02-15T03:17	16.0	1010	6.4	220	2	60
2026-02-15T03:18	15.9	1010	6.1	220	2	61
2026-02-15T03:19	15.6	1010	5.8	230	2	61
2026-02-15T03:20	15.6	1010	6.1	230	2	61
2026-02-15T03:21	15.9	1010	6.4	230	2	62
2026-02-15T03:22	15.6	1010	5.8	230	2	62
2026-02-15T03:23	15.5	1010	5.7	240	2	62
2026-02-15T03:24	15.5	1010	5.7	240	2	62
2026-02-15T03:25	15.5	1010	6.0	240	2	62
2026-02-15T03:26	15.5	1010	6.0	240	2	63
2026-02-15T03:27	15.8	1010	6.3	240	2	63
2026-02-15T03:28	15.9	1010	6.4	240	2	63
2026-02-15T03:29	15.7	1010	6.2	240	2	63
2026-02-15T03:30	15.7	1010	6.2	230	2	63
2026-02-15T03:31	16.0	1010	6.7	230	2	63
2026-02-15T03:32	16.3	1010	6.7	220	2	63
2026-02-15T03:33	16.4	1010	6.5	210	2	62
2026-02-15T03:34	16.3	1010	6.2	210	2	63
2026-02-15T03:35	16.2	1010	6.1	210	2	63
2026-02-15T03:36	15.8	1010	5.7	220	2	62
2026-02-15T03:37	16.3	1010	6.4	220	2	62
2026-02-15T03:38	16.7	1010	6.2	230	2	62
2026-02-15T03:39	16.5	1010	6.1	240	3	62
2026-02-15T03:40	16.5	1010	6.4	240	3	62
2026-02-15T03:41	16.7	1010	6.5	250	3	63
2026-02-15T03:42	16.8	1010	6.6	260	3	63
2026-02-15T03:43	16.9	1010	6.4	260	3	63
2026-02-15T03:44	16.8	1010	6.3	270	3	63
2026-02-15T03:45	16.4	1010	6.0	270	3	63
2026-02-15T03:46	16.2	1010	5.8	270	3	64
2026-02-15T03:47	16.2	1010	5.8	270	3	64
2026-02-15T03:48	16.2	1010	5.8	260	3	64
2026-02-15T03:49	16.5	1010	6.1	260	3	64
2026-02-15T03:50	16.7	1010	6.2	260	3	64
2026-02-15T03:51	16.6	1010	5.9	260	3	63
2026-02-15T03:52	16.3	1010	5.6	260	3	64
2026-02-15T03:53	16.8	1010	6.3	250	3	64
2026-02-15T03:54	16.7	1010	6.0	250	3	64
2026-02-15T03:55	16.5	1010	5.8	250	3	64
2026-02-15T03:56	16.2	1010	5.5	240	3	63
2026-02-15T03:57	16.2	1010	5.8	240	3	63
2026-02-15T03:58	16.2	1010	5.8	250	2	63
2026-02-15T03:59	16.1	1010	6.0	250	2	63
2026-02-15T04:00	16.3	1010	6.2	250	2	64
2026-02-15T04:01	16.1	1010	5.7	240	2	63
2026-02-15T04:02	16.3	1010	6.2	230	2	63
2026-02-15T04:03	16.6	1010	6.4	230	2	63
2026-02-15T04:04	17.0	1010	6.5	220	2	63
2026-02-15T04:05	16.8	1010	6.0	220	2	63
2026-02-15T04:06	16.8	1010	6.0	220	2	63
2026-02-15T04:07	16.3	1010	5.6	220	2	63
2026-02-15T04:08	16.3	1010	5.9	220	3	63
2026-02-15T04:09	16.5	1010	6.1	220	3	64
2026-02-15T04:10	16.3	1010	5.9	220	3	63
2026-02-15T04:11	15.9	1010	5.5	220	2	64
2026-02-15T04:12	15.7	1010	5.6	220	2	64
2026-02-15T04:13	16.1	1010	6.0	210	2	64
2026-02-15T04:14	16.1	1010	5.7	210	2	64
2026-02-15T04:15	16.2	1010	5.8	200	1	63
2026-02-15T04:16	16.1	1010	5.7	190	1	62
2026-02-15T04:17	16.4	1010	6.0	190	1	61
2026-02-15T04:18	16.3	1010	5.9	190	1	61
2026-02-15T04:19	16.4	1010	6.0	180	1	61
2026-02-15T04:20	16.8	1010	6.3	180	1	61
2026-02-15T04:21	16.6	1010	5.9	180	2	61
2026-02-15T04:22	16.9	1010	6.1	180	2	61
2026-02-15T04:23	16.4	1009	5.7	190	2	61
2026-02-15T04:24	16.4	1009	5.7	200	2	61
2026-02-15T04:25	16.7	1009	6.2	200	2	62
2026-02-15T04:26	16.8	1009	6.0	210	2	62
2026-02-15T04:27	16.5	1009	5.5	210	2	63
2026-02-15T04:28	16.7	1009	6.0	220	2	63
2026-02-15T04:29	16.7	1009	6.0	230	2	63
2026-02-15T04:30	16.5	1009	5.8	240	2	62
2026-02-15T04:31	16.4	1009	5.7	260	1	63
2026-02-15T04:32	16.4	1009	5.4	260	1	62
2026-02-15T04:33	16.4	1009	5.7	270	1	63
2026-02-15T04:34	16.5	1009	5.8	300	1	63
2026-02-15T04:35	16.7	1009	6.0	330	1	63
2026-02-15T04:36	16.4	1009	5.4	350	1	63
2026-02-15T04:37	16.6	1009	5.9	100	1	62
2026-02-15T04:38	17.1	1009	6.0	50	1	62
2026-02-15T04:39	17.2	1009	6.1	80	1	62
2026-02-15T04:40	16.9	1009	5.5	120	1	63
2026-02-15T04:41	16.8	1009	5.8	150	2	63
2026-02-15T04:42	16.8	1009	5.4	160	2	63
2026-02-15T04:43	16.9	1009	5.8	170	2	63
2026-02-15T04:44	17.0	1009	5.6	160	2	63
2026-02-15T04:45	17.0	1009	5.6	170	2	63
2026-02-15T04:46	17.4	1009	6.0	170	2	63
2026-02-15T04:47	17.4	1009	5.7	180	2	63
2026-02-15T04:48	17.4	1009	5.7	200	2	63
2026-02-15T04:49	17.1	1009	5.4	210	2	64
2026-02-15T04:50	16.9	1009	5.2	210	1	64
2026-02-15T04:51	16.8	1009	5.1	210	1	64
2026-02-15T04:52	17.7	1009	6.3	220	2	64
2026-02-15T04:53	18.0	1009	6.2	230	2	64
2026-02-15T04:54	17.1	1009	4.8	250	2	64
2026-02-15T04:55	17.0	1009	5.3	250	2	64
2026-02-15T04:56	17.3	1009	5.9	250	2	64
2026-02-15T04:57	17.7	1009	6.3	240	2	65
2026-02-15T04:58	17.9	1009	6.1	240	2	65
2026-02-15T04:59	17.6	1009	5.9	240	2	64
2026-02-15T05:00	17.3	1009	5.6	230	2	64
2026-02-15T05:01	17.3	1009	5.3	130	2	64
2026-02-15T05:02	16.7	1009	4.7	200	2	64
2026-02-15T05:03	17.0	1009	5.3	160	1	64
2026-02-15T05:04	17.1	1009	5.7	130	1	64
2026-02-15T05:05	16.9	1009	5.8	100	1	64
2026-02-15T05:06	17.1	1009	6.0	70	1	64
2026-02-15T05:07	17.5	1009	6.4	60	1	64
2026-02-15T05:08	17.4	1009	6.0	60	1	64
2026-02-15T05:09	17.2	1009	6.1	310	1	64
2026-02-15T05:10	17.2	1009	6.1	360	1	64
2026-02-15T05:11	17.1	1009	6.0	330	1	64
2026-02-15T05:12	17.8	1009	6.7	320	1	63
2026-02-15T05:13	17.7	1009	6.0	300	1	64
2026-02-15T05:14	17.8	1009	5.7	280	1	64
2026-02-15T05:15	17.6	1009	5.6	250	1	64
2026-02-15T05:16	17.5	1009	5.5	240	1	64
2026-02-15T05:17	17.4	1009	5.4	230	1	64
2026-02-15T05:18	17.3	1009	5.3	220	2	65
2026-02-15T05:19	17.4	1009	5.0	220	2	66
2026-02-15T05:20	17.3	1009	5.0	220	2	66
2026-02-15T05:21	17.2	1009	4.9	220	2	67
2026-02-15T05:22	17.5	1009	5.1	220	2	68
2026-02-15T05:23	17.6	1009	5.2	220	2	68
2026-02-15T05:24	17.5	1009	5.1	230	2	67
2026-02-15T05:25	17.4	1009	5.0	230	2	67
2026-02-15T05:26	17.2	1009	4.9	240	2	67
2026-02-15T05:27	17.3	1009	5.0	240	2	67
2026-02-15T05:28	17.3	1009	4.6	240	2	67
2026-02-15T05:29	17.5	1009	4.8	230	1	67
2026-02-15T05:30	17.2	1009	4.5	230	1	67
2026-02-15T05:31	17.2	1009	4.5	220	1	67
2026-02-15T05:32	17.5	1009	5.1	220	1	67
2026-02-15T05:33	17.5	1009	4.8	220	1	67
2026-02-15T05:34	17.4	1009	4.4	220	1	67
2026-02-15T05:35	17.6	1009	4.9	220	2	67
2026-02-15T05:36	17.6	1009	4.6	220	2	68
2026-02-15T05:37	17.5	1009	4.5	220	2	68
2026-02-15T05:38	17.5	1009	4.1	230	2	69
2026-02-15T05:39	17.3	1009	3.9	230	2	69
2026-02-15T05:40	17.3	1009	4.3	240	2	69
2026-02-15T05:41	17.5	1009	4.5	250	2	68
2026-02-15T05:42	17.6	1009	4.2	250	2	69
2026-02-15T05:43	17.6	1009	4.2	250	2	69
2026-02-15T05:44	17.4	1009	4.0	250	2	70
2026-02-15T05:45	17.7	1009	4.7	250	2	70
2026-02-15T05:46	17.5	1009	3.8	260	2	69
2026-02-15T05:47	17.7	1009	4.3	260	2	70
2026-02-15T05:48	17.6	1009	3.9	260	2	69
2026-02-15T05:49	17.9	1009	4.5	260	2	68
2026-02-15T05:50	17.9	1009	4.1	260	2	70
2026-02-15T05:51	17.8	1009	4.0	260	2	70
2026-02-15T05:52	17.5	1009	3.8	260	2	70
2026-02-15T05:53	17.8	1009	4.4	260	2	70
2026-02-15T05:54	17.9	1009	4.1	260	2	70
2026-02-15T05:55	17.7	1009	4.0	260	2	70
2026-02-15T05:56	17.4	1009	4.0	260	2	70
2026-02-15T05:57	17.5	1009	4.1	260	2	70
2026-02-15T05:58	17.5	1009	4.1	260	2	69
2026-02-15T05:59	17.6	1009	4.2	260	2	70
2026-02-15T06:00	17.5	1009	4.1	250	2	69
2026-02-15T06:01	17.6	1009	4.2	240	1	68
2026-02-15T06:02	17.6	1009	4.2	240	1	68
2026-02-15T06:03	17.6	1009	4.6	250	1	68
2026-02-15T06:04	17.7	1009	4.3	250	1	68
2026-02-15T06:05	17.8	1009	4.4	250	1	68
2026-02-15T06:06	17.8	1009	4.0	250	1	69
2026-02-15T06:07	17.7	1009	4.0	250	1	69
2026-02-15T06:08	17.7	1009	4.0	240	2	69
2026-02-15T06:09	17.8	1009	4.0	240	2	69
2026-02-15T06:10	17.9	1009	3.8	240	2	69
2026-02-15T06:11	17.8	1009	3.7	250	2	69
2026-02-15T06:12	17.7	1009	3.6	250	2	69
2026-02-15T06:13	17.6	1009	3.5	240	2	69
2026-02-15T06:14	17.7	1009	3.6	230	2	70
2026-02-15T06:15	17.8	1009	3.7	230	2	69
2026-02-15T06:16	17.6	1009	3.5	220	2	69
2026-02-15T06:17	17.6	1009	3.9	200	2	70
2026-02-15T06:18	17.8	1009	4.0	190	2	70
2026-02-15T06:19	17.9	1009	4.1	190	2	70
2026-02-15T06:20	17.6	1009	3.9	180	2	70
2026-02-15T06:21	17.6	1009	3.9	170	2	70
2026-02-15T06:22	17.7	1009	4.3	160	2	70
2026-02-15T06:23	17.8	1009	4.4	160	2	70
2026-02-15T06:24	17.7	1009	4.0	160	2	70
2026-02-15T06:25	17.7	1009	4.0	160	2	70
2026-02-15T06:26	17.6	1008	3.9	160	2	70
2026-02-15T06:27	17.6	1008	4.2	160	2	70
2026-02-15T06:28	17.4	1008	3.7	160	2	69
2026-02-15T06:29	17.5	1008	4.1	150	2	69
2026-02-15T06:30	17.5	1008	4.1	150	2	69
2026-02-15T06:31	17.5	1008	3.8	160	2	69
2026-02-15T06:32	17.5	1008	3.8	160	2	70
2026-02-15T06:33	17.6	1008	3.9	150	2	69
2026-02-15T06:34	17.6	1008	3.9	150	2	69
2026-02-15T06:35	17.8	1008	4.0	150	2	69
2026-02-15T06:36	17.7	1008	3.6	150	2	69
2026-02-15T06:37	17.6	1008	3.5	160	1	69
2026-02-15T06:38	17.6	1008	3.9	160	1	70
2026-02-15T06:39	17.6	1008	3.5	160	1	69
2026-02-15T06:40	17.5	1008	3.4	170	2	69
2026-02-15T06:41	17.6	1008	3.5	170	2	70
2026-02-15T06:42	17.7	1008	3.6	170	2	70
2026-02-15T06:43	17.7	1008	3.2	180	2	70
2026-02-15T06:44	17.6	1009	3.1	190	2	70
2026-02-15T06:45	17.5	1008	3.0	190	2	69
2026-02-15T06:46	17.7	1008	3.2	200	2	70
2026-02-15T06:47	17.6	1008	3.1	210	2	70
2026-02-15T06:48	17.5	1008	3.0	220	2	70
2026-02-15T06:49	17.6	1008	3.5	230	2	70
2026-02-15T06:50	17.7	1008	3.2	230	2	70
2026-02-15T06:51	17.6	1008	3.1	230	2	70
2026-02-15T06:52	17.6	1008	3.1	230	2	70
2026-02-15T06:53	17.5	1008	3.0	220	2	70
2026-02-15T06:54	17.4	1008	3.0	220	2	70
2026-02-15T06:55	17.4	1008	3.0	210	2	70
2026-02-15T06:56	17.6	1008	3.5	200	1	70
2026-02-15T06:57	17.4	1008	3.0	200	1	70
2026-02-15T06:58	17.3	1008	2.9	200	1	70
2026-02-15T06:59	17.3	1008	2.9	190	1	70
2026-02-15T07:00	17.4	1008	3.0	190	2	70
2026-02-15T07:01	17.4	1008	3.0	200	2	70
2026-02-15T07:02	17.4	1008	3.0	210	2	70
2026-02-15T07:03	17.4	1008	3.0	210	2	70
2026-02-15T07:04	17.4	1008	3.0	210	2	70
2026-02-15T07:05	17.4	1008	3.0	220	3	70
2026-02-15T07:06	17.3	1008	2.9	220	3	70
2026-02-15T07:07	17.3	1008	3.2	220	3	70
2026-02-15T07:08	17.4	1008	3.3	220	3	70
2026-02-15T07:09	17.4	1008	3.3	220	3	70
2026-02-15T07:10	17.4	1008	3.3	220	2	70
2026-02-15T07:11	17.3	1008	3.2	210	2	69
2026-02-15T07:12	17.2	1008	3.5	210	2	68
2026-02-15T07:13	17.3	1008	3.6	200	2	69
2026-02-15T07:14	17.3	1008	3.6	190	2	70
2026-02-15T07:15	17.2	1008	3.5	190	2	70
2026-02-15T07:16	17.1	1008	3.4	190	2	70
2026-02-15T07:17	17.1	1008	3.4	190	2	70
2026-02-15T07:18	17.1	1008	3.4	190	2	70
2026-02-15T07:19	17.1	1008	3.4	190	2	70
2026-02-15T07:20	17.1	1008	3.8	190	2	70
2026-02-15T07:21	17.1	1008	4.1	190	2	70
2026-02-15T07:22	17.1	1008	4.1	200	2	70
2026-02-15T07:23	17.1	1008	4.4	200	2	70
2026-02-15T07:24	17.0	1008	4.4	200	2	70
2026-02-15T07:25	17.0	1008	4.4	200	2	70
2026-02-15T07:26	16.9	1008	4.6	190	2	70
2026-02-15T07:27	16.9	1008	4.6	190	2	70
2026-02-15T07:28	16.9	1008	4.9	190	2	70
2026-02-15T07:29	16.9	1008	4.6	190	2	70
2026-02-15T07:30	16.9	1008	4.6	190	2	70
2026-02-15T07:31	16.9	1008	4.9	190	2	70
2026-02-15T07:32	16.8	1008	4.5	190	2	69
2026-02-15T07:33	16.8	1008	4.8	200	2	69
2026-02-15T07:34	16.8	1008	4.8	200	2	68
2026-02-15T07:35	16.7	1008	4.7	200	2	68
2026-02-15T07:36	16.7	1008	5.0	200	2	67
2026-02-15T07:37	16.6	1008	5.3	190	2	67
2026-02-15T07:38	16.6	1008	5.3	190	2	67
2026-02-15T07:39	16.5	1008	5.5	190	2	67
2026-02-15T07:40	16.4	1008	5.4	190	2	67
2026-02-15T07:41	16.4	1008	5.7	190	2	67
2026-02-15T07:42	16.4	1008	5.7	190	2	67
2026-02-15T07:43	16.4	1008	6.0	190	2	68
2026-02-15T07:44	16.3	1008	5.9	180	2	68
2026-02-15T07:45	16.3	1008	5.9	190	2	68
2026-02-15T07:46	16.3	1008	6.2	190	2	69
2026-02-15T07:47	16.3	1008	6.2	190	2	68
2026-02-15T07:48	16.2	1008	6.1	190	2	68
2026-02-15T07:49	16.0	1008	6.2	190	2	68
2026-02-15T07:50	15.9	1008	6.1	190	2	68
2026-02-15T07:51	15.9	1008	6.1	190	2	68
2026-02-15T07:52	16.0	1008	6.2	190	2	68
2026-02-15T07:53	15.9	1008	6.1	190	2	68
2026-02-15T07:54	15.7	1008	6.2	190	2	68
2026-02-15T07:55	15.8	1008	6.3	190	2	68
2026-02-15T07:56	15.8	1008	6.3	190	2	68
2026-02-15T07:57	15.6	1008	6.1	180	2	68
2026-02-15T07:58	15.5	1008	6.3	190	2	68
2026-02-15T07:59	15.6	1008	6.6	190	2	68
2026-02-15T08:00	15.7	1008	6.7	180	2	68
2026-02-15T08:01	15.7	1008	6.7	180	2	68
2026-02-15T08:02	15.7	1008	6.7	180	2	68
2026-02-15T08:03	15.3	1008	6.6	180	2	69
2026-02-15T08:04	15.4	1008	6.9	180	2	69
2026-02-15T08:05	15.4	1008	6.9	190	2	68
2026-02-15T08:06	15.3	1008	6.9	190	2	69
2026-02-15T08:07	15.5	1008	7.0	190	2	69
2026-02-15T08:08	15.5	1008	7.0	190	2	69
2026-02-15T08:09	15.3	1008	7.1	190	2	69
2026-02-15T08:10	15.2	1008	7.0	190	2	69
2026-02-15T08:11	15.4	1008	7.4	190	1	69
2026-02-15T08:12	15.3	1008	7.4	190	1	69
2026-02-15T08:13	15.1	1008	7.2	190	1	69
2026-02-15T08:14	15.1	1008	7.2	190	1	69
2026-02-15T08:15	14.6	1008	6.9	180	2	70
2026-02-15T08:16	14.9	1008	7.5	190	2	70
2026-02-15T08:17	14.9	1008	7.5	190	2	70
2026-02-15T08:18	15.1	1008	7.7	190	2	70
2026-02-15T08:19	15.0	1008	7.6	190	1	70
2026-02-15T08:20	15.0	1008	7.6	190	1	70
2026-02-15T08:21	14.8	1008	7.4	190	1	70
2026-02-15T08:22	14.9	1008	7.7	190	1	70
2026-02-15T08:23	15.0	1008	7.8	190	1	70
2026-02-15T08:24	14.8	1008	7.6	190	1	70
2026-02-15T08:25	14.7	1008	7.5	190	1	70
2026-02-15T08:26	14.8	1008	7.8	180	1	70
2026-02-15T08:27	14.6	1008	7.4	190	1	70
2026-02-15T08:28	14.5	1008	7.6	180	1	70
2026-02-15T08:29	14.3	1008	7.4	180	1	70
2026-02-15T08:30	14.5	1008	7.8	190	1	70
2026-02-15T08:31	14.4	1008	7.7	190	1	70
2026-02-15T08:32	14.5	1008	7.8	190	1	70
2026-02-15T08:33	13.9	1008	7.0	200	1	70
2026-02-15T08:34	13.9	1008	7.4	200	1	70
2026-02-15T08:35	13.8	1008	7.4	200	1	70
2026-02-15T08:36	13.4	1008	7.2	200	1	70
2026-02-15T08:37	13.3	1008	7.3	210	1	70
2026-02-15T08:38	13.2	1008	7.2	210	1	70
2026-02-15T08:39	13.4	1008	7.4	210	1	70
2026-02-15T08:40	13.5	1008	7.7	210	1	70
2026-02-15T08:41	13.7	1008	7.9	210	1	70
2026-02-15T08:42	13.5	1008	7.5	210	1	70
2026-02-15T08:43	13.6	1008	7.6	210	1	70
2026-02-15T08:44	13.8	1008	8.0	200	1	70
2026-02-15T08:45	13.1	1008	7.1	200	1	70
2026-02-15T08:46	13.2	1008	7.4	200	1	70
2026-02-15T08:47	13.2	1008	7.7	200	1	70
2026-02-15T08:48	12.9	1008	7.4	200	1	70
2026-02-15T08:49	12.6	1008	7.1	200	1	70
2026-02-15T08:50	12.9	1008	7.6	210	1	70
2026-02-15T08:51	12.8	1008	7.5	210	1	70
2026-02-15T08:52	12.6	1008	7.5	220	1	70
2026-02-15T08:53	12.3	1008	7.4	220	0	70
2026-02-15T08:54	12.3	1008	7.4	230	0	70
2026-02-15T08:55	12.2	1008	7.5	240	0	70
2026-02-15T08:56	12.1	1008	7.4	0	0	70
2026-02-15T08:57	11.7	1008	7.2	0	0	70
2026-02-15T08:58	11.9	1008	7.6	0	0	70
2026-02-15T08:59	12.2	1008	7.9	0	0	70
2026-02-15T09:00	12.2	1008	7.9	0	0	70
2026-02-15T09:01	12.1	1008	7.8	0	0	70
2026-02-15T09:02	11.8	1008	7.5	0	0	70
2026-02-15T09:03	11.9	1008	7.6	0	0	70
2026-02-15T09:04	12.0	1008	7.9	0	0	70
2026-02-15T09:05	12.1	1008	8.0	330	0	70
2026-02-15T09:06	11.8	1008	7.7	350	0	70
2026-02-15T09:07	11.6	1008	7.5	10	0	70
2026-02-15T09:08	11.7	1008	7.8	30	0	70
2026-02-15T09:09	11.7	1008	7.8	50	0	70
2026-02-15T09:10	11.7	1008	7.8	70	0	70
2026-02-15T09:11	11.8	1008	7.9	80	0	70
2026-02-15T09:12	11.8	1008	7.9	90	0	70
2026-02-15T09:13	11.4	1008	7.5	0	0	70
2026-02-15T09:14	11.3	1008	7.6	110	0	70
2026-02-15T09:15	11.5	1008	7.8	110	0	70
2026-02-15T09:16	11.4	1008	7.7	110	0	70
2026-02-15T09:17	11.1	1008	7.4	110	0	70
2026-02-15T09:18	11.3	1008	7.8	110	0	70
2026-02-15T09:19	11.8	1008	8.3	120	0	70
2026-02-15T09:20	11.6	1008	7.9	0	0	70
2026-02-15T09:21	11.0	1008	7.1	0	0	70
2026-02-15T09:22	11.0	1008	7.3	0	0	70
2026-02-15T09:23	10.8	1008	7.3	0	0	70
2026-02-15T09:24	10.9	1008	7.4	0	0	70
2026-02-15T09:25	11.1	1008	8.0	0	0	70
2026-02-15T09:26	10.6	1008	7.1	0	0	70
2026-02-15T09:27	10.6	1008	7.3	0	0	70
2026-02-15T09:28	10.9	1008	8.0	0	0	70
2026-02-15T09:29	10.9	1008	8.0	0	0	70
2026-02-15T09:30	10.9	1008	8.0	0	0	70
2026-02-15T09:31	11.0	1008	8.1	0	0	70
2026-02-15T09:32	10.9	1008	7.8	0	0	70
2026-02-15T09:33	11.1	1008	8.2	0	0	70
2026-02-15T09:34	10.6	1008	7.3	0	0	70
2026-02-15T09:35	10.7	1008	7.8	0	0	70
2026-02-15T09:36	10.7	1009	7.8	0	0	70
2026-02-15T09:37	10.4	1009	7.5	80	0	70
2026-02-15T09:38	10.4	1009	7.5	70	0	70
2026-02-15T09:39	10.6	1009	7.8	60	0	70
2026-02-15T09:40	10.5	1009	7.7	60	0	70
2026-02-15T09:41	10.4	1009	7.6	60	0	70
2026-02-15T09:42	10.5	1008	7.7	60	0	70
2026-02-15T09:43	10.9	1008	8.3	70	1	70
2026-02-15T09:44	10.5	1008	7.6	80	1	70
2026-02-15T09:45	10.4	1008	7.5	100	1	70
2026-02-15T09:46	10.7	1008	7.8	120	1	70
2026-02-15T09:47	10.9	1008	8.0	140	1	69
2026-02-15T09:48	11.1	1008	8.2	150	1	69
2026-02-15T09:49	11.2	1008	8.1	160	1	69
2026-02-15T09:50	11.6	1008	8.5	160	1	69
2026-02-15T09:51	12.3	1008	9.1	170	1	69
2026-02-15T09:52	11.9	1008	8.2	170	1	69
2026-02-15T09:53	11.8	1008	8.1	180	1	69
2026-02-15T09:54	11.7	1008	8.0	190	1	69
2026-02-15T09:55	12.1	1008	8.6	190	1	69
2026-02-15T09:56	11.2	1008	7.3	190	1	69
2026-02-15T09:57	10.6	1008	6.9	190	1	69
2026-02-15T09:58	10.8	1008	7.5	200	1	69
2026-02-15T09:59	10.8	1008	7.7	200	1	69
2026-02-15T10:00	10.6	1008	7.5	200	1	68
2026-02-15T10:01	10.7	1008	7.8	200	1	68
2026-02-15T10:02	10.5	1008	7.7	200	0	68
2026-02-15T10:03	10.3	1008	7.4	190	0	68
2026-02-15T10:04	10.6	1008	7.8	190	0	68
2026-02-15T10:05	10.4	1008	7.6	190	0	67
2026-02-15T10:06	10.2	1008	7.5	180	0	67
2026-02-15T10:07	10.4	1008	7.8	170	0	67
2026-02-15T10:08	10.7	1008	8.3	170	0	67
2026-02-15T10:09	10.8	1008	8.4	160	0	67
2026-02-15T10:10	10.7	1008	8.3	160	0	67
2026-02-15T10:11	10.6	1008	8.0	160	0	67
2026-02-15T10:12	10.7	1008	8.3	160	0	67
2026-02-15T10:13	10.5	1008	8.1	150	0	67
2026-02-15T10:14	10.6	1008	8.2	150	0	67
2026-02-15T10:15	10.5	1008	8.1	40	0	67
2026-02-15T10:16	10.2	1008	7.8	10	0	67
2026-02-15T10:17	9.8	1008	7.4	80	1	67
2026-02-15T10:18	10.1	1008	8.0	40	1	67
2026-02-15T10:19	10.4	1008	8.5	20	1	67
2026-02-15T10:20	10.2	1008	8.1	10	1	66
2026-02-15T10:21	10.2	1008	8.1	10	1	66
2026-02-15T10:22	10.4	1008	8.5	10	1	66
2026-02-15T10:23	10.4	1008	8.5	360	1	66
2026-02-15T10:24	10.2	1008	8.1	10	1	66
2026-02-15T10:25	10.1	1008	8.2	10	1	66
2026-02-15T10:26	10.1	1008	8.2	10	1	66
2026-02-15T10:27	10.2	1008	8.5	20	1	66
2026-02-15T10:28	10.3	1008	8.6	20	1	66
2026-02-15T10:29	10.2	1008	8.5	20	1	66
2026-02-15T10:30	10.0	1008	8.1	30	1	66
2026-02-15T10:31	10.0	1008	8.3	40	0	65
2026-02-15T10:32	10.0	1008	8.1	40	0	65
2026-02-15T10:33	10.1	1008	8.4	60	0	65
2026-02-15T10:34	10.2	1008	8.6	70	0	65
2026-02-15T10:35	9.9	1008	8.3	80	0	65
2026-02-15T10:36	9.9	1008	8.3	80	0	65
2026-02-15T10:37	10.1	1008	8.5	90	0	64
2026-02-15T10:38	9.9	1008	8.2	90	0	64
2026-02-15T10:39	10.2	1008	8.6	100	0	64
2026-02-15T10:40	9.9	1008	8.3	100	0	64
2026-02-15T10:41	9.8	1008	8.2	0	0	64
2026-02-15T10:42	9.8	1008	8.2	0	0	64
2026-02-15T10:43	9.8	1008	8.4	0	0	64
2026-02-15T10:44	9.7	1008	8.3	0	0	64
2026-02-15T10:45	9.7	1008	8.5	0	0	63
2026-02-15T10:46	9.8	1008	8.6	0	0	64
2026-02-15T10:47	9.7	1008	8.5	0	0	63
2026-02-15T10:48	9.7	1008	8.5	0	0	63
2026-02-15T10:49	9.8	1008	8.6	0	0	63
2026-02-15T10:50	9.7	1008	8.6	0	0	63
2026-02-15T10:51	9.7	1008	8.6	0	0	63
2026-02-15T10:52	9.6	1008	8.4	0	0	63
2026-02-15T10:53	9.6	1008	8.5	0	0	63
2026-02-15T10:54	9.8	1008	8.7	0	0	63
2026-02-15T10:55	9.8	1008	8.7	0	0	63
2026-02-15T10:56	9.9	1008	8.8	0	0	62
2026-02-15T10:57	9.6	1008	8.4	100	0	62
2026-02-15T10:58	9.5	1008	8.3	100	0	62
2026-02-15T10:59	9.4	1008	8.3	100	0	62
2026-02-15T11:00	9.5	1008	8.6	110	0	62
2026-02-15T11:01	9.5	1008	8.6	110	0	62
2026-02-15T11:02	9.4	1008	8.5	110	0	61
2026-02-15T11:03	9.5	1008	8.6	100	1	61
2026-02-15T11:04	9.5	1008	8.6	90	1	61
2026-02-15T11:05	9.3	1008	8.4	80	1	61
2026-02-15T11:06	9.0	1008	8.1	70	1	60
2026-02-15T11:07	9.0	1008	8.1	60	1	60
2026-02-15T11:08	8.9	1008	8.0	50	1	60
2026-02-15T11:09	9.0	1008	8.1	40	0	60
2026-02-15T11:10	9.1	1008	8.3	30	0	60
2026-02-15T11:11	9.1	1008	8.3	20	0	60
2026-02-15T11:12	8.8	1008	8.1	20	0	60
2026-02-15T11:13	8.7	1008	8.0	20	1	60
2026-02-15T11:14	8.8	1008	8.1	20	1	60
2026-02-15T11:15	9.1	1008	8.5	20	1	60
2026-02-15T11:16	9.2	1008	8.6	10	1	60
2026-02-15T11:17	9.2	1008	8.6	10	1	60
2026-02-15T11:18	9.1	1008	8.5	10	1	60
2026-02-15T11:19	9.3	1008	8.7	10	1	60
2026-02-15T11:20	9.2	1008	8.6	10	1	60
2026-02-15T11:21	9.1	1008	8.3	10	1	60
2026-02-15T11:22	9.0	1008	8.2	20	1	60
2026-02-15T11:23	8.6	1008	7.7	30	1	60
2026-02-15T11:24	8.8	1008	8.1	40	1	60
2026-02-15T11:25	9.1	1008	8.5	50	1	60
2026-02-15T11:26	9.1	1008	8.5	60	1	60
2026-02-15T11:27	8.4	1009	7.7	80	0	60
2026-02-15T11:28	8.7	1009	8.0	90	0	60
2026-02-15T11:29	8.6	1009	8.0	90	0	60
2026-02-15T11:30	8.7	1009	8.1	0	0	60
2026-02-15T11:31	8.9	1009	8.5	0	0	60
2026-02-15T11:32	8.9	1009	8.5	0	0	59
2026-02-15T11:33	8.8	1009	8.2	0	0	59
2026-02-15T11:34	8.8	1009	8.2	0	0	59
2026-02-15T11:35	8.8	1009	8.4	0	0	59
2026-02-15T11:36	8.7	1009	8.3	0	0	59
2026-02-15T11:37	8.6	1009	8.2	0	0	59
2026-02-15T11:38	8.9	1009	8.5	0	0	58
2026-02-15T11:39	8.9	1009	8.5	0	0	58
2026-02-15T11:40	8.6	1009	8.2	0	0	58
2026-02-15T11:41	8.5	1009	8.1	0	0	58
2026-02-15T11:42	8.8	1009	8.4	0	0	58
2026-02-15T11:43	9.0	1009	8.7	0	0	58
2026-02-15T11:44	8.7	1009	8.4	0	0	58
2026-02-15T11:45	8.6	1009	8.2	0	0	58
2026-02-15T11:46	8.4	1009	8.0	50	0	58
2026-02-15T11:47	8.5	1009	8.1	50	0	58
2026-02-15T11:48	8.6	1009	8.2	50	0	58
2026-02-15T11:49	8.6	1009	8.3	0	0	58
2026-02-15T11:50	8.3	1009	8.0	0	0	58
2026-02-15T11:51	8.4	1009	8.0	0	0	58
2026-02-15T11:52	8.2	1009	7.9	0	0	58
2026-02-15T11:53	8.5	1009	8.2	0	0	58
2026-02-15T11:54	8.4	1009	8.1	0	0	57
2026-02-15T11:55	8.4	1009	8.1	0	0	57
2026-02-15T11:56	8.4	1009	8.1	0	0	58
2026-02-15T11:57	8.5	1008	8.2	0	0	58
2026-02-15T11:58	8.6	1008	8.3	90	0	57
2026-02-15T11:59	8.6	1008	8.3	90	0	57
2026-02-15T12:00	8.6	1008	8.3	100	0	57
2026-02-15T12:01	8.6	1008	8.3	100	1	57
2026-02-15T12:02	8.6	1008	8.3	100	1	57
2026-02-15T12:03	8.1	1008	7.8	110	1	56
2026-02-15T12:04	7.8	1008	7.4	110	1	56
2026-02-15T12:05	8.0	1008	7.7	110	1	56
2026-02-15T12:06	8.0	1008	7.7	120	1	55
2026-02-15T12:07	8.1	1008	7.8	120	1	55
2026-02-15T12:08	8.1	1008	7.8	120	1	55
2026-02-15T12:09	7.9	1008	7.6	120	1	55
2026-02-15T12:10	8.1	1008	7.8	110	1	55
2026-02-15T12:11	8.1	1008	7.8	120	1	55
2026-02-15T12:12	8.1	1008	7.8	120	1	55
2026-02-15T12:13	8.3	1008	8.0	120	1	56
2026-02-15T12:14	8.3	1008	8.0	120	1	57
2026-02-15T12:15	8.1	1008	7.8	120	1	57
2026-02-15T12:16	8.1	1008	7.8	120	1	57
2026-02-15T12:17	8.0	1008	7.7	120	1	57
2026-02-15T12:18	7.9	1008	7.6	120	1	57
2026-02-15T12:19	8.0	1008	7.7	120	1	57
2026-02-15T12:20	8.0	1008	7.7	120	1	57
2026-02-15T12:21	8.1	1008	7.8	120	1	57
2026-02-15T12:22	8.1	1008	7.8	110	1	57
2026-02-15T12:23	7.4	1008	7.1	110	1	57
2026-02-15T12:24	7.7	1008	7.3	110	1	56
2026-02-15T12:25	7.9	1008	7.6	110	1	56
2026-02-15T12:26	7.9	1008	7.6	110	1	56
2026-02-15T12:27	8.1	1008	8.0	110	1	56
2026-02-15T12:28	8.2	1008	8.1	110	1	57
2026-02-15T12:29	8.2	1008	8.1	100	1	57
2026-02-15T12:30	8.3	1008	8.2	100	1	57
2026-02-15T12:31	8.3	1008	8.2	100	1	57
2026-02-15T12:32	8.2	1008	8.1	100	1	57
2026-02-15T12:33	8.4	1008	8.3	90	1	57
2026-02-15T12:34	8.4	1008	8.3	90	1	57
2026-02-15T12:35	8.2	1008	7.9	100	1	57
2026-02-15T12:36	8.2	1008	7.9	100	1	57
2026-02-15T12:37	8.3	1008	8.0	100	1	57
2026-02-15T12:38	8.3	1008	8.0	100	1	56
2026-02-15T12:39	8.1	1008	7.8	100	1	56
2026-02-15T12:40	8.0	1008	7.7	100	1	56
2026-02-15T12:41	7.8	1008	7.4	100	1	56
2026-02-15T12:42	7.9	1008	7.5	100	1	56
2026-02-15T12:43	8.1	1008	7.8	110	1	55
2026-02-15T12:44	8.0	1008	7.7	110	1	55
2026-02-15T12:45	8.1	1008	7.8	100	1	55
2026-02-15T12:46	8.1	1008	7.8	100	1	55
2026-02-15T12:47	8.2	1008	7.9	100	1	55
2026-02-15T12:48	8.2	1008	7.9	110	1	56
2026-02-15T12:49	7.8	1008	7.5	110	1	56
2026-02-15T12:50	7.4	1008	7.0	110	1	56
2026-02-15T12:51	7.3	1008	6.9	110	1	56
2026-02-15T12:52	7.1	1008	6.7	110	1	56
2026-02-15T12:53	7.5	1008	7.2	110	1	56
2026-02-15T12:54	7.4	1008	7.1	110	1	55
2026-02-15T12:55	7.4	1008	7.1	110	1	55
2026-02-15T12:56	7.3	1008	7.0	110	1	55
2026-02-15T12:57	7.2	1008	6.9	110	1	55
2026-02-15T12:58	7.5	1008	7.4	110	1	55
2026-02-15T12:59	7.6	1008	7.5	110	1	55
2026-02-15T13:00	7.4	1008	7.3	100	1	55
2026-02-15T13:01	7.4	1008	7.3	100	1	48
2026-02-15T13:02	7.5	1008	7.4	100	1	46
2026-02-15T13:03	7.5	1008	7.4	90	1	45
2026-02-15T13:04	7.4	1008	7.3	80	1	43
2026-02-15T13:05	7.6	1008	7.5	80	1	42
2026-02-15T13:06	7.6	1008	7.6	70	1	41
2026-02-15T13:07	7.4	1008	7.3	50	1	39
2026-02-15T13:08	7.4	1008	7.3	40	1	37
2026-02-15T13:09	7.5	1008	7.4	20	1	36
2026-02-15T13:10	7.3	1008	7.3	20	1	34
2026-02-15T13:11	6.7	1008	6.6	20	1	31
2026-02-15T13:12	7.2	1008	7.1	20	1	29
2026-02-15T13:13	7.5	1008	7.5	20	1	28
2026-02-15T13:14	7.6	1008	7.6	30	1	28
2026-02-15T13:15	7.7	1008	7.7	40	1	28
2026-02-15T13:16	7.6	1008	7.6	40	1	28
2026-02-15T13:17	7.6	1008	7.6	40	1	28
2026-02-15T13:18	7.5	1008	7.5	40	0	28
2026-02-15T13:19	7.4	1008	7.4	40	0	28
2026-02-15T13:20	7.2	1008	7.2	40	0	25
2026-02-15T13:21	7.3	1008	7.3	20	0	25
2026-02-15T13:22	7.3	1008	7.3	20	0	24
2026-02-15T13:23	7.2	1008	7.2	20	0	22
2026-02-15T13:24	7.2	1008	7.2	20	0	20
2026-02-15T13:25	7.3	1008	7.3	0	0	14
2026-02-15T13:26	7.3	1008	7.3	0	0	9
2026-02-15T13:27	7.3	1008	7.3	0	0	7
2026-02-15T13:28	7.2	1008	7.2	0	0	7
2026-02-15T13:29	7.2	1008	7.2	0	0	7
2026-02-15T13:30	7.3	1008	7.3	0	0	7
2026-02-15T13:31	7.3	1008	7.3	0	0	7
2026-02-15T13:32	7.0	1008	7.0	80	0	7
2026-02-15T13:33	7.0	1008	7.0	60	0	7
2026-02-15T13:34	6.6	1008	6.6	30	1	7
2026-02-15T13:35	6.6	1008	6.6	10	1	9
2026-02-15T13:36	6.4	1008	6.4	360	1	13
2026-02-15T13:37	6.6	1008	6.6	360	1	24
2026-02-15T13:38	6.4	1008	6.4	360	1	25
2026-02-15T13:39	6.5	1008	6.5	360	1	24
2026-02-15T13:40	6.9	1008	6.9	10	1	23
2026-02-15T13:41	6.9	1008	6.9	20	1	23
2026-02-15T13:42	6.8	1008	6.8	20	1	23
2026-02-15T13:43	6.6	1008	6.6	20	1	23
2026-02-15T13:44	6.4	1008	6.4	20	1	23
2026-02-15T13:45	6.8	1008	6.8	20	1	22
2026-02-15T13:46	6.6	1008	6.6	20	1	21
2026-02-15T13:47	6.4	1008	6.4	20	1	21
2026-02-15T13:48	6.5	1008	6.5	20	1	21
2026-02-15T13:49	6.8	1008	6.8	10	1	21
2026-02-15T13:50	6.5	1008	6.5	10	1	19
2026-02-15T13:51	6.5	1008	6.5	10	1	16
2026-02-15T13:52	6.7	1008	6.7	20	1	13
2026-02-15T13:53	6.8	1008	6.8	30	1	8
2026-02-15T13:54	7.0	1008	7.0	50	1	8
2026-02-15T13:55	7.2	1008	7.2	60	1	8
2026-02-15T13:56	7.2	1008	7.2	70	1	8
2026-02-15T13:57	7.1	1008	7.1	80	1	8
2026-02-15T13:58	7.1	1008	7.1	80	1	8
2026-02-15T13:59	7.1	1008	7.1	80	1	8
2026-02-15T14:00	7.0	1008	7.0	70	1	8
2026-02-15T14:01	6.9	1008	6.9	70	1	9
2026-02-15T14:02	6.6	1008	6.6	50	1	9
2026-02-15T14:03	6.5	1008	6.5	30	0	14
2026-02-15T14:04	6.5	1008	6.5	10	0	13
2026-02-15T14:05	6.6	1008	6.6	10	0	11
2026-02-15T14:06	6.7	1008	6.7	10	0	9
2026-02-15T14:07	6.6	1008	6.6	0	0	6
2026-02-15T14:08	6.6	1008	6.6	0	0	5
2026-02-15T14:09	6.6	1008	6.6	0	0	5
2026-02-15T14:10	6.7	1008	6.7	0	0	5
2026-02-15T14:11	6.8	1008	6.8	0	0	4
2026-02-15T14:12	6.8	1008	6.8	0	0	4
2026-02-15T14:13	6.7	1008	6.7	0	0	5
2026-02-15T14:14	6.5	1008	6.5	0	0	5
2026-02-15T14:15	6.2	1008	6.2	30	0	5
2026-02-15T14:16	6.1	1008	6.1	10	0	5
2026-02-15T14:17	6.1	1008	6.1	350	0	6
2026-02-15T14:18	6.7	1008	6.7	330	0	6
2026-02-15T14:19	6.6	1008	6.6	320	0	5
2026-02-15T14:20	6.7	1008	6.7	310	0	5
2026-02-15T14:21	6.6	1008	6.6	300	0	5
2026-02-15T14:22	6.6	1008	6.6	290	0	5
2026-02-15T14:23	6.5	1008	6.5	0	0	4
2026-02-15T14:24	6.7	1008	6.7	0	0	4
2026-02-15T14:25	6.1	1008	6.1	0	0	4
2026-02-15T14:26	6.3	1008	6.3	0	0	3
2026-02-15T14:27	6.3	1008	6.3	0	0	3
2026-02-15T14:28	6.1	1008	6.1	0	0	2
2026-02-15T14:29	6.1	1008	6.1	0	0	2
2026-02-15T14:30	6.3	1008	6.3	0	0	2
2026-02-15T14:31	6.1	1008	6.1	0	0	2
2026-02-15T14:32	6.0	1008	6.0	0	0	2
2026-02-15T14:33	6.1	1008	6.1	10	0	2
2026-02-15T14:34	5.7	1008	5.7	350	0	2
2026-02-15T14:35	5.5	1008	5.5	340	1	2
2026-02-15T14:36	5.3	1008	5.3	340	1	2
2026-02-15T14:37	5.6	1008	5.6	330	1	2
2026-02-15T14:38	6.1	1008	6.1	330	1	2
2026-02-15T14:39	6.4	1008	6.4	330	1	4
2026-02-15T14:40	6.5	1008	6.5	330	1	4
2026-02-15T14:41	6.4	1008	6.4	330	1	4
2026-02-15T14:42	6.2	1008	6.2	330	1	4
2026-02-15T14:43	6.1	1008	6.1	330	1	4
2026-02-15T14:44	6.1	1008	6.1	330	1	4
2026-02-15T14:45	5.8	1008	5.8	330	1	3
2026-02-15T14:46	5.6	1008	5.6	330	1	3
2026-02-15T14:47	5.3	1008	5.3	330	1	3
2026-02-15T14:48	5.8	1008	5.8	330	1	3
2026-02-15T14:49	6.1	1008	6.1	330	1	2
2026-02-15T14:50	6.2	1008	6.2	330	1	2
2026-02-15T14:51	5.9	1008	5.9	330	1	2
2026-02-15T14:52	6.1	1008	6.1	330	1	2
2026-02-15T14:53	6.0	1008	6.0	330	1	2
2026-02-15T14:54	6.1	1008	6.1	340	1	1
2026-02-15T14:55	6.3	1008	6.3	340	0	2
2026-02-15T14:56	6.4	1008	6.4	350	0	2
2026-02-15T14:57	5.9	1008	5.9	350	0	2
2026-02-15T14:58	6.1	1008	6.1	360	0	2
2026-02-15T14:59	6.4	1008	6.4	120	0	3
2026-02-15T15:00	6.4	1008	6.4	60	0	3
2026-02-15T15:01	6.3	1008	6.3	100	0	3
2026-02-15T15:02	6.2	1008	6.2	120	0	3
2026-02-15T15:03	6.0	1008	6.0	130	0	3
2026-02-15T15:04	6.2	1007	6.2	130	1	2
2026-02-15T15:05	6.0	1007	6.0	140	1	2
2026-02-15T15:06	6.0	1007	6.0	140	1	1
2026-02-15T15:07	6.0	1007	6.0	140	1	1
2026-02-15T15:08	6.0	1007	6.0	130	0	1
2026-02-15T15:09	6.0	1007	6.0	130	0	1
2026-02-15T15:10	6.0	1007	6.0	130	0	1
2026-02-15T15:11	6.1	1007	6.1	130	0	1
2026-02-15T15:12	6.2	1007	6.2	130	0	1
2026-02-15T15:13	6.1	1007	6.1	130	0	1
2026-02-15T15:14	5.9	1007	5.9	130	0	1
2026-02-15T15:15	6.1	1007	6.1	120	0	1
2026-02-15T15:16	5.8	1007	5.8	120	0	1
2026-02-15T15:17	5.5	1007	5.5	120	1	1
2026-02-15T15:18	5.6	1007	5.6	120	1	1
2026-02-15T15:19	5.7	1007	5.7	120	1	1
2026-02-15T15:20	5.8	1007	5.8	110	1	1
2026-02-15T15:21	6.0	1007	6.0	110	0	1
2026-02-15T15:22	6.0	1007	6.0	110	0	1
2026-02-15T15:23	6.1	1007	6.1	120	0	1
2026-02-15T15:24	6.0	1007	6.0	120	0	1
2026-02-15T15:25	5.8	1007	5.8	120	0	1
2026-02-15T15:26	5.8	1007	5.8	130	0	1
2026-02-15T15:27	5.5	1007	5.5	130	1	1
2026-02-15T15:28	5.5	1007	5.5	140	1	1
2026-02-15T15:29	5.4	1007	5.4	140	1	1
2026-02-15T15:30	5.3	1007	5.3	140	1	1
2026-02-15T15:31	5.5	1007	5.5	140	1	2
2026-02-15T15:32	5.5	1007	5.5	140	1	2
2026-02-15T15:33	5.4	1007	5.4	140	1	3
2026-02-15T15:34	5.1	1007	5.1	140	1	4
2026-02-15T15:35	5.0	1007	5.0	130	1	5
2026-02-15T15:36	5.3	1007	5.3	130	1	6
2026-02-15T15:37	5.5	1007	5.5	120	0	6
2026-02-15T15:38	5.4	1007	5.4	120	0	7
2026-02-15T15:39	5.5	1007	5.5	120	0	7
2026-02-15T15:40	5.6	1007	5.6	120	0	7
2026-02-15T15:41	5.6	1007	5.6	120	0	6
2026-02-15T15:42	5.7	1007	5.7	120	0	5
2026-02-15T15:43	5.7	1007	5.7	120	0	5
2026-02-15T15:44	5.8	1007	5.8	120	0	4
2026-02-15T15:45	5.6	1007	5.6	120	0	4
2026-02-15T15:46	5.5	1007	5.5	120	0	4
2026-02-15T15:47	5.5	1007	5.5	120	0	4
2026-02-15T15:48	5.6	1007	5.6	120	0	3
2026-02-15T15:49	5.7	1007	5.7	0	0	3
2026-02-15T15:50	5.4	1007	5.4	0	0	3
2026-02-15T15:51	5.2	1007	5.2	0	0	3
2026-02-15T15:52	5.4	1007	5.4	0	0	3
2026-02-15T15:53	5.3	1007	5.3	0	0	3
2026-02-15T15:54	5.4	1007	5.4	350	0	3
2026-02-15T15:55	5.7	1007	5.7	340	0	3
2026-02-15T15:56	5.7	1007	5.7	330	0	4
2026-02-15T15:57	5.6	1007	5.6	320	0	4
2026-02-15T15:58	5.7	1007	5.7	310	0	6
2026-02-15T15:59	5.8	1007	5.8	310	0	7
2026-02-15T16:00	5.8	1007	5.8	0	0	7
2026-02-15T16:01	5.7	1007	5.7	0	0	7
2026-02-15T16:02	5.7	1007	5.7	0	0	7
2026-02-15T16:03	5.8	1007	5.8	0	0	7
2026-02-15T16:04	5.8	1007	5.8	0	0	7
2026-02-15T16:05	6.0	1007	6.0	0	0	7
2026-02-15T16:06	5.9	1007	5.9	0	0	6
2026-02-15T16:07	5.6	1007	5.6	0	0	5
2026-02-15T16:08	5.3	1007	5.3	0	0	4
2026-02-15T16:09	5.5	1007	5.5	0	0	3
2026-02-15T16:10	5.5	1007	5.5	0	0	2
2026-02-15T16:11	5.6	1007	5.6	0	0	2
2026-02-15T16:12	5.6	1007	5.6	0	0	2
2026-02-15T16:13	5.9	1007	5.9	0	0	1
2026-02-15T16:14	6.0	1007	6.0	0	0	1
2026-02-15T16:15	5.8	1007	5.8	0	0	1
2026-02-15T16:16	5.3	1007	5.3	0	0	1
2026-02-15T16:17	5.3	1007	5.3	0	0	1
2026-02-15T16:18	5.4	1007	5.4	0	0	1
2026-02-15T16:19	5.4	1007	5.4	0	0	1
2026-02-15T16:20	5.5	1007	5.5	0	0	1
2026-02-15T16:21	5.6	1007	5.6	0	0	1
2026-02-15T16:22	5.4	1007	5.4	0	0	2
2026-02-15T16:23	4.9	1007	4.9	0	0	2
2026-02-15T16:24	5.0	1007	5.0	0	0	2
2026-02-15T16:25	5.0	1007	5.0	0	0	2
2026-02-15T16:26	5.2	1007	5.2	0	0	3
2026-02-15T16:27	5.2	1007	5.2	0	0	3
2026-02-15T16:28	4.8	1007	4.8	0	0	5
2026-02-15T16:29	4.9	1007	4.9	280	0	7
2026-02-15T16:30	5.0	1007	5.0	290	0	8
2026-02-15T16:31	5.1	1007	5.1	300	0	8
2026-02-15T16:32	5.1	1007	5.1	300	0	6
2026-02-15T16:33	5.0	1007	5.0	290	1	5
2026-02-15T16:34	4.9	1007	4.9	290	1	5
2026-02-15T16:35	4.5	1007	4.5	290	1	4
2026-02-15T16:36	4.7	1007	4.7	290	1	4
2026-02-15T16:37	4.7	1007	4.7	290	1	3
2026-02-15T16:38	4.9	1007	4.9	300	1	3
2026-02-15T16:39	5.1	1007	5.1	300	1	3
2026-02-15T16:40	5.0	1007	5.0	300	1	3
2026-02-15T16:41	4.7	1007	4.7	300	1	4
2026-02-15T16:42	4.8	1007	4.8	300	1	4
2026-02-15T16:43	4.7	1007	4.7	300	1	5
2026-02-15T16:44	4.7	1007	4.7	300	1	5
2026-02-15T16:45	4.6	1007	4.6	290	1	6
2026-02-15T16:46	4.4	1007	4.4	290	0	9
2026-02-15T16:47	4.3	1007	4.3	280	0	11
2026-02-15T16:48	4.3	1007	4.3	280	0	11
2026-02-15T16:49	4.5	1007	4.5	280	0	11
2026-02-15T16:50	4.6	1007	4.6	280	0	11
2026-02-15T16:51	4.7	1007	4.7	0	0	11
2026-02-15T16:52	4.7	1007	4.7	0	0	12
2026-02-15T16:53	4.6	1007	4.6	0	0	12
2026-02-15T16:54	4.7	1007	4.7	0	0	7
2026-02-15T16:55	4.9	1007	4.9	0	0	4
2026-02-15T16:56	5.0	1007	5.0	0	0	3
2026-02-15T16:57	5.0	1007	5.0	0	0	2
2026-02-15T16:58	4.9	1007	4.9	0	0	2
2026-02-15T16:59	4.7	1007	4.7	0	0	2
2026-02-15T17:00	4.5	1007	4.5	0	0	2
2026-02-15T17:01	4.4	1007	4.4	0	0	2
2026-02-15T17:02	4.4	1007	4.4	0	0	2
2026-02-15T17:03	4.4	1007	4.4	290	0	2
2026-02-15T17:04	4.8	1007	4.8	280	0	2
2026-02-15T17:05	4.0	1007	4.0	280	0	3
2026-02-15T17:06	3.7	1007	3.7	270	1	4
2026-02-15T17:07	4.0	1007	4.0	260	1	6
2026-02-15T17:08	4.1	1007	4.1	260	1	11
2026-02-15T17:09	4.3	1007	4.3	250	1	15
2026-02-15T17:10	4.3	1007	4.3	250	1	13
2026-02-15T17:11	4.2	1007	4.2	250	1	12
2026-02-15T17:12	4.1	1007	4.1	260	1	12
2026-02-15T17:13	3.9	1007	3.9	260	1	12
2026-02-15T17:14	4.0	1007	4.0	260	1	12
2026-02-15T17:15	3.9	1007	3.9	270	1	10
2026-02-15T17:16	4.1	1007	4.1	270	1	7
2026-02-15T17:17	4.3	1007	4.3	280	1	6
2026-02-15T17:18	4.1	1007	4.1	280	1	4
2026-02-15T17:19	4.3	1007	4.3	290	1	5
2026-02-15T17:20	4.4	1007	4.4	290	1	5
2026-02-15T17:21	4.4	1007	4.4	290	1	5
2026-02-15T17:22	4.2	1007	4.2	290	1	5
2026-02-15T17:23	4.4	1007	4.4	290	1	5
2026-02-15T17:24	4.2	1007	4.2	280	1	5
2026-02-15T17:25	4.2	1007	4.2	280	1	5
2026-02-15T17:26	4.5	1007	4.5	270	1	6
2026-02-15T17:27	4.2	1007	4.2	270	1	7
2026-02-15T17:28	4.1	1007	4.1	260	1	10
2026-02-15T17:29	4.0	1007	4.0	260	1	10
2026-02-15T17:30	4.2	1007	4.2	260	1	10
2026-02-15T17:31	4.1	1007	4.1	250	1	10
2026-02-15T17:32	3.9	1007	3.9	250	1	10
2026-02-15T17:33	3.7	1007	3.7	250	1	11
2026-02-15T17:34	3.7	1007	3.7	250	1	12
2026-02-15T17:35	3.9	1007	3.9	250	1	12
2026-02-15T17:36	4.1	1007	4.1	260	1	13
2026-02-15T17:37	4.1	1007	4.1	260	1	14
2026-02-15T17:38	4.2	1006	4.2	260	1	12
2026-02-15T17:39	4.3	1006	4.3	270	1	11
2026-02-15T17:40	4.3	1006	4.3	270	1	10
2026-02-15T17:41	4.1	1006	4.1	280	1	9
2026-02-15T17:42	4.2	1006	4.2	290	1	7
2026-02-15T17:43	4.1	1006	4.1	290	1	7
2026-02-15T17:44	4.2	1006	4.2	300	1	6
2026-02-15T17:45	4.3	1006	4.3	300	1	6
2026-02-15T17:46	4.2	1006	4.2	310	1	6
2026-02-15T17:47	4.2	1006	4.2	310	1	6
2026-02-15T17:48	4.3	1006	4.3	320	1	6
2026-02-15T17:49	4.5	1006	4.5	320	1	6
2026-02-15T17:50	4.7	1006	4.7	320	1	7
2026-02-15T17:51	4.6	1006	4.6	320	1	8
2026-02-15T17:52	4.5	1006	4.5	320	1	9
2026-02-15T17:53	4.3	1006	4.3	320	1	10
2026-02-15T17:54	4.2	1006	4.2	320	1	11
2026-02-15T17:55	4.4	1006	4.4	320	1	12
2026-02-15T17:56	4.7	1006	4.7	310	1	13
2026-02-15T17:57	4.9	1006	4.9	310	1	15
2026-02-15T17:58	4.7	1006	4.7	310	1	16
2026-02-15T17:59	4.8	1006	4.8	310	1	17
2026-02-15T18:00	4.8	1006	4.8	310	1	18
2026-02-15T18:01	5.1	1006	5.1	310	1	19
2026-02-15T18:02	5.0	1006	5.0	310	1	20
2026-02-15T18:03	5.2	1006	5.2	310	1	22
2026-02-15T18:04	5.2	1006	5.2	300	1	26
2026-02-15T18:05	5.2	1006	5.2	300	1	33
2026-02-15T18:06	5.3	1006	5.3	300	1	36
2026-02-15T18:07	5.2	1006	5.2	290	1	37
2026-02-15T18:08	5.0	1007	5.0	290	1	37
2026-02-15T18:09	5.0	1007	5.0	290	1	37
2026-02-15T18:10	5.0	1007	5.0	290	1	35
2026-02-15T18:11	4.9	1007	4.9	290	1	31
2026-02-15T18:12	4.8	1007	4.8	290	1	26
2026-02-15T18:13	4.8	1006	4.8	290	1	26
2026-02-15T18:14	4.5	1006	4.5	300	1	24
2026-02-15T18:15	4.4	1006	4.4	300	1	21
2026-02-15T18:16	4.7	1006	4.7	300	1	22
2026-02-15T18:17	4.7	1006	4.7	300	1	21
2026-02-15T18:18	4.4	1006	4.4	310	1	21
2026-02-15T18:19	4.5	1006	4.5	310	1	21
2026-02-15T18:20	4.6	1006	4.6	310	1	21
2026-02-15T18:21	4.5	1006	4.5	310	1	22
2026-02-15T18:22	4.3	1006	4.3	300	1	24
2026-02-15T18:23	4.4	1006	4.4	300	1	22
2026-02-15T18:24	4.2	1006	4.2	300	1	23
2026-02-15T18:25	4.3	1006	4.3	300	1	26
2026-02-15T18:26	4.3	1006	4.3	300	1	26
2026-02-15T18:27	4.0	1006	4.0	290	1	26
2026-02-15T18:28	4.1	1006	4.1	300	1	26
2026-02-15T18:29	4.3	1007	4.3	300	0	26
2026-02-15T18:30	4.4	1007	4.4	300	0	26
2026-02-15T18:31	4.3	1007	4.3	300	0	26
2026-02-15T18:32	4.3	1007	4.3	310	0	25
2026-02-15T18:33	4.2	1007	4.2	310	0	27
2026-02-15T18:34	4.2	1007	4.2	0	0	25
2026-02-15T18:35	4.2	1007	4.2	0	0	24
2026-02-15T18:36	4.2	1007	4.2	0	0	23
2026-02-15T18:37	4.0	1007	4.0	0	0	21
2026-02-15T18:38	4.1	1007	4.1	0	0	21
2026-02-15T18:39	4.1	1007	4.1	0	0	20
2026-02-15T18:40	4.2	1007	4.2	0	0	19
2026-02-15T18:41	4.3	1007	4.3	0	0	19
2026-02-15T18:42	4.2	1007	4.2	0	0	19
2026-02-15T18:43	4.1	1007	4.1	0	0	18
2026-02-15T18:44	4.1	1007	4.1	0	0	18
2026-02-15T18:45	4.0	1007	4.0	0	0	18
2026-02-15T18:46	4.2	1007	4.2	0	0	19
2026-02-15T18:47	4.2	1007	4.2	0	0	20
2026-02-15T18:48	4.1	1007	4.1	0	0	21
2026-02-15T18:49	4.1	1007	4.1	0	0	22
2026-02-15T18:50	3.9	1007	3.9	0	0	21
2026-02-15T18:51	4.1	1007	4.1	0	0	21
2026-02-15T18:52	4.0	1007	4.0	0	0	21
2026-02-15T18:53	4.0	1007	4.0	250	0	22
2026-02-15T18:54	4.1	1007	4.1	250	0	22
2026-02-15T18:55	4.2	1007	4.2	250	0	22
2026-02-15T18:56	4.1	1007	4.1	250	0	23
2026-02-15T18:57	4.1	1007	4.1	250	0	23
2026-02-15T18:58	4.1	1006	4.1	260	1	23
2026-02-15T18:59	4.0	1006	4.0	260	1	23
2026-02-15T19:00	4.1	1006	4.1	260	1	22
2026-02-15T19:01	4.0	1006	4.0	260	1	21
2026-02-15T19:02	4.1	1006	4.1	260	1	21
2026-02-15T19:03	4.1	1006	4.1	260	1	21
2026-02-15T19:04	4.0	1007	4.0	250	0	15
2026-02-15T19:05	4.1	1007	4.1	250	0	9
2026-02-15T19:06	4.2	1007	4.2	250	0	6
2026-02-15T19:07	4.2	1007	4.2	250	0	4
2026-02-15T19:08	4.1	1007	4.1	250	0	3
2026-02-15T19:09	4.1	1007	4.1	0	0	2
2026-02-15T19:10	4.2	1007	4.2	0	0	2
2026-02-15T19:11	4.2	1007	4.2	0	0	1
2026-02-15T19:12	4.2	1007	4.2	0	0	1
2026-02-15T19:13	4.1	1007	4.1	0	0	1
2026-02-15T19:14	4.2	1007	4.2	0	0	1
2026-02-15T19:15	4.2	1007	4.2	0	0	1
2026-02-15T19:16	4.2	1007	4.2	0	0	1
2026-02-15T19:17	4.2	1007	4.2	0	0	1
2026-02-15T19:18	4.2	1007	4.2	0	0	1
2026-02-15T19:19	4.1	1007	4.1	310	0	1
2026-02-15T19:20	4.0	1007	4.0	310	0	1
2026-02-15T19:21	3.9	1007	3.9	310	0	2
2026-02-15T19:22	3.8	1007	3.8	300	1	2
2026-02-15T19:23	3.9	1007	3.9	290	1	3
2026-02-15T19:24	4.0	1007	4.0	280	1	4
2026-02-15T19:25	4.0	1007	4.0	270	1	6
2026-02-15T19:26	4.1	1007	4.1	260	1	10
2026-02-15T19:27	3.7	1007	3.7	250	1	12
2026-02-15T19:28	3.6	1007	3.6	240	1	13
2026-02-15T19:29	3.7	1007	3.7	240	1	13
2026-02-15T19:30	3.8	1007	3.8	230	1	13
2026-02-15T19:31	3.9	1007	3.9	230	1	13
2026-02-15T19:32	3.8	1007	3.8	230	1	13
2026-02-15T19:33	4.0	1007	4.0	220	1	12
2026-02-15T19:34	3.9	1007	3.9	210	1	9
2026-02-15T19:35	3.7	1007	3.7	210	1	7
2026-02-15T19:36	3.7	1007	3.7	210	1	5
2026-02-15T19:37	3.8	1007	3.8	220	1	5
2026-02-15T19:38	3.8	1007	3.8	230	1	5
2026-02-15T19:39	3.8	1007	3.8	230	1	5
2026-02-15T19:40	3.8	1007	3.8	240	1	5
2026-02-15T19:41	3.8	1007	3.8	250	1	4
2026-02-15T19:42	3.8	1007	3.8	270	1	4
2026-02-15T19:43	3.9	1007	3.9	280	1	4
2026-02-15T19:44	3.8	1007	3.8	290	1	3
2026-02-15T19:45	3.9	1007	3.9	300	1	3
2026-02-15T19:46	3.9	1007	3.9	300	1	3
2026-02-15T19:47	4.0	1007	4.0	300	1	2
2026-02-15T19:48	4.1	1007	4.1	300	1	2
2026-02-15T19:49	4.1	1007	4.1	300	1	1
2026-02-15T19:50	4.1	1007	4.1	290	1	1
2026-02-15T19:51	4.0	1007	4.0	280	1	1
2026-02-15T19:52	3.9	1007	3.9	280	1	1
2026-02-15T19:53	3.8	1007	3.8	270	1	1
2026-02-15T19:54	3.7	1007	3.7	260	1	1
2026-02-15T19:55	3.8	1007	3.8	260	1	1
2026-02-15T19:56	3.8	1007	3.8	250	1	1
2026-02-15T19:57	3.8	1007	3.8	250	1	1
2026-02-15T19:58	3.7	1007	3.7	250	1	1
2026-02-15T19:59	3.6	1007	3.6	250	1	1
2026-02-15T20:00	3.7	1007	3.7	250	1	1
2026-02-15T20:01	3.8	1007	3.8	250	1	1
2026-02-15T20:02	3.9	1007	3.9	250	1	1
2026-02-15T20:03	4.1	1007	4.1	250	1	0
2026-02-15T20:04	4.2	1007	4.2	250	1	0
2026-02-15T20:05	4.0	1007	4.0	250	1	0
2026-02-15T20:06	3.7	1007	3.7	250	1	0
2026-02-15T20:07	3.8	1007	3.8	250	1	0
2026-02-15T20:08	3.8	1007	3.8	260	1	0
2026-02-15T20:09	3.8	1007	3.8	260	1	0
2026-02-15T20:10	3.9	1007	3.9	260	1	0
2026-02-15T20:11	3.9	1007	3.9	270	1	0
2026-02-15T20:12	3.9	1007	3.9	270	1	0
2026-02-15T20:13	3.7	1007	3.7	280	0	0
2026-02-15T20:14	3.9	1007	3.9	280	0	0
2026-02-15T20:15	3.9	1007	3.9	290	0	0
2026-02-15T20:16	3.8	1007	3.8	280	0	0
2026-02-15T20:17	3.8	1007	3.8	280	0	0
2026-02-15T20:18	3.8	1007	3.8	280	0	0
2026-02-15T20:19	3.8	1007	3.8	280	0	0
2026-02-15T20:20	3.9	1007	3.9	270	1	0
2026-02-15T20:21	3.9	1007	3.9	270	1	0
2026-02-15T20:22	3.7	1007	3.7	270	1	0
2026-02-15T20:23	3.8	1007	3.8	270	1	0
2026-02-15T20:24	3.9	1007	3.9	270	0	0
2026-02-15T20:25	3.9	1007	3.9	270	0	0
2026-02-15T20:26	3.8	1007	3.8	280	0	0
2026-02-15T20:27	3.7	1007	3.7	290	0	0
2026-02-15T20:28	3.7	1007	3.7	0	0	0
2026-02-15T20:29	3.7	1007	3.7	0	0	0
2026-02-15T20:30	3.9	1007	3.9	0	0	0
2026-02-15T20:31	3.8	1007	3.8	350	0	0
2026-02-15T20:32	3.5	1007	3.5	0	0	0
2026-02-15T20:33	3.6	1007	3.6	20	0	0
2026-02-15T20:34	3.8	1007	3.8	30	0	1
2026-02-15T20:35	3.8	1008	3.8	40	1	1
2026-02-15T20:36	3.7	1008	3.7	50	1	1
2026-02-15T20:37	3.8	1008	3.8	60	1	1
2026-02-15T20:38	3.6	1008	3.6	60	1	1
2026-02-15T20:39	3.7	1008	3.7	50	1	1
2026-02-15T20:40	3.8	1008	3.8	50	1	1
2026-02-15T20:41	3.8	1008	3.8	50	1	1
2026-02-15T20:42	3.8	1008	3.8	40	0	1
2026-02-15T20:43	3.6	1008	3.6	290	0	1
2026-02-15T20:44	3.6	1008	3.6	0	0	1
2026-02-15T20:45	3.6	1008	3.6	0	0	1
2026-02-15T20:46	3.5	1008	3.5	0	0	1
2026-02-15T20:47	3.6	1008	3.6	0	0	1
2026-02-15T20:48	3.5	1008	3.5	290	0	1
2026-02-15T20:49	3.5	1008	3.5	280	0	1
2026-02-15T20:50	3.5	1008	3.5	280	0	1
2026-02-15T20:51	3.4	1008	3.4	280	1	1
2026-02-15T20:52	3.4	1008	3.4	280	1	1
2026-02-15T20:53	3.3	1008	3.3	280	1	1
2026-02-15T20:54	3.3	1008	3.3	270	1	1
2026-02-15T20:55	3.3	1008	3.3	270	1	1
2026-02-15T20:56	3.2	1008	3.2	280	1	1
2026-02-15T20:57	3.2	1008	3.2	280	1	1
2026-02-15T20:58	3.2	1008	3.2	280	1	1
2026-02-15T20:59	3.2	1008	3.2	290	1	1
2026-02-15T21:00	3.2	1008	3.2	290	1	1
2026-02-15T21:01	3.2	1008	3.2	290	1	1
2026-02-15T21:02	3.3	1008	3.3	280	1	1
2026-02-15T21:03	3.3	1008	3.3	280	1	1
2026-02-15T21:04	3.1	1008	3.1	280	0	1
2026-02-15T21:05	3.2	1008	3.2	270	0	1
2026-02-15T21:06	3.1	1008	3.1	260	0	1
2026-02-15T21:07	2.9	1008	2.9	0	0	0
2026-02-15T21:08	3.1	1008	3.1	0	0	1
2026-02-15T21:09	3.2	1008	3.2	0	0	1
2026-02-15T21:10	3.0	1008	3.0	0	0	1
2026-02-15T21:11	3.1	1008	3.1	0	0	1
2026-02-15T21:12	3.1	1008	3.1	0	0	1
2026-02-15T21:13	3.2	1008	3.2	0	0	1
2026-02-15T21:14	3.0	1008	3.0	0	0	1
2026-02-15T21:15	3.2	1008	3.2	0	0	1
2026-02-15T21:16	3.2	1008	3.2	0	0	1
2026-02-15T21:17	3.3	1008	3.3	0	0	1
2026-02-15T21:18	3.1	1008	3.1	0	0	1
2026-02-15T21:19	2.9	1008	2.9	0	0	1
2026-02-15T21:20	2.9	1008	2.9	0	0	1
2026-02-15T21:21	3.1	1008	3.1	0	0	1
2026-02-15T21:22	3.3	1008	3.3	0	0	1
2026-02-15T21:23	3.0	1008	3.0	0	0	1
2026-02-15T21:24	3.1	1008	3.1	0	0	1
2026-02-15T21:25	2.9	1008	2.9	0	0	1
2026-02-15T21:26	2.9	1008	2.9	0	0	1
2026-02-15T21:27	2.8	1008	2.8	0	0	1
2026-02-15T21:28	2.7	1008	2.7	0	0	1
2026-02-15T21:29	2.7	1008	2.7	0	0	1
2026-02-15T21:30	2.7	1008	2.7	0	0	1
2026-02-15T21:31	2.8	1008	2.8	0	0	1
2026-02-15T21:32	2.9	1008	2.9	0	0	1
2026-02-15T21:33	2.9	1008	2.9	0	0	1
2026-02-15T21:34	3.0	1008	3.0	0	0	1
2026-02-15T21:35	2.8	1008	2.8	0	0	1
2026-02-15T21:36	2.5	1008	2.5	0	0	
2026-02-15T21:37	2.6	1008	2.6	0	0	
2026-02-15T21:38	2.6	1008	2.6	0	0	
2026-02-15T21:39	2.5	1008	2.5	0	0	
2026-02-15T21:40	2.7	1008	2.7	190	0	
2026-02-15T21:41	2.7	1008	2.7	200	0	
2026-02-15T21:42	2.7	1008	2.7	210	0	
2026-02-15T21:43	2.8	1008	2.8	230	0	
2026-02-15T21:44	2.8	1008	2.8	250	0	
2026-02-15T21:45	2.6	1008	2.6	270	0	
2026-02-15T21:46	2.4	1008	2.4	270	0	
2026-02-15T21:47	2.4	1008	2.4	280	0	
2026-02-15T21:48	2.6	1008	2.6	290	1	
2026-02-15T21:49	2.8	1009	2.8	300	1	
2026-02-15T21:50	2.9	1009	2.9	300	1	
2026-02-15T21:51	2.8	1009	2.8	290	1	
2026-02-15T21:52	3.0	1009	3.0	290	1	
2026-02-15T21:53	3.0	1009	3.0	280	1	
2026-02-15T21:54	2.9	1009	2.9	280	1	
2026-02-15T21:55	2.7	1009	2.7	270	1	
2026-02-15T21:56	2.7	1009	2.7	280	1	
2026-02-15T21:57	2.8	1009	2.8	270	1	
2026-02-15T21:58	2.9	1009	2.9	270	1	
2026-02-15T21:59	3.0	1009	3.0	260	1	
2026-02-15T22:00	3.0	1009	3.0	250	1	
2026-02-15T22:01	3.0	1009	3.0	250	1	
2026-02-15T22:02	2.9	1009	2.9	250	1	
2026-02-15T22:03	3.0	1009	3.0	250	1	
2026-02-15T22:04	3.1	1009	3.1	250	1	
2026-02-15T22:05	3.1	1009	3.1	250	1	11
2026-02-15T22:06	3.0	1009	3.0	250	1	11
2026-02-15T22:07	2.9	1009	2.9	250	1	11
2026-02-15T22:08	3.0	1009	3.0	260	1	11
2026-02-15T22:09	2.6	1009	2.6	260	1	11
2026-02-15T22:10	3.0	1009	3.0	260	1	10
2026-02-15T22:11	3.4	1009	3.4	250	1	11
2026-02-15T22:12	3.4	1009	3.4	250	1	11
2026-02-15T22:13	3.5	1009	3.5	250	1	12
2026-02-15T22:14	3.5	1009	3.5	240	1	13
2026-02-15T22:15	3.7	1009	3.7	230	1	14
2026-02-15T22:16	3.8	1009	3.8	230	1	15
2026-02-15T22:17	3.8	1009	3.8	230	1	16
2026-02-15T22:18	3.9	1009	3.9	230	1	18
2026-02-15T22:19	4.0	1009	4.0	230	1	21
2026-02-15T22:20	4.0	1009	4.0	230	1	25
2026-02-15T22:21	3.9	1009	3.9	240	1	29
2026-02-15T22:22	3.9	1009	3.9	240	1	31
2026-02-15T22:23	3.8	1009	3.8	250	1	32
2026-02-15T22:24	4.0	1009	4.0	260	1	34
2026-02-15T22:25	4.2	1009	4.2	260	1	35
2026-02-15T22:26	4.3	1009	4.3	260	1	36
2026-02-15T22:27	4.2	1009	4.2	270	1	38
2026-02-15T22:28	4.4	1009	4.4	260	1	40
2026-02-15T22:29	4.3	1009	4.3	260	1	42
2026-02-15T22:30	4.2	1009	4.2	260	1	43
2026-02-15T22:31	4.2	1010	4.2	260	1	43
2026-02-15T22:32	4.2	1010	4.2	260	1	43
2026-02-15T22:33	4.4	1010	4.4	260	1	43
2026-02-15T22:34	4.6	1010	4.6	260	1	42
2026-02-15T22:35	4.8	1010	4.8	260	1	42
2026-02-15T22:36	4.7	1010	4.7	250	1	42
2026-02-15T22:37	4.6	1010	4.6	250	1	42
2026-02-15T22:38	4.7	1010	4.7	250	1	41
2026-02-15T22:39	4.7	1010	4.7	260	1	41
2026-02-15T22:40	5.0	1010	5.0	260	1	40
2026-02-15T22:41	5.1	1010	5.1	260	1	39
2026-02-15T22:42	5.0	1010	5.0	260	2	39
2026-02-15T22:43	4.8	1010	4.8	260	2	39
2026-02-15T22:44	4.9	1010	4.9	260	2	39
2026-02-15T22:45	4.8	1010	4.8	250	2	39
2026-02-15T22:46	4.8	1010	4.8	260	2	40
2026-02-15T22:47	4.7	1010	4.7	260	2	40
2026-02-15T22:48	4.6	1010	4.6	260	2	41
2026-02-15T22:49	4.6	1010	4.6	260	2	42
2026-02-15T22:50	4.5	1010	4.5	250	2	43
2026-02-15T22:51	4.5	1010	4.5	250	2	44
2026-02-15T22:52	4.6	1010	4.6	250	2	45
2026-02-15T22:53	4.6	1010	4.6	250	2	45
2026-02-15T22:54	4.7	1010	4.7	250	2	46
2026-02-15T22:55	4.7	1010	4.7	250	2	48
2026-02-15T22:56	4.6	1010	4.6	250	1	48
2026-02-15T22:57	4.7	1010	4.7	250	1	49
2026-02-15T22:58	4.9	1010	4.9	250	1	49
2026-02-15T22:59	4.8	1010	4.8	250	1	49
2026-02-15T23:00	4.9	1010	4.8	260	1	55
2026-02-15T23:01	5.1	1010	5.0	260	1	55
2026-02-15T23:02	5.3	1010	5.2	260	1	55
2026-02-15T23:03	5.2	1010	5.1	260	1	55
2026-02-15T23:04	5.1	1010	4.8	260	1	55
2026-02-15T23:05	5.1	1010	4.7	270	1	55
2026-02-15T23:06	5.1	1010	4.7	260	1	55
2026-02-15T23:07	5.2	1010	4.6	260	1	55
2026-02-15T23:08	5.2	1010	4.6	250	1	55
2026-02-15T23:09	5.3	1010	4.7	240	1	56
2026-02-15T23:10	5.2	1010	4.6	230	1	56
2026-02-15T23:11	5.3	1010	4.6	210	1	56
2026-02-15T23:12	5.2	1010	4.5	200	1	56
2026-02-15T23:13	5.2	1010	4.3	180	1	56
2026-02-15T23:14	5.3	1010	4.4	170	0	56
2026-02-15T23:15	5.4	1010	4.7	170	0	56
2026-02-15T23:16	5.4	1010	4.5	170	0	56
2026-02-15T23:17	5.3	1010	4.4	170	0	57
2026-02-15T23:18	5.3	1010	4.3	180	0	57
2026-02-15T23:19	5.4	1010	4.4	180	1	57
2026-02-15T23:20	5.4	1010	4.4	190	1	56
2026-02-15T23:21	5.4	1010	4.4	200	1	56
2026-02-15T23:22	5.5	1010	4.5	210	1	56
2026-02-15T23:23	5.5	1010	4.5	220	1	56
2026-02-15T23:24	5.5	1010	4.5	230	1	56
2026-02-15T23:25	5.4	1010	4.2	230	1	56
2026-02-15T23:26	5.5	1010	4.3	240	1	56
2026-02-15T23:27	5.5	1011	4.3	240	1	56
2026-02-15T23:28	5.5	1011	4.3	240	1	56
2026-02-15T23:29	5.5	1011	4.0	240	1	57
2026-02-15T23:30	5.4	1010	3.7	240	1	57
2026-02-15T23:31	5.5	1010	3.8	240	1	57
2026-02-15T23:32	5.5	1010	4.0	240	1	57
2026-02-15T23:33	5.5	1010	4.0	240	1	58
2026-02-15T23:34	5.4	1010	3.9	240	1	58
2026-02-15T23:35	5.4	1011	3.7	240	1	58
2026-02-15T23:36	5.5	1011	4.0	240	1	58
2026-02-15T23:37	5.4	1011	3.9	240	1	58
2026-02-15T23:38	5.5	1011	3.8	240	1	58
2026-02-15T23:39	5.4	1011	3.7	240	1	58
2026-02-15T23:40	5.4	1011	3.7	250	1	58
2026-02-15T23:41	5.4	1011	3.7	250	1	58
2026-02-15T23:42	5.5	1011	3.8	260	1	58
2026-02-15T23:43	5.5	1011	3.8	260	1	58
2026-02-15T23:44	5.5	1011	3.7	260	1	58
2026-02-15T23:45	5.5	1011	3.7	270	1	58
2026-02-15T23:46	5.6	1011	3.8	270	1	58
2026-02-15T23:47	5.5	1011	3.7	270	1	58
2026-02-15T23:48	5.6	1011	3.8	270	1	58
2026-02-15T23:49	5.5	1011	3.5	270	1	58
2026-02-15T23:50	5.6	1011	3.6	270	1	58
2026-02-15T23:51	5.7	1011	3.9	270	1	58
2026-02-15T23:52	5.7	1011	3.7	270	1	58
2026-02-15T23:53	5.8	1011	3.8	270	1	59
2026-02-15T23:54	5.9	1011	3.9	260	1	59
2026-02-15T23:55	6.1	1011	4.3	260	1	59
2026-02-15T23:56	6.3	1011	4.5	260	1	59
2026-02-15T23:57	6.2	1011	4.0	250	1	59
2026-02-15T23:58	6.3	1011	4.0	250	1	60
2026-02-15T23:59	6.5	1011	4.3	250	1	60
2026-02-16T00:00	6.3	1011	4.0	250	1	60
2026-02-16T00:01	6.4	1011	3.9	250	1	60
2026-02-16T00:02	6.4	1011	3.9	240	0	60
2026-02-16T00:03	6.5	1011	4.0	250	0	60
2026-02-16T00:04	6.6	1011	4.1	250	0	60
2026-02-16T00:05	6.6	1011	4.1	260	0	60
2026-02-16T00:06	6.5	1011	3.8	250	0	60
2026-02-16T00:07	6.5	1011	3.8	250	0	60
2026-02-16T00:08	6.7	1011	4.2	240	0	59
2026-02-16T00:09	6.9	1011	4.4	240	0	59
2026-02-16T00:10	6.8	1011	4.1	240	0	59
2026-02-16T00:11	6.7	1011	3.9	230	0	59
2026-02-16T00:12	6.8	1011	4.0	230	0	59
2026-02-16T00:13	7.0	1011	4.3	220	1	59
2026-02-16T00:14	7.0	1011	4.2	210	1	60
2026-02-16T00:15	6.9	1011	3.9	200	1	60
2026-02-16T00:16	7.0	1011	4.0	200	1	60
2026-02-16T00:17	7.0	1011	4.0	210	1	60
2026-02-16T00:18	6.9	1011	3.9	200	1	60
2026-02-16T00:19	7.1	1011	4.1	200	1	60
2026-02-16T00:20	7.0	1011	3.8	210	1	60
2026-02-16T00:21	7.2	1011	4.2	210	1	60
2026-02-16T00:22	7.3	1011	4.3	210	1	60
2026-02-16T00:23	7.4	1010	4.2	210	1	60
2026-02-16T00:24	7.6	1010	4.4	210	1	60
2026-02-16T00:25	7.9	1010	4.9	220	1	60
2026-02-16T00:26	7.6	1010	4.2	210	1	60
2026-02-16T00:27	7.9	1010	4.7	210	1	60
2026-02-16T00:28	8.0	1010	4.8	210	1	60
2026-02-16T00:29	7.9	1010	4.5	200	1	60
2026-02-16T00:30	7.6	1010	4.0	200	1	60
2026-02-16T00:31	7.6	1010	4.2	200	1	60
2026-02-16T00:32	7.7	1010	4.3	200	2	60
2026-02-16T00:33	7.7	1011	4.3	200	2	60
2026-02-16T00:34	7.7	1011	4.3	200	2	60
2026-02-16T00:35	7.8	1011	4.4	200	2	60
2026-02-16T00:36	8.0	1011	4.8	200	2	60
2026-02-16T00:37	7.9	1011	4.3	200	2	59
2026-02-16T00:38	8.0	1011	4.4	200	2	59
2026-02-16T00:39	8.0	1010	4.4	200	2	59
2026-02-16T00:40	8.3	1010	4.7	190	2	59
2026-02-16T00:41	8.4	1010	4.8	180	1	59
2026-02-16T00:42	8.6	1010	5.0	170	1	59
2026-02-16T00:43	8.7	1010	4.9	160	1	59
2026-02-16T00:44	8.9	1010	5.1	160	1	59
2026-02-16T00:45	8.7	1010	4.5	150	1	59
2026-02-16T00:46	8.9	1010	4.7	140	1	59
2026-02-16T00:47	9.1	1010	4.9	150	1	59
2026-02-16T00:48	9.1	1010	4.7	140	1	59
2026-02-16T00:49	9.1	1010	4.7	140	1	60
2026-02-16T00:50	9.2	1010	4.6	140	2	60
2026-02-16T00:51	9.3	1010	4.7	140	2	60
2026-02-16T00:52	9.3	1010	4.7	140	2	60
2026-02-16T00:53	9.2	1010	4.4	140	2	60
2026-02-16T00:54	9.4	1011	4.8	140	2	60
2026-02-16T00:55	9.4	1010	4.6	140	2	60
2026-02-16T00:56	9.5	1010	4.5	130	2	60
2026-02-16T00:57	9.5	1010	4.5	120	2	61
2026-02-16T00:58	9.8	1010	4.8	120	2	61
2026-02-16T00:59	10.1	1010	5.1	110	2	61
2026-02-16T01:00	10.1	1010	5.1	110	2	62
2026-02-16T01:01	10.2	1010	5.2	110	1	62
2026-02-16T01:02	10.3	1010	5.1	110	1	63
2026-02-16T01:03	10.3	1010	4.9	110	1	63
2026-02-16T01:04	10.3	1010	4.7	110	1	64
2026-02-16T01:05	10.2	1010	4.6	110	1	64
2026-02-16T01:06	10.1	1010	4.5	120	1	65
2026-02-16T01:07	10.1	1010	4.5	130	1	65
2026-02-16T01:08	10.5	1010	4.9	140	1	66
2026-02-16T01:09	10.5	1010	4.7	140	1	66
2026-02-16T01:10	10.4	1010	4.6	140	1	66
2026-02-16T01:11	10.5	1010	4.7	140	1	67
2026-02-16T01:12	10.5	1010	4.4	140	1	67
2026-02-16T01:13	10.6	1010	4.5	140	1	68
2026-02-16T01:14	10.8	1010	4.5	140	2	68
2026-02-16T01:15	10.7	1010	4.4	140	2	68
2026-02-16T01:16	10.8	1010	4.5	140	2	68
2026-02-16T01:17	10.7	1010	4.2	140	2	68
2026-02-16T01:18	10.9	1010	4.6	140	2	68
2026-02-16T01:19	10.8	1010	4.3	140	2	69
2026-02-16T01:20	10.7	1010	4.2	130	2	68
2026-02-16T01:21	10.7	1010	4.2	130	2	69
2026-02-16T01:22	10.8	1010	4.3	130	2	68
2026-02-16T01:23	10.7	1010	4.0	130	2	68
2026-02-16T01:24	10.8	1010	4.1	130	2	69
2026-02-16T01:25	10.9	1010	3.9	130	2	69
2026-02-16T01:26	11.0	1010	4.2	130	2	70
2026-02-16T01:27	10.8	1010	3.8	130	1	70
2026-02-16T01:28	10.8	1010	3.8	130	1	69
2026-02-16T01:29	10.8	1010	3.8	130	1	69
2026-02-16T01:30	10.7	1010	3.5	140	1	69
2026-02-16T01:31	10.7	1010	3.5	140	1	69
2026-02-16T01:32	10.8	1010	3.6	150	1	70
2026-02-16T01:33	10.8	1010	3.6	150	1	70
2026-02-16T01:34	10.8	1010	3.6	160	1	69
2026-02-16T01:35	11.0	1010	3.8	160	1	69
2026-02-16T01:36	11.0	1010	3.8	160	1	68
2026-02-16T01:37	11.0	1010	3.8	160	1	68
2026-02-16T01:38	11.0	1010	3.8	160	1	69
2026-02-16T01:39	10.9	1010	3.5	160	1	69
2026-02-16T01:40	10.9	1010	3.5	150	1	68
2026-02-16T01:41	11.0	1010	3.6	150	1	68
2026-02-16T01:42	10.9	1010	3.5	140	1	68
2026-02-16T01:43	10.9	1010	3.5	130	1	68
2026-02-16T01:44	10.9	1010	3.5	130	1	69
2026-02-16T01:45	10.9	1010	3.5	120	1	68
2026-02-16T01:46	10.9	1010	3.5	110	1	68
2026-02-16T01:47	10.9	1010	3.2	100	1	69
2026-02-16T01:48	10.8	1010	3.1	100	1	69
2026-02-16T01:49	10.9	1010	3.2	110	1	68
2026-02-16T01:50	11.0	1010	3.3	120	1	69
2026-02-16T01:51	11.0	1010	3.3	120	1	69
2026-02-16T01:52	11.0	1010	3.3	120	1	69
2026-02-16T01:53	10.9	1010	3.2	120	1	68
2026-02-16T01:54	10.9	1010	3.2	130	1	68
2026-02-16T01:55	10.9	1010	3.2	140	1	68
2026-02-16T01:56	11.1	1010	3.4	140	1	68
2026-02-16T01:57	11.1	1010	3.4	140	1	68
2026-02-16T01:58	11.1	1010	3.4	140	1	67
2026-02-16T01:59	11.0	1010	3.1	140	1	68
2026-02-16T02:00	11.2	1010	3.5	140	1	68
2026-02-16T02:01	11.2	1010	3.3	150	1	67
2026-02-16T02:02	11.5	1010	3.8	150	1	66
2026-02-16T02:03	11.4	1010	3.2	150	1	67
2026-02-16T02:04	11.5	1010	3.5	150	1	67
2026-02-16T02:05	11.8	1010	3.8	150	1	67
2026-02-16T02:06	11.6	1010	3.4	160	1	67
2026-02-16T02:07	11.6	1010	3.4	160	1	67
2026-02-16T02:08	11.5	1010	3.3	160	1	66
2026-02-16T02:09	11.5	1010	3.3	160	1	67
2026-02-16T02:10	11.4	1010	3.2	160	1	66
2026-02-16T02:11	11.3	1010	3.1	150	1	67
2026-02-16T02:12	11.6	1010	3.4	150	1	68
2026-02-16T02:13	11.6	1010	3.4	150	1	68
2026-02-16T02:14	11.4	1010	3.0	150	1	68
2026-02-16T02:15	11.6	1010	3.4	150	1	68
2026-02-16T02:16	11.7	1010	3.2	150	1	68
2026-02-16T02:17	11.9	1010	3.4	150	1	68
2026-02-16T02:18	11.9	1010	3.2	150	1	68
2026-02-16T02:19	11.8	1010	3.1	150	1	68
2026-02-16T02:20	11.7	1010	2.7	160	1	69
2026-02-16T02:21	12.0	1010	3.3	170	1	69
2026-02-16T02:22	11.8	1010	2.8	180	1	68
2026-02-16T02:23	11.8	1010	2.8	180	1	68
2026-02-16T02:24	11.9	1010	2.9	190	1	68
2026-02-16T02:25	11.9	1010	2.9	200	1	68
2026-02-16T02:26	11.7	1010	2.7	210	1	69
2026-02-16T02:27	11.7	1010	2.7	230	1	68
2026-02-16T02:28	12.0	1010	3.3	230	1	68
2026-02-16T02:29	12.1	1010	3.1	350	1	69
2026-02-16T02:30	11.9	1010	2.6	290	1	69
2026-02-16T02:31	12.1	1010	2.8	320	1	69
2026-02-16T02:32	12.2	1010	2.9	360	1	70
2026-02-16T02:33	12.6	1010	3.3	10	1	70
2026-02-16T02:34	12.6	1010	2.7	10	1	70
2026-02-16T02:35	12.8	1010	2.9	240	1	70
2026-02-16T02:36	12.6	1010	2.7	260	1	70
2026-02-16T02:37	12.3	1010	2.5	360	1	70
2026-02-16T02:38	12.2	1010	2.4	360	1	70
2026-02-16T02:39	12.4	1010	2.8	10	1	70
2026-02-16T02:40	12.7	1010	3.1	30	1	70
2026-02-16T02:41	12.6	1010	2.5	40	1	70
2026-02-16T02:42	12.5	1010	2.4	40	1	70
2026-02-16T02:43	12.7	1010	2.6	90	1	70
2026-02-16T02:44	12.7	1010	2.6	100	1	70
2026-02-16T02:45	12.8	1010	2.4	80	1	70
2026-02-16T02:46	12.7	1010	2.3	90	1	70
2026-02-16T02:47	12.9	1010	2.7	110	1	70
2026-02-16T02:48	12.8	1010	2.4	130	1	70
2026-02-16T02:49	12.8	1010	2.4	140	1	70
2026-02-16T02:50	12.5	1010	2.1	140	1	70
2026-02-16T02:51	13.1	1010	2.9	140	1	70
2026-02-16T02:52	13.0	1010	2.6	140	1	70
2026-02-16T02:53	12.9	1010	2.5	140	1	70
2026-02-16T02:54	12.6	1009	1.9	140	1	70
2026-02-16T02:55	12.8	1009	2.4	140	1	70
2026-02-16T02:56	12.8	1009	2.4	140	2	70
2026-02-16T02:57	12.6	1009	1.9	130	2	70
2026-02-16T02:58	12.5	1009	2.1	140	2	70
2026-02-16T02:59	12.3	1009	1.9	140	1	70
2026-02-16T03:00	12.4	1009	2.0	150	1	70
2026-02-16T03:01	12.5	1009	2.1	150	2	70
2026-02-16T03:02	12.5	1009	2.1	150	2	70
2026-02-16T03:03	12.3	1009	1.9	160	2	70
2026-02-16T03:04	12.3	1009	1.9	160	1	70
2026-02-16T03:05	12.3	1009	1.9	160	1	70
2026-02-16T03:06	12.3	1009	1.9	170	1	70
2026-02-16T03:07	12.2	1009	1.8	170	1	70
2026-02-16T03:08	12.5	1009	2.4	170	1	70
2026-02-16T03:09	12.6	1009	2.2	180	1	70
2026-02-16T03:10	12.3	1009	1.9	180	1	70
2026-02-16T03:11	12.4	1009	2.3	190	1	70
2026-02-16T03:12	12.4	1009	2.3	190	1	70
2026-02-16T03:13	12.3	1009	2.2	180	1	70
2026-02-16T03:14	12.4	1009	2.3	170	1	70
2026-02-16T03:15	12.4	1009	2.3	170	1	70
2026-02-16T03:16	12.4	1009	2.0	160	1	70
2026-02-16T03:17	12.3	1009	1.9	160	1	70
2026-02-16T03:18	12.2	1009	2.1	160	1	70
2026-02-16T03:19	12.4	1009	2.3	150	1	70
2026-02-16T03:20	12.4	1009	2.0	150	1	70
2026-02-16T03:21	12.3	1009	1.9	150	1	70
2026-02-16T03:22	12.4	1009	2.0	140	1	70
2026-02-16T03:23	12.3	1009	1.9	140	1	70
2026-02-16T03:24	12.1	1009	1.7	140	1	70
2026-02-16T03:25	12.2	1009	1.8	150	1	70
2026-02-16T03:26	12.2	1009	1.8	150	1	70
2026-02-16T03:27	12.3	1009	2.2	150	1	70
2026-02-16T03:28	12.3	1009	2.2	140	1	70
2026-02-16T03:29	12.3	1009	2.2	140	1	70
2026-02-16T03:30	12.2	1009	2.1	130	1	70
2026-02-16T03:31	12.1	1009	2.0	120	1	70
2026-02-16T03:32	12.1	1009	2.0	120	1	70
2026-02-16T03:33	12.3	1009	2.2	110	1	70
2026-02-16T03:34	12.2	1009	2.1	110	1	70
2026-02-16T03:35	12.2	1009	2.1	110	1	70
2026-02-16T03:36	12.4	1009	2.3	100	1	70
2026-02-16T03:37	12.4	1009	2.3	110	1	70
2026-02-16T03:38	12.5	1009	2.4	110	1	70
2026-02-16T03:39	12.6	1009	2.2	120	1	70
2026-02-16T03:40	12.4	1009	2.0	120	1	70
2026-02-16T03:41	12.5	1009	2.1	120	1	70
2026-02-16T03:42	12.5	1009	2.4	130	2	70
2026-02-16T03:43	12.6	1009	2.5	130	2	70
2026-02-16T03:44	12.7	1009	2.3	130	2	70
2026-02-16T03:45	12.7	1009	2.3	130	2	70
2026-02-16T03:46	12.7	1009	2.3	130	2	70
2026-02-16T03:47	12.7	1009	2.3	130	2	70
2026-02-16T03:48	12.9	1009	2.5	120	2	70
2026-02-16T03:49	12.7	1009	2.3	120	2	70
2026-02-16T03:50	13.0	1009	2.6	120	2	70
2026-02-16T03:51	13.0	1009	2.6	120	1	70
2026-02-16T03:52	13.0	1009	2.6	120	1	70
2026-02-16T03:53	12.9	1008	2.5	120	1	70
2026-02-16T03:54	12.9	1008	2.5	120	1	70
2026-02-16T03:55	13.0	1008	2.6	130	1	70
2026-02-16T03:56	13.0	1008	2.6	120	2	70
2026-02-16T03:57	12.9	1008	2.5	120	2	70
2026-02-16T03:58	13.3	1008	2.8	130	2	70
2026-02-16T03:59	13.2	1008	2.7	130	2	70
2026-02-16T04:00	13.3	1008	2.8	130	2	70
2026-02-16T04:01	13.2	1008	2.7	130	2	70
2026-02-16T04:02	13.3	1008	2.8	130	2	70
2026-02-16T04:03	13.4	1008	3.2	130	2	70
2026-02-16T04:04	13.2	1008	2.7	120	2	70
2026-02-16T04:05	12.8	1008	2.4	120	2	70
2026-02-16T04:06	12.9	1008	2.7	120	2	70
2026-02-16T04:07	12.9	1008	2.7	120	2	70
2026-02-16T04:08	13.0	1008	2.8	120	2	69
2026-02-16T04:09	13.3	1008	3.1	120	2	70
2026-02-16T04:10	13.9	1008	3.7	120	2	70
2026-02-16T04:11	13.7	1008	2.9	120	2	70
2026-02-16T04:12	13.7	1008	2.9	120	2	70
2026-02-16T04:13	14.1	1008	3.3	120	2	70
2026-02-16T04:14	13.8	1008	2.7	120	2	70
2026-02-16T04:15	13.8	1008	2.7	130	2	70
2026-02-16T04:16	13.6	1008	2.8	130	2	70
2026-02-16T04:17	13.5	1008	3.0	130	2	70
2026-02-16T04:18	13.3	1008	2.8	130	2	70
2026-02-16T04:19	13.3	1008	3.1	120	2	70
2026-02-16T04:20	13.2	1008	3.0	120	2	70
2026-02-16T04:21	13.2	1008	3.3	110	2	70
2026-02-16T04:22	13.4	1008	3.8	100	2	70
2026-02-16T04:23	13.7	1008	3.8	100	2	70
2026-02-16T04:24	13.4	1008	3.5	100	2	70
2026-02-16T04:25	13.1	1008	3.2	100	2	70
2026-02-16T04:26	13.0	1008	3.1	100	2	70
2026-02-16T04:27	13.0	1008	3.1	100	2	70
2026-02-16T04:28	13.1	1008	3.5	100	2	70
2026-02-16T04:29	13.3	1008	3.7	100	2	70
2026-02-16T04:30	13.5	1008	3.9	110	2	70
2026-02-16T04:31	13.8	1008	4.1	120	2	70
2026-02-16T04:32	13.6	1008	3.7	130	2	70
2026-02-16T04:33	14.0	1008	4.0	130	2	70
2026-02-16T04:34	14.1	1008	4.1	120	2	70
2026-02-16T04:35	13.7	1008	3.8	130	2	70
2026-02-16T04:36	13.6	1008	3.9	130	2	70
2026-02-16T04:37	13.3	1008	3.7	140	2	70
2026-02-16T04:38	13.2	1008	3.8	130	2	70
2026-02-16T04:39	13.1	1008	4.0	130	2	70
2026-02-16T04:40	13.1	1008	4.0	120	2	70
2026-02-16T04:41	13.2	1008	4.1	130	2	70
2026-02-16T04:42	13.1	1008	4.0	130	2	70
2026-02-16T04:43	13.1	1008	4.3	120	2	70
2026-02-16T04:44	13.0	1008	4.2	120	2	70
2026-02-16T04:45	13.0	1008	4.2	120	1	70
2026-02-16T04:46	13.0	1008	4.2	120	1	70
2026-02-16T04:47	13.1	1008	4.5	120	2	70
2026-02-16T04:48	13.2	1008	4.6	120	2	70
2026-02-16T04:49	13.1	1008	4.3	120	2	70
2026-02-16T04:50	12.9	1008	4.1	130	2	70
2026-02-16T04:51	12.8	1008	4.0	130	2	70
2026-02-16T04:52	12.9	1008	4.4	130	2	70
2026-02-16T04:53	12.9	1008	4.4	130	2	70
2026-02-16T04:54	12.9	1008	4.1	130	2	69
2026-02-16T04:55	13.0	1008	4.4	130	2	69
2026-02-16T04:56	12.9	1008	4.1	130	2	70
2026-02-16T04:57	12.9	1008	4.1	130	3	70
2026-02-16T04:58	13.0	1008	4.2	130	3	69
2026-02-16T04:59	13.1	1008	4.3	140	3	69
2026-02-16T05:00	13.1	1008	4.3	140	3	69
2026-02-16T05:01	13.0	1008	3.9	140	3	70
2026-02-16T05:02	12.7	1008	3.6	140	3	69
2026-02-16T05:03	12.6	1008	3.8	130	3	69
2026-02-16T05:04	12.7	1008	3.9	140	3	70
2026-02-16T05:05	12.8	1008	4.0	140	2	70
2026-02-16T05:06	12.9	1008	4.1	130	3	70
2026-02-16T05:07	12.9	1008	4.1	130	2	70
2026-02-16T05:08	12.8	1008	3.7	130	2	70
2026-02-16T05:09	12.8	1008	4.0	130	2	70
2026-02-16T05:10	12.7	1008	3.9	130	2	70
2026-02-16T05:11	12.9	1008	4.1	130	2	70
2026-02-16T05:12	13.0	1008	4.2	130	2	70
2026-02-16T05:13	13.1	1008	4.0	140	2	70
2026-02-16T05:14	13.1	1008	4.0	140	2	70
2026-02-16T05:15	13.1	1008	4.0	130	2	70
2026-02-16T05:16	13.4	1008	4.3	140	2	70
2026-02-16T05:17	13.5	1008	4.4	140	2	70
2026-02-16T05:18	13.3	1008	3.9	140	2	70
2026-02-16T05:19	13.3	1008	3.9	140	2	70
2026-02-16T05:20	13.4	1008	4.0	140	2	70
2026-02-16T05:21	13.3	1008	3.9	140	2	70
2026-02-16T05:22	13.0	1008	3.4	140	2	70
2026-02-16T05:23	12.9	1008	3.6	140	2	70
2026-02-16T05:24	12.9	1008	3.6	140	2	70
2026-02-16T05:25	12.8	1008	3.5	140	2	70
2026-02-16T05:26	12.6	1008	3.3	140	2	70
2026-02-16T05:27	12.4	1008	3.1	140	2	70
2026-02-16T05:28	12.4	1008	3.4	140	2	70
2026-02-16T05:29	12.4	1008	3.4	140	2	70
2026-02-16T05:30	12.4	1008	3.4	130	2	70
2026-02-16T05:31	12.4	1008	3.4	140	2	70
2026-02-16T05:32	12.5	1008	3.5	140	2	70
2026-02-16T05:33	12.4	1008	3.4	140	2	70
2026-02-16T05:34	12.4	1008	3.4	140	2	70
2026-02-16T05:35	12.2	1008	3.2	140	2	70
2026-02-16T05:36	12.3	1008	3.3	140	2	70
2026-02-16T05:37	12.3	1008	3.3	140	2	70
2026-02-16T05:38	12.2	1008	3.2	130	2	70
2026-02-16T05:39	12.2	1008	3.2	130	2	70
2026-02-16T05:40	12.3	1008	3.3	130	2	70
2026-02-16T05:41	12.3	1008	3.3	130	2	70
2026-02-16T05:42	12.3	1008	3.3	130	2	70
2026-02-16T05:43	12.3	1008	3.0	130	3	70
2026-02-16T05:44	12.2	1008	2.9	130	3	70
2026-02-16T05:45	12.1	1008	3.1	130	2	70
2026-02-16T05:46	12.2	1008	3.2	130	2	70
2026-02-16T05:47	12.3	1008	3.3	140	2	70
2026-02-16T05:48	12.1	1008	2.8	130	2	70
2026-02-16T05:49	12.0	1008	2.7	130	2	70
2026-02-16T05:50	12.0	1008	3.0	130	2	70
2026-02-16T05:51	12.1	1008	3.1	120	2	70
2026-02-16T05:52	12.1	1008	3.1	120	2	70
2026-02-16T05:53	12.2	1009	3.2	120	2	70
2026-02-16T05:54	12.1	1009	2.8	120	2	70
2026-02-16T05:55	12.1	1009	3.1	120	2	70
2026-02-16T05:56	12.1	1009	2.8	110	2	70
2026-02-16T05:57	12.0	1009	2.7	120	3	70
2026-02-16T05:58	12.1	1009	2.8	120	3	70
2026-02-16T05:59	12.1	1009	2.8	120	3	70
2026-02-16T06:00	12.1	1009	2.8	120	3	70
2026-02-16T06:01	12.0	1009	2.7	120	3	70
2026-02-16T06:02	12.0	1009	2.7	120	3	70
2026-02-16T06:03	12.0	1009	2.7	120	3	70
2026-02-16T06:04	12.2	1009	2.9	120	3	70
2026-02-16T06:05	12.2	1009	2.9	110	2	70
2026-02-16T06:06	12.2	1009	2.9	100	2	70
2026-02-16T06:07	12.2	1009	2.9	100	2	70
2026-02-16T06:08	12.1	1009	2.8	100	2	70
2026-02-16T06:09	12.1	1009	2.8	100	2	70
2026-02-16T06:10	12.0	1009	2.7	110	2	70
2026-02-16T06:11	12.0	1009	2.7	100	2	70
2026-02-16T06:12	12.0	1009	2.7	100	2	70
2026-02-16T06:13	11.9	1009	2.6	100	2	70
2026-02-16T06:14	11.9	1009	2.6	110	2	70
2026-02-16T06:15	11.9	1009	2.6	110	2	70
2026-02-16T06:16	12.0	1009	2.7	110	2	70
2026-02-16T06:17	12.0	1009	2.7	110	2	70
2026-02-16T06:18	11.9	1009	2.6	120	2	70
2026-02-16T06:19	11.8	1009	2.5	120	2	70
2026-02-16T06:20	11.8	1009	2.5	120	2	70
2026-02-16T06:21	11.9	1009	2.6	120	2	70
2026-02-16T06:22	11.9	1009	2.6	130	2	70
2026-02-16T06:23	11.9	1009	2.9	130	2	70
2026-02-16T06:24	11.9	1009	2.6	130	2	70
2026-02-16T06:25	11.9	1009	2.6	130	2	70
2026-02-16T06:26	11.8	1009	2.5	140	3	70
2026-02-16T06:27	11.8	1009	2.5	130	2	70
2026-02-16T06:28	11.7	1009	2.5	130	2	70
2026-02-16T06:29	11.7	1009	2.5	130	3	70
2026-02-16T06:30	11.8	1009	2.8	130	3	70
2026-02-16T06:31	11.7	1009	2.5	130	3	70
2026-02-16T06:32	11.7	1009	2.5	130	3	70
2026-02-16T06:33	11.6	1009	2.4	130	2	70
2026-02-16T06:34	11.6	1009	2.4	130	2	70
2026-02-16T06:35	11.6	1009	2.6	130	2	70
2026-02-16T06:36	11.7	1009	2.7	130	2	70
2026-02-16T06:37	11.7	1009	2.7	130	2	70
2026-02-16T06:38	11.7	1009	2.5	130	2	70
2026-02-16T06:39	11.7	1009	2.5	130	2	70
2026-02-16T06:40	11.7	1009	2.5	130	2	70
2026-02-16T06:41	11.7	1009	2.5	130	2	70
2026-02-16T06:42	11.6	1009	2.4	120	2	70
2026-02-16T06:43	11.6	1009	2.4	120	2	70
2026-02-16T06:44	11.7	1009	2.5	120	2	70
2026-02-16T06:45	11.7	1009	2.5	120	1	70
2026-02-16T06:46	11.7	1009	2.7	120	1	70
2026-02-16T06:47	11.7	1009	2.5	120	2	70
2026-02-16T06:48	11.7	1009	2.7	130	2	70
2026-02-16T06:49	11.7	1009	2.5	130	2	70
2026-02-16T06:50	11.7	1009	2.5	130	2	70
2026-02-16T06:51	11.7	1009	2.5	130	2	70
2026-02-16T06:52	11.5	1009	2.3	130	2	70
2026-02-16T06:53	11.5	1009	2.3	130	2	70
2026-02-16T06:54	11.6	1009	2.6	130	2	70
2026-02-16T06:55	11.6	1009	2.6	130	2	70
2026-02-16T06:56	11.5	1009	2.5	130	2	70
2026-02-16T06:57	11.5	1009	2.5	130	2	70
2026-02-16T06:58	11.5	1009	2.5	130	2	70
2026-02-16T06:59	11.5	1009	2.5	120	2	70
2026-02-16T07:00	11.5	1009	2.5	130	2	70
2026-02-16T07:01	11.5	1009	2.5	130	2	70
2026-02-16T07:02	11.5	1009	2.8	130	2	70
2026-02-16T07:03	11.5	1009	2.5	120	2	70
2026-02-16T07:04	11.5	1009	2.8	130	2	70
2026-02-16T07:05	11.5	1009	2.8	130	2	70
2026-02-16T07:06	11.4	1009	2.7	130	2	70
2026-02-16T07:07	11.4	1009	2.7	130	2	70
2026-02-16T07:08	11.4	1009	2.7	130	2	70
2026-02-16T07:09	11.4	1009	2.7	130	2	70
2026-02-16T07:10	11.4	1009	2.7	120	2	70
2026-02-16T07:11	11.4	1009	2.7	120	2	70
2026-02-16T07:12	11.3	1009	2.6	120	2	70
2026-02-16T07:13	11.3	1009	2.6	120	2	70
2026-02-16T07:14	11.4	1009	2.7	120	2	70
2026-02-16T07:15	11.3	1009	2.6	120	2	70
2026-02-16T07:16	11.3	1009	2.6	120	2	70
2026-02-16T07:17	11.3	1009	2.3	120	2	70
2026-02-16T07:18	11.3	1009	2.3	120	2	70
2026-02-16T07:19	11.3	1009	2.6	120	1	70
2026-02-16T07:20	11.2	1009	2.3	120	1	70
2026-02-16T07:21	11.2	1009	2.3	120	1	70
2026-02-16T07:22	11.2	1009	2.3	120	1	70
2026-02-16T07:23	11.2	1009	2.3	120	1	70
2026-02-16T07:24	11.2	1009	2.3	120	1	70
2026-02-16T07:25	11.1	1009	2.2	120	1	70
2026-02-16T07:26	11.1	1009	2.2	120	1	70
2026-02-16T07:27	11.1	1009	2.2	110	1	70
2026-02-16T07:28	11.1	1009	2.2	110	1	70
2026-02-16T07:29	11.1	1009	2.2	100	2	70
2026-02-16T07:30	11.1	1009	2.2	100	2	70
2026-02-16T07:31	11.1	1009	2.2	110	2	70
2026-02-16T07:32	11.0	1009	2.1	100	2	70
2026-02-16T07:33	11.0	1009	2.1	100	2	70
2026-02-16T07:34	11.0	1009	2.1	110	2	70
2026-02-16T07:35	11.0	1009	2.1	110	2	70
2026-02-16T07:36	11.0	1009	2.1	110	2	70
2026-02-16T07:37	11.0	1009	2.1	110	2	70
2026-02-16T07:38	11.0	1009	2.1	120	2	70
2026-02-16T07:39	11.0	1009	2.1	120	2	70
2026-02-16T07:40	10.9	1009	2.2	120	2	70
2026-02-16T07:41	10.9	1009	2.2	120	2	70
2026-02-16T07:42	10.9	1009	2.2	110	2	70
2026-02-16T07:43	10.9	1009	2.2	110	2	70
2026-02-16T07:44	10.9	1009	2.2	110	2	70
2026-02-16T07:45	10.9	1009	2.0	110	2	70
2026-02-16T07:46	10.9	1009	2.0	110	2	70
2026-02-16T07:47	10.9	1010	2.0	100	2	70
2026-02-16T07:48	10.9	1010	2.0	100	2	70
2026-02-16T07:49	10.9	1010	2.0	100	2	70
2026-02-16T07:50	10.9	1010	2.0	110	2	70
2026-02-16T07:51	10.9	1010	2.0	110	2	70
2026-02-16T07:52	10.9	1010	2.0	110	2	70
2026-02-16T07:53	10.8	1010	1.9	110	2	70
2026-02-16T07:54	10.8	1010	1.9	100	2	70
2026-02-16T07:55	10.8	1010	2.1	110	2	70
2026-02-16T07:56	10.8	1010	2.1	110	2	70
2026-02-16T07:57	10.8	1010	2.1	110	2	70
2026-02-16T07:58	10.8	1010	2.1	110	2	70
2026-02-16T07:59	10.8	1010	2.1	110	2	70
2026-02-16T08:00	10.7	1010	2.0	110	2	70
2026-02-16T08:01	10.8	1010	2.1	110	2	70
2026-02-16T08:02	10.7	1010	2.0	110	1	70
2026-02-16T08:03	10.7	1010	2.0	110	1	70
2026-02-16T08:04	10.7	1010	2.0	110	2	70
2026-02-16T08:05	10.7	1010	2.3	110	2	70
2026-02-16T08:06	10.7	1010	2.3	110	2	70
2026-02-16T08:07	10.7	1010	2.3	110	2	70
2026-02-16T08:08	10.7	1010	2.3	110	2	70
2026-02-16T08:09	10.7	1010	2.3	100	2	70
2026-02-16T08:10	10.7	1010	2.3	100	2	70
2026-02-16T08:11	10.7	1010	2.3	100	2	70
2026-02-16T08:12	10.7	1010	2.5	100	2	70
2026-02-16T08:13	10.6	1010	2.4	100	2	70
2026-02-16T08:14	10.7	1010	2.5	100	2	70
2026-02-16T08:15	10.6	1010	2.4	100	2	70
2026-02-16T08:16	10.6	1010	2.4	110	2	70
2026-02-16T08:17	10.6	1010	2.4	110	2	70
2026-02-16T08:18	10.6	1010	2.7	110	2	70
2026-02-16T08:19	10.6	1010	2.7	110	2	70
2026-02-16T08:20	10.6	1010	2.7	110	2	70
2026-02-16T08:21	10.6	1010	2.7	110	2	70
2026-02-16T08:22	10.6	1010	2.7	110	2	70
2026-02-16T08:23	10.6	1010	2.7	110	2	70
2026-02-16T08:24	10.6	1010	2.7	120	2	70
2026-02-16T08:25	10.5	1010	2.6	120	2	70
2026-02-16T08:26	10.5	1010	2.8	110	2	70
2026-02-16T08:27	10.5	1010	2.8	110	2	70
2026-02-16T08:28	10.5	1010	2.8	120	2	70
2026-02-16T08:29	10.5	1010	2.8	110	2	70
2026-02-16T08:30	10.5	1010	2.8	110	2	70
2026-02-16T08:31	10.5	1010	2.8	110	2	70
2026-02-16T08:32	10.5	1010	2.8	110	1	70
2026-02-16T08:33	10.5	1010	2.8	110	1	70
2026-02-16T08:34	10.5	1010	2.8	110	1	70
2026-02-16T08:35	10.5	1010	2.8	100	1	70
2026-02-16T08:36	10.5	1010	2.8	100	1	70
2026-02-16T08:37	10.5	1010	2.8	100	1	70
2026-02-16T08:38	10.5	1010	2.8	90	1	70
2026-02-16T08:39	10.5	1010	2.8	90	1	70
2026-02-16T08:40	10.4	1010	3.0	90	2	70
2026-02-16T08:41	10.4	1011	3.0	90	2	70
2026-02-16T08:42	10.4	1011	3.0	80	2	70
2026-02-16T08:43	10.3	1011	3.1	80	2	70
2026-02-16T08:44	10.2	1011	3.3	80	2	70
2026-02-16T08:45	10.2	1011	3.3	80	2	70
2026-02-16T08:46	10.2	1011	3.5	80	3	70
2026-02-16T08:47	10.1	1011	3.6	80	3	70
2026-02-16T08:48	10.1	1011	3.6	90	3	70
2026-02-16T08:49	10.0	1011	3.7	90	3	70
2026-02-16T08:50	10.0	1011	3.7	90	3	70
2026-02-16T08:51	10.0	1011	3.7	90	3	70
2026-02-16T08:52	9.9	1011	3.6	90	3	70
2026-02-16T08:53	9.9	1011	3.9	90	3	70
2026-02-16T08:54	9.8	1011	3.8	90	3	70
2026-02-16T08:55	9.8	1011	3.8	90	3	70
2026-02-16T08:56	9.8	1011	3.8	90	2	70
2026-02-16T08:57	9.8	1011	4.0	90	2	70
2026-02-16T08:58	9.7	1011	3.9	90	2	70
2026-02-16T08:59	9.7	1011	3.9	90	2	70
2026-02-16T09:00	9.7	1011	3.9	90	2	70
2026-02-16T09:01	9.7	1011	3.9	90	2	70
2026-02-16T09:02	9.7	1011	4.1	100	2	70
2026-02-16T09:03	9.6	1011	4.0	100	2	70
2026-02-16T09:04	9.6	1011	4.0	100	2	70
2026-02-16T09:05	9.6	1011	4.0	100	2	70
2026-02-16T09:06	9.6	1011	4.0	100	2	69
2026-02-16T09:07	9.6	1011	4.0	100	2	69
2026-02-16T09:08	9.6	1011	4.0	90	2	69
2026-02-16T09:09	9.6	1011	4.0	100	2	68
2026-02-16T09:10	9.5	1011	3.9	100	2	68
2026-02-16T09:11	9.5	1011	3.9	100	2	68
2026-02-16T09:12	9.5	1011	4.1	90	2	67
2026-02-16T09:13	9.4	1011	4.0	100	2	67
2026-02-16T09:14	9.4	1011	4.0	100	2	67
2026-02-16T09:15	9.4	1011	4.0	100	2	67
2026-02-16T09:16	9.4	1011	4.0	100	2	66
2026-02-16T09:17	9.4	1011	4.0	100	2	66
2026-02-16T09:18	9.4	1011	4.0	110	2	66
2026-02-16T09:19	9.4	1011	4.0	110	2	66
2026-02-16T09:20	9.4	1011	4.2	100	2	66
2026-02-16T09:21	9.4	1011	4.2	90	2	66
2026-02-16T09:22	9.3	1011	4.1	100	2	65
2026-02-16T09:23	9.3	1011	4.1	100	2	65
2026-02-16T09:24	9.3	1011	4.1	90	2	65
2026-02-16T09:25	9.2	1011	4.0	90	2	65
2026-02-16T09:26	9.2	1011	4.0	90	2	64
2026-02-16T09:27	9.2	1011	4.0	90	2	64
2026-02-16T09:28	9.2	1011	4.2	80	2	64
2026-02-16T09:29	9.1	1011	4.1	90	1	63
2026-02-16T09:30	9.1	1011	4.1	90	1	63
2026-02-16T09:31	9.1	1011	4.1	90	1	63
2026-02-16T09:32	9.1	1011	4.1	90	1	63
2026-02-16T09:33	9.1	1011	4.1	90	1	63
2026-02-16T09:34	9.1	1011	3.9	80	1	63
2026-02-16T09:35	9.1	1011	4.1	80	1	63
2026-02-16T09:36	9.0	1011	4.0	70	1	64
2026-02-16T09:37	9.0	1011	4.2	70	1	64
2026-02-16T09:38	9.0	1011	4.2	70	1	65
2026-02-16T09:39	9.0	1011	4.2	70	1	65
2026-02-16T09:40	8.9	1011	4.1	70	1	66
2026-02-16T09:41	9.0	1012	4.2	70	2	66
2026-02-16T09:42	8.9	1012	4.1	60	2	67
2026-02-16T09:43	9.0	1012	4.2	60	1	67
2026-02-16T09:44	8.9	1012	4.3	60	1	67
2026-02-16T09:45	8.9	1012	4.1	70	2	67
2026-02-16T09:46	8.9	1012	4.1	70	2	67
2026-02-16T09:47	8.9	1012	4.3	70	2	66
2026-02-16T09:48	8.9	1012	4.3	70	2	66
2026-02-16T09:49	8.9	1012	4.1	70	2	66
2026-02-16T09:50	9.0	1012	4.0	70	1	66
2026-02-16T09:51	9.0	1012	4.0	80	1	66
2026-02-16T09:52	9.0	1012	4.2	80	1	66
2026-02-16T09:53	8.9	1012	4.1	90	2	66
2026-02-16T09:54	8.9	1012	4.3	90	2	66
2026-02-16T09:55	8.9	1012	4.3	80	2	66
2026-02-16T09:56	8.9	1012	4.1	80	2	66
2026-02-16T09:57	8.8	1012	4.2	80	1	66
2026-02-16T09:58	8.7	1012	4.3	80	1	66
2026-02-16T09:59	8.7	1012	4.3	80	1	65
2026-02-16T10:00	8.8	1012	4.4	80	2	65
2026-02-16T10:01	8.6	1012	4.4	80	2	64
2026-02-16T10:02	8.6	1012	4.4	80	2	64
2026-02-16T10:03	8.6	1012	4.6	80	1	63
2026-02-16T10:04	8.6	1012	4.6	80	1	63
2026-02-16T10:05	8.5	1012	4.7	80	1	63
2026-02-16T10:06	8.5	1012	4.9	80	1	63
2026-02-16T10:07	8.5	1012	4.9	80	1	63
2026-02-16T10:08	8.5	1012	4.9	80	1	63
2026-02-16T10:09	8.4	1012	4.8	80	1	63
2026-02-16T10:10	8.4	1012	4.8	80	1	63
2026-02-16T10:11	8.1	1012	5.1	80	1	63
2026-02-16T10:12	7.9	1012	5.2	90	1	63
2026-02-16T10:13	7.8	1012	5.3	90	0	63
2026-02-16T10:14	7.8	1012	5.5	90	0	63
2026-02-16T10:15	7.7	1012	5.5	90	0	63
2026-02-16T10:16	7.8	1012	5.5	90	0	63
2026-02-16T10:17	8.0	1012	5.3	90	0	63
2026-02-16T10:18	8.3	1012	5.1	90	1	63
2026-02-16T10:19	8.4	1012	5.0	90	1	64
2026-02-16T10:20	8.3	1012	5.1	90	1	64
2026-02-16T10:21	8.1	1012	5.1	90	1	63
2026-02-16T10:22	8.0	1012	5.1	90	1	64
2026-02-16T10:23	8.0	1012	5.1	90	1	64
2026-02-16T10:24	8.0	1012	5.1	90	1	65
2026-02-16T10:25	8.1	1012	5.1	90	1	65
2026-02-16T10:26	8.0	1012	5.3	90	1	65
2026-02-16T10:27	8.0	1012	5.3	90	1	65
2026-02-16T10:28	7.8	1012	5.3	90	1	64
2026-02-16T10:29	7.8	1012	5.3	90	1	64
2026-02-16T10:30	7.8	1012	5.3	90	1	64
2026-02-16T10:31	7.8	1012	5.5	90	1	64
2026-02-16T10:32	7.7	1012	5.5	100	1	64
2026-02-16T10:33	7.9	1012	5.4	100	1	64
2026-02-16T10:34	7.9	1012	5.4	100	1	63
2026-02-16T10:35	7.7	1012	5.4	100	1	62
2026-02-16T10:36	7.6	1012	5.8	90	1	62
2026-02-16T10:37	7.6	1012	5.6	90	1	62
2026-02-16T10:38	7.6	1012	5.8	80	1	62
2026-02-16T10:39	7.5	1012	5.7	70	1	61
2026-02-16T10:40	7.4	1012	5.4	60	1	61
2026-02-16T10:41	7.3	1013	5.0	60	2	61
2026-02-16T10:42	7.4	1013	4.9	50	2	61
2026-02-16T10:43	7.3	1013	5.0	40	2	61
2026-02-16T10:44	7.3	1013	5.0	40	2	61
2026-02-16T10:45	7.2	1013	4.9	40	2	61
2026-02-16T10:46	7.1	1013	4.9	40	2	61
2026-02-16T10:47	7.1	1013	4.8	40	2	60
2026-02-16T10:48	7.0	1013	4.8	50	2	60
2026-02-16T10:49	7.0	1013	5.0	50	2	60
2026-02-16T10:50	6.9	1013	4.9	50	2	61
2026-02-16T10:51	6.9	1013	4.9	60	2	61
2026-02-16T10:52	6.9	1013	4.9	60	2	61
2026-02-16T10:53	7.0	1013	4.7	60	2	61
2026-02-16T10:54	6.9	1013	4.7	60	2	61
2026-02-16T10:55	6.9	1013	4.7	60	2	61
2026-02-16T10:56	6.9	1013	4.7	60	2	61
2026-02-16T10:57	6.8	1013	4.6	60	2	61
2026-02-16T10:58	6.8	1013	4.6	60	2	61
2026-02-16T10:59	6.7	1013	4.7	60	2	61
2026-02-16T11:00	6.7	1013	4.5	60	2	60
2026-02-16T11:01	6.7	1013	4.5	60	2	60
2026-02-16T11:02	6.7	1013	4.5	60	2	60
2026-02-16T11:03	6.7	1013	4.7	70	1	60
2026-02-16T11:04	6.6	1013	4.6	60	1	60
2026-02-16T11:05	6.6	1013	4.6	60	1	60
2026-02-16T11:06	6.5	1013	4.7	60	1	60
2026-02-16T11:07	6.5	1013	4.7	60	1	60
2026-02-16T11:08	6.5	1013	4.8	60	1	60
2026-02-16T11:09	6.5	1013	4.7	60	1	60
2026-02-16T11:10	6.5	1013	4.8	60	1	60
2026-02-16T11:11	6.4	1013	4.9	50	1	60
2026-02-16T11:12	6.3	1013	4.8	50	1	60
2026-02-16T11:13	6.3	1013	4.8	40	1	61
2026-02-16T11:14	6.3	1013	5.0	40	1	60
2026-02-16T11:15	6.3	1013	5.0	40	1	61
2026-02-16T11:16	6.3	1013	5.0	50	1	61
2026-02-16T11:17	6.3	1013	4.8	40	1	61
2026-02-16T11:18	6.3	1013	4.8	40	1	61
2026-02-16T11:19	6.2	1013	4.7	40	1	61
2026-02-16T11:20	6.2	1013	4.9	40	1	61
2026-02-16T11:21	6.2	1013	4.9	50	1	61
2026-02-16T11:22	6.2	1013	4.9	50	2	61
2026-02-16T11:23	6.3	1013	5.0	50	2	61
2026-02-16T11:24	6.2	1013	4.9	50	2	61
2026-02-16T11:25	6.2	1013	4.9	60	2	61
2026-02-16T11:26	6.2	1013	4.7	50	2	61
2026-02-16T11:27	6.2	1013	4.7	50	2	60
2026-02-16T11:28	6.2	1013	4.7	60	2	60
2026-02-16T11:29	6.2	1013	4.7	60	2	60
2026-02-16T11:30	6.2	1013	4.7	60	2	60
2026-02-16T11:31	6.2	1013	4.5	50	2	60
2026-02-16T11:32	6.2	1013	4.7	50	2	60
2026-02-16T11:33	6.1	1013	4.6	50	2	60
2026-02-16T11:34	6.1	1013	4.6	50	2	61
2026-02-16T11:35	6.1	1013	4.4	50	2	61
2026-02-16T11:36	6.1	1013	4.4	50	2	61
2026-02-16T11:37	6.1	1013	4.4	60	2	61
2026-02-16T11:38	6.2	1013	4.5	60	2	62
2026-02-16T11:39	6.1	1013	4.4	60	2	62
2026-02-16T11:40	6.1	1013	4.3	60	2	62
2026-02-16T11:41	6.1	1013	4.4	60	2	62
2026-02-16T11:42	6.1	1013	4.4	60	2	63
2026-02-16T11:43	6.0	1013	4.3	60	2	63
2026-02-16T11:44	6.1	1013	4.4	60	2	63
2026-02-16T11:45	6.0	1013	4.3	70	2	63
2026-02-16T11:46	6.1	1013	4.4	70	2	63
2026-02-16T11:47	6.0	1013	4.3	70	2	63
2026-02-16T11:48	6.0	1013	4.5	60	2	63
2026-02-16T11:49	5.9	1013	4.4	60	2	63
2026-02-16T11:50	5.9	1013	4.6	60	2	63
2026-02-16T11:51	5.9	1013	4.6	60	2	63
2026-02-16T11:52	5.9	1013	4.6	60	2	63
2026-02-16T11:53	5.9	1013	4.6	60	2	63
2026-02-16T11:54	5.8	1013	4.6	60	2	63
2026-02-16T11:55	5.8	1013	4.6	50	2	63
2026-02-16T11:56	5.8	1013	4.6	50	2	63
2026-02-16T11:57	5.8	1013	4.5	50	2	64
2026-02-16T11:58	5.9	1013	4.6	50	2	64
2026-02-16T11:59	5.8	1013	4.5	50	2	64
2026-02-16T12:00	5.8	1013	4.6	50	2	64
2026-02-16T12:01	5.8	1013	4.6	40	2	64
2026-02-16T12:02	5.7	1013	4.5	40	1	64
2026-02-16T12:03	5.8	1013	4.6	40	1	64
2026-02-16T12:04	5.7	1013	4.5	40	1	64
2026-02-16T12:05	5.7	1013	4.5	50	2	64
2026-02-16T12:06	5.8	1013	4.5	50	1	63
2026-02-16T12:07	5.7	1013	4.4	40	1	63
2026-02-16T12:08	5.7	1013	4.4	40	1	63
2026-02-16T12:09	5.7	1013	4.4	50	2	63
2026-02-16T12:10	5.8	1013	4.5	50	2	63
2026-02-16T12:11	5.8	1013	4.5	50	2	63
2026-02-16T12:12	5.8	1013	4.5	60	2	63
2026-02-16T12:13	5.7	1013	4.2	60	2	63
2026-02-16T12:14	5.8	1014	4.3	60	2	63
2026-02-16T12:15	5.8	1013	4.3	60	1	63
2026-02-16T12:16	5.8	1013	4.5	60	2	63
2026-02-16T12:17	5.7	1013	4.4	60	2	62
2026-02-16T12:18	5.8	1013	4.3	70	2	62
2026-02-16T12:19	5.7	1013	4.2	70	2	62
2026-02-16T12:20	5.7	1013	4.4	60	2	62
2026-02-16T12:21	5.6	1013	4.3	60	1	61
2026-02-16T12:22	5.6	1013	4.4	50	1	61
2026-02-16T12:23	5.6	1013	4.4	50	2	61
2026-02-16T12:24	5.5	1013	4.3	50	2	60
2026-02-16T12:25	5.6	1014	4.4	50	2	60
2026-02-16T12:26	5.5	1013	4.5	50	2	60
2026-02-16T12:27	5.5	1013	4.5	50	2	60
2026-02-16T12:28	5.5	1013	4.3	50	2	60
2026-02-16T12:29	5.5	1014	4.3	50	2	60
2026-02-16T12:30	5.5	1014	4.3	50	2	60
2026-02-16T12:31	5.6	1014	4.4	50	2	60
2026-02-16T12:32	5.5	1014	4.3	60	2	60
2026-02-16T12:33	5.5	1014	4.3	60	2	60
2026-02-16T12:34	5.5	1014	4.3	60	2	60
2026-02-16T12:35	5.5	1014	4.3	60	2	61
2026-02-16T12:36	5.5	1014	4.3	60	2	61
2026-02-16T12:37	5.5	1014	4.2	60	2	61
2026-02-16T12:38	5.6	1014	4.3	60	2	61
2026-02-16T12:39	5.5	1014	4.3	70	2	61
2026-02-16T12:40	5.4	1014	4.4	70	2	61
2026-02-16T12:41	5.4	1014	4.4	70	2	61
2026-02-16T12:42	5.4	1014	4.4	70	2	60
2026-02-16T12:43	5.4	1014	4.4	70	2	60
2026-02-16T12:44	5.4	1014	4.4	70	2	60
2026-02-16T12:45	5.4	1014	4.4	70	2	59
2026-02-16T12:46	5.5	1014	4.5	70	2	59
2026-02-16T12:47	5.4	1014	4.4	70	2	59
2026-02-16T12:48	5.3	1014	4.4	60	1	58
2026-02-16T12:49	5.3	1014	4.4	50	1	58
2026-02-16T12:50	5.2	1014	4.3	40	1	57
2026-02-16T12:51	5.2	1014	4.5	30	1	57
2026-02-16T12:52	5.1	1014	4.4	20	1	57
2026-02-16T12:53	5.1	1014	4.2	10	1	57
2026-02-16T12:54	5.1	1014	4.2	360	1	57
2026-02-16T12:55	5.1	1014	4.1	360	2	57
2026-02-16T12:56	5.1	1014	4.1	350	2	57
2026-02-16T12:57	5.1	1014	4.2	350	2	57
2026-02-16T12:58	5.1	1014	4.2	350	2	57
2026-02-16T12:59	5.1	1014	4.1	350	2	57
2026-02-16T13:00	5.1	1014	4.1	360	2	57
2026-02-16T13:01	5.1	1014	3.9	360	2	58
2026-02-16T13:02	5.1	1014	3.9	360	2	58
2026-02-16T13:03	5.1	1014	3.9	360	2	57
2026-02-16T13:04	5.0	1014	4.0	360	2	57
2026-02-16T13:05	5.0	1014	4.0	360	2	57
2026-02-16T13:06	4.9	1014	3.9	10	2	57
2026-02-16T13:07	5.0	1014	3.8	10	2	57
2026-02-16T13:08	5.0	1014	3.8	10	2	57
2026-02-16T13:09	4.9	1014	3.7	10	2	57
2026-02-16T13:10	5.0	1014	3.8	10	2	57
2026-02-16T13:11	5.0	1014	3.8	10	2	57
2026-02-16T13:12	4.9	1014	3.9	10	2	57
2026-02-16T13:13	4.9	1014	3.9	10	2	57
2026-02-16T13:14	4.9	1014	4.0	10	2	57
2026-02-16T13:15	4.8	1014	3.9	10	2	57
2026-02-16T13:16	4.8	1014	3.9	10	2	57
2026-02-16T13:17	4.8	1014	3.9	10	2	57
2026-02-16T13:18	4.8	1014	3.9	10	2	57
2026-02-16T13:19	4.8	1014	3.9	10	2	57
2026-02-16T13:20	4.8	1014	3.9	10	2	57
2026-02-16T13:21	4.7	1014	3.8	10	2	57
2026-02-16T13:22	4.7	1014	3.8	10	2	57
2026-02-16T13:23	4.6	1014	3.7	10	2	57
2026-02-16T13:24	4.6	1014	3.7	10	2	57
2026-02-16T13:25	4.5	1014	3.6	10	2	57
2026-02-16T13:26	4.5	1014	3.5	10	2	57
2026-02-16T13:27	4.5	1014	3.5	360	2	57
2026-02-16T13:28	4.4	1014	3.4	360	2	57
2026-02-16T13:29	4.4	1014	3.2	360	3	57
2026-02-16T13:30	4.4	1014	3.2	360	3	58
2026-02-16T13:31	4.4	1014	3.2	360	3	58
2026-02-16T13:32	4.4	1014	3.2	10	3	58
2026-02-16T13:33	4.3	1014	3.1	360	3	58
2026-02-16T13:34	4.3	1014	3.3	10	3	58
2026-02-16T13:35	4.3	1014	3.3	10	2	58
2026-02-16T13:36	4.3	1015	3.4	10	2	58
2026-02-16T13:37	4.3	1015	3.3	10	2	58
2026-02-16T13:38	4.3	1015	3.4	10	2	58
2026-02-16T13:39	4.2	1014	3.3	10	2	58
2026-02-16T13:40	4.3	1014	3.4	10	2	57
2026-02-16T13:41	4.2	1014	3.5	10	1	57
2026-02-16T13:42	4.2	1014	3.5	10	1	57
2026-02-16T13:43	4.2	1014	3.5	10	1	57
2026-02-16T13:44	4.2	1014	3.5	10	1	57
2026-02-16T13:45	4.2	1014	3.5	10	1	57
2026-02-16T13:46	4.2	1015	3.6	10	1	57
2026-02-16T13:47	4.2	1015	3.6	10	1	57
2026-02-16T13:48	4.2	1015	3.6	10	1	57
2026-02-16T13:49	4.2	1015	3.6	10	1	57
2026-02-16T13:50	4.2	1015	3.6	10	1	57
2026-02-16T13:51	4.2	1015	3.6	10	1	57
2026-02-16T13:52	4.2	1015	3.6	10	1	58
2026-02-16T13:53	4.2	1015	3.6	10	1	58
2026-02-16T13:54	4.2	1015	3.6	10	1	58
2026-02-16T13:55	4.2	1015	3.6	10	1	58
2026-02-16T13:56	4.0	1015	3.4	10	1	58
2026-02-16T13:57	4.0	1015	3.4	10	1	58
2026-02-16T13:58	4.0	1015	3.4	10	2	58
2026-02-16T13:59	4.0	1015	3.4	10	2	57
2026-02-16T14:00	4.0	1015	3.4	20	2	57
2026-02-16T14:01	3.9	1015	3.3	20	2	57
2026-02-16T14:02	3.9	1015	3.3	20	2	57
2026-02-16T14:03	3.9	1015	3.3	30	2	57
2026-02-16T14:04	3.9	1015	3.5	30	2	57
2026-02-16T14:05	3.8	1015	3.4	30	2	57
2026-02-16T14:06	3.8	1015	3.4	30	2	56
2026-02-16T14:07	3.7	1015	3.3	40	2	56
2026-02-16T14:08	3.7	1015	3.1	40	2	56
2026-02-16T14:09	3.8	1015	3.4	40	2	57
2026-02-16T14:10	3.7	1015	3.3	40	2	57
2026-02-16T14:11	3.7	1015	3.3	50	2	57
2026-02-16T14:12	3.7	1015	3.3	50	2	57
2026-02-16T14:13	3.7	1015	3.3	50	2	57
2026-02-16T14:14	3.7	1015	3.3	50	2	57
2026-02-16T14:15	3.6	1015	3.0	50	2	57
2026-02-16T14:16	3.6	1015	3.0	50	1	57
2026-02-16T14:17	3.6	1015	3.2	50	1	57
2026-02-16T14:18	3.6	1015	3.2	50	1	57
2026-02-16T14:19	3.6	1015	3.2	50	1	57
2026-02-16T14:20	3.6	1015	3.2	50	1	57
2026-02-16T14:21	3.6	1015	3.2	50	1	57
2026-02-16T14:22	3.6	1015	3.2	50	1	57
2026-02-16T14:23	3.6	1015	3.2	50	1	57
2026-02-16T14:24	3.6	1015	3.2	60	1	57
2026-02-16T14:25	3.6	1015	3.2	60	2	57
2026-02-16T14:26	3.6	1015	3.2	60	2	57
2026-02-16T14:27	3.4	1015	3.0	60	2	58
2026-02-16T14:28	3.4	1015	3.0	60	2	58
2026-02-16T14:29	3.4	1015	3.0	60	2	58
2026-02-16T14:30	3.4	1015	3.0	60	2	58
2026-02-16T14:31	3.3	1015	2.9	60	2	58
2026-02-16T14:32	3.3	1015	2.9	50	2	58
2026-02-16T14:33	3.2	1015	2.8	50	2	58
2026-02-16T14:34	3.3	1015	2.9	50	2	58
2026-02-16T14:35	3.3	1015	2.9	50	2	58
2026-02-16T14:36	3.3	1015	3.0	50	2	58
2026-02-16T14:37	3.2	1015	2.8	50	2	59
2026-02-16T14:38	3.2	1015	2.8	60	2	59
2026-02-16T14:39	3.2	1015	2.8	50	2	59
2026-02-16T14:40	3.1	1015	2.8	50	2	59
2026-02-16T14:41	3.1	1015	2.7	50	2	60
2026-02-16T14:42	3.1	1015	2.7	50	2	60
2026-02-16T14:43	3.1	1015	2.8	50	2	60
2026-02-16T14:44	3.1	1015	2.8	50	2	60
2026-02-16T14:45	3.0	1015	2.7	50	2	60
2026-02-16T14:46	3.0	1015	2.7	50	2	61
2026-02-16T14:47	2.9	1015	2.6	50	2	61
2026-02-16T14:48	2.9	1015	2.6	50	2	61
2026-02-16T14:49	2.9	1015	2.6	60	2	61
2026-02-16T14:50	2.9	1015	2.6	60	2	60
2026-02-16T14:51	2.9	1015	2.6	70	2	60
2026-02-16T14:52	2.9	1015	2.6	70	2	60
2026-02-16T14:53	2.9	1015	2.6	70	2	59
2026-02-16T14:54	2.9	1015	2.6	70	2	59
2026-02-16T14:55	2.9	1015	2.6	70	2	59
2026-02-16T14:56	2.9	1015	2.6	70	2	58
2026-02-16T14:57	2.9	1015	2.6	70	2	58
2026-02-16T14:58	2.9	1015	2.6	70	2	58
2026-02-16T14:59	2.9	1015	2.6	60	2	58
2026-02-16T15:00	2.9	1015	2.6	60	1	57
2026-02-16T15:01	2.8	1015	2.5	60	1	57
2026-02-16T15:02	2.8	1015	2.5	50	2	57
2026-02-16T15:03	2.9	1015	2.6	50	2	57
2026-02-16T15:04	2.8	1015	2.5	50	2	57
2026-02-16T15:05	2.8	1015	2.5	50	2	57
2026-02-16T15:06	2.8	1015	2.5	50	2	57
2026-02-16T15:07	2.8	1015	2.5	50	2	56
2026-02-16T15:08	2.8	1015	2.5	50	2	56
2026-02-16T15:09	2.7	1015	2.4	50	2	57
2026-02-16T15:10	2.8	1015	2.5	60	2	57
2026-02-16T15:11	2.7	1015	2.4	50	2	57
2026-02-16T15:12	2.7	1015	2.4	60	2	57
2026-02-16T15:13	2.7	1015	2.4	50	2	58
2026-02-16T15:14	2.7	1015	2.4	50	2	58
2026-02-16T15:15	2.7	1015	2.4	50	2	59
2026-02-16T15:16	2.7	1015	2.4	60	2	59
2026-02-16T15:17	2.6	1015	2.3	60	2	59
2026-02-16T15:18	2.7	1015	2.4	60	1	60
2026-02-16T15:19	2.7	1015	2.4	60	1	60
2026-02-16T15:20	2.7	1015	2.4	60	1	60
2026-02-16T15:21	2.6	1015	2.3	60	1	60
2026-02-16T15:22	2.7	1015	2.4	60	1	61
2026-02-16T15:23	2.7	1015	2.4	70	1	61
2026-02-16T15:24	2.7	1015	2.4	70	1	61
2026-02-16T15:25	2.7	1015	2.4	60	1	61
2026-02-16T15:26	2.7	1015	2.4	50	1	61
2026-02-16T15:27	2.6	1015	2.3	50	1	61
2026-02-16T15:28	2.6	1015	2.3	50	1	62
2026-02-16T15:29	2.6	1015	2.3	50	1	62
2026-02-16T15:30	2.5	1015	2.2	40	1	62
2026-02-16T15:31	2.5	1015	2.2	40	1	62
2026-02-16T15:32	2.6	1015	2.3	50	1	62
2026-02-16T15:33	2.6	1015	2.3	50	1	62
2026-02-16T15:34	2.6	1015	2.3	50	1	62
2026-02-16T15:35	2.6	1015	2.3	60	1	61
2026-02-16T15:36	2.6	1015	2.3	70	1	61
2026-02-16T15:37	2.6	1015	2.3	80	2	61
2026-02-16T15:38	2.6	1015	2.3	80	2	61
2026-02-16T15:39	2.5	1015	2.2	80	2	60
2026-02-16T15:40	2.5	1015	2.2	90	2	59
2026-02-16T15:41	2.5	1015	2.2	90	2	59
2026-02-16T15:42	2.5	1015	2.2	90	2	59
2026-02-16T15:43	2.5	1015	2.2	100	2	58
2026-02-16T15:44	2.5	1015	2.2	100	1	58
2026-02-16T15:45	2.5	1015	2.2	100	2	59
2026-02-16T15:46	2.5	1015	2.2	100	2	59
2026-02-16T15:47	2.4	1015	2.1	110	1	59
2026-02-16T15:48	2.4	1015	2.1	110	1	59
2026-02-16T15:49	2.4	1015	2.1	110	1	59
2026-02-16T15:50	2.4	1015	2.1	110	1	60
2026-02-16T15:51	2.4	1015	2.1	110	1	61
2026-02-16T15:52	2.4	1015	2.1	110	1	62
2026-02-16T15:53	2.4	1015	2.1	100	1	62
2026-02-16T15:54	2.4	1015	2.1	100	1	63
2026-02-16T15:55	2.4	1015	2.1	90	1	63
2026-02-16T15:56	2.4	1015	2.1	90	1	63
2026-02-16T15:57	2.4	1015	2.1	80	1	63
2026-02-16T15:58	2.4	1015	2.1	80	2	63
2026-02-16T15:59	2.4	1015	2.1	70	1	62
2026-02-16T16:00	2.4	1015	2.1	70	2	62
2026-02-16T16:01	2.3	1015	2.0	70	2	61
2026-02-16T16:02	2.3	1015	2.0	70	2	61
2026-02-16T16:03	2.3	1015	2.0	80	2	61
2026-02-16T16:04	2.3	1015	2.0	80	2	60
2026-02-16T16:05	2.3	1015	2.0	90	2	60
2026-02-16T16:06	2.3	1015	2.0	90	1	60
2026-02-16T16:07	2.4	1015	2.1	100	1	60
2026-02-16T16:08	2.4	1015	2.1	100	1	60
2026-02-16T16:09	2.4	1015	2.1	100	1	60
2026-02-16T16:10	2.4	1015	2.1	100	1	60
2026-02-16T16:11	2.4	1015	2.1	100	1	59
2026-02-16T16:12	2.5	1015	2.2	100	1	59
2026-02-16T16:13	2.5	1015	2.2	100	1	59
2026-02-16T16:14	2.4	1015	2.1	90	1	59
2026-02-16T16:15	2.4	1015	2.1	90	1	59
2026-02-16T16:16	2.4	1015	2.1	90	1	59
2026-02-16T16:17	2.4	1015	2.1	80	1	59
2026-02-16T16:18	2.4	1015	2.1	80	1	59
2026-02-16T16:19	2.4	1015	2.0	90	2	59
2026-02-16T16:20	2.4	1015	2.0	90	2	59
2026-02-16T16:21	2.3	1015	1.9	90	2	59
2026-02-16T16:22	2.3	1015	1.9	90	2	59
2026-02-16T16:23	2.3	1015	1.9	90	2	60
2026-02-16T16:24	2.3	1015	1.9	90	2	60
2026-02-16T16:25	2.3	1015	1.9	90	2	60
2026-02-16T16:26	2.3	1015	1.9	90	2	60
2026-02-16T16:27	2.2	1015	1.8	100	2	60
2026-02-16T16:28	2.3	1015	1.9	100	2	60
2026-02-16T16:29	2.3	1015	1.9	100	2	60
2026-02-16T16:30	2.2	1015	1.8	100	2	61
2026-02-16T16:31	2.2	1015	1.8	100	2	61
2026-02-16T16:32	2.2	1015	1.8	100	2	61
2026-02-16T16:33	2.2	1015	1.8	90	2	61
2026-02-16T16:34	2.2	1015	1.8	90	2	61
2026-02-16T16:35	2.2	1015	1.8	90	2	61
2026-02-16T16:36	2.2	1015	1.8	90	2	61
2026-02-16T16:37	2.2	1015	1.8	80	2	61
2026-02-16T16:38	2.1	1015	1.7	80	2	61
2026-02-16T16:39	2.1	1015	1.7	80	2	61
2026-02-16T16:40	2.1	1015	1.7	80	2	61
2026-02-16T16:41	2.1	1015	1.7	70	2	62
2026-02-16T16:42	2.1	1015	1.7	70	2	62
2026-02-16T16:43	2.1	1015	1.7	70	2	63
2026-02-16T16:44	2.1	1015	1.7	70	2	63
2026-02-16T16:45	2.1	1015	1.7	70	2	64
2026-02-16T16:46	2.1	1015	1.7	70	2	64
2026-02-16T16:47	2.1	1015	1.7	70	2	64
2026-02-16T16:48	2.1	1015	1.7	70	2	64
2026-02-16T16:49	2.1	1015	1.7	60	2	64
2026-02-16T16:50	2.1	1015	1.7	60	2	65
2026-02-16T16:51	2.1	1015	1.7	60	2	64
2026-02-16T16:52	2.1	1015	1.7	60	2	64
2026-02-16T16:53	2.0	1015	1.6	70	2	64
2026-02-16T16:54	2.1	1015	1.7	70	2	64
2026-02-16T16:55	2.0	1015	1.6	70	2	64
2026-02-16T16:56	2.0	1015	1.6	70	2	64
2026-02-16T16:57	2.0	1015	1.6	70	2	64
2026-02-16T16:58	2.0	1015	1.6	70	2	64
2026-02-16T16:59	2.0	1015	1.6	60	2	64
2026-02-16T17:00	2.0	1015	1.6	60	2	64
2026-02-16T17:01	2.0	1015	1.6	70	2	64
2026-02-16T17:02	2.0	1015	1.6	70	2	64
2026-02-16T17:03	2.0	1015	1.6	70	2	64
2026-02-16T17:04	2.0	1015	1.6	70	2	64
2026-02-16T17:05	2.0	1015	1.6	60	2	64
2026-02-16T17:06	2.0	1015	1.6	60	2	64
2026-02-16T17:07	2.0	1015	1.6	60	2	64
2026-02-16T17:08	2.0	1015	1.6	60	2	64
2026-02-16T17:09	2.0	1015	1.6	60	2	64
2026-02-16T17:10	2.0	1015	1.6	60	2	63
2026-02-16T17:11	2.0	1015	1.6	60	2	63
2026-02-16T17:12	1.9	1015	1.5	60	2	63
2026-02-16T17:13	1.9	1015	1.5	70	2	63
2026-02-16T17:14	1.9	1015	1.5	70	2	63
2026-02-16T17:15	1.9	1015	1.5	80	2	63
2026-02-16T17:16	1.9	1015	1.5	80	2	63
2026-02-16T17:17	1.9	1015	1.5	80	2	63
2026-02-16T17:18	1.9	1015	1.5	90	2	63
2026-02-16T17:19	1.9	1015	1.5	90	2	63
2026-02-16T17:20	1.9	1015	1.5	90	2	63
2026-02-16T17:21	1.9	1015	1.5	100	2	63
2026-02-16T17:22	1.9	1015	1.5	100	2	62
2026-02-16T17:23	1.9	1015	1.5	100	2	62
2026-02-16T17:24	1.9	1015	1.5	100	2	62
2026-02-16T17:25	1.9	1015	1.5	100	2	63
2026-02-16T17:26	1.9	1015	1.5	100	2	62
2026-02-16T17:27	1.9	1015	1.5	90	2	62
2026-02-16T17:28	1.9	1015	1.5	90	2	62
2026-02-16T17:29	1.9	1015	1.5	80	2	62
2026-02-16T17:30	1.9	1015	1.5	80	2	63
2026-02-16T17:31	1.9	1015	1.5	80	2	63
2026-02-16T17:32	1.9	1015	1.5	80	2	63
2026-02-16T17:33	1.9	1015	1.5	70	2	63
2026-02-16T17:34	1.9	1015	1.5	70	2	63
2026-02-16T17:35	1.9	1015	1.5	70	2	64
2026-02-16T17:36	1.9	1015	1.5	70	2	64
2026-02-16T17:37	2.0	1015	1.6	70	2	65
2026-02-16T17:38	1.9	1015	1.5	70	2	65
2026-02-16T17:39	2.0	1015	1.6	70	2	65
2026-02-16T17:40	2.0	1015	1.6	70	2	65
2026-02-16T17:41	1.9	1015	1.5	70	2	65
2026-02-16T17:42	2.0	1015	1.6	70	2	65
2026-02-16T17:43	2.0	1015	1.6	60	2	65
2026-02-16T17:44	1.9	1015	1.5	60	2	66
2026-02-16T17:45	1.9	1015	1.5	60	2	66
2026-02-16T17:46	2.0	1015	1.6	60	2	66
2026-02-16T17:47	2.0	1015	1.6	60	2	65
2026-02-16T17:48	2.0	1015	1.6	60	2	65
2026-02-16T17:49	1.9	1015	1.5	60	2	65
2026-02-16T17:50	1.9	1015	1.5	60	2	65
2026-02-16T17:51	1.9	1015	1.5	60	2	64
2026-02-16T17:52	1.9	1015	1.5	60	2	64
2026-02-16T17:53	1.9	1015	1.5	70	2	64
2026-02-16T17:54	2.0	1015	1.6	70	2	63
2026-02-16T17:55	1.9	1015	1.5	60	2	63
2026-02-16T17:56	1.9	1015	1.5	70	2	63
2026-02-16T17:57	1.9	1015	1.5	70	2	62
2026-02-16T17:58	1.9	1015	1.5	70	2	63
2026-02-16T17:59	1.9	1015	1.5	70	2	63
2026-02-16T18:00	1.9	1015	1.5	70	2	63
2026-02-16T18:01	1.9	1015	1.5	70	2	63
2026-02-16T18:02	1.9	1015	1.5	70	2	63
2026-02-16T18:03	1.9	1015	1.5	60	2	63
2026-02-16T18:04	1.9	1015	1.5	60	2	64
2026-02-16T18:05	1.9	1015	1.5	70	2	64
2026-02-16T18:06	1.9	1015	1.5	60	2	64
2026-02-16T18:07	1.9	1015	1.5	70	2	64
2026-02-16T18:08	1.9	1015	1.5	70	2	64
2026-02-16T18:09	1.9	1015	1.5	70	2	64
2026-02-16T18:10	1.9	1015	1.5	70	2	64
2026-02-16T18:11	2.0	1015	1.6	70	2	64
2026-02-16T18:12	1.9	1015	1.5	70	2	64
2026-02-16T18:13	1.9	1015	1.5	70	2	64
2026-02-16T18:14	1.9	1015	1.5	70	2	65
2026-02-16T18:15	1.9	1015	1.5	70	2	65
2026-02-16T18:16	1.9	1015	1.5	70	2	65
2026-02-16T18:17	1.9	1015	1.5	70	2	65
2026-02-16T18:18	1.9	1015	1.5	70	2	66
2026-02-16T18:19	1.9	1015	1.3	70	2	67
2026-02-16T18:20	1.9	1015	1.3	70	2	67
2026-02-16T18:21	1.9	1015	1.3	70	2	68
2026-02-16T18:22	1.9	1015	1.3	60	2	69
2026-02-16T18:23	1.9	1015	1.3	60	2	69
2026-02-16T18:24	1.9	1015	1.3	50	2	69
2026-02-16T18:25	1.9	1015	1.3	50	2	70
2026-02-16T18:26	1.9	1015	1.3	50	2	70
2026-02-16T18:27	1.9	1015	1.3	50	2	70
2026-02-16T18:28	1.9	1015	1.3	40	1	70
2026-02-16T18:29	1.9	1015	1.3	40	1	70
2026-02-16T18:30	1.9	1015	1.3	40	1	70
2026-02-16T18:31	1.9	1015	1.3	40	2	70
2026-02-16T18:32	1.9	1015	1.3	40	2	70
2026-02-16T18:33	1.9	1015	1.3	40	2	70
2026-02-16T18:34	1.9	1015	1.3	30	2	70
2026-02-16T18:35	1.8	1015	1.2	30	1	70
2026-02-16T18:36	1.9	1015	1.3	30	2	70
2026-02-16T18:37	1.8	1015	1.2	30	2	70
2026-02-16T18:38	1.8	1015	1.4	40	2	69
2026-02-16T18:39	1.8	1015	1.4	40	2	69
2026-02-16T18:40	1.8	1015	1.4	40	2	68
2026-02-16T18:41	1.8	1015	1.4	40	2	68
2026-02-16T18:42	1.9	1015	1.5	40	2	68
2026-02-16T18:43	1.9	1015	1.5	40	2	69
2026-02-16T18:44	1.9	1015	1.5	40	2	69
2026-02-16T18:45	1.9	1015	1.3	40	2	69
2026-02-16T18:46	1.9	1015	1.3	40	2	70
2026-02-16T18:47	1.9	1015	1.3	40	2	70
2026-02-16T18:48	2.0	1015	1.4	40	2	70
2026-02-16T18:49	2.0	1015	1.4	40	2	70
2026-02-16T18:50	2.0	1015	1.4	40	2	70
2026-02-16T18:51	2.0	1016	1.4	40	2	70
2026-02-16T18:52	2.0	1016	1.3	40	2	70
2026-02-16T18:53	2.0	1016	1.3	50	2	70
2026-02-16T18:54	2.0	1016	1.3	40	2	70
2026-02-16T18:55	2.0	1016	1.3	40	2	70
2026-02-16T18:56	2.1	1016	1.4	40	2	70
2026-02-16T18:57	2.1	1016	1.4	40	2	70
2026-02-16T18:58	2.0	1016	1.3	40	2	70
2026-02-16T18:59	2.0	1016	1.3	40	1	70
2026-02-16T19:00	2.0	1016	1.3	40	1	70
2026-02-16T19:01	2.0	1016	1.3	40	1	70
2026-02-16T19:02	2.0	1016	1.3	40	1	70
2026-02-16T19:03	2.1	1016	1.2	40	1	70
2026-02-16T19:04	2.1	1016	1.2	40	1	70
2026-02-16T19:05	2.1	1016	1.2	40	1	70
2026-02-16T19:06	2.1	1016	1.2	40	1	70
2026-02-16T19:07	2.1	1016	1.2	40	1	70
2026-02-16T19:08	2.2	1016	1.2	40	1	70
2026-02-16T19:09	2.2	1016	1.2	40	1	70
2026-02-16T19:10	2.1	1016	1.2	40	1	70
2026-02-16T19:11	2.1	1016	1.2	40	1	70
2026-02-16T19:12	2.1	1016	1.1	30	1	70
2026-02-16T19:13	2.1	1016	1.1	30	1	70
2026-02-16T19:14	2.2	1016	1.2	20	1	70
2026-02-16T19:15	2.2	1016	1.2	30	1	70
2026-02-16T19:16	2.2	1016	1.2	20	1	70
2026-02-16T19:17	2.2	1016	1.0	30	1	70
2026-02-16T19:18	2.3	1016	1.1	20	1	70
2026-02-16T19:19	2.3	1016	1.1	20	1	70
2026-02-16T19:20	2.3	1016	1.1	30	1	70
2026-02-16T19:21	2.2	1016	1.0	40	1	70
2026-02-16T19:22	2.2	1016	1.0	40	1	70
2026-02-16T19:23	2.2	1016	1.0	50	1	70
2026-02-16T19:24	2.3	1016	1.1	50	1	70
2026-02-16T19:25	2.3	1016	1.1	50	1	70
2026-02-16T19:26	2.4	1016	1.2	60	1	70
2026-02-16T19:27	2.4	1016	1.1	60	1	70
2026-02-16T19:28	2.4	1016	1.1	60	1	70
2026-02-16T19:29	2.4	1016	1.1	70	1	70
2026-02-16T19:30	2.3	1016	1.0	70	2	70
2026-02-16T19:31	2.4	1016	1.1	60	1	70
2026-02-16T19:32	2.3	1016	1.0	70	1	70
2026-02-16T19:33	2.4	1016	1.1	60	1	70
2026-02-16T19:34	2.4	1016	1.1	70	1	70
2026-02-16T19:35	2.4	1016	0.9	70	1	70
2026-02-16T19:36	2.5	1016	1.0	70	1	70
2026-02-16T19:37	2.5	1016	1.0	60	1	70
2026-02-16T19:38	2.3	1016	1.0	60	1	70
2026-02-16T19:39	2.4	1016	1.1	60	1	70
2026-02-16T19:40	2.4	1016	1.1	60	1	70
2026-02-16T19:41	2.3	1016	1.0	70	2	70
2026-02-16T19:42	2.4	1016	1.1	60	2	70
2026-02-16T19:43	2.3	1016	1.0	60	1	70
2026-02-16T19:44	2.4	1016	1.1	60	2	70
2026-02-16T19:45	2.4	1016	1.1	60	1	70
2026-02-16T19:46	2.5	1016	1.0	70	1	70
2026-02-16T19:47	2.5	1016	1.0	70	1	70
2026-02-16T19:48	2.5	1016	1.0	70	1	70
2026-02-16T19:49	2.4	1016	0.9	70	1	70
2026-02-16T19:50	2.4	1016	0.9	80	1	70
2026-02-16T19:51	2.4	1016	1.1	80	1	70
2026-02-16T19:52	2.4	1016	1.1	80	1	70
2026-02-16T19:53	2.5	1016	1.0	80	1	70
2026-02-16T19:54	2.5	1016	0.9	80	2	70
2026-02-16T19:55	2.5	1016	0.9	80	2	70
2026-02-16T19:56	2.5	1016	0.9	70	2	70
2026-02-16T19:57	2.5	1016	0.9	70	2	70
2026-02-16T19:58	2.5	1016	0.9	60	2	70
2026-02-16T19:59	2.5	1016	0.9	60	2	70
2026-02-16T20:00	2.5	1016	0.9	60	2	70
2026-02-16T20:01	2.4	1016	0.8	60	2	70
2026-02-16T20:02	2.4	1016	0.9	60	2	70
2026-02-16T20:03	2.3	1016	0.8	50	2	70
2026-02-16T20:04	2.3	1016	0.8	50	2	70
2026-02-16T20:05	2.3	1016	1.0	50	2	70
2026-02-16T20:06	2.3	1016	1.0	40	2	70
2026-02-16T20:07	2.3	1016	1.0	40	1	70
2026-02-16T20:08	2.3	1016	1.0	40	2	70
2026-02-16T20:09	2.4	1016	0.9	50	1	70
2026-02-16T20:10	2.4	1016	0.9	50	1	70
2026-02-16T20:11	2.3	1016	1.0	40	1	70
2026-02-16T20:12	2.3	1016	1.0	40	1	70
2026-02-16T20:13	2.3	1016	1.0	40	1	70
2026-02-16T20:14	2.3	1016	1.0	40	1	70
2026-02-16T20:15	2.3	1016	1.0	40	1	70
2026-02-16T20:16	2.3	1016	1.0	40	1	70
2026-02-16T20:17	2.3	1016	1.0	40	1	70
2026-02-16T20:18	2.2	1016	0.9	40	1	70
2026-02-16T20:19	2.3	1016	1.0	30	1	70
2026-02-16T20:20	2.3	1016	1.0	30	1	70
2026-02-16T20:21	2.3	1016	1.0	30	1	70
2026-02-16T20:22	2.3	1016	1.0	30	1	70
2026-02-16T20:23	2.3	1016	1.0	30	1	70
2026-02-16T20:24	2.3	1016	1.0	40	1	70
2026-02-16T20:25	2.4	1016	0.9	50	1	70
2026-02-16T20:26	2.4	1016	0.9	50	1	70
2026-02-16T20:27	2.4	1017	0.9	60	1	70
2026-02-16T20:28	2.4	1017	0.9	70	1	70
2026-02-16T20:29	2.4	1017	0.9	70	1	70
2026-02-16T20:30	2.5	1017	1.0	70	1	70
2026-02-16T20:31	2.5	1017	0.9	80	1	70
2026-02-16T20:32	2.5	1017	0.9	80	1	70
2026-02-16T20:33	2.6	1017	0.8	80	1	70
2026-02-16T20:34	2.5	1017	0.9	80	1	70
2026-02-16T20:35	2.5	1017	0.9	80	1	70
2026-02-16T20:36	2.4	1017	0.9	80	1	70
2026-02-16T20:37	2.5	1017	0.9	80	1	70
2026-02-16T20:38	2.5	1017	0.9	80	1	70
2026-02-16T20:39	2.5	1017	0.9	80	1	70
2026-02-16T20:40	2.4	1017	0.8	90	1	70
2026-02-16T20:41	2.4	1017	0.9	90	1	70
2026-02-16T20:42	2.3	1017	0.8	80	1	70
2026-02-16T20:43	2.4	1017	0.9	70	1	70
2026-02-16T20:44	2.4	1017	0.8	70	1	70
2026-02-16T20:45	2.5	1017	0.9	50	1	70
2026-02-16T20:46	2.4	1017	0.8	50	1	70
2026-02-16T20:47	2.4	1017	0.9	40	1	70
2026-02-16T20:48	2.3	1017	0.8	30	1	70
2026-02-16T20:49	2.4	1017	0.8	30	1	70
2026-02-16T20:50	2.4	1017	0.9	30	1	70
2026-02-16T20:51	2.3	1017	0.8	30	1	70
2026-02-16T20:52	2.4	1017	0.8	30	1	70
2026-02-16T20:53	2.3	1017	0.8	20	1	70
2026-02-16T20:54	2.3	1017	0.8	20	1	70
2026-02-16T20:55	2.4	1017	0.8	20	1	70
2026-02-16T20:56	2.4	1017	0.8	10	1	70
2026-02-16T20:57	2.4	1017	0.8	10	1	70
2026-02-16T20:58	2.2	1017	0.7	360	1	70
2026-02-16T20:59	2.2	1017	0.7	360	1	70
2026-02-16T21:00	2.3	1017	0.8	360	1	70
2026-02-16T21:01	2.3	1017	0.7	360	1	70
2026-02-16T21:02	2.3	1017	0.7	350	1	70
2026-02-16T21:03	2.2	1017	0.7	360	1	70
2026-02-16T21:04	2.3	1017	0.7	360	1	70
2026-02-16T21:05	2.3	1017	0.7	360	1	70
2026-02-16T21:06	2.2	1017	0.7	360	1	70
2026-02-16T21:07	2.2	1017	0.7	360	1	70
2026-02-16T21:08	2.2	1017	0.6	360	1	70
2026-02-16T21:09	2.3	1017	0.7	10	1	70
2026-02-16T21:10	2.2	1017	0.6	10	1	70
2026-02-16T21:11	2.2	1017	0.6	20	1	70
2026-02-16T21:12	2.3	1017	0.7	20	1	70
2026-02-16T21:13	2.3	1017	0.7	30	1	70
2026-02-16T21:14	2.3	1017	0.8	30	1	70
2026-02-16T21:15	2.3	1017	0.7	40	1	70
2026-02-16T21:16	2.4	1017	0.8	30	1	70
2026-02-16T21:17	2.3	1017	0.5	30	1	70
2026-02-16T21:18	2.4	1017	0.6	30	1	70
2026-02-16T21:19	2.3	1017	0.5	30	1	70
2026-02-16T21:20	2.4	1017	0.6	30	1	70
2026-02-16T21:21	2.3	1017	0.5	20	1	70
2026-02-16T21:22	2.3	1017	0.5	10	1	70
2026-02-16T21:23	2.4	1017	0.5	10	1	70
2026-02-16T21:24	2.4	1017	0.5	360	1	70
2026-02-16T21:25	2.5	1017	0.4	360	1	70
2026-02-16T21:26	2.4	1017	0.3	360	1	70
2026-02-16T21:27	2.4	1017	0.5	360	1	70
2026-02-16T21:28	2.3	1017	0.5	10	1	70
2026-02-16T21:29	2.3	1017	0.5	360	1	70
2026-02-16T21:30	2.3	1017	0.5	360	1	70
2026-02-16T21:31	2.3	1017	0.4	360	1	70
2026-02-16T21:32	2.4	1017	0.5	10	1	70
2026-02-16T21:33	2.4	1017	0.5	10	1	70
2026-02-16T21:34	2.4	1017	0.3	10	1	70
2026-02-16T21:35	2.5	1017	0.4	10	1	70
2026-02-16T21:36	2.5	1017	0.4	10	1	70
2026-02-16T21:37	2.5	1017	0.3	10	1	70
2026-02-16T21:38	2.4	1017	0.5	10	1	70
2026-02-16T21:39	2.3	1017	0.4	10	1	70
2026-02-16T21:40	2.4	1017	0.5	10	1	70
2026-02-16T21:41	2.4	1017	0.5	10	1	70
2026-02-16T21:42	2.4	1018	0.3	20	1	70
2026-02-16T21:43	2.5	1018	0.4	20	1	70
2026-02-16T21:44	2.5	1018	0.3	30	1	70
2026-02-16T21:45	2.6	1018	0.3	30	1	70
2026-02-16T21:46	2.6	1018	0.2	40	1	70
2026-02-16T21:47	2.6	1018	0.2	30	1	70
2026-02-16T21:48	2.6	1018	0.0	30	1	70
2026-02-16T21:49	2.6	1018	0.0	30	1	70
2026-02-16T21:50	2.6	1018	0.0	30	1	70
2026-02-16T21:51	2.5	1018	0.1	20	1	70
2026-02-16T21:52	2.5	1018	0.1	20	1	70
2026-02-16T21:53	2.5	1018	0.3	20	1	70
2026-02-16T21:54	2.5	1018	0.1	10	1	70
2026-02-16T21:55	2.5	1018	0.3	10	1	70
2026-02-16T21:56	2.5	1018	0.1	10	1	70
2026-02-16T21:57	2.6	1018	0.2	10	1	70
2026-02-16T21:58	2.5	1018	0.1	20	1	70
2026-02-16T21:59	2.5	1018	0.3	20	1	70
2026-02-16T22:00	2.5	1018	0.3	10	1	70
2026-02-16T22:01	2.5	1018	0.3	10	1	70
2026-02-16T22:02	2.4	1018	0.3	10	1	70
2026-02-16T22:03	2.5	1018	0.4	10	1	70
2026-02-16T22:04	2.5	1018	0.4	10	1	70
2026-02-16T22:05	2.4	1018	0.3	10	1	70
2026-02-16T22:06	2.5	1018	0.3	10	1	70
2026-02-16T22:07	2.5	1018	0.3	10	1	70
2026-02-16T22:08	2.5	1018	0.4	10	1	70
2026-02-16T22:09	2.5	1018	0.3	360	1	70
2026-02-16T22:10	2.6	1018	0.2	10	1	70
2026-02-16T22:11	2.6	1018	0.3	10	1	70
2026-02-16T22:12	2.6	1018	0.2	10	1	70
2026-02-16T22:13	2.6	1018	0.0	10	1	70
2026-02-16T22:14	2.7	1018	0.3	360	1	70
2026-02-16T22:15	2.7	1018	0.3	360	1	70
2026-02-16T22:16	2.7	1018	0.3	10	1	70
2026-02-16T22:17	2.8	1018	0.2	10	1	70
2026-02-16T22:18	2.8	1018	0.1	10	1	70
2026-02-16T22:19	2.8	1018	-0.1	10	1	70
2026-02-16T22:20	2.8	1018	-0.1	10	1	70
2026-02-16T22:21	2.8	1018	-0.1	10	1	70
2026-02-16T22:22	2.8	1018	0.1	360	1	70
2026-02-16T22:23	2.7	1018	0.1	360	1	70
2026-02-16T22:24	2.7	1018	0.1	360	1	70
2026-02-16T22:25	2.7	1018	0.1	360	1	70
2026-02-16T22:26	2.7	1018	0.1	360	1	70
2026-02-16T22:27	2.7	1018	0.1	360	1	70
2026-02-16T22:28	2.8	1018	-0.1	350	1	70
2026-02-16T22:29	2.8	1018	-0.1	350	1	70
2026-02-16T22:30	2.8	1018	0.2	350	1	70
2026-02-16T22:31	2.8	1018	0.1	350	1	70
2026-02-16T22:32	2.9	1018	0.2	360	1	70
2026-02-16T22:33	2.8	1018	0.4	360	1	70
2026-02-16T22:34	2.8	1018	0.2	360	1	70
2026-02-16T22:35	2.8	1018	0.4	360	1	70
2026-02-16T22:36	2.8	1018	0.2	360	1	70
2026-02-16T22:37	2.8	1018	0.2	360	1	70
2026-02-16T22:38	2.9	1018	0.2	360	1	70
2026-02-16T22:39	2.8	1018	0.2	360	1	70
2026-02-16T22:40	2.8	1018	0.1	360	1	70
2026-02-16T22:41	2.8	1018	0.4	360	1	70
2026-02-16T22:42	2.8	1018	0.2	360	1	70
2026-02-16T22:43	2.9	1018	0.3	360	1	70
2026-02-16T22:44	2.9	1018	0.2	360	1	70
2026-02-16T22:45	2.9	1018	0.2	360	1	70
2026-02-16T22:46	3.0	1018	0.1	360	1	70
2026-02-16T22:47	2.9	1018	0.0	360	1	70
2026-02-16T22:48	2.9	1018	0.0	360	1	70
2026-02-16T22:49	3.0	1018	0.4	360	1	70
2026-02-16T22:50	2.9	1018	0.2	360	1	70
2026-02-16T22:51	3.0	1018	0.1	360	1	70
2026-02-16T22:52	3.0	1018	0.1	360	1	70
2026-02-16T22:53	3.0	1018	0.1	360	1	70
2026-02-16T22:54	3.0	1018	0.2	360	1	70
2026-02-16T22:55	3.1	1018	0.5	360	1	70
2026-02-16T22:56	3.1	1018	0.7	360	1	70
2026-02-16T22:57	3.0	1018	0.4	360	1	70
2026-02-16T22:58	3.0	1018	0.2	360	1	70
2026-02-16T22:59	3.1	1018	0.5	360	1	70
2026-02-16T23:00	3.2	1018	0.8	350	1	70
2026-02-16T23:01	3.3	1018	1.2	350	1	70
2026-02-16T23:02	3.2	1018	0.8	350	1	70
2026-02-16T23:03	3.2	1018	0.6	350	1	70
2026-02-16T23:04	3.3	1018	0.4	360	1	70
2026-02-16T23:05	3.4	1018	0.5	350	1	70
2026-02-16T23:06	3.5	1018	0.9	350	1	70
2026-02-16T23:07	3.4	1018	0.6	350	1	70
2026-02-16T23:08	3.4	1018	0.6	350	1	70
2026-02-16T23:09	3.4	1018	0.3	350	1	70
2026-02-16T23:10	3.5	1018	0.6	350	1	70
2026-02-16T23:11	3.5	1018	0.6	360	1	70
2026-02-16T23:12	3.6	1018	0.3	360	1	70
2026-02-16T23:13	3.7	1018	0.8	360	1	70
2026-02-16T23:14	3.6	1018	0.3	360	1	70
2026-02-16T23:15	3.7	1018	0.2	360	2	70
2026-02-16T23:16	3.7	1018	0.4	360	2	70
2026-02-16T23:17	3.7	1018	0.4	360	2	70
2026-02-16T23:18	3.7	1018	0.1	360	2	70
2026-02-16T23:19	3.8	1018	0.2	360	1	70
2026-02-16T23:20	3.8	1018	0.2	360	1	70
2026-02-16T23:21	3.7	1018	-0.1	360	1	70
2026-02-16T23:22	3.8	1018	0.0	350	1	70
2026-02-16T23:23	3.7	1019	-0.5	350	2	70
2026-02-16T23:24	3.8	1019	0.0	350	2	70
2026-02-16T23:25	3.8	1019	0.0	350	1	70
2026-02-16T23:26	3.7	1019	-0.3	360	1	70
2026-02-16T23:27	3.7	1019	-0.1	350	1	70
2026-02-16T23:28	3.7	1019	-0.7	350	1	70
2026-02-16T23:29	3.7	1018	-0.5	350	2	70
2026-02-16T23:30	3.7	1018	-0.5	350	2	70
2026-02-16T23:31	3.7	1018	-0.3	350	2	70
2026-02-16T23:32	3.6	1018	0.0	350	2	70
2026-02-16T23:33	3.6	1018	-0.6	360	2	70
2026-02-16T23:34	3.6	1018	-0.6	350	2	70
2026-02-16T23:35	3.7	1018	-0.7	350	2	70
2026-02-16T23:36	3.7	1018	-0.7	350	2	70
2026-02-16T23:37	3.7	1018	-0.5	350	2	70
2026-02-16T23:38	3.6	1018	0.1	350	2	70
2026-02-16T23:39	3.7	1018	-0.5	350	2	70
2026-02-16T23:40	3.7	1018	-0.5	350	2	70
2026-02-16T23:41	3.7	1018	-0.3	350	2	70
2026-02-16T23:42	3.8	1019	-0.2	350	2	70
2026-02-16T23:43	3.8	1019	-0.4	350	2	70
2026-02-16T23:44	3.9	1019	-0.1	360	1	70
2026-02-16T23:45	3.9	1019	0.4	360	1	70
2026-02-16T23:46	3.8	1019	0.5	360	1	70
2026-02-16T23:47	3.8	1019	-0.6	360	1	70
2026-02-16T23:48	3.9	1019	-0.9	350	1	70
2026-02-16T23:49	3.9	1019	-0.9	350	1	70
2026-02-16T23:50	3.9	1019	-0.7	350	1	70
2026-02-16T23:51	4.0	1019	-0.8	350	2	70
2026-02-16T23:52	4.0	1019	-0.6	350	2	70
2026-02-16T23:53	4.0	1019	-0.4	350	2	70
2026-02-16T23:54	3.9	1019	-0.9	350	2	70
2026-02-16T23:55	3.9	1019	-1.5	350	2	70
2026-02-16T23:56	4.0	1019	-1.2	350	2	70
2026-02-16T23:57	4.0	1019	-1.0	350	2	70
2026-02-16T23:58	4.1	1019	-0.7	350	2	70
2026-02-16T23:59	4.1	1019	-0.5	350	2	70
2026-02-17T00:00	4.0	1019	-1.0	350	2	70
2026-02-17T00:01	4.1	1018	-1.5	350	2	70
2026-02-17T00:02	4.1	1019	-1.3	350	2	70
2026-02-17T00:03	4.2	1019	-0.8	350	2	70
2026-02-17T00:04	4.2	1019	-0.8	350	2	70
2026-02-17T00:05	4.3	1019	-0.9	350	2	70
2026-02-17T00:06	4.4	1019	-0.4	350	2	70
2026-02-17T00:07	4.5	1019	0.1	360	2	70
2026-02-17T00:08	4.6	1019	0.0	360	2	70
2026-02-17T00:09	4.6	1019	-0.4	360	2	70
2026-02-17T00:10	4.6	1019	-0.2	360	2	70
2026-02-17T00:11	4.5	1019	-0.7	360	2	70
2026-02-17T00:12	4.4	1019	-1.4	350	2	70
2026-02-17T00:13	4.4	1019	-1.2	350	2	70
2026-02-17T00:14	4.3	1019	-1.5	350	2	70
2026-02-17T00:15	4.3	1019	-1.7	350	2	70
2026-02-17T00:16	4.3	1019	-1.7	350	2	70
2026-02-17T00:17	4.3	1019	-1.5	350	2	70
2026-02-17T00:18	4.3	1019	-1.5	350	2	70
2026-02-17T00:19	4.4	1019	-1.2	360	2	70
2026-02-17T00:20	4.5	1019	-1.1	360	2	70
2026-02-17T00:21	4.5	1019	-1.1	360	2	70
2026-02-17T00:22	4.4	1019	-1.8	360	2	70
2026-02-17T00:23	4.5	1019	-1.9	360	2	70
2026-02-17T00:24	4.5	1019	-1.9	10	2	70
2026-02-17T00:25	4.6	1019	-1.4	10	2	70
2026-02-17T00:26	4.5	1019	-1.9	10	2	70
2026-02-17T00:27	4.5	1019	-1.9	10	2	70
2026-02-17T00:28	4.5	1019	-2.1	10	2	70
2026-02-17T00:29	4.7	1019	-1.3	360	2	70
2026-02-17T00:30	4.7	1019	-1.3	360	2	70
2026-02-17T00:31	4.6	1019	-2.0	360	2	70
2026-02-17T00:32	4.8	1019	-1.2	360	2	70
2026-02-17T00:33	4.8	1019	-1.6	350	2	70
2026-02-17T00:34	4.7	1019	-2.2	350	2	70
2026-02-17T00:35	4.7	1019	-2.4	350	2	70
2026-02-17T00:36	4.8	1019	-2.3	350	2	70
2026-02-17T00:37	4.9	1019	-2.0	350	2	70
2026-02-17T00:38	5.1	1019	-1.4	350	2	70
2026-02-17T00:39	5.3	1019	-1.2	350	2	70
2026-02-17T00:40	5.2	1019	-1.5	350	2	70
2026-02-17T00:41	5.0	1019	-2.3	350	2	70
2026-02-17T00:42	5.0	1019	-2.1	350	2	70
2026-02-17T00:43	5.0	1019	-2.1	350	2	70
2026-02-17T00:44	5.3	1019	-1.2	350	2	70
2026-02-17T00:45	5.4	1019	-1.5	350	2	70
2026-02-17T00:46	5.3	1019	-2.1	350	2	70
2026-02-17T00:47	5.5	1019	-1.9	350	2	70
2026-02-17T00:48	5.7	1019	-1.7	350	2	70
2026-02-17T00:49	5.8	1019	-1.1	350	2	70
2026-02-17T00:50	5.6	1019	-1.5	350	2	70
2026-02-17T00:51	5.2	1019	-2.6	350	2	70
2026-02-17T00:52	5.2	1019	-2.6	340	2	70
2026-02-17T00:53	5.4	1019	-2.2	340	2	70
2026-02-17T00:54	5.4	1018	-2.0	330	2	70
2026-02-17T00:55	5.3	1019	-2.1	330	2	70
2026-02-17T00:56	5.2	1019	-2.1	340	2	70
2026-02-17T00:57	5.2	1019	-1.9	340	2	70
2026-02-17T00:58	5.0	1018	-2.3	340	2	70
2026-02-17T00:59	4.9	1018	-2.7	340	2	70
2026-02-17T01:00	5.1	1018	-2.2	340	2	70
2026-02-17T01:01	5.2	1018	-1.9	340	2	70
2026-02-17T01:02	5.3	1018	-1.8	340	2	70
2026-02-17T01:03	5.1	1018	-2.5	350	2	70
2026-02-17T01:04	5.1	1018	-2.5	350	2	70
2026-02-17T01:05	5.1	1018	-2.5	350	2	70
2026-02-17T01:06	5.2	1018	-2.1	350	2	70
2026-02-17T01:07	5.3	1018	-1.8	350	2	70
2026-02-17T01:08	5.3	1018	-1.8	350	1	70
2026-02-17T01:09	5.3	1018	-1.8	350	1	70
2026-02-17T01:10	5.2	1018	-1.9	350	2	70
2026-02-17T01:11	5.0	1018	-2.3	350	2	70
2026-02-17T01:12	5.1	1018	-2.2	350	2	70
2026-02-17T01:13	5.2	1018	-2.1	340	2	70
2026-02-17T01:14	5.2	1018	-2.1	340	2	70
2026-02-17T01:15	5.4	1018	-1.5	340	2	70
2026-02-17T01:16	5.7	1018	-1.0	350	2	70
2026-02-17T01:17	5.4	1018	-2.7	340	2	70
2026-02-17T01:18	5.5	1018	-2.6	340	2	70
2026-02-17T01:19	5.4	1018	-2.7	340	2	70
2026-02-17T01:20	5.5	1018	-2.6	340	2	70
2026-02-17T01:21	5.5	1018	-2.6	350	2	70
2026-02-17T01:22	5.5	1018	-2.8	360	2	70
2026-02-17T01:23	5.6	1018	-2.7	20	2	70
2026-02-17T01:24	5.8	1018	-2.3	20	2	70
2026-02-17T01:25	6.2	1018	-1.7	30	2	70
2026-02-17T01:26	6.3	1018	-1.8	30	2	70
2026-02-17T01:27	6.3	1018	-1.8	40	2	70
2026-02-17T01:28	6.0	1018	-2.3	50	2	70
2026-02-17T01:29	6.2	1018	-1.7	50	2	70
2026-02-17T01:30	6.0	1018	-2.3	50	2	70
2026-02-17T01:31	5.9	1018	-2.4	40	2	70
2026-02-17T01:32	5.9	1018	-2.2	30	2	70
2026-02-17T01:33	6.1	1018	-2.0	10	2	70
2026-02-17T01:34	6.2	1018	-2.2	360	2	70
2026-02-17T01:35	6.0	1018	-2.3	360	2	70
2026-02-17T01:36	5.8	1018	-2.5	350	2	70
2026-02-17T01:37	5.9	1018	-2.2	340	2	70
2026-02-17T01:38	6.2	1018	-2.2	340	2	70
2026-02-17T01:39	6.2	1018	-2.7	340	2	70
2026-02-17T01:40	6.4	1018	-2.5	340	2	70
2026-02-17T01:41	6.1	1018	-3.3	340	2	70
2026-02-17T01:42	6.2	1018	-2.9	340	2	70
2026-02-17T01:43	5.9	1018	-3.4	350	2	70
2026-02-17T01:44	5.9	1018	-3.2	360	2	70
2026-02-17T01:45	6.2	1018	-2.7	20	2	70
2026-02-17T01:46	6.1	1018	-3.3	20	2	70
2026-02-17T01:47	5.9	1018	-3.7	20	2	70
2026-02-17T01:48	6.3	1018	-2.8	20	2	70
2026-02-17T01:49	5.9	1018	-3.7	20	2	70
2026-02-17T01:50	6.1	1018	-3.3	20	2	70
2026-02-17T01:51	6.1	1018	-3.3	20	2	70
2026-02-17T01:52	6.0	1018	-3.9	10	2	70
2026-02-17T01:53	6.4	1018	-3.0	360	2	70
2026-02-17T01:54	6.3	1018	-3.1	360	2	70
2026-02-17T01:55	6.3	1018	-3.1	360	2	70
2026-02-17T01:56	5.9	1018	-4.0	360	1	70
2026-02-17T01:57	6.1	1018	-3.3	360	1	70
2026-02-17T01:58	6.2	1018	-2.9	360	1	70
2026-02-17T01:59	6.2	1018	-2.7	360	1	70
2026-02-17T02:00	6.2	1018	-2.7	360	1	70
2026-02-17T02:01	6.2	1018	-2.7	10	1	70
2026-02-17T02:02	6.0	1018	-3.4	20	1	70
2026-02-17T02:03	6.1	1018	-3.3	30	1	70
2026-02-17T02:04	6.1	1018	-3.8	20	1	70
2026-02-17T02:05	6.0	1018	-3.9	20	1	70
2026-02-17T02:06	6.0	1018	-3.6	40	1	70
2026-02-17T02:07	6.1	1018	-3.5	50	2	70
2026-02-17T02:08	6.1	1018	-3.5	60	2	70
2026-02-17T02:09	6.1	1018	-3.8	60	2	70
2026-02-17T02:10	5.9	1018	-4.0	60	2	70
2026-02-17T02:11	6.1	1018	-3.3	50	2	70
2026-02-17T02:12	6.6	1018	-2.5	50	2	70
2026-02-17T02:13	6.5	1018	-2.9	50	1	70
2026-02-17T02:14	6.9	1018	-2.0	60	1	70
2026-02-17T02:15	6.7	1018	-2.7	60	1	70
2026-02-17T02:16	6.7	1018	-3.0	50	1	70
2026-02-17T02:17	6.5	1018	-3.4	50	1	70
2026-02-17T02:18	6.3	1018	-3.6	60	1	70
2026-02-17T02:19	6.3	1017	-3.3	60	1	70
2026-02-17T02:20	6.5	1017	-2.9	70	1	70
2026-02-17T02:21	6.1	1017	-3.8	70	1	70
2026-02-17T02:22	6.1	1017	-3.5	70	1	70
2026-02-17T02:23	6.2	1017	-3.4	80	1	70
2026-02-17T02:24	6.2	1017	-3.2	90	1	70
2026-02-17T02:25	6.3	1017	-3.1	100	1	70
2026-02-17T02:26	6.3	1017	-3.3	120	1	70
2026-02-17T02:27	6.4	1017	-3.2	130	1	70
2026-02-17T02:28	6.3	1017	-3.3	140	1	70
2026-02-17T02:29	6.4	1017	-3.2	220	1	70
2026-02-17T02:30	6.4	1017	-3.2	10	1	70
2026-02-17T02:31	6.6	1017	-2.5	100	1	70
2026-02-17T02:32	6.4	1017	-3.2	90	1	70
2026-02-17T02:33	6.1	1017	-3.8	50	1	70
2026-02-17T02:34	6.3	1017	-3.3	20	1	70
2026-02-17T02:35	6.3	1017	-3.3	10	1	70
2026-02-17T02:36	6.4	1017	-3.2	10	1	70
2026-02-17T02:37	6.5	1017	-2.9	10	1	70
2026-02-17T02:38	6.5	1017	-2.9	10	1	70
2026-02-17T02:39	6.7	1017	-2.7	10	2	70
2026-02-17T02:40	6.8	1017	-2.6	360	2	70
2026-02-17T02:41	6.7	1017	-3.0	360	2	70
2026-02-17T02:42	6.4	1017	-3.5	350	2	70
2026-02-17T02:43	6.1	1017	-3.8	360	2	70
2026-02-17T02:44	6.2	1017	-3.4	350	2	70
2026-02-17T02:45	6.6	1017	-2.8	350	2	70
2026-02-17T02:46	6.8	1017	-2.6	360	2	70
2026-02-17T02:47	6.6	1017	-3.1	360	1	70
2026-02-17T02:48	6.9	1017	-2.5	360	1	70
2026-02-17T02:49	6.7	1017	-3.5	10	2	70
2026-02-17T02:50	6.7	1017	-3.2	10	2	70
2026-02-17T02:51	6.9	1017	-3.1	20	2	70
2026-02-17T02:52	6.7	1017	-3.8	30	2	70
2026-02-17T02:53	6.7	1017	-3.8	40	2	70
2026-02-17T02:54	6.6	1017	-3.9	50	2	70
2026-02-17T02:55	6.8	1017	-3.4	60	2	70
2026-02-17T02:56	6.7	1017	-3.8	80	2	70
2026-02-17T02:57	6.7	1017	-3.8	90	2	70
2026-02-17T02:58	7.0	1017	-3.0	90	2	70
2026-02-17T02:59	6.8	1017	-3.7	90	2	70
2026-02-17T03:00	6.6	1017	-3.9	100	1	70
2026-02-17T03:01	6.5	1017	-4.0	100	1	70
2026-02-17T03:02	6.6	1017	-3.6	90	1	70
2026-02-17T03:03	7.0	1016	-3.0	90	1	70
2026-02-17T03:04	6.8	1016	-3.4	90	1	70
2026-02-17T03:05	6.7	1016	-3.8	90	1	70
2026-02-17T03:06	6.7	1016	-3.8	90	1	70
2026-02-17T03:07	7.1	1016	-3.2	90	1	70
2026-02-17T03:08	7.1	1016	-3.2	90	1	70
2026-02-17T03:09	7.1	1016	-3.4	100	2	70
2026-02-17T03:10	7.1	1016	-3.4	110	2	70
2026-02-17T03:11	7.4	1016	-2.9	110	2	70
2026-02-17T03:12	7.4	1016	-2.9	110	2	70
2026-02-17T03:13	7.1	1016	-3.7	110	2	70
2026-02-17T03:14	7.3	1016	-3.2	110	2	70
2026-02-17T03:15	7.0	1016	-3.8	110	2	70
2026-02-17T03:16	6.7	1016	-4.4	100	2	70
2026-02-17T03:17	7.0	1016	-3.5	100	2	70
2026-02-17T03:18	7.2	1016	-3.3	90	2	70
2026-02-17T03:19	7.0	1016	-3.8	90	2	70
2026-02-17T03:20	7.1	1016	-3.4	90	2	70
2026-02-17T03:21	7.1	1016	-3.4	80	2	70
2026-02-17T03:22	7.0	1016	-3.8	80	2	70
2026-02-17T03:23	7.1	1016	-3.4	80	2	70
2026-02-17T03:24	7.2	1016	-3.3	80	2	70
2026-02-17T03:25	7.5	1016	-2.8	80	2	70
2026-02-17T03:26	7.2	1016	-3.3	70	2	70
2026-02-17T03:27	7.2	1016	-3.3	50	2	70
2026-02-17T03:28	7.3	1016	-3.2	40	2	70
2026-02-17T03:29	7.4	1016	-3.2	30	2	70
2026-02-17T03:30	6.8	1016	-4.3	20	2	70
2026-02-17T03:31	7.0	1016	-3.5	20	2	70
2026-02-17T03:32	7.3	1016	-3.0	10	2	70
2026-02-17T03:33	7.6	1016	-2.4	10	2	70
2026-02-17T03:34	7.2	1016	-3.3	360	2	70
2026-02-17T03:35	7.2	1016	-3.3	360	2	70
2026-02-17T03:36	7.6	1016	-2.4	10	2	70
2026-02-17T03:37	7.4	1016	-3.2	10	2	70
2026-02-17T03:38	7.0	1016	-3.8	10	2	70
2026-02-17T03:39	6.6	1016	-4.2	20	2	70
2026-02-17T03:40	6.8	1016	-3.4	10	2	70
2026-02-17T03:41	6.8	1016	-3.4	360	2	70
2026-02-17T03:42	6.9	1016	-3.3	350	2	70
2026-02-17T03:43	7.1	1016	-2.9	340	1	70
2026-02-17T03:44	7.5	1016	-2.2	330	1	70
2026-02-17T03:45	7.5	1016	-2.5	330	1	70
2026-02-17T03:46	7.2	1016	-3.1	220	1	70
2026-02-17T03:47	7.4	1016	-2.3	140	1	70
2026-02-17T03:48	7.2	1016	-2.8	100	1	70
2026-02-17T03:49	6.9	1016	-3.3	110	1	70
2026-02-17T03:50	7.0	1016	-3.0	120	1	70
2026-02-17T03:51	7.1	1016	-2.6	100	1	70
2026-02-17T03:52	7.3	1016	-2.2	100	1	70
2026-02-17T03:53	7.1	1016	-2.9	100	1	70
2026-02-17T03:54	7.2	1016	-2.8	100	1	70
2026-02-17T03:55	6.8	1016	-3.4	90	1	70
2026-02-17T03:56	6.9	1016	-3.1	80	1	70
2026-02-17T03:57	7.3	1016	-2.2	80	1	70
2026-02-17T03:58	7.1	1016	-2.9	80	1	70
2026-02-17T03:59	7.2	1016	-2.8	90	1	70
2026-02-17T04:00	7.2	1016	-2.8	80	1	70
2026-02-17T04:01	7.2	1016	-2.8	80	1	70
2026-02-17T04:02	7.0	1016	-3.2	70	2	70
2026-02-17T04:03	7.0	1016	-3.2	70	2	70
2026-02-17T04:04	6.9	1016	-3.3	60	2	70
2026-02-17T04:05	6.8	1016	-3.4	60	2	70
2026-02-17T04:06	6.8	1016	-3.4	60	2	70
2026-02-17T04:07	6.9	1016	-3.1	60	2	70
2026-02-17T04:08	7.5	1016	-2.2	50	2	70
2026-02-17T04:09	7.4	1016	-2.6	50	2	70
2026-02-17T04:10	7.4	1016	-2.6	60	2	70
2026-02-17T04:11	7.6	1016	-2.4	60	2	70
2026-02-17T04:12	7.5	1016	-2.8	70	2	70
2026-02-17T04:13	7.9	1016	-1.9	80	2	70
2026-02-17T04:14	7.9	1016	-2.1	80	2	70
2026-02-17T04:15	7.5	1016	-3.1	90	2	70
2026-02-17T04:16	7.1	1016	-3.4	90	2	70
2026-02-17T04:17	7.1	1016	-3.2	90	2	70
2026-02-17T04:18	7.2	1016	-3.1	100	2	70
2026-02-17T04:19	7.4	1016	-2.6	90	2	70
2026-02-17T04:20	7.6	1016	-2.4	90	2	70
2026-02-17T04:21	7.8	1016	-2.2	80	2	70
2026-02-17T04:22	7.5	1016	-3.1	80	2	70
2026-02-17T04:23	7.3	1016	-3.2	70	2	70
2026-02-17T04:24	7.5	1016	-2.8	70	2	70
2026-02-17T04:25	7.2	1016	-3.3	80	2	70
2026-02-17T04:26	7.2	1016	-3.1	80	2	70
2026-02-17T04:27	7.0	1016	-3.5	80	2	70
2026-02-17T04:28	6.8	1016	-3.7	70	2	70
2026-02-17T04:29	7.0	1016	-3.2	70	2	70
2026-02-17T04:30	6.9	1016	-3.3	70	2	70
2026-02-17T04:31	7.1	1016	-3.2	70	2	70
2026-02-17T04:32	7.0	1016	-3.2	70	2	70
2026-02-17T04:33	7.0	1016	-3.2	70	2	70
2026-02-17T04:34	7.0	1016	-3.2	80	2	70
2026-02-17T04:35	7.2	1016	-2.8	80	2	70
2026-02-17T04:36	7.3	1016	-2.7	90	2	70
2026-02-17T04:37	7.0	1016	-3.5	100	2	70
2026-02-17T04:38	7.0	1016	-3.2	100	2	70
2026-02-17T04:39	7.1	1016	-3.2	110	2	70
2026-02-17T04:40	7.1	1016	-3.2	110	2	70
2026-02-17T04:41	7.3	1016	-2.7	110	2	70
2026-02-17T04:42	7.4	1016	-2.6	110	2	70
2026-02-17T04:43	7.3	1016	-2.7	110	2	70
2026-02-17T04:44	7.2	1016	-2.8	110	1	70
2026-02-17T04:45	6.9	1016	-3.3	100	1	70
2026-02-17T04:46	7.0	1016	-3.0	100	1	70
2026-02-17T04:47	7.0	1016	-3.0	80	1	70
2026-02-17T04:48	7.0	1016	-3.0	70	1	70
2026-02-17T04:49	7.0	1016	-3.0	60	2	70
2026-02-17T04:50	6.9	1016	-3.3	50	2	70
2026-02-17T04:51	6.9	1016	-3.1	50	2	70
2026-02-17T04:52	7.0	1016	-3.0	30	2	70
2026-02-17T04:53	7.0	1016	-3.0	30	1	70
2026-02-17T04:54	7.1	1015	-2.9	20	2	70
2026-02-17T04:55	7.2	1016	-2.8	30	2	70
2026-02-17T04:56	7.3	1015	-2.7	30	2	70
2026-02-17T04:57	7.5	1016	-2.2	40	2	70
2026-02-17T04:58	7.3	1016	-2.7	50	2	70
2026-02-17T04:59	7.5	1016	-2.2	60	2	70
2026-02-17T05:00	7.6	1016	-2.4	70	2	70
2026-02-17T05:01	7.9	1016	-1.9	70	2	70
2026-02-17T05:02	7.5	1016	-2.8	70	2	70
2026-02-17T05:03	7.3	1016	-2.7	80	2	70
2026-02-17T05:04	7.1	1016	-3.2	70	2	70
2026-02-17T05:05	7.1	1016	-2.9	60	2	70
2026-02-17T05:06	7.1	1016	-2.9	60	2	70
2026-02-17T05:07	7.0	1016	-3.0	70	1	70
2026-02-17T05:08	7.1	1016	-2.9	70	1	70
2026-02-17T05:09	7.0	1016	-3.0	70	1	70
2026-02-17T05:10	7.1	1016	-2.6	70	1	70
2026-02-17T05:11	7.2	1016	-2.5	80	1	70
2026-02-17T05:12	7.4	1016	-2.3	90	1	70
2026-02-17T05:13	7.5	1016	-2.5	80	1	70
2026-02-17T05:14	7.7	1016	-2.3	90	1	70
2026-02-17T05:15	7.4	1016	-2.9	90	1	70
2026-02-17T05:16	7.3	1016	-3.0	100	1	70
2026-02-17T05:17	7.3	1016	-3.0	90	1	70
2026-02-17T05:18	7.3	1016	-3.0	90	1	70
2026-02-17T05:19	7.3	1016	-3.2	90	1	70
2026-02-17T05:20	7.1	1016	-3.4	90	1	70
2026-02-17T05:21	7.3	1016	-3.0	70	1	70
2026-02-17T05:22	7.2	1016	-3.1	70	1	70
2026-02-17T05:23	7.2	1016	-3.1	110	1	70
2026-02-17T05:24	7.5	1016	-2.8	160	1	70
2026-02-17T05:25	7.3	1016	-3.0	180	1	70
2026-02-17T05:26	7.1	1016	-3.4	180	1	70
2026-02-17T05:27	7.2	1016	-3.1	160	2	70
2026-02-17T05:28	6.9	1016	-3.6	320	2	70
2026-02-17T05:29	6.9	1016	-3.6	340	2	70
2026-02-17T05:30	6.9	1016	-3.3	340	2	70
2026-02-17T05:31	7.1	1016	-3.2	320	2	70
2026-02-17T05:32	7.2	1016	-3.1	320	2	70
2026-02-17T05:33	7.1	1016	-3.4	330	2	70
2026-02-17T05:34	7.4	1016	-2.9	340	1	70
2026-02-17T05:35	7.3	1016	-3.2	340	1	70
2026-02-17T05:36	7.3	1016	-3.2	340	1	70
2026-02-17T05:37	7.4	1016	-2.9	340	1	70
2026-02-17T05:38	7.4	1016	-2.9	340	1	70
2026-02-17T05:39	7.4	1016	-2.9	340	1	70
2026-02-17T05:40	7.6	1016	-2.7	350	1	70
2026-02-17T05:41	7.5	1016	-3.1	10	1	70
2026-02-17T05:42	7.7	1016	-2.9	40	1	70
2026-02-17T05:43	7.6	1016	-3.0	70	1	70
2026-02-17T05:44	7.7	1016	-2.9	90	1	70
2026-02-17T05:45	7.3	1016	-3.2	100	1	70
2026-02-17T05:46	7.3	1016	-3.2	100	1	70
2026-02-17T05:47	7.4	1016	-2.9	110	1	70
2026-02-17T05:48	7.6	1016	-2.7	110	1	70
2026-02-17T05:49	7.7	1016	-2.6	110	1	70
2026-02-17T05:50	7.7	1016	-2.6	100	1	70
2026-02-17T05:51	7.3	1016	-3.2	100	1	70
2026-02-17T05:52	7.2	1016	-3.3	100	1	70
2026-02-17T05:53	7.3	1016	-3.2	100	1	70
2026-02-17T05:54	7.5	1016	-2.8	100	1	70
2026-02-17T05:55	7.3	1016	-3.0	100	1	70
2026-02-17T05:56	7.4	1016	-2.9	110	1	70
2026-02-17T05:57	7.3	1016	-3.0	110	2	70
2026-02-17T05:58	7.2	1016	-3.1	110	2	70
2026-02-17T05:59	7.1	1016	-3.2	120	2	70
2026-02-17T06:00	7.2	1016	-3.1	130	2	70
2026-02-17T06:01	7.3	1016	-3.0	130	2	70
2026-02-17T06:02	7.3	1016	-3.0	130	2	70
2026-02-17T06:03	7.2	1015	-3.1	130	2	70
2026-02-17T06:04	7.2	1015	-3.1	130	2	70
2026-02-17T06:05	7.4	1015	-2.9	120	2	70
2026-02-17T06:06	7.6	1015	-2.4	110	2	70
2026-02-17T06:07	7.7	1015	-2.3	100	2	70
2026-02-17T06:08	7.9	1015	-2.1	90	2	70
2026-02-17T06:09	8.1	1015	-2.0	90	2	70
2026-02-17T06:10	7.9	1015	-2.7	80	2	70
2026-02-17T06:11	7.7	1015	-2.6	90	2	70
2026-02-17T06:12	7.8	1015	-2.5	90	2	70
2026-02-17T06:13	7.5	1015	-2.8	90	2	70
2026-02-17T06:14	7.4	1015	-2.6	90	2	70
2026-02-17T06:15	7.3	1015	-2.7	90	2	70
2026-02-17T06:16	7.3	1015	-2.4	100	2	70
2026-02-17T06:17	7.2	1015	-2.8	100	2	70
2026-02-17T06:18	7.1	1015	-3.2	100	2	70
2026-02-17T06:19	7.1	1015	-2.9	110	2	70
2026-02-17T06:20	7.1	1015	-2.9	100	2	70
2026-02-17T06:21	7.1	1015	-2.6	100	2	70
2026-02-17T06:22	7.2	1015	-2.5	100	2	70
2026-02-17T06:23	7.2	1015	-2.5	90	2	70
2026-02-17T06:24	7.2	1015	-2.5	80	2	70
2026-02-17T06:25	7.3	1015	-2.4	80	2	70
2026-02-17T06:26	7.3	1015	-2.4	80	2	70
2026-02-17T06:27	7.3	1015	-2.4	70	2	70
2026-02-17T06:28	7.4	1015	-2.3	70	2	70
2026-02-17T06:29	7.3	1015	-2.4	70	2	70
2026-02-17T06:30	7.1	1015	-2.6	70	2	70
2026-02-17T06:31	7.2	1015	-2.5	70	2	70
2026-02-17T06:32	7.2	1015	-2.5	70	2	70
2026-02-17T06:33	7.2	1015	-2.5	80	2	70
2026-02-17T06:34	7.1	1015	-2.6	80	2	70
2026-02-17T06:35	7.1	1015	-2.6	80	2	70
2026-02-17T06:36	7.2	1015	-2.5	90	2	70
2026-02-17T06:37	7.1	1015	-2.6	90	2	70
2026-02-17T06:38	7.2	1015	-2.2	100	2	70
2026-02-17T06:39	7.3	1015	-2.2	100	2	70
2026-02-17T06:40	7.3	1015	-2.4	90	1	70
2026-02-17T06:41	7.3	1015	-2.4	100	1	70
2026-02-17T06:42	7.3	1015	-2.2	100	1	70
2026-02-17T06:43	7.3	1015	-2.4	110	1	70
2026-02-17T06:44	7.3	1016	-2.4	110	1	70
2026-02-17T06:45	7.2	1015	-2.5	100	1	70
2026-02-17T06:46	7.1	1015	-2.9	90	1	70
2026-02-17T06:47	7.2	1015	-2.5	100	1	70
2026-02-17T06:48	7.1	1015	-2.6	100	1	70
2026-02-17T06:49	7.0	1016	-3.0	110	1	70
2026-02-17T06:50	7.1	1016	-2.6	110	1	70
2026-02-17T06:51	7.1	1016	-2.6	100	1	70
2026-02-17T06:52	7.1	1015	-2.6	90	1	70
2026-02-17T06:53	7.1	1015	-2.6	90	1	70
2026-02-17T06:54	7.1	1015	-2.9	90	1	70
2026-02-17T06:55	7.0	1015	-3.0	90	1	70
2026-02-17T06:56	6.9	1016	-3.3	100	1	70
2026-02-17T06:57	6.9	1016	-3.1	90	1	70
2026-02-17T06:58	7.0	1016	-3.0	90	2	70
2026-02-17T06:59	6.9	1016	-3.1	80	1	70
2026-02-17T07:00	6.9	1016	-3.1	80	2	70
2026-02-17T07:01	6.9	1016	-3.1	90	1	70
2026-02-17T07:02	7.0	1016	-2.7	90	2	70
2026-02-17T07:03	7.0	1016	-2.7	90	2	70
2026-02-17T07:04	7.0	1016	-2.7	100	2	70
2026-02-17T07:05	7.0	1016	-2.7	100	2	70
2026-02-17T07:06	7.0	1016	-2.7	90	2	70
2026-02-17T07:07	6.9	1016	-3.1	90	1	70
2026-02-17T07:08	6.9	1016	-2.8	100	2	70
2026-02-17T07:09	6.9	1016	-2.8	90	2	70
2026-02-17T07:10	6.9	1016	-2.8	90	2	70
2026-02-17T07:11	6.9	1016	-2.5	90	2	70
2026-02-17T07:12	6.9	1016	-2.5	80	2	70
2026-02-17T07:13	6.9	1016	-2.5	90	2	70
2026-02-17T07:14	7.0	1016	-2.4	80	1	70
2026-02-17T07:15	7.0	1016	-2.4	80	1	70
2026-02-17T07:16	6.9	1016	-2.5	80	1	70
2026-02-17T07:17	6.9	1016	-2.5	90	1	70
2026-02-17T07:18	6.9	1016	-2.3	90	1	70
2026-02-17T07:19	6.9	1016	-2.3	100	1	70
2026-02-17T07:20	6.8	1016	-2.4	100	2	70
2026-02-17T07:21	6.8	1016	-2.1	110	2	70
2026-02-17T07:22	6.8	1016	-2.1	120	2	70
2026-02-17T07:23	6.8	1016	-2.1	120	2	70
2026-02-17T07:24	6.8	1016	-1.8	120	2	70
2026-02-17T07:25	6.8	1016	-1.8	130	2	70
2026-02-17T07:26	6.8	1016	-1.8	130	2	70
2026-02-17T07:27	6.8	1016	-1.8	130	2	70
2026-02-17T07:28	6.8	1016	-1.8	130	2	70
2026-02-17T07:29	6.8	1016	-1.8	120	2	70
2026-02-17T07:30	6.8	1016	-1.8	120	2	70
2026-02-17T07:31	6.8	1016	-1.8	120	2	70
2026-02-17T07:32	6.8	1016	-1.8	110	2	70
2026-02-17T07:33	6.8	1016	-1.8	110	2	70
2026-02-17T07:34	6.8	1016	-1.8	110	2	70
2026-02-17T07:35	6.8	1016	-1.8	110	2	70
2026-02-17T07:36	6.8	1016	-1.6	100	2	70
2026-02-17T07:37	6.8	1016	-1.6	110	2	70
2026-02-17T07:38	6.8	1016	-1.6	110	2	70
2026-02-17T07:39	6.8	1016	-1.6	110	2	70
2026-02-17T07:40	6.7	1016	-1.7	110	2	70
2026-02-17T07:41	6.7	1016	-1.7	120	1	70
2026-02-17T07:42	6.7	1016	-1.7	120	1	70
2026-02-17T07:43	6.7	1016	-1.7	120	1	70
2026-02-17T07:44	6.7	1016	-1.7	120	1	70
2026-02-17T07:45	6.7	1016	-1.7	120	1	70
2026-02-17T07:46	6.8	1016	-1.8	120	1	70
2026-02-17T07:47	6.7	1016	-1.9	120	1	70
2026-02-17T07:48	6.7	1016	-1.9	110	1	70
2026-02-17T07:49	6.7	1016	-1.9	110	2	70
2026-02-17T07:50	6.7	1016	-2.2	100	2	70
2026-02-17T07:51	6.7	1016	-2.2	90	2	70
2026-02-17T07:52	6.7	1016	-2.2	90	2	70
2026-02-17T07:53	6.7	1016	-2.2	90	2	70
2026-02-17T07:54	6.7	1016	-1.9	80	2	70
2026-02-17T07:55	6.7	1016	-1.9	80	2	70
2026-02-17T07:56	6.7	1016	-1.9	70	2	70
2026-02-17T07:57	6.6	1016	-2.0	70	2	70
2026-02-17T07:58	6.7	1016	-1.9	70	2	70
2026-02-17T07:59	6.6	1016	-2.0	70	2	70
2026-02-17T08:00	6.6	1016	-2.0	80	2	70
2026-02-17T08:01	6.6	1016	-2.0	70	2	70
2026-02-17T08:02	6.7	1016	-2.2	70	2	70
2026-02-17T08:03	6.7	1016	-2.2	70	2	70
2026-02-17T08:04	6.7	1016	-2.2	70	2	70
2026-02-17T08:05	6.7	1016	-2.2	70	2	70
2026-02-17T08:06	6.7	1016	-2.2	70	2	70
2026-02-17T08:07	6.6	1016	-2.0	80	2	70
2026-02-17T08:08	6.6	1016	-2.0	80	2	70
2026-02-17T08:09	6.6	1016	-2.3	80	2	70
2026-02-17T08:10	6.6	1016	-2.3	80	2	70
2026-02-17T08:11	6.6	1016	-2.3	80	2	70
2026-02-17T08:12	6.6	1016	-2.3	90	1	70
2026-02-17T08:13	6.6	1016	-2.0	90	1	70
2026-02-17T08:14	6.6	1016	-2.0	90	1	70
2026-02-17T08:15	6.6	1016	-2.0	90	1	70
2026-02-17T08:16	6.5	1016	-1.9	90	1	70
2026-02-17T08:17	6.6	1016	-2.0	90	1	70
2026-02-17T08:18	6.6	1016	-2.0	90	1	70
2026-02-17T08:19	6.6	1016	-2.0	80	2	70
2026-02-17T08:20	6.6	1016	-1.8	80	2	70
2026-02-17T08:21	6.6	1016	-1.8	70	2	70
2026-02-17T08:22	6.6	1016	-1.8	70	2	70
2026-02-17T08:23	6.5	1016	-1.6	70	2	70
2026-02-17T08:24	6.6	1016	-1.8	70	2	70
2026-02-17T08:25	6.6	1016	-1.5	80	2	70
2026-02-17T08:26	6.5	1016	-1.6	80	2	70
2026-02-17T08:27	6.5	1016	-1.6	80	2	70
2026-02-17T08:28	6.5	1016	-1.4	80	2	70
2026-02-17T08:29	6.6	1016	-1.3	90	1	70
2026-02-17T08:30	6.5	1016	-1.4	90	1	70
2026-02-17T08:31	6.3	1016	-1.3	90	1	70
2026-02-17T08:32	6.4	1016	-1.3	90	1	70
2026-02-17T08:33	6.5	1016	-1.2	90	1	70
2026-02-17T08:34	6.5	1016	-1.2	100	1	70
2026-02-17T08:35	6.5	1016	-1.2	90	1	70
2026-02-17T08:36	6.4	1016	-1.0	90	1	70
2026-02-17T08:37	6.4	1016	-1.0	100	1	70
2026-02-17T08:38	6.5	1016	-1.2	100	1	70
2026-02-17T08:39	6.5	1016	-1.2	100	1	70
2026-02-17T08:40	6.5	1016	-1.2	100	1	70
2026-02-17T08:41	6.5	1016	-1.2	100	1	70
2026-02-17T08:42	6.5	1016	-1.2	100	1	70
2026-02-17T08:43	6.5	1016	-1.2	90	1	70
2026-02-17T08:44	6.4	1016	-1.0	90	1	70
2026-02-17T08:45	6.5	1016	-0.9	80	1	70
2026-02-17T08:46	6.5	1016	-0.9	80	1	70
2026-02-17T08:47	6.4	1016	-1.0	80	1	70
2026-02-17T08:48	6.4	1016	-1.0	80	1	70
2026-02-17T08:49	6.5	1016	-0.9	80	1	70
2026-02-17T08:50	6.5	1016	-0.9	80	1	70
2026-02-17T08:51	6.4	1016	-0.8	80	1	70
2026-02-17T08:52	6.5	1016	-0.9	80	1	70
2026-02-17T08:53	6.5	1016	-0.9	80	1	70
2026-02-17T08:54	6.4	1016	-1.0	80	1	70
2026-02-17T08:55	6.4	1016	-1.0	80	1	70
2026-02-17T08:56	6.4	1016	-1.0	80	1	70
2026-02-17T08:57	6.4	1016	-1.0	80	1	70
2026-02-17T08:58	6.4	1016	-1.0	80	1	70
2026-02-17T08:59	6.3	1016	-0.9	80	1	70
2026-02-17T09:00	6.3	1016	-0.9	70	1	70
2026-02-17T09:01	6.4	1016	-0.8	70	1	70
2026-02-17T09:02	6.3	1016	-0.9	60	1	70
2026-02-17T09:03	6.3	1016	-0.7	60	1	70
2026-02-17T09:04	6.3	1016	-0.7	60	1	70
2026-02-17T09:05	6.4	1016	-0.8	60	1	70
2026-02-17T09:06	6.2	1016	-0.5	60	1	70
2026-02-17T09:07	6.3	1016	-0.7	60	1	70
2026-02-17T09:08	6.5	1016	-0.7	60	1	70
2026-02-17T09:09	6.4	1016	-0.8	60	1	70
2026-02-17T09:10	6.4	1016	-0.8	60	2	70
2026-02-17T09:11	6.3	1016	-0.7	70	2	70
2026-02-17T09:12	6.2	1016	-0.7	70	2	70
2026-02-17T09:13	6.3	1016	-0.9	70	2	70
2026-02-17T09:14	6.2	1016	-0.7	70	2	70
2026-02-17T09:15	6.0	1016	-0.7	70	2	70
2026-02-17T09:16	6.1	1016	-0.6	70	2	70
2026-02-17T09:17	5.9	1016	-0.4	60	2	70
2026-02-17T09:18	6.0	1016	-0.5	60	2	70
2026-02-17T09:19	6.1	1016	-0.4	60	2	70
2026-02-17T09:20	6.2	1016	-0.5	60	1	70
2026-02-17T09:21	6.2	1016	-0.5	60	1	70
2026-02-17T09:22	6.2	1016	-0.5	60	1	70
2026-02-17T09:23	5.9	1016	-0.4	60	1	70
2026-02-17T09:24	5.9	1016	-0.4	60	1	70
2026-02-17T09:25	6.0	1016	-0.5	60	1	70
2026-02-17T09:26	5.9	1016	-0.4	60	1	70
2026-02-17T09:27	5.8	1016	-0.2	60	1	70
2026-02-17T09:28	5.8	1016	-0.2	50	1	70
2026-02-17T09:29	6.0	1016	-0.3	50	1	70
2026-02-17T09:30	6.2	1016	-0.3	50	1	70
2026-02-17T09:31	6.2	1016	-0.5	40	1	70
2026-02-17T09:32	6.1	1016	-0.4	40	1	70
2026-02-17T09:33	6.2	1016	-0.5	30	1	70
2026-02-17T09:34	6.1	1016	-0.4	30	1	70
2026-02-17T09:35	6.0	1016	-0.5	30	1	70
2026-02-17T09:36	6.0	1016	-0.5	30	1	70
2026-02-17T09:37	6.0	1016	-0.3	30	1	70
2026-02-17T09:38	6.1	1016	-0.4	50	1	70
2026-02-17T09:39	6.1	1016	-0.4	50	1	70
2026-02-17T09:40	6.1	1016	-0.4	60	1	70
2026-02-17T09:41	6.1	1016	-0.4	60	1	70
2026-02-17T09:42	6.1	1016	-0.4	60	1	70
2026-02-17T09:43	6.0	1016	-0.3	60	1	70
2026-02-17T09:44	6.1	1016	-0.4	70	1	70
2026-02-17T09:45	6.2	1016	-0.3	70	1	70
2026-02-17T09:46	6.2	1016	-0.3	70	1	70
2026-02-17T09:47	6.1	1016	-0.4	70	1	70
2026-02-17T09:48	6.0	1016	-0.3	60	1	70
2026-02-17T09:49	6.0	1016	-0.3	50	1	70
2026-02-17T09:50	6.1	1016	-0.2	50	1	70
2026-02-17T09:51	6.2	1016	-0.3	50	1	70
2026-02-17T09:52	6.1	1016	-0.2	50	1	70
2026-02-17T09:53	5.9	1016	-0.1	40	1	70
2026-02-17T09:54	5.9	1016	-0.1	30	1	70
2026-02-17T09:55	6.0	1016	-0.3	30	1	70
2026-02-17T09:56	6.0	1016	-0.3	20	1	70
2026-02-17T09:57	6.0	1016	-0.3	10	1	70
2026-02-17T09:58	6.0	1016	-0.3	10	1	70
2026-02-17T09:59	5.9	1016	-0.1	10	1	70
2026-02-17T10:00	6.0	1016	-0.3	10	1	70
2026-02-17T10:01	6.0	1016	-0.3	360	1	70
2026-02-17T10:02	6.0	1016	-0.3	360	1	70
2026-02-17T10:03	6.0	1016	-0.3	360	1	70
2026-02-17T10:04	5.9	1016	-0.4	360	1	70
2026-02-17T10:05	5.8	1016	0.0	10	1	70
2026-02-17T10:06	5.8	1016	-0.2	10	1	70
2026-02-17T10:07	5.9	1016	-0.1	10	1	70
2026-02-17T10:08	5.9	1016	-0.1	10	1	70
2026-02-17T10:09	5.9	1016	-0.1	10	1	70
2026-02-17T10:10	5.9	1016	-0.1	10	1	70
2026-02-17T10:11	5.9	1016	-0.1	10	1	70
2026-02-17T10:12	5.9	1016	-0.1	10	1	70
2026-02-17T10:13	5.9	1016	-0.1	10	1	70
2026-02-17T10:14	5.9	1016	-0.1	10	1	70
2026-02-17T10:15	5.9	1016	-0.1	10	1	70
2026-02-17T10:16	5.9	1016	-0.1	10	1	70
2026-02-17T10:17	5.9	1016	-0.1	10	1	70
2026-02-17T10:18	5.9	1016	-0.1	10	1	70
2026-02-17T10:19	5.9	1016	-0.1	20	1	70
2026-02-17T10:20	5.9	1016	-0.1	20	1	70
2026-02-17T10:21	5.9	1016	0.1	10	1	70
2026-02-17T10:22	5.8	1016	0.0	10	1	70
2026-02-17T10:23	5.9	1016	0.1	10	1	70
2026-02-17T10:24	5.9	1016	0.1	10	1	70
2026-02-17T10:25	5.9	1016	0.1	20	1	70
2026-02-17T10:26	5.9	1016	-0.1	20	1	70
2026-02-17T10:27	5.9	1016	0.1	20	1	70
2026-02-17T10:28	5.9	1016	0.1	10	1	70
2026-02-17T10:29	5.9	1016	0.1	10	1	70
2026-02-17T10:30	5.9	1016	0.1	360	1	70
2026-02-17T10:31	5.9	1016	0.1	360	1	70
2026-02-17T10:32	5.8	1016	0.0	360	1	70
2026-02-17T10:33	5.8	1016	0.0	360	1	70
2026-02-17T10:34	5.9	1016	0.1	10	1	70
2026-02-17T10:35	5.8	1016	0.0	10	1	70
2026-02-17T10:36	5.8	1016	0.0	10	1	70
2026-02-17T10:37	5.8	1016	0.2	10	1	70
2026-02-17T10:38	5.9	1016	0.1	10	1	70
2026-02-17T10:39	5.8	1016	0.2	10	1	70
2026-02-17T10:40	5.8	1016	0.2	10	1	70
2026-02-17T10:41	5.6	1016	0.2	10	1	70
2026-02-17T10:42	5.6	1016	0.2	10	1	70
2026-02-17T10:43	5.8	1016	0.4	10	1	70
2026-02-17T10:44	5.7	1016	0.3	10	1	70
2026-02-17T10:45	5.7	1016	0.3	10	1	70
2026-02-17T10:46	5.7	1016	0.3	10	1	70
2026-02-17T10:47	5.8	1016	0.4	10	1	70
2026-02-17T10:48	5.8	1016	0.4	10	1	70
2026-02-17T10:49	5.8	1015	0.2	10	1	70
2026-02-17T10:50	5.8	1015	0.4	10	1	70
2026-02-17T10:51	5.9	1015	0.3	10	1	70
2026-02-17T10:52	5.9	1016	0.3	10	1	70
2026-02-17T10:53	5.9	1016	0.3	360	1	70
2026-02-17T10:54	5.8	1016	0.2	360	1	70
2026-02-17T10:55	5.7	1016	0.3	360	1	70
2026-02-17T10:56	5.7	1016	0.3	360	1	70
2026-02-17T10:57	5.8	1016	0.4	360	1	70
2026-02-17T10:58	5.8	1016	0.4	360	1	70
2026-02-17T10:59	5.8	1016	0.4	350	1	70
2026-02-17T11:00	5.8	1016	0.4	350	1	70
2026-02-17T11:01	5.7	1016	0.3	360	1	70
2026-02-17T11:02	5.7	1016	0.3	360	1	70
2026-02-17T11:03	5.8	1016	0.4	360	1	70
2026-02-17T11:04	5.8	1016	0.4	360	1	70
2026-02-17T11:05	5.8	1016	0.4	360	1	70
2026-02-17T11:06	5.7	1016	0.3	10	1	70
2026-02-17T11:07	5.5	1016	0.5	10	1	70
2026-02-17T11:08	5.6	1016	0.4	10	1	70
2026-02-17T11:09	5.7	1016	0.5	10	1	70
2026-02-17T11:10	5.7	1016	0.5	10	1	70
2026-02-17T11:11	5.6	1016	0.4	10	1	70
2026-02-17T11:12	5.6	1016	0.4	10	1	70
2026-02-17T11:13	5.7	1016	0.5	20	1	70
2026-02-17T11:14	5.8	1016	0.4	30	1	70
2026-02-17T11:15	5.8	1016	0.4	30	1	70
2026-02-17T11:16	5.8	1016	0.4	20	1	70
2026-02-17T11:17	5.8	1016	0.4	20	1	70
2026-02-17T11:18	5.8	1016	0.4	30	1	70
2026-02-17T11:19	5.8	1016	0.4	30	1	70
2026-02-17T11:20	5.8	1016	0.4	30	1	70
2026-02-17T11:21	5.8	1016	0.4	20	1	70
2026-02-17T11:22	5.8	1016	0.4	20	1	70
2026-02-17T11:23	5.8	1016	0.4	20	1	70
2026-02-17T11:24	5.8	1016	0.4	20	1	70
2026-02-17T11:25	5.8	1016	0.4	20	1	70
2026-02-17T11:26	5.7	1016	0.3	20	1	70
2026-02-17T11:27	5.7	1016	0.3	20	1	70
2026-02-17T11:28	5.7	1015	0.3	20	1	70
2026-02-17T11:29	5.6	1015	0.4	20	1	70
2026-02-17T11:30	5.6	1015	0.4	20	1	70
2026-02-17T11:31	5.7	1015	0.5	20	1	70
2026-02-17T11:32	5.6	1015	0.4	20	1	70
2026-02-17T11:33	5.7	1015	0.5	20	1	70
2026-02-17T11:34	5.7	1015	0.3	20	1	70
2026-02-17T11:35	5.8	1015	0.4	20	1	70
2026-02-17T11:36	5.7	1015	0.3	10	1	70
2026-02-17T11:37	5.7	1015	0.3	10	1	70
2026-02-17T11:38	5.7	1015	0.3	10	1	70
2026-02-17T11:39	5.6	1015	0.4	10	1	70
2026-02-17T11:40	5.6	1015	0.4	10	1	70
2026-02-17T11:41	5.6	1015	0.4	360	1	70
2026-02-17T11:42	5.5	1015	0.5	360	1	70
2026-02-17T11:43	5.6	1015	0.4	360	1	70
2026-02-17T11:44	5.5	1015	0.5	360	1	70
2026-02-17T11:45	5.5	1015	0.5	360	1	70
2026-02-17T11:46	5.6	1015	0.4	10	1	70
2026-02-17T11:47	5.6	1015	0.4	10	1	70
2026-02-17T11:48	5.5	1015	0.5	10	1	70
2026-02-17T11:49	5.6	1015	0.6	10	1	70
2026-02-17T11:50	5.6	1015	0.4	10	1	70
2026-02-17T11:51	5.6	1015	0.4	10	1	70
2026-02-17T11:52	5.6	1015	0.4	10	1	70
2026-02-17T11:53	5.6	1015	0.4	10	1	70
2026-02-17T11:54	5.6	1015	0.4	10	1	70
2026-02-17T11:55	5.6	1015	0.4	360	1	70
2026-02-17T11:56	5.4	1015	0.6	360	1	70
2026-02-17T11:57	5.2	1015	0.8	350	1	70
2026-02-17T11:58	5.2	1015	0.6	350	1	70
2026-02-17T11:59	5.2	1015	0.6	350	1	70
2026-02-17T12:00	5.2	1015	0.6	340	1	70
2026-02-17T12:01	5.1	1015	0.7	340	1	70
2026-02-17T12:02	5.0	1015	0.8	340	1	70
2026-02-17T12:03	5.1	1015	0.9	340	1	70
2026-02-17T12:04	5.1	1015	0.7	340	1	70
2026-02-17T12:05	5.1	1015	0.7	340	1	70
2026-02-17T12:06	5.1	1015	0.7	350	1	70
2026-02-17T12:07	5.1	1015	0.7	350	1	70
2026-02-17T12:08	5.0	1015	0.6	360	1	70
2026-02-17T12:09	5.0	1015	0.8	360	1	70
2026-02-17T12:10	5.0	1015	1.0	10	1	70
2026-02-17T12:11	5.0	1015	0.8	10	1	70
2026-02-17T12:12	5.2	1015	0.8	20	1	70
2026-02-17T12:13	5.4	1015	0.8	20	1	70
2026-02-17T12:14	5.4	1015	0.8	20	1	70
2026-02-17T12:15	5.4	1015	0.6	20	1	70
2026-02-17T12:16	5.4	1015	0.6	20	1	70
2026-02-17T12:17	5.5	1015	0.5	10	1	70
2026-02-17T12:18	5.5	1015	0.5	10	1	70
2026-02-17T12:19	5.5	1015	0.5	360	1	70
2026-02-17T12:20	5.4	1015	0.4	360	1	70
2026-02-17T12:21	5.2	1015	0.6	350	1	70
2026-02-17T12:22	5.1	1015	0.7	350	1	70
2026-02-17T12:23	5.1	1015	0.7	350	1	70
2026-02-17T12:24	5.0	1015	0.8	350	1	70
2026-02-17T12:25	5.1	1015	0.7	360	1	70
2026-02-17T12:26	5.1	1015	0.7	360	1	70
2026-02-17T12:27	5.0	1015	0.6	10	1	70
2026-02-17T12:28	5.1	1015	0.7	10	1	70
2026-02-17T12:29	5.0	1015	0.4	10	1	70
2026-02-17T12:30	5.1	1015	0.5	20	1	70
2026-02-17T12:31	5.1	1015	0.5	20	1	70
2026-02-17T12:32	5.3	1015	0.5	20	1	70
2026-02-17T12:33	5.2	1015	0.6	20	1	70
2026-02-17T12:34	5.1	1015	0.5	20	1	70
2026-02-17T12:35	5.1	1015	0.5	20	1	70
2026-02-17T12:36	5.0	1015	0.6	10	1	70
2026-02-17T12:37	5.3	1015	0.5	10	1	70
2026-02-17T12:38	5.3	1015	0.5	10	1	70
2026-02-17T12:39	5.3	1015	0.5	360	1	70
2026-02-17T12:40	5.0	1015	0.8	350	1	70
2026-02-17T12:41	4.9	1015	0.7	350	1	70
2026-02-17T12:42	4.9	1015	0.7	350	1	70
2026-02-17T12:43	4.9	1015	0.7	350	1	70
2026-02-17T12:44	4.8	1015	0.6	350	1	70
2026-02-17T12:45	4.8	1015	0.6	350	1	70
2026-02-17T12:46	4.8	1015	0.8	350	1	70
2026-02-17T12:47	4.8	1015	0.9	350	1	70
2026-02-17T12:48	4.7	1015	0.8	350	1	70
2026-02-17T12:49	4.7	1015	0.7	360	1	70
2026-02-17T12:50	4.7	1015	0.7	360	1	70
2026-02-17T12:51	4.7	1015	0.7	360	1	70
2026-02-17T12:52	4.7	1015	0.7	350	1	70
2026-02-17T12:53	4.9	1015	0.9	350	1	70
2026-02-17T12:54	4.9	1015	0.9	350	1	70
2026-02-17T12:55	4.7	1015	0.8	340	1	70
2026-02-17T12:56	4.6	1015	0.8	340	1	70
2026-02-17T12:57	4.8	1015	0.8	340	1	70
2026-02-17T12:58	4.7	1015	0.8	340	1	70
2026-02-17T12:59	4.8	1015	0.8	340	1	70
2026-02-17T13:00	4.7	1015	0.8	340	1	70
2026-02-17T13:01	4.6	1015	0.9	340	1	70
2026-02-17T13:02	4.6	1015	0.9	340	1	70
2026-02-17T13:03	4.7	1015	1.0	340	1	70
2026-02-17T13:04	4.7	1015	0.8	340	1	70
2026-02-17T13:05	5.0	1015	1.0	350	1	70
2026-02-17T13:06	5.3	1015	0.9	350	1	70
2026-02-17T13:07	5.3	1015	0.7	350	1	70
2026-02-17T13:08	5.3	1015	0.7	350	1	70
2026-02-17T13:09	5.3	1015	0.7	350	1	70
2026-02-17T13:10	5.2	1015	0.8	350	1	70
2026-02-17T13:11	5.1	1015	0.7	350	1	70
2026-02-17T13:12	5.2	1015	0.6	350	1	70
2026-02-17T13:13	5.2	1015	0.6	350	1	70
2026-02-17T13:14	5.0	1015	0.8	340	1	70
2026-02-17T13:15	5.0	1015	0.8	350	1	70
2026-02-17T13:16	4.9	1015	0.9	340	1	70
2026-02-17T13:17	4.9	1015	1.0	340	1	70
2026-02-17T13:18	5.1	1015	1.0	350	1	70
2026-02-17T13:19	5.0	1015	0.8	350	1	70
2026-02-17T13:20	5.1	1015	0.7	350	1	70
2026-02-17T13:21	4.9	1015	0.7	350	1	70
2026-02-17T13:22	5.0	1015	0.8	350	1	70
2026-02-17T13:23	5.2	1015	0.8	340	1	70
2026-02-17T13:24	5.1	1015	0.9	340	1	70
2026-02-17T13:25	4.9	1015	1.2	340	1	70
2026-02-17T13:26	4.9	1015	1.0	330	1	70
2026-02-17T13:27	5.0	1015	1.0	330	1	70
2026-02-17T13:28	5.3	1015	0.9	320	1	70
2026-02-17T13:29	5.2	1015	1.0	320	1	70
2026-02-17T13:30	5.2	1015	0.8	320	1	70
2026-02-17T13:31	5.1	1015	0.9	320	1	70
2026-02-17T13:32	4.9	1015	1.0	320	1	70
2026-02-17T13:33	4.9	1015	0.9	320	1	70
2026-02-17T13:34	5.1	1015	0.9	320	1	70
2026-02-17T13:35	4.8	1015	1.3	330	1	70
2026-02-17T13:36	4.8	1015	1.5	330	1	70
2026-02-17T13:37	5.0	1015	1.1	330	1	70
2026-02-17T13:38	4.9	1015	1.2	340	1	70
2026-02-17T13:39	4.8	1015	1.1	340	1	70
2026-02-17T13:40	4.9	1015	1.0	350	1	70
2026-02-17T13:41	5.2	1015	1.0	350	1	70
2026-02-17T13:42	5.3	1015	1.1	350	1	70
2026-02-17T13:43	5.2	1015	1.1	350	1	70
2026-02-17T13:44	5.3	1015	0.9	350	1	70
2026-02-17T13:45	5.3	1015	1.1	350	1	70
2026-02-17T13:46	5.3	1015	1.1	350	1	70
2026-02-17T13:47	5.4	1015	1.0	350	1	70
2026-02-17T13:48	5.6	1015	0.8	340	1	70
2026-02-17T13:49	5.2	1015	1.0	340	1	70
2026-02-17T13:50	5.1	1015	1.0	340	1	70
2026-02-17T13:51	5.2	1015	1.0	330	1	70
2026-02-17T13:52	5.0	1015	1.3	330	1	70
2026-02-17T13:53	5.1	1014	1.2	330	1	70
2026-02-17T13:54	5.2	1014	1.0	330	1	70
2026-02-17T13:55	5.2	1014	1.0	330	1	70
2026-02-17T13:56	5.1	1014	0.9	330	1	70
2026-02-17T13:57	5.2	1014	0.8	330	1	70
2026-02-17T13:58	5.1	1014	0.9	330	1	70
2026-02-17T13:59	5.2	1014	1.0	340	0	70
2026-02-17T14:00	5.0	1014	1.1	340	0	70
2026-02-17T14:01	5.0	1014	1.3	350	0	70
2026-02-17T14:02	5.0	1014	1.3	350	0	70
2026-02-17T14:03	5.0	1014	1.5	360	0	70
2026-02-17T14:04	5.1	1014	1.2	10	0	70
2026-02-17T14:05	5.1	1014	1.6	10	0	70
2026-02-17T14:06	5.0	1014	1.7	10	0	70
2026-02-17T14:07	5.0	1014	1.8	10	0	70
2026-02-17T14:08	5.2	1014	1.9	360	0	70
2026-02-17T14:09	5.3	1014	1.8	350	1	70
2026-02-17T14:10	5.3	1014	1.8	330	1	70
2026-02-17T14:11	5.2	1014	1.7	310	1	69
2026-02-17T14:12	5.2	1014	1.7	290	1	67
2026-02-17T14:13	5.1	1014	1.8	270	1	66
2026-02-17T14:14	5.1	1014	1.9	260	1	66
2026-02-17T14:15	5.2	1014	2.2	250	1	66
2026-02-17T14:16	5.3	1014	2.1	240	1	64
2026-02-17T14:17	5.2	1014	2.0	230	1	62
2026-02-17T14:18	5.1	1014	2.1	220	1	61
2026-02-17T14:19	5.0	1014	2.2	220	1	59
2026-02-17T14:20	4.9	1014	2.1	210	1	59
2026-02-17T14:21	4.8	1014	2.2	200	1	58
2026-02-17T14:22	4.7	1014	2.2	190	1	58
2026-02-17T14:23	4.8	1014	2.3	180	1	57
2026-02-17T14:24	4.6	1014	2.5	180	1	57
2026-02-17T14:25	4.5	1014	2.7	170	1	57
2026-02-17T14:26	4.4	1014	2.8	160	1	57
2026-02-17T14:27	4.4	1014	2.9	160	1	57
2026-02-17T14:28	4.3	1014	3.0	150	0	57
2026-02-17T14:29	4.3	1014	3.1	150	0	58
2026-02-17T14:30	4.2	1014	3.0	140	0	58
2026-02-17T14:31	4.2	1014	3.2	10	0	58
2026-02-17T14:32	4.2	1014	3.2	350	0	58
2026-02-17T14:33	4.2	1014	3.3	50	1	59
2026-02-17T14:34	4.1	1014	3.2	360	1	59
2026-02-17T14:35	4.1	1014	3.4	340	1	59
2026-02-17T14:36	4.1	1014	3.4	330	1	58
2026-02-17T14:37	4.1	1014	3.4	330	1	58
2026-02-17T14:38	4.1	1014	3.5	320	1	58
2026-02-17T14:39	4.0	1014	3.4	320	1	58
2026-02-17T14:40	4.0	1014	3.4	310	1	58
2026-02-17T14:41	4.0	1014	3.6	310	1	58
2026-02-17T14:42	4.0	1014	3.6	310	1	59
2026-02-17T14:43	4.0	1014	3.6	310	1	59
2026-02-17T14:44	4.0	1014	3.6	310	1	59
2026-02-17T14:45	3.9	1014	3.5	310	1	60
2026-02-17T14:46	3.9	1014	3.5	310	1	60
2026-02-17T14:47	3.9	1014	3.6	310	1	60
2026-02-17T14:48	3.9	1014	3.6	320	1	61
2026-02-17T14:49	3.8	1014	3.5	320	1	61
2026-02-17T14:50	3.8	1014	3.5	320	1	61
2026-02-17T14:51	3.7	1014	3.4	320	1	62
2026-02-17T14:52	3.8	1014	3.5	330	1	62
2026-02-17T14:53	3.7	1014	3.4	330	1	61
2026-02-17T14:54	3.8	1014	3.5	330	1	61
2026-02-17T14:55	3.8	1014	3.5	340	1	61
2026-02-17T14:56	3.7	1014	3.4	340	1	61
2026-02-17T14:57	3.7	1014	3.4	340	1	61
2026-02-17T14:58	3.7	1014	3.4	350	1	60
2026-02-17T14:59	3.7	1014	3.4	350	1	60
2026-02-17T15:00	3.7	1014	3.4	350	1	60
2026-02-17T15:01	3.6	1014	3.5	350	1	60
2026-02-17T15:02	3.6	1014	3.5	350	1	59
2026-02-17T15:03	3.6	1014	3.5	360	1	59
2026-02-17T15:04	3.6	1014	3.5	360	1	59
2026-02-17T15:05	3.6	1014	3.5	360	1	59
2026-02-17T15:06	3.5	1014	3.4	350	1	58
2026-02-17T15:07	3.5	1014	3.4	350	1	58
2026-02-17T15:08	3.4	1014	3.3	350	1	58
2026-02-17T15:09	3.4	1014	3.3	350	1	58
2026-02-17T15:10	3.4	1014	3.3	350	1	58
2026-02-17T15:11	3.3	1014	3.2	350	1	58
2026-02-17T15:12	3.3	1014	3.2	350	1	59
2026-02-17T15:13	3.4	1014	3.1	350	1	59
2026-02-17T15:14	3.5	1014	3.2	350	1	60
2026-02-17T15:15	3.3	1014	3.0	350	1	60
2026-02-17T15:16	3.4	1014	3.0	350	1	61
2026-02-17T15:17	3.4	1014	3.0	350	1	62
2026-02-17T15:18	3.5	1014	3.1	340	1	63
2026-02-17T15:19	3.6	1014	3.2	340	1	64
2026-02-17T15:20	3.6	1014	3.0	340	1	65
2026-02-17T15:21	3.6	1014	3.0	340	1	65
2026-02-17T15:22	3.6	1014	3.0	340	1	65
2026-02-17T15:23	3.4	1013	2.8	340	1	64
2026-02-17T15:24	3.4	1013	2.8	340	1	64
2026-02-17T15:25	3.4	1013	2.8	340	1	64
2026-02-17T15:26	3.5	1013	3.1	350	1	64
2026-02-17T15:27	3.4	1013	3.0	350	1	63
2026-02-17T15:28	3.4	1013	3.0	350	1	62
2026-02-17T15:29	3.4	1013	3.0	360	1	62
2026-02-17T15:30	3.6	1013	3.0	360	1	62
2026-02-17T15:31	3.6	1013	3.0	360	1	62
2026-02-17T15:32	3.4	1013	2.7	10	1	61
2026-02-17T15:33	3.3	1013	2.6	360	1	60
2026-02-17T15:34	3.3	1013	2.7	10	1	59
2026-02-17T15:35	3.2	1013	2.6	360	1	59
2026-02-17T15:36	3.1	1013	2.5	360	1	60
2026-02-17T15:37	3.1	1013	2.5	360	1	60
2026-02-17T15:38	3.1	1013	2.7	360	1	60
2026-02-17T15:39	3.1	1013	2.7	360	1	60
2026-02-17T15:40	3.2	1013	2.8	360	1	59
2026-02-17T15:41	3.0	1013	2.6	360	1	59
2026-02-17T15:42	3.1	1013	2.7	360	1	59
2026-02-17T15:43	3.1	1013	2.7	360	1	61
2026-02-17T15:44	3.1	1013	2.7	360	1	61
2026-02-17T15:45	3.1	1013	2.5	350	1	62
2026-02-17T15:46	3.0	1013	2.4	350	1	61
2026-02-17T15:47	3.1	1013	2.7	350	1	62
2026-02-17T15:48	3.2	1013	2.8	350	1	62
2026-02-17T15:49	3.3	1013	2.9	350	1	63
2026-02-17T15:50	3.2	1013	2.8	350	1	62
2026-02-17T15:51	3.2	1013	2.8	350	1	63
2026-02-17T15:52	3.1	1013	2.7	350	1	62
2026-02-17T15:53	3.2	1013	2.8	350	1	61
2026-02-17T15:54	3.2	1013	2.8	350	2	61
2026-02-17T15:55	3.2	1013	2.8	350	2	61
2026-02-17T15:56	3.3	1013	2.9	350	2	61
2026-02-17T15:57	3.5	1013	3.1	350	2	61
2026-02-17T15:58	3.5	1013	3.1	350	2	61
2026-02-17T15:59	3.6	1013	3.0	350	2	62
2026-02-17T16:00	3.5	1013	2.8	360	2	63
2026-02-17T16:01	3.6	1013	2.9	360	2	63
2026-02-17T16:02	3.6	1013	2.7	350	2	64
2026-02-17T16:03	3.4	1013	2.5	350	2	65
2026-02-17T16:04	3.6	1013	2.7	360	2	67
2026-02-17T16:05	3.8	1013	2.9	360	2	68
2026-02-17T16:06	3.8	1013	2.8	350	2	69
2026-02-17T16:07	3.9	1013	2.7	360	1	70
2026-02-17T16:08	4.0	1013	2.7	360	1	70
2026-02-17T16:09	3.8	1013	2.5	360	1	70
2026-02-17T16:10	3.8	1013	2.6	360	1	70
2026-02-17T16:11	3.9	1013	2.7	360	1	70
2026-02-17T16:12	3.8	1013	2.6	360	1	69
2026-02-17T16:13	3.7	1013	2.5	350	1	69
2026-02-17T16:14	3.7	1013	2.7	350	1	69
2026-02-17T16:15	3.6	1013	2.6	350	1	68
2026-02-17T16:16	3.8	1013	2.8	350	1	68
2026-02-17T16:17	3.9	1013	2.9	350	1	68
2026-02-17T16:18	3.9	1013	2.9	350	1	68
2026-02-17T16:19	3.9	1013	2.7	350	1	67
2026-02-17T16:20	3.8	1013	2.8	350	2	67
2026-02-17T16:21	3.9	1013	2.9	350	2	67
2026-02-17T16:22	4.0	1013	2.8	350	1	68
2026-02-17T16:23	4.0	1013	2.8	360	1	68
2026-02-17T16:24	4.0	1013	2.8	360	1	68
2026-02-17T16:25	4.1	1013	2.8	360	1	69
2026-02-17T16:26	4.1	1013	2.6	360	1	69
2026-02-17T16:27	4.1	1013	2.6	360	1	68
2026-02-17T16:28	4.2	1013	2.7	360	1	69
2026-02-17T16:29	4.2	1013	2.7	360	1	69
2026-02-17T16:30	4.1	1013	2.6	360	1	69
2026-02-17T16:31	4.1	1013	2.6	360	1	70
2026-02-17T16:32	4.1	1013	2.6	350	1	70
2026-02-17T16:33	4.0	1013	2.7	350	1	69
2026-02-17T16:34	4.0	1013	2.8	350	1	69
2026-02-17T16:35	4.0	1013	2.8	340	1	69
2026-02-17T16:36	4.1	1013	2.9	330	1	69
2026-02-17T16:37	4.2	1013	2.9	330	1	69
2026-02-17T16:38	4.3	1013	3.0	320	1	69
2026-02-17T16:39	4.2	1013	2.7	320	1	69
2026-02-17T16:40	4.0	1013	2.7	320	1	68
2026-02-17T16:41	3.9	1013	2.7	320	1	67
2026-02-17T16:42	3.8	1013	2.8	310	1	66
2026-02-17T16:43	3.8	1013	2.8	320	1	66
2026-02-17T16:44	3.8	1013	2.9	320	1	64
2026-02-17T16:45	3.8	1013	3.1	320	1	63
2026-02-17T16:46	3.8	1013	3.1	320	1	62
2026-02-17T16:47	3.9	1013	3.0	320	1	61
2026-02-17T16:48	4.0	1013	3.1	320	1	61
2026-02-17T16:49	4.0	1013	3.0	320	1	60
2026-02-17T16:50	4.0	1013	3.0	320	1	60
2026-02-17T16:51	4.0	1013	3.1	320	1	60
2026-02-17T16:52	3.8	1013	2.9	310	1	60
2026-02-17T16:53	3.8	1013	2.9	300	1	60
2026-02-17T16:54	3.8	1013	3.1	300	1	60
2026-02-17T16:55	4.0	1013	3.3	290	1	60
2026-02-17T16:56	4.0	1013	3.1	290	1	60
2026-02-17T16:57	3.8	1013	3.1	290	1	60
2026-02-17T16:58	3.8	1013	3.1	290	1	60
2026-02-17T16:59	3.9	1013	3.2	290	1	60
2026-02-17T17:00	4.0	1013	3.3	290	1	60
2026-02-17T17:01	4.0	1013	3.1	300	1	60
2026-02-17T17:02	4.0	1013	3.1	300	1	60
2026-02-17T17:03	3.9	1013	3.2	310	1	59
2026-02-17T17:04	3.8	1013	3.1	310	1	59
2026-02-17T17:05	3.8	1013	3.2	320	1	58
2026-02-17T17:06	3.8	1013	3.2	330	1	58
2026-02-17T17:07	3.9	1013	3.3	340	1	58
2026-02-17T17:08	3.9	1013	3.3	340	1	58
2026-02-17T17:09	3.9	1013	3.3	350	1	57
2026-02-17T17:10	3.8	1013	3.2	350	1	57
2026-02-17T17:11	3.8	1013	3.4	350	1	57
2026-02-17T17:12	3.9	1013	3.5	340	1	57
2026-02-17T17:13	4.0	1013	3.6	340	1	57
2026-02-17T17:14	4.0	1013	3.6	330	1	57
2026-02-17T17:15	3.9	1013	3.5	330	1	57
2026-02-17T17:16	3.9	1013	3.5	320	1	57
2026-02-17T17:17	3.8	1013	3.4	320	1	56
2026-02-17T17:18	3.8	1013	3.4	320	1	56
2026-02-17T17:19	3.8	1013	3.4	320	1	56
2026-02-17T17:20	3.8	1013	3.4	320	1	56
2026-02-17T17:21	3.8	1013	3.5	320	1	56
2026-02-17T17:22	3.7	1013	3.4	330	1	56
2026-02-17T17:23	3.8	1013	3.5	340	1	56
2026-02-17T17:24	3.8	1013	3.5	340	1	56
2026-02-17T17:25	3.8	1013	3.5	350	1	56
2026-02-17T17:26	3.8	1013	3.5	360	1	56
2026-02-17T17:27	3.8	1013	3.5	360	1	56
2026-02-17T17:28	3.8	1013	3.5	360	1	56
2026-02-17T17:29	3.8	1013	3.5	360	1	56
2026-02-17T17:30	3.8	1013	3.5	360	1	56
2026-02-17T17:31	3.8	1013	3.5	360	1	56
2026-02-17T17:32	3.8	1013	3.5	360	1	56
2026-02-17T17:33	3.8	1013	3.5	360	1	56
2026-02-17T17:34	3.8	1013	3.5	360	1	56
2026-02-17T17:35	3.8	1013	3.5	360	1	56
2026-02-17T17:36	3.8	1013	3.5	360	1	56
2026-02-17T17:37	3.8	1013	3.5	360	1	56
2026-02-17T17:38	3.8	1013	3.5	360	1	56
2026-02-17T17:39	3.9	1013	3.6	360	1	56
2026-02-17T17:40	3.8	1013	3.5	360	1	56
2026-02-17T17:41	3.8	1013	3.5	360	1	57
2026-02-17T17:42	3.9	1013	3.6	360	1	57
2026-02-17T17:43	3.9	1013	3.6	350	1	57
2026-02-17T17:44	4.0	1013	3.7	350	1	58
2026-02-17T17:45	4.0	1013	3.6	350	1	57
2026-02-17T17:46	4.0	1012	3.6	340	1	57
2026-02-17T17:47	4.0	1012	3.6	340	1	57
2026-02-17T17:48	4.0	1012	3.6	340	1	56
2026-02-17T17:49	3.9	1012	3.5	340	1	56
2026-02-17T17:50	3.9	1012	3.5	350	1	55
2026-02-17T17:51	3.9	1012	3.5	350	1	55
2026-02-17T17:52	3.8	1012	3.5	350	1	55
2026-02-17T17:53	3.8	1012	3.5	360	1	49
2026-02-17T17:54	3.9	1012	3.6	360	1	47
2026-02-17T17:55	3.9	1012	3.6	360	1	45
2026-02-17T17:56	3.9	1012	3.6	360	1	44
2026-02-17T17:57	3.9	1012	3.6	360	1	43
2026-02-17T17:58	3.9	1012	3.6	360	1	43
2026-02-17T17:59	3.9	1012	3.6	350	1	44
2026-02-17T18:00	3.9	1012	3.6	340	1	44
2026-02-17T18:01	3.9	1012	3.6	340	1	43
2026-02-17T18:02	3.8	1012	3.5	330	1	40
2026-02-17T18:03	3.8	1012	3.5	320	1	37
2026-02-17T18:04	3.8	1012	3.7	320	1	35
2026-02-17T18:05	3.8	1012	3.7	310	1	32
2026-02-17T18:06	3.8	1012	3.7	310	1	31
2026-02-17T18:07	3.8	1012	3.7	310	1	30
2026-02-17T18:08	3.8	1012	3.7	310	1	29
2026-02-17T18:09	3.8	1012	3.7	310	1	28
2026-02-17T18:10	3.8	1012	3.7	320	1	28
2026-02-17T18:11	3.8	1012	3.7	320	1	30
2026-02-17T18:12	3.8	1012	3.7	330	1	31
2026-02-17T18:13	3.8	1012	3.7	340	1	32
2026-02-17T18:14	3.8	1012	3.7	340	1	34
2026-02-17T18:15	3.8	1012	3.7	350	1	35
2026-02-17T18:16	3.8	1012	3.7	350	1	35
2026-02-17T18:17	3.8	1012	3.7	360	1	37
2026-02-17T18:18	3.8	1012	3.8	360	1	38
2026-02-17T18:19	3.7	1012	3.7	360	1	39
2026-02-17T18:20	3.7	1012	3.7	360	1	39
2026-02-17T18:21	3.7	1012	3.7	360	1	39
2026-02-17T18:22	3.7	1012	3.7	360	1	39
2026-02-17T18:23	3.7	1012	3.7	360	1	41
2026-02-17T18:24	3.7	1012	3.7	360	1	42
2026-02-17T18:25	3.7	1012	3.7	350	1	46
2026-02-17T18:26	3.7	1012	3.7	350	1	55
2026-02-17T18:27	3.6	1012	3.6	350	1	55
2026-02-17T18:28	3.6	1012	3.6	340	1	46
2026-02-17T18:29	3.5	1012	3.5	340	1	47
2026-02-17T18:30	3.5	1012	3.5	340	1	45
2026-02-17T18:31	3.4	1012	3.4	340	1	45
2026-02-17T18:32	3.4	1012	3.3	340	1	44
2026-02-17T18:33	3.3	1012	3.3	340	1	28
2026-02-17T18:34	3.0	1012	2.9	340	1	19
2026-02-17T18:35	3.1	1012	3.0	340	1	15
2026-02-17T18:36	3.2	1012	3.2	340	1	14
2026-02-17T18:37	3.2	1012	3.2	340	1	14
2026-02-17T18:38	3.3	1012	3.3	330	1	15
2026-02-17T18:39	3.1	1012	3.1	340	1	15
2026-02-17T18:40	2.9	1012	2.9	340	1	13
2026-02-17T18:41	3.1	1012	3.1	330	1	13
2026-02-17T18:42	2.9	1012	2.9	330	1	13
2026-02-17T18:43	2.8	1012	2.8	330	0	14
2026-02-17T18:44	3.0	1012	3.0	330	0	19
2026-02-17T18:45	3.1	1012	3.1	330	0	25
2026-02-17T18:46	3.0	1012	3.0	330	0	25
2026-02-17T18:47	2.7	1012	2.7	0	0	24
2026-02-17T18:48	2.9	1012	2.9	0	0	24
2026-02-17T18:49	3.0	1012	3.0	350	0	24
2026-02-17T18:50	2.9	1012	2.9	360	0	24
2026-02-17T18:51	2.8	1012	2.8	360	1	25
2026-02-17T18:52	2.8	1012	2.8	10	1	26
2026-02-17T18:53	2.7	1012	2.7	20	1	26
2026-02-17T18:54	2.7	1012	2.7	30	1	25
2026-02-17T18:55	2.8	1012	2.8	30	1	24
2026-02-17T18:56	2.9	1012	2.9	30	1	25
2026-02-17T18:57	2.9	1012	2.9	30	1	26
2026-02-17T18:58	2.8	1012	2.8	30	1	26
2026-02-17T18:59	2.8	1011	2.8	30	1	25
2026-02-17T19:00	2.7	1011	2.7	30	1	31
2026-02-17T19:01	3.0	1012	3.0	20	1	32
2026-02-17T19:02	3.1	1012	3.1	20	1	36
2026-02-17T19:03	3.0	1012	3.0	10	1	37
2026-02-17T19:04	3.1	1012	3.1	360	1	41
2026-02-17T19:05	3.0	1012	3.0	360	1	46
2026-02-17T19:06	3.1	1011	3.1	350	1	49
2026-02-17T19:07	2.7	1011	2.7	350	1	49
2026-02-17T19:08	2.7	1011	2.7	340	1	55
2026-02-17T19:09	2.2	1011	2.2	340	1	47
2026-02-17T19:10	2.1	1011	2.1	340	1	45
2026-02-17T19:11	2.1	1011	2.1	340	1	40
2026-02-17T19:12	2.3	1011	2.3	340	1	37
2026-02-17T19:13	2.2	1011	2.2	350	1	27
2026-02-17T19:14	2.3	1011	2.3	350	1	24
2026-02-17T19:15	2.5	1011	2.5	360	1	20
2026-02-17T19:16	2.3	1011	2.3	10	1	16
2026-02-17T19:17	2.2	1011	2.2	20	0	15
2026-02-17T19:18	2.2	1011	2.2	30	0	14
2026-02-17T19:19	2.2	1011	2.2	40	0	12
2026-02-17T19:20	2.2	1011	2.2	60	0	11
2026-02-17T19:21	2.1	1011	2.1	70	0	11
2026-02-17T19:22	2.0	1011	2.0	90	0	11
2026-02-17T19:23	2.0	1011	2.0	0	0	11
2026-02-17T19:24	2.2	1011	2.2	120	0	11
2026-02-17T19:25	2.3	1011	2.3	120	0	12
2026-02-17T19:26	2.1	1011	2.1	130	0	11
2026-02-17T19:27	2.1	1011	2.1	140	0	11
2026-02-17T19:28	2.1	1011	2.1	0	0	10
2026-02-17T19:29	1.6	1011	1.6	0	0	11
2026-02-17T19:30	1.8	1011	1.8	0	0	11
2026-02-17T19:31	1.9	1011	1.9	0	0	11
2026-02-17T19:32	1.8	1011	1.8	0	0	11
2026-02-17T19:33	1.5	1011	1.5	0	0	10
2026-02-17T19:34	1.6	1011	1.6	0	0	9
2026-02-17T19:35	1.6	1011	1.6	0	0	8
2026-02-17T19:36	1.7	1011	1.7	0	0	8
2026-02-17T19:37	1.7	1011	1.7	0	0	6
2026-02-17T19:38	1.6	1011	1.6	0	0	6
2026-02-17T19:39	1.4	1011	1.4	0	0	6
2026-02-17T19:40	1.5	1012	1.5	0	0	5
2026-02-17T19:41	1.5	1012	1.5	0	0	5
2026-02-17T19:42	1.3	1012	1.3	0	0	5
2026-02-17T19:43	1.3	1012	1.3	0	0	5
2026-02-17T19:44	1.3	1012	1.3	0	0	5
2026-02-17T19:45	1.5	1012	1.5	0	0	5
2026-02-17T19:46	1.5	1012	1.5	300	0	5
2026-02-17T19:47	1.3	1012	1.3	310	0	6
2026-02-17T19:48	1.3	1012	1.3	310	0	6
2026-02-17T19:49	1.2	1012	1.2	320	0	7
2026-02-17T19:50	1.2	1012	1.2	330	0	7
2026-02-17T19:51	1.2	1012	1.2	330	0	8
2026-02-17T19:52	1.2	1012	1.2	320	1	9
2026-02-17T19:53	1.4	1012	1.4	330	1	10
2026-02-17T19:54	1.3	1012	1.3	320	1	11
2026-02-17T19:55	1.3	1012	1.3	320	1	10
2026-02-17T19:56	1.3	1012	1.3	320	1	11
2026-02-17T19:57	1.2	1012	1.2	320	1	12
2026-02-17T19:58	1.2	1012	1.2	310	1	12
2026-02-17T19:59	1.6	1012	1.6	310	1	13
2026-02-17T20:00	1.6	1012	1.6	310	1	13
2026-02-17T20:01	1.5	1012	1.5	300	1	15
2026-02-17T20:02	1.5	1012	1.5	300	1	16
2026-02-17T20:03	1.3	1012	1.3	300	1	16
2026-02-17T20:04	1.4	1012	1.4	300	1	15
2026-02-17T20:05	1.5	1012	1.5	300	1	16
2026-02-17T20:06	1.6	1012	1.6	300	1	16
2026-02-17T20:07	1.6	1012	1.6	300	1	17
2026-02-17T20:08	1.5	1012	1.5	300	1	18
2026-02-17T20:09	1.4	1012	1.4	300	1	19
2026-02-17T20:10	1.8	1012	1.8	310	1	19
2026-02-17T20:11	2.2	1012	2.2	310	1	20
2026-02-17T20:12	2.0	1012	2.0	310	1	21
2026-02-17T20:13	2.2	1012	2.2	310	1	22
2026-02-17T20:14	2.2	1012	2.2	310	1	25
2026-02-17T20:15	2.3	1012	2.3	310	1	27
2026-02-17T20:16	2.4	1012	2.4	310	1	28
2026-02-17T20:17	2.3	1012	2.3	310	1	30
2026-02-17T20:18	2.3	1012	2.3	310	1	32
2026-02-17T20:19	2.2	1012	2.2	310	1	35
2026-02-17T20:20	2.1	1012	2.1	310	1	36
2026-02-17T20:21	2.2	1012	2.2	300	1	36
2026-02-17T20:22	2.2	1012	2.2	300	1	34
2026-02-17T20:23	1.9	1012	1.9	300	1	32
2026-02-17T20:24	1.9	1012	1.9	310	1	30
2026-02-17T20:25	2.2	1012	2.2	310	1	29
2026-02-17T20:26	2.3	1012	2.3	310	1	28
2026-02-17T20:27	2.2	1012	2.2	310	2	28
2026-02-17T20:28	2.4	1012	2.4	310	2	28
2026-02-17T20:29	2.6	1011	2.6	310	2	28
2026-02-17T20:30	2.4	1011	2.4	310	2	29
2026-02-17T20:31	2.2	1011	2.2	310	2	29
2026-02-17T20:32	2.3	1011	2.3	300	1	30
2026-02-17T20:33	2.2	1012	2.2	300	1	33
2026-02-17T20:34	1.8	1012	1.8	300	1	33
2026-02-17T20:35	2.0	1012	2.0	300	1	32
2026-02-17T20:36	2.2	1012	2.2	300	1	32
2026-02-17T20:37	1.9	1011	1.9	310	1	30
2026-02-17T20:38	2.1	1011	2.1	310	1	28
2026-02-17T20:39	2.2	1011	2.2	320	1	27
2026-02-17T20:40	1.9	1011	1.9	320	1	26
2026-02-17T20:41	2.0	1011	2.0	330	1	24
2026-02-17T20:42	2.1	1011	2.1	330	1	23
2026-02-17T20:43	2.1	1011	2.1	340	1	22
2026-02-17T20:44	2.1	1011	2.1	340	1	21
2026-02-17T20:45	2.1	1011	2.1	340	1	20
2026-02-17T20:46	2.1	1011	2.1	340	1	20
2026-02-17T20:47	2.2	1011	2.2	340	1	20
2026-02-17T20:48	2.3	1011	2.3	340	1	21
2026-02-17T20:49	2.2	1011	2.2	330	1	21
2026-02-17T20:50	2.3	1011	2.3	320	1	22
2026-02-17T20:51	2.4	1011	2.4	320	1	23
2026-02-17T20:52	2.3	1011	2.3	310	1	24
2026-02-17T20:53	2.2	1011	2.2	300	1	25
2026-02-17T20:54	1.9	1011	1.9	300	1	25
2026-02-17T20:55	1.8	1011	1.8	290	1	24
2026-02-17T20:56	1.8	1011	1.8	280	1	22
2026-02-17T20:57	1.8	1011	1.8	280	1	20
2026-02-17T20:58	1.9	1011	1.9	280	1	19
2026-02-17T20:59	1.6	1011	1.6	280	1	15
2026-02-17T21:00	1.7	1011	1.7	290	1	14
2026-02-17T21:01	1.6	1011	1.6	300	1	12
2026-02-17T21:02	1.6	1011	1.6	310	1	11
2026-02-17T21:03	1.6	1011	1.6	320	1	10
2026-02-17T21:04	1.8	1011	1.8	340	1	10
2026-02-17T21:05	1.9	1011	1.9	350	1	10
2026-02-17T21:06	1.9	1011	1.9	360	1	10
2026-02-17T21:07	2.1	1011	2.1	360	1	11
2026-02-17T21:08	2.1	1011	2.1	360	1	11
2026-02-17T21:09	2.0	1011	2.0	350	1	12
2026-02-17T21:10	1.9	1011	1.9	340	1	13
2026-02-17T21:11	2.0	1011	2.0	320	1	14
2026-02-17T21:12	2.0	1011	2.0	300	1	16
2026-02-17T21:13	2.0	1011	2.0	290	1	17
2026-02-17T21:14	1.9	1011	1.9	280	1	18
2026-02-17T21:15	1.9	1011	1.9	270	1	18
2026-02-17T21:16	1.7	1011	1.7	260	1	17
2026-02-17T21:17	1.9	1011	1.9	260	1	15
2026-02-17T21:18	1.9	1011	1.9	260	1	15
2026-02-17T21:19	1.9	1011	1.9	260	1	15
2026-02-17T21:20	2.0	1011	2.0	260	1	14
2026-02-17T21:21	1.9	1011	1.9	260	1	14
2026-02-17T21:22	1.9	1011	1.9	260	1	13
2026-02-17T21:23	2.0	1011	2.0	260	1	13
2026-02-17T21:24	2.0	1011	2.0	270	1	13
2026-02-17T21:25	2.1	1011	2.1	260	0	14
2026-02-17T21:26	2.1	1011	2.1	260	0	15
2026-02-17T21:27	2.1	1011	2.1	250	0	16
2026-02-17T21:28	2.0	1011	2.0	250	0	17
2026-02-17T21:29	2.0	1011	2.0	240	0	18
2026-02-17T21:30	2.1	1011	2.1	240	0	19
2026-02-17T21:31	2.2	1011	2.2	230	0	20
2026-02-17T21:32	2.1	1011	2.1	230	0	22
2026-02-17T21:33	2.2	1011	2.2	230	1	23
2026-02-17T21:34	2.3	1011	2.3	220	1	25
2026-02-17T21:35	2.3	1011	2.3	220	1	27
2026-02-17T21:36	2.1	1011	2.1	230	1	27
2026-02-17T21:37	2.1	1011	2.1	230	1	27
2026-02-17T21:38	2.2	1011	2.2	230	1	29
2026-02-17T21:39	2.2	1011	2.2	230	1	30
2026-02-17T21:40	2.2	1011	2.2	240	1	31
2026-02-17T21:41	2.2	1011	2.2	240	1	31
2026-02-17T21:42	2.3	1011	2.3	240	1	33
2026-02-17T21:43	2.3	1011	2.3	250	1	34
2026-02-17T21:44	2.3	1011	2.3	250	1	34
2026-02-17T21:45	2.3	1011	2.3	260	1	34
2026-02-17T21:46	2.2	1011	2.2	270	1	36
2026-02-17T21:47	2.2	1011	2.2	280	1	33
2026-02-17T21:48	2.4	1011	2.4	280	0	32
2026-02-17T21:49	2.4	1011	2.4	290	0	30
2026-02-17T21:50	2.4	1011	2.4	300	0	28
2026-02-17T21:51	2.4	1011	2.4	300	0	27
2026-02-17T21:52	2.4	1011	2.4	310	0	25
2026-02-17T21:53	2.5	1011	2.5	310	0	24
2026-02-17T21:54	2.5	1011	2.5	310	0	22
2026-02-17T21:55	2.4	1011	2.4	320	0	22
2026-02-17T21:56	2.4	1011	2.4	320	0	21
2026-02-17T21:57	2.4	1011	2.4	320	0	22
2026-02-17T21:58	2.5	1011	2.5	320	0	22
2026-02-17T21:59	2.6	1011	2.6	310	0	23
2026-02-17T22:00	2.6	1011	2.6	300	0	24
2026-02-17T22:01	2.6	1011	2.6	290	0	26
2026-02-17T22:02	2.7	1011	2.7	270	0	28
2026-02-17T22:03	2.7	1011	2.7	260	0	30
2026-02-17T22:04	2.8	1011	2.8	250	0	32
2026-02-17T22:05	2.9	1011	2.9	250	1	34
2026-02-17T22:06	2.8	1011	2.8	240	1	34
2026-02-17T22:07	2.7	1011	2.7	240	1	35
2026-02-17T22:08	2.7	1011	2.7	240	1	35
2026-02-17T22:09	2.7	1011	2.7	250	1	36
2026-02-17T22:10	2.7	1011	2.7	260	1	34
2026-02-17T22:11	2.7	1011	2.7	270	1	34
2026-02-17T22:12	2.8	1011	2.8	270	1	33
2026-02-17T22:13	2.8	1011	2.8	280	1	31
2026-02-17T22:14	2.8	1011	2.8	280	1	30
2026-02-17T22:15	2.8	1011	2.8	290	1	29
2026-02-17T22:16	2.9	1011	2.9	290	1	29
2026-02-17T22:17	2.9	1011	2.9	290	1	27
2026-02-17T22:18	2.9	1011	2.9	300	1	25
2026-02-17T22:19	2.9	1011	2.9	300	1	24
2026-02-17T22:20	2.9	1011	2.9	300	1	23
2026-02-17T22:21	3.0	1011	3.0	300	1	23
2026-02-17T22:22	3.0	1011	3.0	300	1	23
2026-02-17T22:23	3.0	1011	3.0	300	1	24
2026-02-17T22:24	3.0	1011	3.0	300	1	24
2026-02-17T22:25	3.0	1011	3.0	300	1	25
2026-02-17T22:26	3.0	1011	3.0	310	1	28
2026-02-17T22:27	3.0	1011	3.0	310	1	30
2026-02-17T22:28	3.0	1011	3.0	310	2	34
2026-02-17T22:29	3.0	1011	3.0	310	2	35
2026-02-17T22:30	3.1	1011	3.1	310	2	40
2026-02-17T22:31	3.1	1011	3.1	310	2	41
2026-02-17T22:32	3.1	1011	3.1	320	1	42
2026-02-17T22:33	3.1	1011	3.1	320	1	43
2026-02-17T22:34	3.1	1011	3.1	320	1	44
2026-02-17T22:35	3.1	1011	3.1	320	1	44
2026-02-17T22:36	3.1	1011	3.1	320	1	43
2026-02-17T22:37	3.2	1011	3.2	320	1	41
2026-02-17T22:38	3.2	1011	3.2	310	1	38
2026-02-17T22:39	3.2	1011	3.2	310	1	36
2026-02-17T22:40	3.2	1011	3.2	310	1	36
2026-02-17T22:41	3.2	1011	3.2	310	1	36
2026-02-17T22:42	3.2	1011	3.2	310	1	37
2026-02-17T22:43	3.3	1011	3.3	310	1	36
2026-02-17T22:44	3.4	1011	3.4	310	1	37
2026-02-17T22:45	3.3	1011	3.3	310	1	37
2026-02-17T22:46	3.4	1011	3.4	300	1	38
2026-02-17T22:47	3.4	1011	3.4	300	1	40
2026-02-17T22:48	3.5	1011	3.5	300	1	43
2026-02-17T22:49	3.6	1011	3.6	300	1	45
2026-02-17T22:50	3.5	1011	3.5	300	1	46
2026-02-17T22:51	3.5	1011	3.5	300	1	47
2026-02-17T22:52	3.6	1011	3.6	300	1	47
2026-02-17T22:53	3.5	1011	3.5	300	1	47
2026-02-17T22:54	3.6	1011	3.6	300	1	48
2026-02-17T22:55	3.5	1011	3.5	300	1	55
2026-02-17T22:56	3.6	1011	3.6	300	2	55
2026-02-17T22:57	3.6	1011	3.6	300	2	55
2026-02-17T22:58	3.6	1011	3.6	300	2	55
2026-02-17T22:59	3.6	1011	3.6	300	1	55
2026-02-17T23:00	3.6	1011	3.5	300	1	55
2026-02-17T23:01	3.6	1011	3.5	290	1	55
2026-02-17T23:02	3.6	1011	3.5	290	1	56
2026-02-17T23:03	3.6	1011	3.5	290	1	56
2026-02-17T23:04	3.6	1011	3.5	290	1	56
2026-02-17T23:05	3.5	1011	3.2	290	1	56
2026-02-17T23:06	3.6	1011	3.3	280	1	56
2026-02-17T23:07	3.6	1011	3.3	280	1	56
2026-02-17T23:08	3.7	1011	3.3	270	1	57
2026-02-17T23:09	3.7	1011	3.3	270	1	57
2026-02-17T23:10	3.8	1011	3.4	260	1	58
2026-02-17T23:11	3.8	1011	3.4	260	1	58
2026-02-17T23:12	3.8	1011	3.4	250	1	58
2026-02-17T23:13	3.8	1011	3.4	250	1	58
2026-02-17T23:14	3.7	1011	3.1	240	1	58
2026-02-17T23:15	3.7	1011	3.1	240	1	59
2026-02-17T23:16	3.6	1011	2.9	230	1	59
2026-02-17T23:17	3.7	1011	3.0	230	1	59
2026-02-17T23:18	3.7	1011	3.0	230	1	59
2026-02-17T23:19	3.7	1011	3.0	230	1	59
2026-02-17T23:20	3.7	1011	3.0	230	1	59
2026-02-17T23:21	3.7	1011	3.0	230	1	60
2026-02-17T23:22	3.7	1011	3.0	230	1	60
2026-02-17T23:23	3.8	1011	3.1	230	1	60
2026-02-17T23:24	3.9	1011	3.2	230	1	60
2026-02-17T23:25	3.8	1011	3.1	230	1	60
2026-02-17T23:26	3.8	1011	3.1	230	1	60
2026-02-17T23:27	3.8	1011	3.1	230	1	60
2026-02-17T23:28	3.9	1011	3.2	240	1	60
2026-02-17T23:29	3.9	1011	3.2	240	1	60
2026-02-17T23:30	4.0	1011	3.3	240	1	59
2026-02-17T23:31	3.9	1011	3.3	240	1	59
2026-02-17T23:32	4.0	1011	3.4	240	1	59
2026-02-17T23:33	4.0	1011	3.4	250	1	59
2026-02-17T23:34	3.9	1011	3.3	250	1	59
2026-02-17T23:35	3.9	1011	3.3	250	1	59
2026-02-17T23:36	4.0	1011	3.4	260	1	59
2026-02-17T23:37	3.9	1011	3.3	260	1	59
2026-02-17T23:38	3.9	1010	3.2	270	1	59
2026-02-17T23:39	4.0	1010	3.4	270	1	59
2026-02-17T23:40	3.9	1010	3.3	270	1	59
2026-02-17T23:41	4.0	1010	3.3	280	1	60
2026-02-17T23:42	4.0	1010	3.3	280	1	60
2026-02-17T23:43	4.1	1010	3.4	290	1	60
2026-02-17T23:44	4.2	1010	3.5	290	1	60
2026-02-17T23:45	4.1	1010	3.5	300	1	60
2026-02-17T23:46	4.2	1010	3.5	300	1	60
2026-02-17T23:47	4.2	1010	3.6	300	1	60
2026-02-17T23:48	4.2	1010	3.5	310	1	60
2026-02-17T23:49	4.2	1010	3.5	310	1	60
2026-02-17T23:50	4.3	1010	3.6	310	1	60
2026-02-17T23:51	4.2	1010	3.3	310	1	60
2026-02-17T23:52	4.3	1010	3.4	310	1	60
2026-02-17T23:53	4.4	1010	3.5	310	2	60
2026-02-17T23:54	4.3	1010	3.4	310	2	60
2026-02-17T23:55	4.3	1010	3.3	310	2	60
2026-02-17T23:56	4.4	1010	3.4	310	2	61
2026-02-17T23:57	4.4	1010	3.5	310	2	61
2026-02-17T23:58	4.4	1010	3.4	310	2	61
2026-02-17T23:59	4.3	1010	3.1	310	2	62
2026-02-18T00:00	4.5	1010	3.3	310	2	62
2026-02-18T00:01	4.7	1010	3.7	300	2	61
2026-02-18T00:02	4.6	1010	3.6	300	2	62
2026-02-18T00:03	4.5	1010	3.3	300	2	62
2026-02-18T00:04	4.7	1010	3.5	300	2	62
2026-02-18T00:05	4.6	1010	3.6	300	2	62
2026-02-18T00:06	4.7	1010	3.7	310	2	62
2026-02-18T00:07	4.6	1010	3.4	310	2	62
2026-02-18T00:08	4.8	1010	3.5	310	2	62
2026-02-18T00:09	4.8	1010	3.6	300	2	63
2026-02-18T00:10	4.8	1010	3.6	310	2	63
2026-02-18T00:11	4.8	1010	3.5	310	2	63
2026-02-18T00:12	5.0	1010	3.8	310	2	63
2026-02-18T00:13	4.8	1010	3.6	310	2	63
2026-02-18T00:14	4.9	1010	3.6	310	2	64
2026-02-18T00:15	4.9	1010	3.6	310	2	64
2026-02-18T00:16	5.0	1010	3.7	300	2	64
2026-02-18T00:17	5.0	1010	3.5	310	2	64
2026-02-18T00:18	5.0	1010	3.4	310	2	64
2026-02-18T00:19	5.0	1010	3.2	300	2	64
2026-02-18T00:20	5.1	1010	3.3	310	2	65
2026-02-18T00:21	5.0	1010	3.0	310	2	65
2026-02-18T00:22	5.2	1010	3.2	310	2	66
2026-02-18T00:23	5.2	1010	3.4	310	2	66
2026-02-18T00:24	5.2	1010	3.4	320	2	67
2026-02-18T00:25	5.2	1010	3.1	310	2	68
2026-02-18T00:26	5.3	1010	3.3	310	2	68
2026-02-18T00:27	5.3	1010	3.2	310	2	68
2026-02-18T00:28	5.3	1010	3.2	320	2	69
2026-02-18T00:29	5.4	1010	3.3	320	2	68
2026-02-18T00:30	5.3	1010	3.0	320	2	69
2026-02-18T00:31	5.5	1010	3.2	320	2	69
2026-02-18T00:32	5.5	1010	3.5	310	2	69
2026-02-18T00:33	5.4	1010	2.9	320	2	69
2026-02-18T00:34	5.5	1010	2.7	320	2	69
2026-02-18T00:35	5.7	1010	3.2	320	2	68
2026-02-18T00:36	5.8	1010	3.1	320	2	68
2026-02-18T00:37	6.2	1010	3.7	330	2	68
2026-02-18T00:38	6.2	1010	3.5	330	2	68
2026-02-18T00:39	6.4	1010	3.6	330	2	68
2026-02-18T00:40	6.6	1010	3.8	330	2	68
2026-02-18T00:41	6.5	1010	3.3	330	2	69
2026-02-18T00:42	6.6	1010	3.4	330	2	70
2026-02-18T00:43	6.6	1010	3.2	330	3	70
2026-02-18T00:44	6.8	1010	3.4	340	3	70
2026-02-18T00:45	7.0	1010	3.6	340	3	70
2026-02-18T00:46	7.1	1010	3.7	330	3	69
2026-02-18T00:47	7.2	1010	3.5	330	3	70
2026-02-18T00:48	7.4	1010	3.6	330	3	70
2026-02-18T00:49	7.6	1010	4.0	330	3	70
2026-02-18T00:50	7.2	1010	2.7	330	3	70
2026-02-18T00:51	7.3	1010	2.8	320	3	70
2026-02-18T00:52	7.6	1010	3.3	320	3	70
2026-02-18T00:53	7.6	1010	3.3	320	3	70
2026-02-18T00:54	7.5	1010	2.8	320	3	70
2026-02-18T00:55	7.5	1010	2.8	320	3	70
2026-02-18T00:56	7.7	1010	3.2	320	3	70
2026-02-18T00:57	8.1	1010	4.1	320	3	70
2026-02-18T00:58	7.7	1010	2.8	320	3	70
2026-02-18T00:59	7.5	1010	2.6	320	3	70
2026-02-18T01:00	7.4	1010	2.7	310	3	70
2026-02-18T01:01	7.2	1010	2.5	310	2	70
2026-02-18T01:02	7.1	1010	2.4	310	3	70
2026-02-18T01:03	7.0	1010	2.3	310	3	70
2026-02-18T01:04	6.8	1010	1.9	310	3	70
2026-02-18T01:05	6.9	1010	2.0	320	3	70
2026-02-18T01:06	7.0	1010	2.7	320	3	70
2026-02-18T01:07	6.9	1010	2.4	330	3	70
2026-02-18T01:08	7.1	1010	2.6	330	3	70
2026-02-18T01:09	7.4	1010	3.3	330	3	70
2026-02-18T01:10	7.4	1010	3.1	320	3	70
2026-02-18T01:11	7.2	1010	2.3	320	2	70
2026-02-18T01:12	7.5	1010	3.0	320	2	70
2026-02-18T01:13	7.8	1009	3.5	320	2	70
2026-02-18T01:14	8.0	1009	3.5	310	2	70
2026-02-18T01:15	7.8	1009	2.9	310	2	70
2026-02-18T01:16	7.6	1009	2.3	310	2	70
2026-02-18T01:17	7.4	1009	2.1	310	2	70
2026-02-18T01:18	7.4	1009	2.3	310	2	70
2026-02-18T01:19	7.5	1009	2.2	320	2	70
2026-02-18T01:20	7.9	1009	3.0	320	2	70
2026-02-18T01:21	7.7	1009	2.4	320	2	70
2026-02-18T01:22	7.8	1009	2.7	320	2	70
2026-02-18T01:23	7.9	1009	2.8	320	2	70
2026-02-18T01:24	7.7	1009	2.4	330	2	70
2026-02-18T01:25	8.1	1009	3.2	330	2	70
2026-02-18T01:26	8.0	1009	2.9	340	2	70
2026-02-18T01:27	8.0	1009	2.9	330	2	70
2026-02-18T01:28	8.1	1009	3.2	320	2	70
2026-02-18T01:29	7.9	1009	2.6	320	2	70
2026-02-18T01:30	7.9	1009	2.6	320	2	70
2026-02-18T01:31	8.2	1009	3.3	310	2	70
2026-02-18T01:32	8.2	1009	3.1	310	2	70
2026-02-18T01:33	8.4	1009	3.5	310	2	70
2026-02-18T01:34	8.7	1009	3.6	310	2	70
2026-02-18T01:35	8.7	1009	3.3	310	2	70
2026-02-18T01:36	8.5	1009	2.7	300	2	70
2026-02-18T01:37	8.2	1009	2.2	310	2	70
2026-02-18T01:38	8.5	1009	3.2	310	2	70
2026-02-18T01:39	8.3	1009	2.3	320	2	70
2026-02-18T01:40	8.2	1009	2.2	320	2	70
2026-02-18T01:41	8.1	1009	2.4	330	2	70
2026-02-18T01:42	7.9	1009	2.2	330	2	70
2026-02-18T01:43	8.0	1009	2.3	330	2	70
2026-02-18T01:44	8.1	1009	2.6	330	2	70
2026-02-18T01:45	8.4	1009	3.3	320	2	70
2026-02-18T01:46	8.4	1009	3.1	310	1	70
2026-02-18T01:47	8.6	1009	3.2	310	1	70
2026-02-18T01:48	9.0	1009	3.8	290	1	70
2026-02-18T01:49	9.5	1009	4.5	290	1	70
2026-02-18T01:50	9.1	1009	3.3	280	1	70
2026-02-18T01:51	8.4	1009	2.0	280	1	70
2026-02-18T01:52	7.9	1009	1.7	60	1	70
2026-02-18T01:53	7.8	1009	2.1	30	1	70
2026-02-18T01:54	7.7	1009	2.0	260	0	70
2026-02-18T01:55	7.8	1009	2.3	280	0	70
2026-02-18T01:56	8.0	1009	2.5	300	0	70
2026-02-18T01:57	8.3	1009	3.0	240	0	70
2026-02-18T01:58	8.2	1009	2.9	80	0	70
2026-02-18T01:59	8.2	1008	2.7	70	1	70
2026-02-18T02:00	8.1	1008	2.4	40	1	70
2026-02-18T02:01	8.2	1008	2.7	350	1	70
2026-02-18T02:02	8.0	1008	2.3	340	1	70
2026-02-18T02:03	8.2	1008	2.7	350	1	70
2026-02-18T02:04	8.4	1008	2.9	20	2	70
2026-02-18T02:05	8.5	1008	2.9	30	2	70
2026-02-18T02:06	8.6	1008	3.0	20	2	70
2026-02-18T02:07	8.4	1008	2.6	20	2	70
2026-02-18T02:08	8.3	1008	2.5	10	2	70
2026-02-18T02:09	8.4	1008	2.9	20	2	70
2026-02-18T02:10	8.5	1008	3.2	30	2	70
2026-02-18T02:11	8.7	1008	3.3	40	2	70
2026-02-18T02:12	8.5	1008	2.7	50	1	70
2026-02-18T02:13	8.7	1008	2.9	50	1	70
2026-02-18T02:14	8.9	1008	3.1	40	1	70
2026-02-18T02:15	8.8	1008	2.8	30	1	70
2026-02-18T02:16	9.4	1008	3.8	30	1	70
2026-02-18T02:17	10.0	1008	4.4	280	1	70
2026-02-18T02:18	9.8	1008	3.6	250	1	70
2026-02-18T02:19	9.5	1008	2.8	290	1	70
2026-02-18T02:20	9.5	1008	3.0	270	1	70
2026-02-18T02:21	9.2	1008	2.5	270	1	70
2026-02-18T02:22	9.6	1008	3.4	270	1	70
2026-02-18T02:23	9.0	1008	2.3	280	1	70
2026-02-18T02:24	9.7	1008	3.5	290	1	70
2026-02-18T02:25	9.8	1008	3.3	300	1	70
2026-02-18T02:26	10.0	1008	3.5	330	1	70
2026-02-18T02:27	9.4	1008	2.5	10	1	70
2026-02-18T02:28	9.0	1008	2.3	20	1	70
2026-02-18T02:29	9.7	1008	3.7	30	1	70
2026-02-18T02:30	10.2	1008	4.1	30	1	70
2026-02-18T02:31	9.3	1008	2.4	30	1	70
2026-02-18T02:32	9.0	1008	2.3	30	1	70
2026-02-18T02:33	9.6	1008	3.4	40	1	70
2026-02-18T02:34	9.7	1008	3.2	50	1	70
2026-02-18T02:35	9.5	1008	3.0	60	1	70
2026-02-18T02:36	9.3	1008	2.6	60	1	70
2026-02-18T02:37	9.2	1008	2.8	50	1	70
2026-02-18T02:38	9.3	1008	2.9	30	2	70
2026-02-18T02:39	8.9	1008	2.3	10	2	70
2026-02-18T02:40	8.9	1008	2.7	360	2	70
2026-02-18T02:41	8.9	1007	2.7	360	2	70
2026-02-18T02:42	8.8	1007	2.6	360	2	70
2026-02-18T02:43	8.7	1007	2.5	350	2	70
2026-02-18T02:44	8.9	1007	2.9	350	2	70
2026-02-18T02:45	8.9	1007	2.9	340	2	70
2026-02-18T02:46	8.9	1007	2.7	330	2	70
2026-02-18T02:47	9.0	1007	2.8	330	2	70
2026-02-18T02:48	9.2	1007	3.0	330	2	70
2026-02-18T02:49	9.5	1007	3.3	330	2	70
2026-02-18T02:50	9.3	1007	2.9	340	2	70
2026-02-18T02:51	9.4	1007	2.9	360	2	70
2026-02-18T02:52	9.2	1007	2.5	360	1	70
2026-02-18T02:53	9.3	1007	2.6	80	1	70
2026-02-18T02:54	9.6	1007	3.1	310	1	70
2026-02-18T02:55	9.9	1007	3.4	290	1	70
2026-02-18T02:56	9.6	1007	2.7	160	1	70
2026-02-18T02:57	9.4	1007	2.5	170	1	70
2026-02-18T02:58	10.1	1007	3.6	240	1	70
2026-02-18T02:59	10.8	1007	4.3	280	1	70
2026-02-18T03:00	11.0	1007	4.0	280	1	70
2026-02-18T03:01	11.1	1007	3.9	280	1	70
2026-02-18T03:02	10.6	1007	3.2	270	1	70
2026-02-18T03:03	9.7	1007	2.1	280	1	70
2026-02-18T03:04	9.8	1007	2.6	290	2	70
2026-02-18T03:05	10.2	1007	3.3	300	2	70
2026-02-18T03:06	10.6	1007	3.6	300	2	70
2026-02-18T03:07	10.8	1007	3.6	310	2	70
2026-02-18T03:08	10.6	1007	3.2	310	2	70
2026-02-18T03:09	10.2	1007	2.6	300	2	70
2026-02-18T03:10	10.2	1007	2.8	300	2	70
2026-02-18T03:11	10.0	1007	2.6	300	2	70
2026-02-18T03:12	10.5	1007	3.5	310	2	70
2026-02-18T03:13	10.8	1007	3.6	310	2	70
2026-02-18T03:14	10.3	1007	2.9	320	2	70
2026-02-18T03:15	10.3	1006	2.9	330	2	70
2026-02-18T03:16	10.3	1006	2.9	340	2	70
2026-02-18T03:17	10.1	1006	2.7	360	2	70
2026-02-18T03:18	10.1	1006	2.7	20	2	70
2026-02-18T03:19	9.7	1006	2.3	30	2	70
2026-02-18T03:20	9.4	1006	2.0	30	2	70
2026-02-18T03:21	9.7	1006	2.6	40	2	70
2026-02-18T03:22	10.0	1006	3.1	40	2	70
2026-02-18T03:23	9.7	1006	2.6	30	2	70
2026-02-18T03:24	9.4	1006	2.3	30	2	70
2026-02-18T03:25	9.5	1006	2.6	30	2	70
2026-02-18T03:26	9.4	1006	2.3	30	2	70
2026-02-18T03:27	9.4	1006	2.5	20	1	70
2026-02-18T03:28	10.1	1006	3.4	20	1	70
2026-02-18T03:29	10.0	1006	2.8	10	1	70
2026-02-18T03:30	9.7	1006	2.3	360	1	70
2026-02-18T03:31	10.2	1006	3.0	350	1	70
2026-02-18T03:32	10.4	1006	3.2	340	1	70
2026-02-18T03:33	10.1	1006	2.7	330	1	70
2026-02-18T03:34	10.5	1006	3.3	330	1	70
2026-02-18T03:35	10.5	1006	3.1	320	1	70
2026-02-18T03:36	10.5	1006	3.1	300	1	70
2026-02-18T03:37	10.9	1006	3.5	300	1	70
2026-02-18T03:38	10.6	1006	2.9	290	1	70
2026-02-18T03:39	10.3	1006	2.4	290	1	70
2026-02-18T03:40	9.8	1006	2.2	300	2	70
2026-02-18T03:41	10.0	1006	2.6	300	2	70
2026-02-18T03:42	10.2	1006	3.0	310	2	70
2026-02-18T03:43	10.3	1006	2.9	300	1	70
2026-02-18T03:44	10.4	1006	3.0	290	1	70
2026-02-18T03:45	10.9	1006	3.5	290	1	70
2026-02-18T03:46	10.9	1006	3.2	290	1	70
2026-02-18T03:47	10.7	1006	2.8	310	1	70
2026-02-18T03:48	10.7	1006	2.8	320	1	70
2026-02-18T03:49	11.3	1006	3.4	320	1	70
2026-02-18T03:50	10.9	1006	2.7	320	1	70
2026-02-18T03:51	11.0	1006	2.8	310	1	70
2026-02-18T03:52	11.7	1006	3.7	310	1	70
2026-02-18T03:53	11.8	1005	3.3	310	2	70
2026-02-18T03:54	11.4	1005	2.7	310	2	70
2026-02-18T03:55	11.4	1005	3.0	300	2	70
2026-02-18T03:56	11.1	1005	2.4	290	2	70
2026-02-18T03:57	10.9	1005	2.2	270	2	70
2026-02-18T03:58	10.7	1005	2.0	260	2	70
2026-02-18T03:59	10.4	1005	2.0	250	2	70
2026-02-18T04:00	10.2	1005	1.8	250	2	70
2026-02-18T04:01	10.2	1005	1.8	240	2	70
2026-02-18T04:02	10.1	1005	1.5	230	2	70
2026-02-18T04:03	10.1	1005	1.7	230	2	70
2026-02-18T04:04	10.2	1005	1.8	240	2	70
2026-02-18T04:05	10.8	1005	2.6	240	1	70
2026-02-18T04:06	11.0	1005	2.6	240	1	70
2026-02-18T04:07	10.7	1005	1.8	240	1	70
2026-02-18T04:08	10.8	1005	1.9	240	1	70
2026-02-18T04:09	11.2	1005	2.3	230	1	70
2026-02-18T04:10	11.5	1005	2.3	230	1	70
2026-02-18T04:11	11.5	1005	2.3	230	1	70
2026-02-18T04:12	11.5	1005	2.3	230	1	70
2026-02-18T04:13	11.7	1005	2.5	230	1	70
2026-02-18T04:14	11.2	1005	1.5	230	1	70
2026-02-18T04:15	11.3	1005	1.8	230	2	70
2026-02-18T04:16	11.0	1005	1.5	230	2	70
2026-02-18T04:17	11.0	1005	1.8	230	2	70
2026-02-18T04:18	11.0	1005	1.8	230	2	70
2026-02-18T04:19	11.0	1005	1.8	240	2	70
2026-02-18T04:20	11.1	1005	1.9	240	3	70
2026-02-18T04:21	11.3	1005	2.1	240	3	70
2026-02-18T04:22	11.2	1005	2.0	230	3	70
2026-02-18T04:23	11.7	1005	2.7	220	3	70
2026-02-18T04:24	11.9	1005	2.6	220	3	70
2026-02-18T04:25	12.0	1005	2.2	220	3	70
2026-02-18T04:26	11.7	1005	1.6	210	3	70
2026-02-18T04:27	11.1	1005	0.8	210	2	70
2026-02-18T04:28	10.9	1005	0.9	200	2	70
2026-02-18T04:29	10.8	1005	1.1	190	2	70
2026-02-18T04:30	10.5	1005	1.1	180	2	70
2026-02-18T04:31	10.6	1005	1.7	160	2	70
2026-02-18T04:32	10.7	1004	1.8	170	2	70
2026-02-18T04:33	10.9	1004	1.7	190	2	70
2026-02-18T04:34	11.1	1004	1.9	200	2	70
2026-02-18T04:35	11.0	1004	1.5	190	2	70
2026-02-18T04:36	11.0	1004	1.3	190	2	70
2026-02-18T04:37	11.1	1004	1.6	190	2	70
2026-02-18T04:38	11.2	1004	1.7	190	2	70
2026-02-18T04:39	11.1	1004	1.6	210	2	70
2026-02-18T04:40	11.3	1004	1.8	220	2	70
2026-02-18T04:41	11.1	1004	1.6	230	3	70
2026-02-18T04:42	11.0	1004	1.5	230	3	70
2026-02-18T04:43	11.3	1004	2.1	230	3	70
2026-02-18T04:44	11.3	1004	1.8	220	3	70
2026-02-18T04:45	11.8	1004	2.5	210	3	70
2026-02-18T04:46	11.8	1004	2.3	210	3	70
2026-02-18T04:47	11.2	1004	1.5	210	2	70
2026-02-18T04:48	11.1	1004	1.4	210	2	70
2026-02-18T04:49	11.1	1004	1.6	200	2	70
2026-02-18T04:50	10.9	1004	1.4	200	2	70
2026-02-18T04:51	10.8	1004	1.4	190	2	70
2026-02-18T04:52	10.8	1004	1.6	190	2	70
2026-02-18T04:53	10.5	1004	1.3	190	2	70
2026-02-18T04:54	10.3	1004	1.2	200	2	70
2026-02-18T04:55	10.4	1004	1.5	210	2	70
2026-02-18T04:56	10.3	1004	1.7	220	2	70
2026-02-18T04:57	10.4	1004	1.8	220	2	70
2026-02-18T04:58	10.5	1004	1.9	220	2	70
2026-02-18T04:59	10.7	1004	2.0	230	2	70
2026-02-18T05:00	11.3	1004	2.9	220	2	70
2026-02-18T05:01	11.7	1004	3.0	220	2	70
2026-02-18T05:02	11.5	1004	2.0	210	2	70
2026-02-18T05:03	11.2	1004	1.5	200	2	70
2026-02-18T05:04	11.1	1004	1.6	190	2	70
2026-02-18T05:05	10.8	1004	1.6	180	2	70
2026-02-18T05:06	10.5	1004	1.3	170	2	70
2026-02-18T05:07	10.3	1004	1.4	160	2	70
2026-02-18T05:08	10.4	1004	1.5	160	2	70
2026-02-18T05:09	10.5	1004	1.9	160	2	70
2026-02-18T05:10	10.4	1004	1.8	170	2	70
2026-02-18T05:11	10.3	1004	1.7	170	2	70
2026-02-18T05:12	10.2	1004	1.6	180	2	70
2026-02-18T05:13	10.1	1004	1.5	180	2	70
2026-02-18T05:14	10.1	1004	1.5	190	1	70
2026-02-18T05:15	10.3	1004	1.9	190	2	70
2026-02-18T05:16	10.2	1004	1.8	200	2	70
2026-02-18T05:17	10.2	1004	1.8	200	2	70
2026-02-18T05:18	10.1	1004	1.5	200	1	70
2026-02-18T05:19	10.3	1004	1.9	200	1	70
2026-02-18T05:20	10.2	1004	1.8	200	1	70
2026-02-18T05:21	10.2	1004	1.8	200	1	70
2026-02-18T05:22	10.2	1004	1.8	190	1	70
2026-02-18T05:23	10.3	1004	1.9	190	1	70
2026-02-18T05:24	10.6	1004	2.2	180	1	70
2026-02-18T05:25	10.6	1004	1.9	180	1	70
2026-02-18T05:26	10.4	1004	1.8	170	1	70
2026-02-18T05:27	10.5	1004	1.9	160	1	70
2026-02-18T05:28	10.8	1004	2.1	150	1	70
2026-02-18T05:29	10.9	1004	2.0	140	1	70
2026-02-18T05:30	10.9	1004	2.0	130	1	70
2026-02-18T05:31	10.7	1004	1.5	120	1	70
2026-02-18T05:32	10.6	1004	1.4	120	1	70
2026-02-18T05:33	10.6	1004	1.7	110	1	70
2026-02-18T05:34	10.6	1004	1.7	100	1	70
2026-02-18T05:35	10.5	1004	1.6	100	1	70
2026-02-18T05:36	10.4	1004	1.5	100	1	70
2026-02-18T05:37	10.4	1004	1.8	100	1	70
2026-02-18T05:38	10.7	1004	2.0	100	1	70
2026-02-18T05:39	11.0	1004	2.3	100	1	70
2026-02-18T05:40	11.1	1004	2.2	270	1	70
2026-02-18T05:41	11.0	1004	1.8	270	1	70
2026-02-18T05:42	11.1	1004	1.9	210	1	70
2026-02-18T05:43	11.3	1004	2.1	240	1	70
2026-02-18T05:44	11.5	1004	2.0	220	1	70
2026-02-18T05:45	11.4	1004	1.9	210	1	70
2026-02-18T05:46	11.5	1004	1.7	210	1	70
2026-02-18T05:47	11.6	1004	1.8	230	1	70
2026-02-18T05:48	11.8	1004	1.7	200	1	70
2026-02-18T05:49	11.7	1004	1.6	180	1	70
2026-02-18T05:50	11.7	1004	1.4	170	1	70
2026-02-18T05:51	11.3	1004	1.0	160	1	70
2026-02-18T05:52	11.3	1004	1.3	160	1	70
2026-02-18T05:53	11.5	1004	1.7	160	1	70
2026-02-18T05:54	11.9	1004	2.1	170	2	70
2026-02-18T05:55	12.0	1004	1.9	180	2	70
2026-02-18T05:56	11.8	1004	1.4	180	2	70
2026-02-18T05:57	11.7	1004	1.4	180	2	70
2026-02-18T05:58	11.8	1004	1.4	190	2	70
2026-02-18T05:59	11.9	1004	1.5	190	2	70
2026-02-18T06:00	11.8	1004	1.4	200	3	70
2026-02-18T06:01	12.0	1004	1.6	200	3	70
2026-02-18T06:02	12.0	1004	1.3	210	3	70
2026-02-18T06:03	11.5	1004	0.9	210	3	70
2026-02-18T06:04	11.3	1004	0.7	220	3	70
2026-02-18T06:05	11.2	1004	0.6	220	3	70
2026-02-18T06:06	11.4	1004	1.1	220	3	70
2026-02-18T06:07	11.3	1004	1.0	230	3	70
2026-02-18T06:08	11.3	1004	1.0	230	3	70
2026-02-18T06:09	11.7	1004	1.6	230	3	70
2026-02-18T06:10	11.8	1004	1.4	230	3	70
2026-02-18T06:11	11.9	1004	1.5	230	2	70
2026-02-18T06:12	11.9	1004	1.3	230	3	70
2026-02-18T06:13	11.8	1004	1.2	230	3	70
2026-02-18T06:14	11.4	1004	0.8	240	3	70
2026-02-18T06:15	11.4	1004	1.1	240	3	70
2026-02-18T06:16	11.6	1004	1.3	240	3	70
2026-02-18T06:17	11.3	1004	0.7	240	2	70
2026-02-18T06:18	11.2	1004	0.6	240	3	70
2026-02-18T06:19	11.3	1004	1.0	240	3	70
2026-02-18T06:20	11.4	1003	1.1	240	3	70
2026-02-18T06:21	11.1	1003	0.5	240	3	70
2026-02-18T06:22	11.1	1003	0.5	240	2	70
2026-02-18T06:23	11.3	1003	1.0	240	2	70
2026-02-18T06:24	11.5	1003	1.2	240	2	70
2026-02-18T06:25	11.6	1003	1.3	240	2	70
2026-02-18T06:26	11.7	1003	1.4	240	2	70
2026-02-18T06:27	11.8	1003	1.4	240	2	70
2026-02-18T06:28	11.7	1003	1.4	230	2	70
2026-02-18T06:29	11.7	1003	1.4	230	2	70
2026-02-18T06:30	11.7	1003	1.6	220	2	70
2026-02-18T06:31	11.3	1003	1.0	210	2	70
2026-02-18T06:32	11.4	1003	1.4	210	2	70
2026-02-18T06:33	11.4	1003	1.4	210	2	70
2026-02-18T06:34	11.4	1003	1.4	200	2	70
2026-02-18T06:35	11.5	1003	1.5	200	2	70
2026-02-18T06:36	11.5	1003	1.5	190	2	70
2026-02-18T06:37	11.3	1003	1.0	190	2	70
2026-02-18T06:38	11.2	1003	0.9	190	2	70
2026-02-18T06:39	11.1	1003	0.8	190	2	70
2026-02-18T06:40	11.1	1003	0.8	200	2	70
2026-02-18T06:41	11.2	1003	0.9	210	2	70
2026-02-18T06:42	11.1	1003	0.8	210	2	70
2026-02-18T06:43	11.0	1003	0.7	210	2	70
2026-02-18T06:44	11.1	1003	1.1	210	2	70
2026-02-18T06:45	11.0	1003	0.7	220	2	70
2026-02-18T06:46	11.1	1003	0.8	220	2	70
2026-02-18T06:47	11.1	1003	0.8	220	2	70
2026-02-18T06:48	11.3	1003	1.3	220	2	70
2026-02-18T06:49	11.2	1003	0.9	220	2	70
2026-02-18T06:50	11.3	1003	1.3	210	2	70
2026-02-18T06:51	11.4	1003	1.4	200	2	70
2026-02-18T06:52	11.5	1003	1.5	200	2	70
2026-02-18T06:53	11.5	1003	1.2	200	2	70
2026-02-18T06:54	11.3	1003	1.0	200	2	70
2026-02-18T06:55	11.2	1003	0.9	210	2	70
2026-02-18T06:56	11.1	1003	0.8	210	2	70
2026-02-18T06:57	11.1	1003	1.1	210	2	70
2026-02-18T06:58	11.1	1003	1.1	210	2	70
2026-02-18T06:59	11.2	1003	1.2	220	2	70
2026-02-18T07:00	11.1	1003	1.1	230	2	70
2026-02-18T07:01	11.1	1003	1.1	230	2	70
2026-02-18T07:02	11.3	1003	1.3	230	2	70
2026-02-18T07:03	11.3	1003	1.3	230	2	70
2026-02-18T07:04	11.3	1003	1.3	230	2	70
2026-02-18T07:05	11.3	1003	1.3	230	2	70
2026-02-18T07:06	11.1	1003	0.8	240	2	70
2026-02-18T07:07	11.1	1003	0.8	240	2	70
2026-02-18T07:08	11.2	1003	0.9	240	2	70
2026-02-18T07:09	11.4	1003	1.4	230	2	70
2026-02-18T07:10	11.3	1003	1.3	220	2	70
2026-02-18T07:11	11.2	1003	1.2	220	2	70
2026-02-18T07:12	11.1	1003	0.8	220	2	70
2026-02-18T07:13	10.9	1003	0.3	220	2	70
2026-02-18T07:14	11.0	1003	0.7	210	2	70
2026-02-18T07:15	11.0	1003	1.0	210	2	70
2026-02-18T07:16	11.0	1003	0.7	200	2	70
2026-02-18T07:17	10.9	1003	0.6	200	2	70
2026-02-18T07:18	11.0	1003	0.7	200	2	70
2026-02-18T07:19	11.1	1003	0.8	200	2	70
2026-02-18T07:20	11.2	1003	0.9	210	2	70
2026-02-18T07:21	11.0	1003	0.4	210	2	70
2026-02-18T07:22	11.0	1003	0.7	210	2	70
2026-02-18T07:23	11.0	1003	0.4	200	2	70
2026-02-18T07:24	11.0	1003	0.7	200	2	70
2026-02-18T07:25	11.0	1003	0.7	200	2	70
2026-02-18T07:26	10.8	1003	0.3	190	2	70
2026-02-18T07:27	10.8	1003	0.3	190	2	70
2026-02-18T07:28	10.9	1003	0.3	190	2	70
2026-02-18T07:29	10.9	1003	0.6	190	2	70
2026-02-18T07:30	10.9	1003	0.3	190	2	70
2026-02-18T07:31	10.9	1003	0.1	190	2	70
2026-02-18T07:32	10.8	1003	0.0	190	2	70
2026-02-18T07:33	10.8	1003	0.0	200	2	70
2026-02-18T07:34	10.8	1003	0.0	200	2	70
2026-02-18T07:35	10.8	1003	0.3	210	2	70
2026-02-18T07:36	10.9	1003	0.3	210	2	70
2026-02-18T07:37	10.8	1003	0.0	210	2	70
2026-02-18T07:38	10.8	1003	0.3	210	2	70
2026-02-18T07:39	10.9	1003	0.3	210	2	70
2026-02-18T07:40	10.8	1003	0.3	210	2	70
2026-02-18T07:41	10.8	1003	0.3	210	2	70
2026-02-18T07:42	10.8	1003	0.3	210	2	70
2026-02-18T07:43	10.8	1003	0.5	220	2	70
2026-02-18T07:44	10.7	1003	0.4	220	2	70
2026-02-18T07:45	10.7	1003	0.4	220	2	70
2026-02-18T07:46	10.6	1003	0.4	220	2	70
2026-02-18T07:47	10.5	1003	0.5	220	2	70
2026-02-18T07:48	10.6	1003	0.6	220	2	70
2026-02-18T07:49	10.6	1003	0.6	220	2	70
2026-02-18T07:50	10.6	1003	0.6	220	2	70
2026-02-18T07:51	10.5	1003	0.5	230	2	70
2026-02-18T07:52	10.5	1003	0.5	220	2	70
2026-02-18T07:53	10.5	1003	0.5	220	2	70
2026-02-18T07:54	10.5	1003	0.5	220	2	70
2026-02-18T07:55	10.5	1003	0.5	230	2	70
2026-02-18T07:56	10.4	1003	0.4	230	2	70
2026-02-18T07:57	10.4	1003	0.4	230	2	70
2026-02-18T07:58	10.4	1003	0.4	230	2	70
2026-02-18T07:59	10.4	1003	0.4	230	2	70
2026-02-18T08:00	10.4	1003	0.4	230	2	70
2026-02-18T08:01	10.3	1003	0.4	230	2	70
2026-02-18T08:02	10.3	1003	0.6	230	2	70
2026-02-18T08:03	10.3	1003	0.6	230	2	70
2026-02-18T08:04	10.2	1003	0.5	230	2	70
2026-02-18T08:05	10.1	1003	0.7	230	2	70
2026-02-18T08:06	10.2	1003	0.8	230	2	70
2026-02-18T08:07	10.2	1003	0.8	230	2	70
2026-02-18T08:08	10.0	1003	0.6	230	2	70
2026-02-18T08:09	9.9	1003	0.8	230	2	70
2026-02-18T08:10	9.8	1003	0.7	230	2	70
2026-02-18T08:11	9.9	1003	0.8	230	2	70
2026-02-18T08:12	10.0	1003	0.9	230	2	70
2026-02-18T08:13	9.9	1003	0.8	230	2	70
2026-02-18T08:14	9.9	1003	0.8	230	2	70
2026-02-18T08:15	9.9	1003	0.8	230	1	70
2026-02-18T08:16	9.6	1003	0.8	230	1	70
2026-02-18T08:17	9.5	1003	0.7	230	1	70
2026-02-18T08:18	9.6	1003	0.8	230	1	70
2026-02-18T08:19	9.7	1003	0.9	230	1	70
2026-02-18T08:20	9.7	1003	0.9	230	1	70
2026-02-18T08:21	9.7	1003	0.9	230	1	70
2026-02-18T08:22	9.6	1003	0.8	230	1	70
2026-02-18T08:23	9.5	1003	0.9	230	1	70
2026-02-18T08:24	9.5	1003	0.9	230	1	70
2026-02-18T08:25	9.3	1003	0.7	230	1	70
2026-02-18T08:26	8.9	1003	0.4	230	1	70
2026-02-18T08:27	8.9	1003	0.6	230	1	70
2026-02-18T08:28	8.8	1003	0.8	230	1	70
2026-02-18T08:29	8.0	1003	0.3	230	1	70
2026-02-18T08:30	7.4	1003	0.4	220	1	70
2026-02-18T08:31	7.5	1003	1.6	220	1	70
2026-02-18T08:32	7.6	1003	1.9	220	1	70
2026-02-18T08:33	7.4	1003	1.1	220	1	70
2026-02-18T08:34	7.6	1003	1.0	220	1	70
2026-02-18T08:35	7.9	1003	1.5	220	1	70
2026-02-18T08:36	7.7	1003	1.1	230	0	70
2026-02-18T08:37	7.7	1003	1.1	230	0	70
2026-02-18T08:38	7.7	1003	1.1	230	0	70
2026-02-18T08:39	7.6	1003	1.0	230	0	70
2026-02-18T08:40	7.5	1003	0.9	230	0	70
2026-02-18T08:41	7.4	1003	1.1	240	0	70
2026-02-18T08:42	7.2	1003	1.1	240	0	70
2026-02-18T08:43	7.1	1003	1.2	240	0	70
2026-02-18T08:44	7.2	1003	1.5	240	0	70
2026-02-18T08:45	7.0	1003	1.5	240	0	70
2026-02-18T08:46	7.0	1003	1.5	240	0	70
2026-02-18T08:47	7.1	1003	1.6	0	0	70
2026-02-18T08:48	7.0	1003	1.5	0	0	70
2026-02-18T08:49	7.0	1003	1.3	0	0	70
2026-02-18T08:50	6.9	1003	1.6	0	0	70
2026-02-18T08:51	6.8	1003	1.3	0	0	70
2026-02-18T08:52	6.6	1003	1.5	270	0	70
2026-02-18T08:53	6.5	1003	1.4	290	0	70
2026-02-18T08:54	6.5	1003	1.4	300	0	70
2026-02-18T08:55	6.2	1003	1.3	310	1	70
2026-02-18T08:56	6.0	1003	1.7	330	1	70
2026-02-18T08:57	6.1	1003	1.8	340	1	70
2026-02-18T08:58	6.2	1003	1.7	350	1	70
2026-02-18T08:59	6.4	1003	1.7	350	1	70
2026-02-18T09:00	6.4	1003	1.7	360	1	70
2026-02-18T09:01	6.5	1003	1.8	360	1	70
2026-02-18T09:02	6.5	1003	1.8	10	1	70
2026-02-18T09:03	6.5	1003	1.4	10	1	70
2026-02-18T09:04	6.5	1003	1.2	20	1	70
2026-02-18T09:05	6.5	1003	1.4	20	1	70
2026-02-18T09:06	6.5	1003	1.4	20	0	70
2026-02-18T09:07	6.5	1003	1.4	20	0	70
2026-02-18T09:08	6.4	1003	1.5	20	0	70
2026-02-18T09:09	6.1	1003	1.3	20	0	70
2026-02-18T09:10	6.2	1003	1.5	0	0	70
2026-02-18T09:11	6.4	1003	1.5	0	0	70
2026-02-18T09:12	6.3	1003	1.2	0	0	70
2026-02-18T09:13	6.3	1004	1.0	0	0	70
2026-02-18T09:14	6.3	1004	1.0	0	0	70
2026-02-18T09:15	6.3	1004	1.0	0	0	70
2026-02-18T09:16	6.0	1004	1.0	0	0	70
2026-02-18T09:17	5.9	1004	0.9	0	0	70
2026-02-18T09:18	5.9	1004	1.1	0	0	70
2026-02-18T09:19	5.8	1004	1.0	0	0	70
2026-02-18T09:20	5.8	1004	1.2	0	0	70
2026-02-18T09:21	5.9	1004	1.3	0	0	70
2026-02-18T09:22	5.9	1004	1.3	0	0	70
2026-02-18T09:23	5.7	1004	1.1	0	0	70
2026-02-18T09:24	5.6	1004	1.2	0	0	70
2026-02-18T09:25	5.5	1004	1.1	0	0	70
2026-02-18T09:26	5.5	1004	1.1	0	0	70
2026-02-18T09:27	5.4	1004	1.0	0	0	70
2026-02-18T09:28	5.6	1004	1.2	0	0	70
2026-02-18T09:29	5.6	1004	1.2	0	0	70
2026-02-18T09:30	5.7	1004	1.1	0	0	70
2026-02-18T09:31	5.6	1004	1.0	0	0	70
2026-02-18T09:32	5.5	1004	1.1	0	0	70
2026-02-18T09:33	5.2	1004	0.8	310	0	70
2026-02-18T09:34	5.2	1004	1.0	300	0	70
2026-02-18T09:35	5.1	1004	0.9	300	0	70
2026-02-18T09:36	5.1	1004	1.0	290	1	70
2026-02-18T09:37	4.9	1004	0.9	290	1	70
2026-02-18T09:38	5.0	1004	1.0	290	1	70
2026-02-18T09:39	5.0	1004	1.0	290	1	70
2026-02-18T09:40	4.8	1004	0.8	290	1	70
2026-02-18T09:41	5.1	1004	1.2	290	1	70
2026-02-18T09:42	5.3	1004	1.4	300	1	70
2026-02-18T09:43	5.4	1004	1.3	300	1	70
2026-02-18T09:44	5.3	1004	1.2	310	1	70
2026-02-18T09:45	5.4	1004	1.2	310	1	70
2026-02-18T09:46	5.5	1004	1.2	320	1	70
2026-02-18T09:47	5.7	1004	1.4	320	1	70
2026-02-18T09:48	5.5	1004	1.1	320	1	70
2026-02-18T09:49	5.3	1004	0.9	320	1	70
2026-02-18T09:50	5.3	1004	1.1	330	1	70
2026-02-18T09:51	5.6	1004	1.3	320	1	70
2026-02-18T09:52	5.6	1004	1.3	320	1	70
2026-02-18T09:53	4.9	1004	0.7	320	1	70
2026-02-18T09:54	4.8	1004	0.9	320	1	70
2026-02-18T09:55	4.7	1004	1.0	320	1	70
2026-02-18T09:56	4.7	1004	1.0	320	1	70
2026-02-18T09:57	4.8	1004	0.9	310	1	70
2026-02-18T09:58	4.7	1004	0.8	310	1	70
2026-02-18T09:59	4.8	1004	1.1	310	1	70
2026-02-18T10:00	4.9	1004	1.2	310	1	70
2026-02-18T10:01	4.9	1004	1.0	310	1	70
2026-02-18T10:02	4.9	1004	1.0	300	1	70
2026-02-18T10:03	5.0	1004	1.3	300	1	70
2026-02-18T10:04	5.1	1004	1.2	300	1	70
2026-02-18T10:05	5.1	1004	1.0	290	1	70
2026-02-18T10:06	5.1	1004	1.0	290	1	70
2026-02-18T10:07	5.1	1004	1.0	280	1	70
2026-02-18T10:08	5.1	1004	1.0	280	0	70
2026-02-18T10:09	5.2	1004	1.1	270	0	70
2026-02-18T10:10	5.1	1004	1.0	270	0	70
2026-02-18T10:11	5.3	1004	1.2	0	0	70
2026-02-18T10:12	5.4	1004	1.2	0	0	70
2026-02-18T10:13	5.4	1004	1.2	0	0	70
2026-02-18T10:14	5.6	1004	1.2	0	0	70
2026-02-18T10:15	5.6	1004	1.2	0	0	70
2026-02-18T10:16	5.4	1004	1.0	0	0	70
2026-02-18T10:17	5.7	1004	1.3	0	0	70
2026-02-18T10:18	5.7	1004	1.3	0	0	70
2026-02-18T10:19	5.8	1004	1.2	0	0	70
2026-02-18T10:20	5.7	1004	1.1	0	0	70
2026-02-18T10:21	5.6	1004	1.0	0	0	70
2026-02-18T10:22	5.6	1004	1.0	310	0	70
2026-02-18T10:23	5.8	1004	1.2	320	0	70
2026-02-18T10:24	5.9	1004	1.4	330	1	70
2026-02-18T10:25	5.7	1004	1.3	330	1	70
2026-02-18T10:26	5.6	1004	1.2	340	1	70
2026-02-18T10:27	5.5	1004	1.2	340	1	70
2026-02-18T10:28	5.5	1004	1.6	350	1	70
2026-02-18T10:29	5.4	1004	1.7	350	1	70
2026-02-18T10:30	5.7	1004	2.0	350	1	70
2026-02-18T10:31	5.9	1004	1.8	350	1	70
2026-02-18T10:32	6.2	1004	1.5	350	1	70
2026-02-18T10:33	6.2	1004	1.3	350	1	70
2026-02-18T10:34	6.2	1004	1.3	340	1	70
2026-02-18T10:35	6.1	1004	1.3	340	1	70
2026-02-18T10:36	6.2	1004	1.3	340	1	70
2026-02-18T10:37	6.2	1005	1.3	330	1	70
2026-02-18T10:38	6.2	1005	1.3	330	1	70
2026-02-18T10:39	6.4	1005	1.3	320	1	70
2026-02-18T10:40	6.5	1005	1.4	320	1	70
2026-02-18T10:41	6.3	1005	1.4	310	1	70
2026-02-18T10:42	6.0	1005	1.5	310	1	70
2026-02-18T10:43	6.1	1005	1.6	300	1	70
2026-02-18T10:44	6.1	1005	1.8	300	1	70
2026-02-18T10:45	6.1	1005	2.0	300	1	70
2026-02-18T10:46	6.2	1005	2.1	290	1	70
2026-02-18T10:47	6.8	1005	2.3	280	1	70
2026-02-18T10:48	6.9	1005	2.0	280	2	70
2026-02-18T10:49	6.8	1005	1.9	270	2	70
2026-02-18T10:50	7.3	1005	2.0	270	2	70
2026-02-18T10:51	7.5	1005	1.8	260	2	70
2026-02-18T10:52	7.5	1005	1.8	260	2	70
2026-02-18T10:53	7.8	1005	1.9	250	3	70
2026-02-18T10:54	8.1	1005	1.9	250	3	70
2026-02-18T10:55	8.4	1005	1.6	240	3	70
2026-02-18T10:56	8.5	1005	1.4	250	3	70
2026-02-18T10:57	8.6	1005	1.1	250	4	70
2026-02-18T10:58	8.7	1005	0.7	250	4	70
2026-02-18T10:59	8.4	1005	0.9	240	4	70
2026-02-18T11:00	8.4	1005	0.9	240	4	70
2026-02-18T11:01	8.4	1005	0.6	240	4	70
2026-02-18T11:02	8.4	1005	0.9	240	4	70
2026-02-18T11:03	8.3	1005	0.8	240	5	70
2026-02-18T11:04	8.2	1005	0.9	240	5	70
2026-02-18T11:05	8.2	1005	0.9	240	5	70
2026-02-18T11:06	8.1	1005	1.0	240	4	70
2026-02-18T11:07	7.8	1005	1.0	240	4	70
2026-02-18T11:08	7.8	1005	1.2	240	4	70
2026-02-18T11:09	7.8	1005	1.2	240	4	70
2026-02-18T11:10	7.7	1005	1.3	240	4	70
2026-02-18T11:11	7.7	1005	1.3	250	4	70
2026-02-18T11:12	7.7	1005	1.3	250	3	70
2026-02-18T11:13	7.7	1005	1.3	250	3	70
2026-02-18T11:14	7.8	1005	1.4	250	3	70
2026-02-18T11:15	7.9	1005	1.5	250	3	70
2026-02-18T11:16	7.9	1005	1.5	250	3	70
2026-02-18T11:17	7.9	1005	1.3	250	2	70
2026-02-18T11:18	7.9	1005	1.5	250	2	70
2026-02-18T11:19	7.6	1005	1.2	250	2	70
2026-02-18T11:20	7.6	1005	1.5	250	2	70
2026-02-18T11:21	7.4	1005	1.3	250	2	70
2026-02-18T11:22	7.2	1005	1.3	250	2	70
2026-02-18T11:23	7.0	1005	1.3	250	2	70
2026-02-18T11:24	6.6	1005	1.3	260	2	70
2026-02-18T11:25	6.7	1005	1.4	270	2	70
2026-02-18T11:26	7.1	1005	1.6	280	1	70
2026-02-18T11:27	6.9	1005	1.6	280	1	70
2026-02-18T11:28	6.7	1005	1.4	290	1	70
2026-02-18T11:29	6.3	1005	1.2	300	1	70
2026-02-18T11:30	6.4	1005	1.3	310	1	70
2026-02-18T11:31	6.5	1005	1.4	320	1	70
2026-02-18T11:32	6.2	1005	1.1	330	1	70
2026-02-18T11:33	6.2	1005	1.5	330	1	70
2026-02-18T11:34	6.5	1005	2.0	340	1	70
2026-02-18T11:35	6.5	1005	1.8	340	1	70
2026-02-18T11:36	6.1	1005	1.6	340	1	70
2026-02-18T11:37	5.9	1005	1.4	350	1	70
2026-02-18T11:38	5.8	1005	1.3	360	1	70
2026-02-18T11:39	5.7	1005	1.6	360	1	70
2026-02-18T11:40	5.8	1005	1.7	350	1	70
2026-02-18T11:41	6.0	1005	1.7	350	1	70
2026-02-18T11:42	5.8	1005	1.5	350	1	70
2026-02-18T11:43	5.8	1005	1.3	340	1	70
2026-02-18T11:44	5.6	1005	1.3	330	1	70
2026-02-18T11:45	5.6	1006	1.3	330	1	70
2026-02-18T11:46	5.7	1006	1.4	320	2	70
2026-02-18T11:47	5.7	1006	1.6	310	2	70
2026-02-18T11:48	6.0	1006	1.5	300	2	70
2026-02-18T11:49	5.7	1006	1.3	300	2	70
2026-02-18T11:50	5.5	1006	1.2	300	2	70
2026-02-18T11:51	5.9	1006	1.6	300	2	70
2026-02-18T11:52	6.4	1006	1.9	300	2	70
2026-02-18T11:53	5.9	1006	1.3	300	2	70
2026-02-18T11:54	6.1	1006	1.6	300	2	70
2026-02-18T11:55	6.4	1006	1.7	300	2	70
2026-02-18T11:56	6.3	1006	1.4	300	1	70
2026-02-18T11:57	6.0	1006	1.2	300	1	70
2026-02-18T11:58	5.8	1006	1.2	300	1	70
2026-02-18T11:59	5.6	1006	1.3	310	1	70
2026-02-18T12:00	5.5	1006	1.2	310	1	70
2026-02-18T12:01	5.6	1006	1.5	310	1	70
2026-02-18T12:02	5.5	1006	1.4	310	1	70
2026-02-18T12:03	5.3	1006	1.2	320	1	70
2026-02-18T12:04	5.1	1006	1.4	320	1	70
2026-02-18T12:05	5.1	1006	1.6	320	2	70
2026-02-18T12:06	4.9	1006	1.4	320	2	70
2026-02-18T12:07	5.1	1006	1.8	330	2	70
2026-02-18T12:08	5.0	1006	1.5	320	2	70
2026-02-18T12:09	5.4	1006	1.7	320	2	70
2026-02-18T12:10	5.8	1006	1.9	320	2	70
2026-02-18T12:11	5.7	1006	1.6	320	2	70
2026-02-18T12:12	5.4	1006	1.3	320	2	70
2026-02-18T12:13	5.5	1006	1.6	320	2	70
2026-02-18T12:14	5.8	1006	1.9	320	2	70
2026-02-18T12:15	5.7	1006	1.6	320	3	70
2026-02-18T12:16	6.0	1006	1.9	320	3	70
2026-02-18T12:17	6.1	1006	2.0	320	3	70
2026-02-18T12:18	6.1	1006	1.8	320	3	70
2026-02-18T12:19	5.9	1006	1.6	320	3	70
2026-02-18T12:20	5.8	1006	1.5	320	2	70
2026-02-18T12:21	5.9	1006	1.8	320	2	70
2026-02-18T12:22	5.8	1006	1.7	320	2	70
2026-02-18T12:23	5.9	1006	1.8	320	2	70
2026-02-18T12:24	5.9	1006	1.8	320	2	70
2026-02-18T12:25	5.9	1006	1.8	320	2	70
2026-02-18T12:26	5.9	1006	1.8	320	2	70
2026-02-18T12:27	6.0	1006	1.9	320	2	70
2026-02-18T12:28	5.8	1006	1.7	310	2	70
2026-02-18T12:29	5.8	1006	1.9	320	2	70
2026-02-18T12:30	5.8	1006	1.9	310	2	70
2026-02-18T12:31	5.8	1006	1.9	310	2	70
2026-02-18T12:32	5.8	1006	1.9	310	2	70
2026-02-18T12:33	5.6	1006	1.7	300	2	70
2026-02-18T12:34	5.4	1006	1.7	300	2	70
2026-02-18T12:35	5.3	1006	1.8	300	2	70
2026-02-18T12:36	5.3	1006	1.8	300	2	70
2026-02-18T12:37	5.4	1006	1.9	300	2	70
2026-02-18T12:38	5.4	1006	1.9	310	2	70
2026-02-18T12:39	5.4	1006	1.9	310	3	70
2026-02-18T12:40	5.4	1006	1.7	310	3	70
2026-02-18T12:41	5.3	1006	1.6	310	3	70
2026-02-18T12:42	5.6	1006	1.7	310	3	70
2026-02-18T12:43	5.6	1006	1.5	320	3	70
2026-02-18T12:44	5.7	1006	1.4	320	3	70
2026-02-18T12:45	5.5	1006	1.2	320	3	70
2026-02-18T12:46	5.8	1006	1.3	320	2	70
2026-02-18T12:47	5.5	1006	1.1	320	2	70
2026-02-18T12:48	5.3	1006	1.1	320	2	70
2026-02-18T12:49	5.4	1006	1.2	320	2	70
2026-02-18T12:50	5.7	1006	1.3	320	2	70
2026-02-18T12:51	5.7	1006	0.9	320	2	70
2026-02-18T12:52	5.6	1006	0.8	320	2	70
2026-02-18T12:53	5.3	1006	0.5	320	2	70
2026-02-18T12:54	5.5	1006	0.7	320	2	70
2026-02-18T12:55	5.2	1006	0.6	320	2	70
2026-02-18T12:56	5.6	1006	0.8	320	2	70
2026-02-18T12:57	5.3	1006	0.5	310	2	70
2026-02-18T12:58	5.2	1006	0.4	310	2	70
2026-02-18T12:59	5.0	1006	0.4	310	2	70
2026-02-18T13:00	5.3	1006	0.5	310	2	70
2026-02-18T13:01	5.6	1006	0.4	300	2	70
2026-02-18T13:02	5.7	1006	0.3	300	2	70
2026-02-18T13:03	5.6	1006	0.0	300	2	70
2026-02-18T13:04	5.7	1006	-0.1	300	3	70
2026-02-18T13:05	5.6	1006	0.0	300	3	70
2026-02-18T13:06	5.8	1006	0.0	300	3	70
2026-02-18T13:07	5.8	1006	-0.2	300	3	70
2026-02-18T13:08	5.8	1007	-0.2	300	3	70
2026-02-18T13:09	5.5	1007	-0.5	300	3	70
2026-02-18T13:10	5.6	1007	-0.4	300	3	70
2026-02-18T13:11	5.6	1007	-0.4	300	3	70
2026-02-18T13:12	5.5	1007	-0.5	300	3	70
2026-02-18T13:13	5.3	1007	-0.7	300	3	70
2026-02-18T13:14	5.7	1007	-0.6	300	3	70
2026-02-18T13:15	5.8	1007	-0.7	300	3	70
2026-02-18T13:16	5.8	1007	-0.9	300	3	70
2026-02-18T13:17	5.7	1007	-1.0	290	3	70
2026-02-18T13:18	5.5	1007	-1.2	290	3	70
2026-02-18T13:19	5.5	1007	-1.2	290	3	70
2026-02-18T13:20	5.5	1007	-1.2	290	3	70
2026-02-18T13:21	5.4	1007	-1.3	290	3	70
2026-02-18T13:22	5.5	1007	-1.4	290	3	70
2026-02-18T13:23	5.2	1007	-1.5	290	4	70
2026-02-18T13:24	5.3	1007	-1.6	290	4	70
2026-02-18T13:25	5.5	1007	-1.4	290	4	70
2026-02-18T13:26	5.3	1007	-1.6	290	3	70
2026-02-18T13:27	5.5	1007	-1.6	290	3	70
2026-02-18T13:28	5.4	1007	-2.0	290	3	70
2026-02-18T13:29	5.4	1007	-2.0	290	3	70
2026-02-18T13:30	5.4	1007	-2.0	290	3	70
2026-02-18T13:31	5.5	1007	-2.1	290	3	70
2026-02-18T13:32	5.4	1007	-2.2	290	3	70
2026-02-18T13:33	5.4	1007	-2.4	290	3	70
2026-02-18T13:34	5.4	1007	-2.4	290	3	70
2026-02-18T13:35	5.2	1007	-2.6	290	3	70
2026-02-18T13:36	5.4	1007	-2.7	290	4	70
2026-02-18T13:37	5.4	1007	-2.7	280	4	70
2026-02-18T13:38	5.4	1007	-2.9	280	4	70
2026-02-18T13:39	5.4	1007	-2.9	280	4	70
2026-02-18T13:40	5.0	1007	-3.0	280	4	70
2026-02-18T13:41	5.0	1007	-3.0	280	4	70
2026-02-18T13:42	5.0	1007	-2.8	280	4	70
2026-02-18T13:43	4.8	1007	-3.0	290	3	70
2026-02-18T13:44	4.8	1007	-3.0	290	3	70
2026-02-18T13:45	4.8	1007	-3.0	300	3	70
2026-02-18T13:46	4.9	1007	-2.9	310	3	70
2026-02-18T13:47	5.1	1007	-2.5	310	3	70
2026-02-18T13:48	5.0	1007	-2.1	320	3	70
2026-02-18T13:49	5.3	1008	-1.6	320	3	70
2026-02-18T13:50	5.2	1008	-1.7	330	3	70
2026-02-18T13:51	5.0	1008	-1.9	330	3	70
2026-02-18T13:52	5.1	1008	-1.8	330	3	70
2026-02-18T13:53	5.2	1008	-1.7	320	3	70
2026-02-18T13:54	5.3	1008	-1.4	320	3	70
2026-02-18T13:55	5.3	1008	-1.4	320	3	70
2026-02-18T13:56	5.2	1008	-1.5	310	3	70
2026-02-18T13:57	4.8	1008	-1.6	310	3	70
2026-02-18T13:58	5.0	1008	-1.4	310	2	70
2026-02-18T13:59	5.0	1008	-1.2	300	2	70
2026-02-18T14:00	5.1	1008	-1.1	300	2	70
2026-02-18T14:01	4.9	1008	-1.3	300	2	70
2026-02-18T14:02	4.9	1008	-1.3	300	2	70
2026-02-18T14:03	4.7	1008	-1.5	300	3	70
2026-02-18T14:04	4.7	1008	-1.5	300	3	70
2026-02-18T14:05	4.7	1008	-1.3	290	3	70
2026-02-18T14:06	4.9	1008	-1.3	300	3	70
2026-02-18T14:07	5.0	1008	-1.2	300	3	70
2026-02-18T14:08	4.6	1008	-1.6	300	3	70
2026-02-18T14:09	4.6	1008	-1.4	300	3	70
2026-02-18T14:10	4.8	1008	-1.4	300	3	70
2026-02-18T14:11	4.9	1008	-1.3	300	3	70
2026-02-18T14:12	4.5	1008	-1.5	300	2	70
2026-02-18T14:13	4.8	1008	-1.4	300	2	70
2026-02-18T14:14	4.5	1008	-1.5	300	2	70
2026-02-18T14:15	4.6	1008	-1.4	300	2	70
2026-02-18T14:16	4.4	1008	-1.6	300	2	70
2026-02-18T14:17	4.5	1008	-1.5	300	2	70
2026-02-18T14:18	4.7	1008	-1.3	310	2	70
2026-02-18T14:19	4.8	1008	-1.2	310	2	70
2026-02-18T14:20	4.9	1008	-1.3	310	2	70
2026-02-18T14:21	4.8	1008	-1.4	310	2	70
2026-02-18T14:22	4.8	1008	-1.4	310	2	70
2026-02-18T14:23	4.7	1008	-1.5	310	2	70
2026-02-18T14:24	4.8	1008	-1.2	310	2	70
2026-02-18T14:25	4.6	1008	-1.4	310	2	70
2026-02-18T14:26	4.5	1008	-1.5	310	2	70
2026-02-18T14:27	4.2	1008	-1.6	310	2	70
2026-02-18T14:28	4.4	1008	-1.4	310	2	70
2026-02-18T14:29	4.4	1008	-1.2	310	2	70
2026-02-18T14:30	4.3	1008	-1.3	310	1	70
2026-02-18T14:31	4.5	1008	-1.1	310	2	70
2026-02-18T14:32	4.5	1008	-1.3	310	2	70
2026-02-18T14:33	4.4	1008	-1.4	310	2	70
2026-02-18T14:34	4.2	1008	-1.4	310	1	70
2026-02-18T14:35	4.2	1008	-1.4	310	1	70
2026-02-18T14:36	4.1	1008	-1.5	310	1	70
2026-02-18T14:37	4.2	1008	-1.4	310	1	70
2026-02-18T14:38	3.8	1008	-1.6	310	1	70
2026-02-18T14:39	4.2	1008	-1.4	320	1	70
2026-02-18T14:40	3.9	1008	-1.7	320	2	70
2026-02-18T14:41	3.9	1008	-1.5	320	2	70
2026-02-18T14:42	4.1	1008	-1.5	320	2	70
2026-02-18T14:43	4.0	1008	-1.6	320	2	70
2026-02-18T14:44	4.1	1008	-1.5	320	2	70
2026-02-18T14:45	4.0	1008	-1.6	320	2	70
2026-02-18T14:46	4.3	1008	-1.5	310	2	70
2026-02-18T14:47	4.3	1008	-1.5	310	2	70
2026-02-18T14:48	4.1	1009	-1.7	310	2	70
2026-02-18T14:49	4.1	1009	-1.9	310	2	70
2026-02-18T14:50	3.9	1009	-1.9	300	2	70
2026-02-18T14:51	3.8	1009	-1.8	300	2	70
2026-02-18T14:52	3.9	1009	-1.7	300	1	70
2026-02-18T14:53	3.9	1009	-1.7	300	1	70
2026-02-18T14:54	4.2	1009	-1.4	300	2	70
2026-02-18T14:55	4.0	1009	-1.8	300	2	70
2026-02-18T14:56	4.2	1009	-1.6	310	2	70
2026-02-18T14:57	4.0	1009	-1.8	310	2	70
2026-02-18T14:58	3.6	1009	-1.9	310	2	70
2026-02-18T14:59	3.9	1009	-1.5	310	2	70
2026-02-18T15:00	4.2	1009	-1.4	310	2	70
2026-02-18T15:01	4.2	1009	-1.6	310	2	70
2026-02-18T15:02	3.8	1009	-1.8	310	2	70
2026-02-18T15:03	3.7	1009	-1.8	310	2	70
2026-02-18T15:04	3.8	1009	-1.6	310	2	70
2026-02-18T15:05	4.0	1009	-1.6	310	2	70
2026-02-18T15:06	4.2	1009	-1.6	310	2	70
2026-02-18T15:07	4.3	1009	-1.5	310	2	70
2026-02-18T15:08	4.1	1009	-1.9	320	2	70
2026-02-18T15:09	4.2	1009	-1.8	320	2	70
2026-02-18T15:10	4.0	1009	-2.0	320	2	70
2026-02-18T15:11	4.3	1009	-1.7	320	2	70
2026-02-18T15:12	4.1	1009	-1.9	320	2	70
2026-02-18T15:13	4.2	1009	-1.8	320	2	70
2026-02-18T15:14	4.3	1009	-1.7	320	2	70
2026-02-18T15:15	4.2	1009	-2.0	320	2	70
2026-02-18T15:16	4.2	1009	-2.0	310	2	70
2026-02-18T15:17	3.9	1009	-2.1	310	2	70
2026-02-18T15:18	3.9	1009	-1.9	310	2	70
2026-02-18T15:19	3.9	1009	-1.9	300	2	70
2026-02-18T15:20	3.9	1009	-1.7	300	2	70
2026-02-18T15:21	3.7	1009	-1.8	290	2	70
2026-02-18T15:22	3.4	1009	-1.9	290	2	70
2026-02-18T15:23	3.2	1009	-1.9	290	2	70
2026-02-18T15:24	3.1	1009	-2.0	290	2	70
2026-02-18T15:25	2.6	1009	-2.3	290	2	70
2026-02-18T15:26	3.0	1009	-1.7	300	2	70
2026-02-18T15:27	2.7	1009	-1.8	300	2	70
2026-02-18T15:28	2.7	1009	-1.8	310	2	70
2026-02-18T15:29	2.7	1008	-1.6	310	2	70
2026-02-18T15:30	2.7	1008	-1.5	320	2	70
2026-02-18T15:31	2.4	1008	-1.7	320	2	70
2026-02-18T15:32	2.5	1008	-1.7	330	2	70
2026-02-18T15:33	2.4	1008	-1.7	330	2	70
2026-02-18T15:34	2.7	1008	-1.5	330	3	70
2026-02-18T15:35	2.5	1008	-1.8	330	3	70
2026-02-18T15:36	3.0	1008	-1.5	330	3	70
2026-02-18T15:37	3.1	1008	-1.6	330	3	70
2026-02-18T15:38	3.5	1008	-1.4	330	3	70
2026-02-18T15:39	3.8	1009	-1.6	330	3	70
2026-02-18T15:40	3.7	1009	-1.8	330	3	70
2026-02-18T15:41	3.8	1009	-2.0	320	3	70
2026-02-18T15:42	3.8	1009	-2.2	320	3	70
2026-02-18T15:43	3.7	1009	-2.3	310	3	70
2026-02-18T15:44	3.7	1009	-2.5	310	3	70
2026-02-18T15:45	3.5	1009	-2.7	310	3	70
2026-02-18T15:46	3.3	1009	-3.1	300	3	70
2026-02-18T15:47	3.3	1009	-3.1	300	3	70
2026-02-18T15:48	3.5	1009	-3.3	300	3	70
2026-02-18T15:49	3.6	1009	-3.4	300	3	70
2026-02-18T15:50	3.3	1009	-3.7	300	3	70
2026-02-18T15:51	3.5	1009	-3.7	300	3	70
2026-02-18T15:52	3.3	1009	-4.2	300	3	70
2026-02-18T15:53	3.3	1009	-4.2	300	3	70
2026-02-18T15:54	3.3	1009	-4.6	300	3	70
2026-02-18T15:55	3.4	1009	-5.0	300	3	70
2026-02-18T15:56	3.2	1009	-5.2	300	3	70
2026-02-18T15:57	3.3	1009	-5.3	300	3	70
2026-02-18T15:58	3.3	1009	-5.9	310	4	70
2026-02-18T15:59	3.5	1009	-5.9	310	4	70
2026-02-18T16:00	3.4	1009	-6.3	310	4	70
2026-02-18T16:01	3.4	1009	-6.3	310	4	70
2026-02-18T16:02	3.4	1009	-6.6	310	4	70
2026-02-18T16:03	3.3	1009	-6.7	310	4	70
2026-02-18T16:04	3.5	1009	-7.0	310	4	70
2026-02-18T16:05	3.7	1009	-7.4	310	4	70
2026-02-18T16:06	3.8	1009	-7.9	310	4	70
2026-02-18T16:07	3.7	1009	-8.0	310	5	70
2026-02-18T16:08	3.7	1009	-8.0	310	5	70
2026-02-18T16:09	3.8	1009	-8.2	310	5	70
2026-02-18T16:10	3.9	1009	-8.5	310	5	70
2026-02-18T16:11	3.9	1009	-8.5	310	5	70
2026-02-18T16:12	3.9	1009	-8.5	300	5	70
2026-02-18T16:13	3.7	1009	-8.3	300	5	70
2026-02-18T16:14	3.7	1009	-8.6	300	5	70
2026-02-18T16:15	3.8	1009	-8.6	300	5	70
2026-02-18T16:16	3.9	1009	-8.8	300	5	70
2026-02-18T16:17	3.8	1009	-8.9	300	5	70
2026-02-18T16:18	3.9	1009	-9.1	310	5	70
2026-02-18T16:19	3.8	1009	-8.9	310	5	70
2026-02-18T16:20	3.6	1009	-9.1	310	6	70
2026-02-18T16:21	3.8	1009	-9.2	310	6	70
2026-02-18T16:22	3.9	1009	-9.4	310	6	70
2026-02-18T16:23	3.8	1009	-9.5	310	6	70
2026-02-18T16:24	3.9	1009	-9.4	310	6	70
2026-02-18T16:25	3.8	1009	-9.5	310	6	70
2026-02-18T16:26	3.8	1009	-9.5	310	6	70
2026-02-18T16:27	3.6	1009	-9.7	310	6	70
2026-02-18T16:28	3.6	1009	-9.7	310	6	70
2026-02-18T16:29	3.6	1009	-9.7	310	6	70
2026-02-18T16:30	3.4	1009	-9.6	310	6	70
2026-02-18T16:31	3.5	1009	-9.5	310	6	70
2026-02-18T16:32	3.5	1009	-9.5	310	6	70
2026-02-18T16:33	3.5	1009	-9.8	310	6	70
2026-02-18T16:34	3.6	1009	-10.1	310	6	70
2026-02-18T16:35	3.6	1009	-9.7	310	6	70
2026-02-18T16:36	3.6	1009	-10.1	310	6	70
2026-02-18T16:37	3.6	1009	-10.1	310	6	70
2026-02-18T16:38	3.5	1009	-10.1	310	6	70
2026-02-18T16:39	3.6	1009	-10.1	310	6	70
2026-02-18T16:40	3.5	1009	-10.1	310	6	70
2026-02-18T16:41	3.4	1009	-9.9	310	5	70
2026-02-18T16:42	3.4	1009	-9.9	310	6	70
2026-02-18T16:43	3.4	1009	-9.9	310	5	70
2026-02-18T16:44	3.4	1009	-10.2	310	5	70
2026-02-18T16:45	3.4	1009	-9.9	310	5	70
2026-02-18T16:46	3.4	1009	-10.2	310	5	70
2026-02-18T16:47	3.4	1009	-10.2	310	5	70
2026-02-18T16:48	3.4	1009	-10.2	310	5	70
2026-02-18T16:49	3.4	1009	-10.2	310	6	70
2026-02-18T16:50	3.5	1009	-10.1	310	6	70
2026-02-18T16:51	3.5	1009	-10.1	310	6	70
2026-02-18T16:52	3.4	1009	-10.2	310	6	70
2026-02-18T16:53	3.3	1009	-10.3	310	5	70
2026-02-18T16:54	3.1	1009	-10.2	310	5	70
2026-02-18T16:55	3.2	1009	-10.1	310	5	70
2026-02-18T16:56	3.3	1009	-10.0	310	5	70
2026-02-18T16:57	3.3	1009	-10.0	310	5	70
2026-02-18T16:58	3.2	1009	-10.1	310	5	70
2026-02-18T16:59	3.3	1009	-10.3	310	5	70
2026-02-18T17:00	3.3	1009	-10.3	310	5	70
2026-02-18T17:01	3.4	1009	-10.2	310	5	70
2026-02-18T17:02	3.3	1009	-10.3	310	5	70
2026-02-18T17:03	3.3	1009	-10.3	310	5	70
2026-02-18T17:04	3.3	1009	-10.3	310	5	70
2026-02-18T17:05	3.3	1009	-10.3	310	5	70
2026-02-18T17:06	3.3	1009	-10.3	310	5	70
2026-02-18T17:07	3.3	1009	-10.3	310	5	70
2026-02-18T17:08	3.3	1009	-10.3	310	5	70
2026-02-18T17:09	3.2	1009	-10.4	310	5	70
2026-02-18T17:10	3.3	1009	-10.3	310	5	70
2026-02-18T17:11	3.2	1009	-10.4	310	5	70
2026-02-18T17:12	3.2	1009	-10.4	310	5	70
2026-02-18T17:13	3.3	1009	-10.7	300	5	70
2026-02-18T17:14	3.2	1009	-10.8	300	5	70
2026-02-18T17:15	3.3	1009	-10.7	300	5	70
2026-02-18T17:16	3.3	1009	-10.7	300	5	70
2026-02-18T17:17	3.3	1009	-10.7	300	5	70
2026-02-18T17:18	3.3	1009	-10.7	290	5	70
2026-02-18T17:19	3.2	1009	-10.8	290	5	70
2026-02-18T17:20	3.0	1009	-10.6	300	5	70
2026-02-18T17:21	3.1	1009	-10.5	290	5	70
2026-02-18T17:22	3.3	1009	-10.3	290	5	70
2026-02-18T17:23	3.3	1009	-10.7	300	5	70
2026-02-18T17:24	3.3	1009	-10.7	300	5	70
2026-02-18T17:25	3.4	1009	-11.0	300	5	70
2026-02-18T17:26	3.2	1009	-10.8	300	5	70
2026-02-18T17:27	3.2	1009	-10.8	300	5	70
2026-02-18T17:28	3.3	1009	-10.7	310	6	70
2026-02-18T17:29	3.3	1009	-10.7	310	5	70
2026-02-18T17:30	3.3	1009	-11.1	310	5	70
2026-02-18T17:31	3.2	1009	-10.8	310	5	70
2026-02-18T17:32	3.3	1009	-10.7	310	5	70
2026-02-18T17:33	3.3	1009	-10.7	310	5	70
2026-02-18T17:34	3.3	1009	-10.7	310	5	70
2026-02-18T17:35	3.1	1009	-10.9	320	5	70
2026-02-18T17:36	3.2	1009	-10.8	320	5	70
2026-02-18T17:37	3.3	1010	-10.7	320	5	70
2026-02-18T17:38	3.3	1010	-11.1	320	5	70
2026-02-18T17:39	3.2	1010	-10.8	320	5	70
2026-02-18T17:40	3.2	1010	-10.8	320	5	70
2026-02-18T17:41	3.0	1010	-10.6	320	6	70
2026-02-18T17:42	3.0	1010	-10.6	310	6	70
2026-02-18T17:43	3.0	1010	-10.6	310	6	70
2026-02-18T17:44	3.0	1010	-10.6	310	6	70
2026-02-18T17:45	2.9	1010	-10.3	310	6	70
2026-02-18T17:46	3.0	1010	-10.6	310	6	70
2026-02-18T17:47	3.1	1010	-10.5	300	6	70
2026-02-18T17:48	2.9	1010	-10.3	300	6	70
2026-02-18T17:49	3.0	1010	-10.3	300	6	70
2026-02-18T17:50	3.1	1010	-10.5	300	6	70
2026-02-18T17:51	3.0	1010	-10.6	290	6	70
2026-02-18T17:52	2.9	1010	-10.3	290	6	70
2026-02-18T17:53	2.9	1010	-10.3	290	6	70
2026-02-18T17:54	2.9	1010	-10.7	280	6	70
2026-02-18T17:55	2.9	1010	-10.3	280	6	70
2026-02-18T17:56	2.7	1010	-10.5	280	6	70
2026-02-18T17:57	2.8	1010	-10.4	280	6	70
2026-02-18T17:58	2.7	1010	-10.5	270	6	70
2026-02-18T17:59	2.8	1010	-10.4	270	6	70
2026-02-18T18:00	2.8	1010	-10.4	270	6	70
2026-02-18T18:01	2.8	1010	-10.4	270	6	70
2026-02-18T18:02	2.9	1010	-10.7	270	6	70
2026-02-18T18:03	3.0	1010	-10.6	270	6	70
2026-02-18T18:04	3.0	1010	-10.6	270	5	70
2026-02-18T18:05	2.7	1010	-10.9	270	5	70
2026-02-18T18:06	2.8	1010	-10.8	270	5	70
2026-02-18T18:07	2.9	1010	-10.7	260	5	70
2026-02-18T18:08	2.8	1010	-10.8	270	4	70
2026-02-18T18:09	2.8	1010	-10.8	260	4	70
2026-02-18T18:10	2.8	1010	-10.8	260	4	70
2026-02-18T18:11	2.7	1010	-10.5	260	4	70
2026-02-18T18:12	2.6	1010	-10.6	260	4	70
2026-02-18T18:13	2.6	1011	-10.6	270	4	70
2026-02-18T18:14	2.5	1011	-10.4	260	4	70
2026-02-18T18:15	2.6	1011	-10.3	260	4	70
2026-02-18T18:16	2.6	1011	-10.3	260	4	70
2026-02-18T18:17	2.6	1011	-10.3	260	5	70
2026-02-18T18:18	2.4	1011	-10.5	260	4	70
2026-02-18T18:19	2.5	1011	-10.4	260	4	70
2026-02-18T18:20	2.1	1010	-10.4	270	4	70
2026-02-18T18:21	1.8	1010	-10.0	270	4	70
2026-02-18T18:22	1.8	1010	-9.7	270	4	70
2026-02-18T18:23	2.0	1010	-9.9	270	4	70
2026-02-18T18:24	2.2	1010	-10.0	270	5	70
2026-02-18T18:25	2.1	1010	-9.8	270	4	70
2026-02-18T18:26	1.9	1010	-9.9	270	5	70
2026-02-18T18:27	2.1	1010	-10.1	270	4	70
2026-02-18T18:28	2.2	1010	-10.0	270	4	70
2026-02-18T18:29	2.2	1010	-10.0	270	4	70
2026-02-18T18:30	2.0	1010	-9.9	270	4	70
2026-02-18T18:31	2.1	1010	-10.1	280	5	70
2026-02-18T18:32	2.3	1010	-9.9	280	5	70
2026-02-18T18:33	2.2	1010	-10.0	280	5	70
2026-02-18T18:34	2.3	1010	-10.2	280	5	70
2026-02-18T18:35	2.4	1010	-10.1	280	5	70
2026-02-18T18:36	2.4	1010	-10.1	280	5	70
2026-02-18T18:37	2.4	1010	-10.5	280	5	70
2026-02-18T18:38	2.3	1011	-10.2	280	5	70
2026-02-18T18:39	2.4	1011	-10.5	280	5	70
2026-02-18T18:40	2.5	1011	-10.4	290	5	70
2026-02-18T18:41	2.4	1011	-10.5	290	5	70
2026-02-18T18:42	2.5	1011	-10.4	290	5	70
2026-02-18T18:43	2.5	1011	-10.4	290	5	70
2026-02-18T18:44	2.3	1011	-10.5	290	4	70
2026-02-18T18:45	2.3	1011	-10.5	300	4	70
2026-02-18T18:46	2.1	1011	-10.4	300	3	70
2026-02-18T18:47	2.3	1011	-10.2	300	3	70
2026-02-18T18:48	2.2	1011	-10.3	310	3	70
2026-02-18T18:49	2.2	1011	-10.3	310	3	70
2026-02-18T18:50	2.0	1011	-10.2	310	3	70
2026-02-18T18:51	2.2	1011	-10.0	320	2	70
2026-02-18T18:52	2.2	1011	-10.3	320	2	70
2026-02-18T18:53	2.0	1011	-10.2	320	2	70
2026-02-18T18:54	1.9	1011	-10.3	320	2	70
2026-02-18T18:55	2.0	1011	-10.2	320	2	70
2026-02-18T18:56	1.7	1011	-10.1	320	2	70
2026-02-18T18:57	1.9	1011	-9.9	320	2	70
2026-02-18T18:58	2.0	1011	-9.9	310	2	70
2026-02-18T18:59	2.0	1011	-10.2	310	2	70
2026-02-18T19:00	2.0	1011	-9.9	300	2	70
2026-02-18T19:01	2.0	1011	-9.9	300	2	70
2026-02-18T19:02	1.8	1011	-10.0	300	2	70
2026-02-18T19:03	1.6	1011	-9.9	290	2	70
2026-02-18T19:04	1.5	1011	-10.0	290	2	70
2026-02-18T19:05	1.6	1011	-9.9	280	2	70
2026-02-18T19:06	1.6	1011	-9.9	280	2	70
2026-02-18T19:07	1.3	1011	-9.9	280	2	70
2026-02-18T19:08	1.4	1011	-9.8	280	2	70
2026-02-18T19:09	1.4	1011	-9.8	290	2	70
2026-02-18T19:10	1.3	1011	-9.6	290	3	70
2026-02-18T19:11	1.4	1011	-9.8	290	3	70
2026-02-18T19:12	1.3	1011	-9.6	290	3	70
2026-02-18T19:13	1.3	1011	-9.6	290	3	70
2026-02-18T19:14	1.2	1011	-9.4	290	3	70
2026-02-18T19:15	1.3	1011	-9.6	290	3	70
2026-02-18T19:16	1.1	1011	-9.5	290	3	70
2026-02-18T19:17	0.9	1011	-9.4	290	3	70
2026-02-18T19:18	0.9	1011	-9.1	290	3	70
2026-02-18T19:19	0.8	1011	-9.2	290	3	70
2026-02-18T19:20	0.9	1011	-9.1	290	3	70
2026-02-18T19:21	0.6	1011	-9.4	280	3	70
2026-02-18T19:22	0.8	1011	-9.2	280	3	70
2026-02-18T19:23	1.0	1011	-9.3	280	3	70
2026-02-18T19:24	1.4	1011	-9.2	280	3	70
2026-02-18T19:25	1.4	1011	-9.5	280	3	70
2026-02-18T19:26	1.3	1011	-9.6	280	3	70
2026-02-18T19:27	1.4	1011	-9.5	280	3	70
2026-02-18T19:28	1.3	1011	-9.6	280	3	70
2026-02-18T19:29	1.2	1011	-9.7	280	3	70
2026-02-18T19:30	1.3	1011	-9.6	280	3	70
2026-02-18T19:31	1.3	1011	-9.6	290	3	70
2026-02-18T19:32	1.3	1011	-9.6	290	3	70
2026-02-18T19:33	1.2	1011	-9.4	290	3	70
2026-02-18T19:34	1.5	1011	-9.4	290	3	70
2026-02-18T19:35	1.6	1011	-9.3	290	3	70
2026-02-18T19:36	1.5	1011	-9.4	290	3	70
2026-02-18T19:37	1.4	1011	-9.8	290	3	70
2026-02-18T19:38	1.2	1011	-9.7	290	2	70
2026-02-18T19:39	1.4	1011	-9.5	300	2	70
2026-02-18T19:40	1.4	1011	-9.5	300	2	70
2026-02-18T19:41	0.9	1011	-9.7	300	2	70
2026-02-18T19:42	0.9	1012	-9.7	300	2	70
2026-02-18T19:43	1.2	1012	-9.4	300	2	70
2026-02-18T19:44	1.4	1012	-9.5	300	2	70
2026-02-18T19:45	1.5	1012	-9.4	300	2	70
2026-02-18T19:46	1.6	1012	-9.6	300	2	70
2026-02-18T19:47	1.2	1011	-9.4	300	2	70
2026-02-18T19:48	1.3	1011	-9.3	300	2	70
2026-02-18T19:49	1.2	1012	-9.4	300	2	70
2026-02-18T19:50	1.1	1012	-9.5	290	2	70
2026-02-18T19:51	1.1	1012	-9.5	290	2	70
2026-02-18T19:52	1.2	1012	-9.4	290	2	70
2026-02-18T19:53	1.1	1012	-9.5	280	2	70
2026-02-18T19:54	1.0	1012	-9.6	280	2	70
2026-02-18T19:55	1.0	1012	-9.6	280	2	70
2026-02-18T19:56	1.2	1012	-9.4	280	2	70
2026-02-18T19:57	1.1	1012	-9.5	280	2	70
2026-02-18T19:58	0.9	1012	-9.7	280	2	70
2026-02-18T19:59	0.9	1012	-9.7	280	2	70
2026-02-18T20:00	1.1	1012	-9.5	280	2	70
2026-02-18T20:01	1.1	1012	-9.5	280	2	70
2026-02-18T20:02	1.1	1012	-9.5	280	2	70
2026-02-18T20:03	1.2	1012	-9.4	280	2	70
2026-02-18T20:04	1.4	1012	-9.5	270	2	70
2026-02-18T20:05	1.4	1012	-9.5	270	2	70
2026-02-18T20:06	1.2	1012	-9.7	270	1	70
2026-02-18T20:07	0.7	1012	-9.9	260	1	70
2026-02-18T20:08	0.3	1012	-9.9	260	1	70
2026-02-18T20:09	0.4	1012	-9.6	250	1	70
2026-02-18T20:10	0.4	1012	-9.6	250	1	70
2026-02-18T20:11	0.3	1012	-9.4	250	1	70
2026-02-18T20:12	0.5	1012	-9.2	250	1	70
2026-02-18T20:13	0.5	1012	-9.2	240	1	70
2026-02-18T20:14	0.3	1012	-9.4	240	1	70
2026-02-18T20:15	0.1	1012	-9.6	240	1	70
2026-02-18T20:16	-0.1	1012	-9.5	240	1	70
2026-02-18T20:17	-0.1	1012	-9.5	250	1	70
2026-02-18T20:18	-0.2	1012	-9.1	250	1	70
2026-02-18T20:19	-0.2	1012	-7.9	250	1	70
2026-02-18T20:20	-0.4	1012	-7.0	250	2	70
2026-02-18T20:21	-0.6	1012	-7.2	250	2	70
2026-02-18T20:22	-0.5	1012	-8.0	250	2	70
2026-02-18T20:23	-0.6	1012	-8.3	260	2	70
2026-02-18T20:24	-0.7	1012	-8.4	260	2	70
2026-02-18T20:25	-1.0	1012	-8.4	260	2	70
2026-02-18T20:26	-0.9	1012	-8.8	260	2	70
2026-02-18T20:27	-0.9	1012	-9.0	270	2	70
2026-02-18T20:28	-1.0	1012	-8.9	270	2	70
2026-02-18T20:29	-1.2	1012	-8.8	270	2	70
2026-02-18T20:30	-0.9	1012	-8.6	270	2	70
2026-02-18T20:31	-0.8	1012	-8.5	280	2	70
2026-02-18T20:32	-0.5	1012	-8.4	280	2	70
2026-02-18T20:33	-0.5	1012	-8.7	280	2	70
2026-02-18T20:34	-0.1	1012	-8.5	280	2	70
2026-02-18T20:35	-0.2	1012	-8.9	280	2	70
2026-02-18T20:36	0.0	1012	-8.7	280	2	70
2026-02-18T20:37	-0.2	1012	-8.9	280	2	70
2026-02-18T20:38	0.2	1012	-8.7	280	2	70
2026-02-18T20:39	0.2	1012	-9.0	280	2	70
2026-02-18T20:40	0.0	1012	-9.2	280	2	70
2026-02-18T20:41	0.0	1012	-9.2	280	2	70
2026-02-18T20:42	0.1	1012	-9.1	280	2	70
2026-02-18T20:43	-0.4	1012	-9.3	270	2	70
2026-02-18T20:44	-0.1	1012	-9.0	270	2	70
2026-02-18T20:45	-0.3	1012	-9.0	270	2	70
2026-02-18T20:46	-0.3	1012	-9.0	270	2	70
2026-02-18T20:47	-0.1	1012	-8.8	270	2	70
2026-02-18T20:48	-0.5	1012	-9.1	270	2	70
2026-02-18T20:49	-0.3	1012	-8.7	270	2	70
2026-02-18T20:50	0.1	1012	-8.8	270	2	70
2026-02-18T20:51	0.1	1012	-8.8	270	2	70
2026-02-18T20:52	0.0	1012	-8.9	270	2	70
2026-02-18T20:53	-0.2	1012	-9.1	270	2	70
2026-02-18T20:54	-0.3	1012	-9.0	270	2	70
2026-02-18T20:55	-0.1	1012	-8.8	280	2	70
2026-02-18T20:56	-0.3	1012	-9.0	280	3	70
2026-02-18T20:57	-0.4	1012	-8.8	280	3	70
2026-02-18T20:58	-0.4	1012	-8.8	280	3	70
2026-02-18T20:59	-0.5	1012	-8.9	280	3	70
2026-02-18T21:00	-0.1	1012	-8.5	280	3	70
2026-02-18T21:01	0.0	1012	-8.7	280	3	70
2026-02-18T21:02	-0.1	1012	-9.0	280	3	70
2026-02-18T21:03	0.3	1012	-8.6	280	3	70
2026-02-18T21:04	0.6	1012	-8.6	280	3	70
2026-02-18T21:05	0.8	1012	-9.0	280	3	70
2026-02-18T21:06	0.6	1012	-9.1	280	2	70
2026-02-18T21:07	0.6	1012	-9.1	280	2	70
2026-02-18T21:08	0.7	1012	-9.3	280	2	70
2026-02-18T21:09	0.8	1012	-9.2	280	2	70
2026-02-18T21:10	0.8	1012	-9.2	280	2	70
2026-02-18T21:11	0.6	1012	-9.1	280	3	70
2026-02-18T21:12	0.9	1012	-9.1	280	2	70
2026-02-18T21:13	0.6	1012	-9.1	280	2	70
2026-02-18T21:14	0.9	1012	-9.1	280	2	70
2026-02-18T21:15	0.8	1012	-9.2	280	2	70
2026-02-18T21:16	0.7	1012	-9.3	270	2	70
2026-02-18T21:17	0.6	1012	-9.4	270	3	70
2026-02-18T21:18	0.7	1012	-9.3	270	3	70
2026-02-18T21:19	0.8	1012	-9.2	270	3	70
2026-02-18T21:20	0.6	1012	-9.4	270	3	70
2026-02-18T21:21	0.5	1012	-9.2	270	2	70
2026-02-18T21:22	0.6	1012	-9.1	270	2	70
2026-02-18T21:23	0.7	1012	-9.3	270	3	70
2026-02-18T21:24	0.8	1012	-9.2	280	3	70
2026-02-18T21:25	0.5	1012	-9.5	280	3	70
2026-02-18T21:26	0.3	1012	-9.4	280	3	70
2026-02-18T21:27	0.7	1012	-9.3	280	2	70
2026-02-18T21:28	0.1	1012	-9.6	280	2	70
2026-02-18T21:29	0.0	1012	-9.2	280	2	70
2026-02-18T21:30	0.1	1012	-9.1	280	2	70
2026-02-18T21:31	0.2	1012	-9.0	280	2	70
2026-02-18T21:32	0.3	1012	-8.9	280	2	70
2026-02-18T21:33	0.2	1012	-9.2	290	2	70
2026-02-18T21:34	0.5	1012	-9.0	290	2	70
2026-02-18T21:35	0.1	1012	-9.1	290	2	70
2026-02-18T21:36	0.0	1012	-9.2	280	2	70
2026-02-18T21:37	0.3	1012	-9.2	280	2	70
2026-02-18T21:38	0.5	1012	-9.0	280	2	70
2026-02-18T21:39	0.4	1012	-9.1	280	2	70
2026-02-18T21:40	0.5	1012	-9.0	290	2	70
2026-02-18T21:41	0.4	1012	-9.3	280	2	70
2026-02-18T21:42	0.0	1012	-9.2	290	2	70
2026-02-18T21:43	0.4	1013	-9.1	290	2	70
2026-02-18T21:44	0.0	1013	-9.2	290	2	70
2026-02-18T21:45	0.2	1013	-9.0	290	2	70
2026-02-18T21:46	0.4	1013	-9.1	290	2	70
2026-02-18T21:47	0.5	1013	-9.0	290	2	70
2026-02-18T21:48	0.3	1013	-9.2	290	2	70
2026-02-18T21:49	0.1	1013	-9.1	290	2	70
2026-02-18T21:50	-0.2	1013	-9.1	290	2	70
2026-02-18T21:51	0.2	1013	-8.7	290	2	70
2026-02-18T21:52	0.0	1013	-8.9	290	2	70
2026-02-18T21:53	0.3	1013	-8.6	290	2	70
2026-02-18T21:54	0.2	1013	-8.7	290	2	70
2026-02-18T21:55	0.5	1013	-8.7	290	2	70
2026-02-18T21:56	0.7	1013	-8.8	290	2	70
2026-02-18T21:57	0.7	1013	-8.8	290	2	70
2026-02-18T21:58	0.8	1013	-8.7	290	2	70
2026-02-18T21:59	1.0	1013	-8.8	290	2	70
2026-02-18T22:00	0.9	1013	-8.9	290	2	70
2026-02-18T22:01	0.9	1013	-8.6	290	2	70
2026-02-18T22:02	1.0	1013	-8.8	290	2	70
2026-02-18T22:03	1.0	1013	-8.8	280	3	70
2026-02-18T22:04	1.3	1013	-8.8	280	3	70
2026-02-18T22:05	1.3	1013	-8.8	280	3	70
2026-02-18T22:06	1.4	1013	-8.7	280	3	70
2026-02-18T22:07	1.4	1013	-8.7	280	3	70
2026-02-18T22:08	1.3	1013	-8.8	280	3	70
2026-02-18T22:09	1.4	1013	-8.7	280	3	70
2026-02-18T22:10	1.4	1013	-8.7	280	3	70
2026-02-18T22:11	1.6	1013	-8.5	280	3	70
2026-02-18T22:12	1.6	1013	-8.8	290	3	70
2026-02-18T22:13	1.8	1013	-8.6	290	3	70
2026-02-18T22:14	1.7	1013	-8.4	290	3	70
2026-02-18T22:15	1.7	1013	-8.7	290	3	70
2026-02-18T22:16	1.8	1013	-8.6	290	3	70
2026-02-18T22:17	1.9	1013	-8.5	290	3	70
2026-02-18T22:18	1.9	1013	-8.8	290	3	70
2026-02-18T22:19	1.9	1013	-8.8	290	3	70
2026-02-18T22:20	1.9	1013	-8.5	290	2	70
2026-02-18T22:21	2.0	1013	-8.4	290	2	70
2026-02-18T22:22	2.1	1013	-8.6	290	2	70
2026-02-18T22:23	2.1	1013	-8.6	290	2	70
2026-02-18T22:24	2.1	1013	-8.3	280	2	70
2026-02-18T22:25	2.2	1013	-8.5	280	2	70
2026-02-18T22:26	2.3	1013	-8.4	280	2	70
2026-02-18T22:27	2.2	1013	-8.2	280	3	70
2026-02-18T22:28	2.3	1013	-8.1	280	3	70
2026-02-18T22:29	2.3	1014	-8.4	280	3	70
2026-02-18T22:30	2.3	1014	-8.4	280	3	70
2026-02-18T22:31	2.3	1014	-8.4	280	4	70
2026-02-18T22:32	2.4	1014	-8.3	280	4	70
2026-02-18T22:33	2.4	1014	-8.6	280	4	70
2026-02-18T22:34	2.5	1014	-8.2	280	4	70
2026-02-18T22:35	2.5	1014	-8.2	280	4	70
2026-02-18T22:36	2.6	1014	-8.4	280	4	70
2026-02-18T22:37	2.5	1014	-8.5	280	4	70
2026-02-18T22:38	2.5	1014	-8.5	280	4	70
2026-02-18T22:39	2.6	1014	-8.4	280	4	70
2026-02-18T22:40	2.6	1014	-8.4	280	4	70
2026-02-18T22:41	2.7	1014	-8.0	280	3	70
2026-02-18T22:42	2.7	1014	-8.3	280	4	70
2026-02-18T22:43	2.7	1014	-8.3	280	3	70
2026-02-18T22:44	2.7	1014	-8.0	280	3	70
2026-02-18T22:45	2.8	1014	-8.2	280	3	70
2026-02-18T22:46	2.9	1014	-7.9	270	3	70
2026-02-18T22:47	2.9	1014	-7.9	270	3	70
2026-02-18T22:48	3.0	1014	-8.1	270	3	70
2026-02-18T22:49	3.0	1014	-8.1	270	4	70
2026-02-18T22:50	2.9	1014	-8.1	280	4	70
2026-02-18T22:51	3.0	1014	-8.4	280	4	70
2026-02-18T22:52	3.0	1014	-8.4	280	4	70
2026-02-18T22:53	2.9	1014	-8.4	280	4	70
2026-02-18T22:54	3.0	1014	-8.1	280	4	70
2026-02-18T22:55	3.2	1014	-7.6	280	4	70
2026-02-18T22:56	3.2	1014	-7.9	280	4	70
2026-02-18T22:57	3.2	1014	-7.9	280	5	70
2026-02-18T22:58	3.2	1014	-8.2	280	5	70
2026-02-18T22:59	3.2	1014	-8.2	280	5	70
2026-02-18T23:00	3.2	1014	-8.2	280	5	70
2026-02-18T23:01	3.2	1014	-7.9	280	4	70
2026-02-18T23:02	3.2	1014	-8.2	280	4	70
2026-02-18T23:03	3.4	1014	-7.7	280	4	70
2026-02-18T23:04	3.4	1013	-7.7	280	5	70
2026-02-18T23:05	3.4	1013	-7.7	280	5	70
2026-02-18T23:06	3.4	1014	-8.0	280	5	70
2026-02-18T23:07	3.3	1013	-8.1	280	5	70
2026-02-18T23:08	3.4	1013	-8.0	280	5	70
2026-02-18T23:09	3.5	1013	-7.6	280	5	70
2026-02-18T23:10	3.4	1013	-8.0	290	5	70
2026-02-18T23:11	3.3	1013	-8.1	280	5	70
2026-02-18T23:12	3.4	1013	-8.0	290	5	70
2026-02-18T23:13	3.5	1013	-7.9	280	5	70
2026-02-18T23:14	3.7	1013	-7.4	290	5	70
2026-02-18T23:15	3.6	1013	-7.8	290	5	70
2026-02-18T23:16	3.6	1013	-7.8	290	5	70
2026-02-18T23:17	3.6	1013	-7.8	290	5	70
2026-02-18T23:18	3.7	1014	-7.7	290	4	70
2026-02-18T23:19	3.6	1014	-7.8	290	4	70
2026-02-18T23:20	3.7	1014	-7.7	290	4	70
2026-02-18T23:21	3.8	1014	-7.6	290	4	70
2026-02-18T23:22	3.8	1014	-7.9	290	4	70
2026-02-18T23:23	3.9	1014	-7.5	300	4	70
2026-02-18T23:24	3.9	1014	-7.5	300	3	70
2026-02-18T23:25	3.9	1014	-7.5	300	3	70
2026-02-18T23:26	4.0	1014	-7.4	300	3	70
2026-02-18T23:27	4.0	1014	-7.7	300	3	70
2026-02-18T23:28	4.1	1014	-7.7	290	3	70
2026-02-18T23:29	4.2	1014	-7.3	290	4	70
2026-02-18T23:30	4.2	1014	-7.6	290	4	70
2026-02-18T23:31	4.0	1014	-7.7	290	4	70
2026-02-18T23:32	4.0	1014	-7.7	290	4	70
2026-02-18T23:33	4.1	1014	-7.7	290	4	70
2026-02-18T23:34	4.0	1014	-8.1	280	4	70
2026-02-18T23:35	3.9	1014	-8.1	280	5	70
2026-02-18T23:36	4.0	1014	-8.1	280	5	70
2026-02-18T23:37	4.0	1014	-8.1	280	5	70
2026-02-18T23:38	4.1	1014	-8.0	280	5	70
2026-02-18T23:39	4.1	1014	-8.0	290	5	70
2026-02-18T23:40	4.1	1014	-8.0	280	5	70
2026-02-18T23:41	4.5	1014	-7.0	280	5	70
2026-02-18T23:42	4.4	1014	-7.4	280	5	70
2026-02-18T23:43	4.4	1014	-7.7	280	5	70
2026-02-18T23:44	4.4	1014	-7.7	280	4	70
2026-02-18T23:45	4.5	1014	-7.6	280	4	70
2026-02-18T23:46	4.4	1014	-8.0	290	4	70
2026-02-18T23:47	4.7	1014	-7.4	280	3	70
2026-02-18T23:48	4.7	1014	-7.7	290	3	70
2026-02-18T23:49	4.7	1014	-7.7	290	4	70
2026-02-18T23:50	4.5	1014	-8.2	290	4	70
2026-02-18T23:51	4.5	1014	-8.2	290	4	70
2026-02-18T23:52	4.6	1014	-7.8	290	4	70
2026-02-18T23:53	4.8	1014	-7.7	290	4	70
2026-02-18T23:54	4.9	1014	-7.9	290	4	70
2026-02-18T23:55	4.8	1014	-8.0	290	4	70
2026-02-18T23:56	4.8	1014	-8.3	280	5	70
2026-02-18T23:57	4.6	1014	-8.5	280	5	70
2026-02-18T23:58	4.7	1014	-8.4	280	5	70
2026-02-18T23:59	4.8	1014	-8.3	280	5	70
2026-02-19T00:00	4.7	1014	-8.4	280	5	70
2026-02-19T00:01	4.7	1014	-8.4	270	6	70
2026-02-19T00:02	5.1	1014	-7.7	270	6	70
2026-02-19T00:03	5.1	1014	-7.7	280	6	70
2026-02-19T00:04	5.0	1014	-8.1	280	5	70
2026-02-19T00:05	5.0	1014	-8.1	280	6	70
2026-02-19T00:06	4.9	1014	-8.2	280	6	70
2026-02-19T00:07	4.9	1014	-8.6	280	6	70
2026-02-19T00:08	4.8	1014	-8.7	280	6	70
2026-02-19T00:09	5.0	1014	-8.1	280	5	70
2026-02-19T00:10	5.0	1014	-8.1	280	5	70
2026-02-19T00:11	5.1	1014	-8.0	280	5	70
2026-02-19T00:12	5.2	1014	-8.0	280	5	70
2026-02-19T00:13	5.2	1014	-8.3	280	5	70
2026-02-19T00:14	5.1	1014	-8.4	280	5	70
2026-02-19T00:15	5.1	1014	-8.4	280	5	70
2026-02-19T00:16	5.2	1014	-8.3	290	5	70
2026-02-19T00:17	5.1	1014	-8.7	280	5	70
2026-02-19T00:18	5.4	1014	-8.1	280	5	70
2026-02-19T00:19	5.5	1014	-8.0	280	5	70
2026-02-19T00:20	5.5	1014	-8.0	280	5	70
2026-02-19T00:21	5.4	1014	-8.1	280	5	70
2026-02-19T00:22	5.5	1014	-8.0	280	5	70
2026-02-19T00:23	5.9	1014	-7.3	280	5	70
2026-02-19T00:24	5.7	1014	-7.8	280	5	70
2026-02-19T00:25	5.7	1014	-7.8	280	5	70
2026-02-19T00:26	5.8	1014	-7.8	280	5	70
2026-02-19T00:27	5.6	1014	-8.3	280	5	70
2026-02-19T00:28	5.9	1014	-7.7	290	4	70
2026-02-19T00:29	6.2	1014	-7.4	280	4	70
2026-02-19T00:30	6.0	1014	-7.9	280	4	70
2026-02-19T00:31	6.1	1014	-7.5	280	5	70
2026-02-19T00:32	6.3	1014	-7.7	280	5	70
2026-02-19T00:33	6.1	1014	-8.2	280	5	70
2026-02-19T00:34	6.0	1014	-8.7	280	5	70
2026-02-19T00:35	5.9	1014	-8.8	280	5	70
2026-02-19T00:36	5.8	1014	-8.8	280	5	70
2026-02-19T00:37	5.9	1014	-8.4	270	5	70
2026-02-19T00:38	5.8	1014	-8.8	270	6	70
2026-02-19T00:39	5.7	1014	-8.6	280	6	70
2026-02-19T00:40	5.7	1014	-8.9	280	6	70
2026-02-19T00:41	5.8	1014	-8.5	280	5	70
2026-02-19T00:42	6.1	1014	-8.2	280	5	70
2026-02-19T00:43	6.5	1014	-7.5	280	5	70
2026-02-19T00:44	6.4	1014	-7.9	280	5	70
2026-02-19T00:45	6.2	1014	-8.5	280	5	70
2026-02-19T00:46	6.0	1014	-8.7	280	5	70
2026-02-19T00:47	6.3	1014	-8.0	280	5	70
2026-02-19T00:48	6.3	1014	-8.4	280	5	70
2026-02-19T00:49	6.2	1014	-8.5	270	5	70
2026-02-19T00:50	6.4	1014	-8.3	270	5	70
2026-02-19T00:51	6.1	1014	-8.6	280	5	70
2026-02-19T00:52	6.0	1014	-8.7	270	5	70
2026-02-19T00:53	6.3	1014	-8.4	270	5	70
2026-02-19T00:54	6.4	1014	-8.3	270	5	70
2026-02-19T00:55	6.3	1014	-8.4	270	5	70
2026-02-19T00:56	6.3	1014	-8.4	280	5	70
2026-02-19T00:57	6.6	1014	-8.1	270	5	70
2026-02-19T00:58	6.6	1014	-8.1	280	5	70
2026-02-19T00:59	6.7	1014	-8.0	280	5	70
2026-02-19T01:00	6.7	1014	-8.0	280	4	70
2026-02-19T01:01	6.7	1014	-8.4	270	4	70
2026-02-19T01:02	6.9	1014	-7.9	270	4	70
2026-02-19T01:03	7.0	1014	-7.8	280	4	70
2026-02-19T01:04	6.5	1014	-9.0	280	4	70
2026-02-19T01:05	6.4	1014	-9.1	280	5	70
2026-02-19T01:06	6.6	1014	-8.5	280	5	70
2026-02-19T01:07	6.5	1014	-8.6	280	5	70
2026-02-19T01:08	7.0	1014	-7.8	280	5	70
2026-02-19T01:09	6.9	1014	-8.6	280	5	70
2026-02-19T01:10	6.5	1014	-9.0	280	5	70
2026-02-19T01:11	6.8	1014	-8.7	280	5	70
2026-02-19T01:12	6.8	1014	-8.7	290	5	70
2026-02-19T01:13	6.6	1014	-8.9	290	5	70
2026-02-19T01:14	6.5	1014	-9.0	300	5	70
2026-02-19T01:15	6.5	1014	-9.0	300	5	70
2026-02-19T01:16	6.8	1014	-8.7	300	5	70
2026-02-19T01:17	7.0	1014	-8.6	300	5	70
2026-02-19T01:18	7.1	1014	-8.5	300	4	70
2026-02-19T01:19	6.9	1014	-9.0	300	4	70
2026-02-19T01:20	6.7	1014	-9.2	300	4	70
2026-02-19T01:21	7.0	1014	-8.6	300	4	70
2026-02-19T01:22	7.2	1014	-8.4	300	4	70
2026-02-19T01:23	7.0	1014	-9.0	290	4	70
2026-02-19T01:24	7.4	1014	-8.2	280	4	70
2026-02-19T01:25	7.5	1014	-8.1	280	4	70
2026-02-19T01:26	7.5	1014	-8.1	280	4	70
2026-02-19T01:27	7.7	1014	-7.9	280	4	70
2026-02-19T01:28	7.1	1014	-9.3	280	4	70
2026-02-19T01:29	7.3	1014	-8.7	280	4	70
2026-02-19T01:30	7.3	1014	-8.7	280	4	70
2026-02-19T01:31	7.6	1014	-8.0	280	4	70
2026-02-19T01:32	7.6	1014	-8.0	280	4	70
2026-02-19T01:33	7.2	1014	-8.8	290	4	70
2026-02-19T01:34	7.2	1014	-8.8	290	4	70
2026-02-19T01:35	7.1	1014	-8.9	290	4	70
2026-02-19T01:36	7.7	1014	-7.9	300	4	70
2026-02-19T01:37	7.5	1014	-8.5	300	4	70
2026-02-19T01:38	7.0	1014	-9.4	300	4	70
2026-02-19T01:39	7.2	1014	-8.8	290	4	70
2026-02-19T01:40	7.8	1014	-7.9	290	4	70
2026-02-19T01:41	7.7	1014	-8.4	290	4	70
2026-02-19T01:42	7.9	1014	-8.2	290	4	70
2026-02-19T01:43	8.0	1014	-8.1	290	4	70
2026-02-19T01:44	7.8	1014	-8.7	280	4	70
2026-02-19T01:45	7.6	1014	-8.9	280	4	70
2026-02-19T01:46	7.4	1014	-9.5	280	4	70
2026-02-19T01:47	7.5	1014	-8.9	270	4	70
2026-02-19T01:48	7.7	1014	-8.8	270	4	70
2026-02-19T01:49	7.7	1014	-8.8	280	4	70
2026-02-19T01:50	7.6	1014	-8.9	280	5	70
2026-02-19T01:51	7.8	1014	-8.7	270	5	70
2026-02-19T01:52	7.8	1014	-8.7	270	5	70
2026-02-19T01:53	8.2	1014	-7.9	270	5	70
2026-02-19T01:54	7.8	1014	-8.7	270	5	70
2026-02-19T01:55	7.6	1014	-8.9	270	5	70
2026-02-19T01:56	8.1	1014	-8.0	270	5	70
2026-02-19T01:57	7.9	1014	-8.6	270	5	70
2026-02-19T01:58	8.1	1014	-8.0	270	4	70
2026-02-19T01:59	8.4	1014	-7.7	270	4	70
2026-02-19T02:00	8.5	1013	-8.1	270	4	70
2026-02-19T02:01	8.4	1014	-8.2	270	4	70
2026-02-19T02:02	8.4	1014	-8.2	270	4	70
2026-02-19T02:03	7.7	1014	-9.6	280	4	70
2026-02-19T02:04	8.1	1014	-8.4	280	4	70
2026-02-19T02:05	8.2	1014	-8.8	280	4	70
2026-02-19T02:06	7.8	1013	-9.6	280	4	70
2026-02-19T02:07	7.9	1013	-9.0	280	4	70
2026-02-19T02:08	7.5	1013	-9.8	280	4	70
2026-02-19T02:09	7.6	1013	-9.3	280	4	70
2026-02-19T02:10	7.7	1013	-8.8	280	4	70
2026-02-19T02:11	7.8	1013	-8.7	280	4	70
2026-02-19T02:12	8.2	1013	-8.3	280	5	70
2026-02-19T02:13	8.1	1013	-8.4	280	5	70
2026-02-19T02:14	8.2	1013	-8.3	280	5	70
2026-02-19T02:15	8.2	1013	-8.8	270	5	70
2026-02-19T02:16	7.9	1013	-9.0	270	6	70
2026-02-19T02:17	8.0	1013	-8.5	270	6	70
2026-02-19T02:18	8.2	1013	-8.3	270	6	70
2026-02-19T02:19	8.4	1013	-8.2	280	6	70
2026-02-19T02:20	8.6	1013	-8.0	280	6	70
2026-02-19T02:21	8.2	1013	-8.8	280	6	70
2026-02-19T02:22	7.8	1013	-9.6	280	5	70
2026-02-19T02:23	7.9	1013	-9.0	270	5	70
2026-02-19T02:24	8.3	1013	-8.2	270	5	70
2026-02-19T02:25	8.5	1013	-8.1	280	5	70
2026-02-19T02:26	8.3	1013	-8.7	280	5	70
2026-02-19T02:27	8.2	1013	-8.8	280	5	70
2026-02-19T02:28	8.6	1013	-8.0	280	4	70
2026-02-19T02:29	8.4	1013	-8.6	280	4	70
2026-02-19T02:30	8.1	1013	-8.9	290	4	70
2026-02-19T02:31	7.9	1013	-9.0	290	4	70
2026-02-19T02:32	8.2	1013	-8.3	290	4	70
2026-02-19T02:33	8.2	1013	-8.3	290	4	70
2026-02-19T02:34	8.1	1013	-8.9	290	5	70
2026-02-19T02:35	8.3	1013	-8.7	290	5	70
2026-02-19T02:36	8.4	1013	-8.6	290	5	70
2026-02-19T02:37	8.5	1013	-8.5	280	5	70
2026-02-19T02:38	8.3	1013	-8.7	280	5	70
2026-02-19T02:39	8.3	1013	-8.7	280	4	70
2026-02-19T02:40	8.7	1013	-8.3	280	5	70
2026-02-19T02:41	8.8	1013	-8.2	270	5	70
2026-02-19T02:42	8.8	1013	-8.2	280	5	70
2026-02-19T02:43	8.3	1013	-9.1	280	5	70
2026-02-19T02:44	8.5	1013	-8.5	280	5	70
2026-02-19T02:45	9.0	1013	-8.1	280	5	70
2026-02-19T02:46	8.9	1013	-8.2	280	5	70
2026-02-19T02:47	8.8	1013	-8.7	280	5	70
2026-02-19T02:48	9.0	1013	-8.1	280	5	70
2026-02-19T02:49	8.5	1013	-9.4	280	5	70
2026-02-19T02:50	8.6	1013	-8.9	280	5	70
2026-02-19T02:51	9.0	1013	-8.1	280	4	70
2026-02-19T02:52	8.6	1013	-8.9	290	4	70
2026-02-19T02:53	8.6	1013	-8.9	280	4	70
2026-02-19T02:54	8.5	1013	-9.0	280	4	70
2026-02-19T02:55	8.4	1013	-9.0	290	4	70
2026-02-19T02:56	8.8	1013	-8.2	290	4	70
2026-02-19T02:57	8.7	1013	-8.3	300	4	70
2026-02-19T02:58	8.6	1013	-8.9	300	4	70
2026-02-19T02:59	8.8	1013	-8.2	300	4	70
2026-02-19T03:00	9.2	1013	-7.9	300	4	70
2026-02-19T03:01	9.3	1013	-7.8	300	4	70
2026-02-19T03:02	9.3	1013	-7.8	290	4	70
2026-02-19T03:03	9.2	1013	-8.4	290	4	70
2026-02-19T03:04	9.2	1013	-8.4	290	4	70
2026-02-19T03:05	9.0	1013	-8.5	290	4	70
2026-02-19T03:06	8.7	1013	-8.8	290	4	70
2026-02-19T03:07	9.0	1013	-8.5	290	4	70
2026-02-19T03:08	9.1	1013	-8.4	290	4	70
2026-02-19T03:09	9.5	1013	-7.6	300	4	70
2026-02-19T03:10	9.6	1013	-8.0	300	4	70
2026-02-19T03:11	8.9	1013	-9.1	310	4	70
2026-02-19T03:12	8.7	1013	-9.2	310	4	70
2026-02-19T03:13	8.7	1013	-9.2	310	4	70
2026-02-19T03:14	9.3	1013	-8.3	310	4	70
2026-02-19T03:15	9.5	1013	-8.1	300	4	70
2026-02-19T03:16	9.1	1013	-8.9	300	4	70
2026-02-19T03:17	9.0	1013	-9.0	290	4	70
2026-02-19T03:18	8.8	1013	-9.2	290	4	70
2026-02-19T03:19	9.2	1013	-8.4	280	4	70
2026-02-19T03:20	9.3	1013	-8.3	280	4	70
2026-02-19T03:21	9.4	1013	-8.6	270	4	70
2026-02-19T03:22	9.2	1013	-8.8	270	5	70
2026-02-19T03:23	9.0	1013	-9.0	270	5	70
2026-02-19T03:24	9.2	1013	-8.8	270	5	70
2026-02-19T03:25	8.7	1013	-9.7	270	5	70
2026-02-19T03:26	9.1	1013	-8.9	270	5	70
2026-02-19T03:27	9.2	1013	-8.8	270	5	70
2026-02-19T03:28	9.2	1013	-8.8	270	5	70
2026-02-19T03:29	9.0	1013	-9.0	270	5	70
2026-02-19T03:30	9.0	1013	-9.0	270	5	70
2026-02-19T03:31	9.1	1013	-8.9	270	5	70
2026-02-19T03:32	9.6	1013	-8.0	260	5	70
2026-02-19T03:33	10.2	1013	-7.5	260	5	70
2026-02-19T03:34	10.2	1013	-8.0	260	5	70
2026-02-19T03:35	9.9	1013	-8.7	260	5	70
2026-02-19T03:36	10.0	1013	-8.6	260	6	70
2026-02-19T03:37	10.1	1013	-8.5	260	5	70
2026-02-19T03:38	10.2	1013	-8.4	260	5	70
2026-02-19T03:39	10.1	1013	-8.5	260	6	70
2026-02-19T03:40	9.9	1013	-9.2	270	5	70
2026-02-19T03:41	9.7	1013	-8.9	270	5	70
2026-02-19T03:42	9.5	1013	-9.0	270	5	70
2026-02-19T03:43	9.4	1013	-9.6	270	5	70
2026-02-19T03:44	9.4	1013	-9.6	280	5	70
2026-02-19T03:45	9.3	1013	-9.7	280	5	70
2026-02-19T03:46	9.3	1013	-9.7	280	5	70
2026-02-19T03:47	9.4	1013	-9.6	290	5	70
2026-02-19T03:48	9.2	1013	-9.8	300	5	70
2026-02-19T03:49	9.4	1013	-9.1	300	5	70
2026-02-19T03:50	9.8	1013	-8.8	300	5	70
2026-02-19T03:51	9.8	1013	-8.8	300	5	70
2026-02-19T03:52	9.5	1013	-9.5	300	5	70
2026-02-19T03:53	9.6	1013	-9.5	300	5	70
2026-02-19T03:54	10.2	1013	-8.4	300	5	70
2026-02-19T03:55	10.2	1013	-8.4	300	5	70
2026-02-19T03:56	9.9	1013	-9.2	290	5	70
2026-02-19T03:57	9.8	1013	-9.3	290	4	70
2026-02-19T03:58	9.5	1013	-9.5	290	5	70
2026-02-19T03:59	10.0	1013	-8.6	290	5	70
2026-02-19T04:00	9.9	1013	-9.2	290	5	70
2026-02-19T04:01	10.0	1013	-9.1	280	5	70
2026-02-19T04:02	9.9	1013	-9.2	280	5	70
2026-02-19T04:03	9.8	1013	-9.3	290	5	70
2026-02-19T04:04	9.8	1013	-9.3	290	5	70
2026-02-19T04:05	9.7	1013	-9.4	290	5	70
2026-02-19T04:06	9.5	1013	-9.5	300	5	70
2026-02-19T04:07	9.6	1013	-9.5	290	5	70
2026-02-19T04:08	9.3	1013	-9.7	290	5	70
2026-02-19T04:09	9.4	1013	-9.6	290	5	70
2026-02-19T04:10	9.4	1013	-9.6	300	5	70
2026-02-19T04:11	9.6	1013	-9.5	300	5	70
2026-02-19T04:12	9.4	1013	-9.6	300	5	70
2026-02-19T04:13	9.4	1013	-9.6	290	5	70
2026-02-19T04:14	9.6	1013	-9.5	290	5	70
2026-02-19T04:15	9.8	1013	-9.3	290	5	70
2026-02-19T04:16	10.0	1013	-9.1	290	5	70
2026-02-19T04:17	10.0	1013	-9.6	290	5	70
2026-02-19T04:18	10.1	1013	-9.0	280	5	70
2026-02-19T04:19	10.2	1013	-9.5	280	5	70
2026-02-19T04:20	10.0	1013	-9.6	280	5	70
2026-02-19T04:21	10.0	1013	-9.6	280	5	70
2026-02-19T04:22	10.3	1013	-9.4	280	5	70
2026-02-19T04:23	10.1	1013	-9.5	280	5	70
2026-02-19T04:24	10.1	1013	-9.5	280	5	70
2026-02-19T04:25	9.9	1013	-9.7	280	5	70
2026-02-19T04:26	9.7	1013	-9.9	280	6	70
2026-02-19T04:27	9.9	1013	-9.7	280	6	70
2026-02-19T04:28	10.0	1013	-9.6	280	6	70
2026-02-19T04:29	9.7	1013	-9.9	280	6	70
2026-02-19T04:30	9.9	1013	-9.7	280	5	70
2026-02-19T04:31	9.9	1013	-9.7	280	5	70
2026-02-19T04:32	9.9	1013	-9.7	290	5	70
2026-02-19T04:33	10.4	1013	-8.8	290	5	70
2026-02-19T04:34	10.3	1013	-9.4	290	6	70
2026-02-19T04:35	10.5	1013	-9.2	280	6	70
2026-02-19T04:36	10.6	1013	-9.1	280	6	70
2026-02-19T04:37	10.3	1013	-9.4	280	6	70
2026-02-19T04:38	10.0	1013	-10.2	280	6	70
2026-02-19T04:39	9.9	1013	-10.2	280	6	70
2026-02-19T04:40	10.1	1013	-9.5	270	6	70
2026-02-19T04:41	10.4	1013	-9.3	270	6	70
2026-02-19T04:42	10.5	1013	-9.2	270	6	70
2026-02-19T04:43	10.7	1013	-8.5	270	6	70
2026-02-19T04:44	10.4	1013	-9.3	270	6	70
2026-02-19T04:45	10.3	1013	-9.4	270	6	70
2026-02-19T04:46	10.5	1013	-9.7	270	6	70
2026-02-19T04:47	10.6	1013	-9.1	270	6	70
2026-02-19T04:48	10.5	1013	-9.7	270	6	70
2026-02-19T04:49	10.4	1013	-9.8	270	6	70
2026-02-19T04:50	10.3	1013	-9.9	270	6	70
2026-02-19T04:51	10.6	1013	-9.7	270	6	70
2026-02-19T04:52	10.1	1013	-10.6	270	6	70
2026-02-19T04:53	10.3	1013	-9.9	270	5	70
2026-02-19T04:54	10.3	1013	-9.9	270	5	70
2026-02-19T04:55	10.6	1013	-9.1	270	6	70
2026-02-19T04:56	10.7	1013	-9.0	270	6	70
2026-02-19T04:57	10.6	1013	-9.7	270	5	70
2026-02-19T04:58	10.7	1013	-9.0	270	6	70
2026-02-19T04:59	10.6	1013	-9.7	260	6	70
2026-02-19T05:00	10.4	1013	-9.8	260	6	70
2026-02-19T05:01	10.3	1013	-9.9	260	6	70
2026-02-19T05:02	10.4	1013	-9.8	260	6	70
2026-02-19T05:03	10.8	1013	-9.0	270	6	70
2026-02-19T05:04	10.4	1013	-10.4	270	6	70
2026-02-19T05:05	10.2	1013	-10.6	270	6	70
2026-02-19T05:06	10.0	1013	-10.7	280	5	70
2026-02-19T05:07	10.2	1013	-10.0	270	5	70
2026-02-19T05:08	10.6	1013	-9.7	270	5	70
2026-02-19T05:09	10.6	1013	-10.2	280	6	70
2026-02-19T05:10	10.5	1013	-10.3	280	5	70
2026-02-19T05:11	10.1	1013	-10.6	270	5	70
2026-02-19T05:12	10.0	1013	-10.7	270	5	70
2026-02-19T05:13	10.0	1013	-10.7	270	5	70
2026-02-19T05:14	10.3	1013	-9.9	270	5	70
2026-02-19T05:15	10.3	1013	-9.9	270	5	70
2026-02-19T05:16	10.1	1013	-10.6	270	5	70
2026-02-19T05:17	10.1	1013	-10.6	270	5	70
2026-02-19T05:18	10.3	1013	-10.5	270	5	70
2026-02-19T05:19	10.3	1013	-10.5	270	5	70
2026-02-19T05:20	10.3	1013	-10.5	270	5	70
2026-02-19T05:21	10.4	1013	-10.4	270	5	70
2026-02-19T05:22	10.2	1013	-10.6	270	5	70
2026-02-19T05:23	10.1	1013	-10.6	280	5	70
2026-02-19T05:24	10.3	1013	-9.9	280	5	70
2026-02-19T05:25	10.3	1013	-10.5	280	5	70
2026-02-19T05:26	10.5	1013	-10.3	280	5	70
2026-02-19T05:27	10.5	1013	-10.3	280	5	70
2026-02-19T05:28	10.5	1013	-10.3	280	4	70
2026-02-19T05:29	10.3	1013	-10.5	280	4	70
2026-02-19T05:30	10.3	1013	-10.5	280	4	70
2026-02-19T05:31	10.4	1013	-10.4	280	4	70
2026-02-19T05:32	10.5	1013	-10.3	280	4	70
2026-02-19T05:33	10.6	1013	-9.7	270	4	70
2026-02-19T05:34	10.6	1013	-9.7	270	5	70
2026-02-19T05:35	10.5	1013	-10.3	270	5	70
2026-02-19T05:36	10.6	1013	-10.2	270	5	70
2026-02-19T05:37	10.4	1013	-10.4	270	5	70
2026-02-19T05:38	10.3	1013	-10.5	270	5	70
2026-02-19T05:39	10.3	1013	-10.5	260	5	70
2026-02-19T05:40	10.5	1013	-10.3	260	6	70
2026-02-19T05:41	10.7	1013	-9.6	260	6	70
2026-02-19T05:42	10.8	1013	-9.5	270	6	70
2026-02-19T05:43	10.3	1013	-10.5	270	5	70
2026-02-19T05:44	10.2	1013	-10.0	270	5	70
2026-02-19T05:45	10.3	1013	-9.9	280	5	70
2026-02-19T05:46	10.4	1013	-9.8	280	5	70
2026-02-19T05:47	10.2	1013	-10.6	280	5	70
2026-02-19T05:48	10.2	1013	-10.0	280	5	70
2026-02-19T05:49	10.4	1013	-9.8	280	5	70
2026-02-19T05:50	10.3	1013	-10.5	280	5	70
2026-02-19T05:51	10.1	1013	-10.6	280	5	70
2026-02-19T05:52	9.9	1013	-10.8	280	5	70
2026-02-19T05:53	10.1	1013	-10.1	280	5	70
2026-02-19T05:54	10.0	1013	-10.7	280	5	70
2026-02-19T05:55	10.1	1013	-10.1	280	5	70
2026-02-19T05:56	10.1	1013	-10.1	280	5	70
2026-02-19T05:57	10.2	1013	-10.0	280	5	70
2026-02-19T05:58	10.1	1013	-10.1	290	4	70
2026-02-19T05:59	10.0	1013	-10.2	290	4	70
2026-02-19T06:00	10.3	1013	-9.9	290	4	70
2026-02-19T06:01	10.5	1013	-9.7	290	4	70
2026-02-19T06:02	10.3	1013	-10.5	290	4	70
2026-02-19T06:03	10.2	1013	-10.6	290	4	70
2026-02-19T06:04	10.0	1013	-10.7	300	4	70
2026-02-19T06:05	10.0	1013	-10.2	300	4	70
2026-02-19T06:06	9.8	1013	-10.3	300	4	70
2026-02-19T06:07	9.6	1013	-11.1	300	4	70
2026-02-19T06:08	9.6	1013	-11.1	310	4	70
2026-02-19T06:09	9.7	1013	-10.4	310	4	70
2026-02-19T06:10	9.8	1013	-10.3	310	4	70
2026-02-19T06:11	9.6	1013	-11.1	310	4	70
2026-02-19T06:12	9.6	1013	-11.1	310	4	70
2026-02-19T06:13	10.0	1013	-10.7	310	4	70
2026-02-19T06:14	10.1	1013	-10.6	310	4	70
2026-02-19T06:15	10.0	1013	-10.7	300	4	70
2026-02-19T06:16	9.8	1013	-10.9	300	4	70
2026-02-19T06:17	9.8	1013	-10.9	300	4	70
2026-02-19T06:18	9.9	1013	-10.2	290	5	70
2026-02-19T06:19	9.9	1013	-10.2	290	5	70
2026-02-19T06:20	9.9	1013	-10.2	280	5	70
2026-02-19T06:21	9.8	1013	-10.3	280	5	70
2026-02-19T06:22	9.8	1013	-10.3	280	5	70
2026-02-19T06:23	10.0	1013	-10.2	280	5	70
2026-02-19T06:24	9.7	1013	-10.4	290	5	70
2026-02-19T06:25	9.6	1013	-11.1	290	4	70
2026-02-19T06:26	9.9	1013	-10.2	290	5	70
2026-02-19T06:27	9.9	1013	-10.2	280	5	70
2026-02-19T06:28	9.8	1013	-10.3	280	5	70
2026-02-19T06:29	9.8	1013	-10.3	280	5	70
2026-02-19T06:30	10.1	1013	-10.1	280	4	70
2026-02-19T06:31	9.9	1013	-10.2	280	5	70
2026-02-19T06:32	9.8	1013	-10.3	280	5	70
2026-02-19T06:33	9.8	1013	-10.3	280	5	70
2026-02-19T06:34	9.7	1013	-9.9	280	5	70
2026-02-19T06:35	9.8	1013	-9.8	280	5	70
2026-02-19T06:36	10.1	1013	-9.5	280	5	70
2026-02-19T06:37	10.1	1013	-9.5	280	5	70
2026-02-19T06:38	9.9	1013	-10.8	280	5	70
2026-02-19T06:39	9.8	1013	-10.9	280	5	70
2026-02-19T06:40	9.9	1013	-10.8	280	5	70
2026-02-19T06:41	9.9	1013	-10.8	280	5	70
2026-02-19T06:42	9.7	1013	-11.0	280	5	70
2026-02-19T06:43	9.8	1013	-10.3	280	5	70
2026-02-19T06:44	9.9	1013	-10.2	280	5	70
2026-02-19T06:45	10.0	1013	-10.2	280	5	70
2026-02-19T06:46	9.7	1013	-11.0	280	4	70
2026-02-19T06:47	9.5	1013	-10.6	280	4	70
2026-02-19T06:48	9.7	1013	-10.4	280	4	70
2026-02-19T06:49	9.4	1013	-10.7	290	4	70
2026-02-19T06:50	9.3	1013	-10.8	290	4	70
2026-02-19T06:51	9.4	1013	-10.1	300	4	70
2026-02-19T06:52	9.6	1013	-10.0	300	4	70
2026-02-19T06:53	9.5	1013	-10.0	300	4	70
2026-02-19T06:54	9.4	1013	-10.1	300	3	70
2026-02-19T06:55	9.5	1013	-10.0	300	3	70
2026-02-19T06:56	9.4	1013	-10.1	300	3	70
2026-02-19T06:57	9.7	1013	-9.9	290	3	70
2026-02-19T06:58	9.7	1013	-10.4	290	3	70
2026-02-19T06:59	9.6	1014	-10.5	290	3	70
2026-02-19T07:00	9.5	1014	-10.0	280	3	70
2026-02-19T07:01	9.2	1014	-10.3	280	3	70
2026-02-19T07:02	9.2	1014	-10.9	280	3	70
2026-02-19T07:03	9.3	1014	-10.8	280	3	70
2026-02-19T07:04	9.5	1014	-10.0	270	3	70
2026-02-19T07:05	9.5	1014	-10.6	270	3	70
2026-02-19T07:06	9.5	1014	-10.6	270	3	70
2026-02-19T07:07	9.5	1014	-10.6	270	3	70
2026-02-19T07:08	9.4	1014	-10.1	270	3	70
2026-02-19T07:09	9.3	1014	-10.2	280	3	70
2026-02-19T07:10	9.1	1014	-10.4	280	3	70
2026-02-19T07:11	9.2	1014	-10.3	290	3	70
2026-02-19T07:12	9.2	1014	-10.3	300	3	70
2026-02-19T07:13	9.1	1014	-10.4	300	3	70
2026-02-19T07:14	9.1	1014	-10.4	310	2	70
2026-02-19T07:15	9.0	1014	-10.5	320	2	70
2026-02-19T07:16	9.0	1014	-10.5	320	3	70
2026-02-19T07:17	9.0	1014	-10.5	330	2	70
2026-02-19T07:18	9.0	1014	-11.0	330	2	70
2026-02-19T07:19	9.1	1014	-10.4	330	2	70
2026-02-19T07:20	9.1	1014	-10.4	330	2	70
2026-02-19T07:21	9.1	1014	-10.4	330	2	70
2026-02-19T07:22	9.0	1014	-10.0	320	2	70
2026-02-19T07:23	9.2	1014	-10.3	320	2	70
2026-02-19T07:24	9.1	1014	-10.4	310	2	70
2026-02-19T07:25	8.9	1014	-10.6	300	2	70
2026-02-19T07:26	9.1	1014	-10.4	300	2	70
2026-02-19T07:27	9.1	1014	-10.4	290	2	70
2026-02-19T07:28	9.0	1014	-10.5	280	2	70
2026-02-19T07:29	9.0	1014	-10.5	280	2	70
2026-02-19T07:30	9.0	1014	-10.5	270	2	70
2026-02-19T07:31	9.0	1014	-10.5	270	2	70
2026-02-19T07:32	9.1	1014	-10.4	270	2	70
2026-02-19T07:33	9.0	1014	-10.5	270	2	70
2026-02-19T07:34	8.8	1014	-10.1	270	2	70
2026-02-19T07:35	8.6	1014	-10.3	270	2	70
2026-02-19T07:36	8.6	1014	-9.8	280	2	70
2026-02-19T07:37	8.8	1014	-10.1	280	2	70
2026-02-19T07:38	8.8	1014	-10.1	280	2	70
2026-02-19T07:39	8.8	1014	-10.7	280	2	70
2026-02-19T07:40	8.5	1014	-10.4	280	2	70
2026-02-19T07:41	8.5	1014	-10.4	290	2	70
2026-02-19T07:42	8.7	1014	-10.2	290	2	70
2026-02-19T07:43	8.7	1014	-10.2	290	2	70
2026-02-19T07:44	8.5	1014	-9.9	290	2	70
2026-02-19T07:45	8.6	1014	-9.8	290	2	70
2026-02-19T07:46	8.5	1014	-10.4	290	2	70
2026-02-19T07:47	8.5	1014	-9.9	280	2	70
2026-02-19T07:48	8.4	1014	-10.0	290	2	70
2026-02-19T07:49	8.3	1014	-10.1	280	2	70
2026-02-19T07:50	8.3	1014	-9.6	280	2	70
2026-02-19T07:51	8.3	1014	-9.6	280	2	70
2026-02-19T07:52	8.5	1014	-9.9	270	2	70
2026-02-19T07:53	8.2	1014	-9.2	280	2	70
2026-02-19T07:54	8.3	1014	-9.6	270	2	70
2026-02-19T07:55	8.1	1014	-9.8	270	2	70
2026-02-19T07:56	7.9	1014	-9.5	270	2	70
2026-02-19T07:57	8.1	1014	-9.8	270	2	70
2026-02-19T07:58	8.0	1014	-9.4	270	2	70
2026-02-19T07:59	8.2	1014	-9.7	270	2	70
2026-02-19T08:00	8.1	1014	-9.8	270	2	70
2026-02-19T08:01	8.1	1014	-9.8	270	2	70
2026-02-19T08:02	7.8	1014	-10.0	260	2	70
2026-02-19T08:03	7.8	1014	-10.0	260	2	70
2026-02-19T08:04	7.8	1014	-9.6	260	2	70
2026-02-19T08:05	8.0	1014	-9.8	260	2	70
2026-02-19T08:06	7.9	1014	-9.9	260	2	70
2026-02-19T08:07	8.0	1014	-9.8	260	2	70
2026-02-19T08:08	7.7	1014	-9.6	260	2	70
2026-02-19T08:09	7.5	1014	-9.4	260	2	70
2026-02-19T08:10	7.3	1014	-9.1	260	1	70
2026-02-19T08:11	7.5	1014	-8.9	260	1	70
2026-02-19T08:12	7.7	1014	-9.2	260	1	70
2026-02-19T08:13	7.7	1014	-9.6	260	1	70
2026-02-19T08:14	7.6	1014	-9.3	260	1	70
2026-02-19T08:15	7.6	1014	-9.3	260	1	70
2026-02-19T08:16	7.6	1014	-9.3	250	1	70
2026-02-19T08:17	6.7	1015	-9.6	250	1	70
2026-02-19T08:18	6.7	1015	-9.6	240	1	70
2026-02-19T08:19	6.8	1015	-9.1	240	1	70
2026-02-19T08:20	6.5	1015	-9.0	230	1	70
2026-02-19T08:21	6.4	1015	-8.7	230	1	70
2026-02-19T08:22	6.3	1015	-8.4	230	1	70
2026-02-19T08:23	6.1	1015	-8.2	220	1	70
2026-02-19T08:24	6.0	1015	-8.3	220	1	70
2026-02-19T08:25	6.0	1015	-8.3	220	1	70
2026-02-19T08:26	6.0	1015	-8.3	220	1	70
2026-02-19T08:27	6.0	1015	-8.3	220	1	70
2026-02-19T08:28	6.0	1015	-7.9	220	1	70
2026-02-19T08:29	5.6	1015	-8.3	220	1	70
2026-02-19T08:30	5.8	1015	-8.1	220	1	70
2026-02-19T08:31	6.0	1015	-8.3	230	1	70
2026-02-19T08:32	5.9	1015	-8.4	230	1	70
2026-02-19T08:33	5.4	1015	-8.5	230	1	70
2026-02-19T08:34	5.8	1015	-8.5	240	1	70
2026-02-19T08:35	5.7	1015	-8.6	250	1	70
2026-02-19T08:36	6.0	1015	-8.3	260	1	70
2026-02-19T08:37	5.9	1015	-8.4	270	1	70
2026-02-19T08:38	6.0	1015	-9.0	280	1	70
2026-02-19T08:39	5.8	1015	-9.2	280	1	70
2026-02-19T08:40	5.6	1015	-9.0	290	1	70
2026-02-19T08:41	4.8	1015	-8.7	300	1	70
2026-02-19T08:42	4.4	1015	-8.0	300	1	70
2026-02-19T08:43	4.4	1015	-7.1	310	1	70
2026-02-19T08:44	4.6	1015	-6.6	310	1	70
2026-02-19T08:45	4.9	1015	-6.9	320	1	70
2026-02-19T08:46	4.9	1015	-7.2	310	1	70
2026-02-19T08:47	4.9	1015	-7.2	310	1	70
2026-02-19T08:48	5.0	1015	-7.8	310	1	70
2026-02-19T08:49	5.1	1015	-8.4	310	1	70
2026-02-19T08:50	4.9	1015	-8.2	310	1	70
2026-02-19T08:51	4.9	1015	-8.2	310	1	70
2026-02-19T08:52	4.7	1015	-7.4	310	1	70
2026-02-19T08:53	4.2	1015	-7.3	310	1	70
2026-02-19T08:54	4.4	1015	-7.1	300	0	70
2026-02-19T08:55	4.7	1015	-6.8	300	0	70
2026-02-19T08:56	4.8	1015	-7.0	300	0	70
2026-02-19T08:57	4.7	1015	-8.1	0	0	70
2026-02-19T08:58	4.6	1015	-8.2	0	0	70
2026-02-19T08:59	4.6	1015	-7.5	0	0	70
2026-02-19T09:00	4.6	1015	-6.9	0	0	70
2026-02-19T09:01	4.5	1015	-6.4	0	0	70
2026-02-19T09:02	4.5	1015	-6.4	0	0	70
2026-02-19T09:03	4.5	1015	-6.4	0	0	70
2026-02-19T09:04	4.5	1015	-6.7	0	0	70
2026-02-19T09:05	4.4	1015	-7.1	0	0	70
2026-02-19T09:06	4.1	1015	-7.1	0	0	70
2026-02-19T09:07	4.1	1015	-7.3	0	0	70
2026-02-19T09:08	4.3	1015	-7.5	0	0	70
2026-02-19T09:09	4.0	1015	-7.7	170	0	70
2026-02-19T09:10	3.7	1015	-7.7	150	0	70
2026-02-19T09:11	3.9	1015	-7.5	200	0	70
2026-02-19T09:12	3.9	1015	-7.5	170	0	70
2026-02-19T09:13	3.3	1015	-7.5	160	1	70
2026-02-19T09:14	3.7	1016	-7.4	160	1	70
2026-02-19T09:15	3.9	1016	-7.8	160	1	70
2026-02-19T09:16	3.8	1016	-6.5	170	1	70
2026-02-19T09:17	3.8	1016	-6.7	180	1	70
2026-02-19T09:18	3.2	1016	-6.7	190	1	70
2026-02-19T09:19	3.6	1016	-7.2	200	1	70
2026-02-19T09:20	3.4	1016	-7.7	210	1	70
2026-02-19T09:21	3.3	1016	-7.5	220	1	70
2026-02-19T09:22	3.9	1016	-6.9	230	1	70
2026-02-19T09:23	3.7	1016	-7.1	240	1	70
2026-02-19T09:24	3.3	1016	-7.5	240	1	70
2026-02-19T09:25	3.3	1016	-7.5	250	1	70
2026-02-19T09:26	3.8	1016	-7.3	250	1	70
2026-02-19T09:27	3.8	1016	-7.9	250	1	70
2026-02-19T09:28	4.6	1016	-7.5	260	2	70
2026-02-19T09:29	4.6	1016	-8.2	260	2	70
2026-02-19T09:30	4.8	1016	-8.0	260	2	70
2026-02-19T09:31	4.6	1016	-7.5	270	1	70
2026-02-19T09:32	4.2	1016	-7.0	290	2	70
2026-02-19T09:33	4.5	1016	-7.3	300	2	70
2026-02-19T09:34	4.2	1016	-7.3	320	2	70
2026-02-19T09:35	4.4	1016	-7.7	330	2	70
2026-02-19T09:36	4.6	1016	-7.8	350	2	70
2026-02-19T09:37	4.7	1016	-8.1	350	2	70
2026-02-19T09:38	5.1	1016	-8.0	360	2	70
2026-02-19T09:39	4.7	1016	-8.4	360	2	70
2026-02-19T09:40	4.0	1016	-8.4	10	2	70
2026-02-19T09:41	3.4	1016	-7.7	20	2	70
2026-02-19T09:42	3.8	1016	-7.9	20	2	70
2026-02-19T09:43	4.1	1016	-8.0	30	2	70
2026-02-19T09:44	4.3	1016	-7.8	40	2	70
2026-02-19T09:45	3.8	1016	-8.2	50	2	70
2026-02-19T09:46	4.4	1016	-8.0	50	2	70
2026-02-19T09:47	4.6	1016	-8.2	50	2	70
2026-02-19T09:48	4.8	1016	-8.7	50	2	70
2026-02-19T09:49	5.0	1016	-8.5	50	2	70
2026-02-19T09:50	4.9	1016	-8.6	40	2	70
2026-02-19T09:51	4.7	1016	-8.4	10	2	70
2026-02-19T09:52	5.0	1016	-8.1	350	1	70
2026-02-19T09:53	5.4	1016	-8.1	350	1	70
2026-02-19T09:54	5.4	1016	-8.5	350	1	70
2026-02-19T09:55	4.9	1016	-8.6	350	1	70
2026-02-19T09:56	4.6	1016	-8.8	360	1	70
2026-02-19T09:57	4.5	1016	-8.6	10	1	70
2026-02-19T09:58	4.5	1016	-8.2	10	1	70
2026-02-19T09:59	4.2	1016	-8.2	130	1	70
2026-02-19T10:00	3.7	1016	-8.6	190	1	70
2026-02-19T10:01	3.8	1016	-8.2	210	0	70
2026-02-19T10:02	3.8	1016	-8.2	140	0	70
2026-02-19T10:03	3.8	1016	-8.2	150	0	70
2026-02-19T10:04	3.8	1016	-8.2	150	1	70
2026-02-19T10:05	4.0	1016	-8.1	170	1	70
2026-02-19T10:06	4.1	1016	-8.3	50	1	70
2026-02-19T10:07	4.1	1016	-8.3	30	1	70
2026-02-19T10:08	4.8	1016	-8.0	80	1	70
2026-02-19T10:09	4.2	1016	-8.5	50	1	70
2026-02-19T10:10	4.3	1016	-8.4	40	1	70
2026-02-19T10:11	4.2	1016	-8.5	40	1	70
2026-02-19T10:12	4.0	1016	-8.7	30	1	70
2026-02-19T10:13	4.5	1016	-8.6	20	1	70
2026-02-19T10:14	4.8	1016	-8.7	20	1	70
2026-02-19T10:15	4.6	1016	-8.8	30	1	70
2026-02-19T10:16	4.5	1016	-8.9	30	1	70
2026-02-19T10:17	4.2	1016	-8.8	30	1	70
2026-02-19T10:18	4.1	1016	-8.9	30	1	70
2026-02-19T10:19	4.4	1016	-8.7	30	1	70
2026-02-19T10:20	4.1	1016	-8.6	30	1	70
2026-02-19T10:21	4.4	1016	-8.7	40	1	70
2026-02-19T10:22	4.5	1016	-8.2	40	1	70
2026-02-19T10:23	4.5	1016	-8.6	50	1	70
2026-02-19T10:24	4.5	1016	-8.6	50	1	70
2026-02-19T10:25	4.4	1016	-8.7	60	1	70
2026-02-19T10:26	4.5	1016	-8.6	60	2	70
2026-02-19T10:27	4.4	1016	-8.3	70	2	70
2026-02-19T10:28	4.4	1016	-8.3	70	2	70
2026-02-19T10:29	4.5	1016	-8.6	80	2	70
2026-02-19T10:30	4.3	1016	-8.4	80	2	70
2026-02-19T10:31	4.5	1017	-8.6	80	1	70
2026-02-19T10:32	4.4	1017	-8.3	80	1	70
2026-02-19T10:33	4.7	1017	-8.4	80	1	70
2026-02-19T10:34	5.0	1017	-8.8	70	1	70
2026-02-19T10:35	4.7	1017	-9.1	70	1	70
2026-02-19T10:36	4.6	1017	-8.8	70	1	70
2026-02-19T10:37	4.4	1017	-9.0	70	1	70
2026-02-19T10:38	4.0	1017	-9.0	70	1	70
2026-02-19T10:39	4.0	1017	-9.0	70	2	70
2026-02-19T10:40	3.9	1017	-9.1	60	1	70
2026-02-19T10:41	3.6	1017	-9.1	60	1	70
2026-02-19T10:42	4.1	1017	-8.6	70	1	70
2026-02-19T10:43	3.9	1017	-8.8	70	1	70
2026-02-19T10:44	4.0	1017	-8.7	70	1	70
2026-02-19T10:45	3.9	1016	-8.8	70	1	70
2026-02-19T10:46	3.6	1016	-8.7	70	1	70
2026-02-19T10:47	3.4	1016	-8.6	80	1	70
2026-02-19T10:48	3.6	1017	-8.4	80	1	70
2026-02-19T10:49	4.1	1017	-8.6	80	1	70
2026-02-19T10:50	4.3	1017	-8.8	80	2	70
2026-02-19T10:51	4.4	1017	-9.0	80	2	70
2026-02-19T10:52	4.3	1017	-9.1	70	2	70
2026-02-19T10:53	3.9	1017	-9.1	70	2	70
2026-02-19T10:54	4.2	1017	-9.2	60	2	70
2026-02-19T10:55	4.3	1017	-9.1	60	2	70
2026-02-19T10:56	4.5	1017	-9.3	50	2	70
2026-02-19T10:57	4.5	1017	-9.6	50	2	70
2026-02-19T10:58	4.3	1017	-9.4	50	1	70
2026-02-19T10:59	4.2	1017	-9.5	50	1	70
2026-02-19T11:00	4.2	1017	-9.5	50	1	70
2026-02-19T11:01	4.1	1017	-9.6	50	1	70
2026-02-19T11:02	4.0	1017	-9.4	50	1	70
2026-02-19T11:03	4.1	1017	-9.3	40	1	70
2026-02-19T11:04	4.2	1017	-9.5	40	1	70
2026-02-19T11:05	4.1	1017	-9.3	40	1	70
2026-02-19T11:06	4.1	1017	-9.3	30	1	70
2026-02-19T11:07	3.5	1017	-9.5	30	1	70
2026-02-19T11:08	3.9	1017	-9.4	40	1	70
2026-02-19T11:09	4.0	1017	-9.4	40	1	70
2026-02-19T11:10	3.7	1017	-9.3	30	1	70
2026-02-19T11:11	3.7	1017	-9.6	30	1	70
2026-02-19T11:12	3.8	1017	-9.2	40	1	70
2026-02-19T11:13	3.8	1017	-9.5	50	1	70
2026-02-19T11:14	4.0	1017	-9.4	60	1	70
2026-02-19T11:15	3.4	1017	-9.6	70	1	70
2026-02-19T11:16	3.7	1017	-9.3	70	1	70
2026-02-19T11:17	3.5	1017	-9.5	70	1	70
2026-02-19T11:18	3.5	1017	-9.1	70	1	70
2026-02-19T11:19	3.6	1017	-9.4	60	1	70
2026-02-19T11:20	3.2	1017	-9.4	70	1	70
2026-02-19T11:21	2.9	1017	-9.4	60	1	70
2026-02-19T11:22	2.9	1017	-8.4	60	1	70
2026-02-19T11:23	3.1	1017	-8.9	40	1	70
2026-02-19T11:24	3.2	1017	-9.1	30	1	70
2026-02-19T11:25	3.3	1017	-9.0	10	1	70
2026-02-19T11:26	3.0	1017	-9.3	360	1	70
2026-02-19T11:27	2.8	1017	-9.1	350	1	70
2026-02-19T11:28	2.3	1017	-9.3	320	1	70
2026-02-19T11:29	2.3	1017	-9.3	280	1	70
2026-02-19T11:30	3.1	1017	-8.9	260	1	70
2026-02-19T11:31	2.6	1017	-9.3	240	1	70
2026-02-19T11:32	2.0	1017	-9.5	230	1	70
2026-02-19T11:33	2.3	1017	-9.0	220	1	70
2026-02-19T11:34	2.3	1017	-9.0	210	1	70
2026-02-19T11:35	1.8	1017	-9.1	200	1	70
2026-02-19T11:36	1.3	1017	-8.5	190	1	70
2026-02-19T11:37	1.4	1017	-8.7	210	1	70
2026-02-19T11:38	1.6	1017	-8.5	220	1	70
2026-02-19T11:39	1.5	1017	-8.3	230	1	70
2026-02-19T11:40	1.1	1017	-8.2	240	1	70
2026-02-19T11:41	1.1	1017	-8.2	270	1	70
2026-02-19T11:42	1.6	1017	-8.5	240	1	70
2026-02-19T11:43	1.6	1017	-8.8	260	1	70
2026-02-19T11:44	1.5	1017	-8.9	260	0	70
2026-02-19T11:45	1.6	1017	-8.8	250	1	70
2026-02-19T11:46	1.2	1017	-9.1	240	1	70
2026-02-19T11:47	1.6	1017	-8.8	220	1	70
2026-02-19T11:48	2.0	1017	-8.7	200	1	70
2026-02-19T11:49	1.9	1017	-8.8	180	1	70
2026-02-19T11:50	2.0	1017	-9.0	180	1	70
2026-02-19T11:51	2.1	1017	-8.9	160	1	70
2026-02-19T11:52	2.0	1017	-9.0	160	1	70
2026-02-19T11:53	1.3	1017	-9.3	150	1	70
2026-02-19T11:54	0.7	1017	-9.3	150	1	70
2026-02-19T11:55	1.0	1017	-8.5	150	1	70
2026-02-19T11:56	0.9	1017	-8.3	160	1	70
2026-02-19T11:57	0.6	1017	-8.1	160	1	70
2026-02-19T11:58	-0.2	1017	-8.1	180	1	70
2026-02-19T11:59	0.0	1017	-8.2	190	1	70
2026-02-19T12:00	0.7	1017	-8.3	280	1	70
2026-02-19T12:01	0.9	1017	-8.3	340	1	70
2026-02-19T12:02	1.1	1017	-8.4	20	1	70
2026-02-19T12:03	1.3	1017	-8.2	50	1	70
2026-02-19T12:04	1.4	1017	-8.1	90	1	70
2026-02-19T12:05	1.3	1017	-8.5	80	1	70
2026-02-19T12:06	1.5	1017	-8.6	80	1	70
2026-02-19T12:07	1.4	1017	-8.7	90	1	70
2026-02-19T12:08	0.9	1017	-8.9	90	1	70
2026-02-19T12:09	0.5	1017	-8.5	100	1	70
2026-02-19T12:10	0.0	1017	-8.2	110	1	70
2026-02-19T12:11	0.0	1017	-8.2	230	1	70
2026-02-19T12:12	0.3	1017	-8.4	290	1	70
2026-02-19T12:13	0.0	1017	-8.7	290	1	70
2026-02-19T12:14	-0.1	1017	-8.5	220	1	70
2026-02-19T12:15	0.2	1017	-8.2	220	1	70
2026-02-19T12:16	0.7	1017	-8.0	220	1	70
2026-02-19T12:17	0.8	1017	-8.2	220	1	70
2026-02-19T12:18	0.0	1017	-8.9	220	1	70
2026-02-19T12:19	0.2	1017	-8.7	120	1	70
2026-02-19T12:20	0.4	1017	-8.5	120	1	70
2026-02-19T12:21	0.1	1017	-8.3	210	1	70
2026-02-19T12:22	0.1	1017	-8.3	210	1	70
2026-02-19T12:23	0.1	1017	-8.3	200	1	70
2026-02-19T12:24	0.1	1017	-8.3	180	1	70
2026-02-19T12:25	0.2	1017	-8.2	180	1	70
2026-02-19T12:26	-0.2	1017	-8.4	170	1	70
2026-02-19T12:27	-0.6	1017	-8.5	160	1	70
2026-02-19T12:28	0.1	1017	-8.1	150	1	70
2026-02-19T12:29	-0.3	1017	-8.5	150	1	70
2026-02-19T12:30	-0.2	1017	-8.1	120	1	70
2026-02-19T12:31	0.1	1017	-8.1	110	1	70
2026-02-19T12:32	0.2	1017	-8.2	100	1	70
2026-02-19T12:33	-0.4	1017	-8.6	90	1	70
2026-02-19T12:34	-0.7	1017	-8.6	90	1	70
2026-02-19T12:35	-0.7	1017	-8.4	100	1	70
2026-02-19T12:36	-0.4	1017	-8.1	100	1	70
2026-02-19T12:37	-0.3	1017	-8.0	110	1	70
2026-02-19T12:38	-0.3	1017	-8.0	110	1	70
2026-02-19T12:39	-0.5	1017	-8.2	120	1	70
2026-02-19T12:40	-0.4	1017	-8.1	130	1	70
2026-02-19T12:41	-0.1	1017	-7.8	130	1	70
2026-02-19T12:42	0.0	1017	-8.2	130	1	70
2026-02-19T12:43	0.2	1017	-8.0	130	1	70
2026-02-19T12:44	0.3	1017	-8.2	110	1	70
2026-02-19T12:45	0.1	1017	-8.3	90	1	70
2026-02-19T12:46	-0.1	1017	-8.5	70	1	70
2026-02-19T12:47	-0.3	1017	-8.5	60	1	70
2026-02-19T12:48	-0.5	1017	-8.7	40	1	70
2026-02-19T12:49	-0.7	1017	-8.2	30	1	70
2026-02-19T12:50	-0.5	1017	-7.5	30	1	70
2026-02-19T12:51	-0.3	1017	-7.5	40	1	70
2026-02-19T12:52	-0.3	1017	-7.5	50	1	70
2026-02-19T12:53	-0.2	1017	-7.7	60	1	70
2026-02-19T12:54	-0.1	1017	-7.8	60	1	70
2026-02-19T12:55	-0.1	1017	-7.8	60	1	70
2026-02-19T12:56	0.0	1017	-8.0	180	1	70
2026-02-19T12:57	-0.4	1017	-8.1	260	1	70
2026-02-19T12:58	-0.9	1017	-7.7	270	1	70
2026-02-19T12:59	-0.9	1017	-8.3	280	1	70
2026-02-19T13:00	-0.6	1017	-8.3	290	1	70
2026-02-19T13:01	-0.4	1017	-8.3	290	1	70
2026-02-19T13:02	-0.8	1018	-8.7	280	1	70
2026-02-19T13:03	-1.2	1018	-8.4	280	1	70
2026-02-19T13:04	-0.9	1018	-7.9	280	1	70
2026-02-19T13:05	-0.8	1018	-8.0	280	1	70
2026-02-19T13:06	-0.7	1018	-7.9	270	1	70
2026-02-19T13:07	-0.6	1018	-8.1	260	1	70
2026-02-19T13:08	-0.4	1018	-8.1	240	1	70
2026-02-19T13:09	-0.3	1018	-8.0	220	1	70
2026-02-19T13:10	-0.9	1018	-8.8	190	1	70
2026-02-19T13:11	-1.6	1018	-9.0	170	1	70
2026-02-19T13:12	-1.6	1018	-8.8	160	1	70
2026-02-19T13:13	-1.4	1018	-8.4	150	1	70
2026-02-19T13:14	-0.9	1018	-8.1	140	1	70
2026-02-19T13:15	-0.6	1018	-7.6	140	1	70
2026-02-19T13:16	-0.4	1018	-7.6	140	1	70
2026-02-19T13:17	-0.3	1018	-7.5	150	1	70
2026-02-19T13:18	-0.7	1018	-8.2	150	1	70
2026-02-19T13:19	-1.0	1018	-8.4	160	1	70
2026-02-19T13:20	-0.9	1018	-8.1	160	1	70
2026-02-19T13:21	-0.7	1018	-7.9	170	1	70
2026-02-19T13:22	-0.5	1018	-8.0	180	1	70
2026-02-19T13:23	-0.7	1018	-8.2	190	1	70
2026-02-19T13:24	-0.6	1018	-8.1	210	1	70
2026-02-19T13:25	-1.2	1018	-8.6	230	1	70
2026-02-19T13:26	-1.0	1018	-8.2	250	1	70
2026-02-19T13:27	-0.9	1018	-8.1	260	1	70
2026-02-19T13:28	-1.1	1018	-8.1	270	0	70
2026-02-19T13:29	-1.1	1018	-8.1	270	0	70
2026-02-19T13:30	-1.0	1018	-8.0	120	0	70
2026-02-19T13:31	-0.6	1018	-7.4	110	0	70
2026-02-19T13:32	-0.7	1018	-7.7	0	0	70
2026-02-19T13:33	-0.9	1018	-7.9	0	0	70
2026-02-19T13:34	-1.0	1018	-7.8	0	0	70
2026-02-19T13:35	-1.1	1018	-7.9	0	0	70
2026-02-19T13:36	-0.9	1018	-7.7	0	0	70
2026-02-19T13:37	-1.3	1018	-7.8	0	0	70
2026-02-19T13:38	-1.5	1018	-7.8	0	0	70
2026-02-19T13:39	-1.0	1018	-7.3	0	0	70
2026-02-19T13:40	-0.8	1018	-7.4	0	0	70
2026-02-19T13:41	-0.9	1018	-7.7	0	0	70
2026-02-19T13:42	-1.0	1018	-7.8	0	0	70
2026-02-19T13:43	-0.9	1018	-7.9	0	0	70
2026-02-19T13:44	-1.0	1018	-8.0	0	0	70
2026-02-19T13:45	-0.9	1018	-8.1	0	0	70
2026-02-19T13:46	-0.8	1018	-8.0	0	0	70
2026-02-19T13:47	-0.7	1018	-8.2	0	0	70
2026-02-19T13:48	-0.6	1018	-8.1	0	0	70
2026-02-19T13:49	-0.7	1018	-7.9	0	0	70
2026-02-19T13:50	-0.9	1018	-8.1	0	0	70
2026-02-19T13:51	-1.2	1018	-8.2	0	0	70
2026-02-19T13:52	-1.1	1018	-7.9	0	0	70
2026-02-19T13:53	-1.3	1018	-8.1	0	0	70
2026-02-19T13:54	-1.4	1018	-7.7	0	0	70
2026-02-19T13:55	-1.4	1018	-6.9	0	0	70
2026-02-19T13:56	-1.5	1018	-7.2	0	0	70
2026-02-19T13:57	-2.0	1017	-7.9	0	0	70
2026-02-19T13:58	-2.1	1017	-7.8	340	0	70
2026-02-19T13:59	-1.9	1017	-7.6	320	0	70
2026-02-19T14:00	-1.6	1017	-7.5	30	0	70
2026-02-19T14:01	-1.5	1018	-7.8	360	0	70
2026-02-19T14:02	-1.5	1018	-8.0	340	0	70
2026-02-19T14:03	-1.3	1018	-7.8	340	0	70
2026-02-19T14:04	-1.3	1018	-8.1	340	0	70
2026-02-19T14:05	-1.4	1018	-8.2	340	0	70
2026-02-19T14:06	-1.2	1018	-8.0	350	0	70
2026-02-19T14:07	-1.4	1018	-8.2	360	0	70
2026-02-19T14:08	-1.4	1018	-7.9	20	0	70
2026-02-19T14:09	-1.2	1018	-7.7	40	0	70
2026-02-19T14:10	-1.0	1018	-7.6	60	0	70
2026-02-19T14:11	-0.9	1017	-7.7	80	0	70
2026-02-19T14:12	-1.0	1017	-8.0	90	1	70
2026-02-19T14:13	-1.3	1017	-8.1	100	1	70
2026-02-19T14:14	-1.1	1017	-7.7	110	1	70
2026-02-19T14:15	-1.4	1017	-7.9	110	1	70
2026-02-19T14:16	-1.4	1017	-7.5	110	1	70
2026-02-19T14:17	-1.4	1017	-7.7	110	1	70
2026-02-19T14:18	-1.4	1017	-7.7	120	1	70
2026-02-19T14:19	-1.7	1017	-8.0	120	1	70
2026-02-19T14:20	-1.6	1017	-7.7	120	1	70
2026-02-19T14:21	-1.4	1017	-7.5	120	1	70
2026-02-19T14:22	-1.8	1017	-8.1	110	1	70
2026-02-19T14:23	-1.8	1017	-7.9	110	1	70
2026-02-19T14:24	-1.5	1017	-7.6	110	1	70
2026-02-19T14:25	-1.5	1017	-7.6	110	1	70
2026-02-19T14:26	-1.3	1017	-7.6	110	1	70
2026-02-19T14:27	-1.2	1017	-7.7	110	1	70
2026-02-19T14:28	-1.1	1017	-7.7	110	1	70
2026-02-19T14:29	-1.2	1017	-7.7	110	1	70
2026-02-19T14:30	-1.1	1018	-7.7	110	1	70
2026-02-19T14:31	-1.3	1017	-7.8	120	1	70
2026-02-19T14:32	-1.3	1017	-7.8	130	1	70
2026-02-19T14:33	-1.8	1017	-8.3	130	1	70
2026-02-19T14:34	-1.9	1017	-8.2	130	1	70
2026-02-19T14:35	-1.9	1017	-7.4	140	1	70
2026-02-19T14:36	-2.0	1017	-6.7	140	0	70
2026-02-19T14:37	-2.0	1017	-6.9	150	0	70
2026-02-19T14:38	-1.9	1017	-7.2	150	0	70
2026-02-19T14:39	-1.9	1017	-7.4	150	0	70
2026-02-19T14:40	-1.7	1017	-7.4	150	0	70
2026-02-19T14:41	-1.8	1018	-7.5	150	0	70
2026-02-19T14:42	-1.9	1018	-7.6	140	0	70
2026-02-19T14:43	-1.6	1018	-7.3	140	1	70
2026-02-19T14:44	-1.7	1018	-7.4	140	1	70
2026-02-19T14:45	-1.9	1018	-7.6	130	1	70
2026-02-19T14:46	-2.2	1018	-7.9	130	1	70
2026-02-19T14:47	-2.3	1018	-7.8	120	1	70
2026-02-19T14:48	-2.6	1018	-7.9	110	1	70
2026-02-19T14:49	-2.6	1018	-7.5	110	1	70
2026-02-19T14:50	-2.2	1018	-6.9	100	1	70
2026-02-19T14:51	-1.9	1018	-6.8	100	1	70
2026-02-19T14:52	-2.1	1018	-7.2	100	1	70
2026-02-19T14:53	-1.9	1018	-7.0	110	1	70
2026-02-19T14:54	-1.9	1018	-7.0	110	1	70
2026-02-19T14:55	-1.8	1018	-7.1	110	1	70
2026-02-19T14:56	-1.7	1018	-7.2	110	1	70
2026-02-19T14:57	-1.6	1018	-7.3	110	1	70
2026-02-19T14:58	-1.8	1018	-7.3	120	1	70
2026-02-19T14:59	-1.9	1018	-7.4	130	1	70
2026-02-19T15:00	-2.1	1018	-7.4	140	1	70
2026-02-19T15:01	-2.1	1018	-7.2	150	1	70
2026-02-19T15:02	-2.5	1018	-7.6	160	1	70
2026-02-19T15:03	-2.2	1018	-7.1	170	1	70
2026-02-19T15:04	-2.0	1018	-7.1	180	1	70
2026-02-19T15:05	-1.9	1018	-7.0	200	0	70
2026-02-19T15:06	-2.4	1018	-7.5	200	0	70
2026-02-19T15:07	-2.5	1018	-7.4	200	0	70
2026-02-19T15:08	-2.1	1018	-7.0	200	0	70
2026-02-19T15:09	-1.9	1018	-6.8	200	0	70
2026-02-19T15:10	-1.7	1018	-6.8	180	0	70
2026-02-19T15:11	-1.8	1018	-6.9	170	0	70
2026-02-19T15:12	-1.8	1018	-7.1	160	0	70
2026-02-19T15:13	-1.9	1018	-7.2	150	1	70
2026-02-19T15:14	-1.9	1018	-7.2	140	1	70
2026-02-19T15:15	-2.0	1018	-7.3	140	1	70
2026-02-19T15:16	-2.0	1018	-7.1	130	1	70
2026-02-19T15:17	-2.1	1018	-7.2	140	1	70
2026-02-19T15:18	-2.3	1018	-7.4	140	1	70
2026-02-19T15:19	-2.2	1018	-7.1	150	1	70
2026-02-19T15:20	-2.0	1018	-6.9	150	1	70
2026-02-19T15:21	-1.9	1018	-6.8	150	1	70
2026-02-19T15:22	-2.0	1018	-6.9	150	1	70
2026-02-19T15:23	-2.1	1018	-7.0	160	1	70
2026-02-19T15:24	-2.0	1018	-6.9	170	1	70
2026-02-19T15:25	-2.1	1018	-7.0	170	1	70
2026-02-19T15:26	-2.5	1018	-7.4	170	1	70
2026-02-19T15:27	-2.4	1018	-7.1	170	1	70
2026-02-19T15:28	-2.2	1018	-6.9	170	0	70
2026-02-19T15:29	-2.1	1018	-6.8	170	0	70
2026-02-19T15:30	-2.5	1018	-7.2	170	0	70
2026-02-19T15:31	-2.5	1018	-7.2	0	0	70
2026-02-19T15:32	-2.4	1018	-7.1	0	0	70
2026-02-19T15:33	-2.2	1018	-7.1	0	0	70
2026-02-19T15:34	-2.2	1018	-7.3	0	0	70
2026-02-19T15:35	-2.1	1018	-7.2	320	0	70
2026-02-19T15:36	-2.1	1018	-7.2	340	0	70
2026-02-19T15:37	-2.2	1018	-7.3	300	1	70
2026-02-19T15:38	-2.2	1018	-7.5	330	1	70
2026-02-19T15:39	-2.2	1018	-7.5	340	1	70
2026-02-19T15:40	-2.2	1018	-7.5	340	1	70
2026-02-19T15:41	-2.2	1018	-7.3	350	1	70
2026-02-19T15:42	-2.3	1018	-7.4	350	1	70
2026-02-19T15:43	-2.3	1018	-7.4	350	1	70
2026-02-19T15:44	-2.1	1018	-7.2	360	1	70
2026-02-19T15:45	-2.1	1018	-7.2	360	1	70
2026-02-19T15:46	-2.1	1018	-7.4	360	0	70
2026-02-19T15:47	-2.2	1018	-7.5	360	0	70
2026-02-19T15:48	-2.2	1018	-7.3	0	0	70
2026-02-19T15:49	-2.5	1018	-7.6	0	0	70
2026-02-19T15:50	-2.7	1018	-7.8	0	0	70
2026-02-19T15:51	-2.5	1018	-7.4	0	0	70
2026-02-19T15:52	-2.5	1018	-7.2	0	0	70
2026-02-19T15:53	-2.4	1018	-7.1	0	0	70
2026-02-19T15:54	-2.4	1018	-7.3	0	0	70
2026-02-19T15:55	-2.4	1018	-7.3	0	0	70
2026-02-19T15:56	-2.3	1018	-7.2	0	0	70
2026-02-19T15:57	-2.4	1018	-7.3	0	0	70
2026-02-19T15:58	-2.7	1018	-7.6	0	0	70
2026-02-19T15:59	-2.5	1018	-7.2	0	0	70
2026-02-19T16:00	-2.4	1018	-7.1	0	0	70
2026-02-19T16:01	-2.3	1018	-7.0	0	0	70
2026-02-19T16:02	-2.3	1018	-7.0	0	0	70
2026-02-19T16:03	-2.4	1018	-7.3	0	0	70
2026-02-19T16:04	-2.4	1018	-7.3	0	0	70
2026-02-19T16:05	-2.3	1018	-7.2	0	0	70
2026-02-19T16:06	-2.3	1018	-7.2	300	0	70
2026-02-19T16:07	-2.4	1018	-7.3	300	0	70
2026-02-19T16:08	-2.5	1018	-7.4	300	0	70
2026-02-19T16:09	-2.4	1018	-7.3	310	0	70
2026-02-19T16:10	-2.4	1018	-7.3	310	0	70
2026-02-19T16:11	-2.4	1018	-7.3	320	0	70
2026-02-19T16:12	-2.4	1018	-7.3	0	0	70
2026-02-19T16:13	-2.5	1018	-7.4	0	0	70
2026-02-19T16:14	-2.6	1018	-7.5	0	0	70
2026-02-19T16:15	-2.7	1018	-7.6	0	0	70
2026-02-19T16:16	-2.7	1018	-7.4	0	0	70
2026-02-19T16:17	-2.5	1018	-7.2	0	0	70
2026-02-19T16:18	-2.5	1018	-7.4	0	0	70
2026-02-19T16:19	-2.5	1018	-7.4	0	0	70
2026-02-19T16:20	-2.6	1018	-7.5	0	0	70
2026-02-19T16:21	-2.6	1018	-7.5	330	0	70
2026-02-19T16:22	-2.6	1018	-7.3	330	0	70
2026-02-19T16:23	-2.6	1018	-7.5	330	0	70
2026-02-19T16:24	-2.4	1018	-7.3	330	1	70
2026-02-19T16:25	-2.4	1018	-7.3	330	1	70
2026-02-19T16:26	-2.4	1018	-7.5	330	1	70
2026-02-19T16:27	-2.4	1018	-7.5	330	1	70
2026-02-19T16:28	-2.5	1018	-7.6	330	1	70
2026-02-19T16:29	-2.5	1018	-7.6	330	1	70
2026-02-19T16:30	-2.5	1018	-7.4	330	1	70
2026-02-19T16:31	-2.6	1018	-7.5	330	1	70
2026-02-19T16:32	-2.6	1018	-7.5	330	1	70
2026-02-19T16:33	-2.6	1018	-7.5	340	1	70
2026-02-19T16:34	-2.8	1018	-7.7	340	1	70
2026-02-19T16:35	-2.9	1018	-7.4	340	1	70
2026-02-19T16:36	-2.9	1018	-7.4	340	1	70
2026-02-19T16:37	-3.1	1018	-7.6	340	1	70
2026-02-19T16:38	-3.3	1018	-7.6	340	1	70
2026-02-19T16:39	-3.2	1018	-7.3	340	1	70
2026-02-19T16:40	-2.9	1018	-7.0	340	1	70
2026-02-19T16:41	-3.0	1018	-7.3	340	1	70
2026-02-19T16:42	-2.9	1018	-7.2	340	1	70
2026-02-19T16:43	-2.7	1018	-6.9	340	1	70
2026-02-19T16:44	-2.8	1018	-7.0	340	1	70
2026-02-19T16:45	-2.8	1018	-7.1	340	1	70
2026-02-19T16:46	-3.0	1018	-7.3	340	0	70
2026-02-19T16:47	-3.1	1018	-7.4	330	0	70
2026-02-19T16:48	-3.1	1018	-7.4	320	0	70
2026-02-19T16:49	-2.9	1018	-7.2	210	0	70
2026-02-19T16:50	-2.8	1018	-7.1	280	0	70
2026-02-19T16:51	-2.6	1018	-6.9	240	0	70
2026-02-19T16:52	-2.8	1018	-7.1	210	0	70
2026-02-19T16:53	-2.7	1018	-7.2	190	0	70
2026-02-19T16:54	-2.7	1018	-7.2	180	0	70
2026-02-19T16:55	-2.8	1018	-7.3	170	0	70
2026-02-19T16:56	-2.9	1018	-7.4	160	0	70
2026-02-19T16:57	-2.9	1018	-7.4	150	0	70
2026-02-19T16:58	-3.2	1018	-7.5	140	0	70
2026-02-19T16:59	-3.1	1018	-7.1	130	0	70
2026-02-19T17:00	-2.9	1018	-6.9	120	0	70
2026-02-19T17:01	-2.7	1018	-6.9	110	0	70
2026-02-19T17:02	-2.5	1018	-6.7	100	0	70
2026-02-19T17:03	-2.7	1018	-7.0	90	0	70
2026-02-19T17:04	-2.8	1018	-7.1	80	0	70
2026-02-19T17:05	-2.9	1018	-7.0	80	0	70
2026-02-19T17:06	-2.9	1018	-7.0	80	0	70
2026-02-19T17:07	-2.9	1018	-6.9	0	0	70
2026-02-19T17:08	-2.8	1018	-6.8	0	0	70
2026-02-19T17:09	-2.9	1018	-7.0	0	0	70
2026-02-19T17:10	-2.9	1018	-7.0	110	0	70
2026-02-19T17:11	-2.9	1018	-7.0	120	0	70
2026-02-19T17:12	-3.1	1018	-7.2	130	0	70
2026-02-19T17:13	-3.3	1018	-7.3	150	0	70
2026-02-19T17:14	-3.2	1018	-7.0	160	0	70
2026-02-19T17:15	-3.1	1018	-6.9	160	0	70
2026-02-19T17:16	-3.1	1018	-6.9	170	0	70
2026-02-19T17:17	-3.1	1018	-6.9	180	0	70
2026-02-19T17:18	-3.0	1018	-6.8	180	0	70
2026-02-19T17:19	-3.0	1018	-6.8	0	0	70
2026-02-19T17:20	-3.0	1018	-7.0	0	0	70
2026-02-19T17:21	-2.9	1018	-6.9	0	0	70
2026-02-19T17:22	-2.9	1018	-6.9	0	0	70
2026-02-19T17:23	-3.1	1018	-7.1	0	0	70
2026-02-19T17:24	-3.3	1018	-7.3	0	0	70
2026-02-19T17:25	-3.2	1018	-7.0	0	0	70
2026-02-19T17:26	-3.0	1018	-6.8	0	0	70
2026-02-19T17:27	-3.0	1018	-6.8	0	0	70
2026-02-19T17:28	-3.2	1018	-7.0	0	0	70
2026-02-19T17:29	-3.1	1018	-6.9	0	0	70
2026-02-19T17:30	-3.0	1018	-6.8	0	0	70
2026-02-19T17:31	-2.9	1018	-6.7	0	0	70
2026-02-19T17:32	-3.0	1018	-6.8	0	0	70
2026-02-19T17:33	-3.0	1018	-6.8	0	0	70
2026-02-19T17:34	-3.1	1018	-6.9	0	0	70
2026-02-19T17:35	-3.0	1018	-7.0	40	0	70
2026-02-19T17:36	-2.9	1018	-6.9	20	0	70
2026-02-19T17:37	-3.0	1018	-7.0	60	1	70
2026-02-19T17:38	-3.1	1018	-7.1	20	1	70
2026-02-19T17:39	-3.3	1018	-7.3	10	1	70
2026-02-19T17:40	-3.4	1018	-7.2	360	1	70
2026-02-19T17:41	-3.3	1018	-7.1	350	1	70
2026-02-19T17:42	-3.0	1018	-6.8	350	1	70
2026-02-19T17:43	-3.0	1018	-6.8	340	1	70
2026-02-19T17:44	-3.1	1018	-6.9	330	1	70
2026-02-19T17:45	-3.1	1018	-6.9	320	1	70
2026-02-19T17:46	-3.1	1018	-6.9	310	1	70
2026-02-19T17:47	-3.0	1018	-6.8	300	1	70
2026-02-19T17:48	-3.1	1018	-6.9	290	1	70
2026-02-19T17:49	-3.2	1018	-7.0	280	0	70
2026-02-19T17:50	-3.3	1018	-7.1	270	0	70
2026-02-19T17:51	-3.4	1018	-7.0	0	0	70
2026-02-19T17:52	-3.4	1018	-7.0	0	0	70
2026-02-19T17:53	-3.3	1018	-6.9	0	0	70
2026-02-19T17:54	-3.3	1018	-6.9	0	0	70
2026-02-19T17:55	-3.2	1018	-6.8	0	0	70
2026-02-19T17:56	-3.4	1018	-7.0	0	0	70
2026-02-19T17:57	-3.3	1018	-6.9	0	0	70
2026-02-19T17:58	-3.3	1018	-6.9	0	0	70
2026-02-19T17:59	-3.3	1018	-6.9	0	0	70
2026-02-19T18:00	-3.5	1018	-7.1	0	0	70
2026-02-19T18:01	-3.5	1018	-6.9	0	0	70
2026-02-19T18:02	-3.4	1018	-6.8	0	0	70
2026-02-19T18:03	-3.3	1018	-6.7	0	0	70
2026-02-19T18:04	-3.2	1018	-6.6	0	0	70
2026-02-19T18:05	-3.0	1018	-6.4	0	0	70
2026-02-19T18:06	-3.0	1018	-6.6	0	0	70
2026-02-19T18:07	-3.2	1018	-6.8	0	0	70
2026-02-19T18:08	-3.2	1018	-6.8	0	0	70
2026-02-19T18:09	-3.3	1018	-6.9	0	0	70
2026-02-19T18:10	-3.4	1018	-6.8	0	0	70
2026-02-19T18:11	-3.4	1018	-6.7	0	0	70
2026-02-19T18:12	-3.3	1018	-6.6	0	0	70
2026-02-19T18:13	-3.3	1018	-6.6	0	0	70
2026-02-19T18:14	-3.2	1018	-6.6	0	0	70
2026-02-19T18:15	-3.3	1018	-6.7	0	0	70
2026-02-19T18:16	-3.5	1018	-6.9	0	0	70
2026-02-19T18:17	-3.5	1018	-6.8	0	0	70
2026-02-19T18:18	-3.3	1018	-6.4	0	0	70
2026-02-19T18:19	-3.3	1018	-6.6	0	0	70
2026-02-19T18:20	-3.4	1018	-6.7	0	0	70
2026-02-19T18:21	-3.4	1018	-6.7	0	0	70
2026-02-19T18:22	-3.3	1018	-6.6	0	0	70
2026-02-19T18:23	-3.3	1018	-6.6	0	0	70
2026-02-19T18:24	-3.4	1018	-6.7	0	0	70
2026-02-19T18:25	-3.3	1018	-6.6	0	0	70
2026-02-19T18:26	-3.4	1018	-6.7	0	0	70
2026-02-19T18:27	-3.5	1018	-6.8	0	0	70
2026-02-19T18:28	-3.4	1018	-6.7	0	0	70
2026-02-19T18:29	-3.1	1018	-6.2	0	0	70
2026-02-19T18:30	-3.1	1018	-6.2	0	0	70
2026-02-19T18:31	-3.2	1018	-6.3	0	0	70
2026-02-19T18:32	-3.3	1018	-6.4	0	0	70
2026-02-19T18:33	-3.4	1018	-6.5	0	0	70
2026-02-19T18:34	-3.4	1018	-6.5	0	0	70
2026-02-19T18:35	-3.3	1018	-6.4	0	0	70
2026-02-19T18:36	-3.2	1018	-6.3	0	0	70
2026-02-19T18:37	-3.2	1018	-6.3	0	0	70
2026-02-19T18:38	-3.3	1018	-6.4	0	0	70
2026-02-19T18:39	-3.4	1018	-6.5	0	0	70
2026-02-19T18:40	-3.5	1018	-6.6	230	0	70
2026-02-19T18:41	-3.7	1018	-6.6	250	0	70
2026-02-19T18:42	-3.9	1018	-6.8	280	0	70
2026-02-19T18:43	-3.6	1018	-6.4	300	0	70
2026-02-19T18:44	-3.4	1018	-6.2	310	0	70
2026-02-19T18:45	-3.3	1018	-6.2	320	0	70
2026-02-19T18:46	-3.2	1018	-6.1	320	0	70
2026-02-19T18:47	-3.2	1018	-6.1	330	0	70
2026-02-19T18:48	-3.3	1018	-6.4	0	0	70
2026-02-19T18:49	-3.3	1018	-6.4	0	0	70
2026-02-19T18:50	-3.3	1018	-6.4	0	0	70
2026-02-19T18:51	-3.2	1018	-6.3	0	0	70
2026-02-19T18:52	-3.3	1018	-6.4	0	0	70
2026-02-19T18:53	-3.4	1018	-6.5	290	0	70
2026-02-19T18:54	-3.3	1018	-6.4	280	0	70
2026-02-19T18:55	-3.3	1018	-6.2	270	1	70
2026-02-19T18:56	-3.3	1018	-6.1	260	1	70
2026-02-19T18:57	-3.4	1018	-6.0	250	1	70
2026-02-19T18:58	-3.4	1018	-6.0	240	1	70
2026-02-19T18:59	-3.3	1018	-5.9	240	1	70
2026-02-19T19:00	-3.3	1018	-5.9	240	1	70
2026-02-19T19:01	-3.1	1018	-5.9	240	1	70
2026-02-19T19:02	-3.0	1018	-6.1	240	1	70
2026-02-19T19:03	-3.1	1018	-6.2	240	1	70
2026-02-19T19:04	-3.3	1018	-6.6	240	1	70
2026-02-19T19:05	-3.1	1018	-6.2	240	1	70
2026-02-19T19:06	-3.0	1018	-6.3	240	0	70
2026-02-19T19:07	-3.2	1018	-6.5	240	0	70
2026-02-19T19:08	-3.3	1018	-6.6	0	0	70
2026-02-19T19:09	-3.2	1018	-6.3	0	0	70
2026-02-19T19:10	-3.1	1018	-6.4	260	0	70
2026-02-19T19:11	-3.0	1018	-6.3	270	0	70
2026-02-19T19:12	-2.9	1018	-6.2	290	0	70
2026-02-19T19:13	-3.0	1018	-6.4	310	1	70
2026-02-19T19:14	-3.0	1018	-6.4	320	1	70
2026-02-19T19:15	-3.1	1018	-6.5	340	1	70
2026-02-19T19:16	-3.3	1018	-6.7	350	1	70
2026-02-19T19:17	-3.2	1018	-6.5	360	1	70
2026-02-19T19:18	-3.1	1018	-6.4	360	1	70
2026-02-19T19:19	-3.0	1018	-6.3	360	0	70
2026-02-19T19:20	-2.9	1018	-6.2	360	0	70
2026-02-19T19:21	-3.0	1018	-6.3	10	0	70
2026-02-19T19:22	-3.3	1018	-6.7	0	0	70
2026-02-19T19:23	-3.3	1018	-6.6	0	0	70
2026-02-19T19:24	-3.3	1018	-6.6	0	0	70
2026-02-19T19:25	-3.3	1018	-6.6	0	0	70
2026-02-19T19:26	-3.2	1018	-6.3	0	0	70
2026-02-19T19:27	-3.2	1018	-6.3	0	0	70
2026-02-19T19:28	-3.1	1018	-6.2	0	0	70
2026-02-19T19:29	-3.1	1018	-5.9	0	0	70
2026-02-19T19:30	-3.2	1018	-6.0	0	0	70
2026-02-19T19:31	-3.2	1018	-6.1	340	0	70
2026-02-19T19:32	-3.4	1018	-6.3	330	0	70
2026-02-19T19:33	-3.4	1018	-6.5	310	0	70
2026-02-19T19:34	-3.3	1018	-6.4	300	0	70
2026-02-19T19:35	-3.1	1018	-6.2	290	0	70
2026-02-19T19:36	-3.0	1018	-6.3	280	0	70
2026-02-19T19:37	-3.0	1018	-6.4	270	0	70
2026-02-19T19:38	-2.9	1018	-6.4	270	0	70
2026-02-19T19:39	-2.9	1018	-6.4	0	0	70
2026-02-19T19:40	-3.0	1018	-6.4	0	0	70
2026-02-19T19:41	-3.0	1018	-6.4	0	0	70
2026-02-19T19:42	-3.0	1018	-6.4	0	0	70
2026-02-19T19:43	-3.0	1018	-6.4	0	0	70
2026-02-19T19:44	-3.0	1018	-6.3	0	0	70
2026-02-19T19:45	-2.9	1018	-6.2	0	0	70
2026-02-19T19:46	-2.9	1018	-6.4	0	0	70
2026-02-19T19:47	-2.8	1018	-6.3	0	0	70
2026-02-19T19:48	-2.7	1018	-6.0	0	0	70
2026-02-19T19:49	-2.7	1018	-5.8	0	0	70
2026-02-19T19:50	-3.0	1018	-5.9	270	0	70
2026-02-19T19:51	-3.1	1018	-5.9	270	0	70
2026-02-19T19:52	-3.2	1018	-5.8	270	1	70
2026-02-19T19:53	-3.2	1018	-6.0	270	1	70
2026-02-19T19:54	-3.2	1018	-6.0	260	1	70
2026-02-19T19:55	-3.2	1018	-6.0	260	1	70
2026-02-19T19:56	-3.0	1018	-5.8	260	1	70
2026-02-19T19:57	-2.8	1018	-5.8	260	1	70
2026-02-19T19:58	-2.7	1018	-5.8	250	1	70
2026-02-19T19:59	-2.8	1018	-5.9	250	1	70
2026-02-19T20:00	-2.6	1018	-5.9	240	1	70
2026-02-19T20:01	-2.5	1018	-5.8	240	1	70
2026-02-19T20:02	-2.4	1018	-5.9	240	1	70
2026-02-19T20:03	-2.4	1018	-5.9	240	1	70
2026-02-19T20:04	-2.6	1018	-6.1	240	1	70
2026-02-19T20:05	-2.8	1018	-5.9	240	1	70
2026-02-19T20:06	-2.6	1018	-5.7	240	1	70
2026-02-19T20:07	-2.5	1018	-6.0	250	1	70
2026-02-19T20:08	-2.4	1018	-6.0	250	1	70
2026-02-19T20:09	-2.5	1018	-6.0	260	1	70
2026-02-19T20:10	-2.5	1018	-6.0	260	1	70
2026-02-19T20:11	-2.5	1018	-6.0	260	1	70
2026-02-19T20:12	-2.5	1018	-6.0	270	1	70
2026-02-19T20:13	-2.4	1018	-6.0	270	1	70
2026-02-19T20:14	-2.4	1018	-6.2	270	0	70
2026-02-19T20:15	-2.4	1018	-6.2	270	0	70
2026-02-19T20:16	-2.4	1018	-6.0	270	0	70
2026-02-19T20:17	-2.3	1018	-5.8	270	1	70
2026-02-19T20:18	-2.2	1018	-5.7	260	1	70
2026-02-19T20:19	-2.1	1018	-5.6	260	1	70
2026-02-19T20:20	-2.1	1018	-5.6	250	0	70
2026-02-19T20:21	-2.2	1018	-5.8	250	0	70
2026-02-19T20:22	-2.1	1018	-5.7	250	0	70
2026-02-19T20:23	-2.1	1018	-5.9	240	0	70
2026-02-19T20:24	-2.1	1018	-5.9	240	1	70
2026-02-19T20:25	-2.2	1018	-5.8	240	1	70
2026-02-19T20:26	-2.1	1018	-5.6	240	1	70
2026-02-19T20:27	-2.1	1018	-5.6	240	1	70
2026-02-19T20:28	-2.3	1018	-5.6	240	1	70
2026-02-19T20:29	-2.4	1018	-5.7	250	1	70
2026-02-19T20:30	-2.3	1018	-5.8	260	1	70
2026-02-19T20:31	-2.3	1018	-5.9	260	1	70
2026-02-19T20:32	-2.3	1018	-6.1	270	1	70
2026-02-19T20:33	-2.3	1018	-6.1	280	1	70
2026-02-19T20:34	-2.4	1018	-6.0	300	1	70
2026-02-19T20:35	-2.4	1018	-5.9	310	1	70
2026-02-19T20:36	-2.3	1018	-5.8	320	1	70
2026-02-19T20:37	-2.4	1018	-5.7	330	1	70
2026-02-19T20:38	-2.4	1018	-5.9	330	1	70
2026-02-19T20:39	-2.4	1018	-6.0	340	1	70
2026-02-19T20:40	-2.4	1018	-6.0	340	1	70
2026-02-19T20:41	-2.4	1018	-6.0	330	1	70
2026-02-19T20:42	-2.4	1018	-5.9	330	1	70
2026-02-19T20:43	-2.4	1018	-6.0	330	1	70
2026-02-19T20:44	-2.5	1018	-6.1	330	1	70
2026-02-19T20:45	-2.4	1018	-5.9	330	1	70
2026-02-19T20:46	-2.4	1018	-5.9	330	1	70
2026-02-19T20:47	-2.4	1018	-6.0	320	1	70
2026-02-19T20:48	-2.2	1018	-5.8	320	1	70
2026-02-19T20:49	-2.1	1018	-5.7	320	1	70
2026-02-19T20:50	-2.0	1018	-5.6	310	1	70
2026-02-19T20:51	-1.9	1018	-5.5	300	1	70
2026-02-19T20:52	-1.8	1018	-5.5	290	1	70
2026-02-19T20:53	-1.8	1018	-5.6	280	1	70
2026-02-19T20:54	-2.0	1018	-5.8	280	1	70
2026-02-19T20:55	-2.0	1018	-5.8	270	1	70
2026-02-19T20:56	-1.6	1018	-5.8	270	1	70
2026-02-19T20:57	-1.9	1018	-5.9	270	1	70
2026-02-19T20:58	-2.0	1018	-6.0	270	1	70
2026-02-19T20:59	-2.0	1018	-6.0	280	1	70
2026-02-19T21:00	-2.1	1018	-5.9	290	1	70
2026-02-19T21:01	-1.8	1018	-5.8	290	1	70
2026-02-19T21:02	-1.6	1018	-5.8	290	1	70
2026-02-19T21:03	-1.3	1018	-5.9	290	1	70
2026-02-19T21:04	-1.3	1018	-6.1	290	1	70
2026-02-19T21:05	-1.6	1018	-6.3	290	1	70
2026-02-19T21:06	-1.8	1018	-6.3	290	1	70
2026-02-19T21:07	-1.9	1018	-6.1	290	1	70
2026-02-19T21:08	-1.9	1018	-6.3	290	1	70
2026-02-19T21:09	-2.2	1018	-6.4	290	1	70
2026-02-19T21:10	-2.2	1018	-6.0	290	1	70
2026-02-19T21:11	-2.0	1018	-5.8	290	1	70
2026-02-19T21:12	-2.0	1018	-6.0	300	1	70
2026-02-19T21:13	-2.2	1018	-6.0	300	1	70
2026-02-19T21:14	-2.1	1018	-5.9	310	1	70
2026-02-19T21:15	-2.0	1018	-6.0	310	1	70
2026-02-19T21:16	-2.0	1018	-6.0	310	1	70
2026-02-19T21:17	-2.0	1018	-6.2	310	1	70
2026-02-19T21:18	-1.8	1018	-6.0	310	1	70
2026-02-19T21:19	-1.8	1018	-6.2	310	1	70
2026-02-19T21:20	-1.7	1018	-5.9	300	1	70
2026-02-19T21:21	-1.8	1018	-6.0	290	1	70
2026-02-19T21:22	-1.7	1018	-5.7	290	1	70
2026-02-19T21:23	-2.0	1018	-5.6	290	1	70
2026-02-19T21:24	-2.0	1018	-5.6	290	1	70
2026-02-19T21:25	-1.8	1018	-6.0	290	1	70
2026-02-19T21:26	-1.7	1018	-5.9	280	1	70
2026-02-19T21:27	-1.8	1018	-6.0	290	1	70
2026-02-19T21:28	-1.7	1018	-5.9	290	1	70
2026-02-19T21:29	-1.7	1018	-5.5	290	1	70
2026-02-19T21:30	-1.8	1018	-5.5	300	1	70
2026-02-19T21:31	-1.7	1018	-5.5	300	1	70
2026-02-19T21:32	-2.0	1018	-5.5	300	1	70
2026-02-19T21:33	-1.8	1018	-5.6	290	1	70
2026-02-19T21:34	-1.5	1018	-5.7	290	1	70
2026-02-19T21:35	-1.6	1018	-5.8	280	1	70
2026-02-19T21:36	-1.8	1018	-5.6	280	1	70
2026-02-19T21:37	-1.6	1018	-5.8	280	1	70
2026-02-19T21:38	-1.4	1019	-6.0	270	0	70
2026-02-19T21:39	-1.3	1019	-6.1	270	0	70
2026-02-19T21:40	-1.1	1019	-5.9	260	1	70
2026-02-19T21:41	-0.9	1019	-5.7	260	1	70
2026-02-19T21:42	-0.7	1019	-5.9	260	1	70
2026-02-19T21:43	-0.7	1019	-6.0	250	1	70
2026-02-19T21:44	-1.0	1019	-6.3	250	1	70
2026-02-19T21:45	-1.0	1018	-6.3	250	1	70
2026-02-19T21:46	-1.0	1018	-6.3	250	1	70
2026-02-19T21:47	-1.3	1018	-6.2	250	1	70
2026-02-19T21:48	-1.3	1018	-6.2	260	1	70
2026-02-19T21:49	-1.3	1018	-6.2	260	1	70
2026-02-19T21:50	-1.3	1018	-6.2	270	1	70
2026-02-19T21:51	-1.4	1018	-5.8	280	1	70
2026-02-19T21:52	-1.2	1018	-5.8	280	1	70
2026-02-19T21:53	-1.0	1018	-6.0	290	1	70
2026-02-19T21:54	-0.9	1018	-6.0	290	1	70
2026-02-19T21:55	-1.1	1018	-5.9	300	1	70
2026-02-19T21:56	-1.0	1018	-5.8	290	1	70
2026-02-19T21:57	-0.9	1018	-5.7	290	1	70
2026-02-19T21:58	-0.8	1018	-5.6	290	1	70
2026-02-19T21:59	-0.8	1018	-5.8	290	1	70
2026-02-19T22:00	-0.8	1018	-6.0	290	1	70
2026-02-19T22:01	-0.8	1018	-5.8	290	1	70
2026-02-19T22:02	-0.8	1018	-5.6	290	1	70
2026-02-19T22:03	-0.7	1018	-5.5	300	1	70
2026-02-19T22:04	-0.7	1018	-5.7	300	1	70
2026-02-19T22:05	-0.8	1018	-5.4	300	1	70
2026-02-19T22:06	-0.8	1018	-5.4	310	1	70
2026-02-19T22:07	-0.8	1018	-5.4	320	1	70
2026-02-19T22:08	-0.6	1018	-6.0	320	1	70
2026-02-19T22:09	-0.6	1018	-5.6	330	1	70
2026-02-19T22:10	-0.6	1018	-6.0	330	1	70
2026-02-19T22:11	-0.5	1018	-5.9	330	1	70
2026-02-19T22:12	-0.4	1018	-6.0	320	1	70
2026-02-19T22:13	-0.4	1018	-6.2	310	1	70
2026-02-19T22:14	-0.4	1018	-6.0	300	1	70
2026-02-19T22:15	-0.4	1018	-5.8	290	1	70
2026-02-19T22:16	-0.4	1019	-5.8	280	1	70
2026-02-19T22:17	-0.4	1019	-6.2	270	1	70
2026-02-19T22:18	-0.4	1019	-6.0	260	1	70
2026-02-19T22:19	-0.4	1019	-6.0	250	1	70
2026-02-19T22:20	-0.3	1019	-5.7	250	1	70
2026-02-19T22:21	-0.4	1019	-5.6	240	1	70
2026-02-19T22:22	-0.4	1019	-5.6	240	1	70
2026-02-19T22:23	-0.4	1019	-5.2	250	1	70
2026-02-19T22:24	-0.4	1019	-5.0	250	1	70
2026-02-19T22:25	-0.4	1019	-5.4	260	1	70
2026-02-19T22:26	-0.3	1019	-5.3	260	1	70
2026-02-19T22:27	-0.2	1019	-5.8	260	1	70
2026-02-19T22:28	-0.2	1019	-5.6	270	1	70
2026-02-19T22:29	-0.2	1019	-5.2	270	1	70
2026-02-19T22:30	-0.3	1019	-5.1	280	1	70
2026-02-19T22:31	-0.1	1019	-5.5	290	1	70
2026-02-19T22:32	-0.2	1019	-5.6	290	1	70
2026-02-19T22:33	-0.1	1019	-5.9	300	1	70
2026-02-19T22:34	-0.1	1019	-5.7	300	1	70
2026-02-19T22:35	-0.1	1019	-5.7	300	1	70
2026-02-19T22:36	-0.1	1019	-5.3	310	1	70
2026-02-19T22:37	-0.1	1019	-5.3	320	1	70
2026-02-19T22:38	-0.1	1019	-5.5	320	1	70
2026-02-19T22:39	0.0	1019	-5.6	320	1	70
2026-02-19T22:40	0.0	1019	-5.6	330	1	70
2026-02-19T22:41	0.1	1019	-5.7	330	1	70
2026-02-19T22:42	0.1	1019	-5.9	330	1	70
2026-02-19T22:43	0.2	1019	-5.8	330	1	70
2026-02-19T22:44	0.2	1019	-5.4	330	1	70
2026-02-19T22:45	0.2	1019	-5.4	330	1	70
2026-02-19T22:46	0.3	1019	-5.5	330	1	70
2026-02-19T22:47	0.3	1019	-5.7	330	1	70
2026-02-19T22:48	0.3	1019	-5.9	320	1	70
2026-02-19T22:49	0.4	1019	-5.8	320	1	70
2026-02-19T22:50	0.4	1019	-5.4	320	1	70
2026-02-19T22:51	0.4	1019	-5.6	310	1	70
2026-02-19T22:52	0.6	1019	-5.2	310	1	70
2026-02-19T22:53	0.5	1019	-5.3	310	1	70
2026-02-19T22:54	0.6	1019	-5.4	310	1	70
2026-02-19T22:55	0.5	1019	-5.5	310	1	70
2026-02-19T22:56	0.6	1019	-5.6	310	1	70
2026-02-19T22:57	0.6	1019	-5.6	310	1	70
2026-02-19T22:58	0.7	1019	-5.3	310	1	70
2026-02-19T22:59	0.7	1019	-5.3	310	1	70
2026-02-19T23:00	0.7	1019	-5.3	310	1	70
2026-02-19T23:01	0.7	1019	-5.7	310	1	70
2026-02-19T23:02	0.7	1019	-5.7	300	1	70
2026-02-19T23:03	0.8	1019	-5.4	300	1	70
2026-02-19T23:04	0.9	1019	-5.1	300	1	70
2026-02-19T23:05	0.8	1019	-5.2	300	1	70
2026-02-19T23:06	0.8	1019	-5.6	300	1	70
2026-02-19T23:07	0.8	1019	-5.6	300	1	70
2026-02-19T23:08	0.8	1019	-5.6	290	1	70
2026-02-19T23:09	1.0	1019	-5.0	300	1	70
2026-02-19T23:10	1.0	1019	-5.0	300	1	70
2026-02-19T23:11	1.1	1019	-4.9	300	1	70
2026-02-19T23:12	1.1	1019	-4.7	300	1	70
2026-02-19T23:13	1.2	1019	-4.6	300	1	70
2026-02-19T23:14	1.0	1019	-5.2	300	1	70
2026-02-19T23:15	1.0	1019	-5.4	300	1	70
2026-02-19T23:16	1.0	1019	-5.4	300	1	70
2026-02-19T23:17	1.2	1019	-5.0	300	1	70
2026-02-19T23:18	1.4	1019	-4.2	300	2	70
2026-02-19T23:19	1.4	1019	-4.4	300	2	70
2026-02-19T23:20	1.4	1019	-4.4	300	2	70
2026-02-19T23:21	1.4	1019	-4.6	310	2	70
2026-02-19T23:22	1.3	1019	-4.9	310	2	70
2026-02-19T23:23	1.2	1019	-5.3	310	2	70
2026-02-19T23:24	1.2	1019	-5.3	310	2	70
2026-02-19T23:25	1.3	1019	-5.2	310	2	70
2026-02-19T23:26	1.4	1019	-5.1	310	2	70
2026-02-19T23:27	1.3	1019	-5.2	310	2	70
2026-02-19T23:28	1.4	1019	-4.9	310	1	70
2026-02-19T23:29	1.4	1019	-5.1	310	1	70
2026-02-19T23:30	1.4	1019	-5.3	310	1	70
2026-02-19T23:31	1.5	1019	-4.8	310	1	70
2026-02-19T23:32	1.4	1019	-5.1	310	1	70
2026-02-19T23:33	1.4	1019	-5.1	310	1	70
2026-02-19T23:34	1.3	1019	-5.4	310	1	70
2026-02-19T23:35	1.3	1019	-5.6	310	1	70
2026-02-19T23:36	1.2	1019	-5.7	310	2	70
2026-02-19T23:37	1.3	1019	-5.6	310	2	70
2026-02-19T23:38	1.3	1019	-5.6	310	2	70
2026-02-19T23:39	1.4	1019	-5.3	310	2	70
2026-02-19T23:40	1.6	1019	-4.9	310	1	70
2026-02-19T23:41	1.6	1019	-4.9	310	1	70
2026-02-19T23:42	1.6	1019	-5.1	310	1	70
2026-02-19T23:43	1.6	1019	-5.3	310	1	70
2026-02-19T23:44	1.5	1019	-5.6	310	1	70
2026-02-19T23:45	1.6	1019	-5.3	310	1	70
2026-02-19T23:46	1.8	1019	-4.9	310	1	70
2026-02-19T23:47	1.7	1019	-5.2	300	1	70
2026-02-19T23:48	1.7	1019	-5.2	300	1	70
2026-02-19T23:49	1.6	1019	-5.5	300	2	70
2026-02-19T23:50	1.6	1019	-5.5	300	2	70
2026-02-19T23:51	1.7	1019	-5.4	300	2	70
2026-02-19T23:52	1.7	1019	-5.4	300	2	70
2026-02-19T23:53	1.7	1019	-5.7	300	2	70
2026-02-19T23:54	1.8	1019	-5.3	310	2	70
2026-02-19T23:55	1.9	1019	-5.2	310	2	70
2026-02-19T23:56	1.8	1019	-5.3	310	2	70
2026-02-19T23:57	1.9	1019	-5.2	320	2	70
2026-02-19T23:58	1.9	1019	-5.5	320	2	70
2026-02-19T23:59	2.0	1019	-5.4	330	2	70
2026-02-20T00:00	2.2	1019	-5.2	320	2	70
2026-02-20T00:01	2.3	1019	-5.1	320	2	70
2026-02-20T00:02	2.4	1019	-4.8	320	2	70
2026-02-20T00:03	2.3	1019	-5.1	320	2	70
2026-02-20T00:04	2.3	1019	-5.1	310	2	70
2026-02-20T00:05	2.3	1019	-5.3	310	2	70
2026-02-20T00:06	2.3	1019	-5.3	310	2	70
2026-02-20T00:07	2.4	1019	-5.0	300	2	70
2026-02-20T00:08	2.2	1019	-5.4	300	2	70
2026-02-20T00:09	2.1	1019	-5.7	300	2	70
2026-02-20T00:10	2.3	1019	-5.3	300	2	70
2026-02-20T00:11	2.2	1019	-5.7	300	2	70
2026-02-20T00:12	2.1	1019	-5.7	310	2	70
2026-02-20T00:13	2.0	1019	-5.8	310	2	70
2026-02-20T00:14	2.1	1019	-5.7	310	2	70
2026-02-20T00:15	2.2	1019	-5.7	310	2	70
2026-02-20T00:16	2.3	1019	-5.6	310	2	70
2026-02-20T00:17	2.3	1019	-5.6	310	2	70
2026-02-20T00:18	2.4	1019	-5.2	310	2	70
2026-02-20T00:19	2.7	1019	-4.9	310	2	70
2026-02-20T00:20	2.4	1019	-5.7	320	2	70
2026-02-20T00:21	2.4	1019	-5.5	320	2	70
2026-02-20T00:22	2.4	1019	-5.7	320	2	70
2026-02-20T00:23	2.4	1019	-5.5	320	2	70
2026-02-20T00:24	2.3	1019	-5.8	320	2	70
2026-02-20T00:25	2.3	1019	-5.6	320	2	70
2026-02-20T00:26	2.5	1019	-5.1	320	2	70
2026-02-20T00:27	2.5	1019	-5.4	320	2	70
2026-02-20T00:28	2.4	1019	-5.7	310	2	70
2026-02-20T00:29	2.4	1019	-5.7	310	2	70
2026-02-20T00:30	2.3	1019	-5.8	310	2	70
2026-02-20T00:31	2.4	1019	-5.5	310	2	70
2026-02-20T00:32	2.6	1019	-5.3	310	2	70
2026-02-20T00:33	2.8	1019	-5.1	310	2	70
2026-02-20T00:34	2.7	1019	-5.2	310	2	70
2026-02-20T00:35	2.7	1019	-5.2	300	2	70
2026-02-20T00:36	2.9	1019	-5.0	300	2	70
2026-02-20T00:37	3.0	1019	-5.1	300	2	70
2026-02-20T00:38	2.9	1019	-5.2	300	2	70
2026-02-20T00:39	2.7	1019	-5.7	310	2	70
2026-02-20T00:40	2.7	1019	-5.7	310	2	70
2026-02-20T00:41	2.6	1019	-5.8	310	2	70
2026-02-20T00:42	2.8	1019	-5.3	310	2	70
2026-02-20T00:43	2.8	1019	-5.6	310	2	70
2026-02-20T00:44	2.9	1019	-5.5	320	2	70
2026-02-20T00:45	3.4	1019	-4.5	320	2	70
2026-02-20T00:46	3.2	1019	-5.0	320	2	70
2026-02-20T00:47	3.4	1019	-5.0	320	2	70
2026-02-20T00:48	3.4	1019	-5.0	320	2	70
2026-02-20T00:49	3.3	1019	-5.1	310	2	70
2026-02-20T00:50	3.2	1019	-5.4	310	2	70
2026-02-20T00:51	3.3	1019	-5.3	310	2	70
2026-02-20T00:52	3.3	1019	-5.3	310	2	70
2026-02-20T00:53	3.3	1019	-5.3	310	2	70
2026-02-20T00:54	3.2	1019	-5.4	310	2	70
2026-02-20T00:55	3.1	1019	-5.8	310	2	70
2026-02-20T00:56	3.1	1019	-5.8	310	2	70
2026-02-20T00:57	3.2	1018	-5.4	310	2	70
2026-02-20T00:58	3.0	1018	-5.6	310	2	70
2026-02-20T00:59	3.2	1018	-5.4	320	2	70
2026-02-20T01:00	3.4	1018	-5.3	320	2	70
2026-02-20T01:01	3.7	1018	-5.0	320	2	70
2026-02-20T01:02	3.6	1018	-5.3	320	2	70
2026-02-20T01:03	3.7	1018	-5.2	320	2	70
2026-02-20T01:04	3.7	1018	-5.2	320	2	70
2026-02-20T01:05	4.2	1018	-4.5	310	2	70
2026-02-20T01:06	4.1	1018	-5.1	300	2	70
2026-02-20T01:07	4.0	1018	-5.2	300	2	70
2026-02-20T01:08	3.9	1018	-5.6	300	2	70
2026-02-20T01:09	4.1	1018	-5.1	290	2	70
2026-02-20T01:10	4.1	1018	-5.4	280	2	70
2026-02-20T01:11	4.0	1018	-5.5	280	2	70
2026-02-20T01:12	4.1	1018	-5.6	280	2	70
2026-02-20T01:13	4.0	1018	-6.0	280	2	70
2026-02-20T01:14	4.2	1018	-5.5	290	2	70
2026-02-20T01:15	4.3	1018	-5.5	290	2	70
2026-02-20T01:16	4.2	1018	-5.5	300	2	70
2026-02-20T01:17	4.4	1018	-5.4	300	2	70
2026-02-20T01:18	4.6	1018	-5.2	300	2	70
2026-02-20T01:19	4.7	1018	-5.1	300	2	70
2026-02-20T01:20	4.6	1018	-5.2	300	2	70
2026-02-20T01:21	4.9	1018	-4.6	310	2	70
2026-02-20T01:22	4.7	1018	-5.1	310	2	70
2026-02-20T01:23	4.5	1018	-5.5	310	2	70
2026-02-20T01:24	4.8	1018	-5.0	310	2	70
2026-02-20T01:25	4.9	1018	-5.2	300	2	70
2026-02-20T01:26	4.9	1018	-5.2	300	2	70
2026-02-20T01:27	5.1	1018	-5.0	300	2	70
2026-02-20T01:28	5.0	1018	-5.1	300	2	70
2026-02-20T01:29	5.3	1018	-4.8	290	2	70
2026-02-20T01:30	4.9	1018	-6.3	290	2	70
2026-02-20T01:31	4.8	1018	-6.4	300	2	70
2026-02-20T01:32	4.8	1018	-6.4	300	2	70
2026-02-20T01:33	4.9	1018	-6.0	300	2	70
2026-02-20T01:34	5.1	1018	-5.5	300	2	70
2026-02-20T01:35	5.8	1018	-4.6	310	2	70
2026-02-20T01:36	6.0	1018	-4.7	300	2	70
2026-02-20T01:37	6.0	1018	-5.0	300	2	70
2026-02-20T01:38	5.5	1018	-6.1	300	2	70
2026-02-20T01:39	5.7	1018	-5.6	310	2	70
2026-02-20T01:40	6.1	1018	-4.9	310	1	70
2026-02-20T01:41	6.3	1018	-5.0	300	1	70
2026-02-20T01:42	6.3	1018	-5.3	300	2	70
2026-02-20T01:43	5.9	1018	-6.0	290	2	70
2026-02-20T01:44	6.4	1018	-4.9	290	2	70
2026-02-20T01:45	6.4	1018	-5.2	290	2	70
2026-02-20T01:46	6.4	1018	-5.2	290	1	70
2026-02-20T01:47	6.4	1018	-5.2	300	1	70
2026-02-20T01:48	6.5	1018	-5.2	290	1	70
2026-02-20T01:49	6.0	1018	-5.6	290	1	70
2026-02-20T01:50	5.6	1018	-6.0	280	1	70
2026-02-20T01:51	5.7	1018	-5.6	290	1	70
2026-02-20T01:52	6.0	1018	-5.3	290	1	70
2026-02-20T01:53	5.9	1018	-5.4	300	1	70
2026-02-20T01:54	5.8	1018	-5.8	300	1	70
2026-02-20T01:55	5.7	1018	-5.9	310	1	70
2026-02-20T01:56	6.0	1018	-5.3	310	1	70
2026-02-20T01:57	6.2	1018	-5.1	300	1	70
2026-02-20T01:58	6.6	1018	-4.8	310	1	70
2026-02-20T01:59	6.5	1018	-4.9	320	1	70
2026-02-20T02:00	6.4	1018	-4.9	310	1	70
2026-02-20T02:01	6.7	1018	-4.7	300	1	70
2026-02-20T02:02	7.2	1018	-4.2	290	1	70
2026-02-20T02:03	6.9	1018	-4.5	280	1	70
2026-02-20T02:04	6.8	1018	-4.9	270	1	70
2026-02-20T02:05	6.8	1018	-4.6	260	1	70
2026-02-20T02:06	7.2	1018	-4.2	260	1	70
2026-02-20T02:07	6.8	1018	-4.9	260	1	70
2026-02-20T02:08	7.3	1018	-4.1	260	1	70
2026-02-20T02:09	7.4	1018	-4.0	260	1	70
2026-02-20T02:10	6.9	1018	-4.5	260	1	70
2026-02-20T02:11	6.7	1018	-4.7	250	1	70
2026-02-20T02:12	7.3	1018	-3.8	260	1	70
2026-02-20T02:13	7.2	1018	-4.2	270	1	70
2026-02-20T02:14	7.2	1018	-4.2	290	1	70
2026-02-20T02:15	7.1	1018	-4.3	300	1	70
2026-02-20T02:16	7.1	1018	-4.0	320	1	70
2026-02-20T02:17	6.8	1018	-4.3	330	1	70
2026-02-20T02:18	7.0	1018	-3.8	330	1	70
2026-02-20T02:19	7.6	1017	-3.3	340	1	70
2026-02-20T02:20	7.6	1017	-3.3	360	1	70
2026-02-20T02:21	7.7	1017	-2.9	10	1	70
2026-02-20T02:22	7.7	1017	-2.6	40	1	70
2026-02-20T02:23	7.7	1017	-2.6	70	1	70
2026-02-20T02:24	7.6	1017	-3.0	90	1	70
2026-02-20T02:25	7.5	1017	-2.8	110	2	70
2026-02-20T02:26	7.6	1017	-2.7	120	2	70
2026-02-20T02:27	8.0	1017	-2.0	120	2	70
2026-02-20T02:28	7.6	1017	-3.0	120	2	70
2026-02-20T02:29	7.6	1017	-2.7	110	2	70
2026-02-20T02:30	8.0	1017	-2.3	100	2	70
2026-02-20T02:31	8.1	1017	-2.2	100	2	70
2026-02-20T02:32	8.0	1017	-2.6	90	2	70
2026-02-20T02:33	7.9	1017	-2.7	90	2	70
2026-02-20T02:34	8.2	1017	-2.4	80	2	70
2026-02-20T02:35	8.0	1017	-2.6	70	2	70
2026-02-20T02:36	7.9	1017	-2.7	60	2	70
2026-02-20T02:37	8.0	1017	-2.6	60	2	70
2026-02-20T02:38	7.9	1017	-2.7	60	2	70
2026-02-20T02:39	7.7	1017	-2.9	60	2	70
2026-02-20T02:40	7.7	1017	-2.9	60	2	70
2026-02-20T02:41	7.7	1017	-2.6	60	2	70
2026-02-20T02:42	7.8	1017	-2.5	60	1	70
2026-02-20T02:43	8.3	1017	-2.1	70	1	70
2026-02-20T02:44	8.3	1017	-2.3	80	1	70
2026-02-20T02:45	8.3	1017	-2.1	80	1	70
2026-02-20T02:46	8.3	1017	-1.8	80	1	70
2026-02-20T02:47	8.1	1017	-2.2	90	1	70
2026-02-20T02:48	8.1	1017	-2.0	90	1	70
2026-02-20T02:49	8.0	1017	-2.0	90	1	70
2026-02-20T02:50	8.0	1017	-2.0	100	1	70
2026-02-20T02:51	8.2	1017	-1.9	100	1	70
2026-02-20T02:52	8.0	1017	-2.0	100	1	70
2026-02-20T02:53	8.1	1017	-1.7	90	1	70
2026-02-20T02:54	8.2	1017	-1.3	80	1	70
2026-02-20T02:55	8.2	1017	-1.6	80	1	70
2026-02-20T02:56	8.5	1017	-1.3	90	1	70
2026-02-20T02:57	8.6	1017	-1.2	90	1	70
2026-02-20T02:58	8.7	1017	-1.4	100	2	70
2026-02-20T02:59	8.7	1017	-1.1	90	2	70
2026-02-20T03:00	8.7	1017	-1.1	100	2	70
2026-02-20T03:01	8.4	1017	-1.4	100	2	70
2026-02-20T03:02	8.5	1017	-1.3	100	2	70
2026-02-20T03:03	8.4	1017	-1.7	100	2	70
2026-02-20T03:04	8.6	1017	-1.2	100	2	70
2026-02-20T03:05	8.3	1017	-1.8	100	2	70
2026-02-20T03:06	8.4	1017	-1.4	90	2	70
2026-02-20T03:07	8.0	1017	-2.0	80	2	70
2026-02-20T03:08	7.8	1017	-2.0	70	2	70
2026-02-20T03:09	8.3	1017	-1.2	60	2	70
2026-02-20T03:10	8.8	1016	-1.0	60	2	70
2026-02-20T03:11	8.7	1016	-1.4	50	2	70
2026-02-20T03:12	8.6	1016	-1.5	50	2	70
2026-02-20T03:13	8.4	1016	-2.0	50	2	70
2026-02-20T03:14	8.2	1016	-1.9	60	2	70
2026-02-20T03:15	8.6	1016	-1.0	70	2	70
2026-02-20T03:16	8.9	1016	-0.7	70	2	70
2026-02-20T03:17	9.2	1016	-0.7	80	2	70
2026-02-20T03:18	8.8	1016	-1.0	100	2	70
2026-02-20T03:19	8.4	1016	-1.1	110	2	70
2026-02-20T03:20	8.2	1016	-1.3	120	2	70
2026-02-20T03:21	8.6	1016	-0.7	140	2	70
2026-02-20T03:22	8.9	1016	-0.1	140	2	70
2026-02-20T03:23	8.9	1016	-0.7	140	2	70
2026-02-20T03:24	8.5	1016	-1.0	140	2	70
2026-02-20T03:25	8.7	1016	-0.6	130	2	70
2026-02-20T03:26	8.9	1016	-0.7	130	1	70
2026-02-20T03:27	9.2	1016	-0.4	130	1	70
2026-02-20T03:28	9.1	1016	-0.8	120	1	70
2026-02-20T03:29	8.7	1016	-1.4	110	2	70
2026-02-20T03:30	8.7	1016	-1.1	100	2	70
2026-02-20T03:31	8.9	1016	-0.9	90	2	70
2026-02-20T03:32	8.8	1016	-0.8	90	2	70
2026-02-20T03:33	9.0	1016	-0.6	90	2	70
2026-02-20T03:34	9.6	1016	0.2	90	2	70
2026-02-20T03:35	9.5	1016	-0.1	80	2	70
2026-02-20T03:36	9.8	1016	0.2	90	2	70
2026-02-20T03:37	9.1	1016	-0.8	90	2	70
2026-02-20T03:38	8.9	1016	-0.7	90	2	70
2026-02-20T03:39	8.8	1016	-0.5	100	2	70
2026-02-20T03:40	8.7	1016	-0.6	100	2	70
2026-02-20T03:41	9.1	1016	0.1	90	2	70
2026-02-20T03:42	8.9	1016	-0.7	80	2	70
2026-02-20T03:43	8.8	1016	-0.8	80	2	70
2026-02-20T03:44	9.0	1016	-0.3	80	2	70
2026-02-20T03:45	9.6	1016	0.5	90	2	70
2026-02-20T03:46	9.6	1016	0.0	80	2	70
2026-02-20T03:47	9.5	1016	-0.1	90	2	70
2026-02-20T03:48	9.6	1015	0.0	90	2	70
2026-02-20T03:49	9.3	1015	-0.6	90	2	70
2026-02-20T03:50	9.1	1015	-0.8	90	2	70
2026-02-20T03:51	8.9	1015	-0.7	90	2	70
2026-02-20T03:52	8.8	1015	-0.8	90	2	70
2026-02-20T03:53	8.6	1015	-0.7	90	2	70
2026-02-20T03:54	8.8	1015	-0.2	80	2	70
2026-02-20T03:55	8.9	1015	-0.4	80	2	70
2026-02-20T03:56	8.6	1015	-0.7	70	2	70
2026-02-20T03:57	8.5	1015	-0.5	70	2	70
2026-02-20T03:58	8.6	1015	-0.4	60	2	70
2026-02-20T03:59	8.7	1015	-0.3	70	2	70
2026-02-20T04:00	8.6	1015	-0.4	70	2	70
2026-02-20T04:01	8.6	1015	-0.2	70	2	70
2026-02-20T04:02	8.5	1015	-0.3	70	2	70
2026-02-20T04:03	8.6	1015	-0.2	70	2	70
2026-02-20T04:04	8.7	1015	0.2	80	2	70
2026-02-20T04:05	8.7	1015	-0.1	80	1	70
2026-02-20T04:06	8.6	1015	-0.2	80	1	70
2026-02-20T04:07	8.5	1015	0.0	80	1	70
2026-02-20T04:08	8.5	1015	0.0	80	1	70
2026-02-20T04:09	8.5	1015	0.0	80	1	70
2026-02-20T04:10	8.4	1015	-0.1	90	1	70
2026-02-20T04:11	8.6	1015	0.1	100	1	70
2026-02-20T04:12	8.8	1015	0.3	100	1	70
2026-02-20T04:13	8.8	1015	0.3	110	2	70
2026-02-20T04:14	8.9	1015	0.4	100	2	70
2026-02-20T04:15	9.0	1015	0.5	100	2	70
2026-02-20T04:16	8.9	1015	0.4	100	2	70
2026-02-20T04:17	9.1	1015	0.6	100	2	70
2026-02-20T04:18	8.9	1015	0.1	100	2	70
2026-02-20T04:19	8.9	1015	0.4	100	2	70
2026-02-20T04:20	9.7	1015	1.1	100	2	70
2026-02-20T04:21	9.9	1015	1.0	90	2	70
2026-02-20T04:22	9.5	1015	0.2	90	2	70
2026-02-20T04:23	10.2	1015	1.3	100	2	70
2026-02-20T04:24	10.0	1015	0.6	100	2	70
2026-02-20T04:25	9.8	1015	0.4	110	2	70
2026-02-20T04:26	9.7	1015	0.3	110	2	70
2026-02-20T04:27	9.6	1015	0.2	110	2	70
2026-02-20T04:28	9.4	1015	0.1	110	2	70
2026-02-20T04:29	9.2	1015	0.1	110	2	70
2026-02-20T04:30	9.1	1015	0.1	100	2	70
2026-02-20T04:31	9.5	1015	0.7	90	2	70
2026-02-20T04:32	9.9	1015	1.0	80	2	70
2026-02-20T04:33	9.8	1015	0.7	70	2	70
2026-02-20T04:34	9.3	1015	0.0	60	2	70
2026-02-20T04:35	9.2	1015	0.1	60	2	70
2026-02-20T04:36	9.0	1015	0.2	60	2	70
2026-02-20T04:37	9.0	1015	0.2	70	2	70
2026-02-20T04:38	9.3	1015	0.7	70	2	70
2026-02-20T04:39	8.8	1015	0.0	70	2	70
2026-02-20T04:40	8.7	1015	0.2	80	2	70
2026-02-20T04:41	8.9	1015	0.4	100	2	70
2026-02-20T04:42	9.1	1015	0.6	110	1	70
2026-02-20T04:43	9.1	1015	0.6	110	1	70
2026-02-20T04:44	9.1	1015	0.6	100	2	70
2026-02-20T04:45	9.1	1015	0.6	90	1	70
2026-02-20T04:46	9.0	1015	0.5	100	1	70
2026-02-20T04:47	9.3	1015	0.7	100	1	70
2026-02-20T04:48	9.1	1015	0.3	110	1	70
2026-02-20T04:49	9.0	1015	0.5	110	1	70
2026-02-20T04:50	9.2	1015	0.6	110	1	70
2026-02-20T04:51	9.2	1015	0.6	100	1	70
2026-02-20T04:52	9.2	1015	0.6	100	1	70
2026-02-20T04:53	9.2	1015	0.6	110	1	70
2026-02-20T04:54	9.7	1015	1.4	110	1	70
2026-02-20T04:55	9.5	1015	0.7	110	2	70
2026-02-20T04:56	9.3	1015	0.5	100	2	70
2026-02-20T04:57	9.4	1015	0.6	90	2	70
2026-02-20T04:58	9.3	1015	0.5	80	2	70
2026-02-20T04:59	9.5	1015	0.7	80	2	70
2026-02-20T05:00	9.3	1015	0.5	70	2	70
2026-02-20T05:01	9.2	1015	0.4	70	2	70
2026-02-20T05:02	9.2	1015	0.6	70	2	70
2026-02-20T05:03	9.3	1015	0.7	70	2	70
2026-02-20T05:04	9.8	1015	1.2	70	2	70
2026-02-20T05:05	9.4	1015	0.6	70	2	70
2026-02-20T05:06	9.1	1015	0.3	70	2	70
2026-02-20T05:07	9.0	1015	0.5	70	2	70
2026-02-20T05:08	9.0	1015	0.5	70	2	70
2026-02-20T05:09	9.1	1015	0.8	80	2	70
2026-02-20T05:10	9.5	1015	1.2	90	1	70
2026-02-20T05:11	9.5	1015	0.9	90	1	70
2026-02-20T05:12	9.4	1015	0.8	90	1	70
2026-02-20T05:13	9.1	1015	0.3	100	1	70
2026-02-20T05:14	9.0	1015	0.5	100	1	70
2026-02-20T05:15	9.1	1015	0.8	110	1	70
2026-02-20T05:16	9.0	1015	0.5	110	1	70
2026-02-20T05:17	9.1	1015	0.8	110	1	70
2026-02-20T05:18	9.0	1015	0.7	100	1	70
2026-02-20T05:19	9.1	1015	0.8	100	1	70
2026-02-20T05:20	9.3	1015	1.0	100	1	70
2026-02-20T05:21	9.4	1015	1.1	90	1	70
2026-02-20T05:22	9.2	1015	0.6	90	1	70
2026-02-20T05:23	9.1	1015	0.6	70	1	70
2026-02-20T05:24	9.1	1015	0.8	70	1	70
2026-02-20T05:25	9.1	1015	0.8	70	1	70
2026-02-20T05:26	9.2	1015	0.9	70	1	70
2026-02-20T05:27	9.1	1015	0.8	80	1	70
2026-02-20T05:28	9.3	1015	1.0	90	1	70
2026-02-20T05:29	9.3	1015	1.0	90	1	70
2026-02-20T05:30	9.0	1015	0.5	90	2	70
2026-02-20T05:31	9.1	1015	0.8	90	2	70
2026-02-20T05:32	9.1	1014	0.8	90	2	70
2026-02-20T05:33	9.0	1014	0.7	90	2	70
2026-02-20T05:34	9.1	1014	1.0	90	2	70
2026-02-20T05:35	9.2	1014	1.1	90	2	70
2026-02-20T05:36	9.1	1014	0.8	90	2	70
2026-02-20T05:37	9.1	1014	0.8	90	2	70
2026-02-20T05:38	9.0	1014	0.7	90	2	70
2026-02-20T05:39	9.0	1014	0.7	80	2	70
2026-02-20T05:40	9.0	1014	0.7	80	2	70
2026-02-20T05:41	9.0	1014	0.7	80	2	70
2026-02-20T05:42	9.0	1014	0.7	80	2	70
2026-02-20T05:43	8.9	1014	0.9	90	2	70
2026-02-20T05:44	8.9	1014	0.9	90	2	70
2026-02-20T05:45	8.9	1014	0.9	90	1	70
2026-02-20T05:46	8.9	1014	0.9	90	1	70
2026-02-20T05:47	9.1	1014	1.0	90	1	70
2026-02-20T05:48	9.2	1014	1.1	80	1	70
2026-02-20T05:49	9.2	1014	1.1	80	1	70
2026-02-20T05:50	9.2	1014	1.1	70	1	70
2026-02-20T05:51	9.1	1014	0.8	70	1	70
2026-02-20T05:52	9.1	1014	1.0	70	1	70
2026-02-20T05:53	9.1	1014	1.0	60	1	70
2026-02-20T05:54	9.2	1014	1.1	60	1	70
2026-02-20T05:55	9.2	1014	0.9	60	1	70
2026-02-20T05:56	9.3	1014	1.0	50	2	70
2026-02-20T05:57	9.1	1014	0.8	50	2	70
2026-02-20T05:58	9.2	1014	1.1	50	2	70
2026-02-20T05:59	9.3	1014	1.2	50	2	70
2026-02-20T06:00	9.2	1014	0.9	60	2	70
2026-02-20T06:01	9.1	1014	0.8	60	2	70
2026-02-20T06:02	9.2	1014	1.1	70	2	70
2026-02-20T06:03	9.1	1014	0.8	70	2	70
2026-02-20T06:04	9.1	1014	0.8	80	2	70
2026-02-20T06:05	9.2	1014	1.1	80	2	70
2026-02-20T06:06	9.2	1014	1.1	90	2	70
2026-02-20T06:07	9.2	1014	0.9	90	2	70
2026-02-20T06:08	9.4	1014	1.3	100	2	70
2026-02-20T06:09	9.2	1014	0.9	100	2	70
2026-02-20T06:10	9.4	1014	1.3	100	2	70
2026-02-20T06:11	9.6	1014	1.5	90	1	70
2026-02-20T06:12	9.2	1014	0.9	90	1	70
2026-02-20T06:13	9.1	1014	0.8	90	1	70
2026-02-20T06:14	9.1	1014	1.0	90	1	70
2026-02-20T06:15	9.0	1014	0.7	80	1	70
2026-02-20T06:16	9.0	1014	1.0	80	1	70
2026-02-20T06:17	9.0	1014	1.0	80	2	70
2026-02-20T06:18	9.2	1014	1.1	80	2	70
2026-02-20T06:19	9.2	1014	1.1	80	2	70
2026-02-20T06:20	9.2	1014	1.1	80	2	70
2026-02-20T06:21	9.3	1014	1.2	80	2	70
2026-02-20T06:22	9.2	1014	1.1	80	2	70
2026-02-20T06:23	9.2	1014	1.1	90	2	70
2026-02-20T06:24	9.2	1014	1.1	80	2	70
2026-02-20T06:25	9.2	1014	1.1	90	2	70
2026-02-20T06:26	9.2	1014	1.1	90	2	70
2026-02-20T06:27	9.2	1014	1.1	90	2	70
2026-02-20T06:28	9.2	1014	1.1	90	2	70
2026-02-20T06:29	9.3	1014	1.2	90	2	70
2026-02-20T06:30	9.3	1014	1.2	90	2	70
2026-02-20T06:31	9.2	1014	1.1	90	2	70
2026-02-20T06:32	9.1	1014	0.8	90	2	70
2026-02-20T06:33	9.1	1014	1.0	80	2	70
2026-02-20T06:34	9.1	1014	1.0	90	2	70
2026-02-20T06:35	9.1	1014	1.0	80	2	70
2026-02-20T06:36	9.0	1014	1.0	80	2	70
2026-02-20T06:37	9.0	1014	1.0	80	2	70
2026-02-20T06:38	9.0	1014	1.0	80	2	70
2026-02-20T06:39	9.1	1014	1.0	80	2	70
2026-02-20T06:40	9.1	1014	1.0	70	2	70
2026-02-20T06:41	9.0	1014	1.0	80	2	70
2026-02-20T06:42	9.1	1014	1.0	80	2	70
2026-02-20T06:43	9.0	1014	1.0	70	2	70
2026-02-20T06:44	9.0	1014	1.0	80	2	70
2026-02-20T06:45	9.1	1014	1.3	80	2	70
2026-02-20T06:46	9.0	1014	1.2	90	2	70
2026-02-20T06:47	9.1	1014	1.3	90	2	70
2026-02-20T06:48	9.0	1014	1.2	90	2	70
2026-02-20T06:49	9.0	1014	1.2	100	2	70
2026-02-20T06:50	9.1	1014	1.3	100	2	70
2026-02-20T06:51	9.2	1014	1.4	90	2	70
2026-02-20T06:52	9.1	1014	1.3	100	2	70
2026-02-20T06:53	9.1	1014	1.3	100	2	70
2026-02-20T06:54	9.1	1014	1.3	100	2	70
2026-02-20T06:55	9.1	1014	1.3	90	2	70
2026-02-20T06:56	9.2	1014	1.4	90	2	70
2026-02-20T06:57	9.2	1014	1.1	90	2	70
2026-02-20T06:58	9.2	1014	1.4	90	1	70
2026-02-20T06:59	9.2	1014	1.1	90	1	70
2026-02-20T07:00	9.1	1014	1.0	90	2	70
2026-02-20T07:01	9.1	1014	1.3	90	1	70
2026-02-20T07:02	9.1	1014	1.3	90	1	70
2026-02-20T07:03	9.0	1014	1.2	90	1	70
2026-02-20T07:04	9.1	1014	1.3	100	1	70
2026-02-20T07:05	9.0	1014	1.2	100	1	70
2026-02-20T07:06	8.9	1014	1.1	100	2	70
2026-02-20T07:07	9.0	1014	1.2	110	2	70
2026-02-20T07:08	8.9	1014	1.1	110	2	70
2026-02-20T07:09	8.9	1014	1.1	110	2	70
2026-02-20T07:10	8.9	1014	1.1	110	2	70
2026-02-20T07:11	8.9	1014	1.1	110	2	70
2026-02-20T07:12	8.9	1014	1.1	100	2	70
2026-02-20T07:13	8.9	1014	1.1	100	2	70
2026-02-20T07:14	8.9	1014	1.1	100	1	70
2026-02-20T07:15	8.9	1014	1.1	100	1	70
2026-02-20T07:16	8.9	1014	1.1	100	1	70
2026-02-20T07:17	8.8	1014	1.0	100	1	70
2026-02-20T07:18	8.8	1014	1.0	100	1	70
2026-02-20T07:19	8.8	1014	1.2	100	1	70
2026-02-20T07:20	8.8	1014	1.2	100	1	70
2026-02-20T07:21	8.8	1014	1.2	100	1	70
2026-02-20T07:22	8.8	1014	1.2	100	1	70
2026-02-20T07:23	8.8	1014	1.2	100	1	70
2026-02-20T07:24	8.8	1014	1.2	100	1	70
2026-02-20T07:25	8.8	1014	1.2	100	1	70
2026-02-20T07:26	8.8	1014	1.2	90	1	70
2026-02-20T07:27	8.7	1014	1.1	90	1	70
2026-02-20T07:28	8.7	1014	1.1	90	1	70
2026-02-20T07:29	8.7	1014	1.4	90	1	70
2026-02-20T07:30	8.7	1014	1.4	90	1	70
2026-02-20T07:31	8.8	1014	1.5	90	1	70
2026-02-20T07:32	8.8	1014	1.5	90	1	70
2026-02-20T07:33	8.8	1014	1.5	90	1	70
2026-02-20T07:34	8.7	1014	1.4	90	1	70
2026-02-20T07:35	8.7	1014	1.4	90	1	70
2026-02-20T07:36	8.7	1014	1.4	100	2	70
2026-02-20T07:37	8.7	1014	1.6	100	2	70
2026-02-20T07:38	8.7	1014	1.6	100	2	70
2026-02-20T07:39	8.7	1014	1.6	100	2	70
2026-02-20T07:40	8.6	1014	1.5	100	2	70
2026-02-20T07:41	8.6	1014	1.5	100	2	70
2026-02-20T07:42	8.6	1014	1.5	100	2	70
2026-02-20T07:43	8.6	1014	1.5	100	2	70
2026-02-20T07:44	8.6	1014	1.5	100	2	70
2026-02-20T07:45	8.6	1014	1.5	100	2	70
2026-02-20T07:46	8.6	1014	1.5	90	2	70
2026-02-20T07:47	8.5	1014	1.6	90	2	70
2026-02-20T07:48	8.5	1014	1.6	90	2	70
2026-02-20T07:49	8.5	1014	1.6	90	2	70
2026-02-20T07:50	8.5	1014	1.6	90	2	70
2026-02-20T07:51	8.4	1014	1.6	90	2	70
2026-02-20T07:52	8.4	1014	1.6	90	2	70
2026-02-20T07:53	8.4	1014	1.6	90	1	70
2026-02-20T07:54	8.4	1014	1.8	90	1	70
2026-02-20T07:55	8.4	1014	1.8	90	1	70
2026-02-20T07:56	8.4	1014	1.8	90	1	70
2026-02-20T07:57	8.3	1014	1.7	90	1	70
2026-02-20T07:58	8.3	1014	1.7	90	1	70
2026-02-20T07:59	8.3	1014	1.9	100	1	70
2026-02-20T08:00	8.3	1014	1.9	100	1	70
2026-02-20T08:01	8.3	1014	1.9	100	1	70
2026-02-20T08:02	8.2	1014	1.8	100	1	70
2026-02-20T08:03	8.2	1014	1.8	100	1	70
2026-02-20T08:04	8.2	1014	1.8	100	1	70
2026-02-20T08:05	8.2	1014	1.8	90	1	70
2026-02-20T08:06	8.2	1014	1.8	90	1	70
2026-02-20T08:07	8.2	1014	2.0	90	1	70
2026-02-20T08:08	8.2	1014	2.0	90	1	70
2026-02-20T08:09	8.2	1014	2.0	90	1	70
2026-02-20T08:10	8.1	1014	1.9	80	1	70
2026-02-20T08:11	8.1	1014	1.9	90	1	70
2026-02-20T08:12	8.1	1014	1.9	90	1	70
2026-02-20T08:13	8.1	1014	1.9	80	1	70
2026-02-20T08:14	8.1	1015	1.9	90	2	70
2026-02-20T08:15	8.1	1015	1.9	90	2	70
2026-02-20T08:16	8.0	1015	1.8	90	2	70
2026-02-20T08:17	8.1	1015	2.1	90	2	70
2026-02-20T08:18	8.1	1015	2.1	90	2	70
2026-02-20T08:19	8.1	1015	2.1	100	2	70
2026-02-20T08:20	8.1	1015	2.1	100	2	70
2026-02-20T08:21	8.1	1015	2.1	90	1	70
2026-02-20T08:22	8.0	1015	2.0	90	1	70
2026-02-20T08:23	8.0	1015	2.0	90	1	70
2026-02-20T08:24	8.0	1015	2.3	90	1	70
2026-02-20T08:25	8.0	1015	2.3	90	1	70
2026-02-20T08:26	8.0	1015	2.3	90	1	70
2026-02-20T08:27	7.9	1015	2.2	100	1	70
2026-02-20T08:28	8.0	1015	2.3	90	1	70
2026-02-20T08:29	8.0	1015	2.3	90	1	70
2026-02-20T08:30	7.8	1015	2.1	90	1	70
2026-02-20T08:31	7.9	1015	2.2	90	1	70
2026-02-20T08:32	7.8	1015	2.3	90	1	70
2026-02-20T08:33	8.0	1015	2.5	90	1	70
2026-02-20T08:34	7.8	1015	2.3	90	1	70
2026-02-20T08:35	7.8	1015	2.3	90	1	70
2026-02-20T08:36	7.8	1015	2.3	90	1	70
2026-02-20T08:37	7.8	1015	2.3	80	1	70
2026-02-20T08:38	7.8	1015	2.3	80	1	70
2026-02-20T08:39	7.9	1015	2.4	90	1	70
2026-02-20T08:40	7.7	1015	2.2	80	1	70
2026-02-20T08:41	7.6	1015	2.1	80	1	70
2026-02-20T08:42	7.7	1015	2.4	80	1	70
2026-02-20T08:43	7.6	1015	2.3	80	1	70
2026-02-20T08:44	7.4	1015	2.1	70	1	70
2026-02-20T08:45	7.6	1015	2.5	70	1	70
2026-02-20T08:46	7.6	1015	2.3	70	1	70
2026-02-20T08:47	7.5	1015	2.2	70	1	70
2026-02-20T08:48	7.4	1015	2.3	70	1	70
2026-02-20T08:49	7.3	1015	2.2	70	1	70
2026-02-20T08:50	7.2	1015	2.1	70	1	70
2026-02-20T08:51	7.2	1015	2.3	70	2	70
2026-02-20T08:52	7.3	1015	2.4	70	2	70
2026-02-20T08:53	7.2	1015	2.3	60	2	70
2026-02-20T08:54	7.4	1015	2.5	60	2	70
2026-02-20T08:55	7.4	1015	2.3	60	2	70
2026-02-20T08:56	7.2	1015	2.1	60	1	70
2026-02-20T08:57	7.3	1015	2.4	50	1	70
2026-02-20T08:58	7.3	1015	2.4	50	1	70
2026-02-20T08:59	7.3	1015	2.2	50	1	70
2026-02-20T09:00	6.7	1015	1.6	50	1	70
2026-02-20T09:01	6.9	1015	2.2	50	1	70
2026-02-20T09:02	7.0	1015	2.3	40	1	70
2026-02-20T09:03	6.9	1015	2.2	40	1	70
2026-02-20T09:04	6.9	1015	2.2	40	1	70
2026-02-20T09:05	6.8	1015	2.1	50	1	70
2026-02-20T09:06	6.8	1015	2.1	50	1	70
2026-02-20T09:07	7.0	1015	2.5	50	1	70
2026-02-20T09:08	6.6	1015	2.1	50	1	70
2026-02-20T09:09	6.5	1015	2.0	40	1	70
2026-02-20T09:10	6.7	1015	2.4	40	1	70
2026-02-20T09:11	6.9	1015	2.6	40	1	70
2026-02-20T09:12	6.7	1015	2.2	50	1	70
2026-02-20T09:13	7.1	1015	2.8	40	1	70
2026-02-20T09:14	7.1	1015	2.6	40	1	70
2026-02-20T09:15	7.1	1015	2.4	30	1	70
2026-02-20T09:16	6.9	1015	2.2	20	1	70
2026-02-20T09:17	6.8	1015	2.1	30	1	70
2026-02-20T09:18	6.7	1015	2.2	30	1	70
2026-02-20T09:19	7.0	1015	2.5	30	1	70
2026-02-20T09:20	6.6	1015	2.1	30	1	70
2026-02-20T09:21	6.9	1015	2.6	30	1	70
2026-02-20T09:22	6.9	1015	2.6	30	1	70
2026-02-20T09:23	7.0	1015	2.5	30	1	70
2026-02-20T09:24	6.9	1015	2.4	40	1	70
2026-02-20T09:25	6.7	1015	2.2	50	1	70
2026-02-20T09:26	6.2	1015	1.7	50	1	70
2026-02-20T09:27	6.6	1015	2.5	40	1	70
2026-02-20T09:28	7.0	1015	2.9	50	1	70
2026-02-20T09:29	6.9	1015	2.6	50	1	70
2026-02-20T09:30	7.0	1015	2.7	40	1	70
2026-02-20T09:31	6.7	1015	2.2	30	1	70
2026-02-20T09:32	6.6	1015	2.3	30	1	70
2026-02-20T09:33	6.5	1015	2.2	30	1	70
2026-02-20T09:34	6.3	1015	2.2	30	1	70
2026-02-20T09:35	6.3	1015	2.2	30	1	70
2026-02-20T09:36	6.3	1015	2.4	30	1	70
2026-02-20T09:37	6.5	1015	2.6	30	1	70
2026-02-20T09:38	6.5	1015	2.6	30	1	70
2026-02-20T09:39	6.2	1015	2.1	30	1	70
2026-02-20T09:40	6.5	1015	2.6	30	1	70
2026-02-20T09:41	6.5	1015	2.6	30	1	70
2026-02-20T09:42	6.4	1015	2.5	30	1	70
2026-02-20T09:43	6.5	1015	2.6	30	1	70
2026-02-20T09:44	6.7	1015	2.8	30	1	70
2026-02-20T09:45	6.9	1015	2.8	20	1	70
2026-02-20T09:46	6.8	1015	2.7	20	1	70
2026-02-20T09:47	6.7	1015	2.4	20	1	70
2026-02-20T09:48	6.7	1015	2.6	20	1	70
2026-02-20T09:49	6.7	1015	2.6	20	1	70
2026-02-20T09:50	6.8	1015	2.7	20	1	70
2026-02-20T09:51	6.9	1015	2.6	20	1	70
2026-02-20T09:52	6.8	1015	2.5	20	1	70
2026-02-20T09:53	6.6	1015	2.3	20	1	70
2026-02-20T09:54	6.6	1015	2.5	20	1	70
2026-02-20T09:55	6.3	1015	2.2	20	1	70
2026-02-20T09:56	6.2	1015	2.1	30	1	70
2026-02-20T09:57	6.1	1015	2.2	20	1	70
2026-02-20T09:58	6.5	1015	2.8	30	1	70
2026-02-20T09:59	6.5	1015	2.6	20	1	70
2026-02-20T10:00	6.4	1015	2.5	30	1	70
2026-02-20T10:01	6.5	1015	2.6	20	1	70
2026-02-20T10:02	6.1	1015	2.2	30	1	70
2026-02-20T10:03	6.1	1015	2.2	30	1	70
2026-02-20T10:04	6.4	1015	2.7	30	1	70
2026-02-20T10:05	6.3	1015	2.4	30	1	70
2026-02-20T10:06	6.2	1015	2.3	40	1	70
2026-02-20T10:07	6.5	1015	2.8	40	1	70
2026-02-20T10:08	6.6	1015	2.7	40	1	70
2026-02-20T10:09	6.5	1015	2.6	40	1	70
2026-02-20T10:10	6.4	1015	2.3	40	1	70
2026-02-20T10:11	6.5	1015	2.6	40	1	70
2026-02-20T10:12	6.5	1015	2.6	40	1	70
2026-02-20T10:13	6.4	1015	2.3	40	1	70
2026-02-20T10:14	6.3	1015	2.4	40	1	70
2026-02-20T10:15	6.3	1015	2.4	40	1	70
2026-02-20T10:16	6.3	1015	2.4	30	1	70
2026-02-20T10:17	6.1	1015	2.2	40	1	70
2026-02-20T10:18	6.2	1015	2.5	40	1	70
2026-02-20T10:19	6.3	1015	2.6	40	1	70
2026-02-20T10:20	6.3	1015	2.4	40	1	70
2026-02-20T10:21	6.1	1015	2.2	40	1	70
2026-02-20T10:22	5.8	1015	1.9	30	1	70
2026-02-20T10:23	5.9	1015	2.2	30	1	70
2026-02-20T10:24	6.0	1015	2.5	30	1	70
2026-02-20T10:25	6.1	1015	2.6	30	1	70
2026-02-20T10:26	6.0	1015	2.5	30	1	70
2026-02-20T10:27	5.8	1015	2.3	30	1	70
2026-02-20T10:28	6.0	1015	2.5	30	1	70
2026-02-20T10:29	5.7	1015	2.0	40	1	70
2026-02-20T10:30	5.8	1015	2.3	40	1	70
2026-02-20T10:31	5.8	1015	2.3	40	1	70
2026-02-20T10:32	5.9	1015	2.4	40	1	70
2026-02-20T10:33	5.8	1015	2.3	40	1	70
2026-02-20T10:34	5.7	1015	2.2	50	1	70
2026-02-20T10:35	5.1	1015	1.6	50	1	70
2026-02-20T10:36	5.6	1015	2.4	50	1	70
2026-02-20T10:37	5.3	1015	2.0	60	1	70
2026-02-20T10:38	5.7	1015	2.5	60	1	70
2026-02-20T10:39	5.8	1015	2.6	60	1	70
2026-02-20T10:40	5.6	1015	2.3	70	1	70
2026-02-20T10:41	5.5	1015	2.2	70	1	70
2026-02-20T10:42	6.0	1015	2.8	60	1	70
2026-02-20T10:43	5.7	1015	2.4	60	1	70
2026-02-20T10:44	5.6	1015	2.3	60	1	70
2026-02-20T10:45	5.6	1015	2.3	50	1	70
2026-02-20T10:46	5.4	1015	2.1	40	1	70
2026-02-20T10:47	5.2	1015	1.9	40	1	70
2026-02-20T10:48	5.3	1015	2.1	40	1	70
2026-02-20T10:49	5.2	1015	2.2	30	1	70
2026-02-20T10:50	4.7	1015	1.6	30	1	70
2026-02-20T10:51	4.7	1015	1.9	30	1	70
2026-02-20T10:52	4.6	1015	2.0	30	1	70
2026-02-20T10:53	4.7	1015	2.2	40	1	70
2026-02-20T10:54	4.7	1015	2.2	40	1	70
2026-02-20T10:55	4.8	1015	2.3	40	1	70
2026-02-20T10:56	4.8	1015	2.3	50	0	70
2026-02-20T10:57	4.8	1015	2.3	50	0	70
2026-02-20T10:58	4.9	1015	2.4	50	0	70
2026-02-20T10:59	5.3	1015	2.8	50	0	70
2026-02-20T11:00	5.0	1015	2.4	50	0	70
2026-02-20T11:01	4.9	1015	2.3	50	0	70
2026-02-20T11:02	4.8	1015	2.2	50	0	70
2026-02-20T11:03	4.6	1015	2.1	0	0	70
2026-02-20T11:04	4.5	1015	2.0	0	0	70
2026-02-20T11:05	4.7	1015	2.4	0	0	70
2026-02-20T11:06	4.7	1015	2.4	40	0	70
2026-02-20T11:07	4.7	1015	2.2	30	0	70
2026-02-20T11:08	4.6	1015	2.1	30	0	70
2026-02-20T11:09	4.2	1015	1.7	20	0	70
2026-02-20T11:10	3.8	1015	1.4	20	1	70
2026-02-20T11:11	3.9	1015	1.6	10	1	70
2026-02-20T11:12	4.0	1015	2.0	10	1	70
2026-02-20T11:13	3.9	1015	1.9	10	1	70
2026-02-20T11:14	4.0	1015	2.0	10	1	70
2026-02-20T11:15	4.2	1015	2.4	10	1	70
2026-02-20T11:16	4.1	1015	2.3	10	1	70
2026-02-20T11:17	4.3	1015	2.5	20	1	70
2026-02-20T11:18	4.2	1015	2.4	20	1	70
2026-02-20T11:19	4.2	1015	2.2	30	1	70
2026-02-20T11:20	4.3	1015	2.3	30	1	70
2026-02-20T11:21	4.3	1015	2.3	40	1	70
2026-02-20T11:22	3.9	1015	1.9	40	1	70
2026-02-20T11:23	4.3	1015	2.3	40	1	70
2026-02-20T11:24	4.2	1015	2.2	50	1	70
2026-02-20T11:25	4.1	1015	2.0	50	1	70
2026-02-20T11:26	4.4	1015	2.4	50	1	70
2026-02-20T11:27	4.5	1015	2.4	40	1	70
2026-02-20T11:28	4.2	1015	2.1	40	1	70
2026-02-20T11:29	3.9	1015	1.6	40	1	70
2026-02-20T11:30	4.1	1015	2.1	40	1	70
2026-02-20T11:31	4.0	1015	2.0	40	1	70
2026-02-20T11:32	4.1	1015	2.1	30	1	70
2026-02-20T11:33	3.9	1015	1.9	30	1	70
2026-02-20T11:34	4.4	1015	2.6	30	1	70
2026-02-20T11:35	4.4	1015	2.6	30	1	70
2026-02-20T11:36	4.3	1015	2.3	30	1	70
2026-02-20T11:37	3.9	1015	1.8	30	1	70
2026-02-20T11:38	3.9	1015	1.8	30	1	70
2026-02-20T11:39	4.6	1015	2.6	30	1	70
2026-02-20T11:40	4.8	1015	2.8	30	1	70
2026-02-20T11:41	5.1	1015	3.0	30	1	70
2026-02-20T11:42	4.7	1015	2.2	30	1	70
2026-02-20T11:43	4.8	1015	2.5	30	1	70
2026-02-20T11:44	4.5	1015	2.0	30	1	70
2026-02-20T11:45	4.7	1015	2.4	40	1	70
2026-02-20T11:46	4.5	1015	2.2	40	1	70
2026-02-20T11:47	4.1	1015	1.6	50	1	70
2026-02-20T11:48	4.0	1015	1.9	40	0	70
2026-02-20T11:49	4.1	1015	2.0	40	0	70
2026-02-20T11:50	4.6	1015	2.8	30	0	70
2026-02-20T11:51	4.4	1015	2.4	40	0	70
2026-02-20T11:52	4.7	1015	2.6	40	0	70
2026-02-20T11:53	4.9	1015	2.8	30	1	70
2026-02-20T11:54	4.6	1015	2.3	20	1	70
2026-02-20T11:55	5.0	1016	2.9	10	1	70
2026-02-20T11:56	5.2	1016	2.9	10	1	70
2026-02-20T11:57	5.3	1016	2.8	10	1	70
2026-02-20T11:58	5.2	1016	2.7	10	1	70
2026-02-20T11:59	5.1	1016	2.5	10	1	70
2026-02-20T12:00	5.0	1016	2.5	10	1	70
2026-02-20T12:01	5.1	1016	2.6	10	1	70
2026-02-20T12:02	4.9	1016	2.4	10	1	70
2026-02-20T12:03	4.7	1016	2.2	10	1	70
2026-02-20T12:04	4.8	1016	2.5	10	1	70
2026-02-20T12:05	4.7	1016	2.4	10	1	70
2026-02-20T12:06	5.0	1016	2.7	10	1	70
2026-02-20T12:07	4.8	1016	2.5	10	1	70
2026-02-20T12:08	4.5	1016	2.0	10	1	70
2026-02-20T12:09	4.4	1016	2.1	10	1	70
2026-02-20T12:10	4.3	1016	2.0	10	1	70
2026-02-20T12:11	4.8	1016	2.8	20	1	70
2026-02-20T12:12	5.0	1016	3.0	20	1	70
2026-02-20T12:13	4.8	1016	2.7	10	1	70
2026-02-20T12:14	4.5	1016	2.2	10	1	70
2026-02-20T12:15	3.7	1016	1.3	10	1	70
2026-02-20T12:16	3.8	1016	1.7	10	1	70
2026-02-20T12:17	3.7	1016	1.7	10	1	70
2026-02-20T12:18	4.1	1016	2.5	10	1	70
2026-02-20T12:19	4.1	1016	2.5	10	1	70
2026-02-20T12:20	4.0	1016	2.4	360	1	70
2026-02-20T12:21	3.8	1016	2.2	360	1	70
2026-02-20T12:22	3.8	1016	2.3	360	1	70
2026-02-20T12:23	3.9	1016	2.4	360	1	70
2026-02-20T12:24	3.7	1016	2.2	360	1	70
2026-02-20T12:25	3.9	1016	2.6	360	1	70
2026-02-20T12:26	3.5	1016	2.0	360	1	70
2026-02-20T12:27	3.6	1016	2.1	360	1	70
2026-02-20T12:28	4.1	1016	2.8	350	1	70
2026-02-20T12:29	4.1	1016	2.8	350	1	70
2026-02-20T12:30	4.1	1016	2.6	350	1	70
2026-02-20T12:31	4.0	1016	2.5	350	1	70
2026-02-20T12:32	3.6	1016	2.0	350	1	70
2026-02-20T12:33	3.4	1016	1.8	350	1	70
2026-02-20T12:34	3.5	1016	2.0	350	1	70
2026-02-20T12:35	3.6	1016	2.3	350	1	70
2026-02-20T12:36	3.6	1016	2.3	340	1	70
2026-02-20T12:37	3.6	1016	2.3	340	1	70
2026-02-20T12:38	3.6	1016	2.3	340	1	70
2026-02-20T12:39	3.8	1016	2.5	330	1	70
2026-02-20T12:40	3.7	1016	2.4	330	1	70
2026-02-20T12:41	3.7	1016	2.2	320	1	70
2026-02-20T12:42	3.4	1016	1.9	320	1	70
2026-02-20T12:43	3.5	1016	2.0	320	1	70
2026-02-20T12:44	3.3	1016	2.0	320	1	70
2026-02-20T12:45	3.2	1016	1.9	320	1	70
2026-02-20T12:46	3.3	1016	2.1	320	1	70
2026-02-20T12:47	3.7	1016	2.7	320	1	70
2026-02-20T12:48	3.6	1016	2.6	320	1	70
2026-02-20T12:49	3.5	1016	2.3	320	1	70
2026-02-20T12:50	3.4	1016	2.1	320	1	70
2026-02-20T12:51	3.3	1016	1.8	320	1	70
2026-02-20T12:52	3.3	1016	2.0	310	1	70
2026-02-20T12:53	3.3	1016	2.0	310	1	70
2026-02-20T12:54	3.5	1016	2.3	310	1	70
2026-02-20T12:55	3.4	1016	2.2	300	1	70
2026-02-20T12:56	3.3	1016	2.1	300	1	70
2026-02-20T12:57	3.5	1016	2.3	300	1	70
2026-02-20T12:58	3.6	1016	2.6	300	1	70
2026-02-20T12:59	3.4	1016	2.2	300	1	70
2026-02-20T13:00	3.6	1016	2.4	310	1	70
2026-02-20T13:01	3.6	1016	2.4	310	1	70
2026-02-20T13:02	3.7	1016	2.5	310	1	70
2026-02-20T13:03	3.8	1016	2.6	310	1	70
2026-02-20T13:04	3.7	1016	2.5	310	1	70
2026-02-20T13:05	3.8	1016	2.6	310	1	70
2026-02-20T13:06	3.8	1016	2.6	310	1	70
2026-02-20T13:07	3.8	1016	2.5	310	1	70
2026-02-20T13:08	3.7	1016	2.4	310	1	70
2026-02-20T13:09	3.7	1016	2.4	310	1	70
2026-02-20T13:10	3.5	1016	2.2	310	1	70
2026-02-20T13:11	3.7	1016	2.5	310	1	70
2026-02-20T13:12	3.7	1016	2.5	310	1	70
2026-02-20T13:13	3.6	1016	2.4	310	1	70
2026-02-20T13:14	3.6	1016	2.4	310	1	70
2026-02-20T13:15	3.6	1015	2.4	310	1	70
2026-02-20T13:16	3.7	1015	2.5	310	1	70
2026-02-20T13:17	3.6	1015	2.4	300	1	70
2026-02-20T13:18	3.6	1015	2.4	300	1	70
2026-02-20T13:19	3.4	1015	2.1	300	1	70
2026-02-20T13:20	3.5	1015	2.3	300	1	70
2026-02-20T13:21	3.4	1015	2.2	300	1	70
2026-02-20T13:22	3.5	1015	2.3	300	1	70
2026-02-20T13:23	3.5	1015	2.3	300	1	70
2026-02-20T13:24	3.4	1015	2.2	300	1	70
2026-02-20T13:25	3.3	1015	2.1	310	1	70
2026-02-20T13:26	3.2	1015	2.0	310	1	70
2026-02-20T13:27	2.8	1015	1.6	320	1	70
2026-02-20T13:28	2.9	1015	1.7	320	0	70
2026-02-20T13:29	3.0	1015	2.0	330	0	70
2026-02-20T13:30	3.1	1015	2.2	330	0	70
2026-02-20T13:31	3.1	1015	2.2	340	0	70
2026-02-20T13:32	3.0	1015	2.1	340	0	70
2026-02-20T13:33	3.0	1015	2.1	350	0	70
2026-02-20T13:34	3.0	1015	2.1	350	0	70
2026-02-20T13:35	3.0	1015	2.1	350	0	69
2026-02-20T13:36	2.9	1015	2.0	0	0	69
2026-02-20T13:37	2.8	1015	1.9	0	0	70
2026-02-20T13:38	2.8	1015	1.9	0	0	69
2026-02-20T13:39	2.9	1015	2.0	0	0	70
2026-02-20T13:40	2.8	1015	1.9	0	0	70
2026-02-20T13:41	2.5	1015	1.6	330	0	70
2026-02-20T13:42	2.6	1015	1.7	320	0	69
2026-02-20T13:43	2.8	1015	2.1	320	0	69
2026-02-20T13:44	2.7	1015	2.0	320	0	69
2026-02-20T13:45	2.7	1015	2.0	320	0	69
2026-02-20T13:46	2.7	1015	2.0	320	0	69
2026-02-20T13:47	2.6	1015	1.9	320	0	68
2026-02-20T13:48	2.7	1015	2.0	320	0	68
2026-02-20T13:49	2.7	1015	2.0	320	1	68
2026-02-20T13:50	2.7	1015	2.0	320	1	68
2026-02-20T13:51	2.5	1015	1.8	320	0	68
2026-02-20T13:52	2.4	1015	1.5	320	0	68
2026-02-20T13:53	2.3	1015	1.4	320	0	68
2026-02-20T13:54	2.3	1015	1.4	320	0	67
2026-02-20T13:55	2.3	1015	1.6	0	0	67
2026-02-20T13:56	2.1	1015	1.4	0	0	67
2026-02-20T13:57	2.2	1015	1.5	0	0	67
2026-02-20T13:58	2.4	1015	1.8	0	0	67
2026-02-20T13:59	2.4	1015	1.8	0	0	67
2026-02-20T14:00	2.2	1015	1.6	0	0	66
2026-02-20T14:01	2.1	1015	1.4	0	0	67
2026-02-20T14:02	2.1	1015	1.4	0	0	67
2026-02-20T14:03	2.1	1015	1.4	0	0	67
2026-02-20T14:04	2.2	1015	1.5	0	0	67
2026-02-20T14:05	2.2	1015	1.5	270	0	67
2026-02-20T14:06	2.1	1015	1.4	260	0	67
2026-02-20T14:07	2.3	1015	1.6	260	0	67
2026-02-20T14:08	2.3	1015	1.7	250	0	66
2026-02-20T14:09	2.4	1015	1.8	250	0	66
2026-02-20T14:10	2.3	1015	1.7	0	0	66
2026-02-20T14:11	2.4	1015	1.8	0	0	65
2026-02-20T14:12	2.2	1015	1.5	0	0	65
2026-02-20T14:13	2.0	1015	1.3	0	0	65
2026-02-20T14:14	2.1	1015	1.4	0	0	65
2026-02-20T14:15	2.1	1015	1.4	0	0	64
2026-02-20T14:16	2.0	1015	1.3	0	0	64
2026-02-20T14:17	2.1	1015	1.4	0	0	64
2026-02-20T14:18	2.2	1015	1.5	0	0	64
2026-02-20T14:19	2.1	1015	1.5	280	0	64
2026-02-20T14:20	2.1	1015	1.5	280	0	64
2026-02-20T14:21	2.1	1015	1.5	290	1	63
2026-02-20T14:22	2.0	1015	1.4	300	1	63
2026-02-20T14:23	2.1	1015	1.5	300	1	63
2026-02-20T14:24	2.2	1015	1.6	310	1	63
2026-02-20T14:25	2.2	1015	1.6	310	1	62
2026-02-20T14:26	2.3	1015	1.7	310	1	62
2026-02-20T14:27	2.2	1015	1.6	310	1	62
2026-02-20T14:28	2.3	1015	1.7	310	1	62
2026-02-20T14:29	2.2	1015	1.6	310	1	62
2026-02-20T14:30	2.2	1015	1.6	310	1	62
2026-02-20T14:31	2.2	1015	1.6	310	1	63
2026-02-20T14:32	2.2	1015	1.6	310	1	62
2026-02-20T14:33	2.1	1015	1.5	310	1	63
2026-02-20T14:34	2.1	1015	1.5	300	1	63
2026-02-20T14:35	2.1	1015	1.5	300	1	63
2026-02-20T14:36	2.0	1015	1.6	300	1	63
2026-02-20T14:37	1.8	1015	1.2	300	1	63
2026-02-20T14:38	2.2	1015	1.8	300	1	62
2026-02-20T14:39	2.2	1015	1.8	300	1	62
2026-02-20T14:40	2.3	1015	1.9	290	1	62
2026-02-20T14:41	2.4	1015	2.0	290	1	62
2026-02-20T14:42	2.4	1015	2.0	290	1	63
2026-02-20T14:43	2.2	1015	1.8	290	1	63
2026-02-20T14:44	2.0	1015	1.4	290	1	63
2026-02-20T14:45	2.3	1015	1.7	290	1	63
2026-02-20T14:46	2.3	1015	1.9	290	1	63
2026-02-20T14:47	2.4	1015	2.0	290	1	63
2026-02-20T14:48	2.4	1015	2.0	290	1	64
2026-02-20T14:49	2.2	1015	1.6	290	1	64
2026-02-20T14:50	2.3	1015	1.7	300	1	64
2026-02-20T14:51	2.4	1015	1.8	300	1	64
2026-02-20T14:52	2.4	1015	1.8	300	1	64
2026-02-20T14:53	2.3	1015	1.7	300	1	64
2026-02-20T14:54	2.0	1015	1.3	300	1	64
2026-02-20T14:55	2.1	1015	1.4	300	1	64
2026-02-20T14:56	2.1	1015	1.4	300	1	64
2026-02-20T14:57	2.2	1015	1.6	300	1	64
2026-02-20T14:58	1.8	1015	1.2	300	1	63
2026-02-20T14:59	1.8	1015	1.1	310	1	63
2026-02-20T15:00	1.9	1015	1.3	310	1	63
2026-02-20T15:01	2.1	1015	1.5	310	1	63
2026-02-20T15:02	2.2	1015	1.8	310	1	63
2026-02-20T15:03	2.2	1015	1.8	310	1	63
2026-02-20T15:04	2.3	1015	1.9	310	1	63
2026-02-20T15:05	2.4	1015	2.0	310	1	63
2026-02-20T15:06	2.2	1015	1.8	310	1	63
2026-02-20T15:07	2.4	1015	1.8	310	1	64
2026-02-20T15:08	2.2	1015	1.6	310	1	64
2026-02-20T15:09	2.4	1015	1.8	310	1	65
2026-02-20T15:10	2.6	1015	2.0	310	1	65
2026-02-20T15:11	2.5	1015	1.9	310	1	65
2026-02-20T15:12	2.7	1015	2.1	310	1	66
2026-02-20T15:13	2.8	1015	2.2	310	1	66
2026-02-20T15:14	2.8	1015	2.2	310	1	66
2026-02-20T15:15	2.7	1015	2.0	310	1	66
2026-02-20T15:16	2.8	1015	2.1	310	1	66
2026-02-20T15:17	2.7	1015	2.0	310	1	66
2026-02-20T15:18	2.6	1015	1.9	310	1	66
2026-02-20T15:19	2.7	1015	2.0	310	1	66
2026-02-20T15:20	2.7	1015	2.0	310	1	66
2026-02-20T15:21	2.7	1015	2.0	320	1	66
2026-02-20T15:22	2.7	1015	1.8	320	1	66
2026-02-20T15:23	2.7	1015	1.8	310	1	66
2026-02-20T15:24	2.5	1015	1.6	310	1	66
2026-02-20T15:25	2.7	1015	1.8	310	1	66
2026-02-20T15:26	2.7	1015	2.0	310	1	66
2026-02-20T15:27	2.6	1015	1.7	310	1	66
2026-02-20T15:28	2.6	1015	1.7	300	1	66
2026-02-20T15:29	2.6	1015	1.7	300	1	66
2026-02-20T15:30	2.5	1015	1.6	300	1	66
2026-02-20T15:31	2.4	1015	1.5	300	1	65
2026-02-20T15:32	2.3	1015	1.4	290	1	65
2026-02-20T15:33	2.4	1015	1.5	290	1	65
2026-02-20T15:34	2.5	1015	1.8	290	1	65
2026-02-20T15:35	2.5	1015	1.8	290	1	65
2026-02-20T15:36	2.5	1015	1.8	290	1	64
2026-02-20T15:37	2.3	1015	1.6	300	1	64
2026-02-20T15:38	2.3	1015	1.6	300	1	64
2026-02-20T15:39	2.4	1015	1.7	310	1	64
2026-02-20T15:40	2.2	1015	1.5	310	1	64
2026-02-20T15:41	2.2	1015	1.5	330	1	64
2026-02-20T15:42	2.3	1015	1.6	340	1	64
2026-02-20T15:43	2.2	1015	1.5	360	1	64
2026-02-20T15:44	2.1	1015	1.4	20	1	64
2026-02-20T15:45	1.9	1015	1.2	30	1	64
2026-02-20T15:46	2.1	1015	1.4	30	1	64
2026-02-20T15:47	2.4	1015	1.8	40	1	64
2026-02-20T15:48	2.4	1015	2.0	40	1	64
2026-02-20T15:49	2.4	1015	1.8	30	1	64
2026-02-20T15:50	2.1	1015	1.5	20	1	64
2026-02-20T15:51	2.2	1015	1.6	10	1	63
2026-02-20T15:52	2.3	1015	1.7	360	1	63
2026-02-20T15:53	2.3	1015	1.7	350	1	64
2026-02-20T15:54	2.0	1015	1.4	330	1	64
2026-02-20T15:55	1.7	1015	1.0	330	1	64
2026-02-20T15:56	1.9	1015	1.3	320	1	64
2026-02-20T15:57	2.1	1015	1.5	310	1	64
2026-02-20T15:58	2.2	1015	1.8	310	1	63
2026-02-20T15:59	2.2	1015	1.8	310	1	63
2026-02-20T16:00	2.0	1015	1.6	300	1	63
2026-02-20T16:01	2.1	1015	1.7	300	1	63
2026-02-20T16:02	2.2	1015	1.8	300	1	63
2026-02-20T16:03	2.0	1015	1.6	300	1	63
2026-02-20T16:04	2.0	1015	1.4	300	0	63
2026-02-20T16:05	2.1	1015	1.7	290	0	62
2026-02-20T16:06	2.0	1015	1.6	300	0	62
2026-02-20T16:07	1.8	1015	1.2	300	0	62
2026-02-20T16:08	2.0	1015	1.6	300	0	62
2026-02-20T16:09	2.0	1015	1.6	300	0	62
2026-02-20T16:10	2.0	1015	1.6	300	0	62
2026-02-20T16:11	2.0	1015	1.6	300	1	62
2026-02-20T16:12	2.1	1015	1.7	300	1	62
2026-02-20T16:13	2.0	1015	1.6	310	1	62
2026-02-20T16:14	2.0	1015	1.6	310	1	62
2026-02-20T16:15	2.0	1015	1.6	310	1	62
2026-02-20T16:16	1.9	1015	1.5	310	1	62
2026-02-20T16:17	1.9	1015	1.5	310	1	62
2026-02-20T16:18	1.9	1015	1.5	310	1	62
2026-02-20T16:19	1.9	1015	1.5	310	1	62
2026-02-20T16:20	2.0	1015	1.6	310	1	62
2026-02-20T16:21	2.0	1015	1.6	310	1	62
2026-02-20T16:22	2.0	1015	1.6	310	1	62
2026-02-20T16:23	2.1	1015	1.7	310	1	61
2026-02-20T16:24	2.0	1015	1.6	310	1	61
2026-02-20T16:25	1.9	1015	1.5	310	1	61
2026-02-20T16:26	1.8	1015	1.4	310	1	61
2026-02-20T16:27	1.6	1015	1.2	310	1	61
2026-02-20T16:28	1.6	1015	1.2	310	1	61
2026-02-20T16:29	1.4	1015	1.0	310	1	60
2026-02-20T16:30	1.6	1015	1.2	310	1	60
2026-02-20T16:31	1.7	1015	1.3	310	1	60
2026-02-20T16:32	1.8	1015	1.5	310	1	60
2026-02-20T16:33	1.5	1015	1.1	300	1	60
2026-02-20T16:34	1.7	1015	1.3	300	1	60
2026-02-20T16:35	1.6	1015	1.3	300	1	60
2026-02-20T16:36	1.4	1015	1.0	300	1	60
2026-02-20T16:37	1.5	1015	1.1	300	1	60
2026-02-20T16:38	1.6	1015	1.2	300	1	60
2026-02-20T16:39	1.8	1015	1.5	300	1	60
2026-02-20T16:40	1.6	1015	1.3	300	1	60
2026-02-20T16:41	1.6	1015	1.3	300	1	60
2026-02-20T16:42	1.6	1015	1.3	300	1	60
2026-02-20T16:43	1.6	1015	1.3	300	1	60
2026-02-20T16:44	1.9	1015	1.6	300	1	60
2026-02-20T16:45	2.0	1015	1.7	300	1	60
2026-02-20T16:46	2.0	1015	1.7	300	1	60
2026-02-20T16:47	1.8	1015	1.4	300	1	61
2026-02-20T16:48	1.9	1015	1.5	300	1	61
2026-02-20T16:49	2.1	1015	1.7	300	1	61
2026-02-20T16:50	2.2	1015	1.8	300	1	61
2026-02-20T16:51	2.1	1015	1.5	300	1	62
2026-02-20T16:52	2.3	1015	1.7	300	1	62
2026-02-20T16:53	2.1	1015	1.5	300	1	62
2026-02-20T16:54	2.3	1015	1.6	300	1	63
2026-02-20T16:55	2.2	1015	1.5	300	1	63
2026-02-20T16:56	2.4	1015	1.7	300	1	63
2026-02-20T16:57	2.4	1015	1.7	300	1	63
2026-02-20T16:58	2.2	1015	1.5	300	1	63
2026-02-20T16:59	2.4	1015	1.5	310	1	63
2026-02-20T17:00	2.1	1015	1.2	310	1	63
2026-02-20T17:01	2.0	1015	1.1	310	1	63
2026-02-20T17:02	2.1	1015	1.2	310	1	63
2026-02-20T17:03	2.0	1015	1.1	300	1	63
2026-02-20T17:04	2.2	1015	1.5	300	1	63
2026-02-20T17:05	2.1	1015	1.4	300	1	63
2026-02-20T17:06	1.8	1015	0.9	300	1	62
2026-02-20T17:07	1.7	1015	0.8	300	1	62
2026-02-20T17:08	1.5	1015	0.7	300	1	62
2026-02-20T17:09	1.6	1015	0.9	290	1	62
2026-02-20T17:10	1.5	1015	0.8	290	1	62
2026-02-20T17:11	1.4	1015	0.7	290	1	62
2026-02-20T17:12	1.5	1015	0.9	290	1	62
2026-02-20T17:13	1.3	1015	0.7	290	1	61
2026-02-20T17:14	1.1	1015	0.4	290	1	61
2026-02-20T17:15	1.1	1015	0.4	290	1	61
2026-02-20T17:16	1.2	1015	0.6	290	1	60
2026-02-20T17:17	1.2	1015	0.6	290	1	60
2026-02-20T17:18	1.2	1015	0.6	300	1	60
2026-02-20T17:19	1.2	1015	0.6	300	1	60
2026-02-20T17:20	1.3	1015	0.9	300	1	60
2026-02-20T17:21	1.4	1015	1.0	300	1	60
2026-02-20T17:22	1.5	1015	1.1	300	1	60
2026-02-20T17:23	1.3	1015	0.9	300	1	60
2026-02-20T17:24	1.3	1014	0.9	300	1	60
2026-02-20T17:25	1.3	1014	0.9	310	1	60
2026-02-20T17:26	1.2	1014	0.8	310	1	60
2026-02-20T17:27	1.0	1014	0.6	310	1	60
2026-02-20T17:28	1.0	1014	0.6	310	1	60
2026-02-20T17:29	1.0	1014	0.6	310	1	61
2026-02-20T17:30	1.0	1014	0.6	310	1	61
2026-02-20T17:31	1.2	1014	0.8	320	1	61
2026-02-20T17:32	1.3	1014	1.0	320	1	61
2026-02-20T17:33	1.2	1014	0.9	320	1	61
2026-02-20T17:34	1.2	1014	0.9	310	1	62
2026-02-20T17:35	1.3	1014	1.0	310	1	62
2026-02-20T17:36	0.8	1014	0.4	310	1	61
2026-02-20T17:37	1.1	1014	0.7	310	1	62
2026-02-20T17:38	1.2	1014	0.8	310	1	62
2026-02-20T17:39	1.3	1014	1.0	310	1	62
2026-02-20T17:40	0.9	1014	0.5	320	1	62
2026-02-20T17:41	0.9	1014	0.5	320	1	62
2026-02-20T17:42	1.2	1014	0.8	320	1	62
2026-02-20T17:43	1.0	1014	0.6	320	1	62
2026-02-20T17:44	1.2	1014	0.8	320	1	62
2026-02-20T17:45	1.2	1014	0.8	320	1	63
2026-02-20T17:46	1.4	1014	1.0	320	1	64
2026-02-20T17:47	1.4	1014	1.0	320	1	64
2026-02-20T17:48	1.2	1014	0.8	320	1	64
2026-02-20T17:49	1.0	1014	0.4	310	1	64
2026-02-20T17:50	1.2	1014	0.6	310	2	64
2026-02-20T17:51	1.1	1014	0.5	310	1	64
2026-02-20T17:52	1.0	1014	0.4	310	1	64
2026-02-20T17:53	1.0	1014	0.4	310	1	64
2026-02-20T17:54	0.6	1014	0.1	310	1	63
2026-02-20T17:55	0.7	1015	0.2	310	1	63
2026-02-20T17:56	0.9	1015	0.3	310	1	63
2026-02-20T17:57	0.6	1015	0.2	310	1	62
2026-02-20T17:58	0.6	1015	0.1	310	1	62
2026-02-20T17:59	0.4	1015	-0.1	310	1	62
2026-02-20T18:00	0.5	1015	0.1	310	1	62
2026-02-20T18:01	0.4	1015	0.0	310	1	61
2026-02-20T18:02	0.6	1015	0.2	310	1	61
2026-02-20T18:03	0.5	1015	0.2	310	1	61
2026-02-20T18:04	0.5	1015	0.2	310	1	61
2026-02-20T18:05	0.4	1015	0.1	310	1	61
2026-02-20T18:06	0.4	1015	0.1	300	1	61
2026-02-20T18:07	0.3	1015	0.0	290	1	61
2026-02-20T18:08	0.3	1015	0.0	280	1	61
2026-02-20T18:09	0.1	1015	-0.3	270	1	62
2026-02-20T18:10	-0.1	1015	-0.5	260	1	62
2026-02-20T18:11	-0.2	1015	-0.8	250	1	62
2026-02-20T18:12	-0.1	1015	-0.5	250	1	62
2026-02-20T18:13	0.1	1015	-0.3	250	1	62
2026-02-20T18:14	0.2	1015	-0.1	250	1	62
2026-02-20T18:15	0.4	1015	0.1	250	1	62
2026-02-20T18:16	0.4	1015	0.1	250	1	61
2026-02-20T18:17	0.3	1015	0.0	260	1	61
2026-02-20T18:18	0.0	1015	-0.3	260	1	60
2026-02-20T18:19	-0.1	1015	-0.4	270	1	59
2026-02-20T18:20	-0.2	1015	-0.5	270	1	58
2026-02-20T18:21	-0.2	1015	-0.5	270	1	57
2026-02-20T18:22	-0.1	1015	-0.4	280	1	57
2026-02-20T18:23	0.1	1015	-0.2	280	1	57
2026-02-20T18:24	0.0	1015	-0.1	280	1	57
2026-02-20T18:25	0.2	1015	0.1	280	1	57
2026-02-20T18:26	0.3	1015	0.2	280	1	57
2026-02-20T18:27	0.3	1015	0.2	290	1	57
2026-02-20T18:28	0.2	1015	0.1	290	1	57
2026-02-20T18:29	0.0	1015	-0.1	290	1	57
2026-02-20T18:30	-0.1	1015	-0.2	290	1	57
2026-02-20T18:31	-0.1	1015	-0.2	290	1	57
2026-02-20T18:32	0.1	1015	0.0	290	1	57
2026-02-20T18:33	0.1	1015	0.0	290	1	57
2026-02-20T18:34	-0.1	1015	-0.2	300	1	57
2026-02-20T18:35	-0.2	1015	-0.3	300	1	57
2026-02-20T18:36	-0.2	1015	-0.3	300	1	57
2026-02-20T18:37	-0.2	1015	-0.3	300	1	56
2026-02-20T18:38	-0.2	1015	-0.3	300	1	56
2026-02-20T18:39	-0.2	1015	-0.3	310	1	56
2026-02-20T18:40	-0.2	1015	-0.3	310	1	56
2026-02-20T18:41	-0.1	1015	-0.2	310	1	56
2026-02-20T18:42	-0.2	1015	-0.3	310	1	56
2026-02-20T18:43	-0.1	1015	-0.2	310	1	56
2026-02-20T18:44	0.0	1015	-0.1	310	1	56
2026-02-20T18:45	-0.1	1015	-0.1	310	1	56
2026-02-20T18:46	0.1	1015	0.1	320	1	56
2026-02-20T18:47	0.2	1015	0.2	320	1	56
2026-02-20T18:48	0.0	1015	0.0	320	1	57
2026-02-20T18:49	0.1	1015	0.1	320	1	57
2026-02-20T18:50	0.3	1015	0.3	320	1	57
2026-02-20T18:51	0.4	1015	0.4	320	2	57
2026-02-20T18:52	0.2	1015	0.1	320	2	58
2026-02-20T18:53	0.3	1015	0.2	320	2	58
2026-02-20T18:54	0.4	1015	0.3	320	2	59
2026-02-20T18:55	0.6	1015	0.5	320	2	59
2026-02-20T18:56	0.5	1015	0.4	320	2	60
2026-02-20T18:57	0.5	1015	0.4	320	2	60
2026-02-20T18:58	0.2	1015	-0.1	320	2	61
2026-02-20T18:59	0.0	1015	-0.3	320	2	61
2026-02-20T19:00	0.2	1015	-0.1	320	1	61
2026-02-20T19:01	0.4	1015	0.1	320	1	61
2026-02-20T19:02	0.1	1015	-0.2	320	1	61
2026-02-20T19:03	0.2	1015	-0.1	320	2	61
2026-02-20T19:04	0.3	1015	0.0	320	2	61
2026-02-20T19:05	0.3	1015	0.0	320	2	61
2026-02-20T19:06	0.0	1015	-0.3	320	2	61
2026-02-20T19:07	0.1	1015	-0.2	320	2	61
2026-02-20T19:08	0.0	1015	-0.3	310	2	61
2026-02-20T19:09	0.3	1015	0.0	310	2	62
2026-02-20T19:10	0.2	1015	-0.1	310	2	62
2026-02-20T19:11	0.4	1015	0.1	310	1	62
2026-02-20T19:12	0.6	1015	0.3	310	1	61
2026-02-20T19:13	0.6	1015	0.3	310	1	62
2026-02-20T19:14	0.4	1015	0.0	310	1	62
2026-02-20T19:15	0.5	1015	0.1	310	1	62
2026-02-20T19:16	0.3	1015	-0.1	310	1	63
2026-02-20T19:17	0.3	1015	-0.1	300	1	63
2026-02-20T19:18	0.4	1015	0.0	300	1	63
2026-02-20T19:19	0.2	1015	-0.3	290	1	62
2026-02-20T19:20	-0.3	1015	-0.9	290	1	62
2026-02-20T19:21	-0.5	1015	-1.1	280	1	61
2026-02-20T19:22	-0.5	1015	-1.1	270	1	61
2026-02-20T19:23	-0.4	1015	-0.8	270	1	60
2026-02-20T19:24	-0.3	1015	-0.7	260	1	60
2026-02-20T19:25	-0.3	1015	-0.7	250	1	60
2026-02-20T19:26	-0.3	1015	-0.6	250	1	59
2026-02-20T19:27	-0.5	1015	-0.8	240	1	59
2026-02-20T19:28	-0.4	1015	-0.7	240	1	59
2026-02-20T19:29	-0.4	1015	-0.7	240	1	59
2026-02-20T19:30	-0.4	1015	-0.7	240	1	59
2026-02-20T19:31	-0.5	1015	-0.8	240	1	59
2026-02-20T19:32	-0.6	1015	-0.9	240	1	59
2026-02-20T19:33	-0.7	1015	-1.0	240	1	59
2026-02-20T19:34	-0.7	1015	-1.0	240	1	59
2026-02-20T19:35	-0.6	1015	-0.9	240	1	59
2026-02-20T19:36	-0.6	1015	-0.9	240	1	58
2026-02-20T19:37	-0.6	1015	-0.9	250	1	58
2026-02-20T19:38	-0.7	1015	-1.0	250	1	58
2026-02-20T19:39	-0.6	1015	-0.9	250	1	58
2026-02-20T19:40	-0.6	1015	-0.9	260	1	58
2026-02-20T19:41	-0.7	1015	-1.0	260	1	58
2026-02-20T19:42	-0.8	1015	-1.1	260	1	57
2026-02-20T19:43	-0.7	1015	-1.0	260	1	57
2026-02-20T19:44	-0.7	1015	-1.0	260	1	57
2026-02-20T19:45	-0.7	1015	-0.8	260	1	57
2026-02-20T19:46	-0.7	1015	-0.8	260	1	57
2026-02-20T19:47	-0.6	1015	-0.7	260	1	57
2026-02-20T19:48	-0.6	1015	-0.7	260	1	57
2026-02-20T19:49	-0.5	1015	-0.6	260	1	57
2026-02-20T19:50	-0.6	1015	-0.7	260	1	57
2026-02-20T19:51	-0.6	1015	-0.7	260	1	57
2026-02-20T19:52	-0.5	1015	-0.6	260	1	57
2026-02-20T19:53	-0.5	1015	-0.6	260	1	58
2026-02-20T19:54	-0.6	1015	-0.7	260	1	58
2026-02-20T19:55	-0.7	1015	-0.8	260	1	58
2026-02-20T19:56	-0.7	1015	-0.8	260	1	58
2026-02-20T19:57	-0.7	1015	-0.8	260	1	58
2026-02-20T19:58	-0.6	1015	-0.7	260	1	58
2026-02-20T19:59	-0.6	1015	-0.7	260	1	58
2026-02-20T20:00	-0.6	1015	-0.7	260	1	58
2026-02-20T20:01	-0.5	1015	-0.6	260	1	58
2026-02-20T20:02	-0.4	1015	-0.5	260	1	58
2026-02-20T20:03	-0.5	1015	-0.6	260	1	58
2026-02-20T20:04	-0.5	1015	-0.6	260	1	58
2026-02-20T20:05	-0.4	1015	-0.5	260	1	58
2026-02-20T20:06	-0.4	1015	-0.5	260	1	58
2026-02-20T20:07	-0.3	1015	-0.4	260	1	58
2026-02-20T20:08	-0.4	1015	-0.5	270	1	59
2026-02-20T20:09	-0.3	1015	-0.4	270	1	59
2026-02-20T20:10	-0.3	1015	-0.4	270	1	59
2026-02-20T20:11	-0.5	1015	-0.8	270	1	59
2026-02-20T20:12	-0.5	1015	-0.8	270	1	59
2026-02-20T20:13	-0.5	1015	-0.8	270	1	59
2026-02-20T20:14	-0.4	1015	-0.7	270	1	59
2026-02-20T20:15	-0.4	1015	-0.7	270	1	59
2026-02-20T20:16	-0.4	1015	-0.7	270	1	59
2026-02-20T20:17	-0.4	1015	-0.7	270	1	59
2026-02-20T20:18	-0.5	1015	-0.8	270	1	59
2026-02-20T20:19	-0.3	1015	-0.6	270	1	59
2026-02-20T20:20	-0.5	1015	-0.8	270	1	59
2026-02-20T20:21	-0.7	1015	-1.0	270	1	59
2026-02-20T20:22	-0.6	1015	-0.9	280	1	59
2026-02-20T20:23	-0.5	1015	-0.8	280	1	59
2026-02-20T20:24	-0.4	1015	-0.7	280	1	59
2026-02-20T20:25	-0.2	1015	-0.5	270	1	59
2026-02-20T20:26	-0.2	1015	-0.5	270	1	59
2026-02-20T20:27	-0.2	1015	-0.5	270	1	59
2026-02-20T20:28	0.0	1015	-0.3	270	1	60
2026-02-20T20:29	-0.2	1015	-0.5	270	1	60
2026-02-20T20:30	-0.1	1015	-0.4	270	1	61
2026-02-20T20:31	-0.2	1015	-0.5	270	1	61
2026-02-20T20:32	-0.1	1015	-0.4	270	1	61
2026-02-20T20:33	0.0	1015	-0.3	280	1	62
2026-02-20T20:34	-0.1	1015	-0.4	280	1	61
2026-02-20T20:35	-0.1	1015	-0.5	280	1	61
2026-02-20T20:36	-0.3	1015	-0.7	280	1	61
2026-02-20T20:37	-0.1	1015	-0.5	280	1	61
2026-02-20T20:38	-0.3	1015	-0.7	280	1	60
2026-02-20T20:39	-0.2	1015	-0.6	290	1	60
2026-02-20T20:40	-0.1	1015	-0.4	290	1	60
2026-02-20T20:41	-0.2	1016	-0.5	290	1	60
2026-02-20T20:42	-0.1	1016	-0.4	290	1	60
2026-02-20T20:43	0.0	1016	-0.3	290	1	60
2026-02-20T20:44	0.3	1016	0.0	300	1	61
2026-02-20T20:45	0.0	1016	-0.3	300	1	61
2026-02-20T20:46	0.0	1016	-0.4	300	1	61
2026-02-20T20:47	0.1	1016	-0.3	310	1	62
2026-02-20T20:48	0.2	1016	-0.2	310	1	63
2026-02-20T20:49	0.2	1016	-0.2	310	1	63
2026-02-20T20:50	0.3	1016	-0.1	310	1	63
2026-02-20T20:51	0.5	1016	0.1	310	1	64
2026-02-20T20:52	0.6	1016	0.1	310	2	64
2026-02-20T20:53	0.5	1016	0.0	320	2	65
2026-02-20T20:54	0.6	1016	-0.1	310	2	65
2026-02-20T20:55	0.7	1016	0.0	310	2	65
2026-02-20T20:56	0.8	1016	0.1	310	2	65
2026-02-20T20:57	0.9	1016	0.1	310	2	66
2026-02-20T20:58	0.9	1016	-0.1	310	2	66
2026-02-20T20:59	0.9	1016	-0.1	310	2	66
2026-02-20T21:00	0.9	1016	-0.1	300	2	67
2026-02-20T21:01	0.9	1016	-0.2	300	2	67
2026-02-20T21:02	0.9	1016	-0.2	300	2	67
2026-02-20T21:03	0.9	1016	-0.2	300	2	67
2026-02-20T21:04	1.0	1016	-0.1	300	2	67
2026-02-20T21:05	1.0	1016	-0.1	300	2	67
2026-02-20T21:06	1.0	1016	-0.3	300	2	67
2026-02-20T21:07	1.0	1016	-0.3	300	2	67
2026-02-20T21:08	0.9	1016	-0.4	300	2	67
2026-02-20T21:09	1.0	1016	-0.3	300	2	67
2026-02-20T21:10	1.0	1016	-0.3	310	2	67
2026-02-20T21:11	1.0	1016	-0.3	310	2	68
2026-02-20T21:12	1.0	1016	-0.3	310	2	68
2026-02-20T21:13	0.9	1016	-0.4	310	2	68
2026-02-20T21:14	1.0	1016	-0.3	310	2	68
2026-02-20T21:15	1.0	1016	-0.3	310	2	68
2026-02-20T21:16	0.8	1016	-0.5	310	2	68
2026-02-20T21:17	0.9	1016	-0.4	310	2	68
2026-02-20T21:18	0.9	1016	-0.4	300	2	67
2026-02-20T21:19	0.8	1016	-0.3	300	2	67
2026-02-20T21:20	0.8	1016	-0.3	300	2	67
2026-02-20T21:21	0.8	1016	-0.3	300	2	66
2026-02-20T21:22	0.8	1016	-0.3	300	2	67
2026-02-20T21:23	0.7	1016	-0.4	300	2	66
2026-02-20T21:24	0.9	1016	-0.2	300	2	66
2026-02-20T21:25	0.9	1016	-0.2	300	2	66
2026-02-20T21:26	0.9	1016	-0.4	300	2	66
2026-02-20T21:27	0.9	1016	-0.4	300	2	66
2026-02-20T21:28	0.9	1016	-0.4	300	2	66
2026-02-20T21:29	0.9	1016	-0.4	300	2	67
2026-02-20T21:30	1.0	1016	-0.3	300	2	67
2026-02-20T21:31	1.0	1016	-0.4	300	2	67
2026-02-20T21:32	1.1	1016	-0.3	300	2	67
2026-02-20T21:33	1.0	1016	-0.4	310	2	68
2026-02-20T21:34	1.0	1016	-0.4	310	2	67
2026-02-20T21:35	1.0	1016	-0.4	310	2	67
2026-02-20T21:36	1.0	1016	-0.4	310	2	67
2026-02-20T21:37	1.0	1016	-0.4	310	2	67
2026-02-20T21:38	0.9	1016	-0.4	310	2	67
2026-02-20T21:39	0.9	1016	-0.4	310	2	67
2026-02-20T21:40	0.9	1016	-0.4	310	2	67
2026-02-20T21:41	0.9	1016	-0.4	310	2	67
2026-02-20T21:42	0.9	1016	-0.5	310	2	67
2026-02-20T21:43	0.9	1016	-0.5	320	2	67
2026-02-20T21:44	0.9	1016	-0.5	320	2	67
2026-02-20T21:45	0.9	1016	-0.5	310	2	67
2026-02-20T21:46	0.9	1016	-0.5	310	2	67
2026-02-20T21:47	1.0	1016	-0.6	310	2	67
2026-02-20T21:48	1.0	1016	-0.6	310	2	68
2026-02-20T21:49	0.9	1016	-0.7	310	2	68
2026-02-20T21:50	1.0	1016	-0.6	310	2	69
2026-02-20T21:51	0.9	1016	-0.5	310	2	69
2026-02-20T21:52	1.0	1016	-0.4	300	2	69
2026-02-20T21:53	1.0	1016	-0.4	300	2	69
2026-02-20T21:54	1.0	1016	-0.4	300	2	69
2026-02-20T21:55	1.0	1016	-0.4	300	2	69
2026-02-20T21:56	1.0	1016	-0.4	300	2	69
2026-02-20T21:57	1.0	1016	-0.4	300	2	69
2026-02-20T21:58	1.1	1016	-0.5	300	2	68
2026-02-20T21:59	1.2	1016	-0.4	310	2	68
2026-02-20T22:00	1.2	1016	-0.4	310	2	68
2026-02-20T22:01	1.3	1016	-0.3	310	2	69
2026-02-20T22:02	1.3	1016	-0.3	310	2	69
2026-02-20T22:03	1.4	1016	-0.2	310	2	68
2026-02-20T22:04	1.5	1016	-0.1	310	2	69
2026-02-20T22:05	1.5	1016	-0.3	300	2	69
2026-02-20T22:06	1.6	1016	-0.2	300	2	69
2026-02-20T22:07	1.6	1016	-0.2	300	2	69
2026-02-20T22:08	1.6	1016	-0.3	300	2	70
2026-02-20T22:09	1.5	1016	-0.4	300	2	70
2026-02-20T22:10	1.5	1016	-0.3	290	2	70
2026-02-20T22:11	1.6	1016	-0.2	290	2	70
2026-02-20T22:12	1.6	1016	-0.2	290	2	70
2026-02-20T22:13	1.7	1016	-0.2	300	2	70
2026-02-20T22:14	1.8	1016	-0.1	300	2	70
2026-02-20T22:15	1.8	1016	-0.1	300	2	70
2026-02-20T22:16	1.8	1016	-0.1	300	2	70
2026-02-20T22:17	1.9	1016	-0.2	300	2	70
2026-02-20T22:18	1.9	1016	0.0	300	2	70
2026-02-20T22:19	1.9	1016	0.0	300	2	70
2026-02-20T22:20	2.0	1016	-0.1	300	2	70
2026-02-20T22:21	2.0	1016	-0.1	300	2	70
2026-02-20T22:22	2.0	1016	-0.2	300	2	70
2026-02-20T22:23	2.1	1016	-0.1	290	2	70
2026-02-20T22:24	2.2	1016	-0.2	290	2	70
2026-02-20T22:25	2.3	1016	0.1	290	2	70
2026-02-20T22:26	2.3	1016	0.1	290	2	70
2026-02-20T22:27	2.4	1016	0.2	290	2	70
2026-02-20T22:28	2.5	1016	0.3	290	2	70
2026-02-20T22:29	2.5	1016	0.3	290	2	70
2026-02-20T22:30	2.5	1016	0.3	290	2	70
2026-02-20T22:31	2.6	1016	0.2	290	2	70
2026-02-20T22:32	2.6	1016	0.2	290	2	69
2026-02-20T22:33	2.6	1016	0.2	290	2	70
2026-02-20T22:34	2.6	1016	0.2	290	2	70
2026-02-20T22:35	2.7	1016	0.3	290	2	70
2026-02-20T22:36	2.9	1016	0.3	290	1	69
2026-02-20T22:37	2.9	1016	0.5	290	1	70
2026-02-20T22:38	3.0	1016	0.7	280	1	70
2026-02-20T22:39	3.1	1016	0.7	280	1	70
2026-02-20T22:40	3.3	1016	0.9	280	1	70
2026-02-20T22:41	3.2	1016	0.6	280	2	70
2026-02-20T22:42	3.1	1016	0.2	280	2	70
2026-02-20T22:43	3.1	1016	0.2	280	2	70
2026-02-20T22:44	3.1	1016	0.3	280	2	70
2026-02-20T22:45	3.3	1016	0.4	280	2	70
2026-02-20T22:46	3.6	1016	0.8	280	2	70
2026-02-20T22:47	3.6	1016	1.0	280	2	70
2026-02-20T22:48	3.4	1016	0.5	280	2	70
2026-02-20T22:49	3.5	1017	0.2	280	2	70
2026-02-20T22:50	3.5	1017	0.2	280	2	70
2026-02-20T22:51	3.8	1017	0.7	280	2	70
2026-02-20T22:52	3.9	1017	0.9	280	2	70
2026-02-20T22:53	4.0	1017	0.9	270	2	70
2026-02-20T22:54	4.0	1017	0.7	270	2	70
2026-02-20T22:55	4.1	1017	1.0	270	2	70
2026-02-20T22:56	4.1	1017	1.0	270	2	70
2026-02-20T22:57	3.9	1017	0.3	280	2	70
2026-02-20T22:58	4.1	1017	0.6	280	2	70
2026-02-20T22:59	4.2	1017	0.9	280	2	70
2026-02-20T23:00	4.4	1017	1.1	270	2	70
2026-02-20T23:01	4.5	1017	1.2	280	2	70
2026-02-20T23:02	4.6	1017	1.1	280	2	70
2026-02-20T23:03	4.4	1017	0.7	280	2	70
2026-02-20T23:04	4.5	1017	0.7	280	2	70
2026-02-20T23:05	4.7	1017	1.0	280	2	70
2026-02-20T23:06	4.7	1017	1.0	280	2	70
2026-02-20T23:07	4.7	1017	0.8	270	2	70
2026-02-20T23:08	4.7	1017	0.8	270	2	70
2026-02-20T23:09	4.8	1017	0.8	270	2	70
2026-02-20T23:10	4.8	1017	0.8	270	2	70
2026-02-20T23:11	4.9	1017	0.9	270	2	70
2026-02-20T23:12	5.0	1017	0.8	280	2	70
2026-02-20T23:13	5.2	1017	1.3	280	2	70
2026-02-20T23:14	5.3	1017	1.4	270	2	70
2026-02-20T23:15	5.4	1017	1.3	270	2	70
2026-02-20T23:16	5.2	1017	1.0	270	2	70
2026-02-20T23:17	5.2	1017	0.8	270	2	70
2026-02-20T23:18	5.6	1017	1.5	270	2	70
2026-02-20T23:19	5.6	1017	1.5	270	2	70
2026-02-20T23:20	5.4	1017	0.8	280	1	70
2026-02-20T23:21	5.5	1017	0.9	280	1	70
2026-02-20T23:22	5.6	1017	1.0	280	1	70
2026-02-20T23:23	5.4	1017	0.4	280	1	70
2026-02-20T23:24	5.3	1017	0.3	290	1	70
2026-02-20T23:25	5.2	1017	0.2	290	1	70
2026-02-20T23:26	5.5	1017	0.9	300	1	70
2026-02-20T23:27	5.5	1017	0.7	300	1	70
2026-02-20T23:28	5.6	1017	0.6	300	1	70
2026-02-20T23:29	5.5	1017	0.5	290	1	70
2026-02-20T23:30	5.5	1017	0.5	290	1	70
2026-02-20T23:31	5.7	1017	0.7	290	1	70
2026-02-20T23:32	6.3	1017	1.6	280	2	70
2026-02-20T23:33	6.4	1017	1.7	290	2	70
2026-02-20T23:34	6.1	1017	0.7	280	2	70
2026-02-20T23:35	6.2	1017	0.8	280	2	70
2026-02-20T23:36	6.2	1017	0.8	280	2	70
2026-02-20T23:37	6.4	1017	1.1	280	2	70
2026-02-20T23:38	6.1	1017	0.5	280	2	70
2026-02-20T23:39	6.5	1017	1.0	280	2	70
2026-02-20T23:40	6.6	1017	1.1	290	2	70
2026-02-20T23:41	6.9	1017	1.4	290	2	70
2026-02-20T23:42	6.9	1017	1.2	290	2	70
2026-02-20T23:43	6.8	1017	1.1	290	2	70
2026-02-20T23:44	6.6	1017	0.7	290	2	70
2026-02-20T23:45	7.0	1017	1.3	290	2	70
2026-02-20T23:46	7.1	1017	1.4	300	2	70
2026-02-20T23:47	6.8	1017	0.9	300	2	70
2026-02-20T23:48	6.7	1017	0.6	300	2	70
2026-02-20T23:49	6.6	1017	0.5	310	2	70
2026-02-20T23:50	6.9	1017	1.0	310	2	70
2026-02-20T23:51	7.0	1017	1.1	300	2	70
2026-02-20T23:52	7.2	1017	1.3	300	2	70
2026-02-20T23:53	7.5	1017	1.6	300	2	70
2026-02-20T23:54	7.3	1017	1.0	300	2	70
2026-02-20T23:55	7.3	1017	1.0	310	2	70
2026-02-20T23:56	7.3	1017	1.0	300	2	70
2026-02-20T23:57	7.2	1017	0.9	300	2	70
2026-02-20T23:58	7.4	1017	1.1	290	2	70
2026-02-20T23:59	7.5	1017	1.1	290	2	70
2026-02-21T00:00	7.6	1017	1.2	290	2	70
2026-02-21T00:01	7.6	1017	1.2	290	2	69
2026-02-21T00:02	7.5	1017	0.9	290	2	70
2026-02-21T00:03	7.6	1017	1.0	290	2	70
2026-02-21T00:04	7.6	1017	1.0	290	2	70
2026-02-21T00:05	7.6	1017	1.0	300	2	70
2026-02-21T00:06	7.7	1017	1.1	300	2	69
2026-02-21T00:07	8.0	1017	1.4	300	2	69
2026-02-21T00:08	8.1	1017	1.5	300	2	69
2026-02-21T00:09	8.1	1017	1.3	300	2	69
2026-02-21T00:10	8.1	1017	1.3	310	2	69
2026-02-21T00:11	8.2	1017	1.1	310	2	69
2026-02-21T00:12	8.5	1017	1.6	310	3	69
2026-02-21T00:13	8.6	1017	1.5	300	3	70
2026-02-21T00:14	8.5	1017	1.2	300	3	70
2026-02-21T00:15	8.3	1017	1.0	300	3	70
2026-02-21T00:16	8.4	1017	1.1	290	3	70
2026-02-21T00:17	9.2	1017	2.3	290	3	70
2026-02-21T00:18	9.1	1017	1.8	300	3	70
2026-02-21T00:19	8.8	1017	1.2	300	3	70
2026-02-21T00:20	8.7	1017	1.1	300	2	70
2026-02-21T00:21	9.2	1017	1.9	300	2	70
2026-02-21T00:22	9.2	1017	1.6	300	2	70
2026-02-21T00:23	9.3	1016	1.7	300	2	70
2026-02-21T00:24	9.7	1016	2.1	290	2	70
2026-02-21T00:25	9.3	1017	1.2	300	2	70
2026-02-21T00:26	9.2	1016	1.1	300	2	70
2026-02-21T00:27	9.4	1016	1.6	300	2	70
2026-02-21T00:28	9.3	1016	1.2	300	2	70
2026-02-21T00:29	9.2	1016	1.1	300	3	70
2026-02-21T00:30	9.6	1016	1.8	300	3	70
2026-02-21T00:31	10.0	1016	2.1	300	3	70
2026-02-21T00:32	9.8	1016	1.7	300	3	70
2026-02-21T00:33	9.8	1016	1.5	300	3	70
2026-02-21T00:34	9.7	1016	1.4	300	3	70
2026-02-21T00:35	9.9	1016	1.8	300	3	70
2026-02-21T00:36	9.6	1016	1.3	300	3	70
2026-02-21T00:37	9.5	1016	1.2	300	3	70
2026-02-21T00:38	9.7	1016	1.4	300	3	70
2026-02-21T00:39	9.9	1017	1.5	300	3	70
2026-02-21T00:40	9.8	1017	1.2	300	3	70
2026-02-21T00:41	9.9	1017	1.5	300	2	70
2026-02-21T00:42	9.9	1017	1.3	300	3	70
2026-02-21T00:43	10.1	1017	1.5	300	2	70
2026-02-21T00:44	10.3	1017	1.7	310	2	70
2026-02-21T00:45	10.3	1017	1.7	310	2	70
2026-02-21T00:46	10.2	1017	1.3	310	2	70
2026-02-21T00:47	10.3	1017	1.7	310	2	70
2026-02-21T00:48	10.3	1017	1.4	310	2	70
2026-02-21T00:49	10.3	1017	1.4	310	2	70
2026-02-21T00:50	10.4	1017	1.5	310	2	70
2026-02-21T00:51	10.3	1017	1.4	310	2	70
2026-02-21T00:52	10.4	1017	1.5	300	2	70
2026-02-21T00:53	10.6	1017	1.7	310	2	70
2026-02-21T00:54	10.4	1017	1.2	310	2	70
2026-02-21T00:55	10.3	1017	1.2	310	2	70
2026-02-21T00:56	10.2	1017	1.1	310	2	70
2026-02-21T00:57	10.4	1017	1.5	320	2	70
2026-02-21T00:58	10.5	1017	1.3	320	2	70
2026-02-21T00:59	10.7	1017	1.8	310	2	70
2026-02-21T01:00	10.8	1017	1.6	310	2	70
2026-02-21T01:01	11.0	1017	1.8	310	2	70
2026-02-21T01:02	10.9	1017	1.7	310	2	70
2026-02-21T01:03	10.7	1017	1.3	310	2	70
2026-02-21T01:04	10.9	1017	1.4	310	2	70
2026-02-21T01:05	10.7	1017	1.3	310	2	70
2026-02-21T01:06	10.9	1017	1.4	300	2	70
2026-02-21T01:07	11.0	1017	1.5	300	2	70
2026-02-21T01:08	11.5	1017	2.0	300	2	70
2026-02-21T01:09	11.0	1017	1.3	300	2	70
2026-02-21T01:10	11.0	1017	1.3	300	2	70
2026-02-21T01:11	11.2	1017	1.7	300	2	70
2026-02-21T01:12	11.0	1017	1.3	310	2	70
2026-02-21T01:13	10.9	1017	1.2	300	2	70
2026-02-21T01:14	11.3	1017	1.5	300	2	70
2026-02-21T01:15	11.5	1017	1.7	290	2	70
2026-02-21T01:16	11.6	1017	1.8	290	2	70
2026-02-21T01:17	11.4	1017	1.4	290	2	70
2026-02-21T01:18	11.5	1017	1.5	290	2	70
2026-02-21T01:19	11.7	1017	1.6	290	2	70
2026-02-21T01:20	11.9	1017	1.8	290	2	70
2026-02-21T01:21	11.6	1017	1.3	290	2	70
2026-02-21T01:22	11.4	1017	1.1	290	2	70
2026-02-21T01:23	11.8	1017	1.7	290	2	70
2026-02-21T01:24	11.9	1017	1.5	300	2	70
2026-02-21T01:25	11.6	1017	1.3	300	2	70
2026-02-21T01:26	11.4	1016	1.1	300	2	70
2026-02-21T01:27	11.5	1016	1.2	300	2	70
2026-02-21T01:28	11.4	1016	1.1	300	2	70
2026-02-21T01:29	11.3	1016	1.0	310	2	70
2026-02-21T01:30	11.6	1016	1.5	310	2	70
2026-02-21T01:31	12.0	1016	1.9	300	2	70
2026-02-21T01:32	12.1	1016	1.7	300	2	70
2026-02-21T01:33	11.9	1016	1.3	300	2	70
2026-02-21T01:34	11.7	1016	1.1	300	2	70
2026-02-21T01:35	12.2	1016	1.8	300	2	70
2026-02-21T01:36	11.7	1016	1.1	300	2	70
2026-02-21T01:37	11.7	1016	1.4	300	2	70
2026-02-21T01:38	11.5	1016	0.9	300	2	70
2026-02-21T01:39	12.0	1016	1.6	300	2	70
2026-02-21T01:40	12.0	1016	1.3	310	2	70
2026-02-21T01:41	12.4	1016	2.0	310	2	70
2026-02-21T01:42	12.3	1016	1.6	320	2	70
2026-02-21T01:43	12.1	1016	1.4	330	2	70
2026-02-21T01:44	11.9	1016	1.0	330	2	70
2026-02-21T01:45	11.7	1016	1.1	330	2	70
2026-02-21T01:46	12.6	1016	2.2	320	2	70
2026-02-21T01:47	12.5	1016	1.8	320	2	70
2026-02-21T01:48	12.1	1016	1.1	320	2	70
2026-02-21T01:49	12.0	1016	1.1	310	2	70
2026-02-21T01:50	12.1	1016	1.1	310	2	70
2026-02-21T01:51	12.3	1016	1.3	300	2	70
2026-02-21T01:52	12.3	1016	1.3	290	2	70
2026-02-21T01:53	12.7	1016	2.0	280	2	70
2026-02-21T01:54	12.5	1016	1.5	280	2	70
2026-02-21T01:55	12.6	1016	1.6	280	2	70
2026-02-21T01:56	12.2	1016	1.2	290	2	70
2026-02-21T01:57	12.0	1016	1.1	300	2	70
2026-02-21T01:58	12.1	1016	1.4	300	2	70
2026-02-21T01:59	12.4	1016	1.7	290	2	70
2026-02-21T02:00	12.4	1016	1.4	290	2	70
2026-02-21T02:01	12.5	1016	1.5	290	2	70
2026-02-21T02:02	13.1	1016	2.4	290	2	70
2026-02-21T02:03	13.5	1016	2.4	290	2	70
2026-02-21T02:04	13.6	1016	2.2	290	2	70
2026-02-21T02:05	13.0	1016	1.4	290	2	70
2026-02-21T02:06	13.2	1016	1.8	290	2	70
2026-02-21T02:07	12.7	1016	1.4	280	2	70
2026-02-21T02:08	12.6	1016	1.6	290	2	70
2026-02-21T02:09	13.1	1016	2.1	290	2	70
2026-02-21T02:10	12.8	1016	1.5	290	2	70
2026-02-21T02:11	12.7	1016	1.4	290	3	70
2026-02-21T02:12	13.5	1016	2.4	290	2	70
2026-02-21T02:13	13.9	1016	2.5	290	2	70
2026-02-21T02:14	13.2	1016	1.2	300	2	70
2026-02-21T02:15	13.3	1016	1.6	300	2	70
2026-02-21T02:16	14.0	1016	2.6	290	2	70
2026-02-21T02:17	13.6	1016	1.9	290	2	70
2026-02-21T02:18	13.6	1016	1.9	290	2	70
2026-02-21T02:19	13.5	1016	1.8	290	2	70
2026-02-21T02:20	12.9	1016	1.3	280	2	70
2026-02-21T02:21	13.4	1016	2.0	280	2	70
2026-02-21T02:22	13.4	1016	2.0	280	2	70
2026-02-21T02:23	13.4	1016	2.0	280	2	70
2026-02-21T02:24	13.3	1016	1.6	280	2	70
2026-02-21T02:25	13.2	1016	1.5	280	2	70
2026-02-21T02:26	12.6	1016	1.0	280	2	70
2026-02-21T02:27	12.5	1016	1.2	270	2	70
2026-02-21T02:28	12.6	1016	1.6	260	2	70
2026-02-21T02:29	13.6	1016	2.8	250	2	70
2026-02-21T02:30	13.7	1016	2.3	240	2	70
2026-02-21T02:31	13.6	1016	1.9	240	2	70
2026-02-21T02:32	14.0	1016	2.6	210	2	70
2026-02-21T02:33	13.9	1016	2.2	180	2	70
2026-02-21T02:34	13.9	1016	2.2	180	2	70
2026-02-21T02:35	14.4	1016	2.9	50	1	70
2026-02-21T02:36	14.6	1016	2.8	360	1	70
2026-02-21T02:37	14.0	1016	1.6	350	1	70
2026-02-21T02:38	13.5	1016	1.2	10	2	70
2026-02-21T02:39	13.4	1016	1.4	350	2	70
2026-02-21T02:40	13.7	1016	2.0	340	2	70
2026-02-21T02:41	14.4	1016	2.6	330	2	70
2026-02-21T02:42	14.3	1016	2.2	320	2	70
2026-02-21T02:43	13.7	1016	1.7	320	2	70
2026-02-21T02:44	13.8	1016	2.1	320	2	70
2026-02-21T02:45	13.8	1016	2.1	320	2	70
2026-02-21T02:46	13.9	1016	2.5	310	3	70
2026-02-21T02:47	13.7	1016	2.3	310	3	70
2026-02-21T02:48	13.5	1016	2.1	320	2	70
2026-02-21T02:49	13.3	1016	1.9	310	3	70
2026-02-21T02:50	13.0	1016	1.7	310	3	70
2026-02-21T02:51	13.1	1016	2.1	320	3	70
2026-02-21T02:52	13.1	1016	2.4	330	3	70
2026-02-21T02:53	13.0	1016	2.3	340	3	70
2026-02-21T02:54	13.6	1015	2.8	330	2	70
2026-02-21T02:55	14.3	1015	3.5	320	2	70
2026-02-21T02:56	14.2	1015	3.1	320	2	70
2026-02-21T02:57	13.8	1015	2.4	310	2	70
2026-02-21T02:58	13.4	1015	2.0	320	2	70
2026-02-21T02:59	13.3	1015	2.2	320	2	70
2026-02-21T03:00	13.1	1015	2.1	320	2	70
2026-02-21T03:01	13.3	1015	2.5	320	2	70
2026-02-21T03:02	13.6	1015	2.8	310	2	70
2026-02-21T03:03	13.5	1015	2.4	300	2	70
2026-02-21T03:04	13.4	1015	2.3	310	2	70
2026-02-21T03:05	13.4	1015	2.3	310	2	70
2026-02-21T03:06	13.5	1015	2.7	310	2	70
2026-02-21T03:07	14.0	1015	3.2	310	2	70
2026-02-21T03:08	14.1	1015	3.0	300	2	70
2026-02-21T03:09	13.8	1015	2.4	300	2	70
2026-02-21T03:10	13.7	1015	2.3	300	2	70
2026-02-21T03:11	14.2	1015	3.1	310	2	70
2026-02-21T03:12	14.7	1015	3.2	310	2	70
2026-02-21T03:13	14.8	1015	3.0	310	2	70
2026-02-21T03:14	15.3	1015	3.5	320	1	70
2026-02-21T03:15	14.5	1015	2.7	340	1	70
2026-02-21T03:16	14.0	1015	2.6	350	2	70
2026-02-21T03:17	14.5	1015	3.6	360	2	70
2026-02-21T03:18	14.2	1015	3.4	10	2	70
2026-02-21T03:19	14.0	1015	3.2	20	2	70
2026-02-21T03:20	13.5	1015	2.7	30	2	70
2026-02-21T03:21	13.5	1015	3.0	40	2	70
2026-02-21T03:22	13.9	1015	3.7	50	2	70
2026-02-21T03:23	14.4	1015	4.1	50	2	70
2026-02-21T03:24	14.3	1015	3.5	60	2	70
2026-02-21T03:25	13.8	1015	3.0	70	2	70
2026-02-21T03:26	14.4	1015	3.8	80	2	70
2026-02-21T03:27	14.4	1015	3.5	90	2	70
2026-02-21T03:28	14.1	1015	3.3	90	2	70
2026-02-21T03:29	14.2	1015	3.4	90	2	70
2026-02-21T03:30	14.0	1015	3.2	100	2	70
2026-02-21T03:31	13.7	1015	2.9	100	2	70
2026-02-21T03:32	13.9	1015	3.4	110	2	70
2026-02-21T03:33	14.3	1015	3.8	120	2	70
2026-02-21T03:34	14.4	1015	3.8	120	2	70
2026-02-21T03:35	14.1	1015	3.3	120	2	70
2026-02-21T03:36	14.1	1015	3.3	110	2	70
2026-02-21T03:37	13.5	1015	2.7	120	2	70
2026-02-21T03:38	13.8	1015	3.3	130	2	70
2026-02-21T03:39	14.2	1015	3.7	140	2	70
2026-02-21T03:40	14.1	1015	3.3	140	2	70
2026-02-21T03:41	14.5	1015	3.9	140	2	70
2026-02-21T03:42	14.5	1015	3.6	140	2	70
2026-02-21T03:43	14.3	1015	3.5	130	2	70
2026-02-21T03:44	14.1	1015	3.3	120	2	70
2026-02-21T03:45	14.0	1015	3.5	130	2	70
2026-02-21T03:46	14.2	1015	3.7	130	2	70
2026-02-21T03:47	13.8	1015	3.3	120	2	70
2026-02-21T03:48	14.2	1015	3.9	110	2	70
2026-02-21T03:49	14.0	1015	3.5	110	2	70
2026-02-21T03:50	14.3	1015	3.8	120	2	70
2026-02-21T03:51	14.4	1015	3.8	140	2	70
2026-02-21T03:52	14.3	1015	3.8	140	2	70
2026-02-21T03:53	14.4	1015	3.8	150	2	70
2026-02-21T03:54	14.6	1015	4.0	140	2	70
2026-02-21T03:55	14.5	1015	3.6	130	2	70
2026-02-21T03:56	14.3	1015	3.5	120	2	70
2026-02-21T03:57	13.9	1015	3.1	130	2	70
2026-02-21T03:58	13.9	1015	3.4	120	2	70
2026-02-21T03:59	14.2	1015	3.9	110	2	70
2026-02-21T04:00	14.4	1015	4.1	110	2	70
2026-02-21T04:01	14.8	1015	4.5	100	2	70
2026-02-21T04:02	14.5	1015	3.9	100	2	70
2026-02-21T04:03	14.0	1015	3.5	100	2	70
2026-02-21T04:04	14.0	1015	3.8	100	2	70
2026-02-21T04:05	14.3	1014	4.3	100	2	70
2026-02-21T04:06	14.1	1014	3.9	100	2	70
2026-02-21T04:07	13.9	1014	4.0	100	2	70
2026-02-21T04:08	14.6	1014	4.6	90	2	70
2026-02-21T04:09	14.5	1014	4.2	90	2	70
2026-02-21T04:10	14.0	1014	3.8	90	2	70
2026-02-21T04:11	14.0	1014	4.0	90	2	70
2026-02-21T04:12	14.5	1014	4.8	90	2	70
2026-02-21T04:13	14.5	1014	4.5	90	2	70
2026-02-21T04:14	14.5	1014	4.5	100	2	70
2026-02-21T04:15	14.1	1014	4.1	100	2	70
2026-02-21T04:16	14.0	1014	4.3	110	2	70
2026-02-21T04:17	14.0	1014	4.3	110	2	70
2026-02-21T04:18	14.1	1014	4.7	120	2	70
2026-02-21T04:19	13.8	1014	4.4	130	2	70
2026-02-21T04:20	14.1	1014	4.7	130	2	70
2026-02-21T04:21	14.7	1014	5.2	130	2	70
2026-02-21T04:22	14.4	1014	4.7	130	2	70
2026-02-21T04:23	14.3	1014	4.6	130	2	70
2026-02-21T04:24	14.3	1014	4.6	130	2	70
2026-02-21T04:25	14.2	1014	4.8	120	2	70
2026-02-21T04:26	14.4	1014	5.0	120	2	70
2026-02-21T04:27	14.4	1014	5.0	130	2	70
2026-02-21T04:28	14.9	1014	5.4	120	2	70
2026-02-21T04:29	15.0	1014	5.2	120	2	70
2026-02-21T04:30	14.6	1014	4.9	110	2	70
2026-02-21T04:31	14.1	1014	4.7	110	2	70
2026-02-21T04:32	13.9	1014	4.8	100	2	70
2026-02-21T04:33	14.1	1014	5.2	110	2	70
2026-02-21T04:34	14.5	1014	5.6	110	2	70
2026-02-21T04:35	14.4	1014	5.2	100	2	70
2026-02-21T04:36	14.1	1014	5.0	100	2	70
2026-02-21T04:37	14.3	1014	5.1	100	2	70
2026-02-21T04:38	14.5	1014	5.3	110	2	70
2026-02-21T04:39	15.0	1014	5.8	110	2	70
2026-02-21T04:40	14.9	1014	5.4	100	2	70
2026-02-21T04:41	14.7	1014	5.2	100	2	70
2026-02-21T04:42	14.6	1014	5.2	100	2	70
2026-02-21T04:43	14.2	1014	4.8	90	2	70
2026-02-21T04:44	14.4	1014	5.2	80	2	70
2026-02-21T04:45	14.5	1014	5.1	80	2	70
2026-02-21T04:46	14.3	1014	4.9	70	2	70
2026-02-21T04:47	14.3	1014	4.9	70	2	70
2026-02-21T04:48	14.4	1014	5.0	60	2	70
2026-02-21T04:49	14.7	1014	5.2	60	2	70
2026-02-21T04:50	14.4	1014	4.7	70	2	70
2026-02-21T04:51	14.0	1014	4.3	70	2	70
2026-02-21T04:52	14.2	1014	4.8	70	2	70
2026-02-21T04:53	14.5	1014	4.8	70	3	70
2026-02-21T04:54	14.5	1014	4.8	70	2	70
2026-02-21T04:55	14.2	1014	4.5	80	2	70
2026-02-21T04:56	13.9	1014	4.2	90	2	70
2026-02-21T04:57	13.9	1014	4.5	90	2	70
2026-02-21T04:58	13.9	1014	4.5	90	2	70
2026-02-21T04:59	14.1	1014	4.7	90	2	70
2026-02-21T05:00	14.2	1014	4.8	100	2	70
2026-02-21T05:01	14.4	1014	5.0	100	2	70
2026-02-21T05:02	14.4	1014	5.0	110	2	70
2026-02-21T05:03	14.6	1014	5.2	110	2	70
2026-02-21T05:04	14.5	1014	4.8	110	2	70
2026-02-21T05:05	14.2	1014	4.5	110	2	70
2026-02-21T05:06	14.2	1014	4.8	100	2	70
2026-02-21T05:07	14.5	1014	5.3	100	2	70
2026-02-21T05:08	14.9	1014	5.7	100	2	70
2026-02-21T05:09	15.1	1014	5.6	100	2	70
2026-02-21T05:10	15.0	1014	5.5	100	2	70
2026-02-21T05:11	14.7	1014	5.2	100	2	70
2026-02-21T05:12	14.9	1014	5.7	90	2	70
2026-02-21T05:13	15.3	1014	5.8	90	2	70
2026-02-21T05:14	14.7	1014	5.0	90	2	70
2026-02-21T05:15	14.4	1014	5.0	90	2	70
2026-02-21T05:16	14.0	1014	4.9	90	2	70
2026-02-21T05:17	14.0	1014	5.1	80	2	70
2026-02-21T05:18	14.5	1014	5.6	80	2	70
2026-02-21T05:19	14.5	1014	5.6	80	2	70
2026-02-21T05:20	14.6	1014	5.7	80	2	70
2026-02-21T05:21	14.8	1014	5.9	80	2	70
2026-02-21T05:22	15.2	1014	6.2	90	2	70
2026-02-21T05:23	15.0	1014	5.8	90	2	70
2026-02-21T05:24	14.5	1014	5.3	100	2	70
2026-02-21T05:25	14.3	1014	5.4	100	2	70
2026-02-21T05:26	14.2	1014	5.3	100	2	70
2026-02-21T05:27	14.2	1014	5.3	100	2	70
2026-02-21T05:28	14.1	1014	5.5	100	2	70
2026-02-21T05:29	14.3	1014	5.9	90	2	70
2026-02-21T05:30	14.4	1014	6.0	90	2	70
2026-02-21T05:31	14.1	1014	5.7	80	2	70
2026-02-21T05:32	14.3	1014	5.9	80	2	70
2026-02-21T05:33	14.4	1014	6.0	80	2	70
2026-02-21T05:34	14.5	1014	6.1	80	2	70
2026-02-21T05:35	14.3	1014	5.9	80	2	70
2026-02-21T05:36	14.3	1014	6.2	80	2	70
2026-02-21T05:37	14.4	1014	6.3	80	2	70
2026-02-21T05:38	14.3	1014	5.9	80	2	70
2026-02-21T05:39	14.6	1014	6.5	80	2	70
2026-02-21T05:40	14.6	1014	6.2	80	3	70
2026-02-21T05:41	14.2	1014	5.8	80	3	70
2026-02-21T05:42	14.2	1014	6.1	80	3	70
2026-02-21T05:43	14.2	1014	6.1	80	3	70
2026-02-21T05:44	14.3	1014	6.2	80	3	70
2026-02-21T05:45	14.1	1014	6.0	70	3	70
2026-02-21T05:46	14.0	1014	5.9	70	2	70
2026-02-21T05:47	14.2	1014	6.3	80	2	70
2026-02-21T05:48	14.0	1014	5.9	80	2	70
2026-02-21T05:49	14.3	1014	6.2	80	2	70
2026-02-21T05:50	14.5	1014	6.4	80	2	70
2026-02-21T05:51	14.4	1014	6.0	80	2	70
2026-02-21T05:52	14.5	1014	6.1	80	2	70
2026-02-21T05:53	14.3	1014	5.9	80	2	70
2026-02-21T05:54	14.2	1014	5.8	80	1	70
2026-02-21T05:55	14.2	1014	5.8	90	2	70
2026-02-21T05:56	14.2	1014	5.8	80	2	70
2026-02-21T05:57	14.4	1014	6.0	80	2	70
2026-02-21T05:58	14.0	1014	5.6	80	2	70
2026-02-21T05:59	14.1	1014	6.0	80	2	70
2026-02-21T06:00	13.9	1014	5.5	90	2	70
2026-02-21T06:01	14.0	1014	5.9	90	2	70
2026-02-21T06:02	14.0	1014	5.9	100	2	70
2026-02-21T06:03	13.9	1014	5.8	100	2	70
2026-02-21T06:04	14.1	1014	6.0	100	2	70
2026-02-21T06:05	14.4	1014	6.5	110	2	70
2026-02-21T06:06	14.8	1014	6.6	110	2	70
2026-02-21T06:07	14.6	1014	6.2	110	2	70
2026-02-21T06:08	14.7	1014	6.5	110	2	70
2026-02-21T06:09	14.5	1014	6.1	110	2	70
2026-02-21T06:10	14.4	1014	6.0	110	2	70
2026-02-21T06:11	14.5	1014	6.1	100	2	70
2026-02-21T06:12	14.4	1014	6.0	100	2	70
2026-02-21T06:13	14.1	1014	6.0	90	2	70
2026-02-21T06:14	14.1	1014	6.0	90	2	70
2026-02-21T06:15	14.2	1014	6.3	90	2	70
2026-02-21T06:16	14.4	1014	6.3	90	2	70
2026-02-21T06:17	14.5	1014	6.4	90	2	70
2026-02-21T06:18	14.4	1014	6.0	100	2	70
2026-02-21T06:19	14.2	1014	5.8	100	2	70
2026-02-21T06:20	13.9	1014	5.8	100	2	70
2026-02-21T06:21	13.8	1014	5.9	100	2	70
2026-02-21T06:22	13.8	1014	5.9	90	2	70
2026-02-21T06:23	13.9	1014	6.0	90	2	70
2026-02-21T06:24	14.1	1014	6.2	90	2	70
2026-02-21T06:25	13.8	1014	5.9	90	2	70
2026-02-21T06:26	13.9	1014	6.3	90	2	70
2026-02-21T06:27	14.0	1014	6.1	90	2	70
2026-02-21T06:28	13.8	1014	5.9	90	2	70
2026-02-21T06:29	13.7	1014	6.1	100	2	70
2026-02-21T06:30	13.7	1014	6.1	100	2	70
2026-02-21T06:31	14.1	1014	6.5	100	2	70
2026-02-21T06:32	14.1	1014	6.2	110	2	70
2026-02-21T06:33	14.2	1014	6.6	110	2	70
2026-02-21T06:34	14.0	1014	6.1	110	2	70
2026-02-21T06:35	13.6	1014	5.8	110	2	70
2026-02-21T06:36	13.6	1014	6.0	110	2	70
2026-02-21T06:37	13.6	1014	6.2	110	2	70
2026-02-21T06:38	13.5	1014	6.1	100	2	70
2026-02-21T06:39	13.3	1014	6.0	100	2	70
2026-02-21T06:40	13.3	1014	6.2	100	3	70
2026-02-21T06:41	13.4	1014	6.3	90	3	70
2026-02-21T06:42	13.4	1014	6.3	90	3	70
2026-02-21T06:43	13.4	1014	6.3	90	3	70
2026-02-21T06:44	13.5	1014	6.4	90	3	70
2026-02-21T06:45	13.5	1014	6.4	90	3	70
2026-02-21T06:46	13.7	1014	6.6	90	2	70
2026-02-21T06:47	13.7	1014	6.6	100	2	70
2026-02-21T06:48	13.3	1014	6.2	100	2	70
2026-02-21T06:49	13.5	1014	6.6	100	2	70
2026-02-21T06:50	13.4	1014	6.5	100	2	70
2026-02-21T06:51	13.4	1014	6.5	100	2	70
2026-02-21T06:52	13.4	1014	6.5	100	2	70
2026-02-21T06:53	13.2	1014	6.3	100	2	70
2026-02-21T06:54	13.1	1014	6.2	100	2	70
2026-02-21T06:55	13.1	1014	6.5	90	2	70
2026-02-21T06:56	13.1	1014	6.5	90	2	70
2026-02-21T06:57	13.0	1014	6.4	90	2	70
2026-02-21T06:58	12.9	1015	6.3	80	2	70
2026-02-21T06:59	13.0	1014	6.4	80	2	70
2026-02-21T07:00	13.2	1015	6.6	90	2	70
2026-02-21T07:01	13.2	1015	6.6	90	2	70
2026-02-21T07:02	13.1	1015	6.2	100	2	70
2026-02-21T07:03	13.0	1015	6.1	100	2	70
2026-02-21T07:04	13.0	1015	6.4	110	2	70
2026-02-21T07:05	13.1	1015	6.5	110	2	70
2026-02-21T07:06	13.1	1015	6.5	110	2	70
2026-02-21T07:07	13.1	1015	6.5	120	2	70
2026-02-21T07:08	13.1	1015	6.5	120	2	70
2026-02-21T07:09	13.1	1015	6.5	120	2	70
2026-02-21T07:10	12.9	1015	6.3	120	2	70
2026-02-21T07:11	12.9	1015	6.3	110	2	70
2026-02-21T07:12	12.8	1015	6.2	110	2	70
2026-02-21T07:13	12.8	1015	6.2	110	1	70
2026-02-21T07:14	12.8	1015	6.4	110	2	70
2026-02-21T07:15	12.9	1015	6.5	110	2	70
2026-02-21T07:16	13.0	1015	6.6	110	1	70
2026-02-21T07:17	13.0	1015	6.4	110	1	70
2026-02-21T07:18	12.9	1015	6.3	110	1	70
2026-02-21T07:19	12.9	1015	6.3	100	1	70
2026-02-21T07:20	12.8	1015	6.4	100	1	70
2026-02-21T07:21	12.9	1015	6.5	100	1	70
2026-02-21T07:22	12.9	1015	6.5	90	1	70
2026-02-21T07:23	13.0	1015	6.6	90	2	70
2026-02-21T07:24	13.0	1015	6.6	90	2	70
2026-02-21T07:25	13.1	1015	6.7	90	2	70
2026-02-21T07:26	13.1	1015	6.5	90	2	70
2026-02-21T07:27	13.1	1015	6.5	90	2	70
2026-02-21T07:28	13.2	1015	6.6	90	2	70
2026-02-21T07:29	13.0	1015	6.4	90	2	70
2026-02-21T07:30	13.0	1015	6.4	90	2	70
2026-02-21T07:31	13.1	1015	6.5	100	2	70
2026-02-21T07:32	13.1	1015	6.5	100	1	70
2026-02-21T07:33	13.2	1015	6.6	100	1	70
2026-02-21T07:34	13.1	1015	6.5	100	1	70
2026-02-21T07:35	13.1	1015	6.5	100	2	70
2026-02-21T07:36	13.1	1015	6.5	100	2	70
2026-02-21T07:37	13.1	1015	6.5	100	2	70
2026-02-21T07:38	13.0	1015	6.4	110	2	70
2026-02-21T07:39	12.9	1015	6.3	120	2	70
2026-02-21T07:40	12.9	1015	6.3	120	1	70
2026-02-21T07:41	12.9	1015	6.3	120	1	70
2026-02-21T07:42	13.0	1015	6.6	120	2	70
2026-02-21T07:43	12.9	1015	6.5	120	2	70
2026-02-21T07:44	12.9	1015	6.5	120	1	70
2026-02-21T07:45	12.9	1015	6.5	110	1	70
2026-02-21T07:46	12.8	1015	6.4	120	1	70
2026-02-21T07:47	12.7	1015	6.3	120	1	70
2026-02-21T07:48	12.7	1015	6.5	120	1	70
2026-02-21T07:49	12.7	1015	6.5	120	1	70
2026-02-21T07:50	12.7	1015	6.5	120	1	70
2026-02-21T07:51	12.6	1015	6.4	120	1	70
2026-02-21T07:52	12.5	1015	6.6	110	1	70
2026-02-21T07:53	12.5	1015	6.6	110	1	70
2026-02-21T07:54	12.5	1015	6.6	110	1	70
2026-02-21T07:55	12.5	1015	6.6	110	1	70
2026-02-21T07:56	12.5	1015	6.6	110	1	70
2026-02-21T07:57	12.5	1015	6.6	100	1	70
2026-02-21T07:58	12.5	1015	6.8	100	1	70
2026-02-21T07:59	12.5	1015	6.8	90	1	70
2026-02-21T08:00	12.4	1015	6.7	90	2	70
2026-02-21T08:01	12.4	1015	6.7	90	2	70
2026-02-21T08:02	12.3	1015	6.8	90	2	70
2026-02-21T08:03	12.3	1015	6.8	100	2	70
2026-02-21T08:04	12.3	1015	6.8	90	1	70
2026-02-21T08:05	12.3	1015	6.8	90	1	70
2026-02-21T08:06	12.2	1015	6.9	100	1	70
2026-02-21T08:07	12.3	1015	7.0	100	1	70
2026-02-21T08:08	12.3	1015	7.0	100	1	70
2026-02-21T08:09	12.3	1015	7.0	100	1	70
2026-02-21T08:10	12.2	1015	6.9	100	1	70
2026-02-21T08:11	12.2	1015	7.1	100	1	70
2026-02-21T08:12	12.2	1015	7.1	100	1	70
2026-02-21T08:13	12.1	1015	7.0	100	1	70
2026-02-21T08:14	12.2	1015	7.3	100	1	70
2026-02-21T08:15	12.2	1015	7.3	100	1	70
2026-02-21T08:16	12.1	1015	7.2	100	1	70
2026-02-21T08:17	12.0	1015	7.1	100	1	70
2026-02-21T08:18	12.0	1015	7.1	100	1	70
2026-02-21T08:19	12.1	1015	7.2	100	1	70
2026-02-21T08:20	12.1	1015	7.2	100	1	70
2026-02-21T08:21	12.0	1015	7.1	100	1	70
2026-02-21T08:22	12.0	1015	7.1	100	2	70
2026-02-21T08:23	12.0	1015	7.3	100	1	70
2026-02-21T08:24	12.0	1015	7.3	100	1	70
2026-02-21T08:25	11.9	1015	7.2	100	1	70
2026-02-21T08:26	12.0	1015	7.3	100	1	70
2026-02-21T08:27	11.9	1015	7.2	100	1	70
2026-02-21T08:28	11.9	1015	7.2	100	1	70
2026-02-21T08:29	11.9	1015	7.2	100	1	70
2026-02-21T08:30	11.8	1015	7.1	100	1	70
2026-02-21T08:31	11.8	1015	7.1	100	1	70
2026-02-21T08:32	11.8	1015	7.1	100	1	70
2026-02-21T08:33	11.6	1015	6.9	100	1	70
2026-02-21T08:34	11.3	1015	6.7	100	1	70
2026-02-21T08:35	11.6	1016	7.3	100	1	70
2026-02-21T08:36	11.6	1016	7.3	100	1	70
2026-02-21T08:37	11.6	1016	7.3	100	1	70
2026-02-21T08:38	11.5	1016	7.2	100	1	70
2026-02-21T08:39	11.6	1016	7.3	90	1	70
2026-02-21T08:40	11.6	1016	7.3	90	1	70
2026-02-21T08:41	11.6	1016	7.3	90	1	70
2026-02-21T08:42	11.2	1016	6.8	90	1	70
2026-02-21T08:43	11.1	1016	6.9	90	1	70
2026-02-21T08:44	11.1	1016	7.0	90	1	70
2026-02-21T08:45	11.0	1016	6.9	90	1	70
2026-02-21T08:46	11.2	1016	7.3	90	1	70
2026-02-21T08:47	11.3	1016	7.2	90	1	70
2026-02-21T08:48	11.4	1016	7.3	90	1	70
2026-02-21T08:49	11.4	1016	7.3	90	1	70
2026-02-21T08:50	11.5	1016	7.4	90	1	70
2026-02-21T08:51	11.3	1016	7.0	90	1	70
2026-02-21T08:52	11.4	1016	7.3	100	1	70
2026-02-21T08:53	11.4	1016	7.3	100	1	70
2026-02-21T08:54	11.2	1016	7.1	100	1	70
2026-02-21T08:55	10.8	1016	6.8	100	1	70
2026-02-21T08:56	11.1	1016	7.2	90	1	70
2026-02-21T08:57	11.2	1016	7.3	90	1	70
2026-02-21T08:58	11.1	1016	7.2	90	1	70
2026-02-21T08:59	10.8	1016	6.9	90	1	70
2026-02-21T09:00	10.9	1016	7.2	90	1	70
2026-02-21T09:01	11.2	1016	7.5	90	1	70
2026-02-21T09:02	10.9	1016	7.0	90	1	70
2026-02-21T09:03	10.3	1016	6.5	90	1	70
2026-02-21T09:04	10.6	1016	7.1	100	1	70
2026-02-21T09:05	11.0	1016	7.5	100	1	70
2026-02-21T09:06	10.3	1016	6.5	100	1	70
2026-02-21T09:07	10.6	1016	7.1	100	1	70
2026-02-21T09:08	10.0	1016	6.4	100	1	70
2026-02-21T09:09	9.8	1016	6.3	100	1	70
2026-02-21T09:10	9.6	1016	6.3	100	1	70
2026-02-21T09:11	9.8	1016	6.9	100	1	70
2026-02-21T09:12	10.0	1016	7.1	100	1	70
2026-02-21T09:13	10.1	1016	7.2	110	1	70
2026-02-21T09:14	9.9	1016	6.8	100	1	70
2026-02-21T09:15	9.6	1016	6.5	100	1	70
2026-02-21T09:16	9.8	1016	7.1	100	1	70
2026-02-21T09:17	9.7	1016	7.1	100	1	70
2026-02-21T09:18	9.9	1016	7.3	100	0	70
2026-02-21T09:19	9.9	1016	7.3	100	1	70
2026-02-21T09:20	9.9	1016	7.2	100	1	70
2026-02-21T09:21	9.5	1016	6.6	100	1	70
2026-02-21T09:22	9.5	1016	6.8	100	1	70
2026-02-21T09:23	10.1	1016	7.5	100	1	70
2026-02-21T09:24	10.0	1016	7.3	100	1	70
2026-02-21T09:25	9.6	1016	6.7	100	1	70
2026-02-21T09:26	9.7	1016	7.0	90	1	70
2026-02-21T09:27	9.5	1016	6.8	100	1	70
2026-02-21T09:28	9.5	1016	6.9	100	1	70
2026-02-21T09:29	9.5	1016	7.1	90	1	70
2026-02-21T09:30	9.1	1016	6.6	90	1	70
2026-02-21T09:31	9.2	1016	6.8	80	1	70
2026-02-21T09:32	9.2	1016	6.8	90	1	70
2026-02-21T09:33	9.9	1016	7.7	80	1	70
2026-02-21T09:34	9.9	1016	7.3	80	1	70
2026-02-21T09:35	9.4	1016	6.7	80	1	70
2026-02-21T09:36	9.0	1016	6.5	90	1	70
2026-02-21T09:37	9.2	1016	7.0	80	1	70
2026-02-21T09:38	8.9	1016	6.5	80	1	70
2026-02-21T09:39	9.1	1016	6.9	80	0	70
2026-02-21T09:40	9.0	1016	6.8	90	0	70
2026-02-21T09:41	9.2	1016	7.0	90	0	70
2026-02-21T09:42	9.1	1016	6.9	80	0	70
2026-02-21T09:43	8.7	1016	6.3	80	1	70
2026-02-21T09:44	9.0	1016	7.1	80	1	70
2026-02-21T09:45	9.2	1016	7.3	80	1	70
2026-02-21T09:46	8.9	1016	6.9	70	1	70
2026-02-21T09:47	9.0	1016	7.0	60	1	70
2026-02-21T09:48	9.5	1016	7.6	50	0	70
2026-02-21T09:49	9.4	1016	7.2	50	0	70
2026-02-21T09:50	9.1	1016	6.7	40	0	70
2026-02-21T09:51	8.7	1016	6.5	40	0	70
2026-02-21T09:52	8.7	1016	6.7	40	0	70
2026-02-21T09:53	9.1	1016	7.2	30	0	70
2026-02-21T09:54	8.8	1016	6.8	0	0	70
2026-02-21T09:55	9.0	1016	7.0	0	0	70
2026-02-21T09:56	8.9	1016	6.9	0	0	70
2026-02-21T09:57	9.0	1016	7.1	0	0	70
2026-02-21T09:58	8.5	1016	6.5	0	0	70
2026-02-21T09:59	8.6	1016	6.7	0	0	70
2026-02-21T10:00	8.6	1016	6.9	0	0	70
2026-02-21T10:01	8.8	1016	7.1	40	0	70
2026-02-21T10:02	8.6	1016	6.9	40	0	70
2026-02-21T10:03	8.6	1016	6.9	40	0	70
2026-02-21T10:04	8.7	1016	7.0	40	0	70
2026-02-21T10:05	8.6	1016	6.9	50	1	70
2026-02-21T10:06	8.8	1016	7.3	50	1	70
2026-02-21T10:07	8.8	1016	7.3	50	1	70
2026-02-21T10:08	8.4	1016	6.7	50	1	70
2026-02-21T10:09	8.3	1016	6.8	60	1	70
2026-02-21T10:10	8.8	1016	7.4	60	1	70
2026-02-21T10:11	8.6	1016	7.1	70	1	70
2026-02-21T10:12	8.6	1016	6.9	70	1	70
2026-02-21T10:13	8.8	1016	7.3	70	1	70
2026-02-21T10:14	8.1	1016	6.4	80	1	70
2026-02-21T10:15	8.2	1016	6.5	80	1	70
2026-02-21T10:16	8.6	1016	7.2	80	1	70
2026-02-21T10:17	8.6	1016	7.1	80	1	70
2026-02-21T10:18	8.7	1016	7.2	90	1	70
2026-02-21T10:19	8.5	1016	6.8	100	1	70
2026-02-21T10:20	8.6	1016	7.1	100	1	70
2026-02-21T10:21	8.4	1016	6.7	110	1	70
2026-02-21T10:22	8.6	1016	7.1	110	1	70
2026-02-21T10:23	8.7	1016	7.2	110	1	70
2026-02-21T10:24	8.6	1016	6.9	110	1	70
2026-02-21T10:25	8.5	1016	6.8	120	0	70
2026-02-21T10:26	8.4	1016	6.7	120	0	70
2026-02-21T10:27	8.1	1016	6.4	120	0	70
2026-02-21T10:28	8.3	1016	6.8	120	0	70
2026-02-21T10:29	8.4	1016	7.0	120	0	70
2026-02-21T10:30	8.2	1016	6.7	120	0	70
2026-02-21T10:31	8.0	1016	6.5	120	0	70
2026-02-21T10:32	8.1	1016	6.7	120	0	70
2026-02-21T10:33	8.2	1016	6.8	120	0	70
2026-02-21T10:34	8.1	1016	6.7	110	0	70
2026-02-21T10:35	8.1	1016	6.9	110	0	70
2026-02-21T10:36	8.1	1016	6.9	110	0	70
2026-02-21T10:37	7.9	1016	6.7	110	0	70
2026-02-21T10:38	8.0	1016	6.8	110	0	70
2026-02-21T10:39	8.1	1016	6.9	100	0	70
2026-02-21T10:40	8.1	1016	7.0	100	0	70
2026-02-21T10:41	8.0	1016	6.8	90	0	70
2026-02-21T10:42	7.9	1016	6.7	90	0	70
2026-02-21T10:43	8.1	1016	7.0	90	0	70
2026-02-21T10:44	7.9	1016	6.7	90	0	70
2026-02-21T10:45	7.9	1016	6.7	90	0	70
2026-02-21T10:46	8.0	1016	6.9	90	0	70
2026-02-21T10:47	8.1	1016	7.0	90	1	70
2026-02-21T10:48	7.9	1016	6.9	100	1	70
2026-02-21T10:49	8.0	1016	6.9	100	1	70
2026-02-21T10:50	7.8	1016	6.8	100	1	70
2026-02-21T10:51	7.7	1016	6.7	100	1	70
2026-02-21T10:52	7.8	1016	6.8	100	1	70
2026-02-21T10:53	7.7	1016	6.7	100	1	70
2026-02-21T10:54	7.9	1016	6.9	100	1	70
2026-02-21T10:55	7.9	1016	6.9	100	1	70
2026-02-21T10:56	7.4	1016	6.4	100	1	70
2026-02-21T10:57	7.4	1016	6.4	100	1	70
2026-02-21T10:58	7.7	1016	6.8	110	1	70
2026-02-21T10:59	7.8	1016	7.1	100	1	70
2026-02-21T11:00	7.7	1016	6.8	100	0	70
2026-02-21T11:01	7.7	1016	6.8	100	0	70
2026-02-21T11:02	7.6	1017	6.7	100	0	70
2026-02-21T11:03	7.7	1017	6.8	0	0	70
2026-02-21T11:04	7.8	1017	7.1	0	0	70
2026-02-21T11:05	7.7	1017	6.8	0	0	70
2026-02-21T11:06	7.4	1017	6.5	0	0	70
2026-02-21T11:07	7.2	1017	6.3	0	0	70
2026-02-21T11:08	7.2	1017	6.3	0	0	70
2026-02-21T11:09	7.4	1017	6.7	0	0	70
2026-02-21T11:10	7.0	1017	6.3	0	0	70
2026-02-21T11:11	7.0	1017	6.1	0	0	69
2026-02-21T11:12	7.1	1017	6.4	0	0	69
2026-02-21T11:13	7.4	1017	6.8	0	0	69
2026-02-21T11:14	7.1	1017	6.5	0	0	69
2026-02-21T11:15	7.0	1017	6.3	0	0	68
2026-02-21T11:16	6.9	1017	6.2	0	0	68
2026-02-21T11:17	7.1	1017	6.4	0	0	68
2026-02-21T11:18	7.1	1017	6.5	0	0	67
2026-02-21T11:19	7.0	1017	6.4	0	0	67
2026-02-21T11:20	6.8	1017	6.2	140	0	67
2026-02-21T11:21	7.2	1017	6.6	130	0	67
2026-02-21T11:22	7.0	1017	6.4	130	0	66
2026-02-21T11:23	7.1	1016	6.7	130	1	66
2026-02-21T11:24	7.2	1016	6.8	120	1	66
2026-02-21T11:25	7.2	1016	6.8	120	1	66
2026-02-21T11:26	7.1	1016	6.7	120	1	65
2026-02-21T11:27	7.3	1016	6.9	120	1	65
2026-02-21T11:28	7.3	1016	6.9	120	1	65
2026-02-21T11:29	7.0	1016	6.4	120	1	65
2026-02-21T11:30	7.1	1016	6.5	110	1	65
2026-02-21T11:31	7.1	1016	6.5	110	1	65
2026-02-21T11:32	7.1	1016	6.5	110	1	65
2026-02-21T11:33	6.8	1016	6.2	110	1	65
2026-02-21T11:34	7.1	1016	6.5	110	1	65
2026-02-21T11:35	7.1	1016	6.7	110	1	65
2026-02-21T11:36	7.0	1016	6.6	100	1	66
2026-02-21T11:37	7.0	1016	6.4	100	1	66
2026-02-21T11:38	7.0	1016	6.4	100	1	66
2026-02-21T11:39	6.9	1016	6.3	100	0	66
2026-02-21T11:40	6.9	1016	6.3	100	0	65
2026-02-21T11:41	6.9	1016	6.5	100	0	65
2026-02-21T11:42	7.1	1016	6.7	100	0	66
2026-02-21T11:43	7.1	1016	6.7	100	0	66
2026-02-21T11:44	7.0	1016	6.6	100	0	66
2026-02-21T11:45	6.9	1016	6.3	100	0	66
2026-02-21T11:46	6.8	1016	6.2	100	0	66
2026-02-21T11:47	6.6	1016	6.0	110	0	65
2026-02-21T11:48	6.9	1016	6.3	100	0	66
2026-02-21T11:49	6.9	1016	6.5	100	0	66
2026-02-21T11:50	7.1	1016	6.7	100	0	67
2026-02-21T11:51	7.0	1016	6.6	100	1	66
2026-02-21T11:52	7.0	1016	6.6	100	1	66
2026-02-21T11:53	7.1	1016	6.5	100	1	66
2026-02-21T11:54	7.2	1016	6.8	100	1	66
2026-02-21T11:55	7.0	1016	6.4	100	1	66
2026-02-21T11:56	7.1	1016	6.5	100	1	66
2026-02-21T11:57	7.0	1016	6.4	100	1	67
2026-02-21T11:58	6.9	1016	6.3	100	1	67
2026-02-21T11:59	6.8	1016	6.2	100	1	67
2026-02-21T12:00	6.5	1016	5.9	90	1	67
2026-02-21T12:01	6.8	1016	6.2	90	1	68
2026-02-21T12:02	6.7	1016	6.3	90	1	68
2026-02-21T12:03	6.9	1016	6.5	90	1	67
2026-02-21T12:04	6.6	1016	6.2	80	0	67
2026-02-21T12:05	6.6	1016	6.2	80	0	67
2026-02-21T12:06	6.8	1016	6.4	70	0	67
2026-02-21T12:07	6.7	1016	6.3	80	0	66
2026-02-21T12:08	6.7	1016	6.3	80	0	66
2026-02-21T12:09	6.6	1016	6.2	80	0	65
2026-02-21T12:10	6.6	1016	6.2	80	0	65
2026-02-21T12:11	6.7	1016	6.3	70	0	65
2026-02-21T12:12	6.6	1016	6.2	60	0	65
2026-02-21T12:13	6.2	1016	5.8	50	0	64
2026-02-21T12:14	6.1	1016	5.5	0	0	64
2026-02-21T12:15	6.3	1016	5.9	0	0	64
2026-02-21T12:16	6.2	1016	5.8	40	0	63
2026-02-21T12:17	6.4	1016	6.0	40	0	63
2026-02-21T12:18	6.4	1016	6.0	30	0	63
2026-02-21T12:19	6.4	1016	6.1	30	0	63
2026-02-21T12:20	6.3	1016	6.0	30	0	63
2026-02-21T12:21	6.5	1016	6.2	30	0	63
2026-02-21T12:22	6.1	1016	5.8	0	0	62
2026-02-21T12:23	6.1	1016	5.7	0	0	62
2026-02-21T12:24	6.3	1016	5.9	0	0	62
2026-02-21T12:25	6.4	1016	6.1	40	0	62
2026-02-21T12:26	6.3	1016	6.0	0	0	62
2026-02-21T12:27	6.4	1016	6.1	0	0	62
2026-02-21T12:28	6.4	1016	6.1	0	0	62
2026-02-21T12:29	6.4	1016	6.1	0	0	62
2026-02-21T12:30	6.4	1016	6.1	40	0	62
2026-02-21T12:31	6.4	1016	6.1	50	0	62
2026-02-21T12:32	6.4	1016	6.1	60	0	62
2026-02-21T12:33	6.5	1016	6.2	70	0	63
2026-02-21T12:34	6.5	1016	6.2	70	0	63
2026-02-21T12:35	6.5	1016	6.2	80	0	63
2026-02-21T12:36	6.6	1016	6.3	80	0	63
2026-02-21T12:37	6.3	1016	5.9	80	0	63
2026-02-21T12:38	6.3	1016	5.9	80	0	63
2026-02-21T12:39	6.5	1016	6.1	80	0	63
2026-02-21T12:40	6.3	1016	5.9	0	0	62
2026-02-21T12:41	6.2	1016	5.8	0	0	62
2026-02-21T12:42	6.3	1016	5.9	0	0	62
2026-02-21T12:43	6.3	1016	6.0	0	0	62
2026-02-21T12:44	6.3	1016	6.0	0	0	62
2026-02-21T12:45	6.5	1016	6.2	0	0	62
2026-02-21T12:46	6.4	1016	6.1	0	0	61
2026-02-21T12:47	6.3	1016	5.9	0	0	62
2026-02-21T12:48	6.2	1016	5.8	0	0	62
2026-02-21T12:49	6.1	1016	5.7	0	0	62
2026-02-21T12:50	6.1	1016	5.7	50	0	62
2026-02-21T12:51	6.1	1016	5.7	40	0	63
2026-02-21T12:52	5.9	1016	5.5	20	0	63
2026-02-21T12:53	6.0	1016	5.6	20	0	63
2026-02-21T12:54	6.0	1016	5.6	10	0	63
2026-02-21T12:55	6.0	1016	5.7	10	0	63
2026-02-21T12:56	6.0	1016	5.7	360	0	63
2026-02-21T12:57	6.0	1016	5.7	360	0	62
2026-02-21T12:58	5.8	1016	5.5	350	0	62
2026-02-21T12:59	6.0	1016	5.7	350	0	62
2026-02-21T13:00	5.9	1016	5.6	360	0	62
2026-02-21T13:01	5.6	1016	5.2	360	0	61
2026-02-21T13:02	5.5	1016	5.1	360	0	61
2026-02-21T13:03	5.6	1016	5.2	0	0	62
2026-02-21T13:04	5.8	1016	5.4	0	0	62
2026-02-21T13:05	5.8	1016	5.4	0	0	62
2026-02-21T13:06	5.9	1016	5.6	0	0	61
2026-02-21T13:07	5.8	1016	5.5	0	0	62
2026-02-21T13:08	5.8	1016	5.5	0	0	61
2026-02-21T13:09	5.9	1016	5.6	0	0	62
2026-02-21T13:10	6.0	1016	5.7	0	0	62
2026-02-21T13:11	5.6	1016	5.3	0	0	62
2026-02-21T13:12	5.7	1016	5.4	0	0	61
2026-02-21T13:13	5.7	1016	5.4	0	0	60
2026-02-21T13:14	5.8	1016	5.5	0	0	60
2026-02-21T13:15	5.9	1016	5.6	0	0	60
2026-02-21T13:16	5.9	1016	5.8	0	0	60
2026-02-21T13:17	5.6	1016	5.3	0	0	60
2026-02-21T13:18	5.5	1016	5.2	0	0	60
2026-02-21T13:19	5.5	1016	5.2	0	0	60
2026-02-21T13:20	5.5	1016	5.2	0	0	60
2026-02-21T13:21	5.5	1016	5.2	130	0	60
2026-02-21T13:22	5.7	1016	5.6	130	0	60
2026-02-21T13:23	5.7	1016	5.6	120	0	61
2026-02-21T13:24	5.8	1016	5.7	120	1	61
2026-02-21T13:25	5.5	1016	5.4	130	1	61
2026-02-21T13:26	5.6	1016	5.3	130	1	61
2026-02-21T13:27	5.6	1016	5.5	140	1	62
2026-02-21T13:28	5.3	1016	5.0	140	1	62
2026-02-21T13:29	5.0	1016	4.6	150	1	63
2026-02-21T13:30	5.1	1016	4.7	150	1	63
2026-02-21T13:31	5.3	1016	4.9	150	1	63
2026-02-21T13:32	5.6	1016	5.3	150	1	63
2026-02-21T13:33	5.8	1016	5.5	140	1	63
2026-02-21T13:34	5.6	1016	5.5	130	0	62
2026-02-21T13:35	5.6	1016	5.5	130	0	62
2026-02-21T13:36	5.7	1016	5.6	120	0	61
2026-02-21T13:37	5.8	1016	5.7	100	0	61
2026-02-21T13:38	5.7	1016	5.6	90	0	61
2026-02-21T13:39	5.8	1016	5.7	80	0	60
2026-02-21T13:40	5.7	1016	5.6	80	0	59
2026-02-21T13:41	5.7	1016	5.6	80	0	59
2026-02-21T13:42	5.6	1016	5.5	80	0	58
2026-02-21T13:43	5.6	1016	5.5	80	0	59
2026-02-21T13:44	5.3	1016	5.2	80	0	58
2026-02-21T13:45	5.4	1016	5.3	90	0	58
2026-02-21T13:46	5.5	1016	5.4	100	0	58
2026-02-21T13:47	5.5	1016	5.5	100	0	58
2026-02-21T13:48	5.4	1016	5.4	110	0	58
2026-02-21T13:49	5.6	1016	5.6	120	0	58
2026-02-21T13:50	5.5	1016	5.5	120	0	58
2026-02-21T13:51	5.6	1016	5.6	120	0	58
2026-02-21T13:52	5.2	1016	5.2	130	0	57
2026-02-21T13:53	5.1	1016	5.0	140	0	56
2026-02-21T13:54	4.9	1016	4.8	150	0	56
2026-02-21T13:55	4.9	1016	4.8	160	0	56
2026-02-21T13:56	4.9	1016	4.8	0	0	57
2026-02-21T13:57	4.8	1016	4.7	0	0	57
2026-02-21T13:58	4.7	1016	4.6	0	0	57
2026-02-21T13:59	5.0	1016	4.9	0	0	57
2026-02-21T14:00	5.2	1016	5.1	220	0	57
2026-02-21T14:01	5.1	1016	5.0	230	0	57
2026-02-21T14:02	4.9	1016	4.8	240	0	59
2026-02-21T14:03	4.8	1016	4.7	250	0	62
2026-02-21T14:04	4.8	1016	4.5	250	0	62
2026-02-21T14:05	4.9	1016	4.6	260	0	62
2026-02-21T14:06	5.0	1016	4.7	260	0	62
2026-02-21T14:07	5.2	1016	4.9	260	1	61
2026-02-21T14:08	5.0	1016	4.9	260	1	61
2026-02-21T14:09	4.6	1016	4.3	260	1	61
2026-02-21T14:10	4.5	1016	4.2	250	1	61
2026-02-21T14:11	4.3	1016	4.0	250	1	62
2026-02-21T14:12	4.2	1016	3.8	250	1	63
2026-02-21T14:13	4.2	1016	3.8	250	1	63
2026-02-21T14:14	4.3	1016	3.9	250	1	62
2026-02-21T14:15	4.4	1016	4.0	250	1	62
2026-02-21T14:16	4.7	1016	4.4	260	1	60
2026-02-21T14:17	4.7	1016	4.6	260	1	59
2026-02-21T14:18	4.5	1016	4.4	270	1	58
2026-02-21T14:19	4.6	1016	4.5	270	1	58
2026-02-21T14:20	4.5	1016	4.4	280	1	57
2026-02-21T14:21	4.2	1016	4.1	280	1	56
2026-02-21T14:22	4.5	1016	4.4	290	1	56
2026-02-21T14:23	5.1	1016	5.0	290	1	56
2026-02-21T14:24	4.9	1016	4.9	300	1	55
2026-02-21T14:25	4.8	1016	4.7	300	1	55
2026-02-21T14:26	4.6	1016	4.5	300	1	55
2026-02-21T14:27	4.3	1016	4.2	300	1	56
2026-02-21T14:28	4.6	1016	4.5	290	1	56
2026-02-21T14:29	4.7	1016	4.6	290	1	56
2026-02-21T14:30	4.5	1016	4.4	290	1	57
2026-02-21T14:31	4.4	1016	4.3	290	1	57
2026-02-21T14:32	5.0	1016	4.9	290	1	57
2026-02-21T14:33	5.0	1016	5.0	290	1	58
2026-02-21T14:34	5.0	1016	5.0	290	1	58
2026-02-21T14:35	5.0	1016	5.0	290	1	58
2026-02-21T14:36	4.7	1016	4.6	290	1	58
2026-02-21T14:37	4.7	1016	4.6	290	1	58
2026-02-21T14:38	4.7	1016	4.6	290	1	58
2026-02-21T14:39	4.7	1016	4.6	290	1	58
2026-02-21T14:40	4.9	1016	4.8	290	1	58
2026-02-21T14:41	4.6	1016	4.5	290	1	58
2026-02-21T14:42	4.4	1016	4.3	280	1	58
2026-02-21T14:43	4.5	1016	4.4	280	1	58
2026-02-21T14:44	4.8	1016	4.7	280	1	58
2026-02-21T14:45	4.5	1016	4.4	270	2	58
2026-02-21T14:46	4.7	1016	4.6	270	2	59
2026-02-21T14:47	4.8	1016	4.7	270	2	58
2026-02-21T14:48	4.4	1016	4.3	270	2	58
2026-02-21T14:49	4.0	1016	3.9	270	2	57
2026-02-21T14:50	4.3	1016	4.2	270	2	57
2026-02-21T14:51	4.5	1016	4.4	270	2	56
2026-02-21T14:52	4.9	1016	4.9	270	2	56
2026-02-21T14:53	4.5	1016	4.5	280	2	56
2026-02-21T14:54	4.7	1016	4.7	280	1	56
2026-02-21T14:55	4.7	1016	4.7	280	1	56
2026-02-21T14:56	4.9	1016	4.9	280	1	56
2026-02-21T14:57	4.9	1016	4.9	280	1	56
2026-02-21T14:58	4.8	1016	4.8	280	2	57
2026-02-21T14:59	4.4	1016	4.3	280	2	57
2026-02-21T15:00	4.7	1016	4.6	280	2	57
2026-02-21T15:01	4.4	1016	4.3	280	2	58
2026-02-21T15:02	4.9	1016	4.8	280	2	58
2026-02-21T15:03	5.0	1016	5.0	280	1	57
2026-02-21T15:04	5.1	1016	5.1	280	1	58
2026-02-21T15:05	5.4	1016	5.4	280	1	57
2026-02-21T15:06	5.6	1016	5.6	280	1	58
2026-02-21T15:07	5.4	1016	5.4	280	1	57
2026-02-21T15:08	5.3	1016	5.3	280	1	58
2026-02-21T15:09	4.8	1016	4.7	280	1	58
2026-02-21T15:10	5.1	1016	5.0	280	1	58
2026-02-21T15:11	5.0	1016	4.9	270	1	58
2026-02-21T15:12	5.1	1016	5.0	270	1	57
2026-02-21T15:13	4.9	1016	4.8	270	1	57
2026-02-21T15:14	5.1	1016	5.0	270	1	57
2026-02-21T15:15	4.5	1016	4.4	260	1	57
2026-02-21T15:16	4.5	1016	4.2	260	1	57
2026-02-21T15:17	4.7	1016	4.6	260	1	57
2026-02-21T15:18	4.8	1016	4.7	260	1	57
2026-02-21T15:19	4.8	1016	4.7	260	1	56
2026-02-21T15:20	4.7	1016	4.6	260	1	56
2026-02-21T15:21	4.6	1016	4.5	260	1	56
2026-02-21T15:22	4.5	1016	4.4	260	1	57
2026-02-21T15:23	4.4	1016	4.3	260	1	57
2026-02-21T15:24	4.5	1016	4.4	260	2	56
2026-02-21T15:25	4.5	1016	4.4	260	2	56
2026-02-21T15:26	4.7	1016	4.6	260	1	56
2026-02-21T15:27	4.7	1016	4.6	260	1	55
2026-02-21T15:28	4.8	1016	4.8	260	1	55
2026-02-21T15:29	4.6	1016	4.6	260	1	55
2026-02-21T15:30	4.8	1016	4.8	260	1	55
2026-02-21T15:31	4.2	1016	4.1	260	1	48
2026-02-21T15:32	4.5	1016	4.4	250	1	48
2026-02-21T15:33	4.4	1016	4.4	250	1	48
2026-02-21T15:34	4.4	1016	4.4	250	1	45
2026-02-21T15:35	4.5	1016	4.5	260	1	45
2026-02-21T15:36	4.6	1016	4.6	260	1	45
2026-02-21T15:37	4.8	1016	4.8	260	1	45
2026-02-21T15:38	4.8	1016	4.8	270	1	44
2026-02-21T15:39	4.7	1016	4.7	270	1	44
2026-02-21T15:40	4.8	1016	4.8	270	1	45
2026-02-21T15:41	4.6	1016	4.6	280	1	46
2026-02-21T15:42	4.6	1016	4.6	290	1	46
2026-02-21T15:43	4.6	1016	4.6	290	1	46
2026-02-21T15:44	4.4	1016	4.4	300	1	48
2026-02-21T15:45	4.2	1016	4.2	310	0	47
2026-02-21T15:46	4.3	1016	4.3	310	0	47
2026-02-21T15:47	4.3	1016	4.3	320	0	47
2026-02-21T15:48	4.1	1016	4.1	0	0	45
2026-02-21T15:49	4.2	1016	4.2	0	0	42
2026-02-21T15:50	4.4	1016	4.4	0	0	41
2026-02-21T15:51	4.1	1016	4.1	0	0	37
2026-02-21T15:52	4.3	1016	4.3	0	0	36
2026-02-21T15:53	4.3	1016	4.3	0	0	35
2026-02-21T15:54	4.3	1016	4.3	0	0	35
2026-02-21T15:55	4.2	1016	4.2	0	0	33
2026-02-21T15:56	4.1	1016	4.1	310	0	32
2026-02-21T15:57	3.9	1016	3.9	310	0	32
2026-02-21T15:58	4.0	1016	4.0	310	0	32
2026-02-21T15:59	4.1	1016	4.1	300	0	33
2026-02-21T16:00	4.2	1016	4.2	300	1	32
2026-02-21T16:01	4.0	1016	4.0	300	1	31
2026-02-21T16:02	4.1	1016	4.1	300	1	23
2026-02-21T16:03	4.0	1016	4.0	300	1	19
2026-02-21T16:04	3.8	1016	3.8	300	1	14
2026-02-21T16:05	4.0	1016	4.0	300	0	13
2026-02-21T16:06	4.1	1016	4.1	310	0	11
2026-02-21T16:07	4.0	1016	4.0	0	0	11
2026-02-21T16:08	3.9	1016	3.9	0	0	11
2026-02-21T16:09	3.9	1016	3.9	0	0	11
2026-02-21T16:10	4.0	1016	4.0	0	0	11
2026-02-21T16:11	4.2	1016	4.2	0	0	12
2026-02-21T16:12	4.3	1016	4.3	0	0	13
2026-02-21T16:13	4.2	1016	4.2	0	0	14
2026-02-21T16:14	4.2	1016	4.2	0	0	13
2026-02-21T16:15	4.0	1016	4.0	0	0	11
2026-02-21T16:16	4.1	1016	4.1	250	0	10
2026-02-21T16:17	4.1	1016	4.1	240	0	9
2026-02-21T16:18	4.2	1016	4.2	240	0	9
2026-02-21T16:19	4.2	1016	4.2	230	1	9
2026-02-21T16:20	4.1	1016	4.1	230	1	9
2026-02-21T16:21	4.1	1016	4.1	230	1	9
2026-02-21T16:22	4.0	1016	4.0	240	1	8
2026-02-21T16:23	3.9	1016	3.9	240	1	7
2026-02-21T16:24	3.8	1016	3.8	240	1	6
2026-02-21T16:25	3.9	1016	3.9	240	1	6
2026-02-21T16:26	4.1	1016	4.1	240	1	7
2026-02-21T16:27	4.0	1016	4.0	240	1	7
2026-02-21T16:28	4.2	1016	4.2	240	1	6
2026-02-21T16:29	4.2	1016	4.2	240	1	5
2026-02-21T16:30	4.1	1016	4.1	240	1	
2026-02-21T16:31	3.9	1016	3.9	250	1	
2026-02-21T16:32	3.7	1016	3.7	250	1	
2026-02-21T16:33	3.9	1016	3.9	250	1	
2026-02-21T16:34	3.9	1016	3.9	250	1	
2026-02-21T16:35	3.7	1016	3.7	260	1	
2026-02-21T16:36	3.4	1016	3.4	260	1	
2026-02-21T16:37	3.3	1016	3.3	270	1	
2026-02-21T16:38	3.3	1016	3.3	270	1	
2026-02-21T16:39	3.3	1016	3.3	280	1	
2026-02-21T16:40	3.3	1016	3.3	280	1	
2026-02-21T16:41	3.4	1016	3.4	290	1	
2026-02-21T16:42	3.4	1016	3.4	290	1	
2026-02-21T16:43	3.5	1016	3.5	290	1	
2026-02-21T16:44	3.7	1016	3.7	290	1	
2026-02-21T16:45	3.4	1016	3.4	290	1	
2026-02-21T16:46	3.6	1016	3.6	290	1	
2026-02-21T16:47	3.6	1016	3.6	290	1	
2026-02-21T16:48	3.6	1016	3.6	280	1	
2026-02-21T16:49	3.3	1016	3.3	280	1	
2026-02-21T16:50	3.1	1016	3.1	270	1	
2026-02-21T16:51	3.4	1016	3.4	260	1	
2026-02-21T16:52	3.5	1016	3.5	260	1	
2026-02-21T16:53	3.2	1016	3.2	260	1	
2026-02-21T16:54	3.4	1016	3.4	250	1	
2026-02-21T16:55	3.6	1016	3.6	250	1	
2026-02-21T16:56	3.5	1016	3.5	250	1	
2026-02-21T16:57	3.6	1016	3.6	250	1	
2026-02-21T16:58	3.5	1016	3.5	250	1	
2026-02-21T16:59	3.6	1016	3.6	260	1	
2026-02-21T17:00	3.7	1016	3.7	260	0	
2026-02-21T17:01	3.9	1016	3.9	260	0	
2026-02-21T17:02	3.8	1016	3.8	260	0	
2026-02-21T17:03	3.7	1016	3.7	260	0	27
2026-02-21T17:04	3.4	1016	3.4	260	1	28
2026-02-21T17:05	3.2	1016	3.2	260	1	30
2026-02-21T17:06	3.4	1016	3.4	260	1	31
2026-02-21T17:07	3.4	1016	3.4	260	1	32
2026-02-21T17:08	3.2	1016	3.2	260	1	30
2026-02-21T17:09	3.4	1016	3.4	260	1	28
2026-02-21T17:10	3.5	1016	3.5	260	1	29
2026-02-21T17:11	3.4	1016	3.4	250	1	30
2026-02-21T17:12	3.3	1016	3.3	250	1	31
2026-02-21T17:13	3.4	1016	3.4	250	1	35
2026-02-21T17:14	3.6	1016	3.6	250	1	33
2026-02-21T17:15	3.6	1016	3.6	250	1	29
2026-02-21T17:16	3.5	1016	3.5	250	1	27
2026-02-21T17:17	3.5	1016	3.5	240	1	20
2026-02-21T17:18	3.7	1016	3.7	240	1	20
2026-02-21T17:19	3.8	1016	3.8	240	1	19
2026-02-21T17:20	3.8	1016	3.8	240	1	13
2026-02-21T17:21	3.7	1016	3.7	240	1	8
2026-02-21T17:22	3.8	1016	3.8	240	1	7
2026-02-21T17:23	3.8	1016	3.8	250	1	6
2026-02-21T17:24	3.7	1016	3.7	250	1	5
2026-02-21T17:25	3.6	1016	3.6	250	1	5
2026-02-21T17:26	3.7	1016	3.7	250	1	4
2026-02-21T17:27	3.4	1016	3.4	250	1	4
2026-02-21T17:28	3.5	1016	3.5	250	1	4
2026-02-21T17:29	3.6	1016	3.6	250	1	4
2026-02-21T17:30	3.7	1016	3.7	250	1	4
2026-02-21T17:31	3.7	1016	3.7	260	1	5
2026-02-21T17:32	3.8	1016	3.8	260	1	5
2026-02-21T17:33	3.7	1016	3.7	260	1	6
2026-02-21T17:34	3.6	1016	3.6	270	0	7
2026-02-21T17:35	3.6	1016	3.6	270	0	9
2026-02-21T17:36	3.6	1016	3.6	270	0	11
2026-02-21T17:37	3.6	1016	3.6	270	0	15
2026-02-21T17:38	3.7	1016	3.7	270	0	21
2026-02-21T17:39	3.4	1016	3.4	270	0	23
2026-02-21T17:40	3.3	1016	3.3	270	0	21
2026-02-21T17:41	3.3	1016	3.3	270	0	20
2026-02-21T17:42	3.4	1016	3.4	270	1	20
2026-02-21T17:43	3.3	1016	3.3	270	1	21
2026-02-21T17:44	3.3	1016	3.3	270	1	21
2026-02-21T17:45	3.3	1016	3.3	270	1	22
2026-02-21T17:46	3.0	1016	3.0	270	1	24
2026-02-21T17:47	3.0	1016	3.0	270	1	25
2026-02-21T17:48	3.0	1016	3.0	270	1	26
2026-02-21T17:49	3.1	1016	3.1	260	1	27
2026-02-21T17:50	2.9	1016	2.9	260	1	32
2026-02-21T17:51	2.8	1016	2.8	260	1	38
2026-02-21T17:52	2.9	1016	2.9	260	1	40
2026-02-21T17:53	3.0	1016	3.0	260	1	40
2026-02-21T17:54	3.1	1016	3.1	260	1	39
2026-02-21T17:55	3.2	1016	3.2	260	1	36
2026-02-21T17:56	2.8	1016	2.8	260	1	24
2026-02-21T17:57	2.6	1016	2.6	260	1	23
2026-02-21T17:58	2.8	1016	2.8	260	1	22
2026-02-21T17:59	2.8	1016	2.8	260	1	22
2026-02-21T18:00	2.8	1016	2.8	260	1	21
2026-02-21T18:01	2.7	1016	2.7	260	1	21
2026-02-21T18:02	2.8	1016	2.8	250	1	21
2026-02-21T18:03	2.9	1016	2.9	250	1	20
2026-02-21T18:04	3.0	1016	3.0	250	1	19
2026-02-21T18:05	3.0	1016	3.0	250	1	18
2026-02-21T18:06	3.0	1016	3.0	250	1	14
2026-02-21T18:07	3.1	1016	3.1	260	1	10
2026-02-21T18:08	3.1	1016	3.1	260	1	10
2026-02-21T18:09	3.2	1016	3.2	260	1	9
2026-02-21T18:10	3.2	1016	3.2	260	1	9
2026-02-21T18:11	3.2	1016	3.2	260	1	8
2026-02-21T18:12	3.2	1016	3.2	260	1	7
2026-02-21T18:13	3.2	1016	3.2	260	1	7
2026-02-21T18:14	3.3	1016	3.3	260	1	6
2026-02-21T18:15	3.1	1016	3.1	260	1	6
2026-02-21T18:16	3.0	1016	3.0	260	1	7
2026-02-21T18:17	3.1	1016	3.1	260	1	8
2026-02-21T18:18	3.2	1016	3.2	260	1	8
2026-02-21T18:19	3.1	1016	3.1	250	1	8
2026-02-21T18:20	3.1	1016	3.1	250	1	8
2026-02-21T18:21	3.1	1016	3.1	250	1	8
2026-02-21T18:22	3.1	1016	3.1	250	1	9
2026-02-21T18:23	3.1	1016	3.1	260	1	10
2026-02-21T18:24	3.0	1016	3.0	260	1	12
2026-02-21T18:25	2.8	1016	2.8	260	1	15
2026-02-21T18:26	2.7	1016	2.7	260	1	15
2026-02-21T18:27	2.6	1016	2.6	260	1	16
2026-02-21T18:28	2.8	1016	2.8	260	1	16
2026-02-21T18:29	3.0	1016	3.0	260	1	16
2026-02-21T18:30	2.8	1016	2.8	260	1	17
2026-02-21T18:31	2.8	1016	2.8	260	1	18
2026-02-21T18:32	2.8	1016	2.8	260	1	19
2026-02-21T18:33	2.8	1016	2.8	260	1	21
2026-02-21T18:34	2.8	1016	2.8	260	1	25
2026-02-21T18:35	2.4	1016	2.4	260	1	29
2026-02-21T18:36	2.5	1016	2.5	250	1	36
2026-02-21T18:37	2.5	1016	2.5	250	1	38
2026-02-21T18:38	2.5	1016	2.5	250	1	45
2026-02-21T18:39	2.6	1016	2.6	250	1	55
2026-02-21T18:40	2.6	1016	2.6	250	1	56
2026-02-21T18:41	2.5	1016	2.5	250	1	56
2026-02-21T18:42	2.5	1016	2.5	250	1	56
2026-02-21T18:43	2.7	1016	2.7	250	1	49
2026-02-21T18:44	2.8	1016	2.8	250	1	24
2026-02-21T18:45	3.0	1016	3.0	250	1	19
2026-02-21T18:46	2.9	1016	2.9	250	1	16
2026-02-21T18:47	2.5	1016	2.5	260	1	14
2026-02-21T18:48	2.7	1016	2.7	260	1	13
2026-02-21T18:49	2.9	1016	2.9	260	1	10
2026-02-21T18:50	2.8	1016	2.8	260	1	7
2026-02-21T18:51	2.4	1016	2.4	260	1	5
2026-02-21T18:52	2.8	1016	2.8	260	1	4
2026-02-21T18:53	3.0	1016	3.0	260	1	4
2026-02-21T18:54	3.0	1016	3.0	260	1	4
2026-02-21T18:55	3.1	1016	3.1	260	1	4
2026-02-21T18:56	3.2	1016	3.2	260	1	4
2026-02-21T18:57	3.1	1016	3.1	260	1	4
2026-02-21T18:58	3.1	1016	3.1	270	1	4
2026-02-21T18:59	3.1	1016	3.1	270	1	4
2026-02-21T19:00	3.0	1016	3.0	280	1	6
2026-02-21T19:01	2.9	1016	2.9	280	1	8
2026-02-21T19:02	2.8	1016	2.8	290	1	10
2026-02-21T19:03	2.7	1016	2.7	290	0	10
2026-02-21T19:04	2.8	1016	2.8	290	0	12
2026-02-21T19:05	2.8	1016	2.8	290	0	13
2026-02-21T19:06	2.4	1016	2.4	280	1	13
2026-02-21T19:07	2.7	1016	2.7	280	1	14
2026-02-21T19:08	2.6	1016	2.6	280	1	14
2026-02-21T19:09	2.7	1016	2.7	270	1	14
2026-02-21T19:10	2.7	1016	2.7	270	1	12
2026-02-21T19:11	2.4	1016	2.4	260	1	12
2026-02-21T19:12	2.3	1016	2.3	260	1	13
2026-02-21T19:13	2.4	1016	2.4	250	1	14
2026-02-21T19:14	2.3	1016	2.3	250	1	15
2026-02-21T19:15	2.3	1016	2.3	250	1	15
2026-02-21T19:16	2.5	1016	2.5	250	1	12
2026-02-21T19:17	2.4	1016	2.4	250	1	10
2026-02-21T19:18	2.6	1016	2.6	250	1	7
2026-02-21T19:19	2.6	1016	2.6	250	1	6
2026-02-21T19:20	2.6	1016	2.6	250	1	5
2026-02-21T19:21	2.7	1016	2.7	250	1	4
2026-02-21T19:22	2.7	1016	2.7	250	1	3
2026-02-21T19:23	2.6	1016	2.6	250	1	3
2026-02-21T19:24	2.6	1016	2.6	250	1	2
2026-02-21T19:25	2.3	1016	2.3	250	1	2
2026-02-21T19:26	2.5	1016	2.5	250	1	2
2026-02-21T19:27	2.3	1016	2.3	250	1	2
2026-02-21T19:28	2.3	1016	2.3	250	1	2
2026-02-21T19:29	2.2	1016	2.2	250	1	2
2026-02-21T19:30	2.2	1016	2.2	250	1	2
2026-02-21T19:31	2.2	1016	2.2	240	1	2
2026-02-21T19:32	1.9	1016	1.9	240	1	2
2026-02-21T19:33	1.9	1016	1.9	240	1	2
2026-02-21T19:34	2.1	1016	2.1	240	1	2
2026-02-21T19:35	2.1	1016	2.1	240	1	2
2026-02-21T19:36	2.2	1016	2.2	240	1	2
2026-02-21T19:37	2.4	1016	2.4	230	1	2
2026-02-21T19:38	2.6	1016	2.6	230	1	2
2026-02-21T19:39	2.7	1016	2.7	220	1	2
2026-02-21T19:40	2.7	1016	2.7	210	1	2
2026-02-21T19:41	2.7	1016	2.7	200	1	2
2026-02-21T19:42	2.7	1016	2.7	200	1	2
2026-02-21T19:43	2.7	1016	2.7	190	0	2
2026-02-21T19:44	2.8	1016	2.8	190	0	2
2026-02-21T19:45	2.7	1016	2.7	180	0	2
2026-02-21T19:46	2.7	1016	2.7	180	0	2
2026-02-21T19:47	2.6	1016	2.6	180	0	2
2026-02-21T19:48	2.6	1016	2.6	180	0	2
2026-02-21T19:49	2.6	1016	2.6	180	0	3
2026-02-21T19:50	2.6	1016	2.6	180	0	3
2026-02-21T19:51	2.6	1016	2.6	180	0	4
2026-02-21T19:52	2.5	1016	2.5	180	0	5
2026-02-21T19:53	2.4	1016	2.4	190	0	6
2026-02-21T19:54	2.3	1016	2.3	180	0	7
2026-02-21T19:55	2.3	1016	2.3	0	0	6
2026-02-21T19:56	2.3	1016	2.3	0	0	5
2026-02-21T19:57	2.3	1016	2.3	0	0	4
2026-02-21T19:58	2.3	1016	2.3	0	0	4
2026-02-21T19:59	2.1	1016	2.1	0	0	4
2026-02-21T20:00	2.0	1016	2.0	0	0	3
2026-02-21T20:01	2.0	1016	2.0	0	0	3
2026-02-21T20:02	2.1	1016	2.1	0	0	3
2026-02-21T20:03	2.2	1016	2.2	0	0	2
2026-02-21T20:04	2.2	1016	2.2	0	0	2
2026-02-21T20:05	2.2	1016	2.2	0	0	2
2026-02-21T20:06	1.9	1016	1.9	0	0	2
2026-02-21T20:07	1.9	1016	1.9	0	0	2
2026-02-21T20:08	2.0	1016	2.0	0	0	2
2026-02-21T20:09	2.1	1016	2.1	0	0	2
2026-02-21T20:10	2.1	1016	2.1	0	0	2
2026-02-21T20:11	2.0	1016	2.0	0	0	2
2026-02-21T20:12	2.1	1016	2.1	0	0	2
2026-02-21T20:13	2.2	1016	2.2	0	0	2
2026-02-21T20:14	2.3	1016	2.3	0	0	2
2026-02-21T20:15	2.2	1016	2.2	0	0	2
2026-02-21T20:16	2.1	1016	2.1	0	0	2
2026-02-21T20:17	2.1	1016	2.1	0	0	2
2026-02-21T20:18	2.1	1016	2.1	0	0	2
2026-02-21T20:19	2.1	1016	2.1	0	0	2
2026-02-21T20:20	2.2	1016	2.2	0	0	2
2026-02-21T20:21	2.2	1016	2.2	0	0	2
2026-02-21T20:22	2.0	1016	2.0	0	0	2
2026-02-21T20:23	1.9	1016	1.9	0	0	2
2026-02-21T20:24	1.7	1016	1.7	0	0	1
2026-02-21T20:25	1.9	1016	1.9	0	0	1
2026-02-21T20:26	2.0	1016	2.0	0	0	1
2026-02-21T20:27	1.8	1016	1.8	0	0	1
2026-02-21T20:28	1.8	1016	1.8	0	0	1
2026-02-21T20:29	1.7	1016	1.7	0	0	1
2026-02-21T20:30	1.7	1016	1.7	0	0	2
2026-02-21T20:31	1.5	1016	1.5	0	0	2
2026-02-21T20:32	1.5	1016	1.5	0	0	2
2026-02-21T20:33	1.3	1016	1.3	0	0	2
2026-02-21T20:34	1.4	1016	1.4	0	0	2
2026-02-21T20:35	1.4	1016	1.4	240	0	3
2026-02-21T20:36	1.5	1016	1.5	250	0	3
2026-02-21T20:37	1.6	1016	1.6	250	0	5
2026-02-21T20:38	1.4	1016	1.4	260	0	6
2026-02-21T20:39	1.5	1016	1.5	260	1	7
2026-02-21T20:40	1.5	1016	1.5	260	1	9
2026-02-21T20:41	1.4	1016	1.4	270	1	9
2026-02-21T20:42	1.3	1016	1.3	270	1	8
2026-02-21T20:43	1.4	1016	1.4	270	1	8
2026-02-21T20:44	1.4	1016	1.4	270	1	8
2026-02-21T20:45	1.3	1016	1.3	270	1	12
2026-02-21T20:46	1.5	1016	1.5	260	1	19
2026-02-21T20:47	1.6	1016	1.6	260	1	19
2026-02-21T20:48	1.6	1016	1.6	260	1	10
2026-02-21T20:49	1.7	1016	1.7	260	1	6
2026-02-21T20:50	1.4	1016	1.4	260	1	6
2026-02-21T20:51	1.6	1016	1.6	260	1	4
2026-02-21T20:52	1.8	1016	1.8	260	1	4
2026-02-21T20:53	1.9	1016	1.9	260	1	3
2026-02-21T20:54	1.9	1016	1.9	270	1	3
2026-02-21T20:55	2.0	1016	2.0	270	1	2
2026-02-21T20:56	2.2	1016	2.2	270	0	2
2026-02-21T20:57	2.1	1016	2.1	280	0	1
2026-02-21T20:58	2.0	1016	2.0	280	0	1
2026-02-21T20:59	2.3	1016	2.3	280	0	1
2026-02-21T21:00	2.4	1016	2.4	280	0	1
2026-02-21T21:01	2.4	1016	2.4	290	0	1
2026-02-21T21:02	2.3	1016	2.3	290	0	1
2026-02-21T21:03	2.2	1016	2.2	290	0	1
2026-02-21T21:04	2.1	1016	2.1	300	0	1
2026-02-21T21:05	2.1	1016	2.1	300	0	2
2026-02-21T21:06	2.0	1016	2.0	300	0	2
2026-02-21T21:07	2.0	1016	2.0	290	0	2
2026-02-21T21:08	1.9	1016	1.9	290	0	3
2026-02-21T21:09	2.0	1016	2.0	290	1	4
2026-02-21T21:10	2.0	1016	2.0	280	1	4
2026-02-21T21:11	1.9	1017	1.9	270	1	4
2026-02-21T21:12	1.7	1016	1.7	270	1	4
2026-02-21T21:13	1.5	1017	1.5	260	1	4
2026-02-21T21:14	1.3	1017	1.3	260	1	3
2026-02-21T21:15	1.4	1017	1.4	250	1	3
2026-02-21T21:16	1.5	1017	1.5	250	1	3
2026-02-21T21:17	1.4	1017	1.4	250	1	3
2026-02-21T21:18	1.3	1017	1.3	250	1	4
2026-02-21T21:19	1.2	1017	1.2	250	1	4
2026-02-21T21:20	1.1	1017	1.1	250	1	5
2026-02-21T21:21	1.1	1017	1.1	250	1	6
2026-02-21T21:22	1.4	1017	1.4	260	1	7
2026-02-21T21:23	1.2	1017	1.2	260	1	8
2026-02-21T21:24	1.4	1017	1.4	260	1	10
2026-02-21T21:25	1.3	1017	1.3	260	1	11
2026-02-21T21:26	1.2	1017	1.2	270	1	13
2026-02-21T21:27	1.4	1017	1.4	270	1	11
2026-02-21T21:28	1.7	1017	1.7	270	1	10
2026-02-21T21:29	1.4	1017	1.4	280	1	8
2026-02-21T21:30	1.6	1017	1.6	280	1	6
2026-02-21T21:31	1.9	1017	1.9	280	1	6
2026-02-21T21:32	2.4	1017	2.4	280	1	6
2026-02-21T21:33	1.7	1017	1.7	280	1	6
2026-02-21T21:34	1.3	1017	1.3	270	0	6
2026-02-21T21:35	1.3	1017	1.3	270	0	6
2026-02-21T21:36	1.7	1017	1.7	270	0	6
2026-02-21T21:37	1.8	1017	1.8	270	0	6
2026-02-21T21:38	1.9	1017	1.9	270	0	5
2026-02-21T21:39	1.9	1017	1.9	270	0	5
2026-02-21T21:40	1.7	1017	1.7	270	0	5
2026-02-21T21:41	1.7	1017	1.7	260	0	5
2026-02-21T21:42	1.8	1017	1.8	260	0	4
2026-02-21T21:43	1.8	1017	1.8	260	0	4
2026-02-21T21:44	1.7	1017	1.7	260	0	4
2026-02-21T21:45	1.6	1017	1.6	260	0	4
2026-02-21T21:46	1.7	1017	1.7	0	0	3
2026-02-21T21:47	1.7	1017	1.7	0	0	3
2026-02-21T21:48	1.8	1017	1.8	0	0	2
2026-02-21T21:49	1.8	1017	1.8	270	0	2
2026-02-21T21:50	1.9	1017	1.9	280	0	2
2026-02-21T21:51	1.9	1017	1.9	290	0	2
2026-02-21T21:52	2.1	1017	2.1	300	0	2
2026-02-21T21:53	2.1	1017	2.1	310	0	2
2026-02-21T21:54	1.8	1017	1.8	310	0	2
2026-02-21T21:55	1.9	1017	1.9	320	0	2
2026-02-21T21:56	2.1	1017	2.1	320	0	2
2026-02-21T21:57	2.1	1017	2.1	320	0	3
2026-02-21T21:58	2.2	1017	2.2	320	0	3
2026-02-21T21:59	1.8	1017	1.8	310	0	3
2026-02-21T22:00	1.8	1017	1.8	0	0	3
2026-02-21T22:01	1.9	1017	1.9	0	0	3
2026-02-21T22:02	2.0	1017	2.0	0	0	3
2026-02-21T22:03	2.2	1017	2.2	0	0	4
2026-02-21T22:04	2.3	1017	2.3	0	0	3
2026-02-21T22:05	1.9	1017	1.9	0	0	3
2026-02-21T22:06	2.0	1017	2.0	0	0	3
2026-02-21T22:07	2.2	1017	2.2	0	0	2
2026-02-21T22:08	2.1	1017	2.1	280	0	2
2026-02-21T22:09	2.0	1017	2.0	280	0	3
2026-02-21T22:10	2.3	1017	2.3	280	0	3
2026-02-21T22:11	2.3	1017	2.3	280	1	3
2026-02-21T22:12	2.2	1017	2.2	280	1	3
2026-02-21T22:13	2.4	1017	2.4	280	0	3
2026-02-21T22:14	2.4	1017	2.4	270	0	3
2026-02-21T22:15	2.6	1017	2.6	270	0	4
2026-02-21T22:16	2.6	1017	2.6	270	0	5
2026-02-21T22:17	2.7	1017	2.7	260	0	8
2026-02-21T22:18	2.7	1017	2.7	0	0	9
2026-02-21T22:19	2.6	1017	2.6	0	0	14
2026-02-21T22:20	2.3	1017	2.3	0	0	16
2026-02-21T22:21	2.6	1017	2.6	0	0	16
2026-02-21T22:22	2.9	1017	2.9	0	0	17
2026-02-21T22:23	3.0	1017	3.0	0	0	20
2026-02-21T22:24	2.6	1017	2.6	0	0	19
2026-02-21T22:25	2.6	1017	2.6	0	0	20
2026-02-21T22:26	3.0	1017	3.0	0	0	21
2026-02-21T22:27	3.1	1017	3.1	0	0	22
2026-02-21T22:28	3.2	1017	3.2	0	0	23
2026-02-21T22:29	3.2	1017	3.2	0	0	23
2026-02-21T22:30	3.3	1017	3.3	0	0	31
2026-02-21T22:31	3.3	1017	3.3	0	0	38
2026-02-21T22:32	3.3	1017	3.3	0	0	40
2026-02-21T22:33	3.4	1017	3.4	0	0	42
2026-02-21T22:34	3.6	1017	3.6	0	0	55
2026-02-21T22:35	3.8	1017	3.8	0	0	56
2026-02-21T22:36	3.8	1017	3.8	0	0	57
2026-02-21T22:37	3.9	1017	3.9	0	0	57
2026-02-21T22:38	4.0	1017	4.0	0	0	58
2026-02-21T22:39	4.0	1017	4.0	0	0	59
2026-02-21T22:40	4.3	1017	4.3	0	0	59
2026-02-21T22:41	4.2	1017	4.2	0	0	59
2026-02-21T22:42	4.1	1017	4.1	0	0	59
2026-02-21T22:43	4.1	1017	4.1	0	0	60
2026-02-21T22:44	4.1	1017	4.1	0	0	60
2026-02-21T22:45	4.3	1017	4.3	0	0	60
2026-02-21T22:46	4.3	1017	4.3	0	0	60
2026-02-21T22:47	4.4	1017	4.4	0	0	60
2026-02-21T22:48	4.5	1017	4.5	0	0	59
2026-02-21T22:49	4.6	1017	4.6	0	0	59
2026-02-21T22:50	4.6	1017	4.6	0	0	58
2026-02-21T22:51	4.7	1017	4.7	0	0	58
2026-02-21T22:52	4.8	1017	4.8	0	0	58
2026-02-21T22:53	4.7	1017	4.7	0	0	57
2026-02-21T22:54	4.6	1017	4.6	0	0	57
2026-02-21T22:55	4.6	1017	4.6	0	0	57
2026-02-21T22:56	4.9	1017	4.9	0	0	57
2026-02-21T22:57	5.0	1017	5.0	0	0	57
2026-02-21T22:58	5.1	1017	5.1	0	0	57
2026-02-21T22:59	5.5	1017	5.5	0	0	57
2026-02-21T23:00	5.7	1017	5.7	0	0	57
2026-02-21T23:01	5.8	1017	5.8	0	0	57
2026-02-21T23:02	6.0	1017	6.0	0	0	58
2026-02-21T23:03	6.0	1017	6.0	0	0	58
2026-02-21T23:04	5.9	1017	5.9	0	0	57
2026-02-21T23:05	5.6	1017	5.5	0	0	57
2026-02-21T23:06	5.9	1017	5.8	0	0	57
2026-02-21T23:07	6.1	1017	6.0	110	0	58
2026-02-21T23:08	6.3	1017	6.0	110	0	58
2026-02-21T23:09	6.5	1017	6.1	120	0	58
2026-02-21T23:10	6.5	1017	5.8	130	1	58
2026-02-21T23:11	6.5	1017	5.6	140	1	59
2026-02-21T23:12	6.7	1017	5.8	160	1	59
2026-02-21T23:13	6.7	1017	5.7	170	1	60
2026-02-21T23:14	6.6	1017	5.3	190	1	62
2026-02-21T23:15	6.6	1017	5.3	200	1	64
2026-02-21T23:16	6.7	1017	5.5	210	1	64
2026-02-21T23:17	6.8	1017	5.6	220	1	64
2026-02-21T23:18	6.8	1017	5.4	220	1	65
2026-02-21T23:19	6.9	1017	5.5	220	1	65
2026-02-21T23:20	7.1	1017	5.7	230	1	65
2026-02-21T23:21	6.8	1017	5.1	230	1	65
2026-02-21T23:22	6.7	1017	4.7	230	1	65
2026-02-21T23:23	6.8	1017	4.8	220	1	64
2026-02-21T23:24	6.9	1017	4.9	220	1	64
2026-02-21T23:25	7.0	1017	5.0	220	1	64
2026-02-21T23:26	7.2	1017	5.0	210	1	64
2026-02-21T23:27	7.2	1017	5.0	210	1	64
2026-02-21T23:28	7.4	1017	5.2	210	1	64
2026-02-21T23:29	7.5	1017	5.3	210	1	64
2026-02-21T23:30	7.6	1017	5.4	220	1	63
2026-02-21T23:31	7.7	1017	5.5	220	1	63
2026-02-21T23:32	7.6	1017	5.3	220	1	63
2026-02-21T23:33	7.8	1017	5.5	220	1	64
2026-02-21T23:34	8.0	1017	5.8	220	1	63
2026-02-21T23:35	7.9	1017	5.6	220	1	64
2026-02-21T23:36	8.0	1017	5.5	220	1	64
2026-02-21T23:37	7.9	1017	5.2	230	1	65
2026-02-21T23:38	7.8	1017	4.9	230	1	65
2026-02-21T23:39	7.8	1017	5.1	230	1	65
2026-02-21T23:40	8.0	1017	5.5	230	1	66
2026-02-21T23:41	8.0	1017	5.3	240	1	66
2026-02-21T23:42	8.0	1017	5.3	240	1	66
2026-02-21T23:43	8.0	1017	5.1	250	1	67
2026-02-21T23:44	8.0	1017	5.1	250	1	67
2026-02-21T23:45	8.2	1017	5.5	250	1	67
2026-02-21T23:46	8.1	1017	5.1	250	1	66
2026-02-21T23:47	8.2	1017	5.2	250	1	66
2026-02-21T23:48	8.2	1017	5.2	260	1	66
2026-02-21T23:49	8.3	1017	5.2	260	1	66
2026-02-21T23:50	8.3	1017	5.2	260	1	66
2026-02-21T23:51	8.4	1017	5.2	260	1	65
2026-02-21T23:52	8.3	1017	5.1	260	1	64
2026-02-21T23:53	8.5	1017	5.3	260	1	63
2026-02-21T23:54	8.7	1017	5.5	260	1	63
2026-02-21T23:55	9.0	1017	5.8	260	1	63
2026-02-21T23:56	8.9	1017	5.5	260	1	63
2026-02-21T23:57	9.0	1017	5.4	260	1	63
2026-02-21T23:58	8.9	1017	5.3	260	1	63
2026-02-21T23:59	8.8	1017	5.2	250	1	63
2026-02-22T00:00	8.8	1017	5.2	250	1	63
2026-02-22T00:01	8.8	1017	5.2	250	1	63
2026-02-22T00:02	9.0	1017	5.4	250	1	63
2026-02-22T00:03	9.2	1017	5.6	240	1	63
2026-02-22T00:04	9.1	1017	5.5	240	1	63
2026-02-22T00:05	9.1	1017	5.5	230	1	63
2026-02-22T00:06	9.3	1017	5.7	220	1	63
2026-02-22T00:07	9.2	1017	5.6	220	1	62
2026-02-22T00:08	9.2	1017	5.6	210	1	62
2026-02-22T00:09	9.4	1017	6.0	210	1	62
2026-02-22T00:10	9.4	1017	5.8	210	1	62
2026-02-22T00:11	9.5	1017	5.7	210	1	62
2026-02-22T00:12	9.7	1017	5.9	210	1	62
2026-02-22T00:13	10.2	1017	6.6	220	1	62
2026-02-22T00:14	10.1	1017	6.3	220	1	62
2026-02-22T00:15	10.1	1017	6.1	230	1	61
2026-02-22T00:16	10.0	1017	5.8	240	1	61
2026-02-22T00:17	9.8	1017	5.4	240	1	62
2026-02-22T00:18	10.0	1017	5.8	250	1	62
2026-02-22T00:19	10.2	1017	6.0	250	1	62
2026-02-22T00:20	9.8	1017	5.6	250	1	61
2026-02-22T00:21	9.9	1017	5.9	250	1	62
2026-02-22T00:22	10.2	1017	6.2	240	1	61
2026-02-22T00:23	10.1	1017	5.9	240	1	61
2026-02-22T00:24	10.1	1017	5.9	230	1	60
2026-02-22T00:25	10.1	1017	5.9	220	1	60
2026-02-22T00:26	10.2	1017	6.0	220	1	60
2026-02-22T00:27	10.1	1017	5.7	210	1	59
2026-02-22T00:28	10.1	1017	5.7	210	1	59
2026-02-22T00:29	10.1	1017	5.7	210	1	59
2026-02-22T00:30	10.2	1017	5.8	210	1	58
2026-02-22T00:31	10.4	1017	6.0	210	1	58
2026-02-22T00:32	10.8	1017	6.2	210	1	58
2026-02-22T00:33	10.6	1017	5.4	220	1	59
2026-02-22T00:34	10.4	1017	5.2	220	1	59
2026-02-22T00:35	10.3	1017	5.3	220	1	59
2026-02-22T00:36	10.3	1017	5.3	230	1	59
2026-02-22T00:37	10.9	1017	6.1	230	1	59
2026-02-22T00:38	10.7	1017	5.5	230	1	60
2026-02-22T00:39	10.8	1017	5.4	230	1	60
2026-02-22T00:40	10.8	1017	5.2	220	1	60
2026-02-22T00:41	10.9	1017	5.2	220	1	61
2026-02-22T00:42	11.0	1017	5.3	220	1	61
2026-02-22T00:43	11.2	1017	5.5	220	1	61
2026-02-22T00:44	11.2	1017	5.3	220	1	61
2026-02-22T00:45	11.1	1017	5.2	210	1	61
2026-02-22T00:46	11.4	1017	5.7	190	1	61
2026-02-22T00:47	11.5	1017	5.6	180	1	61
2026-02-22T00:48	11.4	1017	5.5	170	1	61
2026-02-22T00:49	11.6	1017	5.7	170	1	61
2026-02-22T00:50	11.5	1017	5.4	190	1	61
2026-02-22T00:51	11.3	1017	5.2	190	1	62
2026-02-22T00:52	11.5	1017	5.6	200	1	62
2026-02-22T00:53	11.4	1017	5.5	190	2	62
2026-02-22T00:54	11.5	1017	5.6	200	2	62
2026-02-22T00:55	11.9	1017	6.0	210	2	62
2026-02-22T00:56	11.9	1017	5.8	210	2	62
2026-02-22T00:57	12.0	1017	5.9	210	2	63
2026-02-22T00:58	11.8	1017	5.5	220	2	62
2026-02-22T00:59	11.6	1017	5.3	220	2	62
2026-02-22T01:00	11.6	1017	5.5	210	2	62
2026-02-22T01:01	12.0	1017	5.9	220	2	62
2026-02-22T01:02	12.1	1017	5.7	220	2	62
2026-02-22T01:03	11.9	1017	5.5	220	2	63
2026-02-22T01:04	12.0	1017	5.6	220	2	63
2026-02-22T01:05	12.2	1017	5.8	220	2	63
2026-02-22T01:06	12.1	1017	5.5	230	2	63
2026-02-22T01:07	12.2	1017	5.8	220	2	63
2026-02-22T01:08	12.3	1017	5.9	220	2	64
2026-02-22T01:09	12.2	1017	5.6	220	2	64
2026-02-22T01:10	12.6	1017	6.2	220	2	64
2026-02-22T01:11	12.3	1017	5.7	220	2	65
2026-02-22T01:12	12.2	1017	5.6	220	2	65
2026-02-22T01:13	12.4	1017	6.0	210	2	65
2026-02-22T01:14	12.5	1017	5.9	210	2	65
2026-02-22T01:15	12.3	1017	5.7	210	2	64
2026-02-22T01:16	12.4	1017	6.0	200	2	65
2026-02-22T01:17	12.3	1017	5.7	200	2	65
2026-02-22T01:18	12.4	1017	5.8	200	2	65
2026-02-22T01:19	13.1	1017	6.7	190	2	65
2026-02-22T01:20	13.2	1017	6.6	180	2	65
2026-02-22T01:21	12.7	1017	5.6	170	2	65
2026-02-22T01:22	12.9	1017	6.0	170	2	66
2026-02-22T01:23	12.8	1017	6.0	180	2	65
2026-02-22T01:24	12.8	1017	6.0	190	2	65
2026-02-22T01:25	12.7	1017	5.9	190	2	65
2026-02-22T01:26	12.7	1017	5.9	180	2	65
2026-02-22T01:27	12.8	1017	6.2	180	2	65
2026-02-22T01:28	12.9	1017	6.0	190	2	65
2026-02-22T01:29	13.1	1017	6.2	190	2	65
2026-02-22T01:30	13.1	1017	6.2	190	2	65
2026-02-22T01:31	13.0	1017	5.9	200	2	66
2026-02-22T01:32	13.1	1017	6.0	190	3	67
2026-02-22T01:33	13.1	1017	6.0	180	3	67
2026-02-22T01:34	13.1	1017	6.0	180	2	68
2026-02-22T01:35	13.0	1017	5.9	180	2	67
2026-02-22T01:36	13.0	1017	6.1	180	2	68
2026-02-22T01:37	13.0	1017	5.9	170	3	69
2026-02-22T01:38	13.0	1017	5.9	170	2	69
2026-02-22T01:39	13.4	1017	6.5	170	2	70
2026-02-22T01:40	13.5	1017	6.1	180	2	69
2026-02-22T01:41	13.2	1017	5.6	180	2	69
2026-02-22T01:42	13.3	1017	6.0	190	2	69
2026-02-22T01:43	13.2	1017	5.9	190	2	70
2026-02-22T01:44	13.5	1017	6.1	190	2	70
2026-02-22T01:45	13.7	1017	6.1	180	2	70
2026-02-22T01:46	13.7	1017	6.1	190	2	70
2026-02-22T01:47	14.0	1017	6.4	200	2	70
2026-02-22T01:48	13.7	1017	5.6	200	2	70
2026-02-22T01:49	13.7	1017	5.6	190	2	70
2026-02-22T01:50	13.6	1017	5.8	180	2	70
2026-02-22T01:51	13.4	1017	5.6	170	2	70
2026-02-22T01:52	13.6	1017	5.8	160	2	70
2026-02-22T01:53	13.6	1016	5.8	170	2	70
2026-02-22T01:54	13.3	1016	5.5	180	2	70
2026-02-22T01:55	13.0	1016	5.2	180	2	70
2026-02-22T01:56	13.3	1016	5.7	180	2	70
2026-02-22T01:57	14.0	1016	6.6	170	2	70
2026-02-22T01:58	14.6	1016	6.7	170	2	70
2026-02-22T01:59	14.6	1016	6.2	180	2	70
2026-02-22T02:00	14.4	1016	6.0	180	2	70
2026-02-22T02:01	14.0	1016	5.6	190	2	70
2026-02-22T02:02	14.0	1016	5.6	200	2	70
2026-02-22T02:03	14.0	1016	5.6	190	2	70
2026-02-22T02:04	13.8	1016	5.5	180	2	70
2026-02-22T02:05	13.9	1016	5.8	180	2	70
2026-02-22T02:06	13.7	1016	5.4	190	2	70
2026-02-22T02:07	13.5	1016	5.4	190	2	70
2026-02-22T02:08	13.4	1016	5.3	190	3	70
2026-02-22T02:09	13.3	1016	5.2	190	3	70
2026-02-22T02:10	13.4	1016	5.6	190	2	70
2026-02-22T02:11	13.5	1016	5.7	190	2	70
2026-02-22T02:12	13.5	1016	5.7	190	2	70
2026-02-22T02:13	13.4	1016	5.6	190	2	70
2026-02-22T02:14	13.6	1016	5.5	200	2	70
2026-02-22T02:15	13.8	1016	5.7	200	3	70
2026-02-22T02:16	13.5	1016	5.2	200	3	70
2026-02-22T02:17	13.4	1016	5.1	200	3	70
2026-02-22T02:18	13.3	1016	5.0	200	3	70
2026-02-22T02:19	13.3	1016	5.2	200	3	70
2026-02-22T02:20	13.2	1016	5.1	200	3	70
2026-02-22T02:21	13.1	1016	5.0	210	4	70
2026-02-22T02:22	13.0	1016	5.0	210	4	70
2026-02-22T02:23	13.0	1016	5.2	210	4	70
2026-02-22T02:24	13.1	1016	5.3	210	4	70
2026-02-22T02:25	13.3	1016	5.5	200	3	70
2026-02-22T02:26	13.2	1016	5.4	210	3	70
2026-02-22T02:27	13.3	1016	5.5	210	3	70
2026-02-22T02:28	13.5	1016	5.7	210	3	70
2026-02-22T02:29	13.6	1016	5.5	200	3	70
2026-02-22T02:30	13.5	1016	5.4	200	3	70
2026-02-22T02:31	13.4	1016	5.3	190	3	70
2026-02-22T02:32	13.2	1016	5.1	180	3	70
2026-02-22T02:33	13.5	1016	5.7	180	2	70
2026-02-22T02:34	13.2	1016	5.1	170	2	70
2026-02-22T02:35	13.3	1016	5.2	180	2	70
2026-02-22T02:36	13.2	1016	5.4	170	3	69
2026-02-22T02:37	13.5	1016	5.7	170	2	69
2026-02-22T02:38	13.8	1016	5.9	170	2	68
2026-02-22T02:39	13.6	1016	5.5	180	2	67
2026-02-22T02:40	13.3	1016	5.0	180	2	67
2026-02-22T02:41	13.4	1016	5.3	190	2	67
2026-02-22T02:42	13.8	1016	5.9	200	2	68
2026-02-22T02:43	13.7	1016	5.6	200	2	67
2026-02-22T02:44	13.5	1016	5.4	200	2	67
2026-02-22T02:45	13.6	1016	5.5	210	2	67
2026-02-22T02:46	13.9	1016	5.8	210	3	68
2026-02-22T02:47	13.6	1016	5.3	220	3	67
2026-02-22T02:48	13.6	1016	5.5	210	3	67
2026-02-22T02:49	13.6	1016	5.5	220	3	67
2026-02-22T02:50	13.6	1016	5.5	220	2	67
2026-02-22T02:51	13.5	1016	5.4	210	2	68
2026-02-22T02:52	13.8	1016	5.7	210	2	66
2026-02-22T02:53	13.8	1016	5.5	210	3	67
2026-02-22T02:54	13.9	1016	5.5	210	3	67
2026-02-22T02:55	14.0	1016	5.6	200	2	66
2026-02-22T02:56	13.6	1016	5.3	200	2	67
2026-02-22T02:57	13.7	1016	5.4	200	2	66
2026-02-22T02:58	13.6	1016	5.3	200	2	67
2026-02-22T02:59	13.7	1016	5.4	190	2	68
2026-02-22T03:00	13.7	1016	5.4	180	2	68
2026-02-22T03:01	14.0	1016	5.9	180	2	67
2026-02-22T03:02	14.2	1016	5.8	190	2	68
2026-02-22T03:03	14.0	1016	5.6	180	2	68
2026-02-22T03:04	14.0	1016	5.6	180	2	68
2026-02-22T03:05	14.1	1016	5.7	180	2	69
2026-02-22T03:06	14.2	1016	5.8	190	2	68
2026-02-22T03:07	14.2	1015	5.8	190	2	69
2026-02-22T03:08	14.1	1015	5.7	190	2	69
2026-02-22T03:09	14.1	1015	5.7	190	2	69
2026-02-22T03:10	14.6	1015	6.2	200	2	69
2026-02-22T03:11	14.9	1015	6.2	200	2	70
2026-02-22T03:12	15.3	1015	6.6	200	2	70
2026-02-22T03:13	15.2	1015	6.2	200	2	70
2026-02-22T03:14	15.2	1015	6.2	210	3	70
2026-02-22T03:15	15.0	1015	6.1	210	3	70
2026-02-22T03:16	15.2	1015	6.2	210	3	69
2026-02-22T03:17	14.9	1015	6.0	210	3	69
2026-02-22T03:18	15.2	1015	6.2	210	3	68
2026-02-22T03:19	15.7	1015	6.7	210	3	66
2026-02-22T03:20	15.5	1015	6.3	210	3	66
2026-02-22T03:21	14.9	1015	5.7	200	3	66
2026-02-22T03:22	14.8	1015	5.9	200	3	66
2026-02-22T03:23	14.4	1015	5.5	200	3	66
2026-02-22T03:24	14.4	1015	5.8	190	3	67
2026-02-22T03:25	14.4	1015	5.8	180	3	67
2026-02-22T03:26	14.3	1015	5.9	180	3	68
2026-02-22T03:27	14.1	1015	5.7	170	3	69
2026-02-22T03:28	14.1	1015	6.0	180	3	70
2026-02-22T03:29	14.3	1015	6.2	180	3	70
2026-02-22T03:30	14.5	1015	6.4	180	3	70
2026-02-22T03:31	14.4	1015	6.0	190	3	70
2026-02-22T03:32	14.5	1015	6.1	190	3	70
2026-02-22T03:33	14.4	1015	6.0	200	3	70
2026-02-22T03:34	14.5	1015	6.1	200	3	70
2026-02-22T03:35	14.2	1015	5.8	210	3	70
2026-02-22T03:36	14.0	1015	5.6	220	4	70
2026-02-22T03:37	14.0	1015	5.9	220	4	70
2026-02-22T03:38	14.0	1015	5.9	230	4	70
2026-02-22T03:39	14.1	1015	6.2	230	4	70
2026-02-22T03:40	14.3	1015	6.2	220	4	70
2026-02-22T03:41	14.1	1015	6.0	230	4	70
2026-02-22T03:42	14.1	1015	6.0	230	4	70
2026-02-22T03:43	14.2	1015	6.1	230	4	70
2026-02-22T03:44	14.3	1015	6.2	230	4	70
2026-02-22T03:45	14.4	1015	6.3	230	3	70
2026-02-22T03:46	14.6	1015	6.5	230	3	70
2026-02-22T03:47	14.7	1015	6.5	230	3	70
2026-02-22T03:48	14.7	1015	6.5	230	3	70
2026-02-22T03:49	14.6	1015	6.5	230	3	70
2026-02-22T03:50	14.7	1015	6.8	220	3	70
2026-02-22T03:51	14.9	1015	7.0	220	3	70
2026-02-22T03:52	14.8	1015	6.6	220	3	70
2026-02-22T03:53	14.7	1015	6.5	210	3	70
2026-02-22T03:54	14.9	1015	7.0	210	3	70
2026-02-22T03:55	14.9	1015	6.7	210	3	70
2026-02-22T03:56	15.0	1015	6.8	200	3	70
2026-02-22T03:57	15.1	1015	6.9	200	3	70
2026-02-22T03:58	14.8	1015	6.6	190	3	70
2026-02-22T03:59	14.6	1015	6.7	200	3	70
2026-02-22T04:00	14.6	1015	6.7	200	3	70
2026-02-22T04:01	14.7	1015	6.8	200	3	70
2026-02-22T04:02	15.0	1015	7.1	210	3	70
2026-02-22T04:03	14.9	1014	6.7	210	3	70
2026-02-22T04:04	14.7	1014	6.5	210	3	70
2026-02-22T04:05	14.7	1014	6.8	210	3	70
2026-02-22T04:06	14.9	1014	7.0	210	3	70
2026-02-22T04:07	15.0	1014	6.8	210	3	70
2026-02-22T04:08	14.9	1014	6.7	210	3	70
2026-02-22T04:09	14.9	1014	6.7	210	4	70
2026-02-22T04:10	14.8	1014	6.6	210	4	70
2026-02-22T04:11	14.9	1014	6.7	210	4	70
2026-02-22T04:12	15.1	1014	7.2	210	4	70
2026-02-22T04:13	15.1	1014	6.9	210	4	70
2026-02-22T04:14	14.9	1014	6.7	210	4	70
2026-02-22T04:15	14.8	1014	6.6	200	4	70
2026-02-22T04:16	15.0	1014	7.1	200	4	70
2026-02-22T04:17	15.3	1014	7.4	190	3	70
2026-02-22T04:18	15.2	1014	7.0	190	3	70
2026-02-22T04:19	15.1	1014	6.9	190	3	70
2026-02-22T04:20	15.1	1014	6.9	190	3	70
2026-02-22T04:21	15.1	1014	7.2	180	3	70
2026-02-22T04:22	15.2	1014	7.0	180	3	70
2026-02-22T04:23	15.0	1014	6.8	180	3	70
2026-02-22T04:24	14.9	1014	6.7	180	3	70
2026-02-22T04:25	15.0	1014	7.1	180	3	70
2026-02-22T04:26	15.0	1014	7.1	190	3	70
2026-02-22T04:27	15.1	1014	7.2	190	3	70
2026-02-22T04:28	15.2	1014	7.3	200	3	70
2026-02-22T04:29	15.1	1014	7.2	200	3	70
2026-02-22T04:30	15.2	1014	7.3	200	3	70
2026-02-22T04:31	15.2	1014	7.3	210	3	70
2026-02-22T04:32	15.3	1014	7.4	210	3	70
2026-02-22T04:33	15.5	1014	7.5	210	4	70
2026-02-22T04:34	15.4	1014	7.2	220	4	70
2026-02-22T04:35	15.4	1014	7.2	220	4	70
2026-02-22T04:36	15.3	1014	7.1	220	4	70
2026-02-22T04:37	15.2	1014	7.0	230	4	70
2026-02-22T04:38	15.0	1014	6.8	220	4	70
2026-02-22T04:39	15.1	1014	7.2	220	3	70
2026-02-22T04:40	15.4	1014	7.4	220	3	70
2026-02-22T04:41	15.6	1014	7.6	220	3	70
2026-02-22T04:42	15.5	1014	7.3	220	3	70
2026-02-22T04:43	15.3	1014	7.1	220	3	70
2026-02-22T04:44	15.2	1014	7.3	210	3	70
2026-02-22T04:45	15.2	1014	7.3	210	3	70
2026-02-22T04:46	15.3	1014	7.4	210	3	70
2026-02-22T04:47	15.5	1014	7.5	210	3	70
2026-02-22T04:48	15.2	1014	7.0	210	3	70
2026-02-22T04:49	15.3	1014	7.4	210	4	70
2026-02-22T04:50	15.3	1014	7.4	210	4	70
2026-02-22T04:51	15.3	1014	7.4	210	4	70
2026-02-22T04:52	15.3	1014	7.4	210	4	70
2026-02-22T04:53	15.2	1014	7.3	210	4	70
2026-02-22T04:54	15.2	1014	7.3	210	4	70
2026-02-22T04:55	15.3	1014	7.6	200	4	70
2026-02-22T04:56	15.3	1014	7.6	200	4	70
2026-02-22T04:57	15.2	1014	7.5	200	4	70
2026-02-22T04:58	15.2	1014	7.5	200	4	70
2026-02-22T04:59	15.2	1014	7.5	200	4	70
2026-02-22T05:00	15.3	1014	7.6	200	3	70
2026-02-22T05:01	15.2	1014	7.5	200	3	70
2026-02-22T05:02	15.1	1014	7.4	200	3	70
2026-02-22T05:03	15.2	1014	7.7	190	3	70
2026-02-22T05:04	15.5	1014	8.0	190	3	70
2026-02-22T05:05	15.3	1014	7.6	190	3	70
2026-02-22T05:06	15.3	1014	7.6	190	3	70
2026-02-22T05:07	15.3	1014	7.6	180	3	70
2026-02-22T05:08	15.4	1014	7.7	180	3	70
2026-02-22T05:09	15.6	1014	7.9	190	3	70
2026-02-22T05:10	15.7	1014	7.7	190	3	70
2026-02-22T05:11	15.7	1014	7.5	190	3	70
2026-02-22T05:12	15.7	1014	7.5	190	4	70
2026-02-22T05:13	15.8	1014	7.3	190	4	70
2026-02-22T05:14	15.8	1014	7.3	200	4	70
2026-02-22T05:15	15.7	1014	7.2	200	4	70
2026-02-22T05:16	15.6	1014	7.1	200	4	70
2026-02-22T05:17	15.5	1014	7.3	210	4	70
2026-02-22T05:18	15.4	1014	7.2	210	4	70
2026-02-22T05:19	15.4	1014	6.9	210	4	70
2026-02-22T05:20	15.4	1014	7.2	210	4	70
2026-02-22T05:21	15.4	1014	7.2	220	4	70
2026-02-22T05:22	15.3	1014	7.4	220	4	70
2026-02-22T05:23	15.4	1013	7.4	220	4	70
2026-02-22T05:24	15.4	1013	7.4	220	3	70
2026-02-22T05:25	15.3	1013	7.4	210	3	70
2026-02-22T05:26	15.4	1013	7.4	210	3	70
2026-02-22T05:27	15.4	1013	7.4	210	3	70
2026-02-22T05:28	15.4	1013	7.4	210	3	70
2026-02-22T05:29	15.4	1013	7.2	210	4	70
2026-02-22T05:30	15.4	1013	7.2	200	3	70
2026-02-22T05:31	15.6	1013	7.4	200	3	70
2026-02-22T05:32	15.6	1013	7.4	200	4	70
2026-02-22T05:33	15.7	1013	7.5	200	4	70
2026-02-22T05:34	15.8	1013	7.3	200	4	70
2026-02-22T05:35	15.8	1013	7.3	190	4	70
2026-02-22T05:36	15.6	1013	7.1	200	4	70
2026-02-22T05:37	15.7	1013	7.2	200	4	70
2026-02-22T05:38	15.7	1013	7.5	200	4	70
2026-02-22T05:39	15.6	1013	7.4	200	4	70
2026-02-22T05:40	15.7	1013	7.5	200	5	70
2026-02-22T05:41	15.7	1013	7.2	200	5	70
2026-02-22T05:42	15.8	1013	7.3	200	5	70
2026-02-22T05:43	15.7	1013	7.2	200	5	70
2026-02-22T05:44	15.6	1013	7.1	200	5	70
2026-02-22T05:45	15.5	1013	7.0	200	5	70
2026-02-22T05:46	15.6	1013	7.4	200	5	70
2026-02-22T05:47	15.8	1013	7.6	200	5	70
2026-02-22T05:48	15.9	1013	7.4	200	5	70
2026-02-22T05:49	15.9	1013	7.4	200	5	70
2026-02-22T05:50	15.8	1013	7.3	200	4	70
2026-02-22T05:51	15.8	1013	7.3	200	4	70
2026-02-22T05:52	16.0	1013	7.5	200	4	70
2026-02-22T05:53	16.2	1013	7.7	210	4	70
2026-02-22T05:54	16.3	1013	7.5	210	4	70
2026-02-22T05:55	16.5	1013	7.7	200	4	70
2026-02-22T05:56	16.7	1013	7.9	210	4	70
2026-02-22T05:57	16.5	1013	7.4	210	4	70
2026-02-22T05:58	16.5	1013	7.7	210	4	70
2026-02-22T05:59	16.6	1013	7.8	210	4	70
2026-02-22T06:00	16.4	1013	7.4	210	4	70
2026-02-22T06:01	16.1	1013	7.3	220	4	70
2026-02-22T06:02	15.9	1013	7.2	220	4	70
2026-02-22T06:03	15.8	1013	7.3	220	4	70
2026-02-22T06:04	15.8	1013	7.3	220	4	70
2026-02-22T06:05	15.9	1013	7.7	220	4	70
2026-02-22T06:06	16.1	1013	7.9	220	4	70
2026-02-22T06:07	16.1	1013	7.6	220	4	70
2026-02-22T06:08	16.3	1013	7.8	220	5	70
2026-02-22T06:09	16.3	1013	7.8	210	4	70
2026-02-22T06:10	16.5	1013	8.0	210	4	70
2026-02-22T06:11	16.3	1013	7.8	210	4	70
2026-02-22T06:12	16.1	1013	7.6	210	4	70
2026-02-22T06:13	15.9	1013	7.7	210	4	70
2026-02-22T06:14	15.8	1013	7.8	210	4	70
2026-02-22T06:15	15.8	1013	7.8	210	4	70
2026-02-22T06:16	16.0	1013	8.0	210	4	70
2026-02-22T06:17	16.1	1013	8.1	210	3	70
2026-02-22T06:18	16.4	1013	8.1	210	4	70
2026-02-22T06:19	16.4	1013	8.1	210	4	70
2026-02-22T06:20	16.3	1013	8.0	210	4	70
2026-02-22T06:21	16.4	1013	8.1	200	3	70
2026-02-22T06:22	16.4	1013	8.1	200	3	70
2026-02-22T06:23	16.3	1013	8.0	200	4	70
2026-02-22T06:24	16.3	1013	8.0	200	4	70
2026-02-22T06:25	16.4	1013	8.1	200	4	70
2026-02-22T06:26	16.4	1013	8.1	200	4	70
2026-02-22T06:27	16.3	1013	8.0	200	4	70
2026-02-22T06:28	16.2	1013	7.9	200	4	70
2026-02-22T06:29	16.3	1013	8.0	200	4	70
2026-02-22T06:30	16.3	1013	8.0	200	4	70
2026-02-22T06:31	16.1	1013	7.9	200	4	70
2026-02-22T06:32	16.1	1013	8.1	200	4	70
2026-02-22T06:33	16.1	1013	8.1	200	5	70
2026-02-22T06:34	16.2	1013	8.2	210	4	70
2026-02-22T06:35	16.3	1013	8.3	210	4	70
2026-02-22T06:36	16.3	1013	8.3	200	4	70
2026-02-22T06:37	16.4	1013	8.1	210	4	70
2026-02-22T06:38	16.5	1013	8.2	210	4	70
2026-02-22T06:39	16.6	1013	8.3	210	4	70
2026-02-22T06:40	16.7	1013	8.2	210	4	70
2026-02-22T06:41	16.7	1013	8.2	210	4	70
2026-02-22T06:42	16.7	1013	8.2	210	4	70
2026-02-22T06:43	16.8	1013	8.0	220	4	70
2026-02-22T06:44	16.7	1013	7.9	220	4	70
2026-02-22T06:45	16.8	1013	8.2	220	4	70
2026-02-22T06:46	16.9	1013	8.3	220	4	70
2026-02-22T06:47	16.6	1013	7.8	220	4	70
2026-02-22T06:48	16.6	1013	8.1	220	4	70
2026-02-22T06:49	16.6	1013	8.1	210	4	70
2026-02-22T06:50	16.5	1013	8.0	210	4	70
2026-02-22T06:51	16.6	1013	8.1	210	4	70
2026-02-22T06:52	16.6	1013	8.1	200	4	70
2026-02-22T06:53	16.5	1013	8.0	200	4	70
2026-02-22T06:54	16.4	1013	8.1	200	4	70
2026-02-22T06:55	16.4	1013	8.1	200	4	70
2026-02-22T06:56	16.4	1013	8.1	190	3	70
2026-02-22T06:57	16.4	1013	8.1	190	3	70
2026-02-22T06:58	16.4	1013	8.1	190	4	70
2026-02-22T06:59	16.3	1013	8.0	180	4	70
2026-02-22T07:00	16.3	1013	8.3	180	3	70
2026-02-22T07:01	16.3	1013	8.3	180	3	70
2026-02-22T07:02	16.3	1013	8.3	180	3	70
2026-02-22T07:03	16.3	1013	8.3	180	3	70
2026-02-22T07:04	16.3	1013	8.3	180	3	70
2026-02-22T07:05	16.3	1013	8.3	190	3	70
2026-02-22T07:06	16.3	1013	8.3	190	3	70
2026-02-22T07:07	16.3	1013	8.3	190	3	70
2026-02-22T07:08	16.3	1013	8.5	190	3	70
2026-02-22T07:09	16.3	1013	8.3	190	3	70
2026-02-22T07:10	16.3	1013	8.5	190	3	70
2026-02-22T07:11	16.2	1013	8.4	200	4	70
2026-02-22T07:12	16.2	1013	8.4	200	4	70
2026-02-22T07:13	16.2	1013	8.4	190	4	70
2026-02-22T07:14	16.2	1013	8.4	190	4	70
2026-02-22T07:15	16.3	1013	8.5	190	4	70
2026-02-22T07:16	16.3	1013	8.5	200	4	70
2026-02-22T07:17	16.2	1013	8.4	200	4	70
2026-02-22T07:18	16.1	1013	8.3	200	4	70
2026-02-22T07:19	16.1	1013	8.3	200	4	70
2026-02-22T07:20	16.1	1013	8.3	200	4	70
2026-02-22T07:21	16.1	1013	8.3	200	4	70
2026-02-22T07:22	16.1	1013	8.3	200	4	70
2026-02-22T07:23	16.1	1013	8.3	200	4	70
2026-02-22T07:24	16.1	1013	8.3	210	5	70
2026-02-22T07:25	16.1	1013	8.3	210	5	70
2026-02-22T07:26	16.1	1013	8.3	200	5	70
2026-02-22T07:27	16.1	1013	8.6	200	5	70
2026-02-22T07:28	16.1	1013	8.6	210	5	70
2026-02-22T07:29	16.0	1013	8.5	210	5	70
2026-02-22T07:30	16.0	1013	8.5	210	5	70
2026-02-22T07:31	16.0	1013	8.5	210	5	70
2026-02-22T07:32	16.1	1013	8.6	210	5	70
2026-02-22T07:33	16.0	1013	8.5	210	5	70
2026-02-22T07:34	16.1	1013	8.6	210	5	70
2026-02-22T07:35	16.0	1013	8.5	210	5	70
2026-02-22T07:36	16.0	1013	8.5	210	5	70
2026-02-22T07:37	15.9	1013	8.4	210	5	70
2026-02-22T07:38	15.9	1013	8.4	210	5	70
2026-02-22T07:39	15.9	1013	8.6	210	5	70
2026-02-22T07:40	15.9	1013	8.6	210	5	70
2026-02-22T07:41	15.9	1013	8.6	220	5	70
2026-02-22T07:42	15.8	1013	8.5	220	5	70
2026-02-22T07:43	15.8	1013	8.5	220	5	70
2026-02-22T07:44	15.9	1013	8.6	210	5	70
2026-02-22T07:45	15.8	1013	8.5	220	5	70
2026-02-22T07:46	15.7	1013	8.5	220	5	70
2026-02-22T07:47	15.7	1013	8.5	220	5	70
2026-02-22T07:48	15.7	1013	8.5	220	5	70
2026-02-22T07:49	15.7	1013	8.7	210	5	70
2026-02-22T07:50	15.6	1013	8.6	210	5	70
2026-02-22T07:51	15.6	1013	8.6	210	5	70
2026-02-22T07:52	15.6	1013	8.6	210	5	70
2026-02-22T07:53	15.5	1013	8.5	210	5	70
2026-02-22T07:54	15.5	1013	8.5	210	5	70
2026-02-22T07:55	15.5	1013	8.5	210	5	70
2026-02-22T07:56	15.4	1013	8.6	210	5	70
2026-02-22T07:57	15.4	1013	8.6	210	5	70
2026-02-22T07:58	15.4	1013	8.6	210	5	70
2026-02-22T07:59	15.4	1013	8.6	210	5	70
2026-02-22T08:00	15.4	1013	8.6	210	5	70
2026-02-22T08:01	15.4	1013	8.6	210	5	70
2026-02-22T08:02	15.3	1013	8.5	210	5	70
2026-02-22T08:03	15.3	1013	8.5	210	5	70
2026-02-22T08:04	15.3	1013	8.8	210	5	70
2026-02-22T08:05	15.3	1013	8.8	210	5	70
2026-02-22T08:06	15.3	1013	8.8	210	5	70
2026-02-22T08:07	15.2	1013	8.7	210	5	70
2026-02-22T08:08	15.2	1013	8.7	220	5	70
2026-02-22T08:09	15.2	1013	8.7	210	5	70
2026-02-22T08:10	15.1	1013	8.6	210	5	70
2026-02-22T08:11	15.1	1013	8.6	210	4	70
2026-02-22T08:12	15.1	1013	8.6	210	4	70
2026-02-22T08:13	15.0	1013	8.7	210	4	70
2026-02-22T08:14	15.0	1013	8.7	210	4	70
2026-02-22T08:15	15.0	1013	8.7	210	4	70
2026-02-22T08:16	15.0	1013	8.7	210	4	70
2026-02-22T08:17	15.1	1013	8.8	210	4	70
2026-02-22T08:18	15.0	1013	8.7	210	4	70
2026-02-22T08:19	15.0	1013	8.7	210	4	70
2026-02-22T08:20	15.0	1013	8.7	210	4	70
2026-02-22T08:21	14.9	1013	8.6	210	4	70
2026-02-22T08:22	15.0	1013	8.7	210	4	70
2026-02-22T08:23	15.0	1013	8.7	210	4	70
2026-02-22T08:24	14.9	1013	8.6	210	4	70
2026-02-22T08:25	14.9	1013	8.6	210	4	70
2026-02-22T08:26	14.9	1013	8.6	210	4	70
2026-02-22T08:27	14.9	1013	8.6	210	4	70
2026-02-22T08:28	14.9	1013	8.8	210	4	70
2026-02-22T08:29	14.9	1013	8.8	210	4	70
2026-02-22T08:30	14.9	1013	8.8	210	4	70
2026-02-22T08:31	14.9	1013	8.8	210	4	70
2026-02-22T08:32	14.9	1013	8.8	210	4	70
2026-02-22T08:33	14.8	1013	8.7	210	4	70
2026-02-22T08:34	14.7	1013	8.6	210	4	70
2026-02-22T08:35	14.7	1013	8.6	210	4	70
2026-02-22T08:36	14.7	1013	8.9	210	4	70
2026-02-22T08:37	14.7	1013	8.9	210	4	70
2026-02-22T08:38	14.7	1013	8.9	210	4	70
2026-02-22T08:39	14.6	1013	8.8	210	4	70
2026-02-22T08:40	14.6	1013	8.8	210	4	70
2026-02-22T08:41	14.6	1013	8.8	210	4	70
2026-02-22T08:42	14.6	1013	8.8	210	4	70
2026-02-22T08:43	14.7	1013	9.1	210	4	70
2026-02-22T08:44	14.7	1013	8.9	210	4	70
2026-02-22T08:45	14.6	1013	8.8	210	4	70
2026-02-22T08:46	14.6	1013	9.0	200	4	70
2026-02-22T08:47	14.6	1013	9.0	210	4	70
2026-02-22T08:48	14.6	1013	9.0	210	4	70
2026-02-22T08:49	14.6	1013	9.0	210	4	70
2026-02-22T08:50	14.6	1013	9.0	210	4	70
2026-02-22T08:51	14.6	1013	9.0	210	4	70
2026-02-22T08:52	14.6	1013	9.0	210	3	70
2026-02-22T08:53	14.6	1013	9.0	210	3	70
2026-02-22T08:54	14.4	1013	8.8	210	3	70
2026-02-22T08:55	14.5	1013	8.9	210	3	70
2026-02-22T08:56	14.6	1013	9.2	210	3	70
2026-02-22T08:57	14.6	1013	9.0	210	3	70
2026-02-22T08:58	14.6	1013	9.0	210	3	70
2026-02-22T08:59	14.6	1013	9.0	210	3	70
2026-02-22T09:00	14.5	1013	8.9	210	3	70
2026-02-22T09:01	14.5	1013	9.1	210	3	70
2026-02-22T09:02	14.5	1013	9.1	210	3	70
2026-02-22T09:03	14.5	1013	9.1	200	3	70
2026-02-22T09:04	14.5	1013	9.1	200	3	70
2026-02-22T09:05	14.5	1013	9.1	200	3	70
2026-02-22T09:06	14.4	1013	9.0	200	3	70
2026-02-22T09:07	14.5	1013	9.1	200	3	70
2026-02-22T09:08	14.4	1013	9.0	200	4	70
2026-02-22T09:09	14.5	1013	9.3	200	4	70
2026-02-22T09:10	14.5	1013	9.3	200	4	70
2026-02-22T09:11	14.5	1013	9.1	200	4	70
2026-02-22T09:12	14.4	1013	9.0	200	4	70
2026-02-22T09:13	14.5	1013	9.3	200	4	70
2026-02-22T09:14	14.5	1013	9.3	200	4	70
2026-02-22T09:15	14.3	1013	9.1	200	4	70
2026-02-22T09:16	14.4	1013	9.2	200	4	70
2026-02-22T09:17	14.4	1013	9.2	200	4	70
2026-02-22T09:18	14.5	1013	9.3	200	4	70
2026-02-22T09:19	14.3	1013	9.1	200	4	70
2026-02-22T09:20	14.4	1013	9.2	200	4	70
2026-02-22T09:21	14.4	1013	9.2	200	4	70
2026-02-22T09:22	14.4	1013	9.2	210	4	70
2026-02-22T09:23	14.4	1013	9.2	200	4	70
2026-02-22T09:24	14.3	1013	9.1	200	4	70
2026-02-22T09:25	14.3	1013	9.3	200	4	70
2026-02-22T09:26	14.4	1013	9.4	210	4	70
2026-02-22T09:27	14.2	1013	9.2	210	4	70
2026-02-22T09:28	14.3	1013	9.3	210	4	70
2026-02-22T09:29	14.3	1013	9.3	210	4	70
2026-02-22T09:30	14.2	1013	9.2	210	4	70
2026-02-22T09:31	14.2	1013	9.2	210	4	70
2026-02-22T09:32	14.3	1013	9.3	210	3	70
2026-02-22T09:33	14.2	1013	9.2	200	3	70
2026-02-22T09:34	14.3	1013	9.3	200	3	70
2026-02-22T09:35	14.2	1013	9.2	200	3	70
2026-02-22T09:36	14.2	1013	9.2	200	3	70
2026-02-22T09:37	14.3	1013	9.3	200	3	70
2026-02-22T09:38	14.3	1013	9.3	200	3	70
2026-02-22T09:39	14.4	1013	9.4	200	3	70
2026-02-22T09:40	14.4	1013	9.4	200	3	70
2026-02-22T09:41	14.3	1013	9.3	200	3	70
2026-02-22T09:42	14.3	1013	9.3	200	3	70
2026-02-22T09:43	14.3	1013	9.3	200	3	70
2026-02-22T09:44	14.3	1013	9.3	200	3	70
2026-02-22T09:45	14.2	1013	9.2	200	3	70
2026-02-22T09:46	14.2	1013	9.2	200	3	70
2026-02-22T09:47	14.2	1013	9.2	200	3	70
2026-02-22T09:48	14.2	1013	9.2	200	3	70
2026-02-22T09:49	14.3	1013	9.3	200	3	70
2026-02-22T09:50	14.2	1013	9.2	200	3	70
2026-02-22T09:51	14.2	1013	9.2	200	3	70
2026-02-22T09:52	14.2	1013	9.2	200	3	70
2026-02-22T09:53	14.2	1013	9.2	200	3	70
2026-02-22T09:54	14.3	1013	9.3	200	3	70
2026-02-22T09:55	14.3	1013	9.3	200	4	70
2026-02-22T09:56	14.2	1013	9.2	200	4	70
2026-02-22T09:57	14.2	1013	9.2	200	3	70
2026-02-22T09:58	14.3	1013	9.3	200	4	70
2026-02-22T09:59	14.3	1013	9.3	200	4	70
2026-02-22T10:00	14.3	1013	9.3	200	4	70
2026-02-22T10:01	14.2	1013	9.2	200	4	70
2026-02-22T10:02	14.1	1013	9.1	200	4	70
2026-02-22T10:03	14.2	1013	9.4	200	4	70
2026-02-22T10:04	14.1	1013	9.3	200	4	70
2026-02-22T10:05	14.2	1013	9.4	200	4	70
2026-02-22T10:06	14.2	1013	9.4	200	4	70
2026-02-22T10:07	14.2	1013	9.4	200	4	70
2026-02-22T10:08	14.2	1013	9.4	200	4	70
2026-02-22T10:09	14.2	1013	9.4	200	4	70
2026-02-22T10:10	14.3	1013	9.5	200	4	70
2026-02-22T10:11	14.3	1013	9.5	200	4	70
2026-02-22T10:12	14.3	1013	9.5	200	4	70
2026-02-22T10:13	14.3	1013	9.3	200	4	70
2026-02-22T10:14	14.2	1013	9.2	200	4	70
2026-02-22T10:15	14.3	1013	9.5	200	4	70
2026-02-22T10:16	14.2	1013	9.4	200	4	70
2026-02-22T10:17	14.2	1013	9.4	200	4	70
2026-02-22T10:18	14.1	1013	9.3	200	4	70
2026-02-22T10:19	14.1	1013	9.3	200	4	70
2026-02-22T10:20	14.1	1013	9.3	200	4	70
2026-02-22T10:21	14.1	1013	9.3	200	4	70
2026-02-22T10:22	14.2	1013	9.4	200	4	70
2026-02-22T10:23	14.2	1013	9.4	200	4	70
2026-02-22T10:24	14.2	1013	9.4	200	4	70
2026-02-22T10:25	14.1	1013	9.3	200	4	70
2026-02-22T10:26	14.1	1013	9.3	200	4	70
2026-02-22T10:27	14.2	1013	9.4	200	4	70
2026-02-22T10:28	14.2	1013	9.4	200	4	70
2026-02-22T10:29	14.2	1013	9.4	200	4	70
2026-02-22T10:30	14.1	1013	9.3	200	4	70
2026-02-22T10:31	14.1	1013	9.3	200	3	70
2026-02-22T10:32	14.2	1013	9.7	200	3	70
2026-02-22T10:33	14.2	1013	9.4	200	4	70
2026-02-22T10:34	14.2	1013	9.7	200	4	70
2026-02-22T10:35	14.3	1013	9.5	200	4	70
2026-02-22T10:36	14.2	1013	9.4	200	4	70
2026-02-22T10:37	14.1	1013	9.6	200	3	70
2026-02-22T10:38	14.1	1013	9.6	200	3	70
2026-02-22T10:39	14.1	1013	9.6	200	3	70
2026-02-22T10:40	14.1	1013	9.6	200	3	70
2026-02-22T10:41	14.1	1013	9.6	200	3	70
2026-02-22T10:42	14.1	1013	9.6	200	3	70
2026-02-22T10:43	14.0	1013	9.5	200	3	70
2026-02-22T10:44	14.1	1013	9.6	200	3	70
2026-02-22T10:45	14.1	1013	9.8	200	3	70
2026-02-22T10:46	14.2	1013	9.9	200	3	70
2026-02-22T10:47	14.2	1013	9.9	200	3	70
2026-02-22T10:48	14.2	1013	9.7	200	3	70
2026-02-22T10:49	14.1	1013	9.8	200	3	70
2026-02-22T10:50	14.1	1013	9.8	200	3	70
2026-02-22T10:51	14.1	1013	9.8	200	4	70
2026-02-22T10:52	14.1	1013	9.8	210	4	70
2026-02-22T10:53	14.2	1013	9.9	210	4	70
2026-02-22T10:54	14.2	1013	9.9	210	4	70
2026-02-22T10:55	14.2	1013	9.9	210	4	70
2026-02-22T10:56	14.2	1013	9.9	210	4	70
2026-02-22T10:57	14.1	1013	9.8	210	5	70
2026-02-22T10:58	14.1	1013	9.8	210	5	70
2026-02-22T10:59	14.2	1013	10.1	210	5	70
2026-02-22T11:00	14.1	1013	9.8	210	4	70
2026-02-22T11:01	14.2	1013	10.1	210	4	70
2026-02-22T11:02	14.2	1013	10.1	210	4	70
2026-02-22T11:03	14.1	1013	10.0	210	4	70
2026-02-22T11:04	14.1	1013	10.0	210	4	70
2026-02-22T11:05	14.1	1013	10.0	210	4	70
2026-02-22T11:06	14.2	1013	10.1	210	4	70
2026-02-22T11:07	14.1	1013	10.0	210	4	70
2026-02-22T11:08	14.1	1013	10.0	210	4	70
2026-02-22T11:09	14.1	1013	10.0	210	4	70
2026-02-22T11:10	14.2	1013	10.1	210	4	70
2026-02-22T11:11	14.2	1013	10.1	210	4	70
2026-02-22T11:12	14.2	1013	10.1	210	4	70
2026-02-22T11:13	14.2	1013	10.1	210	4	70
2026-02-22T11:14	14.1	1013	10.0	210	4	70
2026-02-22T11:15	14.1	1013	10.0	210	3	70
2026-02-22T11:16	14.1	1013	10.1	210	3	70
2026-02-22T11:17	14.1	1013	10.1	210	3	70
2026-02-22T11:18	14.1	1013	10.1	200	3	70
2026-02-22T11:19	14.1	1013	10.1	200	3	70
2026-02-22T11:20	14.1	1013	10.1	200	3	70
2026-02-22T11:21	14.1	1013	10.1	200	3	70
2026-02-22T11:22	14.1	1013	10.1	200	3	70
2026-02-22T11:23	14.1	1013	10.1	200	3	70
2026-02-22T11:24	14.0	1013	10.1	200	3	70
2026-02-22T11:25	14.0	1013	10.1	200	3	70
2026-02-22T11:26	14.1	1013	10.1	200	3	70
2026-02-22T11:27	14.1	1013	10.1	200	3	70
2026-02-22T11:28	14.1	1013	10.1	200	3	70
2026-02-22T11:29	14.1	1013	10.1	200	3	70
2026-02-22T11:30	14.1	1013	10.1	200	3	70
2026-02-22T11:31	14.1	1013	10.1	200	3	70
2026-02-22T11:32	14.1	1013	10.1	200	3	70
2026-02-22T11:33	14.1	1013	10.3	210	4	70
2026-02-22T11:34	14.1	1013	10.3	210	4	70
2026-02-22T11:35	14.1	1013	10.3	200	4	70
2026-02-22T11:36	14.1	1013	10.3	210	4	70
2026-02-22T11:37	14.1	1013	10.3	210	4	70
2026-02-22T11:38	14.2	1013	10.4	210	4	70
2026-02-22T11:39	14.2	1013	10.4	210	4	70
2026-02-22T11:40	14.2	1013	10.4	210	4	70
2026-02-22T11:41	14.2	1013	10.4	210	4	70
2026-02-22T11:42	14.2	1013	10.4	210	5	70
2026-02-22T11:43	14.2	1013	10.4	210	5	70
2026-02-22T11:44	14.3	1013	10.3	210	5	70
2026-02-22T11:45	14.3	1013	10.3	210	5	70
2026-02-22T11:46	14.3	1013	10.3	210	5	70
2026-02-22T11:47	14.2	1013	10.2	210	5	70
2026-02-22T11:48	14.2	1013	10.2	210	5	70
2026-02-22T11:49	14.2	1013	10.2	210	4	70
2026-02-22T11:50	14.2	1013	10.4	210	4	70
2026-02-22T11:51	14.2	1013	10.2	210	4	70
2026-02-22T11:52	14.2	1013	10.4	210	4	70
2026-02-22T11:53	14.1	1013	10.1	210	4	70
2026-02-22T11:54	14.2	1013	10.4	210	4	70
2026-02-22T11:55	14.2	1013	10.4	210	4	70
2026-02-22T11:56	14.2	1013	10.2	210	4	70
2026-02-22T11:57	14.2	1013	10.2	210	4	70
2026-02-22T11:58	14.3	1013	10.3	210	4	70
2026-02-22T11:59	14.3	1013	10.3	210	4	70
2026-02-22T12:00	14.3	1013	10.3	210	4	70
2026-02-22T12:01	14.3	1013	10.3	210	4	70
2026-02-22T12:02	14.4	1013	10.4	210	4	70
2026-02-22T12:03	14.3	1013	10.3	210	4	70
2026-02-22T12:04	14.3	1013	10.3	200	4	70
2026-02-22T12:05	14.3	1013	10.3	200	4	70
2026-02-22T12:06	14.2	1013	10.2	200	4	70
2026-02-22T12:07	14.2	1013	10.4	200	4	70
2026-02-22T12:08	14.3	1013	10.5	200	4	70
2026-02-22T12:09	14.2	1013	10.4	200	4	70
2026-02-22T12:10	14.2	1013	10.4	200	4	70
2026-02-22T12:11	14.3	1013	10.5	190	4	70
2026-02-22T12:12	14.4	1013	10.6	190	4	70
2026-02-22T12:13	14.4	1013	10.4	200	4	70
2026-02-22T12:14	14.4	1013	10.4	200	4	70
2026-02-22T12:15	14.4	1013	10.4	200	4	70
2026-02-22T12:16	14.4	1013	10.4	200	4	70
2026-02-22T12:17	14.3	1013	10.3	200	4	70
2026-02-22T12:18	14.3	1013	10.5	200	4	70
2026-02-22T12:19	14.2	1013	10.4	200	4	70
2026-02-22T12:20	14.2	1013	10.4	200	4	70
2026-02-22T12:21	14.3	1013	10.5	200	4	70
2026-02-22T12:22	14.2	1013	10.4	200	4	70
2026-02-22T12:23	14.2	1013	10.4	200	4	70
2026-02-22T12:24	14.3	1013	10.5	200	4	70
2026-02-22T12:25	14.2	1013	10.4	200	4	70
2026-02-22T12:26	14.3	1013	10.5	200	5	70
2026-02-22T12:27	14.3	1013	10.5	200	4	70
2026-02-22T12:28	14.3	1013	10.5	200	4	70
2026-02-22T12:29	14.3	1013	10.5	200	4	70
2026-02-22T12:30	14.3	1013	10.5	200	4	70
2026-02-22T12:31	14.3	1013	10.5	200	4	70
2026-02-22T12:32	14.3	1013	10.5	200	4	70
2026-02-22T12:33	14.3	1013	10.5	200	4	70
2026-02-22T12:34	14.3	1013	10.5	200	4	70
2026-02-22T12:35	14.4	1013	10.6	200	4	70
2026-02-22T12:36	14.3	1013	10.5	200	4	70
2026-02-22T12:37	14.4	1013	10.8	200	4	70
2026-02-22T12:38	14.4	1013	10.6	200	4	70
2026-02-22T12:39	14.3	1013	10.5	200	4	70
2026-02-22T12:40	14.4	1013	10.8	200	4	70
2026-02-22T12:41	14.4	1012	10.8	200	4	70
2026-02-22T12:42	14.3	1012	10.7	200	4	70
2026-02-22T12:43	14.3	1012	10.7	200	4	70
2026-02-22T12:44	14.3	1013	10.7	200	4	70
2026-02-22T12:45	14.3	1013	10.7	190	4	70
2026-02-22T12:46	14.3	1013	10.7	200	4	70
2026-02-22T12:47	14.4	1013	10.8	200	4	70
2026-02-22T12:48	14.4	1013	10.8	200	4	70
2026-02-22T12:49	14.3	1012	10.7	190	4	70
2026-02-22T12:50	14.3	1012	10.7	200	4	70
2026-02-22T12:51	14.3	1012	10.7	200	4	70
2026-02-22T12:52	14.4	1012	11.0	200	4	70
2026-02-22T12:53	14.4	1012	11.0	200	4	70
2026-02-22T12:54	14.4	1012	11.0	200	4	70
2026-02-22T12:55	14.4	1012	11.0	200	3	70
2026-02-22T12:56	14.4	1012	11.0	200	4	70
2026-02-22T12:57	14.4	1013	11.0	200	4	70
2026-02-22T12:58	14.5	1013	11.1	200	4	70
2026-02-22T12:59	14.5	1013	10.9	200	4	70
2026-02-22T13:00	14.5	1013	10.9	200	4	70
2026-02-22T13:01	14.5	1013	10.9	210	4	70
2026-02-22T13:02	14.5	1013	10.9	200	4	70
2026-02-22T13:03	14.5	1013	10.9	200	4	70
2026-02-22T13:04	14.5	1013	10.9	210	5	70
2026-02-22T13:05	14.4	1013	10.8	210	5	70
2026-02-22T13:06	14.4	1013	10.8	200	5	70
2026-02-22T13:07	14.5	1013	11.1	200	5	70
2026-02-22T13:08	14.4	1013	10.8	200	4	70
2026-02-22T13:09	14.4	1013	11.0	200	4	70
2026-02-22T13:10	14.5	1013	11.1	200	4	70
2026-02-22T13:11	14.3	1013	10.9	200	4	70
2026-02-22T13:12	14.4	1013	11.0	190	4	70
2026-02-22T13:13	14.4	1013	11.0	200	4	70
2026-02-22T13:14	14.4	1013	11.0	190	3	70
2026-02-22T13:15	14.4	1013	11.0	190	3	70
2026-02-22T13:16	14.3	1013	10.9	190	3	70
2026-02-22T13:17	14.4	1013	11.0	190	3	70
2026-02-22T13:18	14.4	1013	11.0	190	3	70
2026-02-22T13:19	14.3	1013	10.9	190	3	70
2026-02-22T13:20	14.2	1012	10.8	190	3	70
2026-02-22T13:21	14.2	1012	10.8	190	2	70
2026-02-22T13:22	14.2	1012	11.0	190	2	70
2026-02-22T13:23	14.2	1012	10.8	190	2	70
2026-02-22T13:24	14.1	1012	10.9	190	2	70
2026-02-22T13:25	14.2	1012	11.0	190	3	70
2026-02-22T13:26	14.2	1012	11.0	190	3	70
2026-02-22T13:27	14.2	1012	11.0	190	3	70
2026-02-22T13:28	14.2	1012	11.0	190	3	70
2026-02-22T13:29	14.2	1012	11.0	190	3	70
2026-02-22T13:30	14.2	1012	11.0	190	3	70
2026-02-22T13:31	14.1	1012	10.9	190	3	70
2026-02-22T13:32	14.1	1012	10.9	190	3	70
2026-02-22T13:33	14.2	1012	11.2	190	3	70
2026-02-22T13:34	14.1	1012	10.9	190	3	70
2026-02-22T13:35	14.1	1012	10.9	190	3	70
2026-02-22T13:36	14.1	1012	10.9	190	3	70
2026-02-22T13:37	14.1	1012	11.1	190	3	70
2026-02-22T13:38	14.1	1012	11.1	190	3	70
2026-02-22T13:39	14.0	1012	11.0	190	3	70
2026-02-22T13:40	13.9	1012	10.9	190	2	70
2026-02-22T13:41	13.9	1012	10.9	190	2	70
2026-02-22T13:42	13.9	1012	10.9	190	2	70
2026-02-22T13:43	14.0	1012	11.0	190	2	70
2026-02-22T13:44	14.0	1012	11.0	190	2	70
2026-02-22T13:45	14.0	1012	11.0	190	2	70
2026-02-22T13:46	13.9	1012	10.9	190	2	70
2026-02-22T13:47	13.9	1012	10.9	190	2	70
2026-02-22T13:48	13.9	1012	10.9	190	2	70
2026-02-22T13:49	13.9	1012	11.1	190	2	70
2026-02-22T13:50	13.9	1012	11.1	190	2	70
2026-02-22T13:51	14.1	1012	11.3	190	2	70
2026-02-22T13:52	14.2	1012	11.2	190	2	70
2026-02-22T13:53	14.1	1012	11.1	200	2	70
2026-02-22T13:54	14.1	1012	11.1	200	2	70
2026-02-22T13:55	14.1	1012	11.1	200	2	70
2026-02-22T13:56	14.1	1012	11.1	200	2	70
2026-02-22T13:57	14.1	1012	11.1	200	2	70
2026-02-22T13:58	14.2	1012	11.2	200	2	70
2026-02-22T13:59	14.1	1012	11.1	200	3	70
2026-02-22T14:00	14.0	1012	11.0	200	3	70
2026-02-22T14:01	14.2	1012	11.4	200	3	70
2026-02-22T14:02	14.3	1012	11.3	210	3	70
2026-02-22T14:03	14.3	1012	11.3	200	3	70
2026-02-22T14:04	14.2	1012	11.2	200	3	70
2026-02-22T14:05	14.2	1012	11.2	200	3	70
2026-02-22T14:06	14.2	1012	11.2	200	3	70
2026-02-22T14:07	14.2	1012	11.2	200	3	70
2026-02-22T14:08	14.3	1012	11.3	200	3	70
2026-02-22T14:09	14.4	1012	11.4	210	3	70
2026-02-22T14:10	14.4	1012	11.4	210	3	70
2026-02-22T14:11	14.4	1012	11.2	210	3	70
2026-02-22T14:12	14.3	1012	11.1	210	3	70
2026-02-22T14:13	14.2	1012	11.0	210	3	70
2026-02-22T14:14	14.3	1012	11.3	210	4	70
2026-02-22T14:15	14.4	1012	11.4	210	4	70
2026-02-22T14:16	14.5	1012	11.5	210	4	70
2026-02-22T14:17	14.5	1012	11.3	210	4	70
2026-02-22T14:18	14.5	1012	11.3	210	4	70
2026-02-22T14:19	14.5	1012	11.3	210	4	70
2026-02-22T14:20	14.5	1012	11.3	210	4	70
2026-02-22T14:21	14.5	1012	11.3	200	4	70
2026-02-22T14:22	14.5	1012	11.3	210	4	70
2026-02-22T14:23	14.5	1012	11.3	210	4	70
2026-02-22T14:24	14.5	1012	11.3	210	4	70
2026-02-22T14:25	14.4	1012	11.2	210	4	70
2026-02-22T14:26	14.3	1012	11.1	210	4	70
2026-02-22T14:27	14.4	1012	11.4	210	4	70
2026-02-22T14:28	14.4	1012	11.2	210	4	70
2026-02-22T14:29	14.3	1012	11.1	210	4	70
2026-02-22T14:30	14.3	1012	11.3	210	4	70
2026-02-22T14:31	14.4	1012	11.4	210	5	70
2026-02-22T14:32	14.4	1012	11.4	210	5	70
2026-02-22T14:33	14.4	1012	11.4	210	5	70
2026-02-22T14:34	14.5	1012	11.5	210	4	70
2026-02-22T14:35	14.5	1012	11.3	210	4	70
2026-02-22T14:36	14.4	1012	11.2	210	4	70
2026-02-22T14:37	14.4	1012	11.4	210	4	70
2026-02-22T14:38	14.3	1012	11.3	210	4	70
2026-02-22T14:39	14.3	1012	11.3	210	4	70
2026-02-22T14:40	14.3	1012	11.3	210	4	70
2026-02-22T14:41	14.3	1012	11.3	210	4	70
2026-02-22T14:42	14.2	1012	11.2	210	4	70
2026-02-22T14:43	14.1	1012	11.1	210	4	70
2026-02-22T14:44	14.1	1012	11.1	210	4	70
2026-02-22T14:45	14.1	1012	11.3	210	4	70
2026-02-22T14:46	14.1	1012	11.3	210	3	70
2026-02-22T14:47	14.2	1012	11.4	210	3	70
2026-02-22T14:48	14.1	1012	11.3	210	3	70
2026-02-22T14:49	14.2	1012	11.4	210	3	70
2026-02-22T14:50	14.1	1012	11.3	210	4	70
2026-02-22T14:51	14.1	1012	11.3	210	4	70
2026-02-22T14:52	14.1	1012	11.3	210	4	70
2026-02-22T14:53	14.2	1012	11.4	210	4	70
2026-02-22T14:54	14.2	1012	11.4	210	4	70
2026-02-22T14:55	14.1	1012	11.3	210	4	70
2026-02-22T14:56	14.1	1012	11.3	210	4	70
2026-02-22T14:57	14.2	1012	11.4	210	4	70
2026-02-22T14:58	14.2	1012	11.4	210	4	70
2026-02-22T14:59	14.1	1012	11.3	210	4	70
2026-02-22T15:00	14.1	1012	11.3	210	4	70
2026-02-22T15:01	14.2	1012	11.4	210	4	70
2026-02-22T15:02	14.1	1012	11.3	210	4	70
2026-02-22T15:03	14.1	1012	11.3	210	4	70
2026-02-22T15:04	14.2	1012	11.4	210	4	70
2026-02-22T15:05	14.0	1012	11.2	210	4	70
2026-02-22T15:06	14.1	1012	11.3	210	4	70
2026-02-22T15:07	14.1	1012	11.3	210	4	70
2026-02-22T15:08	14.2	1012	11.4	210	4	70
2026-02-22T15:09	14.3	1012	11.5	210	4	70
2026-02-22T15:10	14.2	1012	11.4	210	4	70
2026-02-22T15:11	14.3	1012	11.5	210	4	70
2026-02-22T15:12	14.3	1012	11.5	210	4	70
2026-02-22T15:13	14.4	1012	11.6	210	4	70
2026-02-22T15:14	14.3	1012	11.3	210	4	70
2026-02-22T15:15	14.3	1012	11.3	210	4	70
2026-02-22T15:16	14.3	1012	11.3	210	4	70
2026-02-22T15:17	14.2	1012	11.4	210	4	70
2026-02-22T15:18	14.2	1012	11.4	210	4	70
2026-02-22T15:19	14.2	1012	11.4	210	4	70
2026-02-22T15:20	14.3	1012	11.5	210	4	70
2026-02-22T15:21	14.3	1012	11.5	200	4	70
2026-02-22T15:22	14.3	1012	11.5	200	4	70
2026-02-22T15:23	14.3	1012	11.5	200	4	70
2026-02-22T15:24	14.2	1012	11.4	200	3	70
2026-02-22T15:25	14.2	1012	11.4	200	3	70
2026-02-22T15:26	14.1	1012	11.4	200	3	70
2026-02-22T15:27	14.2	1012	11.5	200	3	70
2026-02-22T15:28	14.2	1012	11.5	200	3	70
2026-02-22T15:29	14.2	1012	11.5	200	3	70
2026-02-22T15:30	14.2	1012	11.5	200	3	70
2026-02-22T15:31	14.2	1012	11.5	200	4	70
2026-02-22T15:32	14.2	1012	11.5	200	4	70
2026-02-22T15:33	14.2	1012	11.5	200	4	70
2026-02-22T15:34	14.3	1012	11.6	210	4	70
2026-02-22T15:35	14.2	1012	11.4	210	4	70
2026-02-22T15:36	14.2	1012	11.4	210	4	70
2026-02-22T15:37	14.3	1012	11.6	200	4	70
2026-02-22T15:38	14.3	1012	11.6	200	3	70
2026-02-22T15:39	14.3	1012	11.6	200	3	70
2026-02-22T15:40	14.3	1012	11.6	200	3	70
2026-02-22T15:41	14.2	1012	11.4	200	4	70
2026-02-22T15:42	14.2	1012	11.5	200	3	70
2026-02-22T15:43	14.2	1012	11.5	200	3	70
2026-02-22T15:44	14.2	1012	11.5	200	3	70
2026-02-22T15:45	14.2	1012	11.5	200	3	70
2026-02-22T15:46	14.2	1012	11.5	200	3	70
2026-02-22T15:47	14.1	1012	11.4	200	3	70
2026-02-22T15:48	14.1	1012	11.4	200	3	70
2026-02-22T15:49	14.1	1012	11.4	200	3	70
2026-02-22T15:50	14.1	1012	11.4	200	3	70
2026-02-22T15:51	14.2	1012	11.5	200	3	70
2026-02-22T15:52	14.1	1012	11.4	210	3	70
2026-02-22T15:53	14.2	1012	11.5	210	3	70
2026-02-22T15:54	14.2	1012	11.5	210	3	70
2026-02-22T15:55	14.1	1012	11.4	210	3	70
2026-02-22T15:56	14.0	1012	11.4	210	3	70
2026-02-22T15:57	14.0	1012	11.4	210	3	70
2026-02-22T15:58	14.1	1012	11.4	210	3	70
2026-02-22T15:59	14.2	1012	11.5	210	3	70
2026-02-22T16:00	14.2	1012	11.5	210	4	70
2026-02-22T16:01	14.2	1012	11.5	210	4	70
2026-02-22T16:02	14.2	1012	11.5	210	4	70
2026-02-22T16:03	14.2	1012	11.4	210	4	70
2026-02-22T16:04	14.3	1012	11.5	210	4	70
2026-02-22T16:05	14.3	1012	11.5	210	4	70
2026-02-22T16:06	14.2	1012	11.4	210	4	70
2026-02-22T16:07	14.2	1012	11.4	210	4	70
2026-02-22T16:08	14.1	1012	11.3	210	4	70
2026-02-22T16:09	14.2	1012	11.4	210	4	70
2026-02-22T16:10	14.2	1012	11.4	210	4	70
2026-02-22T16:11	14.2	1012	11.4	210	4	70
2026-02-22T16:12	14.2	1012	11.4	210	4	70
2026-02-22T16:13	14.2	1012	11.4	210	4	70
2026-02-22T16:14	14.2	1012	11.4	210	4	70
2026-02-22T16:15	14.2	1012	11.4	210	4	70
2026-02-22T16:16	14.3	1012	11.5	210	4	70
2026-02-22T16:17	14.3	1012	11.5	210	4	70
2026-02-22T16:18	14.3	1012	11.5	210	4	70
2026-02-22T16:19	14.2	1012	11.4	210	4	70
2026-02-22T16:20	14.2	1012	11.4	210	4	70
2026-02-22T16:21	14.3	1012	11.5	210	4	70
2026-02-22T16:22	14.3	1012	11.5	210	4	70
2026-02-22T16:23	14.3	1012	11.5	210	5	70
2026-02-22T16:24	14.3	1012	11.5	210	4	70
2026-02-22T16:25	14.3	1012	11.5	210	4	70
2026-02-22T16:26	14.3	1012	11.5	210	5	70
2026-02-22T16:27	14.3	1012	11.5	210	5	70
2026-02-22T16:28	14.3	1012	11.5	210	5	70
2026-02-22T16:29	14.3	1012	11.5	210	5	70
2026-02-22T16:30	14.3	1012	11.5	210	5	70
2026-02-22T16:31	14.3	1012	11.5	210	5	70
2026-02-22T16:32	14.3	1012	11.5	210	4	70
2026-02-22T16:33	14.3	1012	11.5	210	4	70
2026-02-22T16:34	14.3	1012	11.5	210	4	70
2026-02-22T16:35	14.3	1012	11.5	210	4	70
2026-02-22T16:36	14.3	1012	11.5	210	4	70
2026-02-22T16:37	14.3	1012	11.5	210	4	70
2026-02-22T16:38	14.4	1012	11.6	210	4	70
2026-02-22T16:39	14.3	1012	11.5	210	4	70
2026-02-22T16:40	14.2	1012	11.4	210	4	70
2026-02-22T16:41	14.2	1012	11.5	210	4	70
2026-02-22T16:42	14.3	1012	11.6	210	4	70
2026-02-22T16:43	14.3	1012	11.5	210	4	70
2026-02-22T16:44	14.3	1012	11.5	210	4	70
2026-02-22T16:45	14.2	1012	11.4	210	4	70
2026-02-22T16:46	14.3	1012	11.6	210	4	70
2026-02-22T16:47	14.2	1012	11.5	210	4	70
2026-02-22T16:48	14.3	1012	11.6	210	4	70
2026-02-22T16:49	14.3	1012	11.6	210	4	70
2026-02-22T16:50	14.2	1012	11.5	210	4	70
2026-02-22T16:51	14.3	1012	11.6	210	5	70
2026-02-22T16:52	14.3	1012	11.6	210	4	70
2026-02-22T16:53	14.3	1012	11.6	210	5	70
2026-02-22T16:54	14.3	1012	11.6	210	5	70
2026-02-22T16:55	14.3	1012	11.6	210	5	70
2026-02-22T16:56	14.3	1012	11.6	210	5	70
2026-02-22T16:57	14.4	1012	11.7	210	5	70
2026-02-22T16:58	14.3	1012	11.6	210	5	70
2026-02-22T16:59	14.3	1012	11.6	210	5	70
2026-02-22T17:00	14.5	1012	11.8	210	4	70
2026-02-22T17:01	14.5	1012	11.8	210	4	70
2026-02-22T17:02	14.5	1012	11.8	210	4	70
2026-02-22T17:03	14.5	1012	11.8	210	4	70
2026-02-22T17:04	14.5	1012	11.8	210	4	70
2026-02-22T17:05	14.5	1012	11.7	210	4	70
2026-02-22T17:06	14.4	1012	11.7	220	4	70
2026-02-22T17:07	14.5	1012	11.8	220	4	70
2026-02-22T17:08	14.5	1012	11.8	220	4	70
2026-02-22T17:09	14.5	1012	11.8	220	4	70
2026-02-22T17:10	14.5	1012	11.8	220	5	70
2026-02-22T17:11	14.6	1012	11.9	220	4	70
2026-02-22T17:12	14.6	1012	11.9	220	4	70
2026-02-22T17:13	14.6	1012	11.9	220	4	70
2026-02-22T17:14	14.6	1012	11.9	220	4	70
2026-02-22T17:15	14.5	1012	11.8	220	4	70
2026-02-22T17:16	14.5	1012	11.8	210	4	70
2026-02-22T17:17	14.5	1012	11.8	210	4	70
2026-02-22T17:18	14.5	1012	11.8	220	4	70
2026-02-22T17:19	14.5	1012	11.8	210	4	70
2026-02-22T17:20	14.6	1012	11.9	210	5	70
2026-02-22T17:21	14.5	1012	11.8	210	5	70
2026-02-22T17:22	14.5	1012	11.8	210	5	70
2026-02-22T17:23	14.5	1012	11.8	210	5	70
2026-02-22T17:24	14.5	1012	11.8	220	5	70
2026-02-22T17:25	14.5	1012	12.0	220	5	70
2026-02-22T17:26	14.5	1012	12.0	220	5	70
2026-02-22T17:27	14.5	1012	12.0	220	5	70
2026-02-22T17:28	14.5	1012	12.0	220	6	70
2026-02-22T17:29	14.5	1012	12.0	220	5	70
2026-02-22T17:30	14.5	1012	12.0	220	5	70
2026-02-22T17:31	14.4	1012	11.9	220	5	70
2026-02-22T17:32	14.5	1012	12.0	220	5	70
2026-02-22T17:33	14.5	1012	12.0	220	6	70
2026-02-22T17:34	14.5	1012	12.0	220	5	70
2026-02-22T17:35	14.5	1012	12.0	220	6	70
2026-02-22T17:36	14.5	1012	12.0	210	5	70
2026-02-22T17:37	14.5	1012	12.0	210	6	70
2026-02-22T17:38	14.5	1012	12.0	210	5	70
2026-02-22T17:39	14.5	1012	12.0	210	5	70
2026-02-22T17:40	14.5	1012	12.0	210	5	70
2026-02-22T17:41	14.5	1012	12.0	210	5	70
2026-02-22T17:42	14.4	1012	11.9	210	5	70
2026-02-22T17:43	14.4	1012	11.9	210	5	70
2026-02-22T17:44	14.4	1012	11.9	210	5	70
2026-02-22T17:45	14.5	1011	12.0	210	5	70
2026-02-22T17:46	14.5	1011	12.0	210	5	70
2026-02-22T17:47	14.4	1011	11.9	210	5	70
2026-02-22T17:48	14.4	1011	11.9	210	5	70
2026-02-22T17:49	14.3	1011	11.8	220	5	70
2026-02-22T17:50	14.4	1011	11.9	220	5	70
2026-02-22T17:51	14.4	1011	11.9	220	5	70
2026-02-22T17:52	14.4	1011	11.9	210	5	70
2026-02-22T17:53	14.4	1011	11.9	210	5	70
2026-02-22T17:54	14.5	1011	12.0	220	5	70
2026-02-22T17:55	14.5	1011	12.0	220	5	70
2026-02-22T17:56	14.5	1011	12.0	220	5	70
2026-02-22T17:57	14.5	1011	12.0	220	5	70
2026-02-22T17:58	14.4	1011	11.9	220	5	70
2026-02-22T17:59	14.5	1011	12.0	220	5	70
2026-02-22T18:00	14.5	1011	12.0	220	5	70
2026-02-22T18:01	14.5	1011	12.0	220	5	70
2026-02-22T18:02	14.5	1011	12.0	220	5	70
2026-02-22T18:03	14.5	1011	12.0	220	5	70
2026-02-22T18:04	14.5	1011	12.0	220	5	70
2026-02-22T18:05	14.5	1011	12.0	220	5	70
2026-02-22T18:06	14.5	1011	12.0	220	5	70
2026-02-22T18:07	14.4	1011	11.9	220	5	70
2026-02-22T18:08	14.5	1011	12.0	220	5	70
2026-02-22T18:09	14.5	1011	12.0	210	6	70
2026-02-22T18:10	14.4	1011	11.9	210	6	70
2026-02-22T18:11	14.5	1011	12.0	210	6	70
2026-02-22T18:12	14.4	1011	11.9	210	6	70
2026-02-22T18:13	14.4	1011	11.9	210	6	70
2026-02-22T18:14	14.5	1011	12.2	210	6	70
2026-02-22T18:15	14.5	1011	12.2	210	6	70
2026-02-22T18:16	14.4	1011	11.9	210	6	70
2026-02-22T18:17	14.5	1011	12.2	210	6	70
2026-02-22T18:18	14.5	1011	12.2	210	6	70
2026-02-22T18:19	14.5	1011	12.2	210	6	70
2026-02-22T18:20	14.5	1011	12.0	210	5	70
2026-02-22T18:21	14.5	1011	12.0	210	6	70
2026-02-22T18:22	14.5	1011	12.0	210	5	70
2026-02-22T18:23	14.5	1011	12.0	210	5	70
2026-02-22T18:24	14.5	1011	12.0	210	5	70
2026-02-22T18:25	14.4	1011	11.9	210	5	70
2026-02-22T18:26	14.4	1011	11.9	210	5	70
2026-02-22T18:27	14.5	1011	12.0	210	5	70
2026-02-22T18:28	14.4	1011	11.9	210	5	70
2026-02-22T18:29	14.4	1011	11.9	210	5	70
2026-02-22T18:30	14.4	1011	11.9	210	5	70
2026-02-22T18:31	14.5	1011	12.0	210	6	70
2026-02-22T18:32	14.5	1011	12.0	210	6	70
2026-02-22T18:33	14.5	1011	12.0	210	6	70
2026-02-22T18:34	14.5	1011	12.0	210	6	70
2026-02-22T18:35	14.5	1011	12.0	210	6	70
2026-02-22T18:36	14.6	1011	12.1	210	5	70
2026-02-22T18:37	14.6	1011	12.1	210	6	70
2026-02-22T18:38	14.6	1011	12.1	210	6	70
2026-02-22T18:39	14.6	1011	12.1	210	5	70
2026-02-22T18:40	14.6	1011	11.9	210	5	70
2026-02-22T18:41	14.6	1011	11.9	210	5	70
2026-02-22T18:42	14.6	1011	12.1	210	5	70
2026-02-22T18:43	14.6	1011	12.1	210	5	70
2026-02-22T18:44	14.6	1011	11.9	210	5	70
2026-02-22T18:45	14.6	1011	11.9	210	5	70
2026-02-22T18:46	14.6	1011	11.9	210	5	70
2026-02-22T18:47	14.6	1011	11.9	210	5	70
2026-02-22T18:48	14.6	1011	11.9	210	5	70
2026-02-22T18:49	14.6	1011	11.9	210	5	70
2026-02-22T18:50	14.5	1011	11.8	210	5	70
2026-02-22T18:51	14.5	1011	12.0	210	5	70
2026-02-22T18:52	14.6	1011	12.1	210	5	70
2026-02-22T18:53	14.5	1011	11.8	210	4	70
2026-02-22T18:54	14.5	1011	11.8	200	4	70
2026-02-22T18:55	14.5	1011	11.8	210	4	70
2026-02-22T18:56	14.5	1011	11.8	210	5	70
2026-02-22T18:57	14.6	1011	11.9	210	4	70
2026-02-22T18:58	14.6	1011	11.9	210	4	70
2026-02-22T18:59	14.5	1011	11.8	210	4	70
2026-02-22T19:00	14.6	1011	11.9	200	4	70
2026-02-22T19:01	14.6	1011	11.9	200	4	70
2026-02-22T19:02	14.7	1011	12.0	210	5	70
2026-02-22T19:03	14.7	1011	12.0	210	5	70
2026-02-22T19:04	14.6	1011	11.9	210	5	70
2026-02-22T19:05	14.7	1011	12.0	210	4	70
2026-02-22T19:06	14.7	1011	12.0	210	4	70
2026-02-22T19:07	14.7	1011	12.0	210	5	70
2026-02-22T19:08	14.7	1011	12.0	210	5	70
2026-02-22T19:09	14.7	1011	12.0	210	4	70
2026-02-22T19:10	14.8	1011	12.1	210	4	70
2026-02-22T19:11	14.8	1011	12.0	210	4	70
2026-02-22T19:12	14.7	1011	11.9	210	4	70
2026-02-22T19:13	14.7	1011	11.9	210	4	70
2026-02-22T19:14	14.8	1011	12.1	210	4	70
2026-02-22T19:15	14.8	1011	12.0	210	5	70
2026-02-22T19:16	14.7	1011	11.9	210	4	70
2026-02-22T19:17	14.7	1011	12.0	210	4	70
2026-02-22T19:18	14.7	1011	12.0	210	4	70
2026-02-22T19:19	14.8	1011	12.1	220	4	70
2026-02-22T19:20	14.8	1011	12.0	220	5	70
2026-02-22T19:21	14.8	1011	12.0	220	4	70
2026-02-22T19:22	14.8	1011	12.0	210	4	70
2026-02-22T19:23	14.8	1011	12.0	220	4	70
2026-02-22T19:24	14.8	1011	12.0	220	4	70
2026-02-22T19:25	14.8	1011	12.0	220	4	70
2026-02-22T19:26	14.8	1011	12.0	220	4	70
2026-02-22T19:27	14.8	1011	12.0	220	4	70
2026-02-22T19:28	14.8	1011	12.0	220	4	70
2026-02-22T19:29	14.8	1011	12.0	210	4	70
2026-02-22T19:30	14.8	1011	12.0	210	4	70
2026-02-22T19:31	14.9	1011	11.9	210	4	70
2026-02-22T19:32	14.9	1011	11.9	210	4	70
2026-02-22T19:33	14.8	1011	11.8	210	5	70
2026-02-22T19:34	14.8	1011	11.8	210	5	70
2026-02-22T19:35	14.9	1011	11.9	210	5	70
2026-02-22T19:36	14.9	1011	11.9	210	5	70
2026-02-22T19:37	15.0	1011	12.0	210	5	70
2026-02-22T19:38	15.0	1011	11.8	210	5	70
2026-02-22T19:39	15.0	1011	11.8	210	5	70
2026-02-22T19:40	14.9	1011	11.7	210	5	70
2026-02-22T19:41	15.0	1011	11.8	210	5	70
2026-02-22T19:42	15.0	1011	11.8	210	6	70
2026-02-22T19:43	15.0	1011	11.8	210	5	70
2026-02-22T19:44	15.0	1011	11.8	210	5	70
2026-02-22T19:45	15.0	1011	11.8	210	5	70
2026-02-22T19:46	15.0	1011	11.8	210	5	70
2026-02-22T19:47	14.9	1011	11.7	210	5	70
2026-02-22T19:48	14.9	1011	11.7	210	5	70
2026-02-22T19:49	14.9	1011	11.7	210	5	70
2026-02-22T19:50	14.9	1011	11.7	210	5	70
2026-02-22T19:51	14.9	1011	11.9	210	5	70
2026-02-22T19:52	14.9	1011	11.9	210	5	70
2026-02-22T19:53	15.0	1011	11.8	210	5	70
2026-02-22T19:54	15.0	1011	11.8	210	5	70
2026-02-22T19:55	14.8	1011	11.6	210	6	70
2026-02-22T19:56	14.8	1011	11.6	210	6	70
2026-02-22T19:57	14.9	1011	11.7	210	5	70
2026-02-22T19:58	14.8	1011	11.6	210	5	70
2026-02-22T19:59	14.9	1011	11.7	220	5	70
2026-02-22T20:00	14.9	1011	11.7	220	5	70
2026-02-22T20:01	14.9	1011	11.7	220	5	70
2026-02-22T20:02	15.0	1011	11.8	220	5	70
2026-02-22T20:03	15.0	1011	11.8	220	5	70
2026-02-22T20:04	14.9	1011	11.7	220	5	70
2026-02-22T20:05	14.9	1011	11.7	220	5	70
2026-02-22T20:06	14.9	1011	11.7	210	5	70
2026-02-22T20:07	14.9	1011	11.7	210	5	70
2026-02-22T20:08	14.9	1011	11.7	210	5	70
2026-02-22T20:09	14.8	1011	11.6	210	5	70
2026-02-22T20:10	14.8	1011	11.6	210	5	70
2026-02-22T20:11	14.8	1011	11.8	210	5	70
2026-02-22T20:12	14.9	1011	11.9	210	5	70
2026-02-22T20:13	14.9	1011	11.9	220	5	70
2026-02-22T20:14	14.8	1011	11.8	210	5	70
2026-02-22T20:15	14.9	1011	11.9	220	5	70
2026-02-22T20:16	14.9	1011	11.9	220	5	70
2026-02-22T20:17	14.9	1011	11.9	220	5	70
2026-02-22T20:18	14.9	1011	11.9	220	5	70
2026-02-22T20:19	14.9	1011	11.9	220	5	70
2026-02-22T20:20	14.8	1011	11.8	210	5	70
2026-02-22T20:21	14.8	1011	11.8	220	4	70
2026-02-22T20:22	14.9	1011	11.9	210	4	70
2026-02-22T20:23	14.8	1011	12.0	210	4	70
2026-02-22T20:24	14.8	1011	12.0	210	4	70
2026-02-22T20:25	14.8	1011	12.0	220	4	70
2026-02-22T20:26	14.8	1011	12.0	220	4	70
2026-02-22T20:27	14.7	1011	11.9	220	4	70
2026-02-22T20:28	14.6	1011	11.8	220	4	70
2026-02-22T20:29	14.7	1011	12.0	220	4	70
2026-02-22T20:30	14.7	1011	12.0	220	4	70
2026-02-22T20:31	14.7	1011	12.0	220	4	70
2026-02-22T20:32	14.7	1011	12.0	220	4	70
2026-02-22T20:33	14.7	1011	12.0	220	4	70
2026-02-22T20:34	14.7	1011	11.9	220	4	70
2026-02-22T20:35	14.7	1011	12.0	220	4	70
2026-02-22T20:36	14.7	1011	12.0	220	4	70
2026-02-22T20:37	14.7	1011	12.0	220	4	70
2026-02-22T20:38	14.7	1011	12.0	220	4	70
2026-02-22T20:39	14.7	1011	12.0	210	4	70
2026-02-22T20:40	14.7	1011	12.0	210	4	70
2026-02-22T20:41	14.7	1011	12.0	210	4	70
2026-02-22T20:42	14.7	1011	12.0	210	4	70
2026-02-22T20:43	14.7	1011	12.0	210	4	70
2026-02-22T20:44	14.7	1011	12.0	210	4	70
2026-02-22T20:45	14.7	1011	11.9	210	4	70
2026-02-22T20:46	14.8	1011	12.1	210	5	70
2026-02-22T20:47	14.7	1011	11.9	210	5	70
2026-02-22T20:48	14.7	1011	11.9	210	5	70
2026-02-22T20:49	14.7	1011	11.9	210	4	70
2026-02-22T20:50	14.7	1011	11.9	210	4	70
2026-02-22T20:51	14.8	1011	12.0	210	4	70
2026-02-22T20:52	14.7	1011	11.9	210	5	70
2026-02-22T20:53	14.8	1011	12.0	210	5	70
2026-02-22T20:54	14.8	1011	12.0	210	5	70
2026-02-22T20:55	14.8	1011	12.0	210	5	70
2026-02-22T20:56	14.7	1011	11.9	210	4	70
2026-02-22T20:57	14.7	1011	11.9	210	4	70
2026-02-22T20:58	14.7	1011	11.9	210	4	70
2026-02-22T20:59	14.8	1011	12.0	210	4	70
2026-02-22T21:00	14.9	1011	12.0	210	4	70
2026-02-22T21:01	14.9	1011	12.0	210	4	70
2026-02-22T21:02	14.9	1011	11.9	210	4	70
2026-02-22T21:03	15.0	1011	12.0	210	4	70
2026-02-22T21:04	15.0	1011	12.0	210	4	70
2026-02-22T21:05	14.9	1011	11.9	210	4	70
2026-02-22T21:06	14.8	1011	11.8	210	4	70
2026-02-22T21:07	14.8	1011	11.8	210	4	70
2026-02-22T21:08	14.9	1011	11.9	210	4	70
2026-02-22T21:09	14.9	1011	11.9	210	4	70
2026-02-22T21:10	14.9	1011	11.9	210	4	70
2026-02-22T21:11	15.0	1011	12.0	220	5	70
2026-02-22T21:12	15.0	1011	12.0	220	5	70
2026-02-22T21:13	15.0	1011	12.0	220	5	70
2026-02-22T21:14	15.0	1011	12.0	220	5	70
2026-02-22T21:15	15.0	1011	12.0	220	5	70
2026-02-22T21:16	15.0	1011	12.0	220	5	70
2026-02-22T21:17	15.1	1011	12.1	220	5	70
2026-02-22T21:18	15.1	1011	12.1	220	5	70
2026-02-22T21:19	15.1	1011	11.9	220	5	70
2026-02-22T21:20	15.1	1011	11.9	220	5	70
2026-02-22T21:21	15.2	1011	12.0	220	5	70
2026-02-22T21:22	15.2	1011	12.0	220	5	70
2026-02-22T21:23	15.3	1011	12.1	220	5	70
2026-02-22T21:24	15.2	1011	12.0	220	5	70
2026-02-22T21:25	15.3	1011	12.1	220	5	70
2026-02-22T21:26	15.3	1011	12.1	220	5	70
2026-02-22T21:27	15.2	1011	12.0	220	5	70
2026-02-22T21:28	15.2	1011	12.0	220	5	70
2026-02-22T21:29	15.3	1011	12.1	220	5	70
2026-02-22T21:30	15.3	1011	12.1	220	5	70
2026-02-22T21:31	15.3	1011	12.1	220	5	70
2026-02-22T21:32	15.2	1011	11.8	220	5	70
2026-02-22T21:33	15.2	1011	12.0	230	5	70
2026-02-22T21:34	15.2	1011	12.0	230	5	70
2026-02-22T21:35	15.2	1011	12.0	230	5	70
2026-02-22T21:36	15.3	1011	11.9	230	5	70
2026-02-22T21:37	15.4	1011	12.0	230	5	70
2026-02-22T21:38	15.4	1011	12.0	230	5	70
2026-02-22T21:39	15.4	1011	12.0	230	5	70
2026-02-22T21:40	15.4	1011	12.0	220	5	70
2026-02-22T21:41	15.4	1012	11.8	220	5	70
2026-02-22T21:42	15.4	1012	11.8	220	5	70
2026-02-22T21:43	15.4	1011	11.8	220	5	70
2026-02-22T21:44	15.4	1011	11.8	220	5	70
2026-02-22T21:45	15.4	1011	11.8	220	4	70
2026-02-22T21:46	15.3	1012	11.7	220	4	70
2026-02-22T21:47	15.3	1012	11.9	220	5	70
2026-02-22T21:48	15.3	1012	11.9	220	5	70
2026-02-22T21:49	15.3	1012	11.9	220	5	70
2026-02-22T21:50	15.3	1012	11.9	220	5	70
2026-02-22T21:51	15.3	1012	11.9	230	5	70
2026-02-22T21:52	15.3	1012	11.9	220	5	70
2026-02-22T21:53	15.3	1012	11.9	220	6	70
2026-02-22T21:54	15.3	1012	11.9	230	6	70
2026-02-22T21:55	15.4	1012	12.0	220	6	70
2026-02-22T21:56	15.4	1012	12.0	230	6	70
2026-02-22T21:57	15.4	1012	11.8	230	6	70
2026-02-22T21:58	15.4	1012	11.8	230	5	70
2026-02-22T21:59	15.4	1012	11.8	230	5	70
2026-02-22T22:00	15.4	1012	11.8	230	6	70
2026-02-22T22:01	15.5	1012	11.9	230	6	70
2026-02-22T22:02	15.5	1012	11.9	230	5	70
2026-02-22T22:03	15.5	1012	11.9	230	5	70
2026-02-22T22:04	15.5	1012	11.9	230	5	70
2026-02-22T22:05	15.5	1012	11.9	230	5	70
2026-02-22T22:06	15.5	1012	11.9	230	5	70
2026-02-22T22:07	15.4	1012	11.8	230	5	70
2026-02-22T22:08	15.0	1012	11.0	230	5	70
2026-02-22T22:09	14.5	1012	10.5	230	5	70
2026-02-22T22:10	14.0	1012	10.1	230	5	70
2026-02-22T22:11	13.7	1012	10.0	240	5	69
2026-02-22T22:12	13.5	1012	10.0	240	4	69
2026-02-22T22:13	13.4	1012	10.0	250	4	68
2026-02-22T22:14	13.2	1012	9.8	250	4	68
2026-02-22T22:15	12.8	1012	9.3	250	4	67
2026-02-22T22:16	12.6	1012	9.1	260	4	67
2026-02-22T22:17	12.4	1012	9.1	270	3	66
2026-02-22T22:18	12.5	1012	9.3	270	3	65
2026-02-22T22:19	12.3	1012	9.1	280	3	65
2026-02-22T22:20	12.2	1012	9.0	270	3	64
2026-02-22T22:21	12.1	1012	8.9	280	3	64
2026-02-22T22:22	12.1	1012	9.1	280	3	63
2026-02-22T22:23	12.2	1012	9.4	280	3	63
2026-02-22T22:24	12.1	1012	9.1	280	3	63
2026-02-22T22:25	11.9	1012	8.8	280	2	63
2026-02-22T22:26	11.8	1012	8.7	270	2	63
2026-02-22T22:27	11.8	1012	8.8	270	2	63
2026-02-22T22:28	11.8	1012	8.8	270	2	62
2026-02-22T22:29	11.8	1012	8.8	270	2	62
2026-02-22T22:30	11.8	1012	8.8	270	3	62
2026-02-22T22:31	11.8	1012	8.8	270	3	62
2026-02-22T22:32	11.9	1012	8.9	270	3	62
2026-02-22T22:33	11.8	1012	8.8	270	3	62
2026-02-22T22:34	11.7	1012	8.7	270	3	62
2026-02-22T22:35	11.6	1012	8.6	270	3	62
2026-02-22T22:36	11.7	1012	8.7	270	3	62
2026-02-22T22:37	11.5	1012	8.5	270	3	62
2026-02-22T22:38	11.5	1012	8.5	270	3	61
2026-02-22T22:39	11.5	1012	8.5	270	3	61
2026-02-22T22:40	11.7	1012	8.9	270	3	61
2026-02-22T22:41	11.6	1012	8.6	270	3	61
2026-02-22T22:42	11.5	1012	8.5	270	3	61
2026-02-22T22:43	11.6	1012	8.6	270	3	61
2026-02-22T22:44	11.6	1012	8.6	270	2	60
2026-02-22T22:45	11.5	1012	8.5	260	2	60
2026-02-22T22:46	11.5	1012	8.5	260	2	60
2026-02-22T22:47	11.5	1012	8.5	270	2	60
2026-02-22T22:48	11.5	1012	8.5	260	2	61
2026-02-22T22:49	11.7	1012	8.9	260	2	61
2026-02-22T22:50	11.6	1012	8.6	260	2	61
2026-02-22T22:51	11.8	1012	8.8	260	2	61
2026-02-22T22:52	12.0	1012	9.0	260	2	61
2026-02-22T22:53	11.9	1012	8.8	260	2	61
2026-02-22T22:54	11.8	1012	8.7	260	2	61
2026-02-22T22:55	11.9	1012	8.8	260	2	61
2026-02-22T22:56	12.0	1012	8.9	260	2	61
2026-02-22T22:57	12.1	1012	8.9	260	2	61
2026-02-22T22:58	12.2	1012	9.0	260	2	61
2026-02-22T22:59	12.2	1012	9.0	260	2	61
2026-02-22T23:00	12.2	1012	8.9	260	2	61
2026-02-22T23:01	12.2	1012	8.9	260	2	61
2026-02-22T23:02	12.4	1012	9.2	260	2	61
2026-02-22T23:03	12.5	1012	9.2	260	2	62
2026-02-22T23:04	12.7	1012	9.5	260	2	62
2026-02-22T23:05	12.8	1012	9.5	260	2	62
2026-02-22T23:06	12.8	1012	9.3	250	2	62
2026-02-22T23:07	12.7	1012	9.2	260	2	62
2026-02-22T23:08	12.6	1012	9.1	260	2	62
2026-02-22T23:09	12.7	1012	9.2	260	2	62
2026-02-22T23:10	12.7	1012	9.2	260	2	63
2026-02-22T23:11	12.8	1012	9.3	260	2	62
2026-02-22T23:12	13.0	1012	9.6	260	2	62
2026-02-22T23:13	13.4	1012	10.0	250	2	63
2026-02-22T23:14	13.5	1012	10.0	250	2	63
2026-02-22T23:15	13.4	1012	9.7	250	3	63
2026-02-22T23:16	13.5	1012	9.8	250	3	63
2026-02-22T23:17	13.9	1012	10.3	250	3	63
2026-02-22T23:18	14.2	1012	10.6	240	3	63
2026-02-22T23:19	14.5	1012	10.9	240	3	63
2026-02-22T23:20	14.7	1012	10.9	240	3	64
2026-02-22T23:21	14.8	1012	11.0	240	4	65
2026-02-22T23:22	15.0	1012	11.0	240	4	65
2026-02-22T23:23	15.0	1012	10.8	240	4	65
2026-02-22T23:24	15.0	1012	10.8	240	5	66
2026-02-22T23:25	15.0	1012	10.6	240	5	66
2026-02-22T23:26	15.3	1012	11.1	240	5	67
2026-02-22T23:27	15.4	1012	11.0	240	5	67
2026-02-22T23:28	15.4	1012	11.0	240	5	68
2026-02-22T23:29	15.5	1012	11.3	240	5	68
2026-02-22T23:30	15.7	1012	11.5	240	5	68
2026-02-22T23:31	15.7	1012	11.1	240	5	68
2026-02-22T23:32	15.8	1012	11.2	240	5	67
2026-02-22T23:33	15.7	1012	10.9	240	5	67
2026-02-22T23:34	15.8	1013	11.2	230	5	67
2026-02-22T23:35	15.8	1013	10.8	240	5	67
2026-02-22T23:36	15.7	1012	10.7	240	5	66
2026-02-22T23:37	15.8	1013	10.8	250	5	66
2026-02-22T23:38	15.5	1013	10.3	250	4	66
2026-02-22T23:39	15.8	1012	11.0	250	4	66
2026-02-22T23:40	16.4	1012	12.0	250	4	66
2026-02-22T23:41	16.6	1012	12.0	250	5	66
2026-02-22T23:42	16.7	1012	12.1	250	5	67
2026-02-22T23:43	16.6	1012	11.5	250	5	66
2026-02-22T23:44	16.1	1012	10.4	250	5	66
2026-02-22T23:45	15.9	1012	10.5	250	5	65
2026-02-22T23:46	15.9	1012	10.7	240	5	66
2026-02-22T23:47	15.9	1012	10.7	240	5	66
2026-02-22T23:48	16.1	1012	11.3	240	6	65
2026-02-22T23:49	16.4	1012	11.6	240	6	65
2026-02-22T23:50	16.8	1012	12.2	240	6	66
2026-02-22T23:51	17.3	1012	12.8	240	6	66
2026-02-22T23:52	17.6	1012	12.9	240	5	66
2026-02-22T23:53	17.3	1012	11.8	240	5	67
2026-02-22T23:54	17.3	1012	12.0	230	5	67
2026-02-22T23:55	17.6	1012	12.5	230	5	68
2026-02-22T23:56	18.0	1012	12.9	230	5	69
2026-02-22T23:57	18.0	1012	12.7	230	5	70
2026-02-22T23:58	18.2	1012	12.9	230	5	70
2026-02-22T23:59	18.1	1012	12.6	220	5	70
2026-02-23T00:00	18.2	1012	12.7	220	5	70
2026-02-23T00:01	18.1	1012	12.6	220	5	70
2026-02-23T00:02	17.9	1012	12.4	220	5	70
2026-02-23T00:03	17.8	1012	12.5	220	5	70
2026-02-23T00:04	17.9	1012	12.6	220	5	70
2026-02-23T00:05	17.9	1012	12.6	220	6	70
2026-02-23T00:06	17.7	1012	12.4	220	6	69
2026-02-23T00:07	17.5	1012	12.2	220	7	69
2026-02-23T00:08	17.6	1012	12.5	230	7	68
2026-02-23T00:09	17.6	1012	12.5	230	7	69
2026-02-23T00:10	17.6	1012	12.5	230	7	69
2026-02-23T00:11	17.7	1012	12.6	230	7	68
2026-02-23T00:12	17.7	1012	12.6	230	8	68
2026-02-23T00:13	17.8	1012	12.7	230	8	68
2026-02-23T00:14	17.7	1012	12.4	230	8	69
2026-02-23T00:15	17.7	1012	12.6	230	8	69
2026-02-23T00:16	17.7	1012	12.6	230	8	68
2026-02-23T00:17	17.9	1012	12.8	230	7	69
2026-02-23T00:18	18.0	1012	12.9	230	7	69
2026-02-23T00:19	18.0	1012	12.7	230	8	69
2026-02-23T00:20	18.0	1012	12.7	230	8	68
2026-02-23T00:21	18.2	1012	12.9	230	7	69
2026-02-23T00:22	18.2	1012	12.9	230	7	68
2026-02-23T00:23	18.2	1012	12.7	230	8	69
2026-02-23T00:24	18.2	1012	12.7	230	8	69
2026-02-23T00:25	18.1	1012	12.6	230	8	69
2026-02-23T00:26	18.1	1012	12.6	230	8	70
2026-02-23T00:27	18.1	1012	12.6	230	8	69
2026-02-23T00:28	18.3	1012	12.7	230	8	69
2026-02-23T00:29	18.4	1012	12.8	230	8	69
2026-02-23T00:30	18.4	1012	12.8	230	8	70
2026-02-23T00:31	18.3	1012	12.7	230	8	69
2026-02-23T00:32	18.1	1012	12.6	230	7	70
2026-02-23T00:33	18.2	1012	12.7	230	7	70
2026-02-23T00:34	18.3	1012	12.7	220	7	69
2026-02-23T00:35	18.3	1012	12.7	220	7	70
2026-02-23T00:36	18.2	1012	12.7	220	7	70
2026-02-23T00:37	18.1	1012	12.6	220	7	70
2026-02-23T00:38	18.3	1012	13.0	220	7	70
2026-02-23T00:39	18.5	1012	12.9	220	6	70
2026-02-23T00:40	18.6	1012	13.0	220	6	70
2026-02-23T00:41	18.5	1012	12.9	220	7	70
2026-02-23T00:42	18.7	1012	13.1	220	7	70
2026-02-23T00:43	18.6	1012	12.8	220	6	70
2026-02-23T00:44	18.9	1012	13.1	220	6	70
2026-02-23T00:45	18.9	1012	13.1	220	6	70
2026-02-23T00:46	19.0	1012	13.0	220	6	70
2026-02-23T00:47	18.8	1012	12.8	210	6	70
2026-02-23T00:48	19.0	1012	13.2	210	7	70
2026-02-23T00:49	19.0	1012	13.0	210	6	70
2026-02-23T00:50	19.1	1012	13.1	210	7	70
2026-02-23T00:51	18.9	1012	12.9	210	7	70
2026-02-23T00:52	18.7	1012	12.7	210	7	70
2026-02-23T00:53	18.6	1012	12.8	210	7	70
2026-02-23T00:54	18.7	1012	12.9	210	7	70
2026-02-23T00:55	19.0	1012	13.4	210	7	70
2026-02-23T00:56	19.2	1012	13.4	210	7	70
2026-02-23T00:57	19.0	1012	13.0	210	7	70
2026-02-23T00:58	18.8	1012	12.8	210	7	70
2026-02-23T00:59	18.7	1012	12.9	210	7	70
2026-02-23T01:00	18.7	1012	12.9	210	7	70
2026-02-23T01:01	18.6	1012	13.0	210	7	70
2026-02-23T01:02	18.6	1012	13.0	210	6	70
2026-02-23T01:03	18.5	1012	12.9	210	6	69
2026-02-23T01:04	18.7	1012	13.1	210	6	70
2026-02-23T01:05	19.0	1012	13.4	220	6	70
2026-02-23T01:06	19.0	1012	13.2	220	6	70
2026-02-23T01:07	19.2	1012	13.4	220	6	70
2026-02-23T01:08	19.3	1012	13.5	220	6	70
2026-02-23T01:09	19.4	1012	13.4	220	5	70
2026-02-23T01:10	19.5	1012	13.5	220	5	70
2026-02-23T01:11	19.3	1012	13.3	220	6	70
2026-02-23T01:12	19.4	1012	13.4	220	6	70
2026-02-23T01:13	19.7	1012	13.6	220	6	70
2026-02-23T01:14	19.5	1012	13.2	220	6	70
2026-02-23T01:15	19.3	1012	13.0	220	6	70
2026-02-23T01:16	19.5	1012	13.2	220	6	70
2026-02-23T01:17	19.6	1012	13.3	220	6	70
2026-02-23T01:18	19.6	1012	13.3	220	7	70
2026-02-23T01:19	19.8	1012	13.5	220	7	70
2026-02-23T01:20	19.8	1012	13.5	220	7	70
2026-02-23T01:21	19.8	1012	13.3	220	7	70
2026-02-23T01:22	19.7	1012	13.2	220	7	70
2026-02-23T01:23	19.6	1012	13.1	220	7	70
2026-02-23T01:24	19.6	1012	13.3	220	7	70
2026-02-23T01:25	19.7	1012	13.4	220	8	70
2026-02-23T01:26	19.6	1012	13.3	220	7	70
2026-02-23T01:27	19.7	1012	13.4	220	7	70
2026-02-23T01:28	19.6	1012	13.1	220	7	70
2026-02-23T01:29	19.7	1012	13.4	220	7	70
2026-02-23T01:30	19.8	1012	13.5	220	7	70
2026-02-23T01:31	19.7	1012	13.2	220	7	70
2026-02-23T01:32	19.6	1012	13.1	220	7	70
2026-02-23T01:33	19.8	1012	13.3	220	7	70
2026-02-23T01:34	19.7	1012	13.2	220	7	70
2026-02-23T01:35	19.3	1012	12.8	220	7	70
2026-02-23T01:36	19.5	1012	13.5	220	7	70
2026-02-23T01:37	19.6	1012	13.3	220	7	70
2026-02-23T01:38	19.4	1012	13.1	220	7	70
2026-02-23T01:39	19.5	1012	13.2	220	7	70
2026-02-23T01:40	19.5	1012	13.2	220	7	70
2026-02-23T01:41	19.8	1012	13.5	220	7	70
2026-02-23T01:42	19.8	1012	13.3	220	7	70
2026-02-23T01:43	19.5	1012	13.0	220	7	70
2026-02-23T01:44	19.4	1012	12.9	220	7	70
2026-02-23T01:45	19.4	1012	13.1	220	8	70
2026-02-23T01:46	19.5	1012	13.2	230	7	70
2026-02-23T01:47	19.7	1012	13.4	230	7	70
2026-02-23T01:48	19.8	1012	13.3	230	7	70
2026-02-23T01:49	20.0	1012	13.5	230	7	70
2026-02-23T01:50	19.8	1012	13.3	230	7	70
2026-02-23T01:51	19.8	1012	13.3	230	7	69
2026-02-23T01:52	20.0	1012	13.5	230	6	69
2026-02-23T01:53	20.3	1012	13.8	230	6	70
2026-02-23T01:54	20.3	1012	13.8	230	6	69
2026-02-23T01:55	20.2	1012	13.4	230	5	69
2026-02-23T01:56	20.0	1012	13.2	230	5	70
2026-02-23T01:57	20.1	1012	13.6	230	6	70
2026-02-23T01:58	20.1	1012	13.3	220	6	70
2026-02-23T01:59	20.0	1012	13.2	220	6	70
2026-02-23T02:00	20.0	1012	13.2	220	6	70
2026-02-23T02:01	20.2	1012	13.4	230	6	70
2026-02-23T02:02	20.5	1012	13.7	230	6	70
2026-02-23T02:03	20.6	1012	13.6	230	6	70
2026-02-23T02:04	20.5	1012	13.5	230	6	70
2026-02-23T02:05	20.1	1012	13.1	230	7	70
2026-02-23T02:06	20.1	1012	13.1	230	6	70
2026-02-23T02:07	20.1	1012	13.3	230	6	70
2026-02-23T02:08	20.2	1012	13.4	230	7	70
2026-02-23T02:09	20.3	1012	13.5	230	7	69
2026-02-23T02:10	20.5	1012	13.7	230	7	70
2026-02-23T02:11	20.8	1012	13.8	230	7	70
2026-02-23T02:12	20.9	1012	13.9	230	7	70
2026-02-23T02:13	20.5	1012	13.2	230	7	70
2026-02-23T02:14	20.4	1012	13.1	230	7	70
2026-02-23T02:15	20.2	1012	13.2	230	7	70
2026-02-23T02:16	20.0	1011	13.0	230	7	70
2026-02-23T02:17	20.0	1012	13.0	230	7	70
2026-02-23T02:18	20.2	1012	13.4	220	7	70
2026-02-23T02:19	20.6	1012	13.8	220	7	70
2026-02-23T02:20	20.5	1011	13.5	220	7	70
2026-02-23T02:21	20.3	1011	13.3	230	7	70
2026-02-23T02:22	20.4	1011	13.4	230	7	70
2026-02-23T02:23	20.4	1011	13.4	230	6	70
2026-02-23T02:24	20.4	1011	13.4	230	6	70
2026-02-23T02:25	20.4	1011	13.4	220	6	70
2026-02-23T02:26	20.5	1011	13.5	220	6	70
2026-02-23T02:27	20.6	1011	13.6	220	6	70
2026-02-23T02:28	20.8	1011	13.5	220	6	70
2026-02-23T02:29	20.8	1011	13.5	220	6	70
2026-02-23T02:30	20.5	1011	13.2	220	6	70
2026-02-23T02:31	20.3	1011	13.0	220	6	70
2026-02-23T02:32	20.4	1011	13.1	220	6	70
2026-02-23T02:33	20.4	1011	13.4	220	6	70
2026-02-23T02:34	20.4	1011	13.1	230	6	70
2026-02-23T02:35	20.4	1011	13.1	230	6	70
2026-02-23T02:36	20.6	1011	13.6	230	7	70
2026-02-23T02:37	21.0	1011	13.7	230	6	70
2026-02-23T02:38	20.9	1011	13.6	230	6	70
2026-02-23T02:39	20.9	1011	13.4	220	6	70
2026-02-23T02:40	21.1	1011	13.6	220	6	70
2026-02-23T02:41	21.1	1011	13.6	220	6	70
2026-02-23T02:42	21.2	1011	13.6	220	6	70
2026-02-23T02:43	21.4	1011	13.6	210	6	70
2026-02-23T02:44	21.2	1011	13.4	210	6	70
2026-02-23T02:45	21.1	1011	13.3	210	6	70
2026-02-23T02:46	20.9	1011	13.1	210	7	70
2026-02-23T02:47	20.9	1011	13.1	210	7	70
2026-02-23T02:48	20.9	1011	13.1	210	6	70
2026-02-23T02:49	21.0	1011	13.5	210	6	70
2026-02-23T02:50	21.1	1011	13.3	210	6	70
2026-02-23T02:51	20.9	1011	13.4	210	6	70
2026-02-23T02:52	21.1	1011	13.6	210	6	70
2026-02-23T02:53	21.2	1011	13.6	220	6	70
2026-02-23T02:54	21.1	1011	13.6	220	6	70
2026-02-23T02:55	21.3	1011	13.7	220	6	70
2026-02-23T02:56	21.3	1011	13.5	220	6	70
2026-02-23T02:57	21.2	1011	13.4	220	6	70
2026-02-23T02:58	21.0	1011	13.2	220	6	70
2026-02-23T02:59	20.9	1011	13.1	230	6	70
2026-02-23T03:00	20.9	1011	13.4	220	6	70
2026-02-23T03:01	21.1	1011	13.6	220	6	70
2026-02-23T03:02	21.5	1011	13.9	220	6	70
2026-02-23T03:03	21.6	1011	13.8	220	6	70
2026-02-23T03:04	21.4	1011	13.6	220	6	70
2026-02-23T03:05	21.3	1011	13.5	220	6	70
2026-02-23T03:06	21.1	1011	13.3	220	5	70
2026-02-23T03:07	21.2	1011	13.6	210	5	70
2026-02-23T03:08	21.3	1011	13.7	210	5	70
2026-02-23T03:09	21.4	1011	13.6	210	5	70
2026-02-23T03:10	21.3	1011	13.5	210	5	70
2026-02-23T03:11	21.5	1011	13.7	210	6	70
2026-02-23T03:12	21.2	1011	13.4	210	6	70
2026-02-23T03:13	21.2	1011	13.4	210	6	70
2026-02-23T03:14	21.1	1011	13.3	210	6	70
2026-02-23T03:15	21.1	1011	13.3	210	6	69
2026-02-23T03:16	21.1	1011	13.6	220	6	68
2026-02-23T03:17	20.9	1011	13.4	220	6	68
2026-02-23T03:18	21.2	1011	13.6	220	6	69
2026-02-23T03:19	21.4	1011	13.8	220	6	68
2026-02-23T03:20	21.5	1011	13.7	220	6	67
2026-02-23T03:21	21.5	1011	13.4	220	6	66
2026-02-23T03:22	21.4	1011	13.6	220	5	67
2026-02-23T03:23	21.3	1011	13.5	210	6	67
2026-02-23T03:24	21.5	1011	13.7	210	5	67
2026-02-23T03:25	21.7	1011	13.9	210	6	67
2026-02-23T03:26	21.5	1011	13.4	210	6	67
2026-02-23T03:27	21.3	1011	13.2	210	6	69
2026-02-23T03:28	21.3	1011	13.5	210	6	70
2026-02-23T03:29	21.4	1011	13.6	210	6	70
2026-02-23T03:30	21.4	1011	13.6	210	6	70
2026-02-23T03:31	21.4	1011	13.6	210	6	70
2026-02-23T03:32	21.3	1011	13.5	210	6	70
2026-02-23T03:33	21.2	1011	13.4	210	6	70
2026-02-23T03:34	21.3	1011	13.7	220	6	70
2026-02-23T03:35	21.4	1011	13.8	220	6	70
2026-02-23T03:36	21.6	1011	13.8	210	6	70
2026-02-23T03:37	21.6	1011	13.8	210	6	70
2026-02-23T03:38	21.4	1011	13.6	210	6	70
2026-02-23T03:39	21.7	1011	13.9	210	6	70
2026-02-23T03:40	21.7	1011	13.9	210	6	70
2026-02-23T03:41	21.4	1011	13.6	210	6	70
2026-02-23T03:42	21.3	1011	13.5	210	6	70
2026-02-23T03:43	21.2	1011	13.4	210	6	70
2026-02-23T03:44	21.3	1011	13.5	210	6	70
2026-02-23T03:45	21.5	1011	13.9	210	6	70
2026-02-23T03:46	21.6	1011	13.8	220	6	70
2026-02-23T03:47	21.6	1010	13.8	220	6	70
2026-02-23T03:48	21.2	1011	13.4	220	6	70
2026-02-23T03:49	21.1	1011	13.3	220	6	70
2026-02-23T03:50	21.2	1011	13.6	220	6	70
2026-02-23T03:51	21.4	1010	13.8	220	6	70
2026-02-23T03:52	21.7	1010	14.1	220	6	70
2026-02-23T03:53	21.9	1010	14.1	220	6	70
2026-02-23T03:54	21.8	1010	13.7	220	6	70
2026-02-23T03:55	21.4	1010	13.6	220	6	70
2026-02-23T03:56	21.4	1010	13.6	220	6	70
2026-02-23T03:57	21.5	1010	13.7	220	6	70
2026-02-23T03:58	21.7	1010	13.6	220	6	70
2026-02-23T03:59	21.4	1010	13.3	220	5	70
2026-02-23T04:00	21.2	1010	13.1	220	6	70
2026-02-23T04:01	21.0	1010	13.2	220	6	70
2026-02-23T04:02	20.9	1010	13.4	220	6	70
2026-02-23T04:03	21.2	1010	13.6	230	6	70
2026-02-23T04:04	21.3	1010	13.7	220	6	70
2026-02-23T04:05	21.5	1010	13.9	220	6	70
2026-02-23T04:06	21.6	1010	13.8	220	6	70
2026-02-23T04:07	21.5	1010	13.7	220	6	70
2026-02-23T04:08	21.4	1010	13.6	220	7	70
2026-02-23T04:09	21.3	1010	13.5	220	7	70
2026-02-23T04:10	21.0	1010	13.2	220	7	70
2026-02-23T04:11	21.0	1010	13.2	220	6	70
2026-02-23T04:12	21.1	1010	13.3	220	6	70
2026-02-23T04:13	21.2	1010	13.6	220	6	70
2026-02-23T04:14	21.2	1010	13.4	220	6	70
2026-02-23T04:15	21.1	1010	13.3	220	6	70
2026-02-23T04:16	20.9	1010	13.1	230	6	70
2026-02-23T04:17	21.0	1010	13.5	230	6	70
2026-02-23T04:18	21.0	1010	13.5	230	6	70
2026-02-23T04:19	21.1	1010	13.6	220	6	70
2026-02-23T04:20	21.0	1010	13.2	220	6	70
2026-02-23T04:21	21.1	1010	13.6	220	6	70
2026-02-23T04:22	21.4	1010	13.6	220	6	70
2026-02-23T04:23	21.5	1010	13.7	220	6	70
2026-02-23T04:24	21.7	1010	13.9	220	6	70
2026-02-23T04:25	21.6	1010	13.5	220	6	70
2026-02-23T04:26	21.9	1010	13.8	220	6	70
2026-02-23T04:27	22.1	1011	13.7	210	6	70
2026-02-23T04:28	22.1	1011	13.7	210	6	70
2026-02-23T04:29	21.9	1011	13.3	210	6	70
2026-02-23T04:30	21.6	1011	13.3	210	6	70
2026-02-23T04:31	21.9	1011	13.5	210	6	70
2026-02-23T04:32	21.9	1011	13.5	210	6	70
2026-02-23T04:33	21.8	1011	13.5	210	6	70
2026-02-23T04:34	21.4	1011	13.1	210	6	70
2026-02-23T04:35	21.6	1011	13.5	210	6	70
2026-02-23T04:36	21.7	1011	13.4	210	6	70
2026-02-23T04:37	21.8	1011	13.5	220	6	70
2026-02-23T04:38	21.4	1010	13.1	220	6	70
2026-02-23T04:39	21.2	1010	12.9	220	6	70
2026-02-23T04:40	21.2	1010	13.1	220	6	70
2026-02-23T04:41	21.4	1010	13.3	220	6	70
2026-02-23T04:42	21.7	1010	13.6	220	6	70
2026-02-23T04:43	21.5	1010	13.4	220	5	70
2026-02-23T04:44	21.5	1010	13.4	220	5	70
2026-02-23T04:45	21.5	1010	13.7	210	5	70
2026-02-23T04:46	21.4	1010	13.6	200	5	70
2026-02-23T04:47	21.4	1010	13.6	200	5	70
2026-02-23T04:48	21.4	1010	13.6	200	5	70
2026-02-23T04:49	21.1	1010	13.0	200	5	70
2026-02-23T04:50	21.3	1010	13.5	200	5	70
2026-02-23T04:51	21.4	1010	13.3	200	5	70
2026-02-23T04:52	21.5	1010	13.2	200	5	70
2026-02-23T04:53	21.3	1010	13.2	210	5	70
2026-02-23T04:54	21.6	1010	13.8	210	5	70
2026-02-23T04:55	21.3	1011	13.2	220	5	70
2026-02-23T04:56	21.2	1011	13.4	220	5	70
2026-02-23T04:57	21.1	1011	13.3	220	6	70
2026-02-23T04:58	21.3	1011	13.5	220	6	70
2026-02-23T04:59	21.2	1011	13.4	220	5	70
2026-02-23T05:00	21.3	1011	13.5	220	5	70
2026-02-23T05:01	21.5	1011	13.7	220	5	70
2026-02-23T05:02	21.7	1011	13.9	210	5	70
2026-02-23T05:03	21.9	1011	13.8	210	5	70
2026-02-23T05:04	21.8	1011	13.7	210	5	70
2026-02-23T05:05	21.5	1011	13.2	210	5	70
2026-02-23T05:06	21.2	1011	13.1	210	5	70
2026-02-23T05:07	21.2	1011	13.4	200	5	70
2026-02-23T05:08	21.4	1011	13.6	200	5	70
2026-02-23T05:09	21.4	1011	13.6	200	5	70
2026-02-23T05:10	21.2	1011	13.4	200	5	70
2026-02-23T05:11	21.1	1011	13.3	200	6	70
2026-02-23T05:12	21.0	1011	13.2	200	6	69
2026-02-23T05:13	21.3	1011	13.5	200	5	69
2026-02-23T05:14	21.4	1011	13.6	210	5	69
2026-02-23T05:15	21.2	1011	13.4	210	5	69
2026-02-23T05:16	21.1	1011	13.3	210	5	68
2026-02-23T05:17	20.9	1011	13.4	210	5	68
2026-02-23T05:18	20.8	1011	13.3	220	5	69
2026-02-23T05:19	21.0	1011	13.5	210	5	69
2026-02-23T05:20	21.2	1011	13.6	210	5	69
2026-02-23T05:21	21.4	1011	13.8	210	5	70
2026-02-23T05:22	21.3	1011	13.5	210	5	70
2026-02-23T05:23	21.1	1011	13.6	210	5	70
2026-02-23T05:24	21.0	1011	13.5	210	5	70
2026-02-23T05:25	20.9	1011	13.4	210	5	70
2026-02-23T05:26	21.2	1011	13.6	210	5	70
2026-02-23T05:27	21.0	1011	13.5	210	5	70
2026-02-23T05:28	21.0	1011	13.5	200	5	70
2026-02-23T05:29	21.5	1011	13.9	200	5	70
2026-02-23T05:30	21.6	1011	13.8	200	5	70
2026-02-23T05:31	21.4	1011	13.6	200	5	70
2026-02-23T05:32	21.4	1011	13.6	210	4	70
2026-02-23T05:33	21.2	1011	13.4	210	4	70
2026-02-23T05:34	21.0	1011	13.2	210	4	70
2026-02-23T05:35	21.1	1011	13.6	210	4	70
2026-02-23T05:36	20.9	1011	13.4	210	4	70
2026-02-23T05:37	20.9	1011	13.4	210	4	70
2026-02-23T05:38	21.2	1011	13.6	220	5	70
2026-02-23T05:39	21.0	1011	13.2	220	5	70
2026-02-23T05:40	20.8	1011	13.3	220	5	70
2026-02-23T05:41	20.9	1011	13.4	220	5	70
2026-02-23T05:42	21.0	1011	13.5	220	5	70
2026-02-23T05:43	20.8	1011	13.3	230	5	70
2026-02-23T05:44	20.7	1011	13.4	230	5	70
2026-02-23T05:45	20.9	1011	13.6	220	4	70
2026-02-23T05:46	20.8	1011	13.5	220	4	70
2026-02-23T05:47	20.9	1011	13.6	220	4	70
2026-02-23T05:48	20.8	1011	13.8	210	4	70
2026-02-23T05:49	20.9	1011	13.9	210	4	70
2026-02-23T05:50	20.9	1011	13.9	210	4	70
2026-02-23T05:51	20.7	1011	13.4	210	4	70
2026-02-23T05:52	20.7	1011	13.7	210	4	70
2026-02-23T05:53	21.0	1011	13.9	210	4	70
2026-02-23T05:54	20.9	1011	13.6	200	4	70
2026-02-23T05:55	20.8	1011	13.5	200	4	70
2026-02-23T05:56	21.0	1011	13.9	210	5	70
2026-02-23T05:57	20.8	1011	13.5	200	5	70
2026-02-23T05:58	20.6	1011	13.6	200	5	70
2026-02-23T05:59	20.4	1011	13.4	200	5	70
2026-02-23T06:00	20.4	1011	13.6	200	5	70
2026-02-23T06:01	20.7	1011	13.9	200	5	70
2026-02-23T06:02	20.7	1011	13.7	200	5	70
2026-02-23T06:03	20.7	1011	13.7	200	5	70
2026-02-23T06:04	20.6	1011	13.6	200	5	70
2026-02-23T06:05	20.5	1011	13.7	200	5	70
2026-02-23T06:06	20.4	1011	13.6	200	5	70
2026-02-23T06:07	20.4	1011	13.6	200	5	70
2026-02-23T06:08	20.3	1011	13.5	200	5	70
2026-02-23T06:09	20.3	1011	13.8	200	4	70
2026-02-23T06:10	20.3	1011	13.8	200	4	70
2026-02-23T06:11	20.4	1011	13.9	200	4	70
2026-02-23T06:12	20.3	1011	13.5	200	4	70
2026-02-23T06:13	20.3	1011	13.8	200	4	70
2026-02-23T06:14	20.4	1011	13.9	200	4	70
2026-02-23T06:15	20.5	1011	13.7	210	5	70
2026-02-23T06:16	20.7	1011	13.9	210	5	69
2026-02-23T06:17	20.5	1011	13.7	210	5	69
2026-02-23T06:18	20.5	1011	13.7	210	5	69
2026-02-23T06:19	20.5	1011	13.7	210	5	69
2026-02-23T06:20	20.5	1011	13.7	210	5	68
2026-02-23T06:21	20.4	1011	13.6	210	5	69
2026-02-23T06:22	20.3	1011	13.5	210	5	69
2026-02-23T06:23	20.3	1011	13.5	210	5	69
2026-02-23T06:24	20.5	1011	13.9	210	5	69
2026-02-23T06:25	20.6	1011	13.8	210	4	70
2026-02-23T06:26	20.5	1011	13.7	210	4	70
2026-02-23T06:27	20.4	1011	13.6	210	4	70
2026-02-23T06:28	20.5	1011	13.7	200	4	69
2026-02-23T06:29	20.4	1011	13.6	200	4	70
2026-02-23T06:30	20.5	1011	13.9	200	4	70
2026-02-23T06:31	20.4	1011	13.6	190	4	70
2026-02-23T06:32	20.4	1011	13.9	190	4	70
2026-02-23T06:33	20.3	1011	13.8	180	3	70
2026-02-23T06:34	20.2	1011	13.7	190	3	70
2026-02-23T06:35	20.2	1011	13.7	190	4	70
2026-02-23T06:36	20.2	1011	13.7	190	4	70
2026-02-23T06:37	20.1	1011	13.6	190	4	70
2026-02-23T06:38	20.0	1011	13.5	200	4	70
2026-02-23T06:39	19.9	1011	13.6	200	5	70
2026-02-23T06:40	20.0	1011	13.7	200	5	70
2026-02-23T06:41	19.9	1011	13.6	200	5	70
2026-02-23T06:42	20.0	1011	13.7	200	5	70
2026-02-23T06:43	20.0	1011	13.7	210	5	70
2026-02-23T06:44	20.0	1011	13.7	200	5	70
2026-02-23T06:45	20.1	1011	13.8	200	5	70
2026-02-23T06:46	20.2	1011	13.9	210	5	70
2026-02-23T06:47	20.2	1011	13.7	210	5	70
2026-02-23T06:48	20.1	1011	13.6	200	5	70
2026-02-23T06:49	20.0	1011	13.7	200	4	70
2026-02-23T06:50	20.0	1011	13.7	200	4	70
2026-02-23T06:51	20.1	1011	13.8	200	4	70
2026-02-23T06:52	20.0	1011	13.7	200	4	70
2026-02-23T06:53	20.0	1011	13.7	200	4	70
2026-02-23T06:54	19.9	1011	13.6	200	4	70
2026-02-23T06:55	19.8	1011	13.7	190	4	70
2026-02-23T06:56	19.8	1011	13.7	190	3	70
2026-02-23T06:57	19.8	1011	13.7	180	3	70
2026-02-23T06:58	19.7	1011	13.6	180	3	70
2026-02-23T06:59	19.8	1011	13.7	180	3	70
2026-02-23T07:00	19.9	1011	13.8	180	2	70
2026-02-23T07:01	19.9	1011	13.8	180	2	70
2026-02-23T07:02	20.0	1011	13.9	180	2	70
2026-02-23T07:03	20.1	1011	13.8	180	2	70
2026-02-23T07:04	20.0	1011	13.7	180	2	70
2026-02-23T07:05	19.9	1011	13.6	190	2	70
2026-02-23T07:06	19.7	1011	13.6	180	2	70
2026-02-23T07:07	19.7	1011	13.6	190	3	70
2026-02-23T07:08	19.6	1011	13.5	190	3	70
2026-02-23T07:09	19.6	1011	13.5	190	3	70
2026-02-23T07:10	19.5	1011	13.5	190	3	70
2026-02-23T07:11	19.4	1011	13.6	190	3	70
2026-02-23T07:12	19.4	1011	13.6	190	3	70
2026-02-23T07:13	19.4	1011	13.6	190	3	70
2026-02-23T07:14	19.4	1011	13.6	190	3	70
2026-02-23T07:15	19.3	1011	13.5	190	3	70
2026-02-23T07:16	19.4	1011	13.6	190	3	70
2026-02-23T07:17	19.4	1011	13.6	190	3	70
2026-02-23T07:18	19.4	1011	13.6	200	3	69
2026-02-23T07:19	19.4	1011	13.6	200	3	69
2026-02-23T07:20	19.3	1011	13.5	200	3	68
2026-02-23T07:21	19.3	1011	13.5	200	3	68
2026-02-23T07:22	19.2	1011	13.6	210	3	68
2026-02-23T07:23	19.3	1011	13.7	210	3	68
2026-02-23T07:24	19.3	1011	13.7	210	3	68
2026-02-23T07:25	19.3	1011	13.7	210	3	68
2026-02-23T07:26	19.3	1011	13.7	210	3	68
2026-02-23T07:27	19.2	1011	13.6	210	3	69
2026-02-23T07:28	19.3	1011	13.7	210	3	70
2026-02-23T07:29	19.2	1011	13.6	210	3	70
2026-02-23T07:30	19.1	1011	13.5	210	3	70
2026-02-23T07:31	19.1	1011	13.5	210	4	70
2026-02-23T07:32	19.1	1011	13.5	210	4	70
2026-02-23T07:33	19.0	1011	13.6	210	4	70
2026-02-23T07:34	19.0	1011	13.6	210	4	70
2026-02-23T07:35	18.9	1011	13.5	210	4	70
2026-02-23T07:36	18.9	1011	13.5	210	3	70
2026-02-23T07:37	18.9	1011	13.5	210	3	70
2026-02-23T07:38	18.9	1011	13.5	200	3	69
2026-02-23T07:39	18.9	1011	13.8	200	3	70
2026-02-23T07:40	18.9	1011	13.8	200	3	69
2026-02-23T07:41	18.8	1011	13.7	200	3	69
2026-02-23T07:42	18.8	1011	13.7	200	2	69
2026-02-23T07:43	18.8	1011	13.7	200	2	68
2026-02-23T07:44	18.8	1011	13.7	190	2	68
2026-02-23T07:45	18.8	1011	13.7	190	2	68
2026-02-23T07:46	18.8	1011	13.7	200	2	68
2026-02-23T07:47	18.6	1011	13.7	200	2	68
2026-02-23T07:48	18.6	1011	13.7	200	2	68
2026-02-23T07:49	18.5	1011	13.6	190	2	68
2026-02-23T07:50	18.5	1012	13.8	190	2	68
2026-02-23T07:51	18.5	1012	13.8	190	2	68
2026-02-23T07:52	18.5	1012	13.8	200	2	68
2026-02-23T07:53	18.4	1012	13.7	200	2	68
2026-02-23T07:54	18.4	1012	13.7	200	2	68
2026-02-23T07:55	18.4	1012	13.7	190	2	68
2026-02-23T07:56	18.3	1012	13.6	190	2	68
2026-02-23T07:57	18.3	1012	13.6	190	2	67
2026-02-23T07:58	18.3	1012	13.6	200	2	67
2026-02-23T07:59	18.3	1012	13.6	200	2	67
2026-02-23T08:00	18.2	1012	13.5	200	2	68
2026-02-23T08:01	18.2	1012	13.7	190	2	68
2026-02-23T08:02	18.1	1012	13.6	90	2	68
2026-02-23T08:03	18.1	1012	13.6	70	2	68
2026-02-23T08:04	18.0	1012	13.7	130	2	68
2026-02-23T08:05	18.0	1012	13.7	110	2	68
2026-02-23T08:06	18.0	1012	13.7	80	2	68
2026-02-23T08:07	18.1	1012	13.8	70	2	68
2026-02-23T08:08	18.0	1012	13.3	60	2	68
2026-02-23T08:09	17.6	1012	12.1	50	2	68
2026-02-23T08:10	17.4	1013	11.7	40	2	68
2026-02-23T08:11	17.4	1013	11.7	30	2	68
2026-02-23T08:12	17.4	1013	11.7	30	2	68
2026-02-23T08:13	17.3	1013	11.6	20	2	68
2026-02-23T08:14	17.3	1013	11.6	10	2	69
2026-02-23T08:15	17.2	1013	11.5	10	2	69
2026-02-23T08:16	17.0	1013	11.3	360	2	69
2026-02-23T08:17	16.9	1013	11.0	360	2	69
2026-02-23T08:18	16.9	1013	11.0	360	2	70
2026-02-23T08:19	16.8	1013	11.1	10	2	70
2026-02-23T08:20	16.7	1013	10.8	20	2	70
2026-02-23T08:21	16.6	1013	10.7	30	2	70
2026-02-23T08:22	16.5	1013	10.6	40	2	70
2026-02-23T08:23	16.4	1013	10.5	40	2	70
2026-02-23T08:24	16.2	1013	10.3	40	2	70
2026-02-23T08:25	16.2	1013	10.3	40	2	70
2026-02-23T08:26	16.2	1013	10.3	50	3	70
2026-02-23T08:27	16.1	1013	10.2	60	3	70
2026-02-23T08:28	16.1	1013	10.2	60	3	70
2026-02-23T08:29	16.0	1013	9.9	50	3	70
2026-02-23T08:30	15.9	1013	9.8	50	3	70
2026-02-23T08:31	15.8	1013	9.7	50	3	70
2026-02-23T08:32	15.7	1013	9.6	50	3	70
2026-02-23T08:33	15.7	1013	9.8	60	3	70
2026-02-23T08:34	15.6	1013	9.7	60	3	70
2026-02-23T08:35	15.5	1013	9.6	50	3	70
2026-02-23T08:36	15.4	1013	9.5	60	3	70
2026-02-23T08:37	15.4	1013	9.5	60	3	70
2026-02-23T08:38	15.4	1013	9.5	60	2	70
2026-02-23T08:39	15.4	1013	9.5	60	2	70
2026-02-23T08:40	15.3	1013	9.7	60	2	70
2026-02-23T08:41	15.3	1013	9.7	60	2	70
2026-02-23T08:42	15.2	1013	9.6	60	2	70
2026-02-23T08:43	15.1	1013	9.5	50	2	70
2026-02-23T08:44	15.0	1013	9.6	60	3	70
2026-02-23T08:45	15.0	1013	9.6	60	3	70
2026-02-23T08:46	15.0	1013	9.6	60	3	70
2026-02-23T08:47	15.0	1013	9.6	60	3	70
2026-02-23T08:48	14.9	1013	9.7	60	3	70
2026-02-23T08:49	14.9	1013	9.7	60	3	70
2026-02-23T08:50	14.8	1013	9.6	60	3	70
2026-02-23T08:51	14.8	1013	9.6	60	3	70
2026-02-23T08:52	14.7	1013	9.5	60	4	70
2026-02-23T08:53	14.7	1013	9.5	60	4	69
2026-02-23T08:54	14.7	1013	9.5	60	4	69
2026-02-23T08:55	14.6	1014	9.4	60	4	68
2026-02-23T08:56	14.5	1014	9.3	60	4	68
2026-02-23T08:57	14.5	1014	9.3	60	4	68
2026-02-23T08:58	14.4	1014	9.2	60	4	67
2026-02-23T08:59	14.3	1014	9.1	60	4	67
2026-02-23T09:00	14.3	1014	9.1	60	4	67
2026-02-23T09:01	14.3	1014	9.1	60	4	66
2026-02-23T09:02	14.3	1014	9.1	60	4	66
2026-02-23T09:03	14.2	1014	9.0	60	4	66
2026-02-23T09:04	14.2	1014	9.0	60	4	66
2026-02-23T09:05	14.1	1014	8.9	60	4	66
2026-02-23T09:06	14.2	1014	9.0	60	3	66
2026-02-23T09:07	14.1	1014	8.9	50	4	66
2026-02-23T09:08	14.1	1014	8.7	50	3	66
2026-02-23T09:09	14.0	1014	8.6	60	4	66
2026-02-23T09:10	14.1	1014	8.9	60	4	66
2026-02-23T09:11	14.0	1014	8.6	60	4	66
2026-02-23T09:12	14.0	1014	8.6	60	4	66
2026-02-23T09:13	14.0	1014	8.6	60	4	66
2026-02-23T09:14	13.9	1014	8.5	60	4	66
2026-02-23T09:15	13.9	1014	8.5	60	4	66
2026-02-23T09:16	13.9	1014	8.5	60	4	66
2026-02-23T09:17	13.8	1014	8.4	60	4	66
2026-02-23T09:18	13.8	1014	8.4	60	4	66
2026-02-23T09:19	13.8	1014	8.4	60	4	66
2026-02-23T09:20	13.8	1014	8.4	60	4	66
2026-02-23T09:21	13.8	1014	8.4	60	3	66
2026-02-23T09:22	13.8	1014	8.4	60	4	66
2026-02-23T09:23	13.8	1014	8.2	60	3	67
2026-02-23T09:24	13.7	1014	8.1	60	4	67
2026-02-23T09:25	13.7	1014	8.1	70	4	67
2026-02-23T09:26	13.7	1014	8.1	70	4	67
2026-02-23T09:27	13.7	1014	8.1	70	4	67
2026-02-23T09:28	13.6	1014	8.2	70	4	67
2026-02-23T09:29	13.6	1014	8.2	70	4	67
2026-02-23T09:30	13.6	1014	8.2	70	4	67
2026-02-23T09:31	13.6	1014	8.2	70	4	67
2026-02-23T09:32	13.6	1014	8.2	70	4	67
2026-02-23T09:33	13.6	1014	8.2	60	4	67
2026-02-23T09:34	13.5	1014	8.1	60	4	67
2026-02-23T09:35	13.6	1014	8.2	60	4	68
2026-02-23T09:36	13.6	1014	8.2	60	3	67
2026-02-23T09:37	13.5	1014	8.1	60	4	67
2026-02-23T09:38	13.5	1014	8.1	60	3	68
2026-02-23T09:39	13.4	1015	8.1	60	3	68
2026-02-23T09:40	13.5	1014	8.1	60	3	68
2026-02-23T09:41	13.5	1014	8.1	70	3	68
2026-02-23T09:42	13.5	1014	8.1	70	3	68
2026-02-23T09:43	13.5	1014	8.1	70	3	68
2026-02-23T09:44	13.5	1014	8.1	70	3	68
2026-02-23T09:45	13.4	1015	8.1	70	3	68
2026-02-23T09:46	13.4	1015	8.1	70	3	68
2026-02-23T09:47	13.4	1015	8.1	70	3	68
2026-02-23T09:48	13.4	1015	8.1	70	4	69
2026-02-23T09:49	13.4	1015	8.1	70	4	69
2026-02-23T09:50	13.4	1015	8.1	70	4	68
2026-02-23T09:51	13.4	1015	8.1	60	4	68
2026-02-23T09:52	13.3	1015	8.0	60	4	68
2026-02-23T09:53	13.3	1015	8.0	60	4	69
2026-02-23T09:54	13.2	1015	7.9	60	3	68
2026-02-23T09:55	13.2	1015	7.9	50	3	68
2026-02-23T09:56	13.2	1015	7.9	50	3	68
2026-02-23T09:57	13.2	1015	7.9	50	3	68
2026-02-23T09:58	13.1	1015	7.8	50	3	68
2026-02-23T09:59	13.1	1015	7.8	50	3	68
2026-02-23T10:00	13.0	1015	7.7	50	3	68
2026-02-23T10:01	13.0	1015	7.9	50	3	68
2026-02-23T10:02	12.9	1015	7.8	50	3	68
2026-02-23T10:03	12.9	1015	7.8	50	3	68
2026-02-23T10:04	12.8	1015	7.7	50	3	68
2026-02-23T10:05	12.8	1015	7.7	50	3	68
2026-02-23T10:06	12.8	1015	7.7	60	3	68
2026-02-23T10:07	12.8	1015	7.9	60	3	68
2026-02-23T10:08	12.8	1015	7.9	60	3	68
2026-02-23T10:09	12.7	1015	7.8	50	3	68
2026-02-23T10:10	12.7	1015	7.8	50	2	68
2026-02-23T10:11	12.7	1015	7.8	50	3	69
2026-02-23T10:12	12.7	1015	7.8	60	3	69
2026-02-23T10:13	12.7	1015	7.8	50	3	68
2026-02-23T10:14	12.6	1015	7.5	50	3	69
2026-02-23T10:15	12.6	1015	7.5	50	3	69
2026-02-23T10:16	12.6	1015	7.5	50	3	68
2026-02-23T10:17	12.6	1015	7.5	50	3	69
2026-02-23T10:18	12.5	1015	7.4	50	3	69
2026-02-23T10:19	12.6	1015	7.5	60	3	69
2026-02-23T10:20	12.6	1015	7.5	60	3	69
2026-02-23T10:21	12.5	1015	7.4	60	3	69
2026-02-23T10:22	12.5	1015	7.4	60	3	69
2026-02-23T10:23	12.4	1015	7.5	70	3	69
2026-02-23T10:24	12.5	1015	7.4	70	3	69
2026-02-23T10:25	12.5	1015	7.4	70	3	69
2026-02-23T10:26	12.5	1015	7.4	70	3	69
2026-02-23T10:27	12.5	1015	7.4	70	3	69
2026-02-23T10:28	12.5	1015	7.4	70	3	69
2026-02-23T10:29	12.5	1015	7.4	70	3	69
2026-02-23T10:30	12.5	1015	7.4	70	3	69
2026-02-23T10:31	12.4	1015	7.3	70	3	69
2026-02-23T10:32	12.4	1015	7.3	70	3	69
2026-02-23T10:33	12.4	1015	7.3	60	3	69
2026-02-23T10:34	12.4	1015	7.3	60	3	69
2026-02-23T10:35	12.4	1015	7.3	60	3	70
2026-02-23T10:36	12.3	1015	7.2	60	3	70
2026-02-23T10:37	12.3	1015	7.2	60	3	70
2026-02-23T10:38	12.3	1015	7.2	60	3	70
2026-02-23T10:39	12.3	1015	7.2	50	3	70
2026-02-23T10:40	12.3	1015	7.2	50	3	70
2026-02-23T10:41	12.3	1015	7.2	50	3	70
2026-02-23T10:42	12.3	1016	7.2	50	3	70
2026-02-23T10:43	12.3	1016	7.2	50	3	70
2026-02-23T10:44	12.3	1016	7.2	60	3	70
2026-02-23T10:45	12.2	1016	7.1	60	3	70
2026-02-23T10:46	12.2	1016	7.1	60	3	70
2026-02-23T10:47	12.2	1016	7.1	60	3	70
2026-02-23T10:48	12.2	1016	7.1	60	3	70
2026-02-23T10:49	12.1	1016	7.0	60	3	70
2026-02-23T10:50	12.1	1016	7.0	60	3	70
2026-02-23T10:51	12.1	1016	7.0	70	3	70
2026-02-23T10:52	12.1	1016	6.8	70	4	70
2026-02-23T10:53	12.2	1016	6.9	70	4	70
2026-02-23T10:54	12.2	1016	6.9	70	4	70
2026-02-23T10:55	12.2	1016	6.9	70	4	70
2026-02-23T10:56	12.1	1016	6.8	70	4	70
2026-02-23T10:57	12.2	1016	6.9	60	4	70
2026-02-23T10:58	12.0	1016	6.7	70	3	70
2026-02-23T10:59	12.1	1016	7.0	70	3	70
2026-02-23T11:00	12.0	1016	6.9	60	3	70
2026-02-23T11:01	12.0	1016	6.9	60	3	70
2026-02-23T11:02	12.1	1016	7.0	60	3	70
2026-02-23T11:03	12.1	1016	7.0	60	3	70
2026-02-23T11:04	12.1	1016	7.0	60	3	70
2026-02-23T11:05	12.1	1016	7.0	60	3	70
2026-02-23T11:06	12.1	1016	6.8	60	2	70
2026-02-23T11:07	12.1	1016	6.8	60	3	70
2026-02-23T11:08	12.1	1016	6.8	60	3	70
2026-02-23T11:09	12.1	1016	6.8	60	3	70
2026-02-23T11:10	12.1	1016	6.8	60	3	70
2026-02-23T11:11	12.1	1016	6.8	60	3	70
2026-02-23T11:12	12.1	1016	6.8	60	3	70
2026-02-23T11:13	12.1	1016	6.8	60	3	70
2026-02-23T11:14	12.1	1016	6.8	60	3	70
2026-02-23T11:15	12.0	1016	6.7	60	3	70
2026-02-23T11:16	12.0	1016	6.7	60	3	70
2026-02-23T11:17	12.0	1016	6.7	60	4	70
2026-02-23T11:18	12.0	1016	6.7	60	3	70
2026-02-23T11:19	12.0	1016	6.7	60	4	70
2026-02-23T11:20	12.0	1016	6.7	60	3	70
2026-02-23T11:21	12.0	1016	6.7	60	4	70
2026-02-23T11:22	11.9	1016	6.6	70	4	70
2026-02-23T11:23	11.9	1016	6.6	60	3	70
2026-02-23T11:24	11.9	1016	6.6	60	4	70
2026-02-23T11:25	11.9	1016	6.6	60	3	70
2026-02-23T11:26	11.9	1016	6.6	60	4	70
2026-02-23T11:27	11.9	1016	6.6	60	3	70
2026-02-23T11:28	11.9	1016	6.6	60	3	70
2026-02-23T11:29	11.9	1016	6.6	60	4	70
2026-02-23T11:30	11.9	1016	6.6	60	4	70
2026-02-23T11:31	11.9	1016	6.6	60	3	70
2026-02-23T11:32	11.9	1016	6.6	50	3	70
2026-02-23T11:33	11.8	1016	6.5	60	3	70
2026-02-23T11:34	11.8	1016	6.5	60	3	70
2026-02-23T11:35	11.8	1016	6.5	60	3	70
2026-02-23T11:36	11.8	1016	6.5	60	3	70
2026-02-23T11:37	11.8	1016	6.5	60	3	70
2026-02-23T11:38	11.8	1016	6.5	60	3	70
2026-02-23T11:39	11.8	1016	6.5	60	3	70
2026-02-23T11:40	11.8	1016	6.5	60	3	70
2026-02-23T11:41	11.8	1016	6.5	60	3	70
2026-02-23T11:42	11.8	1016	6.5	60	3	70
2026-02-23T11:43	11.8	1016	6.3	60	3	70
2026-02-23T11:44	11.7	1016	6.4	60	3	70
2026-02-23T11:45	11.7	1016	6.4	60	3	70
2026-02-23T11:46	11.7	1016	6.4	60	3	70
2026-02-23T11:47	11.7	1016	6.4	60	3	70
2026-02-23T11:48	11.7	1016	6.2	60	3	70
2026-02-23T11:49	11.7	1016	6.2	70	3	70
2026-02-23T11:50	11.7	1016	6.2	70	3	70
2026-02-23T11:51	11.6	1016	6.3	70	3	70
2026-02-23T11:52	11.7	1016	6.2	70	3	70
2026-02-23T11:53	11.7	1016	6.2	70	3	70
2026-02-23T11:54	11.7	1016	6.2	70	3	70
2026-02-23T11:55	11.7	1016	6.2	60	3	70
2026-02-23T11:56	11.7	1017	6.2	60	4	70
2026-02-23T11:57	11.7	1017	6.2	60	4	70
2026-02-23T11:58	11.6	1017	6.1	60	3	70
2026-02-23T11:59	11.7	1017	6.2	60	3	70
2026-02-23T12:00	11.7	1017	6.2	60	3	70
2026-02-23T12:01	11.7	1017	6.2	60	3	70
2026-02-23T12:02	11.6	1017	6.1	60	3	70
2026-02-23T12:03	11.6	1017	6.1	60	3	70
2026-02-23T12:04	11.6	1017	6.3	60	3	70
2026-02-23T12:05	11.6	1017	6.3	60	3	70
2026-02-23T12:06	11.6	1017	6.3	60	3	70
2026-02-23T12:07	11.6	1017	6.3	70	3	70
2026-02-23T12:08	11.6	1017	6.3	70	3	70
2026-02-23T12:09	11.6	1017	6.3	70	3	70
2026-02-23T12:10	11.5	1017	6.2	70	4	70
2026-02-23T12:11	11.5	1017	6.2	70	4	70
2026-02-23T12:12	11.6	1017	6.3	70	4	70
2026-02-23T12:13	11.6	1017	6.3	70	4	70
2026-02-23T12:14	11.6	1017	6.3	70	4	70
2026-02-23T12:15	11.5	1017	6.2	70	4	70
2026-02-23T12:16	11.5	1017	6.2	70	4	70
2026-02-23T12:17	11.6	1017	6.3	60	4	70
2026-02-23T12:18	11.6	1017	6.3	60	4	70
2026-02-23T12:19	11.6	1017	6.3	60	4	70
2026-02-23T12:20	11.6	1017	6.3	60	4	70
2026-02-23T12:21	11.6	1017	6.3	60	4	70
2026-02-23T12:22	11.6	1017	6.3	60	4	70
2026-02-23T12:23	11.6	1017	6.3	60	4	70
2026-02-23T12:24	11.5	1017	6.2	60	4	70
2026-02-23T12:25	11.5	1017	6.2	60	4	70
2026-02-23T12:26	11.5	1017	6.2	70	4	70
2026-02-23T12:27	11.4	1017	6.1	60	4	70
2026-02-23T12:28	11.5	1017	6.2	60	4	70
2026-02-23T12:29	11.4	1017	6.1	60	3	70
2026-02-23T12:30	11.5	1017	6.2	60	3	70
2026-02-23T12:31	11.5	1017	6.2	60	3	70
2026-02-23T12:32	11.5	1017	6.2	60	3	70
2026-02-23T12:33	11.5	1017	6.0	60	3	70
2026-02-23T12:34	11.5	1017	6.0	60	3	70
2026-02-23T12:35	11.6	1017	6.1	70	3	70
2026-02-23T12:36	11.5	1017	6.0	60	3	70
2026-02-23T12:37	11.6	1017	6.1	70	3	70
2026-02-23T12:38	11.5	1017	6.0	70	3	70
2026-02-23T12:39	11.4	1017	5.9	70	3	70
2026-02-23T12:40	11.4	1017	6.1	70	3	70
2026-02-23T12:41	11.4	1017	6.1	70	3	70
2026-02-23T12:42	11.4	1017	6.1	60	3	70
2026-02-23T12:43	11.4	1017	6.1	60	3	70
2026-02-23T12:44	11.4	1017	6.1	70	3	70
2026-02-23T12:45	11.5	1017	6.0	70	3	70
2026-02-23T12:46	11.4	1017	6.1	70	3	70
2026-02-23T12:47	11.4	1017	5.9	60	3	70
2026-02-23T12:48	11.4	1017	6.1	60	3	70
2026-02-23T12:49	11.4	1017	6.1	60	3	70
2026-02-23T12:50	11.4	1017	6.1	70	3	70
2026-02-23T12:51	11.3	1017	6.0	70	3	70
2026-02-23T12:52	11.4	1017	6.1	60	3	70
2026-02-23T12:53	11.4	1017	5.9	60	3	70
2026-02-23T12:54	11.3	1017	5.8	70	3	70
2026-02-23T12:55	11.4	1017	5.9	60	3	70
2026-02-23T12:56	11.3	1017	5.8	60	3	70
2026-02-23T12:57	11.3	1017	5.8	60	3	70
2026-02-23T12:58	11.4	1018	5.9	60	3	70
2026-02-23T12:59	11.4	1018	5.9	60	3	70
2026-02-23T13:00	11.4	1018	5.9	50	3	70
2026-02-23T13:01	11.4	1018	5.9	60	3	70
2026-02-23T13:02	11.3	1018	5.8	60	3	70
2026-02-23T13:03	11.2	1018	5.7	60	3	70
2026-02-23T13:04	11.3	1018	5.8	60	3	70
2026-02-23T13:05	11.3	1018	5.8	60	3	70
2026-02-23T13:06	11.3	1018	5.8	60	3	70
2026-02-23T13:07	11.3	1018	5.8	60	3	70
2026-02-23T13:08	11.3	1018	5.8	60	3	70
2026-02-23T13:09	11.3	1018	5.8	60	3	70
2026-02-23T13:10	11.3	1018	5.8	70	3	70
2026-02-23T13:11	11.3	1018	5.8	70	3	70
2026-02-23T13:12	11.3	1018	5.8	70	3	70
2026-02-23T13:13	11.3	1018	5.8	70	3	70
2026-02-23T13:14	11.3	1018	5.8	60	3	70
2026-02-23T13:15	11.3	1018	5.8	60	3	70
2026-02-23T13:16	11.4	1018	5.9	60	3	70
2026-02-23T13:17	11.4	1018	5.9	60	3	70
2026-02-23T13:18	11.4	1018	5.9	60	3	70
2026-02-23T13:19	11.4	1018	5.9	60	3	70
2026-02-23T13:20	11.4	1018	6.1	60	3	70
2026-02-23T13:21	11.4	1018	5.9	60	3	70
2026-02-23T13:22	11.5	1018	6.2	60	3	70
2026-02-23T13:23	11.4	1018	6.1	60	3	70
2026-02-23T13:24	11.5	1018	6.2	70	3	70
2026-02-23T13:25	11.4	1018	6.1	70	3	70
2026-02-23T13:26	11.4	1018	6.1	70	3	70
2026-02-23T13:27	11.4	1018	6.1	70	3	70
2026-02-23T13:28	11.4	1018	6.1	70	3	70
2026-02-23T13:29	11.4	1018	6.1	70	3	70
2026-02-23T13:30	11.5	1018	6.2	70	3	70
2026-02-23T13:31	11.5	1018	6.2	70	3	70
2026-02-23T13:32	11.4	1018	6.1	70	3	70
2026-02-23T13:33	11.5	1018	6.2	70	3	70
2026-02-23T13:34	11.4	1018	6.1	70	3	70
2026-02-23T13:35	11.5	1018	6.2	70	3	70
2026-02-23T13:36	11.5	1018	6.2	60	3	70
2026-02-23T13:37	11.5	1018	6.2	70	3	70
2026-02-23T13:38	11.5	1018	6.2	60	3	70
2026-02-23T13:39	11.5	1018	6.2	70	3	70
2026-02-23T13:40	11.5	1018	6.2	60	3	70
2026-02-23T13:41	11.5	1018	6.2	70	3	70
2026-02-23T13:42	11.5	1018	6.2	70	3	70
2026-02-23T13:43	11.5	1018	6.2	70	3	70
2026-02-23T13:44	11.6	1018	6.3	70	3	70
2026-02-23T13:45	11.6	1018	6.3	70	3	70
2026-02-23T13:46	11.6	1018	6.3	70	3	70
2026-02-23T13:47	11.6	1018	6.3	70	3	70
2026-02-23T13:48	11.5	1018	6.2	70	3	70
2026-02-23T13:49	11.5	1018	6.2	70	3	70
2026-02-23T13:50	11.5	1018	6.2	70	3	70
2026-02-23T13:51	11.6	1018	6.3	60	3	70
2026-02-23T13:52	11.6	1018	6.3	60	3	70
2026-02-23T13:53	11.6	1018	6.3	60	3	70
2026-02-23T13:54	11.6	1018	6.3	60	3	70
2026-02-23T13:55	11.6	1018	6.3	60	3	70
2026-02-23T13:56	11.6	1018	6.3	60	3	70
2026-02-23T13:57	11.6	1018	6.3	60	3	70
2026-02-23T13:58	11.6	1018	6.3	60	3	70
2026-02-23T13:59	11.6	1018	6.3	60	3	70
2026-02-23T14:00	11.5	1018	6.2	60	3	70
2026-02-23T14:01	11.6	1018	6.3	60	3	70
2026-02-23T14:02	11.6	1018	6.3	60	3	70
2026-02-23T14:03	11.6	1018	6.3	60	3	70
2026-02-23T14:04	11.6	1018	6.3	60	3	70
2026-02-23T14:05	11.6	1018	6.3	60	3	70
2026-02-23T14:06	11.6	1018	6.5	70	3	70
2026-02-23T14:07	11.6	1018	6.5	60	3	70
2026-02-23T14:08	11.6	1018	6.5	60	3	70
2026-02-23T14:09	11.6	1018	6.5	60	3	70
2026-02-23T14:10	11.6	1018	6.5	60	3	70
2026-02-23T14:11	11.6	1018	6.5	60	3	70
2026-02-23T14:12	11.6	1018	6.5	60	3	70
2026-02-23T14:13	11.6	1018	6.5	60	3	70
2026-02-23T14:14	11.6	1018	6.5	60	3	70
2026-02-23T14:15	11.6	1018	6.5	60	3	70
2026-02-23T14:16	11.6	1018	6.5	60	3	70
2026-02-23T14:17	11.6	1018	6.5	60	3	70
2026-02-23T14:18	11.6	1018	6.5	60	3	70
2026-02-23T14:19	11.6	1018	6.5	60	3	70
2026-02-23T14:20	11.6	1018	6.5	60	3	70
2026-02-23T14:21	11.5	1018	6.4	60	2	70
2026-02-23T14:22	11.5	1018	6.4	60	3	70
2026-02-23T14:23	11.6	1018	6.5	70	3	70
2026-02-23T14:24	11.5	1018	6.4	70	3	70
2026-02-23T14:25	11.5	1018	6.4	70	3	70
2026-02-23T14:26	11.5	1018	6.4	70	2	70
2026-02-23T14:27	11.5	1018	6.4	70	2	70
2026-02-23T14:28	11.5	1018	6.4	70	2	70
2026-02-23T14:29	11.5	1018	6.4	70	2	70
2026-02-23T14:30	11.5	1018	6.4	70	2	70
2026-02-23T14:31	11.5	1018	6.4	60	3	70
2026-02-23T14:32	11.5	1018	6.4	60	2	70
2026-02-23T14:33	11.5	1018	6.4	60	2	70
2026-02-23T14:34	11.5	1018	6.4	60	2	70
2026-02-23T14:35	11.4	1018	6.3	60	2	70
2026-02-23T14:36	11.4	1018	6.3	60	2	70
2026-02-23T14:37	11.5	1018	6.4	50	2	70
2026-02-23T14:38	11.4	1018	6.3	50	2	70
2026-02-23T14:39	11.4	1018	6.3	50	2	70
2026-02-23T14:40	11.4	1018	6.3	50	2	70
2026-02-23T14:41	11.4	1018	6.3	50	2	70
2026-02-23T14:42	11.4	1018	6.3	40	2	70
2026-02-23T14:43	11.4	1018	6.3	50	2	70
2026-02-23T14:44	11.4	1018	6.3	50	3	70
2026-02-23T14:45	11.3	1018	6.3	50	3	70
2026-02-23T14:46	11.3	1018	6.3	50	3	70
2026-02-23T14:47	11.3	1018	6.3	50	3	70
2026-02-23T14:48	11.3	1018	6.3	50	3	70
2026-02-23T14:49	11.3	1018	6.3	60	3	70
2026-02-23T14:50	11.3	1018	6.3	60	3	70
2026-02-23T14:51	11.3	1018	6.3	60	3	70
2026-02-23T14:52	11.3	1018	6.3	60	3	70
2026-02-23T14:53	11.3	1018	6.3	60	3	70
2026-02-23T14:54	11.3	1018	6.3	60	3	70
2026-02-23T14:55	11.3	1018	6.3	60	3	70
2026-02-23T14:56	11.3	1018	6.3	60	3	70
2026-02-23T14:57	11.3	1018	6.3	60	3	70
2026-02-23T14:58	11.3	1018	6.3	60	3	70
2026-02-23T14:59	11.2	1018	6.2	60	3	70
2026-02-23T15:00	11.3	1018	6.3	60	3	70
2026-02-23T15:01	11.3	1018	6.3	60	3	70
2026-02-23T15:02	11.2	1018	6.2	60	3	70
2026-02-23T15:03	11.2	1018	6.2	60	3	70
2026-02-23T15:04	11.2	1017	6.2	70	3	70
2026-02-23T15:05	11.2	1017	6.2	70	3	70
2026-02-23T15:06	11.2	1017	6.2	70	3	70
2026-02-23T15:07	11.2	1017	6.2	70	4	70
2026-02-23T15:08	11.2	1017	6.2	70	3	70
2026-02-23T15:09	11.2	1017	6.4	70	3	70
2026-02-23T15:10	11.2	1017	6.4	70	3	70
2026-02-23T15:11	11.2	1017	6.4	70	3	70
2026-02-23T15:12	11.2	1017	6.4	70	3	70
2026-02-23T15:13	11.2	1018	6.4	70	3	70
2026-02-23T15:14	11.2	1018	6.4	70	3	70
2026-02-23T15:15	11.2	1018	6.4	70	3	70
2026-02-23T15:16	11.2	1018	6.4	60	3	70
2026-02-23T15:17	11.2	1018	6.4	60	3	70
2026-02-23T15:18	11.2	1018	6.4	60	3	70
2026-02-23T15:19	11.2	1018	6.4	50	3	70
2026-02-23T15:20	11.2	1018	6.4	50	3	70
2026-02-23T15:21	11.2	1018	6.4	50	3	70
2026-02-23T15:22	11.2	1018	6.4	50	3	70
2026-02-23T15:23	11.1	1018	6.3	50	3	70
2026-02-23T15:24	11.1	1018	6.3	50	3	70
2026-02-23T15:25	11.1	1018	6.3	50	3	70
2026-02-23T15:26	11.1	1018	6.3	50	3	70
2026-02-23T15:27	11.1	1018	6.3	50	3	70
2026-02-23T15:28	11.1	1018	6.3	60	3	70
2026-02-23T15:29	11.1	1018	6.3	50	3	70
2026-02-23T15:30	11.1	1018	6.3	60	3	70
2026-02-23T15:31	11.1	1018	6.3	50	3	70
2026-02-23T15:32	11.1	1018	6.3	50	2	70
2026-02-23T15:33	11.1	1018	6.3	50	2	70
2026-02-23T15:34	11.1	1018	6.3	60	2	70
2026-02-23T15:35	11.1	1018	6.3	60	2	70
2026-02-23T15:36	11.1	1018	6.3	60	2	70
2026-02-23T15:37	11.1	1018	6.5	60	2	70
2026-02-23T15:38	11.1	1018	6.5	60	2	70
2026-02-23T15:39	11.1	1018	6.3	60	2	70
2026-02-23T15:40	11.1	1018	6.3	60	2	70
2026-02-23T15:41	11.1	1018	6.5	70	2	70
2026-02-23T15:42	11.1	1018	6.5	70	2	70
2026-02-23T15:43	11.1	1018	6.3	60	2	70
2026-02-23T15:44	11.1	1018	6.3	60	2	70
2026-02-23T15:45	11.1	1018	6.5	60	2	70
2026-02-23T15:46	11.1	1018	6.5	60	2	70
2026-02-23T15:47	11.1	1018	6.5	60	2	70
2026-02-23T15:48	11.1	1018	6.5	60	2	70
2026-02-23T15:49	11.1	1018	6.5	60	2	70
2026-02-23T15:50	11.1	1018	6.5	60	2	70
2026-02-23T15:51	11.1	1018	6.5	60	2	70
2026-02-23T15:52	11.0	1018	6.4	60	2	70
2026-02-23T15:53	11.1	1018	6.3	60	2	70
2026-02-23T15:54	11.0	1018	6.4	60	2	70
2026-02-23T15:55	11.0	1018	6.4	60	2	70
2026-02-23T15:56	11.1	1018	6.5	60	2	70
2026-02-23T15:57	11.1	1018	6.5	60	2	70
2026-02-23T15:58	11.0	1018	6.4	60	2	70
2026-02-23T15:59	11.0	1018	6.4	60	2	70
2026-02-23T16:00	11.0	1018	6.4	60	2	70
2026-02-23T16:01	11.1	1018	6.5	70	2	70
2026-02-23T16:02	11.0	1018	6.4	70	2	70
2026-02-23T16:03	11.0	1018	6.4	70	2	70
2026-02-23T16:04	11.0	1018	6.4	60	2	70
2026-02-23T16:05	11.0	1018	6.4	60	3	70
2026-02-23T16:06	11.0	1018	6.4	60	2	70
2026-02-23T16:07	11.0	1018	6.4	50	2	70
2026-02-23T16:08	11.0	1019	6.4	50	2	70
2026-02-23T16:09	11.0	1019	6.4	50	2	70
2026-02-23T16:10	11.0	1019	6.4	50	2	70
2026-02-23T16:11	11.0	1019	6.4	50	2	70
2026-02-23T16:12	11.0	1019	6.4	50	2	70
2026-02-23T16:13	11.0	1019	6.4	50	2	70
2026-02-23T16:14	11.0	1019	6.4	50	2	70
2026-02-23T16:15	11.0	1019	6.4	50	2	70
2026-02-23T16:16	11.0	1019	6.4	50	2	70
2026-02-23T16:17	11.0	1019	6.4	50	2	70
2026-02-23T16:18	11.0	1019	6.4	50	2	70
2026-02-23T16:19	11.0	1019	6.4	50	2	70
2026-02-23T16:20	11.0	1019	6.4	50	2	70
2026-02-23T16:21	11.0	1019	6.4	50	2	70
2026-02-23T16:22	11.0	1019	6.4	40	2	70
2026-02-23T16:23	11.0	1019	6.4	40	2	70
2026-02-23T16:24	11.0	1019	6.4	40	2	70
2026-02-23T16:25	11.0	1019	6.4	50	2	70
2026-02-23T16:26	11.0	1019	6.4	50	2	70
2026-02-23T16:27	11.0	1019	6.6	50	2	70
2026-02-23T16:28	11.0	1019	6.6	50	2	70
2026-02-23T16:29	11.0	1019	6.6	50	2	70
2026-02-23T16:30	11.0	1019	6.6	50	2	70
2026-02-23T16:31	11.0	1019	6.6	50	2	70
2026-02-23T16:32	11.0	1019	6.6	50	2	70
2026-02-23T16:33	11.0	1019	6.6	40	2	70
2026-02-23T16:34	11.0	1019	6.6	40	2	70
2026-02-23T16:35	10.9	1019	6.5	30	2	70
2026-02-23T16:36	10.9	1019	6.5	20	2	70
2026-02-23T16:37	10.9	1019	6.5	20	2	70
2026-02-23T16:38	10.9	1019	6.5	20	2	70
2026-02-23T16:39	10.9	1019	6.5	30	2	70
2026-02-23T16:40	10.9	1019	6.5	30	2	70
2026-02-23T16:41	10.9	1019	6.5	30	2	70
2026-02-23T16:42	10.9	1019	6.5	20	2	70
2026-02-23T16:43	10.9	1019	6.5	30	2	70
2026-02-23T16:44	10.8	1019	6.4	40	2	70
2026-02-23T16:45	10.9	1019	6.5	40	2	70
2026-02-23T16:46	10.9	1019	6.5	40	2	70
2026-02-23T16:47	10.8	1019	6.4	40	2	70
2026-02-23T16:48	10.9	1019	6.5	40	2	70
2026-02-23T16:49	10.9	1019	6.5	30	2	70
2026-02-23T16:50	10.9	1019	6.5	30	2	70
2026-02-23T16:51	10.9	1019	6.5	30	2	70
2026-02-23T16:52	10.9	1019	6.5	30	2	70
2026-02-23T16:53	10.8	1019	6.4	30	2	70
2026-02-23T16:54	10.8	1019	6.4	20	2	70
2026-02-23T16:55	10.8	1019	6.6	20	2	70
2026-02-23T16:56	10.8	1019	6.6	20	2	70
2026-02-23T16:57	10.8	1019	6.6	20	2	70
2026-02-23T16:58	10.8	1019	6.6	20	1	70
2026-02-23T16:59	10.8	1019	6.6	20	1	70
2026-02-23T17:00	10.8	1019	6.6	20	1	70
2026-02-23T17:01	10.8	1019	6.6	20	2	70
2026-02-23T17:02	10.8	1019	6.6	20	2	70
2026-02-23T17:03	10.7	1019	6.5	20	1	70
2026-02-23T17:04	10.7	1019	6.5	20	1	70
2026-02-23T17:05	10.8	1019	6.6	20	1	70
2026-02-23T17:06	10.8	1019	6.6	20	1	70
2026-02-23T17:07	10.8	1019	6.6	30	1	70
2026-02-23T17:08	10.7	1019	6.5	30	1	70
2026-02-23T17:09	10.7	1019	6.5	30	1	70
2026-02-23T17:10	10.7	1019	6.5	40	1	70
2026-02-23T17:11	10.7	1019	6.5	40	1	70
2026-02-23T17:12	10.7	1019	6.5	40	1	70
2026-02-23T17:13	10.6	1019	6.4	30	1	70
2026-02-23T17:14	10.6	1019	6.4	30	1	70
2026-02-23T17:15	10.6	1019	6.6	40	1	70
2026-02-23T17:16	10.6	1019	6.6	30	1	70
2026-02-23T17:17	10.6	1019	6.6	30	1	70
2026-02-23T17:18	10.6	1019	6.6	30	1	70
2026-02-23T17:19	10.6	1019	6.6	30	1	70
2026-02-23T17:20	10.6	1019	6.6	30	2	70
2026-02-23T17:21	10.7	1019	6.7	30	2	70
2026-02-23T17:22	10.7	1019	6.7	30	2	70
2026-02-23T17:23	10.7	1019	6.7	30	2	70
2026-02-23T17:24	10.7	1019	6.7	30	2	70
2026-02-23T17:25	10.6	1019	6.6	30	1	70
2026-02-23T17:26	10.7	1019	6.7	30	1	70
2026-02-23T17:27	10.7	1019	6.7	30	1	70
2026-02-23T17:28	10.6	1019	6.6	30	1	70
2026-02-23T17:29	10.6	1019	6.6	20	1	70
2026-02-23T17:30	10.6	1019	6.6	20	1	70
2026-02-23T17:31	10.6	1019	6.6	10	1	70
2026-02-23T17:32	10.6	1019	6.6	10	1	70
2026-02-23T17:33	10.6	1019	6.6	10	1	70
2026-02-23T17:34	10.6	1019	6.6	10	1	70
2026-02-23T17:35	10.6	1019	6.6	10	1	70
2026-02-23T17:36	10.6	1019	6.6	10	2	70
2026-02-23T17:37	10.6	1019	6.6	10	2	70
2026-02-23T17:38	10.5	1019	6.5	10	2	70
2026-02-23T17:39	10.6	1019	6.6	10	2	70
2026-02-23T17:40	10.6	1019	6.6	10	1	70
2026-02-23T17:41	10.6	1019	6.6	10	1	70
2026-02-23T17:42	10.6	1019	6.6	10	2	70
2026-02-23T17:43	10.6	1019	6.6	10	2	70
2026-02-23T17:44	10.6	1019	6.6	10	2	70
2026-02-23T17:45	10.6	1019	6.6	10	2	70
2026-02-23T17:46	10.6	1019	6.6	10	2	70
2026-02-23T17:47	10.5	1019	6.5	10	2	70
2026-02-23T17:48	10.5	1019	6.5	10	2	70
2026-02-23T17:49	10.5	1019	6.5	10	2	70
2026-02-23T17:50	10.5	1019	6.5	10	2	70
2026-02-23T17:51	10.5	1019	6.5	10	2	70
2026-02-23T17:52	10.5	1019	6.5	10	2	70
2026-02-23T17:53	10.5	1019	6.5	10	2	70
2026-02-23T17:54	10.5	1019	6.5	10	2	70
2026-02-23T17:55	10.5	1019	6.7	360	2	70
2026-02-23T17:56	10.5	1019	6.7	360	2	70
2026-02-23T17:57	10.5	1019	6.7	360	2	70
2026-02-23T17:58	10.5	1019	6.7	360	2	70
2026-02-23T17:59	10.5	1019	6.7	360	1	70
2026-02-23T18:00	10.4	1019	6.6	360	1	70
2026-02-23T18:01	10.4	1019	6.6	10	1	70
2026-02-23T18:02	10.5	1019	6.7	360	1	70
2026-02-23T18:03	10.4	1019	6.6	10	1	70
2026-02-23T18:04	10.4	1019	6.6	360	1	70
2026-02-23T18:05	10.4	1019	6.6	10	2	70
2026-02-23T18:06	10.4	1019	6.6	10	2	70
2026-02-23T18:07	10.4	1019	6.6	360	2	70
2026-02-23T18:08	10.4	1020	6.6	360	2	70
2026-02-23T18:09	10.5	1020	6.7	360	2	70
2026-02-23T18:10	10.4	1020	6.6	360	2	70
2026-02-23T18:11	10.4	1020	6.6	360	2	70
2026-02-23T18:12	10.5	1020	6.7	360	2	70
2026-02-23T18:13	10.5	1020	6.7	360	2	70
2026-02-23T18:14	10.5	1020	6.7	360	2	70
2026-02-23T18:15	10.5	1020	6.7	10	2	70
2026-02-23T18:16	10.5	1020	6.7	10	2	70
2026-02-23T18:17	10.5	1020	6.7	10	2	70
2026-02-23T18:18	10.5	1020	6.7	360	2	70
2026-02-23T18:19	10.5	1020	6.7	360	2	70
2026-02-23T18:20	10.5	1020	6.5	10	2	70
2026-02-23T18:21	10.5	1020	6.5	10	2	70
2026-02-23T18:22	10.5	1020	6.5	360	2	70
2026-02-23T18:23	10.5	1020	6.5	10	1	70
2026-02-23T18:24	10.5	1020	6.5	10	1	70
2026-02-23T18:25	10.5	1020	6.5	10	1	70
2026-02-23T18:26	10.4	1020	6.4	360	1	70
2026-02-23T18:27	10.4	1020	6.4	10	1	70
2026-02-23T18:28	10.4	1020	6.4	10	1	70
2026-02-23T18:29	10.4	1020	6.4	10	1	70
2026-02-23T18:30	10.4	1020	6.4	10	1	70
2026-02-23T18:31	10.4	1020	6.4	10	1	70
2026-02-23T18:32	10.3	1020	6.5	20	1	70
2026-02-23T18:33	10.3	1020	6.5	20	1	70
2026-02-23T18:34	10.3	1020	6.5	20	2	70
2026-02-23T18:35	10.3	1020	6.5	20	2	70
2026-02-23T18:36	10.3	1020	6.5	20	2	70
2026-02-23T18:37	10.2	1020	6.4	20	2	70
2026-02-23T18:38	10.2	1020	6.4	30	2	70
2026-02-23T18:39	10.2	1020	6.4	30	2	70
2026-02-23T18:40	10.2	1020	6.2	40	2	70
2026-02-23T18:41	10.2	1019	6.2	40	2	70
2026-02-23T18:42	10.1	1019	6.1	40	2	70
2026-02-23T18:43	10.2	1019	6.2	40	2	70
2026-02-23T18:44	10.1	1019	6.1	40	2	70
2026-02-23T18:45	10.2	1019	6.2	40	2	70
2026-02-23T18:46	10.1	1019	6.1	40	2	70
2026-02-23T18:47	10.1	1019	6.1	40	2	70
2026-02-23T18:48	10.0	1020	6.0	40	2	70
2026-02-23T18:49	10.0	1020	6.0	40	2	70
2026-02-23T18:50	10.1	1020	6.1	40	2	70
2026-02-23T18:51	10.1	1020	5.9	40	2	70
2026-02-23T18:52	10.1	1020	5.9	40	2	70
2026-02-23T18:53	10.1	1020	5.9	40	2	70
2026-02-23T18:54	10.0	1020	5.8	40	2	70
2026-02-23T18:55	10.0	1020	5.8	30	2	70
2026-02-23T18:56	10.1	1020	5.7	30	2	70
2026-02-23T18:57	10.1	1020	5.7	30	2	70
2026-02-23T18:58	10.1	1020	5.7	30	2	70
2026-02-23T18:59	10.0	1020	5.4	30	2	70
2026-02-23T19:00	10.0	1020	5.4	30	2	70
2026-02-23T19:01	10.0	1020	5.2	20	2	70
2026-02-23T19:02	10.0	1020	5.2	20	2	70
2026-02-23T19:03	10.0	1020	5.2	20	2	70
2026-02-23T19:04	10.0	1020	5.2	20	2	70
2026-02-23T19:05	10.0	1020	5.2	20	2	70
2026-02-23T19:06	10.0	1020	5.2	20	2	70
2026-02-23T19:07	10.0	1020	5.0	20	2	70
2026-02-23T19:08	10.0	1020	5.0	30	2	70
2026-02-23T19:09	10.0	1020	5.0	30	2	70
2026-02-23T19:10	10.1	1020	5.1	30	2	70
2026-02-23T19:11	10.0	1020	5.0	40	2	70
2026-02-23T19:12	10.0	1020	5.0	40	2	70
2026-02-23T19:13	10.0	1020	5.0	40	2	70
2026-02-23T19:14	10.1	1020	4.9	50	2	70
2026-02-23T19:15	10.0	1020	4.8	50	2	70
2026-02-23T19:16	10.0	1020	4.8	60	2	70
2026-02-23T19:17	9.9	1020	4.7	60	2	70
2026-02-23T19:18	10.0	1020	4.8	60	2	70
2026-02-23T19:19	9.9	1020	4.7	60	2	70
2026-02-23T19:20	9.9	1020	4.7	60	2	70
2026-02-23T19:21	9.9	1020	4.7	60	2	70
2026-02-23T19:22	9.8	1020	4.6	60	2	70
2026-02-23T19:23	9.8	1020	4.6	70	2	70
2026-02-23T19:24	9.8	1020	4.6	70	2	70
2026-02-23T19:25	9.8	1020	4.6	60	2	70
2026-02-23T19:26	9.8	1020	4.6	60	2	70
2026-02-23T19:27	9.8	1020	4.4	60	1	70
2026-02-23T19:28	9.8	1020	4.4	60	1	70
2026-02-23T19:29	9.8	1020	4.4	60	1	70
2026-02-23T19:30	9.8	1020	4.4	60	1	70
2026-02-23T19:31	9.8	1020	4.4	60	2	70
2026-02-23T19:32	9.8	1020	4.4	50	2	70
2026-02-23T19:33	9.8	1020	4.4	50	2	70
2026-02-23T19:34	9.9	1020	4.5	40	2	70
2026-02-23T19:35	9.8	1020	4.2	50	2	70
2026-02-23T19:36	9.8	1020	4.2	40	2	70
2026-02-23T19:37	9.8	1020	4.4	40	2	70
2026-02-23T19:38	9.7	1020	4.3	40	2	70
2026-02-23T19:39	9.7	1020	4.1	40	2	70
2026-02-23T19:40	9.9	1020	4.3	40	2	70
2026-02-23T19:41	9.8	1020	4.2	40	2	70
2026-02-23T19:42	9.8	1020	4.2	40	2	70
2026-02-23T19:43	9.8	1020	4.2	40	2	70
2026-02-23T19:44	9.9	1020	4.1	30	2	70
2026-02-23T19:45	9.9	1020	4.1	30	2	70
2026-02-23T19:46	10.0	1020	4.2	30	2	70
2026-02-23T19:47	9.9	1020	4.1	30	2	70
2026-02-23T19:48	9.9	1020	4.1	40	2	70
2026-02-23T19:49	9.9	1020	4.1	30	2	70
2026-02-23T19:50	9.9	1020	4.1	30	2	70
2026-02-23T19:51	9.9	1020	4.1	30	2	70
2026-02-23T19:52	10.0	1020	4.2	30	2	70
2026-02-23T19:53	10.0	1020	4.2	30	2	70
2026-02-23T19:54	10.0	1020	4.0	30	2	70
2026-02-23T19:55	10.0	1020	4.2	30	2	70
2026-02-23T19:56	10.0	1021	4.0	30	2	70
2026-02-23T19:57	9.9	1021	4.1	30	2	70
2026-02-23T19:58	9.9	1021	4.1	30	2	70
2026-02-23T19:59	9.9	1021	4.1	30	2	70
2026-02-23T20:00	9.9	1021	3.9	30	2	70
2026-02-23T20:01	9.9	1021	3.9	30	2	70
2026-02-23T20:02	9.9	1021	3.9	30	2	70
2026-02-23T20:03	9.9	1021	3.9	30	2	70
2026-02-23T20:04	9.9	1021	3.9	30	2	70
2026-02-23T20:05	9.9	1021	3.9	30	2	70
2026-02-23T20:06	9.9	1021	3.9	30	2	70
2026-02-23T20:07	9.9	1021	3.9	30	2	70
2026-02-23T20:08	9.9	1021	3.6	30	1	70
2026-02-23T20:09	10.0	1021	3.7	30	2	70
2026-02-23T20:10	9.9	1021	3.6	40	2	70
2026-02-23T20:11	9.9	1021	3.6	40	2	70
2026-02-23T20:12	9.9	1021	3.6	40	2	70
2026-02-23T20:13	9.8	1021	3.6	40	2	70
2026-02-23T20:14	9.9	1021	3.6	40	2	70
2026-02-23T20:15	9.8	1021	3.6	40	2	70
2026-02-23T20:16	9.9	1021	3.6	50	2	70
2026-02-23T20:17	9.9	1021	3.6	50	2	70
2026-02-23T20:18	9.9	1021	3.6	50	2	70
2026-02-23T20:19	9.8	1021	3.6	50	2	70
2026-02-23T20:20	9.9	1021	3.6	50	2	70
2026-02-23T20:21	9.8	1021	3.6	50	2	70
2026-02-23T20:22	9.8	1021	3.6	40	2	70
2026-02-23T20:23	9.8	1021	3.6	40	2	70
2026-02-23T20:24	9.8	1021	3.6	30	2	70
2026-02-23T20:25	9.7	1021	3.5	30	2	70
2026-02-23T20:26	9.8	1021	3.6	30	2	70
2026-02-23T20:27	9.8	1021	3.6	30	2	70
2026-02-23T20:28	9.8	1021	3.6	30	2	70
2026-02-23T20:29	9.7	1021	3.5	30	2	70
2026-02-23T20:30	9.7	1021	3.5	40	2	70
2026-02-23T20:31	9.7	1021	3.5	40	2	70
2026-02-23T20:32	9.8	1021	3.6	40	1	70
2026-02-23T20:33	9.8	1021	3.6	40	2	70
2026-02-23T20:34	9.7	1021	3.5	40	2	70
2026-02-23T20:35	9.8	1021	3.6	40	1	70
2026-02-23T20:36	9.7	1021	3.5	40	1	70
2026-02-23T20:37	9.5	1021	3.3	40	1	70
2026-02-23T20:38	9.5	1021	3.5	40	1	70
2026-02-23T20:39	9.6	1021	3.6	40	1	70
2026-02-23T20:40	9.6	1021	3.6	40	1	70
2026-02-23T20:41	9.6	1021	3.4	30	1	70
2026-02-23T20:42	9.4	1021	3.4	30	1	70
2026-02-23T20:43	9.5	1021	3.5	30	1	70
2026-02-23T20:44	9.6	1021	3.6	30	1	70
2026-02-23T20:45	9.6	1021	3.6	30	1	70
2026-02-23T20:46	9.5	1021	3.5	40	1	70
2026-02-23T20:47	9.4	1021	3.4	40	2	70
2026-02-23T20:48	9.5	1021	3.5	40	2	70
2026-02-23T20:49	9.4	1021	3.4	40	2	70
2026-02-23T20:50	9.4	1021	3.4	40	2	70
2026-02-23T20:51	9.5	1021	3.3	40	2	70
2026-02-23T20:52	9.5	1021	3.3	50	2	70
2026-02-23T20:53	9.6	1021	3.4	50	2	70
2026-02-23T20:54	9.5	1021	3.3	50	2	70
2026-02-23T20:55	9.5	1021	3.3	50	2	70
2026-02-23T20:56	9.5	1021	3.3	50	2	70
2026-02-23T20:57	9.4	1021	3.2	50	2	70
2026-02-23T20:58	9.4	1021	3.2	50	2	70
2026-02-23T20:59	9.5	1021	3.3	40	2	70
2026-02-23T21:00	9.5	1021	3.3	40	2	70
2026-02-23T21:01	9.3	1021	3.1	40	2	70
2026-02-23T21:02	9.2	1021	3.0	30	2	70
2026-02-23T21:03	9.3	1021	3.3	30	2	70
2026-02-23T21:04	9.4	1021	3.2	30	2	70
2026-02-23T21:05	9.3	1021	3.3	30	2	70
2026-02-23T21:06	9.3	1021	3.3	30	2	70
2026-02-23T21:07	9.3	1021	3.1	30	2	70
2026-02-23T21:08	9.4	1021	3.2	30	2	70
2026-02-23T21:09	9.4	1021	3.2	30	2	70
2026-02-23T21:10	9.4	1021	3.2	40	2	70
2026-02-23T21:11	9.3	1021	3.1	40	2	70
2026-02-23T21:12	9.4	1021	3.2	40	2	70
2026-02-23T21:13	9.4	1021	3.2	40	2	70
2026-02-23T21:14	9.2	1021	3.0	40	2	70
2026-02-23T21:15	9.3	1021	3.1	40	2	70
2026-02-23T21:16	9.3	1021	3.1	40	2	70
2026-02-23T21:17	9.4	1021	3.2	40	2	70
2026-02-23T21:18	9.2	1021	3.0	40	2	70
2026-02-23T21:19	9.3	1021	3.1	40	2	70
2026-02-23T21:20	9.2	1021	3.0	40	2	70
2026-02-23T21:21	9.2	1021	3.0	40	2	70
2026-02-23T21:22	9.3	1021	3.1	40	2	70
2026-02-23T21:23	9.3	1021	3.1	40	2	70
2026-02-23T21:24	9.3	1021	3.1	50	2	70
2026-02-23T21:25	9.3	1021	3.1	50	2	70
2026-02-23T21:26	9.2	1021	3.0	50	2	70
2026-02-23T21:27	9.1	1021	2.9	50	2	70
2026-02-23T21:28	9.2	1021	3.2	50	2	70
2026-02-23T21:29	9.3	1021	3.3	50	2	70
2026-02-23T21:30	9.1	1021	3.1	50	2	70
2026-02-23T21:31	9.1	1021	3.1	40	2	70
2026-02-23T21:32	9.0	1021	3.0	40	1	70
2026-02-23T21:33	8.9	1021	2.9	50	1	70
2026-02-23T21:34	9.0	1021	3.2	50	1	70
2026-02-23T21:35	9.1	1021	3.3	40	1	70
2026-02-23T21:36	9.1	1021	3.3	40	1	70
2026-02-23T21:37	9.1	1021	3.3	40	1	70
2026-02-23T21:38	9.1	1021	3.3	40	2	70
2026-02-23T21:39	9.1	1021	3.3	40	2	70
2026-02-23T21:40	9.2	1021	3.4	40	2	70
2026-02-23T21:41	9.2	1021	3.4	40	2	70
2026-02-23T21:42	9.2	1021	3.2	50	2	70
2026-02-23T21:43	9.3	1021	3.3	40	2	70
2026-02-23T21:44	9.3	1021	3.3	40	2	70
2026-02-23T21:45	9.2	1021	3.2	50	2	70
2026-02-23T21:46	9.1	1021	3.3	50	2	70
2026-02-23T21:47	9.2	1021	3.4	50	2	70
2026-02-23T21:48	9.2	1022	3.4	50	2	70
2026-02-23T21:49	9.2	1022	3.4	50	1	70
2026-02-23T21:50	9.3	1022	3.5	50	1	70
2026-02-23T21:51	9.4	1022	3.4	60	1	70
2026-02-23T21:52	9.4	1022	3.4	50	1	70
2026-02-23T21:53	9.4	1022	3.4	60	1	70
2026-02-23T21:54	9.5	1022	3.5	50	1	70
2026-02-23T21:55	9.5	1022	3.5	50	2	70
2026-02-23T21:56	9.4	1022	3.4	50	2	70
2026-02-23T21:57	9.4	1022	3.4	50	2	70
2026-02-23T21:58	9.5	1022	3.5	50	2	70
2026-02-23T21:59	9.5	1022	3.5	50	2	70
2026-02-23T22:00	9.5	1022	3.5	50	2	70
2026-02-23T22:01	9.5	1022	3.5	50	2	70
2026-02-23T22:02	9.5	1022	3.5	50	2	70
2026-02-23T22:03	9.5	1022	3.5	60	2	70
2026-02-23T22:04	9.6	1022	3.6	50	2	70
2026-02-23T22:05	9.6	1022	3.6	50	2	70
2026-02-23T22:06	9.6	1022	3.8	50	2	70
2026-02-23T22:07	9.7	1022	3.7	50	2	70
2026-02-23T22:08	9.7	1022	3.7	50	2	70
2026-02-23T22:09	9.8	1022	3.8	50	2	70
2026-02-23T22:10	9.8	1022	3.8	40	2	70
2026-02-23T22:11	9.8	1022	3.8	40	2	70
2026-02-23T22:12	9.9	1022	3.9	40	2	70
2026-02-23T22:13	9.9	1022	3.6	40	2	70
2026-02-23T22:14	9.9	1022	3.6	40	2	70
2026-02-23T22:15	9.9	1022	3.6	40	2	70
2026-02-23T22:16	10.0	1022	4.0	50	2	70
2026-02-23T22:17	10.0	1022	4.0	50	2	70
2026-02-23T22:18	10.0	1022	3.7	50	2	70
2026-02-23T22:19	10.0	1022	3.7	50	2	70
2026-02-23T22:20	10.1	1022	3.8	50	2	70
2026-02-23T22:21	10.1	1022	3.8	50	2	70
2026-02-23T22:22	10.1	1022	3.8	50	2	70
2026-02-23T22:23	10.1	1022	3.8	50	2	70
2026-02-23T22:24	10.1	1022	3.8	50	2	70
2026-02-23T22:25	10.1	1022	3.6	40	2	70
2026-02-23T22:26	10.1	1022	3.6	40	2	70
2026-02-23T22:27	10.1	1022	3.6	40	2	70
2026-02-23T22:28	10.1	1022	3.6	40	2	70
2026-02-23T22:29	10.2	1022	3.7	40	2	70
2026-02-23T22:30	10.2	1022	3.9	40	2	70
2026-02-23T22:31	10.2	1022	3.7	40	2	70
2026-02-23T22:32	10.2	1022	3.7	40	2	70
2026-02-23T22:33	10.2	1022	3.9	40	2	70
2026-02-23T22:34	10.3	1022	3.8	40	2	70
2026-02-23T22:35	10.4	1022	3.9	40	2	70
2026-02-23T22:36	10.3	1022	3.8	40	2	69
2026-02-23T22:37	10.3	1022	3.6	40	2	69
2026-02-23T22:38	10.4	1022	3.9	30	2	69
2026-02-23T22:39	10.4	1022	3.9	40	2	69
2026-02-23T22:40	10.5	1022	4.0	40	2	69
2026-02-23T22:41	10.5	1022	4.0	40	2	69
2026-02-23T22:42	10.5	1022	4.0	40	2	69
2026-02-23T22:43	10.5	1022	4.0	50	2	69
2026-02-23T22:44	10.6	1022	4.1	50	2	70
2026-02-23T22:45	10.6	1022	4.1	60	2	70
2026-02-23T22:46	10.6	1022	4.1	60	2	70
2026-02-23T22:47	10.6	1022	3.9	60	2	70
2026-02-23T22:48	10.6	1022	3.9	60	2	70
2026-02-23T22:49	10.7	1022	4.2	60	2	70
2026-02-23T22:50	10.6	1022	3.9	60	2	70
2026-02-23T22:51	10.6	1022	4.1	50	2	70
2026-02-23T22:52	10.6	1022	4.1	50	2	70
2026-02-23T22:53	10.6	1022	4.1	50	2	70
2026-02-23T22:54	10.6	1022	4.1	50	2	70
2026-02-23T22:55	10.6	1022	4.1	50	2	70
2026-02-23T22:56	10.7	1022	4.2	50	2	70
2026-02-23T22:57	10.7	1022	4.2	50	2	70
2026-02-23T22:58	10.7	1022	4.2	50	2	70
2026-02-23T22:59	10.8	1022	4.3	50	3	70
2026-02-23T23:00	10.8	1022	4.3	50	3	70
2026-02-23T23:01	10.9	1022	4.4	50	3	70
2026-02-23T23:02	10.9	1022	4.4	50	2	70
2026-02-23T23:03	10.9	1022	4.4	50	2	70
2026-02-23T23:04	10.8	1022	4.1	40	2	70
2026-02-23T23:05	10.8	1022	4.3	40	2	70
2026-02-23T23:06	10.8	1022	4.1	40	2	70
2026-02-23T23:07	10.8	1022	4.1	30	2	70
2026-02-23T23:08	10.8	1022	4.3	30	2	70
2026-02-23T23:09	10.8	1022	4.3	30	2	70
2026-02-23T23:10	10.8	1022	4.3	30	2	70
2026-02-23T23:11	10.9	1022	4.4	30	2	70
2026-02-23T23:12	10.9	1022	4.2	30	2	70
2026-02-23T23:13	10.8	1022	4.1	30	2	70
2026-02-23T23:14	10.9	1022	4.4	30	2	70
2026-02-23T23:15	10.9	1022	4.4	30	2	70
2026-02-23T23:16	10.9	1022	4.4	30	2	70
2026-02-23T23:17	10.9	1022	4.4	40	2	70
2026-02-23T23:18	10.9	1022	4.4	40	2	70
2026-02-23T23:19	10.9	1022	4.4	40	2	70
2026-02-23T23:20	10.9	1022	4.4	40	2	70
2026-02-23T23:21	11.2	1022	4.9	40	2	70
2026-02-23T23:22	11.3	1022	4.8	40	2	70
2026-02-23T23:23	11.3	1022	4.5	50	2	70
2026-02-23T23:24	11.2	1022	4.4	50	2	70
2026-02-23T23:25	11.1	1022	4.3	50	2	70
2026-02-23T23:26	11.1	1022	4.3	40	2	69
2026-02-23T23:27	11.1	1022	4.3	50	2	68
2026-02-23T23:28	11.2	1022	4.4	40	2	68
2026-02-23T23:29	11.4	1022	4.9	40	2	68
2026-02-23T23:30	11.3	1023	4.5	40	2	68
2026-02-23T23:31	11.2	1023	4.4	40	2	68
2026-02-23T23:32	11.1	1023	4.3	40	2	68
2026-02-23T23:33	11.1	1022	4.3	40	2	68
2026-02-23T23:34	11.3	1022	4.8	40	2	68
2026-02-23T23:35	11.3	1022	4.5	40	2	68
2026-02-23T23:36	11.3	1022	4.5	40	2	69
2026-02-23T23:37	11.3	1022	4.5	40	2	69
2026-02-23T23:38	11.3	1022	4.5	40	2	70
2026-02-23T23:39	11.2	1022	4.4	40	2	70
2026-02-23T23:40	11.3	1022	4.5	40	2	70
2026-02-23T23:41	11.4	1022	4.6	40	2	70
2026-02-23T23:42	11.3	1022	4.5	40	2	70
2026-02-23T23:43	11.3	1022	4.5	40	2	70
2026-02-23T23:44	11.3	1022	4.5	50	2	70
2026-02-23T23:45	11.2	1022	4.4	50	2	70
2026-02-23T23:46	11.3	1022	4.5	50	2	70
2026-02-23T23:47	11.3	1022	4.5	50	2	70
2026-02-23T23:48	11.3	1022	4.5	50	2	69
2026-02-23T23:49	11.4	1023	4.6	50	2	69
2026-02-23T23:50	11.4	1023	4.6	50	2	69
2026-02-23T23:51	11.4	1023	4.6	50	3	69
2026-02-23T23:52	11.4	1023	4.6	50	3	69
2026-02-23T23:53	11.3	1023	4.5	40	2	70
2026-02-23T23:54	11.4	1023	4.6	40	3	70
2026-02-23T23:55	11.5	1023	4.9	40	2	70
2026-02-23T23:56	11.4	1023	4.6	40	2	70
2026-02-23T23:57	11.3	1023	4.5	50	2	69
2026-02-23T23:58	11.6	1023	5.0	50	2	70
2026-02-23T23:59	11.6	1023	4.8	50	2	70
2026-02-24T00:00	11.5	1023	4.7	50	2	70
2026-02-24T00:01	11.8	1023	5.0	50	2	70
2026-02-24T00:02	11.8	1023	5.0	50	2	70
2026-02-24T00:03	11.7	1023	4.7	50	2	70
2026-02-24T00:04	11.6	1023	4.8	50	2	70
2026-02-24T00:05	11.7	1023	4.9	40	2	69
2026-02-24T00:06	11.7	1023	4.9	40	2	70
2026-02-24T00:07	11.9	1023	5.1	40	2	69
2026-02-24T00:08	11.8	1023	4.8	40	2	69
2026-02-24T00:09	11.7	1023	4.9	40	2	68
2026-02-24T00:10	11.7	1023	4.9	50	2	68
2026-02-24T00:11	11.7	1023	4.9	50	2	67
2026-02-24T00:12	11.7	1023	4.9	50	2	67
2026-02-24T00:13	11.6	1023	4.8	40	2	67
2026-02-24T00:14	11.5	1023	4.7	50	2	67
2026-02-24T00:15	11.4	1023	4.6	50	2	68
2026-02-24T00:16	11.4	1023	4.9	50	2	67
2026-02-24T00:17	11.4	1023	4.9	50	3	68
2026-02-24T00:18	11.5	1023	4.9	50	2	68
2026-02-24T00:19	11.6	1023	5.0	40	3	69
2026-02-24T00:20	11.6	1023	5.0	40	3	69
2026-02-24T00:21	11.6	1023	5.0	40	3	69
2026-02-24T00:22	11.6	1023	5.0	40	3	69
2026-02-24T00:23	11.5	1023	4.9	40	3	70
2026-02-24T00:24	11.4	1023	4.9	40	3	70
2026-02-24T00:25	11.4	1023	4.9	40	3	70
2026-02-24T00:26	11.5	1023	4.9	40	3	70
2026-02-24T00:27	11.6	1023	5.0	40	2	69
2026-02-24T00:28	11.6	1023	5.0	40	2	69
2026-02-24T00:29	11.6	1023	5.0	40	2	69
2026-02-24T00:30	11.6	1023	5.0	40	2	69
2026-02-24T00:31	11.7	1023	5.1	40	2	70
2026-02-24T00:32	11.8	1023	5.2	40	2	70
2026-02-24T00:33	11.8	1023	5.0	50	2	69
2026-02-24T00:34	11.7	1023	4.9	50	2	69
2026-02-24T00:35	11.8	1023	5.2	50	2	69
2026-02-24T00:36	12.1	1023	5.5	50	2	69
2026-02-24T00:37	12.1	1023	5.3	60	3	70
2026-02-24T00:38	12.1	1023	5.3	60	3	70
2026-02-24T00:39	12.2	1023	5.4	60	3	70
2026-02-24T00:40	12.1	1023	5.3	60	3	70
2026-02-24T00:41	12.2	1023	5.4	70	3	69
2026-02-24T00:42	12.2	1023	5.4	70	3	70
2026-02-24T00:43	12.1	1023	5.1	70	3	70
2026-02-24T00:44	12.2	1023	5.4	70	3	70
2026-02-24T00:45	12.4	1023	5.6	70	3	70
2026-02-24T00:46	12.1	1023	5.1	70	3	70
2026-02-24T00:47	12.2	1023	5.4	60	3	70
2026-02-24T00:48	12.3	1023	5.5	60	3	70
2026-02-24T00:49	12.5	1023	5.7	60	3	70
2026-02-24T00:50	12.3	1023	5.2	60	3	70
2026-02-24T00:51	12.5	1023	5.7	50	3	69
2026-02-24T00:52	12.7	1023	5.9	50	3	69
2026-02-24T00:53	12.6	1023	5.5	60	3	69
2026-02-24T00:54	12.5	1023	5.4	50	3	69
2026-02-24T00:55	12.3	1023	5.2	50	2	69
2026-02-24T00:56	12.4	1023	5.6	50	2	69
2026-02-24T00:57	12.3	1023	5.2	50	2	70
2026-02-24T00:58	12.4	1023	5.6	50	2	69
2026-02-24T00:59	12.4	1023	5.6	50	3	70
2026-02-24T01:00	12.2	1023	5.4	40	3	69
2026-02-24T01:01	12.3	1023	5.5	40	3	69
2026-02-24T01:02	12.3	1023	5.5	40	3	70
2026-02-24T01:03	12.3	1023	5.5	40	3	70
2026-02-24T01:04	12.3	1023	5.5	30	2	69
2026-02-24T01:05	12.3	1023	5.5	30	2	70
2026-02-24T01:06	12.4	1023	5.6	30	2	70
2026-02-24T01:07	12.5	1023	5.7	30	2	70
2026-02-24T01:08	12.6	1023	5.8	30	2	70
2026-02-24T01:09	12.6	1023	5.5	30	2	69
2026-02-24T01:10	12.5	1023	5.4	40	2	70
2026-02-24T01:11	12.6	1023	5.8	40	2	70
2026-02-24T01:12	12.6	1023	5.5	40	2	70
2026-02-24T01:13	13.1	1023	6.2	50	2	70
2026-02-24T01:14	13.2	1023	6.1	50	2	69
2026-02-24T01:15	13.1	1023	5.8	60	2	69
2026-02-24T01:16	12.8	1023	5.5	60	3	69
2026-02-24T01:17	12.6	1023	5.3	60	2	68
2026-02-24T01:18	12.3	1023	5.2	60	3	69
2026-02-24T01:19	12.3	1023	5.2	50	2	69
2026-02-24T01:20	12.3	1023	5.5	50	2	69
2026-02-24T01:21	12.4	1023	5.6	50	2	69
2026-02-24T01:22	12.4	1023	5.6	40	2	69
2026-02-24T01:23	12.3	1023	5.5	40	2	69
2026-02-24T01:24	12.4	1023	5.6	40	2	68
2026-02-24T01:25	12.5	1023	5.9	40	2	69
2026-02-24T01:26	12.5	1023	5.7	40	2	68
2026-02-24T01:27	12.4	1023	5.6	50	2	67
2026-02-24T01:28	12.4	1023	5.6	50	2	67
2026-02-24T01:29	12.5	1023	5.7	60	2	67
2026-02-24T01:30	12.5	1023	5.7	60	2	68
2026-02-24T01:31	12.7	1023	5.9	60	2	68
2026-02-24T01:32	12.6	1023	5.8	70	2	68
2026-02-24T01:33	12.4	1023	5.6	70	2	68
2026-02-24T01:34	12.4	1023	5.6	70	2	69
2026-02-24T01:35	12.4	1023	5.6	70	2	69
2026-02-24T01:36	12.4	1023	5.6	70	2	69
2026-02-24T01:37	12.4	1023	5.6	60	2	70
2026-02-24T01:38	12.4	1023	5.6	60	2	70
2026-02-24T01:39	12.4	1023	5.6	70	2	69
2026-02-24T01:40	12.5	1023	5.7	60	2	69
2026-02-24T01:41	12.5	1023	5.7	60	2	69
2026-02-24T01:42	12.6	1023	5.8	60	2	68
2026-02-24T01:43	12.7	1023	5.9	60	2	68
2026-02-24T01:44	12.8	1023	6.0	60	2	68
2026-02-24T01:45	12.6	1023	5.5	60	2	68
2026-02-24T01:46	12.6	1023	5.5	60	2	68
2026-02-24T01:47	12.7	1023	5.9	50	2	68
2026-02-24T01:48	12.9	1023	6.0	50	2	68
2026-02-24T01:49	12.7	1023	5.6	50	2	69
2026-02-24T01:50	12.7	1023	5.6	50	2	69
2026-02-24T01:51	12.7	1023	5.6	60	2	69
2026-02-24T01:52	12.7	1023	5.6	60	2	70
2026-02-24T01:53	12.9	1023	5.8	60	2	70
2026-02-24T01:54	12.9	1023	5.6	50	2	70
2026-02-24T01:55	13.0	1023	5.9	60	2	70
2026-02-24T01:56	12.8	1023	5.5	60	2	69
2026-02-24T01:57	12.9	1023	5.6	60	2	70
2026-02-24T01:58	12.9	1023	5.6	60	2	68
2026-02-24T01:59	12.7	1023	5.4	60	2	68
2026-02-24T02:00	12.6	1023	5.3	60	2	68
2026-02-24T02:01	12.6	1023	5.3	60	3	68
2026-02-24T02:02	12.7	1023	5.6	60	3	68
2026-02-24T02:03	12.6	1023	5.3	60	3	68
2026-02-24T02:04	12.7	1023	5.6	60	3	68
2026-02-24T02:05	12.8	1023	5.7	60	3	68
2026-02-24T02:06	12.8	1023	5.7	60	3	68
2026-02-24T02:07	12.9	1023	5.8	60	3	68
2026-02-24T02:08	12.9	1023	5.6	50	2	69
2026-02-24T02:09	12.9	1023	5.6	50	2	68
2026-02-24T02:10	13.1	1023	5.8	50	3	68
2026-02-24T02:11	13.2	1023	5.9	50	2	69
2026-02-24T02:12	13.1	1023	5.8	60	2	69
2026-02-24T02:13	13.0	1023	5.7	60	2	68
2026-02-24T02:14	13.1	1023	5.8	70	2	68
2026-02-24T02:15	13.4	1023	6.1	70	2	68
2026-02-24T02:16	13.6	1023	6.0	70	2	68
2026-02-24T02:17	13.7	1023	6.1	70	2	69
2026-02-24T02:18	13.5	1023	5.7	70	2	69
2026-02-24T02:19	13.3	1023	5.5	70	2	70
2026-02-24T02:20	13.4	1023	5.6	70	2	69
2026-02-24T02:21	13.6	1023	6.0	70	2	70
2026-02-24T02:22	13.7	1023	5.9	60	2	70
2026-02-24T02:23	13.6	1023	5.8	60	2	70
2026-02-24T02:24	13.3	1023	5.2	60	2	70
2026-02-24T02:25	13.6	1023	5.8	60	3	70
2026-02-24T02:26	13.8	1023	5.9	60	3	70
2026-02-24T02:27	14.2	1023	6.1	60	3	70
2026-02-24T02:28	14.0	1023	5.6	50	3	70
2026-02-24T02:29	13.7	1023	5.6	60	3	69
2026-02-24T02:30	13.5	1023	5.4	60	3	70
2026-02-24T02:31	13.4	1023	5.6	60	3	69
2026-02-24T02:32	13.3	1023	5.5	70	3	69
2026-02-24T02:33	13.2	1023	5.4	70	3	70
2026-02-24T02:34	12.8	1023	5.0	70	3	69
2026-02-24T02:35	12.9	1022	5.3	70	3	69
2026-02-24T02:36	13.2	1022	5.9	70	2	69
2026-02-24T02:37	13.3	1022	5.7	70	2	70
2026-02-24T02:38	13.3	1022	5.7	70	2	70
2026-02-24T02:39	13.3	1022	5.5	70	2	70
2026-02-24T02:40	13.4	1022	5.8	70	2	70
2026-02-24T02:41	13.3	1022	5.7	70	2	70
2026-02-24T02:42	13.1	1022	5.3	70	2	70
2026-02-24T02:43	13.2	1022	5.6	70	2	70
2026-02-24T02:44	13.5	1022	5.9	70	2	70
2026-02-24T02:45	13.3	1022	5.5	60	2	70
2026-02-24T02:46	13.4	1022	5.8	60	2	70
2026-02-24T02:47	13.5	1022	5.9	70	2	70
2026-02-24T02:48	13.4	1022	5.6	70	2	70
2026-02-24T02:49	13.4	1022	5.6	70	2	70
2026-02-24T02:50	13.5	1022	5.7	70	2	70
2026-02-24T02:51	13.4	1022	5.6	70	2	70
2026-02-24T02:52	13.3	1022	5.5	70	2	69
2026-02-24T02:53	13.3	1022	5.5	70	2	69
2026-02-24T02:54	13.5	1022	5.9	60	2	69
2026-02-24T02:55	13.7	1022	5.9	70	2	70
2026-02-24T02:56	13.8	1022	5.9	70	2	70
2026-02-24T02:57	13.7	1022	5.6	60	2	70
2026-02-24T02:58	13.5	1022	5.4	60	2	70
2026-02-24T02:59	13.5	1022	5.4	50	3	70
2026-02-24T03:00	13.5	1022	5.7	50	3	70
2026-02-24T03:01	13.4	1022	5.6	60	3	70
2026-02-24T03:02	13.5	1022	5.7	60	3	70
2026-02-24T03:03	13.8	1022	5.9	60	3	70
2026-02-24T03:04	13.8	1022	5.9	70	3	70
2026-02-24T03:05	13.8	1022	5.9	70	3	70
2026-02-24T03:06	13.8	1022	5.7	70	3	70
2026-02-24T03:07	13.7	1022	5.6	70	3	70
2026-02-24T03:08	13.5	1022	5.4	80	3	70
2026-02-24T03:09	13.7	1022	5.9	80	2	70
2026-02-24T03:10	13.7	1022	5.9	80	2	70
2026-02-24T03:11	13.5	1022	5.7	80	2	70
2026-02-24T03:12	13.4	1022	5.6	80	2	70
2026-02-24T03:13	13.2	1022	5.4	90	2	70
2026-02-24T03:14	13.3	1022	5.5	80	2	70
2026-02-24T03:15	13.6	1022	6.0	90	2	70
2026-02-24T03:16	13.7	1022	5.9	80	2	69
2026-02-24T03:17	13.6	1022	5.8	80	2	70
2026-02-24T03:18	13.7	1022	5.9	80	2	70
2026-02-24T03:19	13.9	1022	6.0	80	2	70
2026-02-24T03:20	13.6	1022	5.5	80	2	70
2026-02-24T03:21	13.6	1022	5.5	80	2	70
2026-02-24T03:22	13.5	1022	5.7	80	2	70
2026-02-24T03:23	13.4	1022	5.6	80	2	70
2026-02-24T03:24	13.6	1022	5.8	80	2	70
2026-02-24T03:25	13.5	1022	5.7	80	2	70
2026-02-24T03:26	13.6	1022	5.8	90	2	70
2026-02-24T03:27	13.3	1022	5.2	90	2	69
2026-02-24T03:28	13.4	1022	5.6	90	2	69
2026-02-24T03:29	13.4	1022	5.6	80	2	69
2026-02-24T03:30	13.4	1022	5.6	80	2	69
2026-02-24T03:31	13.4	1022	5.6	80	2	70
2026-02-24T03:32	13.5	1022	5.7	80	3	70
2026-02-24T03:33	13.6	1022	5.8	70	3	70
2026-02-24T03:34	13.7	1022	5.9	80	3	70
2026-02-24T03:35	13.7	1022	5.9	70	3	70
2026-02-24T03:36	13.7	1022	5.9	70	2	70
2026-02-24T03:37	13.4	1022	5.3	70	2	70
2026-02-24T03:38	13.4	1022	5.6	70	2	70
2026-02-24T03:39	13.4	1022	5.6	70	2	70
2026-02-24T03:40	13.4	1022	5.6	80	2	70
2026-02-24T03:41	13.4	1022	5.6	80	2	70
2026-02-24T03:42	13.2	1022	5.4	80	2	70
2026-02-24T03:43	13.2	1022	5.4	80	2	70
2026-02-24T03:44	13.4	1022	5.8	80	2	70
2026-02-24T03:45	13.3	1021	5.5	80	3	70
2026-02-24T03:46	13.3	1021	5.5	80	3	70
2026-02-24T03:47	13.4	1021	5.6	80	3	70
2026-02-24T03:48	13.6	1021	5.8	80	3	70
2026-02-24T03:49	13.9	1021	6.0	90	2	70
2026-02-24T03:50	13.8	1021	5.7	90	3	70
2026-02-24T03:51	13.7	1021	5.6	80	2	70
2026-02-24T03:52	13.7	1021	5.6	80	2	70
2026-02-24T03:53	13.6	1021	5.5	80	2	69
2026-02-24T03:54	13.7	1021	5.6	80	2	69
2026-02-24T03:55	13.7	1022	5.6	70	2	70
2026-02-24T03:56	13.7	1022	5.6	70	2	70
2026-02-24T03:57	13.7	1022	5.6	60	2	70
2026-02-24T03:58	13.9	1022	5.8	60	2	70
2026-02-24T03:59	13.7	1022	5.6	50	2	70
2026-02-24T04:00	13.7	1022	5.6	50	2	70
2026-02-24T04:01	13.7	1022	5.6	50	2	70
2026-02-24T04:02	14.3	1022	6.4	50	2	70
2026-02-24T04:03	14.3	1022	5.9	60	2	70
2026-02-24T04:04	13.8	1022	5.5	60	3	70
2026-02-24T04:05	13.5	1021	5.2	70	3	70
2026-02-24T04:06	13.4	1021	5.3	70	3	70
2026-02-24T04:07	13.6	1021	5.8	70	3	70
2026-02-24T04:08	13.7	1021	5.6	70	3	70
2026-02-24T04:09	13.7	1021	5.6	80	3	70
2026-02-24T04:10	13.9	1021	6.0	80	3	70
2026-02-24T04:11	14.1	1021	6.0	80	3	70
2026-02-24T04:12	13.9	1021	5.8	80	3	70
2026-02-24T04:13	13.4	1021	5.3	80	3	70
2026-02-24T04:14	13.4	1021	5.6	80	3	70
2026-02-24T04:15	13.4	1021	5.6	80	3	70
2026-02-24T04:16	13.8	1021	5.9	80	3	70
2026-02-24T04:17	14.0	1021	6.1	80	3	70
2026-02-24T04:18	13.8	1021	5.7	80	3	70
2026-02-24T04:19	14.0	1021	5.9	80	3	70
2026-02-24T04:20	14.0	1021	5.9	80	3	69
2026-02-24T04:21	14.0	1021	5.9	80	3	68
2026-02-24T04:22	14.0	1021	5.9	80	3	68
2026-02-24T04:23	14.0	1021	5.9	80	3	68
2026-02-24T04:24	13.8	1021	5.7	80	3	69
2026-02-24T04:25	13.6	1021	5.5	90	3	70
2026-02-24T04:26	13.5	1021	5.7	90	3	70
2026-02-24T04:27	13.3	1021	5.5	90	3	70
2026-02-24T04:28	13.5	1021	5.9	90	3	70
2026-02-24T04:29	13.5	1021	5.7	90	2	70
2026-02-24T04:30	13.5	1021	5.7	80	2	70
2026-02-24T04:31	13.3	1021	5.5	70	2	70
2026-02-24T04:32	13.4	1021	5.8	70	2	70
2026-02-24T04:33	13.7	1021	6.1	70	2	70
2026-02-24T04:34	14.0	1021	6.4	70	2	70
2026-02-24T04:35	13.7	1021	5.9	60	2	70
2026-02-24T04:36	13.6	1021	5.8	60	2	70
2026-02-24T04:37	13.7	1021	6.1	60	2	70
2026-02-24T04:38	14.0	1021	6.4	60	2	70
2026-02-24T04:39	14.3	1021	6.7	60	2	70
2026-02-24T04:40	13.8	1021	5.7	70	2	70
2026-02-24T04:41	13.8	1021	5.9	70	2	70
2026-02-24T04:42	13.7	1021	5.9	80	2	70
2026-02-24T04:43	13.6	1021	5.8	70	2	70
2026-02-24T04:44	14.1	1021	6.5	70	2	69
2026-02-24T04:45	14.5	1021	6.6	70	2	70
2026-02-24T04:46	14.1	1021	6.0	70	2	70
2026-02-24T04:47	13.9	1021	5.8	70	2	70
2026-02-24T04:48	14.0	1021	6.1	70	2	70
2026-02-24T04:49	13.8	1021	5.9	70	3	70
2026-02-24T04:50	13.7	1021	5.9	60	3	70
2026-02-24T04:51	13.5	1021	5.7	60	3	70
2026-02-24T04:52	13.4	1021	5.8	60	3	70
2026-02-24T04:53	13.3	1021	5.7	70	3	70
2026-02-24T04:54	13.3	1021	5.7	70	3	70
2026-02-24T04:55	13.5	1021	6.1	70	3	70
2026-02-24T04:56	13.6	1021	6.0	70	3	70
2026-02-24T04:57	13.5	1021	5.9	80	3	70
2026-02-24T04:58	13.7	1021	6.1	80	3	70
2026-02-24T04:59	13.7	1021	6.1	80	3	70
2026-02-24T05:00	13.7	1021	6.1	80	2	70
2026-02-24T05:01	13.8	1021	6.2	80	2	70
2026-02-24T05:02	13.7	1021	6.1	80	2	70
2026-02-24T05:03	14.0	1021	6.4	80	2	70
2026-02-24T05:04	13.9	1021	6.0	70	2	70
2026-02-24T05:05	13.8	1021	5.9	70	2	70
2026-02-24T05:06	13.7	1021	5.9	70	2	70
2026-02-24T05:07	13.9	1021	6.3	60	2	70
2026-02-24T05:08	13.6	1021	5.8	60	2	70
2026-02-24T05:09	13.6	1021	5.8	60	2	70
2026-02-24T05:10	13.5	1021	5.9	60	2	70
2026-02-24T05:11	13.6	1021	6.0	70	2	70
2026-02-24T05:12	13.7	1021	6.1	70	2	70
2026-02-24T05:13	13.7	1021	6.1	80	2	70
2026-02-24T05:14	13.8	1021	6.2	70	2	70
2026-02-24T05:15	13.9	1021	6.3	70	2	70
2026-02-24T05:16	14.1	1021	6.5	80	2	70
2026-02-24T05:17	13.9	1021	6.0	80	2	70
2026-02-24T05:18	13.7	1021	5.9	80	2	70
2026-02-24T05:19	13.6	1021	5.8	70	3	70
2026-02-24T05:20	13.8	1021	6.2	70	3	70
2026-02-24T05:21	14.1	1021	6.5	70	3	70
2026-02-24T05:22	13.8	1021	5.9	70	3	70
2026-02-24T05:23	13.6	1021	5.8	70	3	70
2026-02-24T05:24	13.5	1021	5.9	70	3	70
2026-02-24T05:25	13.4	1021	5.8	70	3	70
2026-02-24T05:26	13.4	1021	5.8	70	3	70
2026-02-24T05:27	13.5	1021	6.1	70	3	70
2026-02-24T05:28	13.7	1021	6.3	70	3	70
2026-02-24T05:29	13.8	1021	6.2	80	3	70
2026-02-24T05:30	13.9	1021	6.3	80	3	70
2026-02-24T05:31	14.2	1021	6.6	80	3	70
2026-02-24T05:32	14.5	1021	6.6	80	3	70
2026-02-24T05:33	14.6	1021	6.5	80	3	70
2026-02-24T05:34	14.4	1021	6.3	90	3	70
2026-02-24T05:35	14.3	1021	6.2	90	3	70
2026-02-24T05:36	14.3	1021	6.2	90	3	70
2026-02-24T05:37	14.3	1021	6.2	90	3	70
2026-02-24T05:38	14.4	1021	6.3	80	3	70
2026-02-24T05:39	14.3	1021	6.2	80	3	70
2026-02-24T05:40	14.2	1021	6.1	70	3	70
2026-02-24T05:41	14.3	1021	6.2	70	3	70
2026-02-24T05:42	14.1	1021	6.0	80	3	70
2026-02-24T05:43	14.0	1021	6.1	80	3	70
2026-02-24T05:44	13.9	1021	6.0	80	3	70
2026-02-24T05:45	14.0	1021	6.1	80	3	70
2026-02-24T05:46	13.9	1021	6.0	80	2	70
2026-02-24T05:47	13.8	1021	6.2	80	3	70
2026-02-24T05:48	13.7	1021	6.1	80	2	70
2026-02-24T05:49	13.8	1021	6.2	80	2	70
2026-02-24T05:50	13.8	1021	6.2	80	2	70
2026-02-24T05:51	13.7	1021	6.1	90	2	70
2026-02-24T05:52	13.8	1021	6.4	80	2	70
2026-02-24T05:53	14.0	1021	6.6	80	2	70
2026-02-24T05:54	13.9	1021	6.3	80	2	70
2026-02-24T05:55	14.0	1021	6.4	80	2	70
2026-02-24T05:56	14.0	1021	6.4	70	2	70
2026-02-24T05:57	14.1	1021	6.5	70	2	70
2026-02-24T05:58	14.1	1021	6.5	70	2	70
2026-02-24T05:59	14.2	1021	6.6	70	3	70
2026-02-24T06:00	14.2	1020	6.6	70	3	70
2026-02-24T06:01	14.2	1020	6.6	70	3	70
2026-02-24T06:02	14.0	1021	6.1	70	3	70
2026-02-24T06:03	14.2	1021	6.6	70	3	70
2026-02-24T06:04	13.9	1021	6.0	70	3	70
2026-02-24T06:05	13.8	1021	6.2	70	3	70
2026-02-24T06:06	13.8	1020	6.2	70	2	70
2026-02-24T06:07	13.8	1020	6.2	70	2	70
2026-02-24T06:08	13.9	1021	6.5	70	2	70
2026-02-24T06:09	13.8	1021	6.4	70	2	70
2026-02-24T06:10	13.9	1021	6.5	70	3	70
2026-02-24T06:11	13.8	1021	6.2	70	3	70
2026-02-24T06:12	13.6	1021	6.2	70	3	70
2026-02-24T06:13	13.6	1021	6.2	70	3	70
2026-02-24T06:14	13.7	1021	6.3	80	3	70
2026-02-24T06:15	14.0	1021	6.6	80	3	70
2026-02-24T06:16	14.2	1021	6.8	80	3	70
2026-02-24T06:17	14.2	1021	6.6	80	3	70
2026-02-24T06:18	14.4	1021	6.8	80	3	70
2026-02-24T06:19	14.2	1021	6.3	80	3	70
2026-02-24T06:20	14.2	1021	6.3	80	3	70
2026-02-24T06:21	14.3	1021	6.4	80	3	70
2026-02-24T06:22	14.3	1021	6.4	80	3	70
2026-02-24T06:23	14.2	1021	6.3	70	3	70
2026-02-24T06:24	14.1	1021	6.2	70	3	70
2026-02-24T06:25	13.8	1021	5.9	70	3	70
2026-02-24T06:26	13.8	1021	6.2	60	3	70
2026-02-24T06:27	13.8	1021	6.2	60	3	70
2026-02-24T06:28	13.8	1021	6.2	70	3	70
2026-02-24T06:29	13.8	1021	6.2	70	3	70
2026-02-24T06:30	13.8	1021	6.2	60	3	70
2026-02-24T06:31	13.7	1021	6.3	70	3	70
2026-02-24T06:32	13.7	1021	6.3	70	3	70
2026-02-24T06:33	13.6	1021	6.2	70	3	70
2026-02-24T06:34	13.5	1021	6.1	70	3	70
2026-02-24T06:35	13.5	1021	6.4	70	3	70
2026-02-24T06:36	13.4	1021	6.3	80	3	70
2026-02-24T06:37	13.3	1021	6.2	80	3	70
2026-02-24T06:38	13.3	1021	6.2	80	2	70
2026-02-24T06:39	13.3	1021	6.4	80	2	70
2026-02-24T06:40	13.3	1021	6.2	90	2	70
2026-02-24T06:41	13.3	1021	6.4	90	2	70
2026-02-24T06:42	13.4	1021	6.5	90	2	70
2026-02-24T06:43	13.6	1021	6.7	90	2	70
2026-02-24T06:44	13.7	1021	6.6	80	2	70
2026-02-24T06:45	13.6	1021	6.5	80	2	70
2026-02-24T06:46	13.7	1021	6.6	80	2	70
2026-02-24T06:47	13.6	1021	6.2	80	2	70
2026-02-24T06:48	13.5	1021	6.4	70	2	70
2026-02-24T06:49	13.4	1021	6.3	70	2	70
2026-02-24T06:50	13.4	1021	6.3	60	2	70
2026-02-24T06:51	13.3	1021	6.2	60	2	69
2026-02-24T06:52	13.4	1021	6.3	60	2	70
2026-02-24T06:53	13.5	1021	6.4	60	2	70
2026-02-24T06:54	13.5	1021	6.4	60	2	70
2026-02-24T06:55	13.4	1021	6.3	60	2	70
2026-02-24T06:56	13.2	1021	6.3	70	2	70
2026-02-24T06:57	13.3	1021	6.4	70	2	70
2026-02-24T06:58	13.3	1021	6.4	70	2	70
2026-02-24T06:59	13.2	1021	6.3	70	2	70
2026-02-24T07:00	13.2	1021	6.3	70	2	70
2026-02-24T07:01	13.2	1021	6.6	70	2	70
2026-02-24T07:02	13.3	1021	6.7	70	2	70
2026-02-24T07:03	13.2	1021	6.3	70	2	70
2026-02-24T07:04	13.3	1021	6.7	70	2	70
2026-02-24T07:05	13.3	1021	6.7	70	2	70
2026-02-24T07:06	13.4	1021	6.5	70	2	70
2026-02-24T07:07	13.3	1021	6.4	80	2	70
2026-02-24T07:08	13.5	1021	6.6	80	2	70
2026-02-24T07:09	13.7	1021	6.8	80	2	70
2026-02-24T07:10	13.9	1021	7.0	80	2	70
2026-02-24T07:11	13.7	1021	6.6	80	2	70
2026-02-24T07:12	13.7	1021	6.6	80	2	70
2026-02-24T07:13	13.5	1021	6.4	80	3	70
2026-02-24T07:14	13.4	1021	6.5	80	3	70
2026-02-24T07:15	13.4	1021	6.5	80	3	70
2026-02-24T07:16	13.4	1021	6.5	80	3	70
2026-02-24T07:17	13.4	1021	6.5	70	3	70
2026-02-24T07:18	13.3	1021	6.4	70	3	70
2026-02-24T07:19	13.3	1021	6.7	70	2	70
2026-02-24T07:20	13.3	1021	6.7	70	2	70
2026-02-24T07:21	13.3	1021	6.7	80	2	70
2026-02-24T07:22	13.2	1021	6.6	80	2	70
2026-02-24T07:23	13.2	1021	6.6	80	2	70
2026-02-24T07:24	13.2	1021	6.6	80	2	70
2026-02-24T07:25	13.2	1021	6.6	80	2	70
2026-02-24T07:26	13.1	1021	6.5	90	2	70
2026-02-24T07:27	13.1	1021	6.7	90	2	70
2026-02-24T07:28	13.1	1021	6.7	80	2	70
2026-02-24T07:29	13.0	1021	6.6	80	2	70
2026-02-24T07:30	13.0	1021	6.6	80	3	70
2026-02-24T07:31	13.0	1021	6.6	80	3	70
2026-02-24T07:32	13.0	1021	6.6	80	3	70
2026-02-24T07:33	12.9	1021	6.3	80	3	70
2026-02-24T07:34	12.9	1021	6.5	80	2	70
2026-02-24T07:35	12.9	1021	6.5	80	3	70
2026-02-24T07:36	12.8	1021	6.4	70	3	70
2026-02-24T07:37	12.8	1021	6.4	70	2	70
2026-02-24T07:38	12.8	1021	6.4	80	2	70
2026-02-24T07:39	12.9	1021	6.5	70	2	70
2026-02-24T07:40	12.9	1021	6.5	70	2	70
2026-02-24T07:41	12.9	1021	6.5	70	2	70
2026-02-24T07:42	12.9	1021	6.5	80	2	70
2026-02-24T07:43	12.8	1021	6.4	70	2	70
2026-02-24T07:44	12.8	1021	6.4	70	2	70
2026-02-24T07:45	12.8	1021	6.4	80	2	70
2026-02-24T07:46	12.8	1021	6.4	70	2	70
2026-02-24T07:47	12.8	1021	6.4	70	2	70
2026-02-24T07:48	12.8	1021	6.4	70	2	70
2026-02-24T07:49	12.8	1021	6.4	70	2	70
2026-02-24T07:50	12.8	1021	6.4	70	2	70
2026-02-24T07:51	12.7	1021	6.3	70	2	70
2026-02-24T07:52	12.7	1021	6.3	70	2	70
2026-02-24T07:53	12.7	1021	6.3	60	2	70
2026-02-24T07:54	12.7	1021	6.3	60	2	70
2026-02-24T07:55	12.6	1021	6.4	60	2	70
2026-02-24T07:56	12.6	1021	6.4	70	2	70
2026-02-24T07:57	12.6	1021	6.4	70	2	70
2026-02-24T07:58	12.6	1021	6.4	70	2	70
2026-02-24T07:59	12.5	1021	6.3	70	2	70
2026-02-24T08:00	12.5	1021	6.3	60	2	70
2026-02-24T08:01	12.5	1021	6.3	60	2	70
2026-02-24T08:02	12.5	1021	6.3	70	2	70
2026-02-24T08:03	12.5	1021	6.3	70	2	70
2026-02-24T08:04	12.5	1021	6.3	70	2	70
2026-02-24T08:05	12.5	1021	6.3	70	2	70
2026-02-24T08:06	12.5	1021	6.3	80	2	70
2026-02-24T08:07	12.5	1021	6.6	80	2	70
2026-02-24T08:08	12.4	1021	6.5	80	2	70
2026-02-24T08:09	12.4	1021	6.5	80	2	70
2026-02-24T08:10	12.4	1021	6.5	80	2	70
2026-02-24T08:11	12.4	1021	6.5	80	2	70
2026-02-24T08:12	12.4	1021	6.5	80	2	70
2026-02-24T08:13	12.4	1021	6.5	80	2	70
2026-02-24T08:14	12.4	1021	6.5	80	2	70
2026-02-24T08:15	12.4	1021	6.5	80	2	70
2026-02-24T08:16	12.4	1021	6.5	80	2	70
2026-02-24T08:17	12.3	1021	6.4	80	2	70
2026-02-24T08:18	12.4	1021	6.5	80	2	70
2026-02-24T08:19	12.4	1021	6.5	80	2	70
2026-02-24T08:20	12.4	1021	6.5	80	2	70
2026-02-24T08:21	12.3	1021	6.4	80	2	70
2026-02-24T08:22	12.3	1021	6.4	80	2	70
2026-02-24T08:23	12.3	1021	6.4	80	2	70
2026-02-24T08:24	12.3	1021	6.4	80	2	70
2026-02-24T08:25	12.2	1021	6.3	70	2	70
2026-02-24T08:26	12.2	1021	6.3	70	2	70
2026-02-24T08:27	12.3	1021	6.4	70	2	70
2026-02-24T08:28	12.3	1021	6.4	70	2	70
2026-02-24T08:29	12.3	1021	6.4	70	2	70
2026-02-24T08:30	12.3	1021	6.4	60	2	70
2026-02-24T08:31	12.2	1021	6.3	60	2	70
2026-02-24T08:32	12.2	1021	6.3	60	2	70
2026-02-24T08:33	12.2	1021	6.3	60	2	70
2026-02-24T08:34	12.2	1021	6.3	60	2	70
2026-02-24T08:35	12.2	1021	6.5	70	2	70
2026-02-24T08:36	12.2	1021	6.3	70	2	70
2026-02-24T08:37	12.2	1021	6.3	60	2	70
2026-02-24T08:38	12.2	1021	6.3	60	2	70
2026-02-24T08:39	12.3	1021	6.4	60	2	70
2026-02-24T08:40	12.2	1021	6.3	70	2	70
2026-02-24T08:41	12.2	1021	6.3	70	2	70
2026-02-24T08:42	12.2	1021	6.3	70	2	70
2026-02-24T08:43	12.2	1021	6.3	70	2	70
2026-02-24T08:44	12.2	1021	6.3	70	2	70
2026-02-24T08:45	12.1	1021	6.2	70	2	70
2026-02-24T08:46	12.1	1021	6.2	70	2	70
2026-02-24T08:47	12.1	1021	6.2	70	2	70
2026-02-24T08:48	12.1	1021	6.2	70	2	70
2026-02-24T08:49	12.1	1021	6.2	80	2	70
2026-02-24T08:50	12.1	1021	6.2	70	2	70
2026-02-24T08:51	12.1	1021	6.2	80	2	70
2026-02-24T08:52	12.1	1021	6.2	80	2	70
2026-02-24T08:53	12.0	1021	6.1	80	2	70
2026-02-24T08:54	12.0	1021	6.1	80	2	70
2026-02-24T08:55	11.9	1021	6.0	80	2	70
2026-02-24T08:56	12.0	1021	6.1	80	2	70
2026-02-24T08:57	12.0	1021	6.1	80	2	70
2026-02-24T08:58	12.0	1021	6.1	80	2	70
2026-02-24T08:59	12.0	1021	6.1	80	2	70
2026-02-24T09:00	12.0	1021	6.1	80	2	70
2026-02-24T09:01	12.0	1021	6.1	80	2	70
2026-02-24T09:02	12.0	1021	6.1	80	2	70
2026-02-24T09:03	12.0	1021	6.3	70	2	70
2026-02-24T09:04	12.0	1021	6.3	70	2	70
2026-02-24T09:05	12.0	1021	6.1	70	2	70
2026-02-24T09:06	12.0	1021	6.1	70	2	70
2026-02-24T09:07	12.0	1021	6.1	70	2	70
2026-02-24T09:08	12.0	1021	6.1	70	2	70
2026-02-24T09:09	12.0	1021	6.1	70	2	70
2026-02-24T09:10	12.0	1021	6.3	70	2	70
2026-02-24T09:11	12.0	1021	6.3	70	2	70
2026-02-24T09:12	12.0	1021	6.3	70	2	70
2026-02-24T09:13	12.0	1021	6.1	70	2	70
2026-02-24T09:14	12.0	1021	6.1	70	2	70
2026-02-24T09:15	12.0	1021	6.3	70	2	70
2026-02-24T09:16	12.0	1021	6.3	70	2	70
2026-02-24T09:17	12.0	1021	6.3	70	2	70
2026-02-24T09:18	12.0	1021	6.3	70	2	70
2026-02-24T09:19	11.9	1021	6.2	70	2	70
2026-02-24T09:20	12.0	1021	6.3	70	2	70
2026-02-24T09:21	12.0	1021	6.3	70	2	70
2026-02-24T09:22	11.9	1021	6.2	70	2	70
2026-02-24T09:23	12.0	1021	6.3	70	2	70
2026-02-24T09:24	11.9	1021	6.2	70	2	70
2026-02-24T09:25	11.9	1021	6.2	70	2	70
2026-02-24T09:26	11.9	1021	6.2	70	2	70
2026-02-24T09:27	11.9	1021	6.2	80	2	70
2026-02-24T09:28	11.9	1021	6.2	80	2	70
2026-02-24T09:29	11.9	1021	6.2	80	2	70
2026-02-24T09:30	11.9	1021	6.2	80	2	70
2026-02-24T09:31	11.9	1021	6.2	80	2	70
2026-02-24T09:32	11.9	1021	6.2	80	2	70
2026-02-24T09:33	11.9	1021	6.2	80	2	70
2026-02-24T09:34	11.9	1021	6.2	80	2	70
2026-02-24T09:35	11.9	1021	6.2	90	2	70
2026-02-24T09:36	11.9	1021	6.2	90	2	70
2026-02-24T09:37	11.9	1021	6.2	90	2	70
2026-02-24T09:38	11.9	1021	6.2	90	2	70
2026-02-24T09:39	11.9	1021	6.2	90	2	70
2026-02-24T09:40	11.9	1021	6.2	90	2	70
2026-02-24T09:41	11.9	1021	6.2	90	2	70
2026-02-24T09:42	11.9	1021	6.2	90	2	70
2026-02-24T09:43	11.9	1021	6.2	90	2	70
2026-02-24T09:44	11.9	1021	6.2	90	2	70
2026-02-24T09:45	11.9	1021	6.2	90	2	70
2026-02-24T09:46	11.8	1021	6.1	90	2	70
2026-02-24T09:47	11.8	1021	6.1	90	2	70
2026-02-24T09:48	11.9	1021	6.2	90	2	70
2026-02-24T09:49	11.9	1021	6.2	80	2	70
2026-02-24T09:50	11.8	1021	6.1	80	2	70
2026-02-24T09:51	11.8	1021	6.1	80	1	70
2026-02-24T09:52	11.8	1021	6.1	80	2	70
2026-02-24T09:53	11.8	1021	6.1	80	2	70
2026-02-24T09:54	11.8	1021	6.1	80	2	70
2026-02-24T09:55	11.8	1021	6.1	80	2	70
2026-02-24T09:56	11.8	1021	6.1	70	2	70
2026-02-24T09:57	11.7	1021	6.0	70	2	70
2026-02-24T09:58	11.7	1021	6.0	70	2	70
2026-02-24T09:59	11.7	1021	6.0	80	2	70
2026-02-24T10:00	11.7	1021	6.0	80	2	70
2026-02-24T10:01	11.7	1021	6.0	80	3	70
2026-02-24T10:02	11.6	1021	5.9	80	2	70
2026-02-24T10:03	11.6	1021	5.9	80	2	70
2026-02-24T10:04	11.6	1021	5.9	80	2	70
2026-02-24T10:05	11.6	1021	5.9	80	2	70
2026-02-24T10:06	11.6	1021	5.9	80	2	70
2026-02-24T10:07	11.6	1021	6.1	80	2	70
2026-02-24T10:08	11.5	1021	6.0	80	2	70
2026-02-24T10:09	11.5	1021	6.0	80	2	70
2026-02-24T10:10	11.5	1021	6.0	80	2	70
2026-02-24T10:11	11.5	1021	6.0	80	2	70
2026-02-24T10:12	11.5	1021	6.0	80	2	70
2026-02-24T10:13	11.5	1021	6.0	80	2	70
2026-02-24T10:14	11.5	1021	6.0	80	2	70
2026-02-24T10:15	11.4	1021	5.9	80	2	70
2026-02-24T10:16	11.4	1021	5.9	80	2	70
2026-02-24T10:17	11.4	1021	5.9	80	2	70
2026-02-24T10:18	11.4	1021	5.9	80	2	70
2026-02-24T10:19	11.4	1021	5.9	80	2	70
2026-02-24T10:20	11.4	1021	5.9	80	2	70
2026-02-24T10:21	11.4	1021	5.9	80	2	70
2026-02-24T10:22	11.3	1021	6.0	80	2	70
2026-02-24T10:23	11.3	1021	6.0	80	2	70
2026-02-24T10:24	11.3	1021	6.0	80	2	70
2026-02-24T10:25	11.3	1021	6.0	80	2	70
2026-02-24T10:26	11.3	1021	6.0	80	2	70
2026-02-24T10:27	11.2	1021	6.0	80	2	70
2026-02-24T10:28	11.3	1021	6.0	80	2	70
2026-02-24T10:29	11.3	1021	6.0	80	2	70
2026-02-24T10:30	11.3	1021	6.0	70	2	70
2026-02-24T10:31	11.3	1021	6.0	80	2	70
2026-02-24T10:32	11.3	1021	6.0	80	2	70
2026-02-24T10:33	11.1	1021	5.9	80	2	70
2026-02-24T10:34	11.1	1021	5.9	80	2	70
2026-02-24T10:35	11.1	1021	6.1	80	2	70
2026-02-24T10:36	11.1	1021	6.1	80	2	70
2026-02-24T10:37	11.2	1021	6.2	80	2	70
2026-02-24T10:38	11.1	1021	6.1	80	2	70
2026-02-24T10:39	11.1	1021	6.1	80	2	70
2026-02-24T10:40	11.2	1021	6.2	80	2	70
2026-02-24T10:41	11.0	1021	6.0	80	2	70
2026-02-24T10:42	11.1	1021	6.1	80	2	70
2026-02-24T10:43	11.2	1021	6.2	70	2	70
2026-02-24T10:44	11.2	1021	6.2	70	2	70
2026-02-24T10:45	11.2	1021	6.2	80	2	70
2026-02-24T10:46	11.0	1021	6.0	80	2	70
2026-02-24T10:47	11.1	1021	6.1	80	2	70
2026-02-24T10:48	11.2	1021	6.2	80	2	70
2026-02-24T10:49	11.2	1021	6.2	80	2	70
2026-02-24T10:50	11.2	1021	6.2	80	2	70
2026-02-24T10:51	11.1	1021	6.1	70	2	70
2026-02-24T10:52	11.3	1021	6.3	80	2	70
2026-02-24T10:53	11.2	1021	6.2	80	2	70
2026-02-24T10:54	11.2	1021	6.2	80	2	70
2026-02-24T10:55	11.2	1021	6.2	80	2	70
2026-02-24T10:56	11.3	1021	6.0	80	2	70
2026-02-24T10:57	11.3	1021	6.0	80	2	70
2026-02-24T10:58	11.3	1021	6.0	80	1	70
2026-02-24T10:59	11.3	1021	6.0	80	2	70
2026-02-24T11:00	11.3	1021	6.0	80	2	70
2026-02-24T11:01	11.3	1021	6.0	80	1	70
2026-02-24T11:02	11.3	1021	6.0	80	2	70
2026-02-24T11:03	11.3	1021	6.0	80	1	70
2026-02-24T11:04	11.4	1021	6.1	80	2	70
2026-02-24T11:05	11.4	1021	6.1	80	2	70
2026-02-24T11:06	11.4	1021	6.1	70	2	70
2026-02-24T11:07	11.3	1021	6.0	70	2	70
2026-02-24T11:08	11.3	1021	6.0	70	2	70
2026-02-24T11:09	11.3	1021	6.0	60	2	70
2026-02-24T11:10	11.3	1021	6.0	60	2	70
2026-02-24T11:11	11.3	1021	6.0	60	2	70
2026-02-24T11:12	11.3	1021	6.0	60	2	70
2026-02-24T11:13	11.3	1021	6.0	60	2	70
2026-02-24T11:14	11.3	1021	6.0	60	2	70
2026-02-24T11:15	11.3	1021	6.0	60	2	70
2026-02-24T11:16	11.3	1021	6.0	60	2	70
2026-02-24T11:17	11.3	1021	6.0	60	2	70
2026-02-24T11:18	11.3	1021	6.0	60	2	70
2026-02-24T11:19	11.3	1021	6.0	60	2	70
2026-02-24T11:20	11.3	1021	6.0	60	2	70
2026-02-24T11:21	11.3	1021	6.0	60	2	70
2026-02-24T11:22	11.3	1021	6.0	60	2	70
2026-02-24T11:23	11.3	1021	6.0	60	2	70
2026-02-24T11:24	11.2	1021	6.2	60	2	70
2026-02-24T11:25	11.3	1021	6.0	60	2	70
2026-02-24T11:26	11.3	1021	6.0	60	2	70
2026-02-24T11:27	11.3	1021	6.0	60	2	70
2026-02-24T11:28	11.3	1021	6.0	70	2	70
2026-02-24T11:29	11.2	1021	6.2	60	2	70
2026-02-24T11:30	11.3	1021	6.3	70	2	70
2026-02-24T11:31	11.2	1021	6.2	70	2	70
2026-02-24T11:32	11.2	1021	6.2	70	2	70
2026-02-24T11:33	11.3	1021	6.3	70	2	70
2026-02-24T11:34	11.2	1021	6.2	70	2	70
2026-02-24T11:35	11.3	1021	6.3	70	2	70
2026-02-24T11:36	11.3	1021	6.3	70	2	70
2026-02-24T11:37	11.3	1021	6.3	70	2	70
2026-02-24T11:38	11.2	1021	6.2	70	2	70
2026-02-24T11:39	11.2	1021	6.2	60	2	70
2026-02-24T11:40	11.1	1021	6.1	60	2	70
2026-02-24T11:41	11.2	1021	6.2	60	2	70
2026-02-24T11:42	11.2	1021	6.2	60	2	70
2026-02-24T11:43	11.1	1021	6.3	60	2	70
2026-02-24T11:44	11.2	1021	6.2	60	2	70
2026-02-24T11:45	11.2	1021	6.2	60	2	70
2026-02-24T11:46	11.2	1021	6.2	60	2	70
2026-02-24T11:47	11.2	1021	6.4	60	2	70
2026-02-24T11:48	11.2	1021	6.4	60	2	70
2026-02-24T11:49	11.2	1021	6.4	60	2	70
2026-02-24T11:50	11.2	1021	6.2	50	2	70
2026-02-24T11:51	11.2	1021	6.2	60	2	70
2026-02-24T11:52	11.2	1021	6.4	60	2	70
2026-02-24T11:53	11.2	1021	6.4	60	2	70
2026-02-24T11:54	11.3	1021	6.3	60	2	70
2026-02-24T11:55	11.3	1021	6.3	60	2	70
2026-02-24T11:56	11.3	1021	6.3	60	2	70
2026-02-24T11:57	11.3	1021	6.3	60	2	70
2026-02-24T11:58	11.2	1021	6.4	70	2	70
2026-02-24T11:59	11.3	1021	6.3	70	2	70
2026-02-24T12:00	11.3	1021	6.3	70	2	70
2026-02-24T12:01	11.3	1021	6.3	70	2	70
2026-02-24T12:02	11.3	1021	6.3	60	2	70
2026-02-24T12:03	11.3	1021	6.3	60	2	70
2026-02-24T12:04	11.2	1021	6.2	60	2	70
2026-02-24T12:05	11.3	1021	6.3	60	2	70
2026-02-24T12:06	11.3	1021	6.3	60	2	70
2026-02-24T12:07	11.3	1021	6.3	60	2	70
2026-02-24T12:08	11.3	1021	6.3	60	2	70
2026-02-24T12:09	11.3	1021	6.3	60	2	70
2026-02-24T12:10	11.3	1021	6.3	60	2	70
2026-02-24T12:11	11.2	1021	6.2	60	2	70
2026-02-24T12:12	11.2	1021	6.2	70	2	70
2026-02-24T12:13	11.2	1021	6.2	70	2	70
2026-02-24T12:14	11.3	1021	6.3	60	2	70
2026-02-24T12:15	11.3	1021	6.3	60	2	70
2026-02-24T12:16	11.2	1021	6.2	60	2	70
2026-02-24T12:17	11.2	1021	6.4	60	2	70
2026-02-24T12:18	11.2	1021	6.4	50	2	70
2026-02-24T12:19	11.2	1020	6.4	60	2	70
2026-02-24T12:20	11.2	1020	6.4	60	2	70
2026-02-24T12:21	11.3	1020	6.5	60	2	70
2026-02-24T12:22	11.3	1020	6.5	60	2	70
2026-02-24T12:23	11.2	1020	6.4	60	2	70
2026-02-24T12:24	11.2	1020	6.4	50	2	69
2026-02-24T12:25	11.3	1020	6.5	50	1	69
2026-02-24T12:26	11.2	1020	6.4	60	1	69
2026-02-24T12:27	11.3	1020	6.5	50	1	69
2026-02-24T12:28	11.3	1021	6.5	60	1	68
2026-02-24T12:29	11.3	1021	6.5	60	1	68
2026-02-24T12:30	11.2	1021	6.4	60	1	68
2026-02-24T12:31	11.2	1021	6.4	60	1	68
2026-02-24T12:32	11.2	1021	6.4	60	1	68
2026-02-24T12:33	11.2	1020	6.4	50	1	68
2026-02-24T12:34	11.1	1021	6.3	60	1	68
2026-02-24T12:35	11.1	1021	6.3	60	1	68
2026-02-24T12:36	11.1	1021	6.3	60	1	68
2026-02-24T12:37	11.1	1021	6.5	60	1	68
2026-02-24T12:38	11.1	1021	6.5	60	1	68
2026-02-24T12:39	11.1	1021	6.5	50	1	68
2026-02-24T12:40	11.1	1021	6.5	60	1	68
2026-02-24T12:41	11.1	1021	6.5	50	1	68
2026-02-24T12:42	11.1	1021	6.5	50	1	68
2026-02-24T12:43	11.1	1021	6.5	50	1	67
2026-02-24T12:44	11.1	1021	6.5	50	1	67
2026-02-24T12:45	11.1	1021	6.5	50	1	67
2026-02-24T12:46	11.1	1021	6.5	40	1	67
2026-02-24T12:47	11.1	1021	6.5	40	1	67
2026-02-24T12:48	11.0	1021	6.4	40	1	67
2026-02-24T12:49	11.0	1021	6.4	40	1	67
2026-02-24T12:50	11.1	1021	6.5	50	1	67
2026-02-24T12:51	11.1	1021	6.5	50	1	67
2026-02-24T12:52	11.1	1020	6.5	40	1	67
2026-02-24T12:53	11.2	1020	6.6	40	1	67
2026-02-24T12:54	11.2	1020	6.6	50	1	67
2026-02-24T12:55	11.2	1020	6.6	50	1	67
2026-02-24T12:56	11.1	1020	6.5	60	1	67
2026-02-24T12:57	11.2	1020	6.6	60	2	67
2026-02-24T12:58	11.1	1020	6.5	60	2	67
2026-02-24T12:59	11.2	1020	6.6	60	2	67
2026-02-24T13:00	11.1	1020	6.5	60	2	67
2026-02-24T13:01	11.1	1020	6.5	60	2	67
2026-02-24T13:02	11.2	1020	6.6	60	2	68
2026-02-24T13:03	11.2	1020	6.6	60	2	68
2026-02-24T13:04	11.2	1020	6.6	60	2	68
2026-02-24T13:05	11.2	1020	6.6	60	2	68
2026-02-24T13:06	11.2	1020	6.6	50	2	69
2026-02-24T13:07	11.1	1020	6.5	50	2	69
2026-02-24T13:08	11.1	1020	6.5	50	2	69
2026-02-24T13:09	11.1	1020	6.5	50	2	69
2026-02-24T13:10	11.2	1020	6.6	50	2	69
2026-02-24T13:11	11.2	1020	6.6	40	2	69
2026-02-24T13:12	11.2	1020	6.6	40	2	69
2026-02-24T13:13	11.1	1020	6.7	50	2	70
2026-02-24T13:14	11.2	1020	6.6	50	2	70
2026-02-24T13:15	11.2	1020	6.8	50	1	70
2026-02-24T13:16	11.3	1020	6.7	50	1	70
2026-02-24T13:17	11.3	1020	6.7	50	1	70
2026-02-24T13:18	11.2	1020	6.8	50	1	70
2026-02-24T13:19	11.2	1020	6.8	60	1	70
2026-02-24T13:20	11.2	1020	6.8	60	1	70
2026-02-24T13:21	11.2	1020	6.8	60	1	70
2026-02-24T13:22	11.2	1020	6.8	50	1	70
2026-02-24T13:23	11.2	1020	6.8	50	1	70
2026-02-24T13:24	11.3	1020	6.9	50	1	70
2026-02-24T13:25	11.3	1020	6.9	50	1	70
2026-02-24T13:26	11.3	1020	6.9	40	2	70
2026-02-24T13:27	11.3	1020	6.9	40	2	70
2026-02-24T13:28	11.3	1020	6.9	40	2	70
2026-02-24T13:29	11.3	1020	6.9	40	2	70
2026-02-24T13:30	11.3	1020	6.9	40	2	70
2026-02-24T13:31	11.4	1020	6.9	40	2	70
2026-02-24T13:32	11.3	1020	6.9	40	2	70
2026-02-24T13:33	11.3	1020	6.9	40	2	70
2026-02-24T13:34	11.4	1020	6.9	40	2	70
2026-02-24T13:35	11.4	1020	6.9	40	2	70
2026-02-24T13:36	11.4	1020	6.9	40	2	70
2026-02-24T13:37	11.4	1020	6.9	40	2	70
2026-02-24T13:38	11.4	1020	6.9	50	1	70
2026-02-24T13:39	11.4	1020	6.9	50	1	70
2026-02-24T13:40	11.4	1020	6.9	50	1	70
2026-02-24T13:41	11.4	1020	6.9	50	1	70
2026-02-24T13:42	11.4	1020	6.9	60	1	70
2026-02-24T13:43	11.4	1020	6.9	50	1	70
2026-02-24T13:44	11.5	1020	7.0	50	1	70
2026-02-24T13:45	11.4	1020	6.9	60	1	70
2026-02-24T13:46	11.4	1020	6.9	60	1	70
2026-02-24T13:47	11.4	1020	6.9	60	1	70
2026-02-24T13:48	11.5	1020	7.0	60	1	70
2026-02-24T13:49	11.4	1020	6.9	60	1	70
2026-02-24T13:50	11.5	1020	7.0	60	1	70
2026-02-24T13:51	11.4	1020	6.9	60	1	70
2026-02-24T13:52	11.3	1020	7.0	60	1	70
2026-02-24T13:53	11.4	1020	7.1	70	1	70
2026-02-24T13:54	11.5	1020	7.0	70	1	70
2026-02-24T13:55	11.4	1020	6.9	70	1	70
2026-02-24T13:56	11.5	1020	7.0	70	1	70
2026-02-24T13:57	11.4	1020	6.9	70	1	70
2026-02-24T13:58	11.4	1020	6.9	70	1	70
2026-02-24T13:59	11.4	1020	6.9	80	1	70
2026-02-24T14:00	11.4	1020	6.9	80	1	70
2026-02-24T14:01	11.4	1020	6.9	80	1	70
2026-02-24T14:02	11.5	1020	7.0	80	1	70
2026-02-24T14:03	11.5	1020	7.0	90	1	70
2026-02-24T14:04	11.5	1020	7.0	90	1	70
2026-02-24T14:05	11.5	1020	7.0	90	1	70
2026-02-24T14:06	11.5	1020	7.0	90	1	70
2026-02-24T14:07	11.5	1020	6.8	80	1	70
2026-02-24T14:08	11.5	1020	7.0	80	1	70
2026-02-24T14:09	11.4	1020	6.9	70	1	70
2026-02-24T14:10	11.5	1020	7.0	70	1	70
2026-02-24T14:11	11.5	1020	6.8	70	1	70
2026-02-24T14:12	11.4	1020	6.9	70	1	70
2026-02-24T14:13	11.4	1020	6.9	60	1	70
2026-02-24T14:14	11.4	1020	6.9	60	1	70
2026-02-24T14:15	11.4	1020	6.9	60	1	70
2026-02-24T14:16	11.4	1020	6.9	60	1	70
2026-02-24T14:17	11.4	1020	6.9	70	1	70
2026-02-24T14:18	11.4	1020	6.9	70	1	70
2026-02-24T14:19	11.4	1019	6.9	70	1	70
2026-02-24T14:20	11.4	1019	6.9	70	1	70
2026-02-24T14:21	11.4	1019	6.9	70	2	70
2026-02-24T14:22	11.4	1019	6.9	70	1	70
2026-02-24T14:23	11.5	1019	7.0	80	1	70
2026-02-24T14:24	11.5	1020	6.8	80	1	70
2026-02-24T14:25	11.6	1020	6.9	90	1	70
2026-02-24T14:26	11.6	1019	6.9	80	1	70
2026-02-24T14:27	11.6	1019	6.9	80	1	70
2026-02-24T14:28	11.5	1019	6.8	80	1	69
2026-02-24T14:29	11.5	1019	6.8	80	1	69
2026-02-24T14:30	11.5	1019	6.8	80	1	69
2026-02-24T14:31	11.6	1019	6.9	80	1	69
2026-02-24T14:32	11.6	1019	6.9	80	1	69
2026-02-24T14:33	11.5	1019	6.8	70	1	69
2026-02-24T14:34	11.5	1019	6.8	70	1	69
2026-02-24T14:35	11.5	1019	6.8	70	2	69
2026-02-24T14:36	11.6	1019	6.9	70	2	69
2026-02-24T14:37	11.6	1019	6.9	70	1	69
2026-02-24T14:38	11.6	1019	6.9	70	2	69
2026-02-24T14:39	11.6	1019	6.9	70	2	69
2026-02-24T14:40	11.6	1019	6.9	70	2	69
2026-02-24T14:41	11.6	1019	6.9	70	2	69
2026-02-24T14:42	11.7	1019	7.0	70	2	69
2026-02-24T14:43	11.6	1019	6.9	70	2	69
2026-02-24T14:44	11.6	1019	6.9	80	2	69
2026-02-24T14:45	11.6	1019	6.9	70	2	69
2026-02-24T14:46	11.6	1019	6.9	70	2	69
2026-02-24T14:47	11.6	1019	6.7	70	2	69
2026-02-24T14:48	11.6	1019	6.9	70	1	69
2026-02-24T14:49	11.6	1019	6.9	70	1	70
2026-02-24T14:50	11.6	1019	6.9	60	1	70
2026-02-24T14:51	11.6	1019	6.9	60	1	69
2026-02-24T14:52	11.6	1019	6.9	60	1	70
2026-02-24T14:53	11.6	1019	6.9	50	1	70
2026-02-24T14:54	11.6	1019	6.9	50	1	70
2026-02-24T14:55	11.6	1019	6.9	50	1	69
2026-02-24T14:56	11.6	1019	6.9	50	1	69
2026-02-24T14:57	11.6	1019	6.9	50	1	69
2026-02-24T14:58	11.6	1019	6.9	50	1	70
2026-02-24T14:59	11.6	1019	6.9	60	1	69
2026-02-24T15:00	11.6	1019	6.7	70	1	69
2026-02-24T15:01	11.6	1019	6.7	80	1	69
2026-02-24T15:02	11.6	1019	6.7	100	1	69
2026-02-24T15:03	11.6	1019	6.7	110	1	70
2026-02-24T15:04	11.6	1019	6.7	120	1	70
2026-02-24T15:05	11.6	1019	6.7	120	1	70
2026-02-24T15:06	11.7	1019	6.8	120	1	70
2026-02-24T15:07	11.7	1019	6.8	120	1	70
2026-02-24T15:08	11.7	1019	6.8	120	1	70
2026-02-24T15:09	11.7	1019	6.8	110	1	70
2026-02-24T15:10	11.7	1019	6.8	110	1	69
2026-02-24T15:11	11.7	1020	6.8	100	1	69
2026-02-24T15:12	11.7	1020	6.8	90	1	69
2026-02-24T15:13	11.6	1020	6.7	80	1	69
2026-02-24T15:14	11.6	1020	6.7	70	1	69
2026-02-24T15:15	11.6	1020	6.7	70	1	69
2026-02-24T15:16	11.5	1020	6.6	60	1	69
2026-02-24T15:17	11.6	1020	6.7	50	1	69
2026-02-24T15:18	11.6	1020	6.7	40	1	69
2026-02-24T15:19	11.6	1020	6.7	20	1	69
2026-02-24T15:20	11.6	1020	6.7	10	1	69
2026-02-24T15:21	11.5	1020	6.6	360	1	69
2026-02-24T15:22	11.5	1019	6.6	350	1	69
2026-02-24T15:23	11.5	1019	6.8	350	1	69
2026-02-24T15:24	11.4	1019	6.9	340	1	69
2026-02-24T15:25	11.4	1019	6.7	340	1	68
2026-02-24T15:26	11.4	1019	6.7	340	1	69
2026-02-24T15:27	11.4	1019	6.7	340	1	69
2026-02-24T15:28	11.4	1019	6.7	350	1	68
2026-02-24T15:29	11.4	1019	6.9	350	1	69
2026-02-24T15:30	11.4	1019	6.7	350	1	68
2026-02-24T15:31	11.4	1019	6.7	360	1	69
2026-02-24T15:32	11.4	1019	6.7	360	1	69
2026-02-24T15:33	11.4	1019	6.7	360	1	68
2026-02-24T15:34	11.4	1019	6.9	10	1	68
2026-02-24T15:35	11.4	1019	6.7	10	1	67
2026-02-24T15:36	11.4	1019	6.9	10	1	66
2026-02-24T15:37	11.3	1019	6.9	10	1	64
2026-02-24T15:38	11.3	1019	6.9	20	1	64
2026-02-24T15:39	11.3	1019	6.9	20	1	63
2026-02-24T15:40	11.3	1019	7.0	30	1	62
2026-02-24T15:41	11.3	1019	7.0	30	1	61
2026-02-24T15:42	11.2	1019	7.1	40	1	60
2026-02-24T15:43	11.2	1019	7.1	40	1	58
2026-02-24T15:44	11.1	1019	7.2	50	1	57
2026-02-24T15:45	11.1	1019	7.2	60	1	57
2026-02-24T15:46	11.0	1019	7.3	70	1	56
2026-02-24T15:47	10.9	1019	7.6	60	1	56
2026-02-24T15:48	10.7	1019	7.6	60	1	55
2026-02-24T15:49	10.7	1019	7.6	50	1	55
2026-02-24T15:50	10.6	1019	7.7	30	1	49
2026-02-24T15:51	10.4	1019	8.0	10	1	46
2026-02-24T15:52	10.4	1019	8.2	330	1	45
2026-02-24T15:53	10.4	1019	8.0	300	1	44
2026-02-24T15:54	10.4	1019	8.0	300	1	43
2026-02-24T15:55	10.4	1019	8.0	300	1	42
2026-02-24T15:56	10.4	1019	8.0	310	1	41
2026-02-24T15:57	10.1	1019	8.2	310	1	41
2026-02-24T15:58	10.1	1019	8.4	70	1	41
2026-02-24T15:59	10.0	1019	8.6	80	1	44
2026-02-24T16:00	9.9	1019	8.7	40	1	47
2026-02-24T16:01	10.0	1019	8.6	50	1	49
2026-02-24T16:02	10.0	1019	8.6	50	1	55
2026-02-24T16:03	9.9	1019	8.7	60	1	55
2026-02-24T16:04	9.9	1019	8.7	70	1	56
2026-02-24T16:05	9.9	1019	8.8	70	1	56
2026-02-24T16:06	10.0	1019	8.9	70	1	57
2026-02-24T16:07	10.0	1019	8.9	70	1	57
2026-02-24T16:08	10.1	1019	9.0	80	1	57
2026-02-24T16:09	10.1	1019	8.9	80	1	58
2026-02-24T16:10	10.1	1019	8.7	90	1	58
2026-02-24T16:11	10.2	1019	8.8	100	1	58
2026-02-24T16:12	10.2	1019	8.8	110	1	58
2026-02-24T16:13	10.2	1019	8.6	110	1	59
2026-02-24T16:14	10.2	1019	8.6	110	1	59
2026-02-24T16:15	10.2	1019	8.5	110	1	59
2026-02-24T16:16	10.2	1019	8.6	110	1	59
2026-02-24T16:17	10.2	1019	8.6	110	1	59
2026-02-24T16:18	10.2	1019	8.6	100	1	59
2026-02-24T16:19	10.2	1019	8.6	100	1	59
2026-02-24T16:20	10.3	1019	8.6	100	1	59
2026-02-24T16:21	10.3	1019	8.6	100	1	59
2026-02-24T16:22	10.3	1019	8.6	100	1	59
2026-02-24T16:23	10.3	1019	8.6	100	1	58
2026-02-24T16:24	10.3	1019	8.6	100	1	58
2026-02-24T16:25	10.3	1019	8.4	100	1	57
2026-02-24T16:26	10.3	1019	8.6	100	2	57
2026-02-24T16:27	10.3	1019	8.6	100	2	57
2026-02-24T16:28	10.3	1019	8.6	110	2	56
2026-02-24T16:29	10.3	1019	8.6	110	2	56
2026-02-24T16:30	10.3	1019	8.6	110	2	56
2026-02-24T16:31	10.3	1019	8.6	110	2	56
2026-02-24T16:32	10.2	1019	8.6	110	2	55
2026-02-24T16:33	10.2	1019	8.6	100	2	55
2026-02-24T16:34	10.2	1019	8.6	100	2	55
2026-02-24T16:35	10.2	1019	8.6	100	2	55
2026-02-24T16:36	10.2	1019	8.6	100	2	55
2026-02-24T16:37	10.2	1019	8.6	100	2	56
2026-02-24T16:38	10.2	1019	8.6	100	2	56
2026-02-24T16:39	10.2	1019	8.6	100	2	56
2026-02-24T16:40	10.2	1019	8.6	100	2	55
2026-02-24T16:41	10.1	1019	8.5	100	2	55
2026-02-24T16:42	10.1	1019	8.5	100	2	55
2026-02-24T16:43	10.1	1019	8.7	100	2	55
2026-02-24T16:44	10.0	1019	8.6	100	2	55
2026-02-24T16:45	10.0	1019	8.6	100	2	55
2026-02-24T16:46	10.0	1019	8.6	100	2	56
2026-02-24T16:47	10.0	1019	8.8	100	2	56
2026-02-24T16:48	9.9	1019	8.7	100	2	56
2026-02-24T16:49	9.9	1019	8.7	100	2	57
2026-02-24T16:50	9.9	1019	8.8	90	2	57
2026-02-24T16:51	9.8	1019	8.7	90	2	58
2026-02-24T16:52	9.8	1019	8.7	90	2	59
2026-02-24T16:53	9.8	1019	8.9	100	2	59
2026-02-24T16:54	9.8	1018	8.9	100	2	60
2026-02-24T16:55	9.8	1018	8.9	100	2	60
2026-02-24T16:56	9.8	1018	8.9	100	2	60
2026-02-24T16:57	9.8	1019	8.9	100	2	60
2026-02-24T16:58	9.8	1019	8.9	100	1	60
2026-02-24T16:59	9.8	1018	8.9	100	1	61
2026-02-24T17:00	9.8	1018	9.0	100	1	61
2026-02-24T17:01	9.7	1018	8.9	100	1	62
2026-02-24T17:02	9.8	1018	9.0	100	1	63
2026-02-24T17:03	9.8	1018	9.0	90	1	63
2026-02-24T17:04	9.8	1018	9.0	90	1	63
2026-02-24T17:05	9.8	1018	9.0	90	1	63
2026-02-24T17:06	9.8	1018	9.0	80	1	64
2026-02-24T17:07	9.8	1018	9.0	70	1	64
2026-02-24T17:08	9.7	1018	8.9	60	1	64
2026-02-24T17:09	9.7	1018	8.9	60	1	64
2026-02-24T17:10	9.7	1018	8.9	50	1	64
2026-02-24T17:11	9.7	1019	8.9	40	1	64
2026-02-24T17:12	9.6	1019	8.8	30	1	64
2026-02-24T17:13	9.6	1019	8.8	30	1	63
2026-02-24T17:14	9.6	1019	9.0	30	1	63
2026-02-24T17:15	9.6	1019	9.0	20	1	63
2026-02-24T17:16	9.6	1019	9.0	20	1	63
2026-02-24T17:17	9.6	1019	9.0	20	1	63
2026-02-24T17:18	9.6	1019	9.0	20	1	63
2026-02-24T17:19	9.6	1019	9.0	20	1	62
2026-02-24T17:20	9.6	1019	9.0	20	1	62
2026-02-24T17:21	9.6	1018	9.0	30	1	62
2026-02-24T17:22	9.6	1018	9.0	30	1	62
2026-02-24T17:23	9.6	1018	9.2	40	1	62
2026-02-24T17:24	9.6	1018	9.2	30	1	61
2026-02-24T17:25	9.6	1018	9.2	30	1	61
2026-02-24T17:26	9.5	1018	9.1	30	1	61
2026-02-24T17:27	9.6	1018	9.2	30	1	61
2026-02-24T17:28	9.6	1018	9.2	40	1	61
2026-02-24T17:29	9.6	1018	9.2	40	1	61
2026-02-24T17:30	9.6	1018	9.2	40	1	61
2026-02-24T17:31	9.6	1018	9.2	40	1	61
2026-02-24T17:32	9.6	1019	9.2	40	1	61
2026-02-24T17:33	9.6	1018	9.2	40	1	61
2026-02-24T17:34	9.6	1018	9.2	50	1	61
2026-02-24T17:35	9.6	1018	9.2	40	1	61
2026-02-24T17:36	9.6	1018	9.2	40	1	60
2026-02-24T17:37	9.6	1018	9.2	40	1	60
2026-02-24T17:38	9.6	1018	9.2	30	1	60
2026-02-24T17:39	9.6	1019	9.2	20	1	60
2026-02-24T17:40	9.6	1019	9.2	20	1	60
2026-02-24T17:41	9.6	1019	9.2	10	1	59
2026-02-24T17:42	9.6	1019	9.2	10	1	60
2026-02-24T17:43	9.7	1019	9.3	10	1	59
2026-02-24T17:44	9.7	1019	9.3	10	1	59
2026-02-24T17:45	9.6	1019	9.2	20	1	60
2026-02-24T17:46	9.7	1018	9.3	20	1	60
2026-02-24T17:47	9.7	1018	9.3	30	1	60
2026-02-24T17:48	9.7	1018	9.3	50	1	60
2026-02-24T17:49	9.7	1018	9.3	60	1	60
2026-02-24T17:50	9.7	1018	9.1	70	1	60
2026-02-24T17:51	9.7	1018	9.1	80	1	60
2026-02-24T17:52	9.7	1018	9.1	80	1	60
2026-02-24T17:53	9.7	1018	9.1	90	1	60
2026-02-24T17:54	9.7	1018	9.1	90	1	60
2026-02-24T17:55	9.7	1018	9.1	80	1	60
2026-02-24T17:56	9.7	1018	9.1	80	1	60
2026-02-24T17:57	9.7	1018	9.1	80	1	60
2026-02-24T17:58	9.7	1018	9.1	70	1	60
2026-02-24T17:59	9.7	1018	9.1	60	1	60
2026-02-24T18:00	9.7	1018	9.1	40	1	60
2026-02-24T18:01	9.6	1018	9.0	20	1	60
2026-02-24T18:02	9.6	1018	9.0	10	1	59
2026-02-24T18:03	9.5	1018	9.1	360	1	59
2026-02-24T18:04	9.5	1018	9.1	360	1	59
2026-02-24T18:05	9.5	1018	9.1	360	1	59
2026-02-24T18:06	9.5	1018	9.1	360	1	59
2026-02-24T18:07	9.5	1018	9.1	360	1	58
2026-02-24T18:08	9.5	1018	9.1	360	2	58
2026-02-24T18:09	9.5	1018	9.1	10	1	58
2026-02-24T18:10	9.5	1018	9.2	10	1	58
2026-02-24T18:11	9.5	1018	9.2	20	1	58
2026-02-24T18:12	9.5	1018	9.2	30	1	59
2026-02-24T18:13	9.5	1018	9.2	30	1	59
2026-02-24T18:14	9.5	1018	9.2	40	1	59
2026-02-24T18:15	9.5	1018	9.2	40	1	59
2026-02-24T18:16	9.4	1018	9.1	50	1	59
2026-02-24T18:17	9.5	1018	9.2	50	1	59
2026-02-24T18:18	9.5	1018	9.2	60	1	59
2026-02-24T18:19	9.5	1018	9.2	60	1	59
2026-02-24T18:20	9.5	1018	9.2	70	1	59
2026-02-24T18:21	9.6	1018	9.3	70	1	60
2026-02-24T18:22	9.6	1018	9.3	70	1	60
2026-02-24T18:23	9.6	1018	9.2	80	1	60
2026-02-24T18:24	9.6	1018	9.2	80	2	60
2026-02-24T18:25	9.6	1018	9.2	80	2	60
2026-02-24T18:26	9.6	1018	9.2	80	2	61
2026-02-24T18:27	9.6	1018	9.2	80	2	62
2026-02-24T18:28	9.6	1018	9.2	70	1	62
2026-02-24T18:29	9.6	1018	9.2	80	1	62
2026-02-24T18:30	9.6	1018	9.2	80	1	62
2026-02-24T18:31	9.6	1018	9.2	80	1	61
2026-02-24T18:32	9.6	1018	9.2	70	1	61
2026-02-24T18:33	9.7	1018	9.3	70	1	62
2026-02-24T18:34	9.6	1018	9.2	70	1	61
2026-02-24T18:35	9.6	1018	9.2	80	1	61
2026-02-24T18:36	9.5	1018	9.1	80	1	61
2026-02-24T18:37	9.6	1018	9.2	80	1	61
2026-02-24T18:38	9.5	1018	9.1	80	1	61
2026-02-24T18:39	9.5	1018	9.1	90	1	61
2026-02-24T18:40	9.5	1018	9.1	90	1	61
2026-02-24T18:41	9.5	1018	9.2	90	1	61
2026-02-24T18:42	9.5	1018	9.1	90	1	60
2026-02-24T18:43	9.6	1018	9.3	90	1	60
2026-02-24T18:44	9.6	1017	9.3	90	1	60
2026-02-24T18:45	9.7	1018	9.4	90	1	60
2026-02-24T18:46	9.7	1018	9.4	90	1	60
2026-02-24T18:47	9.7	1018	9.3	90	1	60
2026-02-24T18:48	9.7	1018	9.3	90	1	61
2026-02-24T18:49	9.8	1018	9.4	90	1	61
2026-02-24T18:50	9.7	1018	9.3	100	1	61
2026-02-24T18:51	9.8	1018	9.4	100	1	61
2026-02-24T18:52	9.9	1018	9.5	100	1	62
2026-02-24T18:53	9.8	1018	9.4	100	1	62
2026-02-24T18:54	9.7	1018	9.1	100	1	62
2026-02-24T18:55	9.8	1018	9.4	100	1	62
2026-02-24T18:56	9.8	1018	9.4	100	1	62
2026-02-24T18:57	9.8	1018	9.4	100	1	62
2026-02-24T18:58	9.9	1018	9.3	110	1	62
2026-02-24T18:59	9.8	1018	9.2	110	1	62
2026-02-24T19:00	9.8	1018	9.2	100	1	62
2026-02-24T19:01	9.9	1017	9.3	100	1	62
2026-02-24T19:02	9.9	1017	9.3	100	1	62
2026-02-24T19:03	9.8	1017	9.2	100	1	62
2026-02-24T19:04	9.8	1017	9.2	100	1	62
2026-02-24T19:05	9.8	1017	9.2	90	1	62
2026-02-24T19:06	9.7	1017	9.1	90	1	62
2026-02-24T19:07	9.8	1017	9.2	80	1	62
2026-02-24T19:08	9.8	1017	9.4	80	1	61
2026-02-24T19:09	9.8	1017	9.4	70	1	61
2026-02-24T19:10	9.8	1017	9.4	60	1	61
2026-02-24T19:11	9.8	1017	9.4	60	1	61
2026-02-24T19:12	9.8	1017	9.4	50	1	61
2026-02-24T19:13	9.8	1017	9.4	40	1	61
2026-02-24T19:14	9.8	1017	9.4	40	1	61
2026-02-24T19:15	9.7	1017	9.3	30	1	61
2026-02-24T19:16	9.7	1017	9.3	20	1	61
2026-02-24T19:17	9.7	1017	9.3	20	1	61
2026-02-24T19:18	9.7	1017	9.3	20	1	61
2026-02-24T19:19	9.7	1017	9.3	30	1	61
2026-02-24T19:20	9.7	1017	9.3	20	1	60
2026-02-24T19:21	9.7	1017	9.3	20	1	60
2026-02-24T19:22	9.7	1017	9.3	20	1	60
2026-02-24T19:23	9.7	1017	9.3	20	1	60
2026-02-24T19:24	9.7	1017	9.3	20	1	60
2026-02-24T19:25	9.7	1017	9.3	20	1	60
2026-02-24T19:26	9.7	1017	9.3	20	1	60
2026-02-24T19:27	9.7	1017	9.3	20	1	60
2026-02-24T19:28	9.7	1017	9.3	10	1	60
2026-02-24T19:29	9.7	1017	9.3	10	1	60
2026-02-24T19:30	9.7	1017	9.3	360	1	60
2026-02-24T19:31	9.8	1017	9.4	10	1	60
2026-02-24T19:32	9.7	1017	9.3	10	1	59
2026-02-24T19:33	9.8	1018	9.4	360	1	59
2026-02-24T19:34	9.8	1018	9.4	360	1	59
2026-02-24T19:35	9.8	1017	9.4	360	1	59
2026-02-24T19:36	9.8	1017	9.4	10	1	59
2026-02-24T19:37	9.8	1017	9.4	10	1	59
2026-02-24T19:38	9.8	1017	9.4	10	1	59
2026-02-24T19:39	9.8	1017	9.4	10	1	59
2026-02-24T19:40	9.8	1017	9.4	20	1	59
2026-02-24T19:41	9.8	1017	9.4	10	1	59
2026-02-24T19:42	9.8	1017	9.4	20	1	59
2026-02-24T19:43	9.8	1017	9.4	20	1	59
2026-02-24T19:44	9.8	1017	9.4	20	1	59
2026-02-24T19:45	9.8	1017	9.4	20	1	59
2026-02-24T19:46	9.8	1017	9.4	20	1	59
2026-02-24T19:47	9.8	1017	9.4	10	1	59
2026-02-24T19:48	9.8	1017	9.4	10	1	59
2026-02-24T19:49	9.8	1017	9.4	10	1	59
2026-02-24T19:50	9.8	1017	9.4	20	1	59
2026-02-24T19:51	9.8	1017	9.4	20	1	59
2026-02-24T19:52	9.8	1017	9.4	20	1	59
2026-02-24T19:53	9.8	1017	9.4	30	1	59
2026-02-24T19:54	9.9	1017	9.5	30	1	59
2026-02-24T19:55	9.9	1017	9.5	30	1	60
2026-02-24T19:56	9.9	1017	9.5	30	1	60
2026-02-24T19:57	9.9	1017	9.5	40	1	60
2026-02-24T19:58	9.9	1017	9.5	50	1	60
2026-02-24T19:59	10.0	1017	9.6	50	1	60
2026-02-24T20:00	10.0	1017	9.6	60	1	60
2026-02-24T20:01	10.0	1017	9.4	60	1	61
2026-02-24T20:02	10.0	1017	9.4	60	1	61
2026-02-24T20:03	10.0	1017	9.4	60	1	60
2026-02-24T20:04	9.9	1017	9.3	60	1	60
2026-02-24T20:05	10.0	1017	9.4	60	1	60
2026-02-24T20:06	10.0	1017	9.4	70	1	60
2026-02-24T20:07	10.0	1017	9.4	70	1	60
2026-02-24T20:08	10.0	1017	9.4	60	1	60
2026-02-24T20:09	10.0	1017	9.4	60	1	60
2026-02-24T20:10	10.0	1017	9.4	60	1	60
2026-02-24T20:11	10.0	1017	9.4	50	1	60
2026-02-24T20:12	10.0	1017	9.4	50	1	60
2026-02-24T20:13	10.0	1017	9.4	50	1	60
2026-02-24T20:14	10.0	1017	9.4	40	1	60
2026-02-24T20:15	10.0	1017	9.4	40	1	60
2026-02-24T20:16	9.9	1017	9.3	40	1	60
2026-02-24T20:17	9.9	1017	9.3	30	1	60
2026-02-24T20:18	9.9	1017	9.3	20	1	60
2026-02-24T20:19	10.0	1017	9.4	20	1	60
2026-02-24T20:20	9.9	1017	9.3	20	1	60
2026-02-24T20:21	9.9	1017	9.3	20	1	60
2026-02-24T20:22	9.9	1017	9.3	20	1	60
2026-02-24T20:23	9.9	1017	9.3	20	1	60
2026-02-24T20:24	9.9	1017	9.5	20	1	59
2026-02-24T20:25	10.0	1017	9.6	20	1	59
2026-02-24T20:26	9.9	1017	9.5	10	1	59
2026-02-24T20:27	9.9	1017	9.5	10	1	59
2026-02-24T20:28	9.9	1017	9.5	10	1	59
2026-02-24T20:29	9.9	1017	9.5	360	1	59
2026-02-24T20:30	9.9	1017	9.5	360	1	58
2026-02-24T20:31	9.9	1017	9.5	360	1	58
2026-02-24T20:32	10.0	1017	9.6	350	1	58
2026-02-24T20:33	10.0	1017	9.6	360	1	58
2026-02-24T20:34	10.0	1017	9.6	360	1	58
2026-02-24T20:35	10.0	1017	9.6	10	1	58
2026-02-24T20:36	10.0	1017	9.6	10	1	58
2026-02-24T20:37	10.0	1017	9.6	10	1	58
2026-02-24T20:38	10.0	1017	9.6	10	1	58
2026-02-24T20:39	10.0	1017	9.6	10	1	58
2026-02-24T20:40	10.0	1017	9.6	10	1	58
2026-02-24T20:41	10.0	1017	9.6	10	1	58
2026-02-24T20:42	10.0	1017	9.6	10	1	58
2026-02-24T20:43	10.0	1017	9.6	360	1	58
2026-02-24T20:44	10.0	1017	9.6	360	1	58
2026-02-24T20:45	10.0	1017	9.6	350	1	58
2026-02-24T20:46	10.0	1017	9.6	350	1	58
2026-02-24T20:47	10.0	1017	9.6	350	1	57
2026-02-24T20:48	10.0	1017	9.6	350	1	57
2026-02-24T20:49	10.0	1017	9.6	350	1	57
2026-02-24T20:50	10.0	1017	9.6	350	1	56
2026-02-24T20:51	10.0	1017	9.7	350	1	56
2026-02-24T20:52	10.0	1017	9.7	350	1	56
2026-02-24T20:53	9.9	1017	9.6	350	1	55
2026-02-24T20:54	9.9	1017	9.6	350	1	55
2026-02-24T20:55	10.0	1017	9.7	350	1	55
2026-02-24T20:56	10.0	1017	9.7	350	1	55
2026-02-24T20:57	10.0	1017	9.7	350	1	55
2026-02-24T20:58	10.0	1017	9.7	360	1	55
2026-02-24T20:59	10.0	1017	9.7	10	1	55
2026-02-24T21:00	10.0	1017	9.7	10	1	55
2026-02-24T21:01	10.0	1017	9.7	30	1	55
2026-02-24T21:02	10.0	1017	9.7	30	1	55
2026-02-24T21:03	10.0	1017	9.7	40	1	55
2026-02-24T21:04	10.0	1017	9.7	50	1	55
2026-02-24T21:05	10.0	1017	9.7	60	1	55
2026-02-24T21:06	10.0	1017	9.7	60	1	55
2026-02-24T21:07	10.0	1017	9.7	70	1	55
2026-02-24T21:08	10.0	1017	9.7	60	1	55
2026-02-24T21:09	10.0	1017	9.7	60	1	55
2026-02-24T21:10	10.0	1017	9.7	70	0	55
2026-02-24T21:11	10.1	1017	9.8	70	0	49
2026-02-24T21:12	10.1	1017	9.8	80	0	47
2026-02-24T21:13	10.1	1017	9.8	90	1	47
2026-02-24T21:14	10.1	1017	9.8	110	1	46
2026-02-24T21:15	10.1	1017	9.8	120	1	46
2026-02-24T21:16	10.1	1017	9.8	140	1	46
2026-02-24T21:17	10.1	1017	9.8	140	1	45
2026-02-24T21:18	10.1	1017	9.8	140	1	43
2026-02-24T21:19	10.0	1017	9.7	140	1	44
2026-02-24T21:20	10.0	1017	9.7	130	1	40
2026-02-24T21:21	9.9	1017	9.6	110	1	41
2026-02-24T21:22	9.9	1017	9.6	100	1	43
2026-02-24T21:23	10.0	1017	9.7	100	1	45
2026-02-24T21:24	10.0	1017	9.9	100	1	49
2026-02-24T21:25	10.0	1017	9.9	110	1	55
2026-02-24T21:26	10.1	1017	10.0	110	1	55
2026-02-24T21:27	10.0	1017	9.7	140	1	55
2026-02-24T21:28	10.0	1018	9.7	240	1	55
2026-02-24T21:29	10.0	1018	9.7	250	1	49
2026-02-24T21:30	10.0	1018	9.9	250	1	55
2026-02-24T21:31	10.0	1018	9.9	260	1	55
2026-02-24T21:32	10.0	1018	9.9	280	1	55
2026-02-24T21:33	10.0	1018	9.9	300	1	55
2026-02-24T21:34	10.1	1018	10.0	320	1	49
2026-02-24T21:35	10.1	1018	10.0	330	1	47
2026-02-24T21:36	10.1	1018	10.0	340	1	46
2026-02-24T21:37	10.1	1018	10.0	350	1	46
2026-02-24T21:38	10.1	1018	10.0	360	1	46
2026-02-24T21:39	10.1	1018	10.0	360	1	46
2026-02-24T21:40	10.1	1018	10.0	10	1	46
2026-02-24T21:41	10.1	1018	10.0	20	1	45
2026-02-24T21:42	10.1	1018	10.0	20	1	45
2026-02-24T21:43	10.1	1018	10.0	20	1	44
2026-02-24T21:44	10.2	1018	10.1	20	1	43
2026-02-24T21:45	10.1	1018	10.0	10	1	42
2026-02-24T21:46	10.1	1018	10.0	10	1	41
2026-02-24T21:47	10.2	1018	10.1	10	1	39
2026-02-24T21:48	10.1	1018	10.0	10	1	38
2026-02-24T21:49	10.2	1018	10.1	10	1	37
2026-02-24T21:50	10.1	1018	10.0	10	1	36
2026-02-24T21:51	10.1	1018	10.0	20	1	33
2026-02-24T21:52	10.1	1018	10.0	10	1	32
2026-02-24T21:53	10.1	1018	10.0	20	1	31
2026-02-24T21:54	10.1	1018	10.0	30	1	29
2026-02-24T21:55	10.2	1018	10.1	40	1	28
2026-02-24T21:56	10.2	1018	10.1	40	1	27
2026-02-24T21:57	10.2	1018	10.2	30	1	26
2026-02-24T21:58	10.1	1018	10.1	20	1	26
2026-02-24T21:59	10.1	1018	10.1	360	1	25
2026-02-24T22:00	10.1	1018	10.1	340	1	26
2026-02-24T22:01	10.1	1018	10.1	330	1	27
2026-02-24T22:02	10.1	1018	10.1	330	1	28
2026-02-24T22:03	10.2	1018	10.2	330	1	29
2026-02-24T22:04	10.1	1018	10.1	330	1	30
2026-02-24T22:05	10.2	1018	10.2	340	1	31
2026-02-24T22:06	10.2	1018	10.2	350	1	33
2026-02-24T22:07	10.2	1018	10.2	350	1	35
2026-02-24T22:08	10.2	1018	10.2	10	1	37
2026-02-24T22:09	10.2	1018	10.2	10	1	38
2026-02-24T22:10	10.2	1018	10.2	20	1	38
2026-02-24T22:11	10.2	1018	10.2	20	1	38
2026-02-24T22:12	10.2	1018	10.2	20	1	38
2026-02-24T22:13	10.2	1018	10.2	10	1	37
2026-02-24T22:14	10.2	1018	10.2	10	2	37
2026-02-24T22:15	10.2	1018	10.2	360	2	37
2026-02-24T22:16	10.2	1018	10.2	10	2	36
2026-02-24T22:17	10.2	1018	10.2	360	2	36
2026-02-24T22:18	10.2	1018	10.2	360	2	36
2026-02-24T22:19	10.2	1018	10.2	10	2	35
2026-02-24T22:20	10.2	1018	10.2	10	2	35
2026-02-24T22:21	10.2	1018	10.2	20	2	36
2026-02-24T22:22	10.2	1018	10.2	20	2	36
2026-02-24T22:23	10.2	1018	10.2	30	2	36
2026-02-24T22:24	10.2	1018	10.2	30	2	35
2026-02-24T22:25	10.2	1018	10.2	40	1	34
2026-02-24T22:26	10.2	1018	10.2	40	2	34
2026-02-24T22:27	10.2	1018	10.2	40	2	34
2026-02-24T22:28	10.2	1018	10.2	30	1	33
2026-02-24T22:29	10.2	1018	10.2	30	1	33
2026-02-24T22:30	10.2	1018	10.2	30	1	32
2026-02-24T22:31	10.2	1018	10.2	30	1	32
2026-02-24T22:32	10.2	1018	10.2	20	1	31
2026-02-24T22:33	10.2	1018	10.2	30	2	31
2026-02-24T22:34	10.2	1018	10.2	20	2	30
2026-02-24T22:35	10.2	1018	10.2	20	2	30
2026-02-24T22:36	10.2	1018	10.2	20	2	30
2026-02-24T22:37	10.2	1018	10.2	20	2	30
2026-02-24T22:38	10.2	1018	10.2	30	2	30
2026-02-24T22:39	10.2	1018	10.2	30	2	30
2026-02-24T22:40	10.2	1018	10.2	30	2	30
2026-02-24T22:41	10.2	1018	10.2	40	2	31
2026-02-24T22:42	10.2	1018	10.2	40	2	31
2026-02-24T22:43	10.2	1018	10.2	40	2	32
2026-02-24T22:44	10.2	1018	10.2	40	2	33
2026-02-24T22:45	10.3	1018	10.3	40	2	33
2026-02-24T22:46	10.3	1018	10.3	30	2	35
2026-02-24T22:47	10.3	1018	10.3	30	2	37
2026-02-24T22:48	10.3	1018	10.3	30	2	37
2026-02-24T22:49	10.3	1018	10.3	20	2	37
2026-02-24T22:50	10.3	1018	10.3	20	2	38
2026-02-24T22:51	10.3	1018	10.3	20	2	39
2026-02-24T22:52	10.3	1018	10.3	20	2	39
2026-02-24T22:53	10.3	1018	10.3	20	2	40
2026-02-24T22:54	10.3	1018	10.3	20	2	39
2026-02-24T22:55	10.3	1018	10.3	20	2	40
2026-02-24T22:56	10.3	1018	10.3	20	2	40
2026-02-24T22:57	10.3	1018	10.3	30	2	39
2026-02-24T22:58	10.3	1018	10.3	30	2	38
2026-02-24T22:59	10.3	1018	10.3	40	2	38
2026-02-24T23:00	10.3	1018	10.3	40	2	38
2026-02-24T23:01	10.4	1018	10.4	50	2	37
2026-02-24T23:02	10.4	1018	10.4	50	2	37
2026-02-24T23:03	10.4	1018	10.4	50	2	37
2026-02-24T23:04	10.4	1018	10.4	50	2	39
2026-02-24T23:05	10.4	1018	10.4	50	2	39
2026-02-24T23:06	10.4	1018	10.4	50	2	39
2026-02-24T23:07	10.4	1018	10.4	50	2	39
2026-02-24T23:08	10.4	1018	10.4	50	2	42
2026-02-24T23:09	10.3	1018	10.3	40	2	43
2026-02-24T23:10	10.3	1018	10.3	40	2	45
2026-02-24T23:11	10.3	1018	10.3	40	2	45
2026-02-24T23:12	10.3	1018	10.3	40	2	46
2026-02-24T23:13	10.3	1018	10.3	40	2	46
2026-02-24T23:14	10.3	1018	10.2	40	2	45
2026-02-24T23:15	10.3	1018	10.2	40	2	44
2026-02-24T23:16	10.3	1018	10.2	40	1	44
2026-02-24T23:17	10.3	1018	10.2	40	1	44
2026-02-24T23:18	10.3	1018	10.2	40	1	43
2026-02-24T23:19	10.3	1018	10.2	40	1	43
2026-02-24T23:20	10.3	1018	10.2	40	1	41
2026-02-24T23:21	10.3	1018	10.2	40	1	41
2026-02-24T23:22	10.3	1018	10.2	50	1	41
2026-02-24T23:23	10.3	1018	10.2	50	1	40
2026-02-24T23:24	10.3	1018	10.2	50	1	40
2026-02-24T23:25	10.3	1018	10.2	50	1	39
2026-02-24T23:26	10.3	1018	10.2	50	1	38
2026-02-24T23:27	10.3	1018	10.2	50	1	38
2026-02-24T23:28	10.3	1018	10.2	50	2	38
2026-02-24T23:29	10.3	1018	10.2	50	2	38
2026-02-24T23:30	10.3	1018	10.2	50	2	38
2026-02-24T23:31	10.2	1018	10.1	50	2	37
2026-02-24T23:32	10.2	1018	10.1	40	2	35
2026-02-24T23:33	10.2	1018	10.1	40	2	34
2026-02-24T23:34	10.2	1018	10.1	40	2	33
2026-02-24T23:35	10.2	1018	10.1	40	2	33
2026-02-24T23:36	10.2	1018	10.1	40	2	33
2026-02-24T23:37	10.2	1018	10.1	40	2	33
2026-02-24T23:38	10.2	1018	10.1	40	2	32
2026-02-24T23:39	10.2	1018	10.1	40	2	31
2026-02-24T23:40	10.2	1018	10.2	50	2	31
2026-02-24T23:41	10.2	1018	10.2	50	2	31
2026-02-24T23:42	10.2	1018	10.2	50	2	32
2026-02-24T23:43	10.2	1018	10.2	60	3	33
2026-02-24T23:44	10.2	1018	10.2	60	2	33
2026-02-24T23:45	10.2	1018	10.2	60	2	33
2026-02-24T23:46	10.2	1018	10.2	60	2	32
2026-02-24T23:47	10.2	1018	10.2	60	2	32
2026-02-24T23:48	10.2	1018	10.2	70	2	32
2026-02-24T23:49	10.2	1018	10.2	70	2	32
2026-02-24T23:50	10.2	1018	10.2	70	2	31
2026-02-24T23:51	10.2	1018	10.2	60	2	31
2026-02-24T23:52	10.2	1018	10.2	60	2	31
2026-02-24T23:53	10.2	1018	10.1	60	2	31
2026-02-24T23:54	10.2	1018	10.2	60	2	31
2026-02-24T23:55	10.1	1018	10.1	50	2	30
2026-02-24T23:56	10.1	1018	10.1	50	2	29
2026-02-24T23:57	10.1	1018	10.1	50	2	28
2026-02-24T23:58	10.1	1018	10.1	50	2	27
2026-02-24T23:59	10.1	1018	10.1	40	2	27
2026-02-25T00:00	10.1	1018	10.1	40	2	27
2026-02-25T00:01	10.1	1018	10.1	50	2	27
2026-02-25T00:02	10.1	1018	10.1	40	2	26
2026-02-25T00:03	10.1	1018	10.1	50	2	25
2026-02-25T00:04	10.1	1018	10.1	50	2	25
2026-02-25T00:05	10.1	1018	10.1	50	2	26
2026-02-25T00:06	10.1	1018	10.1	50	2	26
2026-02-25T00:07	10.1	1018	10.1	50	2	27
2026-02-25T00:08	10.1	1018	10.1	50	2	27
2026-02-25T00:09	10.1	1018	10.1	50	2	28
2026-02-25T00:10	10.0	1018	10.0	50	2	28
2026-02-25T00:11	10.0	1018	10.0	40	2	28
2026-02-25T00:12	10.0	1018	10.0	50	2	28
2026-02-25T00:13	10.0	1018	10.0	50	2	29
2026-02-25T00:14	10.0	1018	10.0	50	2	29
2026-02-25T00:15	10.0	1018	10.0	50	2	29
2026-02-25T00:16	10.0	1018	10.0	50	2	30
2026-02-25T00:17	10.0	1018	10.0	50	2	30
2026-02-25T00:18	10.0	1018	10.0	50	2	30
2026-02-25T00:19	10.0	1018	10.0	50	2	31
2026-02-25T00:20	10.0	1018	10.0	50	3	31
2026-02-25T00:21	10.0	1018	10.0	50	3	31
2026-02-25T00:22	10.0	1018	10.0	50	3	33
2026-02-25T00:23	10.0	1018	10.0	50	3	32
2026-02-25T00:24	10.0	1018	10.0	50	3	33
2026-02-25T00:25	10.0	1018	10.0	50	3	32
2026-02-25T00:26	10.0	1018	10.0	50	3	33
2026-02-25T00:27	9.9	1018	9.9	50	2	33
2026-02-25T00:28	9.8	1018	9.8	50	3	35
2026-02-25T00:29	9.8	1018	9.7	50	2	36
2026-02-25T00:30	9.8	1018	9.7	50	2	37
2026-02-25T00:31	9.8	1018	9.7	50	2	38
2026-02-25T00:32	9.8	1018	9.7	50	3	37
2026-02-25T00:33	9.8	1018	9.7	50	3	39
2026-02-25T00:34	9.7	1018	9.6	50	3	40
2026-02-25T00:35	9.7	1018	9.6	50	3	42
2026-02-25T00:36	9.7	1018	9.6	50	3	43
2026-02-25T00:37	9.7	1018	9.6	50	3	43
2026-02-25T00:38	9.7	1018	9.6	50	3	42
2026-02-25T00:39	9.7	1018	9.6	50	3	41
2026-02-25T00:40	9.6	1018	9.5	50	3	40
2026-02-25T00:41	9.7	1018	9.6	50	3	40
2026-02-25T00:42	9.6	1018	9.5	60	3	40
2026-02-25T00:43	9.6	1018	9.5	60	3	39
2026-02-25T00:44	9.6	1018	9.5	60	3	39
2026-02-25T00:45	9.6	1018	9.5	60	3	40
2026-02-25T00:46	9.6	1018	9.5	60	3	41
2026-02-25T00:47	9.6	1018	9.5	60	3	40
2026-02-25T00:48	9.6	1018	9.5	60	3	41
2026-02-25T00:49	9.6	1018	9.5	60	2	42
2026-02-25T00:50	9.5	1018	9.4	60	2	42
2026-02-25T00:51	9.6	1018	9.5	60	2	42
2026-02-25T00:52	9.5	1018	9.4	50	2	43
2026-02-25T00:53	9.5	1018	9.4	50	2	44
2026-02-25T00:54	9.5	1018	9.4	50	2	43
2026-02-25T00:55	9.5	1018	9.4	50	2	43
2026-02-25T00:56	9.5	1018	9.4	50	2	43
2026-02-25T00:57	9.5	1018	9.4	50	2	44
2026-02-25T00:58	9.5	1018	9.4	50	2	44
2026-02-25T00:59	9.5	1018	9.4	50	3	45
2026-02-25T01:00	9.4	1018	9.3	50	3	45
2026-02-25T01:01	9.5	1018	9.4	50	3	47
2026-02-25T01:02	9.5	1018	9.4	50	3	47
2026-02-25T01:03	9.5	1018	9.4	50	3	48
2026-02-25T01:04	9.4	1018	9.3	50	3	49
2026-02-25T01:05	9.4	1018	9.3	60	3	49
2026-02-25T01:06	9.4	1018	9.3	60	3	48
2026-02-25T01:07	9.4	1018	9.3	60	3	49
2026-02-25T01:08	9.4	1018	9.3	50	3	49
2026-02-25T01:09	9.4	1018	9.3	50	3	49
2026-02-25T01:10	9.4	1018	9.3	50	3	49
2026-02-25T01:11	9.4	1018	9.3	50	3	48
2026-02-25T01:12	9.4	1018	9.3	50	3	49
2026-02-25T01:13	9.4	1018	9.3	50	3	49
2026-02-25T01:14	9.4	1018	9.1	60	3	55
2026-02-25T01:15	9.4	1018	9.1	60	3	49
2026-02-25T01:16	9.4	1018	9.1	60	3	49
2026-02-25T01:17	9.4	1018	9.1	60	3	47
2026-02-25T01:18	9.4	1018	9.1	60	3	48
2026-02-25T01:19	9.4	1018	9.1	60	3	49
2026-02-25T01:20	9.4	1018	9.1	60	3	55
2026-02-25T01:21	9.4	1018	9.1	60	3	55
2026-02-25T01:22	9.4	1018	9.1	60	3	55
2026-02-25T01:23	9.3	1018	9.0	60	3	55
2026-02-25T01:24	9.3	1018	9.0	60	3	55
2026-02-25T01:25	9.4	1018	9.1	60	3	55
2026-02-25T01:26	9.4	1018	9.1	60	3	55
2026-02-25T01:27	9.3	1018	9.0	60	3	56
2026-02-25T01:28	9.3	1018	9.0	60	3	56
2026-02-25T01:29	9.3	1018	9.0	60	3	56
2026-02-25T01:30	9.3	1018	9.0	60	3	56
2026-02-25T01:31	9.3	1018	9.0	70	3	56
2026-02-25T01:32	9.3	1018	9.0	70	3	56
2026-02-25T01:33	9.4	1018	9.1	70	3	56
2026-02-25T01:34	9.3	1018	9.0	60	3	56
2026-02-25T01:35	9.3	1018	9.0	70	3	56
2026-02-25T01:36	9.3	1018	9.0	60	3	56
2026-02-25T01:37	9.3	1017	9.0	60	3	56
2026-02-25T01:38	9.3	1017	9.0	60	3	56
2026-02-25T01:39	9.3	1017	9.0	60	3	56
2026-02-25T01:40	9.3	1017	9.0	70	4	56
2026-02-25T01:41	9.3	1017	9.2	70	4	56
2026-02-25T01:42	9.3	1017	9.2	70	4	56
2026-02-25T01:43	9.3	1017	9.2	70	3	56
2026-02-25T01:44	9.3	1017	9.2	70	3	56
2026-02-25T01:45	9.3	1017	9.2	70	3	56
2026-02-25T01:46	9.3	1017	9.2	70	3	56
2026-02-25T01:47	9.3	1017	9.2	70	3	56
2026-02-25T01:48	9.3	1017	9.2	70	3	56
2026-02-25T01:49	9.3	1017	9.2	70	3	56
2026-02-25T01:50	9.3	1017	9.2	70	3	56
2026-02-25T01:51	9.3	1017	9.2	70	3	56
2026-02-25T01:52	9.4	1017	9.3	70	3	56
2026-02-25T01:53	9.3	1017	9.0	70	3	56
2026-02-25T01:54	9.3	1017	9.0	70	4	56
2026-02-25T01:55	9.4	1017	9.1	70	4	56
2026-02-25T01:56	9.4	1017	9.1	70	4	56
2026-02-25T01:57	9.4	1017	9.1	70	4	57
2026-02-25T01:58	9.3	1017	9.0	70	4	57
2026-02-25T01:59	9.3	1017	9.0	70	3	57
2026-02-25T02:00	9.3	1017	9.0	70	3	58
2026-02-25T02:01	9.3	1017	9.0	60	3	58
2026-02-25T02:02	9.3	1017	9.0	60	4	59
2026-02-25T02:03	9.3	1017	8.9	60	4	60
2026-02-25T02:04	9.3	1017	8.9	60	4	61
2026-02-25T02:05	9.3	1017	8.9	60	3	61
2026-02-25T02:06	9.3	1017	8.9	60	3	62
2026-02-25T02:07	9.2	1017	8.8	60	3	63
2026-02-25T02:08	9.2	1017	8.8	60	4	63
2026-02-25T02:09	9.2	1017	8.8	60	4	62
2026-02-25T02:10	9.2	1017	8.8	60	4	63
2026-02-25T02:11	9.2	1017	8.8	60	4	63
2026-02-25T02:12	9.2	1017	8.8	60	4	63
2026-02-25T02:13	9.2	1017	8.8	60	4	62
2026-02-25T02:14	9.2	1017	8.8	60	4	62
2026-02-25T02:15	9.1	1017	8.7	60	4	62
2026-02-25T02:16	9.1	1017	8.7	60	4	62
2026-02-25T02:17	9.1	1017	8.7	60	4	62
2026-02-25T02:18	9.1	1017	8.7	60	4	61
2026-02-25T02:19	9.1	1017	8.7	60	4	61
2026-02-25T02:20	9.1	1017	8.7	60	5	61
2026-02-25T02:21	9.1	1017	8.7	60	5	61
2026-02-25T02:22	9.1	1017	8.7	60	4	61
2026-02-25T02:23	9.1	1017	8.7	60	4	62
2026-02-25T02:24	9.1	1017	8.7	60	4	62
2026-02-25T02:25	9.1	1017	8.7	60	4	62
2026-02-25T02:26	9.0	1017	8.6	60	4	61
2026-02-25T02:27	9.1	1017	8.8	60	4	61
2026-02-25T02:28	9.0	1017	8.7	60	4	61
2026-02-25T02:29	9.1	1017	8.8	60	4	61
2026-02-25T02:30	9.0	1017	8.6	60	4	61
2026-02-25T02:31	9.0	1017	8.7	60	3	60
2026-02-25T02:32	9.0	1017	8.6	60	3	61
2026-02-25T02:33	9.0	1017	8.6	60	3	60
2026-02-25T02:34	9.0	1017	8.6	60	3	60
2026-02-25T02:35	9.0	1017	8.6	60	3	60
2026-02-25T02:36	8.9	1017	8.5	60	3	60
2026-02-25T02:37	8.9	1017	8.5	60	3	60
2026-02-25T02:38	8.9	1017	8.5	60	4	59
2026-02-25T02:39	8.9	1017	8.5	60	4	59
2026-02-25T02:40	8.9	1017	8.5	60	4	59
2026-02-25T02:41	8.9	1017	8.5	60	4	59
2026-02-25T02:42	8.9	1017	8.5	60	5	59
2026-02-25T02:43	8.9	1017	8.5	60	5	58
2026-02-25T02:44	8.9	1017	8.5	60	5	58
2026-02-25T02:45	8.9	1017	8.5	60	5	58
2026-02-25T02:46	8.9	1017	8.5	60	5	58
2026-02-25T02:47	8.9	1017	8.5	70	5	58
2026-02-25T02:48	8.9	1017	8.5	70	5	58
2026-02-25T02:49	8.8	1017	8.4	60	4	58
2026-02-25T02:50	8.8	1017	8.4	70	4	58
2026-02-25T02:51	8.8	1017	8.4	70	4	57
2026-02-25T02:52	8.8	1017	8.4	70	4	56
2026-02-25T02:53	8.8	1017	8.4	70	4	56
2026-02-25T02:54	8.8	1017	8.4	70	4	56
2026-02-25T02:55	8.7	1017	8.3	70	4	56
2026-02-25T02:56	8.7	1017	8.3	70	3	55
2026-02-25T02:57	8.7	1017	8.3	60	4	55
2026-02-25T02:58	8.7	1017	8.3	60	3	55
2026-02-25T02:59	8.7	1017	8.3	60	4	55
2026-02-25T03:00	8.7	1017	8.3	70	4	55
2026-02-25T03:01	8.7	1017	8.3	60	4	55
2026-02-25T03:02	8.7	1017	8.4	60	4	56
2026-02-25T03:03	8.6	1017	8.3	60	4	55
2026-02-25T03:04	8.6	1017	8.2	60	4	56
2026-02-25T03:05	8.7	1017	8.3	60	4	56
2026-02-25T03:06	8.6	1017	8.2	70	4	56
2026-02-25T03:07	8.6	1017	8.2	70	4	57
2026-02-25T03:08	8.6	1017	8.2	70	4	57
2026-02-25T03:09	8.6	1017	8.2	70	4	57
2026-02-25T03:10	8.6	1017	8.2	60	4	57
2026-02-25T03:11	8.6	1017	8.2	60	4	57
2026-02-25T03:12	8.6	1017	8.2	60	4	57
2026-02-25T03:13	8.5	1017	8.1	60	4	58
2026-02-25T03:14	8.6	1017	8.2	60	4	58
2026-02-25T03:15	8.5	1017	8.1	60	4	58
2026-02-25T03:16	8.6	1017	8.2	50	4	58
2026-02-25T03:17	8.5	1017	8.1	50	4	58
2026-02-25T03:18	8.5	1017	8.1	50	3	58
2026-02-25T03:19	8.5	1017	8.1	50	3	58
2026-02-25T03:20	8.5	1017	8.1	40	3	58
2026-02-25T03:21	8.5	1017	8.1	40	3	59
2026-02-25T03:22	8.5	1017	8.2	30	3	59
2026-02-25T03:23	8.4	1017	8.0	30	3	59
2026-02-25T03:24	8.4	1017	8.0	30	3	59
2026-02-25T03:25	8.4	1017	8.1	30	3	59
2026-02-25T03:26	8.4	1017	8.1	40	3	59
2026-02-25T03:27	8.4	1017	8.1	30	3	60
2026-02-25T03:28	8.4	1017	8.1	30	3	60
2026-02-25T03:29	8.4	1017	8.1	30	3	60
2026-02-25T03:30	8.4	1017	8.1	40	3	59
2026-02-25T03:31	8.4	1017	8.1	40	3	60
2026-02-25T03:32	8.4	1017	8.1	40	3	60
2026-02-25T03:33	8.4	1017	8.1	50	3	60
2026-02-25T03:34	8.4	1017	8.1	50	3	60
2026-02-25T03:35	8.4	1017	8.1	50	3	60
2026-02-25T03:36	8.4	1017	8.0	50	3	60
2026-02-25T03:37	8.3	1017	7.9	50	3	59
2026-02-25T03:38	8.3	1017	7.9	50	3	60
2026-02-25T03:39	8.4	1017	8.0	50	4	60
2026-02-25T03:40	8.4	1017	8.0	50	4	60
2026-02-25T03:41	8.4	1017	8.0	50	4	60
2026-02-25T03:42	8.3	1017	7.9	60	4	60
2026-02-25T03:43	8.3	1017	7.9	60	4	59
2026-02-25T03:44	8.3	1017	7.9	60	4	59
2026-02-25T03:45	8.4	1017	8.0	60	4	59
2026-02-25T03:46	8.4	1017	8.0	60	4	59
2026-02-25T03:47	8.3	1017	7.9	60	3	59
2026-02-25T03:48	8.3	1017	7.9	60	3	59
2026-02-25T03:49	8.3	1017	7.9	60	3	60
2026-02-25T03:50	8.2	1017	7.8	60	3	59
2026-02-25T03:51	8.3	1017	7.9	70	3	59
2026-02-25T03:52	8.2	1017	7.8	60	3	59
2026-02-25T03:53	8.2	1017	7.8	60	3	60
2026-02-25T03:54	8.2	1017	7.6	60	3	60
2026-02-25T03:55	8.2	1017	7.6	50	3	60
2026-02-25T03:56	8.1	1017	7.5	50	3	60
2026-02-25T03:57	8.2	1017	7.6	50	3	60
2026-02-25T03:58	8.1	1017	7.7	50	3	60
2026-02-25T03:59	8.1	1017	7.7	50	3	59
2026-02-25T04:00	8.1	1017	7.7	50	3	58
2026-02-25T04:01	8.1	1017	7.7	50	3	57
2026-02-25T04:02	8.1	1017	7.7	60	3	57
2026-02-25T04:03	8.1	1017	7.7	60	3	57
2026-02-25T04:04	8.1	1017	7.7	60	3	57
2026-02-25T04:05	8.1	1017	7.7	60	4	57
2026-02-25T04:06	8.1	1017	7.7	60	4	57
2026-02-25T04:07	8.1	1017	7.7	60	4	57
2026-02-25T04:08	8.1	1017	7.7	60	4	58
2026-02-25T04:09	8.1	1017	7.7	60	3	58
2026-02-25T04:10	8.0	1017	7.6	60	4	59
2026-02-25T04:11	8.1	1017	7.7	60	4	60
2026-02-25T04:12	8.1	1017	7.7	60	4	60
2026-02-25T04:13	8.1	1017	7.7	60	4	61
2026-02-25T04:14	8.0	1017	7.6	60	3	61
2026-02-25T04:15	8.0	1017	7.6	60	3	61
2026-02-25T04:16	8.0	1017	7.6	60	3	60
2026-02-25T04:17	8.0	1017	7.4	70	3	60
2026-02-25T04:18	8.0	1017	7.4	70	3	59
2026-02-25T04:19	8.0	1017	7.4	70	3	60
2026-02-25T04:20	8.0	1017	7.6	70	3	59
2026-02-25T04:21	8.0	1017	7.6	70	3	59
2026-02-25T04:22	7.9	1017	7.5	60	3	59
2026-02-25T04:23	7.9	1017	7.5	60	2	59
2026-02-25T04:24	7.9	1017	7.5	60	2	59
2026-02-25T04:25	7.9	1017	7.5	60	2	59
2026-02-25T04:26	7.9	1017	7.5	50	2	59
2026-02-25T04:27	7.9	1017	7.5	50	2	59
2026-02-25T04:28	7.8	1017	7.4	50	2	59
2026-02-25T04:29	7.8	1017	7.4	40	2	58
2026-02-25T04:30	7.8	1017	7.4	40	2	59
2026-02-25T04:31	7.7	1017	7.3	40	2	59
2026-02-25T04:32	7.7	1017	7.3	40	2	58
2026-02-25T04:33	7.8	1017	7.4	40	2	59
2026-02-25T04:34	7.7	1017	7.3	40	2	59
2026-02-25T04:35	7.7	1017	7.3	40	2	59
2026-02-25T04:36	7.7	1017	7.3	40	3	59
2026-02-25T04:37	7.7	1017	7.3	50	3	59
2026-02-25T04:38	7.7	1017	7.3	40	3	59
2026-02-25T04:39	7.7	1017	7.3	40	3	60
2026-02-25T04:40	7.7	1017	7.3	40	3	60
2026-02-25T04:41	7.7	1017	7.3	50	3	59
2026-02-25T04:42	7.7	1017	7.3	50	4	59
2026-02-25T04:43	7.7	1017	7.3	60	4	59
2026-02-25T04:44	7.7	1017	7.3	60	4	59
2026-02-25T04:45	7.7	1017	7.3	50	4	59
2026-02-25T04:46	7.7	1017	7.3	60	4	59
2026-02-25T04:47	7.7	1017	7.3	60	4	60
2026-02-25T04:48	7.6	1017	7.2	60	4	60
2026-02-25T04:49	7.6	1017	7.2	60	4	59
2026-02-25T04:50	7.6	1017	7.2	60	4	59
2026-02-25T04:51	7.6	1017	7.0	60	4	59
2026-02-25T04:52	7.6	1017	7.0	60	4	60
2026-02-25T04:53	7.6	1017	7.0	60	4	59
2026-02-25T04:54	7.6	1017	7.0	60	4	60
2026-02-25T04:55	7.6	1017	7.0	60	4	60
2026-02-25T04:56	7.5	1017	6.9	60	4	60
2026-02-25T04:57	7.6	1017	7.0	60	4	60
2026-02-25T04:58	7.5	1017	6.9	60	4	60
2026-02-25T04:59	7.5	1017	6.9	60	4	60
2026-02-25T05:00	7.6	1017	7.0	60	4	61
2026-02-25T05:01	7.5	1017	6.9	50	4	61
2026-02-25T05:02	7.6	1017	7.0	50	4	61
2026-02-25T05:03	7.5	1017	6.9	50	4	61
2026-02-25T05:04	7.5	1017	6.9	50	4	61
2026-02-25T05:05	7.5	1017	6.9	50	4	61
2026-02-25T05:06	7.5	1017	6.9	40	4	61
2026-02-25T05:07	7.5	1017	6.9	40	3	61
2026-02-25T05:08	7.5	1017	6.9	40	3	61
2026-02-25T05:09	7.5	1017	6.9	40	3	61
2026-02-25T05:10	7.5	1017	7.1	40	3	61
2026-02-25T05:11	7.4	1017	7.0	40	3	61
2026-02-25T05:12	7.4	1017	7.0	40	3	61
2026-02-25T05:13	7.4	1017	6.8	40	4	61
2026-02-25T05:14	7.4	1017	7.0	40	3	61
2026-02-25T05:15	7.4	1017	7.0	40	3	62
2026-02-25T05:16	7.4	1017	7.0	40	3	62
2026-02-25T05:17	7.4	1017	7.0	50	3	62
2026-02-25T05:18	7.4	1017	7.0	50	3	62
2026-02-25T05:19	7.3	1017	6.7	50	3	62
2026-02-25T05:20	7.3	1017	6.7	50	3	62
2026-02-25T05:21	7.3	1017	6.7	50	3	62
2026-02-25T05:22	7.4	1017	6.8	50	3	62
2026-02-25T05:23	7.3	1017	6.7	50	3	62
2026-02-25T05:24	7.3	1017	6.7	50	3	62
2026-02-25T05:25	7.3	1017	6.7	50	3	62
2026-02-25T05:26	7.2	1017	6.6	50	3	63
2026-02-25T05:27	7.3	1017	6.7	50	3	63
2026-02-25T05:28	7.3	1017	6.7	50	3	63
2026-02-25T05:29	7.3	1017	6.7	50	3	63
2026-02-25T05:30	7.2	1017	6.6	50	3	63
2026-02-25T05:31	7.2	1017	6.6	50	3	63
2026-02-25T05:32	7.2	1017	6.5	40	3	63
2026-02-25T05:33	7.2	1017	6.5	50	3	64
2026-02-25T05:34	7.2	1017	6.5	50	3	64
2026-02-25T05:35	7.2	1017	6.5	50	4	63
2026-02-25T05:36	7.2	1017	6.5	40	4	63
2026-02-25T05:37	7.2	1017	6.6	40	4	64
2026-02-25T05:38	7.2	1017	6.6	40	4	64
2026-02-25T05:39	7.1	1017	6.5	40	4	63
2026-02-25T05:40	7.2	1017	6.6	50	4	63
2026-02-25T05:41	7.1	1017	6.5	50	4	62
2026-02-25T05:42	7.1	1017	6.4	50	4	62
2026-02-25T05:43	7.1	1017	6.4	50	4	63
2026-02-25T05:44	7.1	1017	6.4	60	4	62
2026-02-25T05:45	7.0	1017	6.3	60	4	63
2026-02-25T05:46	7.0	1017	6.3	60	4	62
2026-02-25T05:47	7.0	1016	6.3	60	4	62
2026-02-25T05:48	7.0	1017	6.3	60	4	62
2026-02-25T05:49	7.0	1016	6.3	60	5	62
2026-02-25T05:50	7.0	1016	6.3	70	4	62
2026-02-25T05:51	7.0	1016	6.3	70	5	63
2026-02-25T05:52	7.0	1016	6.3	70	4	63
2026-02-25T05:53	7.0	1016	6.1	70	4	62
2026-02-25T05:54	7.0	1016	6.1	70	4	62
2026-02-25T05:55	7.0	1016	6.3	70	4	62
2026-02-25T05:56	7.0	1016	6.1	70	5	63
2026-02-25T05:57	7.0	1016	6.1	70	5	63
2026-02-25T05:58	7.0	1017	6.3	70	5	64
2026-02-25T05:59	7.0	1017	6.1	70	5	64
2026-02-25T06:00	7.0	1017	6.1	60	5	64
2026-02-25T06:01	7.0	1017	6.1	60	4	64
2026-02-25T06:02	7.0	1017	6.1	60	4	64
2026-02-25T06:03	6.9	1017	6.2	60	5	65
2026-02-25T06:04	6.9	1017	6.0	60	5	65
2026-02-25T06:05	6.9	1017	6.0	60	4	65
2026-02-25T06:06	6.9	1017	6.2	60	4	65
2026-02-25T06:07	6.9	1017	6.2	50	4	65
2026-02-25T06:08	6.9	1017	6.2	50	4	65
2026-02-25T06:09	6.9	1017	6.2	50	4	65
2026-02-25T06:10	6.8	1017	6.1	50	4	65
2026-02-25T06:11	6.9	1017	6.2	50	4	65
2026-02-25T06:12	6.9	1017	6.2	50	4	64
2026-02-25T06:13	6.8	1017	6.1	50	4	64
2026-02-25T06:14	6.8	1017	6.1	50	4	63
2026-02-25T06:15	6.8	1017	6.1	50	4	63
2026-02-25T06:16	6.8	1017	6.1	50	4	63
2026-02-25T06:17	6.8	1017	6.1	50	4	62
2026-02-25T06:18	6.8	1017	6.1	50	4	62
2026-02-25T06:19	6.8	1017	6.1	50	4	61
2026-02-25T06:20	6.8	1017	6.1	50	4	61
2026-02-25T06:21	6.8	1017	6.1	60	4	61
2026-02-25T06:22	6.8	1017	6.1	50	4	60
2026-02-25T06:23	6.7	1017	6.0	50	4	60
2026-02-25T06:24	6.8	1017	6.1	50	4	60
2026-02-25T06:25	6.8	1017	6.1	60	4	60
2026-02-25T06:26	6.8	1017	6.1	60	4	59
2026-02-25T06:27	6.7	1017	6.0	60	4	59
2026-02-25T06:28	6.7	1017	6.0	50	3	59
2026-02-25T06:29	6.7	1017	6.0	60	3	59
2026-02-25T06:30	6.7	1017	6.0	60	3	59
2026-02-25T06:31	6.7	1017	6.0	50	3	59
2026-02-25T06:32	6.7	1017	6.0	50	3	59
2026-02-25T06:33	6.7	1017	6.0	50	3	59
2026-02-25T06:34	6.7	1017	6.0	60	3	59
2026-02-25T06:35	6.7	1017	6.0	50	3	59
2026-02-25T06:36	6.6	1017	5.9	50	3	60
2026-02-25T06:37	6.6	1017	5.9	50	3	60
2026-02-25T06:38	6.6	1017	5.9	50	3	60
2026-02-25T06:39	6.6	1017	6.0	50	3	60
2026-02-25T06:40	6.6	1017	6.0	50	4	61
2026-02-25T06:41	6.6	1017	6.0	50	4	61
2026-02-25T06:42	6.5	1017	5.9	50	4	60
2026-02-25T06:43	6.5	1017	5.9	50	3	61
2026-02-25T06:44	6.5	1017	5.9	50	3	61
2026-02-25T06:45	6.5	1017	5.9	50	3	61
2026-02-25T06:46	6.5	1017	5.9	40	3	61
2026-02-25T06:47	6.5	1017	5.9	40	3	61
2026-02-25T06:48	6.5	1017	5.9	40	3	61
2026-02-25T06:49	6.5	1017	5.9	40	3	61
2026-02-25T06:50	6.5	1017	5.9	40	3	61
2026-02-25T06:51	6.5	1017	5.9	40	3	61
2026-02-25T06:52	6.5	1017	5.9	40	3	62
2026-02-25T06:53	6.5	1017	5.9	50	3	62
2026-02-25T06:54	6.5	1017	5.9	50	3	62
2026-02-25T06:55	6.4	1017	5.8	50	3	63
2026-02-25T06:56	6.5	1017	5.9	50	3	63
2026-02-25T06:57	6.4	1017	5.8	50	3	63
2026-02-25T06:58	6.5	1017	5.9	50	3	63
2026-02-25T06:59	6.5	1017	5.9	50	3	63
2026-02-25T07:00	6.4	1017	5.8	50	3	63
2026-02-25T07:01	6.4	1017	5.8	50	3	63
2026-02-25T07:02	6.4	1017	5.8	50	4	63
2026-02-25T07:03	6.4	1017	5.7	50	4	63
2026-02-25T07:04	6.5	1017	5.8	40	4	63
2026-02-25T07:05	6.4	1017	5.7	40	4	63
2026-02-25T07:06	6.4	1017	5.7	50	4	63
2026-02-25T07:07	6.5	1017	5.8	50	4	63
2026-02-25T07:08	6.5	1017	5.8	50	4	64
2026-02-25T07:09	6.4	1017	5.7	50	4	64
2026-02-25T07:10	6.4	1017	5.7	50	4	64
2026-02-25T07:11	6.4	1017	5.7	50	4	64
2026-02-25T07:12	6.4	1017	5.7	60	4	65
2026-02-25T07:13	6.4	1017	5.7	60	4	66
2026-02-25T07:14	6.4	1017	5.7	60	4	66
2026-02-25T07:15	6.4	1017	5.7	60	4	66
2026-02-25T07:16	6.4	1017	5.8	60	4	66
2026-02-25T07:17	6.4	1017	5.7	60	4	66
2026-02-25T07:18	6.3	1017	5.6	60	4	65
2026-02-25T07:19	6.4	1017	5.7	60	4	65
2026-02-25T07:20	6.4	1017	5.7	60	4	65
2026-02-25T07:21	6.4	1017	5.7	60	4	65
2026-02-25T07:22	6.4	1017	5.7	60	4	65
2026-02-25T07:23	6.3	1017	5.7	50	4	65
2026-02-25T07:24	6.3	1017	5.7	60	4	65
2026-02-25T07:25	6.3	1017	5.7	60	4	64
2026-02-25T07:26	6.3	1017	5.6	60	4	64
2026-02-25T07:27	6.3	1017	5.6	50	4	64
2026-02-25T07:28	6.3	1017	5.6	50	4	65
2026-02-25T07:29	6.3	1017	5.7	50	4	65
2026-02-25T07:30	6.3	1017	5.6	50	4	64
2026-02-25T07:31	6.3	1017	5.7	50	4	64
2026-02-25T07:32	6.3	1017	5.7	60	4	65
2026-02-25T07:33	6.3	1017	5.7	60	4	65
2026-02-25T07:34	6.3	1017	5.7	60	4	65
2026-02-25T07:35	6.3	1017	5.7	60	4	65
2026-02-25T07:36	6.2	1017	5.6	60	4	65
2026-02-25T07:37	6.2	1017	5.6	60	4	65
2026-02-25T07:38	6.2	1017	5.6	60	4	65
2026-02-25T07:39	6.2	1017	5.6	60	4	65
2026-02-25T07:40	6.2	1017	5.6	60	4	65
2026-02-25T07:41	6.3	1017	5.7	60	4	65
2026-02-25T07:42	6.2	1017	5.6	50	4	65
2026-02-25T07:43	6.2	1017	5.6	50	4	65
2026-02-25T07:44	6.2	1017	5.6	50	4	65
2026-02-25T07:45	6.2	1017	5.6	50	4	66
2026-02-25T07:46	6.2	1017	5.6	50	4	66
2026-02-25T07:47	6.1	1017	5.5	50	4	67
2026-02-25T07:48	6.2	1017	5.6	50	4	67
2026-02-25T07:49	6.2	1017	5.6	50	4	67
2026-02-25T07:50	6.2	1017	5.6	50	4	67
2026-02-25T07:51	6.1	1017	5.5	50	3	68
2026-02-25T07:52	6.2	1017	5.6	50	4	68
2026-02-25T07:53	6.1	1017	5.5	60	3	68
2026-02-25T07:54	6.1	1018	5.5	50	3	68
2026-02-25T07:55	6.1	1018	5.5	50	4	68
2026-02-25T07:56	6.1	1017	5.5	60	4	68
2026-02-25T07:57	6.1	1018	5.5	60	4	67
2026-02-25T07:58	6.1	1018	5.5	60	4	67
2026-02-25T07:59	6.1	1018	5.5	60	4	67
2026-02-25T08:00	6.1	1018	5.5	50	4	66
2026-02-25T08:01	6.1	1018	5.5	50	4	66
2026-02-25T08:02	6.0	1018	5.4	50	4	65
2026-02-25T08:03	6.0	1018	5.4	50	4	65
2026-02-25T08:04	6.0	1018	5.4	50	4	64
2026-02-25T08:05	6.0	1018	5.4	50	4	64
2026-02-25T08:06	6.0	1018	5.4	50	4	64
2026-02-25T08:07	6.0	1018	5.4	50	4	64
2026-02-25T08:08	6.0	1018	5.4	50	4	64
2026-02-25T08:09	6.0	1018	5.4	50	4	64
2026-02-25T08:10	6.0	1018	5.4	50	4	64
2026-02-25T08:11	6.0	1018	5.4	50	4	64
2026-02-25T08:12	5.9	1018	5.3	50	4	64
2026-02-25T08:13	5.9	1018	5.3	50	4	65
2026-02-25T08:14	5.9	1018	5.3	50	3	65
2026-02-25T08:15	5.9	1018	5.3	50	3	65
2026-02-25T08:16	5.9	1018	5.3	50	3	66
2026-02-25T08:17	5.9	1018	5.3	40	3	66
2026-02-25T08:18	5.9	1018	5.3	40	3	67
2026-02-25T08:19	5.8	1018	5.2	40	3	67
2026-02-25T08:20	5.8	1018	5.2	50	4	68
2026-02-25T08:21	5.8	1018	5.2	50	4	68
2026-02-25T08:22	5.8	1018	5.2	50	4	68
2026-02-25T08:23	5.8	1018	5.2	50	4	69
2026-02-25T08:24	5.8	1018	5.2	50	4	69
2026-02-25T08:25	5.8	1018	5.2	50	4	69
2026-02-25T08:26	5.8	1018	5.2	50	4	70
2026-02-25T08:27	5.8	1018	5.2	50	4	70
2026-02-25T08:28	5.8	1018	5.2	50	4	70
2026-02-25T08:29	5.8	1018	5.2	50	4	70
2026-02-25T08:30	5.8	1018	5.2	50	4	70
2026-02-25T08:31	5.8	1018	5.2	50	3	70
2026-02-25T08:32	5.8	1018	5.2	50	4	70
2026-02-25T08:33	5.7	1018	5.1	50	3	70
2026-02-25T08:34	5.7	1018	5.1	50	3	70
2026-02-25T08:35	5.7	1018	5.1	50	4	70
2026-02-25T08:36	5.7	1018	5.1	50	4	70
2026-02-25T08:37	5.7	1018	5.1	50	4	70
2026-02-25T08:38	5.7	1018	5.1	50	4	70
2026-02-25T08:39	5.7	1018	5.1	50	3	70
2026-02-25T08:40	5.7	1018	5.1	50	3	70
2026-02-25T08:41	5.7	1018	5.1	50	3	70
2026-02-25T08:42	5.7	1018	5.1	50	3	70
2026-02-25T08:43	5.7	1018	5.1	40	3	70
2026-02-25T08:44	5.7	1018	5.1	40	3	70
2026-02-25T08:45	5.7	1018	5.1	40	3	70
2026-02-25T08:46	5.7	1018	5.0	40	3	70
2026-02-25T08:47	5.7	1018	5.0	50	3	70
2026-02-25T08:48	5.7	1018	5.0	40	3	70
2026-02-25T08:49	5.7	1018	5.0	40	4	70
2026-02-25T08:50	5.7	1018	5.0	40	4	70
2026-02-25T08:51	5.7	1018	5.1	40	4	70
2026-02-25T08:52	5.7	1018	5.1	40	4	70
2026-02-25T08:53	5.7	1018	5.1	50	4	70
2026-02-25T08:54	5.7	1018	5.0	50	4	70
2026-02-25T08:55	5.7	1018	5.0	50	4	70
2026-02-25T08:56	5.7	1018	5.0	50	4	70
2026-02-25T08:57	5.7	1018	5.0	50	4	70
2026-02-25T08:58	5.7	1018	5.0	50	4	70
2026-02-25T08:59	5.6	1018	4.9	50	4	70
2026-02-25T09:00	5.7	1018	5.0	50	4	70
2026-02-25T09:01	5.7	1018	5.0	50	4	70
2026-02-25T09:02	5.6	1018	4.9	50	4	70
2026-02-25T09:03	5.7	1018	5.0	50	4	70
2026-02-25T09:04	5.6	1018	4.9	50	4	70
2026-02-25T09:05	5.6	1018	4.9	50	4	70
2026-02-25T09:06	5.6	1018	4.9	50	4	70
2026-02-25T09:07	5.6	1018	4.9	50	4	70
2026-02-25T09:08	5.6	1018	4.9	50	4	70
2026-02-25T09:09	5.6	1018	4.9	50	4	70
2026-02-25T09:10	5.6	1018	4.9	50	4	70
2026-02-25T09:11	5.6	1018	4.9	40	4	70
2026-02-25T09:12	5.6	1018	4.9	40	4	69
2026-02-25T09:13	5.6	1018	4.9	50	4	69
2026-02-25T09:14	5.6	1018	4.9	50	4	68
2026-02-25T09:15	5.6	1018	4.9	50	4	68
2026-02-25T09:16	5.6	1018	4.9	50	4	67
2026-02-25T09:17	5.6	1018	4.9	50	3	67
2026-02-25T09:18	5.6	1018	4.9	50	3	67
2026-02-25T09:19	5.6	1018	4.9	50	3	66
2026-02-25T09:20	5.6	1018	4.9	50	3	66
2026-02-25T09:21	5.6	1018	4.9	50	3	66
2026-02-25T09:22	5.6	1018	4.9	50	3	66
2026-02-25T09:23	5.6	1018	4.9	50	3	66
2026-02-25T09:24	5.6	1018	4.9	50	4	66
2026-02-25T09:25	5.6	1018	4.9	50	4	66
2026-02-25T09:26	5.6	1018	4.9	50	3	66
2026-02-25T09:27	5.6	1018	4.9	40	3	65
2026-02-25T09:28	5.6	1018	4.9	40	4	65
2026-02-25T09:29	5.6	1018	4.9	50	3	65
2026-02-25T09:30	5.6	1018	4.9	50	3	65
2026-02-25T09:31	5.6	1018	4.9	50	3	66
2026-02-25T09:32	5.6	1018	4.9	50	4	66
2026-02-25T09:33	5.6	1018	4.9	50	3	67
2026-02-25T09:34	5.6	1018	4.7	50	3	67
2026-02-25T09:35	5.6	1018	4.7	50	4	67
2026-02-25T09:36	5.6	1018	4.7	50	4	67
2026-02-25T09:37	5.6	1018	4.7	50	3	68
2026-02-25T09:38	5.6	1018	4.7	50	3	68
2026-02-25T09:39	5.6	1018	4.7	50	3	68
2026-02-25T09:40	5.6	1018	4.7	50	3	68
2026-02-25T09:41	5.6	1018	4.7	50	3	67
2026-02-25T09:42	5.6	1018	4.7	50	3	67
2026-02-25T09:43	5.6	1018	4.7	50	3	68
2026-02-25T09:44	5.6	1019	4.9	50	3	68
2026-02-25T09:45	5.6	1019	4.9	50	3	68
2026-02-25T09:46	5.6	1018	4.9	40	3	68
2026-02-25T09:47	5.6	1018	4.9	40	3	68
2026-02-25T09:48	5.6	1019	4.9	40	4	68
2026-02-25T09:49	5.6	1019	4.9	50	4	68
2026-02-25T09:50	5.6	1019	4.9	50	3	68
2026-02-25T09:51	5.6	1019	4.9	50	3	69
2026-02-25T09:52	5.6	1019	4.9	40	3	69
2026-02-25T09:53	5.6	1019	4.9	40	4	68
2026-02-25T09:54	5.6	1019	4.9	40	3	68
2026-02-25T09:55	5.6	1019	4.9	40	3	68
2026-02-25T09:56	5.6	1019	4.9	40	3	68
2026-02-25T09:57	5.6	1019	4.9	40	3	68
2026-02-25T09:58	5.6	1019	4.9	40	3	68
2026-02-25T09:59	5.6	1019	4.9	40	3	68
2026-02-25T10:00	5.6	1019	4.9	40	3	68
2026-02-25T10:01	5.6	1019	4.9	40	3	68
2026-02-25T10:02	5.6	1019	4.9	40	3	68
2026-02-25T10:03	5.6	1019	4.7	40	3	68
2026-02-25T10:04	5.6	1019	4.7	40	3	68
2026-02-25T10:05	5.6	1019	4.9	40	3	68
2026-02-25T10:06	5.6	1019	4.9	40	3	68
2026-02-25T10:07	5.6	1019	4.9	40	3	67
2026-02-25T10:08	5.6	1019	4.9	40	3	68
2026-02-25T10:09	5.6	1019	4.9	40	3	67
2026-02-25T10:10	5.6	1019	4.9	40	3	68
2026-02-25T10:11	5.6	1019	4.9	40	3	68
2026-02-25T10:12	5.6	1019	4.9	40	3	67
2026-02-25T10:13	5.6	1019	4.9	40	3	68
2026-02-25T10:14	5.6	1019	4.9	50	3	67
2026-02-25T10:15	5.6	1019	4.9	40	4	68
2026-02-25T10:16	5.6	1019	4.9	40	3	68
2026-02-25T10:17	5.6	1019	4.9	40	3	68
2026-02-25T10:18	5.6	1019	4.9	40	3	68
2026-02-25T10:19	5.6	1019	4.9	40	3	68
2026-02-25T10:20	5.6	1019	4.9	40	3	68
2026-02-25T10:21	5.7	1019	5.0	40	3	68
2026-02-25T10:22	5.6	1019	4.9	40	3	69
2026-02-25T10:23	5.7	1019	5.0	40	3	69
2026-02-25T10:24	5.6	1019	4.9	50	3	69
2026-02-25T10:25	5.7	1019	5.0	50	3	69
2026-02-25T10:26	5.6	1019	4.9	50	3	70
2026-02-25T10:27	5.6	1019	4.9	50	3	70
2026-02-25T10:28	5.6	1019	4.9	50	3	70
2026-02-25T10:29	5.7	1019	5.0	50	3	70
2026-02-25T10:30	5.6	1019	4.9	50	3	70
2026-02-25T10:31	5.6	1019	4.9	50	3	70
2026-02-25T10:32	5.6	1019	4.9	50	3	70
2026-02-25T10:33	5.6	1019	4.9	50	3	70
2026-02-25T10:34	5.6	1019	4.9	40	3	70
2026-02-25T10:35	5.6	1019	4.9	40	3	70
2026-02-25T10:36	5.7	1019	5.0	40	3	69
2026-02-25T10:37	5.7	1019	5.0	40	3	69
2026-02-25T10:38	5.7	1019	5.0	40	3	68
2026-02-25T10:39	5.7	1019	5.0	40	3	67
2026-02-25T10:40	5.7	1019	5.0	40	3	66
2026-02-25T10:41	5.7	1019	5.0	40	3	66
2026-02-25T10:42	5.7	1019	5.0	40	3	66
2026-02-25T10:43	5.7	1019	5.1	40	3	65
2026-02-25T10:44	5.7	1019	5.1	40	3	65
2026-02-25T10:45	5.7	1019	5.1	40	3	64
2026-02-25T10:46	5.7	1019	5.1	40	3	64
2026-02-25T10:47	5.7	1019	5.1	40	3	63
2026-02-25T10:48	5.7	1019	5.1	30	3	63
2026-02-25T10:49	5.6	1019	5.0	30	3	63
2026-02-25T10:50	5.6	1019	5.0	30	3	63
2026-02-25T10:51	5.6	1019	5.0	30	3	63
2026-02-25T10:52	5.6	1019	5.0	30	3	62
2026-02-25T10:53	5.6	1019	5.0	30	3	63
2026-02-25T10:54	5.7	1019	5.1	30	3	62
2026-02-25T10:55	5.7	1019	5.1	20	3	62
2026-02-25T10:56	5.7	1019	5.1	20	3	62
2026-02-25T10:57	5.6	1019	5.0	20	3	62
2026-02-25T10:58	5.7	1019	5.1	20	2	62
2026-02-25T10:59	5.7	1019	5.1	20	2	62
2026-02-25T11:00	5.7	1019	5.1	20	2	62
2026-02-25T11:01	5.7	1019	5.1	20	2	63
2026-02-25T11:02	5.7	1019	5.1	30	2	62
2026-02-25T11:03	5.7	1019	5.1	30	2	62
2026-02-25T11:04	5.7	1019	5.1	30	2	62
2026-02-25T11:05	5.7	1019	5.1	30	2	62
2026-02-25T11:06	5.7	1019	5.1	30	2	62
2026-02-25T11:07	5.7	1019	5.1	30	2	63
2026-02-25T11:08	5.6	1019	5.0	30	2	63
2026-02-25T11:09	5.6	1019	5.0	30	2	63
2026-02-25T11:10	5.6	1019	5.0	20	2	63
2026-02-25T11:11	5.6	1019	5.0	20	2	63
2026-02-25T11:12	5.6	1019	5.0	20	2	63
2026-02-25T11:13	5.6	1019	5.0	20	2	63
2026-02-25T11:14	5.6	1019	5.0	20	2	63
2026-02-25T11:15	5.6	1019	5.0	20	2	63
2026-02-25T11:16	5.6	1019	5.0	20	2	63
2026-02-25T11:17	5.6	1019	5.0	20	2	63
2026-02-25T11:18	5.6	1019	5.0	20	2	63
2026-02-25T11:19	5.6	1020	5.0	20	2	63
2026-02-25T11:20	5.6	1020	5.0	20	2	64
2026-02-25T11:21	5.6	1020	5.0	20	2	64
2026-02-25T11:22	5.6	1020	5.0	20	2	63
2026-02-25T11:23	5.6	1020	5.0	20	2	63
2026-02-25T11:24	5.6	1020	5.0	20	2	63
2026-02-25T11:25	5.6	1020	5.0	20	2	63
2026-02-25T11:26	5.6	1020	5.0	20	2	63
2026-02-25T11:27	5.6	1020	5.0	20	2	63
2026-02-25T11:28	5.6	1019	5.0	20	2	63
2026-02-25T11:29	5.6	1019	5.0	20	2	62
2026-02-25T11:30	5.6	1019	5.0	20	2	62
2026-02-25T11:31	5.6	1019	5.0	20	2	62
2026-02-25T11:32	5.6	1019	5.0	20	2	62
2026-02-25T11:33	5.6	1020	5.0	20	2	62
2026-02-25T11:34	5.6	1020	5.0	20	2	62
2026-02-25T11:35	5.6	1020	5.0	20	2	62
2026-02-25T11:36	5.6	1020	5.0	20	2	62
2026-02-25T11:37	5.6	1020	5.0	10	2	62
2026-02-25T11:38	5.6	1020	5.0	20	2	62
2026-02-25T11:39	5.6	1020	5.0	10	2	62
2026-02-25T11:40	5.6	1020	5.0	10	2	62
2026-02-25T11:41	5.6	1020	5.0	10	2	62
2026-02-25T11:42	5.6	1020	5.0	10	2	63
2026-02-25T11:43	5.6	1020	5.0	10	2	63
2026-02-25T11:44	5.6	1020	5.0	10	2	63
2026-02-25T11:45	5.6	1020	5.0	10	1	63
2026-02-25T11:46	5.6	1020	5.0	10	1	64
2026-02-25T11:47	5.6	1020	5.0	10	2	64
2026-02-25T11:48	5.6	1020	5.0	10	2	63
2026-02-25T11:49	5.6	1020	5.0	10	2	64
2026-02-25T11:50	5.6	1020	5.0	360	2	64
2026-02-25T11:51	5.6	1020	5.0	360	2	64
2026-02-25T11:52	5.6	1020	5.0	360	2	63
2026-02-25T11:53	5.7	1020	5.1	360	2	63
2026-02-25T11:54	5.7	1020	5.1	360	2	64
2026-02-25T11:55	5.7	1020	5.1	360	2	64
2026-02-25T11:56	5.7	1020	5.1	360	2	64
2026-02-25T11:57	5.7	1020	5.1	360	2	64
2026-02-25T11:58	5.7	1020	5.1	360	2	64
2026-02-25T11:59	5.7	1020	5.1	10	2	64
2026-02-25T12:00	5.7	1020	5.1	10	2	64
2026-02-25T12:01	5.7	1020	5.1	10	2	65
2026-02-25T12:02	5.7	1020	5.1	10	2	65
2026-02-25T12:03	5.7	1020	5.1	10	2	65
2026-02-25T12:04	5.7	1020	5.1	10	2	65
2026-02-25T12:05	5.7	1020	5.1	10	2	65
2026-02-25T12:06	5.8	1020	5.2	10	2	66
2026-02-25T12:07	5.7	1020	5.1	10	2	65
2026-02-25T12:08	5.7	1020	5.1	10	2	65
2026-02-25T12:09	5.7	1020	5.1	10	2	66
2026-02-25T12:10	5.7	1020	5.1	10	2	66
2026-02-25T12:11	5.7	1020	5.1	10	2	66
2026-02-25T12:12	5.7	1020	5.1	10	2	66
2026-02-25T12:13	5.7	1020	5.1	10	2	66
2026-02-25T12:14	5.7	1020	5.1	360	2	65
2026-02-25T12:15	5.7	1020	5.1	10	2	65
2026-02-25T12:16	5.7	1020	5.1	10	2	65
2026-02-25T12:17	5.7	1020	5.1	10	2	65
2026-02-25T12:18	5.7	1020	5.1	10	2	65
2026-02-25T12:19	5.7	1020	5.1	10	2	64
2026-02-25T12:20	5.8	1020	5.2	10	2	64
2026-02-25T12:21	5.8	1020	5.2	10	2	64
2026-02-25T12:22	5.8	1020	5.2	10	2	63
2026-02-25T12:23	5.8	1020	5.2	10	2	63
2026-02-25T12:24	5.8	1020	5.2	10	2	64
2026-02-25T12:25	5.8	1020	5.2	10	2	64
2026-02-25T12:26	5.8	1020	5.2	10	2	64
2026-02-25T12:27	5.8	1020	5.1	10	2	64
2026-02-25T12:28	5.8	1020	5.1	20	2	64
2026-02-25T12:29	5.8	1020	5.1	10	2	65
2026-02-25T12:30	5.8	1020	5.1	20	2	65
2026-02-25T12:31	5.8	1020	5.1	10	2	65
2026-02-25T12:32	5.9	1020	5.2	10	2	66
2026-02-25T12:33	5.9	1020	5.2	10	2	66
2026-02-25T12:34	5.8	1020	5.1	10	2	67
2026-02-25T12:35	5.8	1020	5.1	20	2	67
2026-02-25T12:36	5.8	1020	5.1	20	2	67
2026-02-25T12:37	5.8	1020	5.1	20	2	68
2026-02-25T12:38	5.8	1020	5.1	10	2	68
2026-02-25T12:39	5.8	1020	5.1	20	2	69
2026-02-25T12:40	5.9	1020	5.2	20	2	69
2026-02-25T12:41	5.8	1020	5.1	20	2	70
2026-02-25T12:42	5.9	1020	5.2	20	2	70
2026-02-25T12:43	5.9	1020	5.2	20	2	70
2026-02-25T12:44	5.9	1020	5.2	20	2	70
2026-02-25T12:45	5.8	1020	5.1	20	2	70
2026-02-25T12:46	5.8	1020	5.1	20	2	70
2026-02-25T12:47	5.9	1020	5.2	20	2	70
2026-02-25T12:48	5.9	1020	5.2	20	2	70
2026-02-25T12:49	5.9	1020	5.2	10	2	70
2026-02-25T12:50	5.9	1020	5.2	10	2	70
2026-02-25T12:51	5.9	1020	5.2	10	2	70
2026-02-25T12:52	5.8	1020	5.1	20	2	70
2026-02-25T12:53	5.8	1019	5.1	20	2	70
2026-02-25T12:54	5.8	1019	5.1	20	2	70
2026-02-25T12:55	5.8	1020	5.1	20	2	70
2026-02-25T12:56	5.8	1019	5.1	20	2	70
2026-02-25T12:57	5.8	1020	5.1	20	2	70
2026-02-25T12:58	5.8	1020	5.1	20	2	70
2026-02-25T12:59	5.8	1020	5.1	20	1	70
2026-02-25T13:00	5.8	1020	5.1	20	1	70
2026-02-25T13:01	5.8	1020	5.2	20	1	70
2026-02-25T13:02	5.8	1020	5.2	20	1	70
2026-02-25T13:03	5.8	1020	5.2	30	1	70
2026-02-25T13:04	5.8	1020	5.2	30	1	70
2026-02-25T13:05	5.8	1020	5.2	20	1	70
2026-02-25T13:06	5.8	1020	5.2	10	1	70
2026-02-25T13:07	5.8	1020	5.2	10	1	70
2026-02-25T13:08	5.8	1020	5.2	10	1	70
2026-02-25T13:09	5.8	1020	5.2	10	1	70
2026-02-25T13:10	5.8	1020	5.2	10	1	70
2026-02-25T13:11	5.8	1020	5.2	10	1	70
2026-02-25T13:12	5.8	1020	5.2	10	1	70
2026-02-25T13:13	5.8	1020	5.2	360	1	70
2026-02-25T13:14	5.8	1020	5.2	360	2	70
2026-02-25T13:15	5.8	1020	5.2	360	2	70
2026-02-25T13:16	5.9	1020	5.3	10	2	70
2026-02-25T13:17	5.8	1020	5.2	10	2	70
2026-02-25T13:18	5.8	1020	5.2	360	2	70
2026-02-25T13:19	5.8	1020	5.2	10	2	70
2026-02-25T13:20	5.8	1020	5.2	10	2	70
2026-02-25T13:21	5.9	1020	5.3	10	2	70
2026-02-25T13:22	5.9	1020	5.3	10	2	70
2026-02-25T13:23	5.8	1020	5.2	10	2	70
2026-02-25T13:24	5.9	1020	5.3	10	2	70
2026-02-25T13:25	5.9	1020	5.3	10	2	70
2026-02-25T13:26	5.9	1019	5.3	10	2	70
2026-02-25T13:27	5.9	1019	5.3	10	2	70
2026-02-25T13:28	5.9	1019	5.3	10	2	70
2026-02-25T13:29	5.9	1019	5.3	360	2	70
2026-02-25T13:30	5.9	1019	5.3	360	2	70
2026-02-25T13:31	5.9	1019	5.3	360	2	70
2026-02-25T13:32	5.9	1019	5.3	360	2	70
2026-02-25T13:33	5.9	1019	5.3	360	2	70
2026-02-25T13:34	5.9	1019	5.3	10	2	70
2026-02-25T13:35	5.9	1019	5.3	10	2	70
2026-02-25T13:36	5.9	1019	5.3	10	2	70
2026-02-25T13:37	5.9	1019	5.3	10	2	70
2026-02-25T13:38	5.9	1019	5.3	10	2	70
2026-02-25T13:39	5.9	1019	5.3	10	2	70
2026-02-25T13:40	5.9	1019	5.3	20	2	70
2026-02-25T13:41	5.9	1019	5.3	10	2	70
2026-02-25T13:42	5.9	1019	5.3	10	2	70
2026-02-25T13:43	5.9	1019	5.3	10	2	70
2026-02-25T13:44	5.9	1019	5.3	10	2	70
2026-02-25T13:45	5.9	1019	5.3	10	2	70
2026-02-25T13:46	5.9	1019	5.3	10	2	70
2026-02-25T13:47	5.9	1019	5.3	10	2	70
2026-02-25T13:48	5.9	1019	5.3	20	2	70
2026-02-25T13:49	5.9	1019	5.3	20	2	70
2026-02-25T13:50	5.9	1019	5.3	20	2	70
2026-02-25T13:51	5.9	1019	5.3	30	2	70
2026-02-25T13:52	6.0	1019	5.3	40	1	70
2026-02-25T13:53	6.0	1019	5.3	40	1	70
2026-02-25T13:54	6.0	1019	5.3	40	1	70
2026-02-25T13:55	6.0	1019	5.3	50	1	70
2026-02-25T13:56	6.0	1019	5.3	50	1	70
2026-02-25T13:57	5.9	1019	5.2	50	1	70
2026-02-25T13:58	5.9	1019	5.2	40	1	70
2026-02-25T13:59	5.9	1019	5.2	40	1	70
2026-02-25T14:00	5.8	1019	5.2	30	1	70
2026-02-25T14:01	5.8	1019	5.2	20	1	70
2026-02-25T14:02	5.9	1019	5.3	10	1	70
2026-02-25T14:03	5.9	1019	5.3	360	1	70
2026-02-25T14:04	5.9	1019	5.2	350	1	70
2026-02-25T14:05	5.9	1019	5.2	350	2	70
2026-02-25T14:06	5.9	1019	5.2	350	1	70
2026-02-25T14:07	5.9	1019	5.2	350	2	70
2026-02-25T14:08	5.9	1019	5.2	360	1	70
2026-02-25T14:09	5.9	1019	5.2	360	1	70
2026-02-25T14:10	5.9	1019	5.3	360	1	70
2026-02-25T14:11	5.8	1019	5.2	360	1	70
2026-02-25T14:12	5.9	1019	5.3	360	1	70
2026-02-25T14:13	5.9	1019	5.2	10	1	70
2026-02-25T14:14	5.8	1019	5.1	10	1	70
2026-02-25T14:15	5.8	1019	5.2	360	1	70
2026-02-25T14:16	5.8	1019	5.2	10	1	70
2026-02-25T14:17	5.8	1019	5.2	360	1	70
2026-02-25T14:18	5.8	1019	5.2	360	1	70
2026-02-25T14:19	5.8	1019	5.2	360	1	70
2026-02-25T14:20	5.8	1019	5.2	360	1	70
2026-02-25T14:21	5.8	1019	5.4	360	1	70
2026-02-25T14:22	5.8	1019	5.4	360	1	70
2026-02-25T14:23	5.8	1019	5.2	360	1	70
2026-02-25T14:24	5.9	1019	5.3	360	1	70
2026-02-25T14:25	5.8	1019	5.2	10	1	70
2026-02-25T14:26	5.8	1019	5.2	10	1	70
2026-02-25T14:27	5.8	1019	5.2	10	1	70
2026-02-25T14:28	5.8	1019	5.2	10	1	70
2026-02-25T14:29	5.8	1019	5.2	10	1	70
2026-02-25T14:30	5.8	1019	5.2	360	1	70
2026-02-25T14:31	5.9	1019	5.3	10	1	70
2026-02-25T14:32	5.9	1019	5.3	10	1	70
2026-02-25T14:33	5.8	1019	5.4	10	1	70
2026-02-25T14:34	5.8	1019	5.4	10	1	70
2026-02-25T14:35	5.8	1019	5.4	360	1	70
2026-02-25T14:36	5.7	1019	5.3	360	1	70
2026-02-25T14:37	5.7	1019	5.3	360	1	70
2026-02-25T14:38	5.7	1019	5.4	350	1	70
2026-02-25T14:39	5.7	1019	5.4	350	1	70
2026-02-25T14:40	5.8	1019	5.5	350	1	70
2026-02-25T14:41	5.8	1019	5.5	350	1	70
2026-02-25T14:42	5.8	1019	5.5	350	2	70
2026-02-25T14:43	5.8	1018	5.5	360	2	70
2026-02-25T14:44	5.8	1018	5.4	360	2	70
2026-02-25T14:45	5.8	1018	5.4	360	2	70
2026-02-25T14:46	5.8	1018	5.4	10	2	70
2026-02-25T14:47	5.9	1019	5.5	10	2	70
2026-02-25T14:48	5.9	1019	5.5	10	1	70
2026-02-25T14:49	5.9	1019	5.3	10	1	70
2026-02-25T14:50	5.9	1019	5.3	10	1	70
2026-02-25T14:51	5.9	1019	5.3	10	1	70
2026-02-25T14:52	5.9	1019	5.3	20	1	70
2026-02-25T14:53	5.9	1019	5.3	10	1	70
2026-02-25T14:54	5.9	1019	5.3	10	1	70
2026-02-25T14:55	5.9	1019	5.3	10	1	70
2026-02-25T14:56	5.9	1019	5.3	360	1	70
2026-02-25T14:57	5.9	1019	5.3	360	1	70
2026-02-25T14:58	5.9	1019	5.3	360	2	70
2026-02-25T14:59	5.9	1019	5.3	350	2	70
2026-02-25T15:00	5.9	1019	5.3	360	2	70
2026-02-25T15:01	5.9	1019	5.3	360	2	70
2026-02-25T15:02	5.9	1019	5.3	350	2	70
2026-02-25T15:03	5.9	1019	5.3	350	2	70
2026-02-25T15:04	5.9	1019	5.3	350	2	70
2026-02-25T15:05	5.9	1019	5.3	360	2	70
2026-02-25T15:06	5.9	1019	5.3	360	2	70
2026-02-25T15:07	5.9	1019	5.3	360	2	70
2026-02-25T15:08	5.9	1019	5.3	360	2	70
2026-02-25T15:09	5.9	1019	5.3	360	2	70
2026-02-25T15:10	5.9	1019	5.3	360	2	70
2026-02-25T15:11	5.9	1019	5.3	360	2	70
2026-02-25T15:12	5.9	1019	5.3	360	1	70
2026-02-25T15:13	5.9	1019	5.3	360	1	70
2026-02-25T15:14	5.9	1019	5.3	360	1	70
2026-02-25T15:15	6.0	1019	5.4	360	1	70
2026-02-25T15:16	6.0	1019	5.4	360	1	70
2026-02-25T15:17	6.1	1019	5.4	360	1	70
2026-02-25T15:18	6.0	1019	5.3	360	1	70
2026-02-25T15:19	6.0	1019	5.3	360	2	70
2026-02-25T15:20	6.0	1019	5.3	10	2	70
2026-02-25T15:21	6.1	1019	5.2	10	2	70
2026-02-25T15:22	6.1	1019	5.2	10	1	70
2026-02-25T15:23	6.1	1019	5.2	20	1	70
2026-02-25T15:24	6.1	1019	5.2	20	1	70
2026-02-25T15:25	6.1	1019	5.2	20	1	70
2026-02-25T15:26	6.1	1019	5.2	20	1	70
2026-02-25T15:27	6.1	1019	5.2	20	1	70
2026-02-25T15:28	6.1	1019	5.2	20	1	70
2026-02-25T15:29	6.1	1019	5.2	20	1	70
2026-02-25T15:30	6.1	1019	5.2	30	1	70
2026-02-25T15:31	6.1	1019	5.2	20	1	70
2026-02-25T15:32	6.2	1019	5.2	20	1	70
2026-02-25T15:33	6.2	1019	5.2	20	1	70
2026-02-25T15:34	6.1	1019	5.1	20	1	70
2026-02-25T15:35	6.1	1019	5.1	20	1	70
2026-02-25T15:36	6.1	1019	5.1	20	1	70
2026-02-25T15:37	6.1	1019	5.1	20	1	70
2026-02-25T15:38	6.1	1019	5.1	20	1	70
2026-02-25T15:39	6.2	1019	5.2	20	2	70
2026-02-25T15:40	6.2	1019	5.2	10	2	70
2026-02-25T15:41	6.2	1019	5.2	10	2	70
2026-02-25T15:42	6.1	1019	5.1	10	2	70
2026-02-25T15:43	6.2	1019	5.2	10	2	70
2026-02-25T15:44	6.2	1019	5.2	10	2	70
2026-02-25T15:45	6.2	1019	5.2	10	2	70
2026-02-25T15:46	6.1	1019	5.1	10	2	70
2026-02-25T15:47	6.1	1019	5.1	10	2	70
2026-02-25T15:48	6.1	1019	5.1	20	2	70
2026-02-25T15:49	6.1	1019	5.1	20	2	70
2026-02-25T15:50	6.1	1019	5.1	20	2	70
2026-02-25T15:51	6.1	1019	5.1	10	1	70
2026-02-25T15:52	6.1	1019	5.1	10	1	70
2026-02-25T15:53	6.1	1019	5.2	10	1	70
2026-02-25T15:54	6.1	1019	5.1	10	1	70
2026-02-25T15:55	6.1	1019	5.2	10	1	70
2026-02-25T15:56	6.1	1019	5.2	360	1	70
2026-02-25T15:57	6.1	1019	5.2	360	1	70
2026-02-25T15:58	6.1	1019	5.2	360	1	70
2026-02-25T15:59	6.1	1019	5.2	360	1	70
2026-02-25T16:00	6.2	1019	5.2	360	1	70
2026-02-25T16:01	6.2	1019	5.2	360	1	70
2026-02-25T16:02	6.1	1019	5.1	360	1	70
2026-02-25T16:03	6.2	1019	5.2	360	1	70
2026-02-25T16:04	6.2	1019	5.2	360	1	70
2026-02-25T16:05	6.2	1019	5.2	360	2	70
2026-02-25T16:06	6.2	1019	5.2	360	2	70
2026-02-25T16:07	6.2	1019	5.2	10	2	70
2026-02-25T16:08	6.1	1019	5.1	10	2	70
2026-02-25T16:09	6.2	1019	5.2	10	2	70
2026-02-25T16:10	6.2	1019	5.2	10	2	70
2026-02-25T16:11	6.2	1019	5.2	10	2	70
2026-02-25T16:12	6.3	1019	5.3	10	2	70
2026-02-25T16:13	6.3	1019	5.1	10	2	70
2026-02-25T16:14	6.3	1019	5.1	360	2	70
2026-02-25T16:15	6.3	1019	5.1	10	2	70
2026-02-25T16:16	6.3	1019	5.1	20	2	70
2026-02-25T16:17	6.3	1019	5.1	20	2	70
2026-02-25T16:18	6.3	1019	5.1	20	2	70
2026-02-25T16:19	6.3	1019	5.0	20	2	70
2026-02-25T16:20	6.3	1018	5.1	20	2	70
2026-02-25T16:21	6.3	1018	5.1	20	2	70
2026-02-25T16:22	6.4	1018	5.1	30	2	70
2026-02-25T16:23	6.3	1018	5.0	30	2	70
2026-02-25T16:24	6.3	1018	5.1	30	2	70
2026-02-25T16:25	6.3	1018	5.1	30	2	70
2026-02-25T16:26	6.3	1018	5.0	30	2	70
2026-02-25T16:27	6.3	1018	5.1	30	2	70
2026-02-25T16:28	6.3	1018	5.1	30	2	70
2026-02-25T16:29	6.3	1018	5.1	30	2	70
2026-02-25T16:30	6.3	1018	5.0	30	2	70
2026-02-25T16:31	6.3	1018	5.0	30	2	70
2026-02-25T16:32	6.3	1018	5.1	30	2	70
2026-02-25T16:33	6.3	1018	5.1	20	2	70
2026-02-25T16:34	6.3	1018	5.1	20	2	70
2026-02-25T16:35	6.3	1018	5.0	20	2	70
2026-02-25T16:36	6.3	1018	5.1	20	2	70
2026-02-25T16:37	6.3	1018	5.1	20	2	70
2026-02-25T16:38	6.3	1018	5.1	20	2	70
2026-02-25T16:39	6.3	1018	5.1	20	2	70
2026-02-25T16:40	6.3	1018	5.1	20	2	70
2026-02-25T16:41	6.3	1018	5.1	20	2	70
2026-02-25T16:42	6.3	1018	5.1	20	2	70
2026-02-25T16:43	6.3	1018	5.1	20	2	70
2026-02-25T16:44	6.3	1018	5.1	10	2	70
2026-02-25T16:45	6.3	1018	5.1	10	2	70
2026-02-25T16:46	6.4	1018	5.1	10	2	70
2026-02-25T16:47	6.4	1018	5.2	10	2	70
2026-02-25T16:48	6.4	1018	5.2	10	2	70
2026-02-25T16:49	6.4	1018	5.1	10	2	70
2026-02-25T16:50	6.4	1018	5.1	10	2	70
2026-02-25T16:51	6.4	1018	5.1	10	2	70
2026-02-25T16:52	6.4	1018	5.1	20	2	70
2026-02-25T16:53	6.3	1018	5.0	20	2	70
2026-02-25T16:54	6.3	1018	5.0	20	2	70
2026-02-25T16:55	6.4	1018	5.1	20	2	70
2026-02-25T16:56	6.4	1018	5.1	20	3	70
2026-02-25T16:57	6.3	1018	5.0	20	3	70
2026-02-25T16:58	6.4	1018	5.1	20	3	70
2026-02-25T16:59	6.4	1018	5.1	20	3	70
2026-02-25T17:00	6.4	1018	5.1	20	3	70
2026-02-25T17:01	6.5	1018	5.0	20	3	70
2026-02-25T17:02	6.5	1018	5.0	20	3	70
2026-02-25T17:03	6.4	1018	5.1	20	3	70
2026-02-25T17:04	6.5	1018	5.0	30	3	70
2026-02-25T17:05	6.4	1018	4.9	30	3	70
2026-02-25T17:06	6.4	1018	5.1	30	2	70
2026-02-25T17:07	6.4	1018	4.9	30	2	70
2026-02-25T17:08	6.5	1018	5.0	20	2	70
2026-02-25T17:09	6.5	1018	5.0	20	2	70
2026-02-25T17:10	6.5	1018	5.0	30	2	70
2026-02-25T17:11	6.5	1018	5.0	30	2	70
2026-02-25T17:12	6.4	1018	4.9	20	2	70
2026-02-25T17:13	6.4	1018	4.9	20	2	70
2026-02-25T17:14	6.5	1018	5.0	20	2	70
2026-02-25T17:15	6.5	1018	5.0	20	2	70
2026-02-25T17:16	6.5	1018	5.0	30	2	70
2026-02-25T17:17	6.4	1018	4.9	30	3	70
2026-02-25T17:18	6.4	1018	4.9	30	2	70
2026-02-25T17:19	6.4	1018	4.9	20	3	70
2026-02-25T17:20	6.4	1018	5.1	20	3	70
2026-02-25T17:21	6.4	1018	5.1	20	3	70
2026-02-25T17:22	6.4	1018	4.9	20	3	70
2026-02-25T17:23	6.5	1018	5.0	30	3	70
2026-02-25T17:24	6.5	1018	5.0	20	3	70
2026-02-25T17:25	6.5	1018	5.0	30	3	70
2026-02-25T17:26	6.5	1018	5.0	20	3	70
2026-02-25T17:27	6.5	1018	5.0	20	3	70
2026-02-25T17:28	6.4	1018	5.1	20	3	70
2026-02-25T17:29	6.4	1018	5.1	20	3	70
2026-02-25T17:30	6.5	1018	5.0	20	3	70
2026-02-25T17:31	6.5	1018	5.0	20	3	70
2026-02-25T17:32	6.5	1018	5.0	20	3	70
2026-02-25T17:33	6.5	1018	5.0	20	3	70
2026-02-25T17:34	6.5	1018	5.0	20	3	70
2026-02-25T17:35	6.5	1018	5.0	20	3	70
2026-02-25T17:36	6.5	1018	5.0	20	3	70
2026-02-25T17:37	6.6	1018	4.9	20	3	70
2026-02-25T17:38	6.6	1018	4.9	20	3	70
2026-02-25T17:39	6.6	1018	4.9	10	3	70
2026-02-25T17:40	6.6	1018	4.9	20	3	70
2026-02-25T17:41	6.6	1018	4.9	20	2	70
2026-02-25T17:42	6.6	1018	4.9	10	2	70
2026-02-25T17:43	6.6	1018	4.9	10	2	70
2026-02-25T17:44	6.6	1018	4.9	10	2	70
2026-02-25T17:45	6.6	1018	4.9	10	2	70
2026-02-25T17:46	6.6	1018	4.9	10	2	70
2026-02-25T17:47	6.6	1018	4.9	10	2	70
2026-02-25T17:48	6.6	1018	5.1	10	2	70
2026-02-25T17:49	6.6	1018	5.1	10	3	70
2026-02-25T17:50	6.6	1018	5.1	360	2	70
2026-02-25T17:51	6.5	1018	5.0	360	3	70
2026-02-25T17:52	6.5	1018	5.0	360	2	70
2026-02-25T17:53	6.5	1018	5.0	360	2	70
2026-02-25T17:54	6.5	1018	5.0	360	2	70
2026-02-25T17:55	6.5	1018	5.0	360	2	70
2026-02-25T17:56	6.5	1018	5.2	350	3	70
2026-02-25T17:57	6.5	1018	5.0	350	2	70
2026-02-25T17:58	6.4	1018	5.1	350	2	70
2026-02-25T17:59	6.4	1018	5.1	350	2	70
2026-02-25T18:00	6.5	1018	5.0	360	2	70
2026-02-25T18:01	6.5	1018	5.0	360	2	70
2026-02-25T18:02	6.5	1018	5.0	350	2	70
2026-02-25T18:03	6.5	1018	5.0	360	2	70
2026-02-25T18:04	6.5	1018	5.0	350	2	70
2026-02-25T18:05	6.5	1018	5.0	360	2	70
2026-02-25T18:06	6.5	1018	5.0	360	2	70
2026-02-25T18:07	6.5	1018	5.0	360	2	70
2026-02-25T18:08	6.6	1018	4.9	360	2	70
2026-02-25T18:09	6.6	1018	4.9	360	2	70
2026-02-25T18:10	6.6	1018	4.9	360	2	70
2026-02-25T18:11	6.6	1018	4.9	10	2	70
2026-02-25T18:12	6.5	1018	4.8	10	2	70
2026-02-25T18:13	6.5	1018	5.0	10	2	70
2026-02-25T18:14	6.5	1018	5.0	10	2	70
2026-02-25T18:15	6.5	1018	4.8	10	2	70
2026-02-25T18:16	6.5	1018	5.0	10	2	70
2026-02-25T18:17	6.5	1018	5.0	10	2	70
2026-02-25T18:18	6.6	1018	4.9	360	2	70
2026-02-25T18:19	6.6	1018	4.9	360	2	70
2026-02-25T18:20	6.6	1018	4.9	360	2	70
2026-02-25T18:21	6.6	1018	4.9	360	2	70
2026-02-25T18:22	6.6	1018	4.9	360	2	70
2026-02-25T18:23	6.6	1018	4.9	10	2	70
2026-02-25T18:24	6.6	1018	4.9	10	2	70
2026-02-25T18:25	6.6	1018	4.8	10	2	70
2026-02-25T18:26	6.7	1018	4.9	10	2	70
2026-02-25T18:27	6.7	1018	4.9	10	2	70
2026-02-25T18:28	6.6	1018	4.8	10	2	70
2026-02-25T18:29	6.6	1018	4.8	20	2	70
2026-02-25T18:30	6.7	1018	4.9	20	2	70
2026-02-25T18:31	6.7	1018	4.7	20	2	70
2026-02-25T18:32	6.7	1018	4.7	30	2	70
2026-02-25T18:33	6.7	1018	4.9	30	2	70
2026-02-25T18:34	6.7	1018	4.9	30	2	70
2026-02-25T18:35	6.7	1018	4.9	30	2	70
2026-02-25T18:36	6.7	1018	4.9	30	2	70
2026-02-25T18:37	6.7	1018	4.9	30	3	70
2026-02-25T18:38	6.7	1018	4.7	30	3	70
2026-02-25T18:39	6.7	1018	4.7	30	3	70
2026-02-25T18:40	6.7	1018	4.7	30	3	70
2026-02-25T18:41	6.7	1018	4.7	20	3	70
2026-02-25T18:42	6.7	1018	4.7	20	3	70
2026-02-25T18:43	6.7	1018	4.7	10	3	70
2026-02-25T18:44	6.7	1018	4.7	10	3	70
2026-02-25T18:45	6.7	1018	4.7	10	3	70
2026-02-25T18:46	6.7	1018	4.7	10	3	70
2026-02-25T18:47	6.7	1018	4.7	20	3	70
2026-02-25T18:48	6.7	1018	4.7	20	3	70
2026-02-25T18:49	6.7	1018	4.7	20	3	70
2026-02-25T18:50	6.6	1018	4.8	20	3	70
2026-02-25T18:51	6.6	1018	4.8	20	3	70
2026-02-25T18:52	6.7	1018	4.9	20	3	70
2026-02-25T18:53	6.7	1018	4.9	20	3	70
2026-02-25T18:54	6.7	1018	4.9	20	3	70
2026-02-25T18:55	6.7	1018	4.7	20	3	70
2026-02-25T18:56	6.7	1018	4.9	20	2	70
2026-02-25T18:57	6.6	1018	4.8	20	2	70
2026-02-25T18:58	6.7	1018	4.7	20	2	70
2026-02-25T18:59	6.7	1018	4.7	10	2	70
2026-02-25T19:00	6.7	1018	4.9	10	2	70
2026-02-25T19:01	6.7	1018	4.7	10	3	70
2026-02-25T19:02	6.7	1018	4.7	10	3	70
2026-02-25T19:03	6.7	1018	4.9	10	3	70
2026-02-25T19:04	6.7	1018	4.7	10	3	70
2026-02-25T19:05	6.7	1018	4.7	10	3	70
2026-02-25T19:06	6.8	1018	4.6	10	3	70
2026-02-25T19:07	6.8	1018	4.8	10	3	70
2026-02-25T19:08	6.8	1018	4.8	10	3	70
2026-02-25T19:09	6.8	1018	4.8	10	3	70
2026-02-25T19:10	6.8	1018	4.8	20	3	70
2026-02-25T19:11	6.7	1018	4.7	20	3	70
2026-02-25T19:12	6.7	1018	4.7	20	3	70
2026-02-25T19:13	6.7	1018	4.7	20	3	70
2026-02-25T19:14	6.7	1018	4.7	20	3	70
2026-02-25T19:15	6.7	1018	4.7	20	3	70
2026-02-25T19:16	6.7	1018	4.7	20	3	70
2026-02-25T19:17	6.7	1018	4.7	20	3	70
2026-02-25T19:18	6.7	1018	4.7	20	2	70
2026-02-25T19:19	6.8	1018	4.6	20	2	70
2026-02-25T19:20	6.8	1018	4.6	20	2	70
2026-02-25T19:21	6.8	1018	4.6	20	2	70
2026-02-25T19:22	6.8	1018	4.6	20	2	70
2026-02-25T19:23	6.8	1018	4.6	20	3	70
2026-02-25T19:24	6.8	1018	4.6	30	3	70
2026-02-25T19:25	6.8	1018	4.6	20	3	70
2026-02-25T19:26	6.8	1018	4.6	20	3	70
2026-02-25T19:27	6.8	1018	4.6	30	3	70
2026-02-25T19:28	6.8	1018	4.6	30	3	70
2026-02-25T19:29	6.8	1018	4.8	20	3	70
2026-02-25T19:30	6.8	1018	4.8	20	3	70
2026-02-25T19:31	6.8	1018	4.6	20	3	70
2026-02-25T19:32	6.8	1018	4.6	20	3	70
2026-02-25T19:33	6.8	1018	4.6	20	3	70
2026-02-25T19:34	6.8	1018	4.6	20	3	70
2026-02-25T19:35	6.9	1018	4.7	20	3	70
2026-02-25T19:36	6.8	1018	4.6	30	3	70
2026-02-25T19:37	6.8	1018	4.6	30	3	70
2026-02-25T19:38	6.8	1018	4.6	30	3	70
2026-02-25T19:39	6.8	1018	4.8	20	3	70
2026-02-25T19:40	6.8	1018	4.6	30	3	70
2026-02-25T19:41	6.8	1018	4.6	30	3	70
2026-02-25T19:42	6.8	1018	4.6	30	3	70
2026-02-25T19:43	6.8	1018	4.6	20	2	70
2026-02-25T19:44	6.8	1018	4.6	20	2	70
2026-02-25T19:45	6.8	1018	4.8	10	2	70
2026-02-25T19:46	6.8	1018	4.8	10	2	70
2026-02-25T19:47	6.7	1018	4.7	10	2	70
2026-02-25T19:48	6.7	1018	4.7	10	2	70
2026-02-25T19:49	6.8	1018	4.8	10	2	70
2026-02-25T19:50	6.8	1018	4.8	10	2	70
2026-02-25T19:51	6.8	1018	4.6	10	2	70
2026-02-25T19:52	6.8	1018	4.6	10	2	70
2026-02-25T19:53	6.8	1018	4.8	10	2	70
2026-02-25T19:54	6.8	1018	4.8	10	2	70
2026-02-25T19:55	6.7	1018	4.7	20	2	70
2026-02-25T19:56	6.8	1018	4.6	20	2	70
2026-02-25T19:57	6.8	1018	4.8	20	2	70
2026-02-25T19:58	6.8	1018	4.8	20	2	70
2026-02-25T19:59	6.9	1018	4.7	20	2	70
2026-02-25T20:00	6.9	1018	4.7	10	2	70
2026-02-25T20:01	6.8	1018	4.6	10	2	70
2026-02-25T20:02	6.9	1018	4.7	10	2	70
2026-02-25T20:03	6.9	1018	4.7	10	2	70
2026-02-25T20:04	6.9	1018	4.6	10	2	70
2026-02-25T20:05	6.9	1018	4.6	10	3	70
2026-02-25T20:06	6.9	1018	4.6	10	3	70
2026-02-25T20:07	6.9	1018	4.7	10	3	70
2026-02-25T20:08	6.9	1018	4.6	10	3	70
2026-02-25T20:09	6.9	1018	4.7	10	3	70
2026-02-25T20:10	6.9	1018	4.7	10	3	70
2026-02-25T20:11	6.9	1018	4.7	10	3	70
2026-02-25T20:12	6.8	1018	4.6	10	3	70
2026-02-25T20:13	6.8	1018	4.6	10	3	70
2026-02-25T20:14	6.8	1018	4.6	10	3	70
2026-02-25T20:15	6.8	1018	4.8	10	3	70
2026-02-25T20:16	6.8	1018	4.6	10	3	70
2026-02-25T20:17	6.8	1018	4.6	10	3	70
2026-02-25T20:18	6.8	1018	4.6	10	3	70
2026-02-25T20:19	6.8	1018	4.6	10	3	70
2026-02-25T20:20	6.9	1018	4.7	10	3	70
2026-02-25T20:21	6.9	1018	4.7	10	3	70
2026-02-25T20:22	6.8	1018	4.6	10	3	70
2026-02-25T20:23	6.9	1018	4.7	10	3	70
2026-02-25T20:24	6.9	1018	4.6	10	4	70
2026-02-25T20:25	6.9	1018	4.6	360	4	70
2026-02-25T20:26	6.9	1018	4.6	360	4	70
2026-02-25T20:27	6.9	1018	4.6	360	4	70
2026-02-25T20:28	6.9	1018	4.6	10	3	70
2026-02-25T20:29	6.9	1018	4.6	10	4	70
2026-02-25T20:30	6.9	1018	4.6	10	3	70
2026-02-25T20:31	6.9	1018	4.6	360	4	70
2026-02-25T20:32	6.8	1018	4.6	10	4	70
2026-02-25T20:33	6.8	1018	4.6	10	3	70
2026-02-25T20:34	6.9	1018	4.6	10	3	70
2026-02-25T20:35	6.9	1018	4.7	10	3	70
2026-02-25T20:36	6.9	1018	4.7	10	3	70
2026-02-25T20:37	6.8	1018	4.6	10	3	70
2026-02-25T20:38	6.8	1018	4.6	360	3	70
2026-02-25T20:39	6.8	1018	4.6	360	3	70
2026-02-25T20:40	6.8	1018	4.6	360	3	70
2026-02-25T20:41	6.8	1018	4.6	360	2	70
2026-02-25T20:42	6.8	1018	4.6	360	2	70
2026-02-25T20:43	6.8	1018	4.6	360	2	70
2026-02-25T20:44	6.8	1018	4.6	360	3	70
2026-02-25T20:45	6.8	1018	4.6	10	3	70
2026-02-25T20:46	6.8	1018	4.6	360	3	70
2026-02-25T20:47	6.8	1018	4.6	360	3	70
2026-02-25T20:48	6.8	1018	4.6	10	3	70
2026-02-25T20:49	6.8	1018	4.6	10	3	70
2026-02-25T20:50	6.9	1018	4.7	10	3	70
2026-02-25T20:51	6.9	1018	4.6	10	3	70
2026-02-25T20:52	6.9	1018	4.6	10	3	70
2026-02-25T20:53	6.8	1018	4.6	10	3	70
2026-02-25T20:54	6.8	1018	4.8	360	3	70
2026-02-25T20:55	6.7	1018	4.7	350	3	70
2026-02-25T20:56	6.7	1018	4.7	350	2	70
2026-02-25T20:57	6.7	1018	4.7	350	3	70
2026-02-25T20:58	6.7	1018	4.7	350	3	70
2026-02-25T20:59	6.7	1018	4.7	350	3	70
2026-02-25T21:00	6.7	1018	4.7	340	3	70
2026-02-25T21:01	6.6	1018	4.6	340	2	70
2026-02-25T21:02	6.6	1018	4.8	340	2	70
2026-02-25T21:03	6.5	1018	4.7	340	2	70
2026-02-25T21:04	6.5	1018	4.7	340	2	70
2026-02-25T21:05	6.5	1018	4.7	340	2	70
2026-02-25T21:06	6.5	1018	4.7	340	2	70
2026-02-25T21:07	6.5	1018	4.7	340	2	70
2026-02-25T21:08	6.4	1018	4.7	340	2	70
2026-02-25T21:09	6.4	1018	4.7	340	2	70
2026-02-25T21:10	6.4	1018	4.6	340	2	70
2026-02-25T21:11	6.4	1018	4.6	330	2	70
2026-02-25T21:12	6.4	1018	4.6	330	2	70
2026-02-25T21:13	6.4	1018	4.6	330	2	70
2026-02-25T21:14	6.4	1018	4.6	330	2	70
2026-02-25T21:15	6.4	1018	4.6	330	1	70
2026-02-25T21:16	6.4	1018	4.6	330	1	70
2026-02-25T21:17	6.3	1018	4.5	320	1	70
2026-02-25T21:18	6.3	1018	4.5	320	1	70
2026-02-25T21:19	6.3	1018	4.5	320	1	70
2026-02-25T21:20	6.2	1018	4.5	320	1	70
2026-02-25T21:21	6.2	1018	4.4	310	1	70
2026-02-25T21:22	6.3	1018	4.5	320	1	70
2026-02-25T21:23	6.3	1018	4.6	320	2	70
2026-02-25T21:24	6.2	1018	4.7	320	2	70
2026-02-25T21:25	6.2	1018	4.5	320	2	70
2026-02-25T21:26	6.2	1018	4.5	320	2	70
2026-02-25T21:27	6.1	1018	4.4	320	2	70
2026-02-25T21:28	6.2	1018	4.5	330	2	70
2026-02-25T21:29	6.2	1018	4.5	320	2	70
2026-02-25T21:30	6.2	1018	4.5	320	2	70
2026-02-25T21:31	6.2	1018	4.7	330	2	70
2026-02-25T21:32	6.2	1018	4.7	330	2	70
2026-02-25T21:33	6.2	1018	4.5	330	2	70
2026-02-25T21:34	6.2	1018	4.5	330	2	70
2026-02-25T21:35	6.2	1018	4.7	330	2	70
2026-02-25T21:36	6.2	1018	4.5	330	2	70
2026-02-25T21:37	6.3	1018	4.6	330	2	70
2026-02-25T21:38	6.3	1018	4.6	330	2	70
2026-02-25T21:39	6.3	1018	4.6	330	2	70
2026-02-25T21:40	6.3	1018	4.6	330	2	70
2026-02-25T21:41	6.2	1018	4.5	320	2	70
2026-02-25T21:42	6.0	1018	4.3	320	2	70
2026-02-25T21:43	6.0	1018	4.3	310	2	70
2026-02-25T21:44	5.9	1018	4.2	310	2	70
2026-02-25T21:45	5.9	1018	4.2	310	2	70
2026-02-25T21:46	5.8	1018	4.1	310	2	70
2026-02-25T21:47	5.8	1018	4.1	310	2	70
2026-02-25T21:48	5.7	1018	4.0	300	2	70
2026-02-25T21:49	5.7	1018	3.9	300	2	70
2026-02-25T21:50	5.7	1018	4.0	300	2	70
2026-02-25T21:51	5.6	1018	3.9	300	2	70
2026-02-25T21:52	5.6	1018	3.9	310	2	70
2026-02-25T21:53	5.6	1018	3.9	310	2	70
2026-02-25T21:54	5.6	1018	4.1	310	2	70
2026-02-25T21:55	5.6	1018	4.1	310	2	70
2026-02-25T21:56	5.6	1018	3.9	310	2	70
2026-02-25T21:57	5.6	1018	4.1	300	2	70
2026-02-25T21:58	5.6	1018	4.1	310	1	70
2026-02-25T21:59	5.6	1018	4.1	310	1	70
2026-02-25T22:00	5.6	1018	4.1	310	1	70
2026-02-25T22:01	5.6	1018	4.1	310	1	70
2026-02-25T22:02	5.6	1018	4.1	310	1	70
2026-02-25T22:03	5.7	1018	4.0	310	1	70
2026-02-25T22:04	5.8	1018	4.3	310	1	70
2026-02-25T22:05	5.7	1018	4.2	310	2	70
2026-02-25T22:06	5.7	1018	4.4	310	2	70
2026-02-25T22:07	5.7	1018	4.4	310	2	70
2026-02-25T22:08	5.7	1018	4.2	310	2	70
2026-02-25T22:09	5.8	1018	4.3	310	2	70
2026-02-25T22:10	5.8	1018	4.3	310	2	70
2026-02-25T22:11	5.8	1018	4.1	310	2	70
2026-02-25T22:12	5.9	1018	4.2	310	2	70
2026-02-25T22:13	5.9	1018	4.2	310	2	70
2026-02-25T22:14	5.8	1018	4.1	310	1	70
2026-02-25T22:15	5.9	1018	4.2	310	1	70
2026-02-25T22:16	5.9	1018	4.2	310	1	70
2026-02-25T22:17	5.9	1018	4.2	310	1	70
2026-02-25T22:18	5.9	1018	4.1	310	1	70
2026-02-25T22:19	5.9	1018	4.2	310	1	70
2026-02-25T22:20	6.0	1018	4.3	310	1	70
2026-02-25T22:21	6.0	1018	4.2	300	1	70
2026-02-25T22:22	6.0	1018	4.2	310	1	70
2026-02-25T22:23	6.0	1018	4.2	310	1	70
2026-02-25T22:24	6.1	1018	4.3	310	1	70
2026-02-25T22:25	6.1	1018	4.3	310	1	70
2026-02-25T22:26	6.2	1018	4.4	310	1	70
2026-02-25T22:27	6.2	1018	4.4	320	2	70
2026-02-25T22:28	6.2	1018	4.4	320	2	70
2026-02-25T22:29	6.3	1018	4.3	320	2	70
2026-02-25T22:30	6.3	1018	4.5	320	2	70
2026-02-25T22:31	6.4	1018	4.4	320	2	70
2026-02-25T22:32	6.5	1018	4.8	320	2	70
2026-02-25T22:33	6.3	1018	4.3	310	2	70
2026-02-25T22:34	6.4	1018	4.4	310	2	70
2026-02-25T22:35	6.5	1018	4.7	310	2	70
2026-02-25T22:36	6.5	1018	4.8	310	2	70
2026-02-25T22:37	6.4	1018	4.6	300	2	70
2026-02-25T22:38	6.4	1018	4.6	300	1	70
2026-02-25T22:39	6.5	1018	4.3	300	2	70
2026-02-25T22:40	6.7	1018	4.7	300	1	70
2026-02-25T22:41	6.8	1019	5.0	300	2	70
2026-02-25T22:42	6.8	1019	5.0	300	2	70
2026-02-25T22:43	6.7	1019	4.7	310	1	70
2026-02-25T22:44	6.7	1019	4.7	310	1	70
2026-02-25T22:45	6.7	1019	4.7	310	1	70
2026-02-25T22:46	6.6	1018	4.4	310	1	70
2026-02-25T22:47	6.7	1018	4.5	310	1	70
2026-02-25T22:48	6.6	1018	4.4	310	1	70
2026-02-25T22:49	6.7	1018	4.5	310	1	70
2026-02-25T22:50	6.8	1018	4.6	310	1	70
2026-02-25T22:51	6.7	1018	4.5	310	1	70
2026-02-25T22:52	6.8	1018	4.5	310	1	70
2026-02-25T22:53	6.9	1018	4.6	310	1	70
2026-02-25T22:54	7.0	1018	4.7	310	1	70
2026-02-25T22:55	7.0	1019	4.7	310	2	70
2026-02-25T22:56	7.1	1019	4.8	310	2	70
2026-02-25T22:57	7.1	1019	4.6	320	2	70
2026-02-25T22:58	7.1	1019	4.6	320	2	70
2026-02-25T22:59	7.2	1019	4.7	320	2	70
2026-02-25T23:00	7.3	1019	5.0	320	2	70
2026-02-25T23:01	7.1	1019	4.6	320	2	70
2026-02-25T23:02	7.1	1019	4.6	320	2	70
2026-02-25T23:03	7.2	1019	4.9	310	2	70
2026-02-25T23:04	7.2	1019	4.9	310	2	70
2026-02-25T23:05	7.3	1019	5.1	310	2	70
2026-02-25T23:06	7.2	1019	4.7	310	2	70
2026-02-25T23:07	7.2	1019	4.3	310	2	70
2026-02-25T23:08	7.3	1019	4.8	310	2	70
2026-02-25T23:09	7.3	1019	4.8	310	2	70
2026-02-25T23:10	7.3	1019	4.8	320	2	70
2026-02-25T23:11	7.4	1019	4.7	320	2	70
2026-02-25T23:12	7.5	1019	5.0	320	2	70
2026-02-25T23:13	7.5	1018	5.0	330	2	70
2026-02-25T23:14	7.5	1018	5.0	330	2	70
2026-02-25T23:15	7.5	1018	4.8	330	2	70
2026-02-25T23:16	7.5	1018	4.6	340	2	70
2026-02-25T23:17	7.5	1018	4.8	340	2	70
2026-02-25T23:18	7.4	1018	4.5	340	2	70
2026-02-25T23:19	7.4	1018	4.4	340	2	70
2026-02-25T23:20	7.4	1018	4.5	340	2	70
2026-02-25T23:21	7.4	1018	4.5	340	2	70
2026-02-25T23:22	7.5	1018	4.6	330	2	70
2026-02-25T23:23	7.5	1018	4.6	330	2	70
2026-02-25T23:24	7.5	1018	4.8	330	2	70
2026-02-25T23:25	7.4	1018	4.4	330	2	70
2026-02-25T23:26	7.4	1018	4.4	330	2	70
2026-02-25T23:27	7.4	1018	4.4	330	2	70
2026-02-25T23:28	7.5	1018	4.5	330	2	70
2026-02-25T23:29	7.4	1018	4.4	330	2	70
2026-02-25T23:30	7.5	1018	4.5	330	2	70
2026-02-25T23:31	7.6	1018	4.7	330	2	70
2026-02-25T23:32	7.7	1018	5.0	330	2	70
2026-02-25T23:33	7.7	1018	4.8	330	2	70
2026-02-25T23:34	7.7	1018	4.7	330	2	70
2026-02-25T23:35	7.7	1018	4.8	330	2	70
2026-02-25T23:36	7.8	1018	5.1	330	2	70
2026-02-25T23:37	7.7	1018	4.7	330	2	70
2026-02-25T23:38	7.9	1018	5.0	330	2	70
2026-02-25T23:39	7.9	1018	5.0	330	2	70
2026-02-25T23:40	8.0	1018	5.1	330	2	70
2026-02-25T23:41	8.0	1018	5.1	330	2	70
2026-02-25T23:42	8.1	1018	5.2	330	2	70
2026-02-25T23:43	8.1	1018	5.2	330	2	70
2026-02-25T23:44	8.0	1018	4.8	330	2	70
2026-02-25T23:45	8.2	1018	5.3	330	2	70
2026-02-25T23:46	8.1	1018	4.9	330	2	70
2026-02-25T23:47	8.2	1018	5.0	340	2	70
2026-02-25T23:48	8.3	1018	5.1	340	2	70
2026-02-25T23:49	8.4	1018	5.3	340	2	70
2026-02-25T23:50	8.4	1018	5.2	340	2	70
2026-02-25T23:51	8.5	1018	5.4	340	2	70
2026-02-25T23:52	8.6	1018	5.4	340	2	70
2026-02-25T23:53	8.6	1018	5.4	350	2	70
2026-02-25T23:54	8.6	1018	5.2	350	2	70
2026-02-25T23:55	8.7	1018	5.5	350	2	70
2026-02-25T23:56	8.6	1018	5.2	360	2	70
2026-02-25T23:57	8.8	1018	5.4	360	2	70
2026-02-25T23:58	8.8	1018	5.4	360	2	70
2026-02-25T23:59	8.9	1018	5.7	360	2	70
2026-02-26T00:00	8.7	1018	5.3	360	2	70
2026-02-26T00:01	8.7	1018	5.3	360	2	70
2026-02-26T00:02	8.7	1018	5.1	350	3	70
2026-02-26T00:03	8.7	1018	5.3	350	2	70
2026-02-26T00:04	8.8	1018	5.6	350	3	70
2026-02-26T00:05	8.9	1018	5.7	350	3	70
2026-02-26T00:06	8.8	1018	5.2	350	3	70
2026-02-26T00:07	8.9	1018	5.7	350	3	70
2026-02-26T00:08	9.0	1018	5.8	350	3	70
2026-02-26T00:09	8.9	1018	5.3	350	3	70
2026-02-26T00:10	8.9	1018	5.3	360	3	70
2026-02-26T00:11	8.9	1018	5.3	360	3	70
2026-02-26T00:12	9.0	1018	5.8	360	2	70
2026-02-26T00:13	9.0	1018	5.6	360	3	70
2026-02-26T00:14	8.9	1018	5.1	360	3	70
2026-02-26T00:15	9.0	1018	5.4	360	3	70
2026-02-26T00:16	9.0	1018	5.2	360	3	70
2026-02-26T00:17	9.0	1018	5.2	360	2	70
2026-02-26T00:18	8.9	1018	4.9	360	2	70
2026-02-26T00:19	9.0	1018	5.2	360	3	70
2026-02-26T00:20	9.0	1018	5.2	360	2	70
2026-02-26T00:21	9.2	1018	5.4	360	2	70
2026-02-26T00:22	9.2	1018	5.6	360	2	70
2026-02-26T00:23	9.2	1018	5.6	360	2	70
2026-02-26T00:24	9.2	1018	5.4	10	2	70
2026-02-26T00:25	9.1	1018	5.1	10	2	70
2026-02-26T00:26	9.1	1018	5.1	10	2	70
2026-02-26T00:27	9.2	1018	5.4	360	2	70
2026-02-26T00:28	9.2	1018	5.4	360	2	70
2026-02-26T00:29	9.3	1018	5.5	360	3	70
2026-02-26T00:30	9.2	1018	5.4	360	3	70
2026-02-26T00:31	9.2	1018	5.2	360	3	70
2026-02-26T00:32	9.2	1018	5.2	360	3	70
2026-02-26T00:33	9.2	1018	5.2	350	3	70
2026-02-26T00:34	9.4	1018	5.6	350	3	70
2026-02-26T00:35	9.4	1018	5.6	350	3	70
2026-02-26T00:36	9.4	1018	5.6	350	3	70
2026-02-26T00:37	9.5	1018	5.7	360	3	70
2026-02-26T00:38	9.6	1018	5.8	350	3	70
2026-02-26T00:39	9.7	1018	5.9	360	3	70
2026-02-26T00:40	9.6	1018	5.6	360	3	70
2026-02-26T00:41	9.6	1018	5.6	360	3	70
2026-02-26T00:42	9.5	1018	5.5	360	3	70
2026-02-26T00:43	9.3	1018	4.9	360	3	70
2026-02-26T00:44	9.4	1018	5.2	10	3	70
2026-02-26T00:45	9.4	1018	5.2	10	3	70
2026-02-26T00:46	9.7	1018	5.9	360	3	70
2026-02-26T00:47	9.5	1018	5.3	360	3	70
2026-02-26T00:48	9.6	1018	5.6	360	3	70
2026-02-26T00:49	9.6	1018	5.6	360	3	70
2026-02-26T00:50	9.5	1018	5.3	360	3	70
2026-02-26T00:51	9.5	1018	5.3	360	3	70
2026-02-26T00:52	9.5	1018	5.3	360	3	70
2026-02-26T00:53	9.7	1018	5.7	360	3	70
2026-02-26T00:54	9.5	1018	5.3	360	3	70
2026-02-26T00:55	9.5	1018	5.3	10	4	70
2026-02-26T00:56	9.6	1018	5.6	10	4	70
2026-02-26T00:57	9.6	1018	5.4	10	3	70
2026-02-26T00:58	9.7	1018	5.7	10	3	70
2026-02-26T00:59	9.7	1018	5.5	10	3	70
2026-02-26T01:00	9.6	1018	5.4	10	3	70
2026-02-26T01:01	9.7	1018	5.7	10	3	70
2026-02-26T01:02	9.6	1018	5.4	10	3	70
2026-02-26T01:03	9.5	1018	5.1	360	4	70
2026-02-26T01:04	9.4	1018	5.0	10	3	70
2026-02-26T01:05	9.5	1018	5.3	10	3	70
2026-02-26T01:06	9.4	1018	5.2	10	3	70
2026-02-26T01:07	9.5	1018	5.3	360	3	70
2026-02-26T01:08	9.6	1018	5.4	360	3	70
2026-02-26T01:09	9.6	1018	5.4	360	3	70
2026-02-26T01:10	9.6	1018	5.4	360	3	70
2026-02-26T01:11	9.6	1018	5.4	360	3	70
2026-02-26T01:12	9.5	1018	5.3	360	3	70
2026-02-26T01:13	9.4	1018	5.2	360	3	70
2026-02-26T01:14	9.5	1018	5.3	350	3	70
2026-02-26T01:15	9.4	1018	5.2	350	3	70
2026-02-26T01:16	9.4	1018	5.0	350	3	70
2026-02-26T01:17	9.5	1018	5.5	350	3	70
2026-02-26T01:18	9.6	1018	5.6	350	3	70
2026-02-26T01:19	9.6	1018	5.4	360	3	70
2026-02-26T01:20	9.6	1018	5.6	360	3	70
2026-02-26T01:21	9.6	1018	5.4	360	3	70
2026-02-26T01:22	9.6	1018	5.6	360	3	70
2026-02-26T01:23	9.5	1018	5.3	360	3	70
2026-02-26T01:24	9.5	1018	5.3	10	3	70
2026-02-26T01:25	9.5	1018	5.3	10	3	70
2026-02-26T01:26	9.6	1018	5.6	10	3	70
2026-02-26T01:27	9.5	1018	5.3	10	3	70
2026-02-26T01:28	9.5	1018	5.3	360	3	70
2026-02-26T01:29	9.7	1018	5.7	360	3	70
2026-02-26T01:30	9.9	1018	5.9	10	3	70
2026-02-26T01:31	9.9	1018	5.9	10	3	70
2026-02-26T01:32	9.9	1018	5.7	10	2	70
2026-02-26T01:33	9.8	1018	5.4	10	3	70
2026-02-26T01:34	9.8	1018	5.6	20	2	70
2026-02-26T01:35	9.9	1018	5.7	20	2	70
2026-02-26T01:36	10.1	1018	6.1	20	2	70
2026-02-26T01:37	10.0	1018	5.8	30	2	70
2026-02-26T01:38	9.9	1018	5.5	30	3	70
2026-02-26T01:39	10.0	1017	5.6	30	3	70
2026-02-26T01:40	10.0	1017	5.6	30	3	70
2026-02-26T01:41	10.2	1017	6.0	30	3	70
2026-02-26T01:42	10.2	1017	5.8	30	2	70
2026-02-26T01:43	10.1	1017	5.7	30	2	70
2026-02-26T01:44	10.1	1017	5.7	30	2	70
2026-02-26T01:45	10.1	1017	5.7	30	2	70
2026-02-26T01:46	10.1	1017	5.7	20	2	70
2026-02-26T01:47	10.2	1017	5.8	20	2	70
2026-02-26T01:48	10.1	1017	5.7	20	2	70
2026-02-26T01:49	10.1	1017	5.5	10	2	70
2026-02-26T01:50	10.1	1017	5.5	10	2	70
2026-02-26T01:51	10.1	1017	5.5	10	2	70
2026-02-26T01:52	10.2	1017	5.8	10	2	70
2026-02-26T01:53	10.3	1017	5.9	10	2	70
2026-02-26T01:54	10.2	1017	5.6	10	2	70
2026-02-26T01:55	10.3	1017	5.9	10	2	70
2026-02-26T01:56	10.3	1017	5.9	10	2	70
2026-02-26T01:57	10.5	1017	6.3	20	2	70
2026-02-26T01:58	10.5	1017	6.1	20	2	70
2026-02-26T01:59	10.6	1017	6.2	30	2	70
2026-02-26T02:00	10.5	1017	5.9	30	2	70
2026-02-26T02:01	10.4	1017	5.6	30	2	70
2026-02-26T02:02	10.5	1017	5.9	30	2	70
2026-02-26T02:03	10.5	1017	5.9	20	2	70
2026-02-26T02:04	10.5	1017	5.9	20	2	70
2026-02-26T02:05	10.5	1017	5.9	20	2	70
2026-02-26T02:06	10.6	1017	6.0	30	2	70
2026-02-26T02:07	10.6	1017	6.0	30	2	70
2026-02-26T02:08	10.7	1017	6.1	30	2	70
2026-02-26T02:09	10.8	1017	6.2	30	2	70
2026-02-26T02:10	10.8	1017	6.0	30	2	70
2026-02-26T02:11	10.8	1017	6.0	30	3	70
2026-02-26T02:12	10.8	1017	6.0	20	3	70
2026-02-26T02:13	10.8	1017	6.0	30	3	70
2026-02-26T02:14	10.9	1017	6.1	20	3	70
2026-02-26T02:15	10.9	1017	5.9	20	3	70
2026-02-26T02:16	11.0	1017	6.2	20	3	70
2026-02-26T02:17	11.0	1017	6.0	20	3	70
2026-02-26T02:18	11.0	1017	6.0	10	3	70
2026-02-26T02:19	10.9	1017	5.9	10	3	70
2026-02-26T02:20	10.8	1017	5.6	10	3	70
2026-02-26T02:21	10.9	1017	5.9	10	3	70
2026-02-26T02:22	10.9	1017	5.9	10	3	70
2026-02-26T02:23	11.2	1017	6.6	10	3	70
2026-02-26T02:24	11.1	1017	6.1	10	3	70
2026-02-26T02:25	10.9	1017	5.9	10	3	70
2026-02-26T02:26	10.8	1017	5.6	10	3	70
2026-02-26T02:27	11.0	1017	6.2	10	3	70
2026-02-26T02:28	11.2	1017	6.4	10	3	70
2026-02-26T02:29	11.1	1017	6.1	20	3	70
2026-02-26T02:30	10.9	1017	5.7	10	3	70
2026-02-26T02:31	10.9	1017	5.9	10	3	70
2026-02-26T02:32	10.9	1017	5.9	20	3	70
2026-02-26T02:33	10.8	1017	5.6	20	3	70
2026-02-26T02:34	10.8	1017	5.8	20	3	70
2026-02-26T02:35	10.9	1017	6.1	20	3	70
2026-02-26T02:36	11.0	1017	6.2	20	3	70
2026-02-26T02:37	11.1	1017	6.1	20	3	70
2026-02-26T02:38	11.0	1017	6.0	20	3	70
2026-02-26T02:39	11.0	1017	6.0	20	3	70
2026-02-26T02:40	11.0	1017	6.0	20	2	70
2026-02-26T02:41	11.0	1017	6.0	20	3	70
2026-02-26T02:42	11.1	1017	6.1	20	2	70
2026-02-26T02:43	11.1	1017	6.1	20	3	70
2026-02-26T02:44	11.2	1017	6.2	20	3	70
2026-02-26T02:45	11.3	1017	6.3	20	3	70
2026-02-26T02:46	11.3	1017	6.3	20	3	70
2026-02-26T02:47	11.2	1017	6.0	30	3	70
2026-02-26T02:48	11.4	1017	6.3	30	3	70
2026-02-26T02:49	11.2	1017	5.7	20	3	70
2026-02-26T02:50	11.1	1017	5.6	30	3	70
2026-02-26T02:51	11.3	1017	6.0	30	2	70
2026-02-26T02:52	11.4	1017	6.3	30	3	70
2026-02-26T02:53	11.1	1017	5.6	30	3	70
2026-02-26T02:54	11.2	1017	6.0	20	3	70
2026-02-26T02:55	11.1	1016	5.9	20	3	70
2026-02-26T02:56	11.2	1016	6.0	30	3	70
2026-02-26T02:57	11.2	1016	6.0	20	3	70
2026-02-26T02:58	11.2	1016	5.7	20	3	70
2026-02-26T02:59	11.2	1016	5.7	20	3	70
2026-02-26T03:00	11.2	1016	6.0	10	3	70
2026-02-26T03:01	11.2	1016	6.0	10	4	70
2026-02-26T03:02	11.2	1016	6.0	10	3	70
2026-02-26T03:03	11.2	1016	5.7	10	3	70
2026-02-26T03:04	11.1	1016	5.6	10	3	70
2026-02-26T03:05	11.1	1016	5.6	360	3	70
2026-02-26T03:06	11.1	1016	5.6	360	3	70
2026-02-26T03:07	11.2	1016	6.0	360	3	70
2026-02-26T03:08	11.2	1016	6.0	360	3	70
2026-02-26T03:09	11.1	1016	5.6	360	3	70
2026-02-26T03:10	11.1	1016	5.9	360	3	70
2026-02-26T03:11	11.1	1016	5.9	360	3	70
2026-02-26T03:12	11.3	1016	6.3	360	3	70
2026-02-26T03:13	11.5	1016	6.4	360	3	70
2026-02-26T03:14	11.5	1016	6.2	360	3	70
2026-02-26T03:15	11.4	1016	5.9	10	3	70
2026-02-26T03:16	11.3	1016	5.8	10	3	70
2026-02-26T03:17	11.3	1016	5.8	10	3	70
2026-02-26T03:18	11.3	1016	5.8	10	3	70
2026-02-26T03:19	11.2	1016	5.7	10	3	70
2026-02-26T03:20	11.1	1016	5.6	10	3	70
2026-02-26T03:21	11.1	1016	5.9	10	3	70
2026-02-26T03:22	11.1	1016	5.6	10	3	70
2026-02-26T03:23	11.1	1016	5.9	10	3	70
2026-02-26T03:24	11.1	1016	5.9	10	3	70
2026-02-26T03:25	11.1	1016	5.9	10	3	70
2026-02-26T03:26	11.2	1016	6.0	10	3	70
2026-02-26T03:27	11.1	1016	5.9	10	3	70
2026-02-26T03:28	11.1	1016	5.9	10	3	70
2026-02-26T03:29	11.2	1016	6.0	10	2	70
2026-02-26T03:30	11.2	1016	6.0	10	2	70
2026-02-26T03:31	11.3	1016	6.3	10	2	70
2026-02-26T03:32	11.2	1016	6.0	20	2	70
2026-02-26T03:33	11.1	1016	5.9	20	2	70
2026-02-26T03:34	11.1	1016	5.9	20	2	70
2026-02-26T03:35	11.3	1016	6.3	30	2	70
2026-02-26T03:36	11.2	1016	6.0	20	2	70
2026-02-26T03:37	11.1	1016	5.9	20	2	70
2026-02-26T03:38	11.0	1016	5.8	20	2	70
2026-02-26T03:39	11.1	1016	6.1	20	3	70
2026-02-26T03:40	11.1	1016	6.1	20	3	70
2026-02-26T03:41	11.0	1016	5.8	20	2	70
2026-02-26T03:42	11.0	1016	5.8	20	3	70
2026-02-26T03:43	11.0	1016	6.0	20	3	70
2026-02-26T03:44	11.0	1016	6.0	20	3	70
2026-02-26T03:45	11.0	1016	6.0	10	2	70
2026-02-26T03:46	11.0	1016	6.0	10	2	70
2026-02-26T03:47	10.9	1016	5.7	10	2	70
2026-02-26T03:48	11.0	1015	6.0	10	2	70
2026-02-26T03:49	11.0	1015	6.0	10	2	70
2026-02-26T03:50	10.9	1015	5.7	360	2	70
2026-02-26T03:51	11.1	1015	6.1	360	2	70
2026-02-26T03:52	11.0	1015	5.8	360	2	70
2026-02-26T03:53	11.1	1015	6.1	360	2	70
2026-02-26T03:54	11.1	1015	5.9	360	2	70
2026-02-26T03:55	11.2	1015	6.2	360	2	70
2026-02-26T03:56	11.2	1015	6.0	360	2	70
2026-02-26T03:57	11.2	1015	6.0	360	2	70
2026-02-26T03:58	11.2	1015	6.0	360	2	70
2026-02-26T03:59	11.2	1015	6.0	360	2	70
2026-02-26T04:00	11.3	1015	6.0	360	2	70
2026-02-26T04:01	11.4	1015	6.1	360	2	70
2026-02-26T04:02	11.4	1015	6.1	360	3	70
2026-02-26T04:03	11.3	1015	5.8	360	3	70
2026-02-26T04:04	11.3	1015	6.0	360	3	70
2026-02-26T04:05	11.3	1015	6.0	360	3	70
2026-02-26T04:06	11.3	1015	5.8	360	3	70
2026-02-26T04:07	11.4	1015	6.1	10	3	70
2026-02-26T04:08	11.5	1015	6.2	10	3	70
2026-02-26T04:09	11.4	1015	5.9	20	3	70
2026-02-26T04:10	11.4	1015	5.9	20	3	70
2026-02-26T04:11	11.4	1015	5.9	20	3	70
2026-02-26T04:12	11.4	1015	5.9	20	3	70
2026-02-26T04:13	11.5	1015	6.2	20	2	70
2026-02-26T04:14	11.5	1015	6.2	30	2	70
2026-02-26T04:15	11.4	1015	5.9	30	2	70
2026-02-26T04:16	11.7	1015	6.4	30	2	70
2026-02-26T04:17	11.6	1015	6.1	30	2	70
2026-02-26T04:18	11.6	1015	6.1	30	3	70
2026-02-26T04:19	11.5	1015	6.0	20	3	70
2026-02-26T04:20	11.6	1015	6.1	20	2	70
2026-02-26T04:21	11.6	1015	6.1	30	2	70
2026-02-26T04:22	11.6	1015	6.1	30	3	70
2026-02-26T04:23	11.6	1015	6.1	30	3	70
2026-02-26T04:24	11.5	1015	6.0	30	3	70
2026-02-26T04:25	11.7	1015	6.4	30	3	70
2026-02-26T04:26	11.5	1015	5.8	40	3	70
2026-02-26T04:27	11.6	1015	6.1	40	3	70
2026-02-26T04:28	11.7	1015	6.2	40	3	70
2026-02-26T04:29	11.7	1015	6.2	40	3	70
2026-02-26T04:30	11.6	1015	5.9	50	3	70
2026-02-26T04:31	11.7	1015	6.0	50	3	70
2026-02-26T04:32	11.8	1015	6.3	40	3	70
2026-02-26T04:33	11.8	1015	6.1	40	3	70
2026-02-26T04:34	11.8	1015	6.1	50	3	70
2026-02-26T04:35	11.7	1015	6.0	50	3	70
2026-02-26T04:36	11.7	1015	6.0	50	3	70
2026-02-26T04:37	11.7	1015	6.0	50	3	70
2026-02-26T04:38	11.7	1015	6.0	50	3	70
2026-02-26T04:39	11.8	1015	6.1	50	3	70
2026-02-26T04:40	11.9	1015	6.4	40	3	70
2026-02-26T04:41	11.7	1015	6.0	40	3	70
2026-02-26T04:42	11.6	1015	5.9	40	3	70
2026-02-26T04:43	11.5	1015	5.8	30	3	70
2026-02-26T04:44	11.4	1015	5.7	30	3	70
2026-02-26T04:45	11.6	1015	6.1	20	3	70
2026-02-26T04:46	11.5	1015	6.0	20	3	70
2026-02-26T04:47	11.5	1015	6.0	10	3	70
2026-02-26T04:48	11.4	1015	5.9	10	3	70
2026-02-26T04:49	11.4	1015	6.1	10	3	70
2026-02-26T04:50	11.5	1015	6.2	10	3	70
2026-02-26T04:51	11.5	1015	6.2	10	3	70
2026-02-26T04:52	11.4	1015	5.9	20	2	70
2026-02-26T04:53	11.3	1015	5.8	20	2	70
2026-02-26T04:54	11.4	1015	6.1	30	2	70
2026-02-26T04:55	11.3	1015	5.8	30	2	70
2026-02-26T04:56	11.3	1015	6.0	30	2	70
2026-02-26T04:57	11.3	1015	6.0	30	2	70
2026-02-26T04:58	11.3	1015	6.0	40	2	70
2026-02-26T04:59	11.3	1015	6.0	30	2	70
2026-02-26T05:00	11.3	1015	5.8	30	2	70
2026-02-26T05:01	11.2	1015	5.7	30	2	70
2026-02-26T05:02	11.2	1015	5.7	30	2	70
2026-02-26T05:03	11.1	1015	5.6	30	3	70
2026-02-26T05:04	11.1	1015	5.9	30	3	70
2026-02-26T05:05	11.2	1015	6.0	30	3	70
2026-02-26T05:06	11.3	1015	6.0	30	3	70
2026-02-26T05:07	11.2	1015	6.0	30	2	70
2026-02-26T05:08	11.2	1015	6.0	30	2	70
2026-02-26T05:09	11.3	1015	6.0	30	2	70
2026-02-26T05:10	11.2	1015	6.0	30	2	70
2026-02-26T05:11	11.2	1015	6.0	30	2	70
2026-02-26T05:12	11.3	1015	6.0	30	2	70
2026-02-26T05:13	11.3	1015	6.0	30	2	70
2026-02-26T05:14	11.3	1015	6.0	20	2	70
2026-02-26T05:15	11.2	1015	6.0	20	2	70
2026-02-26T05:16	11.2	1015	6.0	20	2	70
2026-02-26T05:17	11.2	1015	6.0	20	2	70
2026-02-26T05:18	11.1	1015	5.6	20	2	70
2026-02-26T05:19	11.2	1015	6.0	20	2	70
2026-02-26T05:20	11.4	1015	6.3	10	2	70
2026-02-26T05:21	11.3	1015	6.0	10	2	70
2026-02-26T05:22	11.2	1015	5.7	10	2	70
2026-02-26T05:23	11.2	1015	6.0	10	2	70
2026-02-26T05:24	11.2	1015	6.0	10	2	70
2026-02-26T05:25	11.2	1015	6.0	10	2	70
2026-02-26T05:26	11.2	1015	6.0	10	2	70
2026-02-26T05:27	11.2	1015	6.0	10	2	70
2026-02-26T05:28	11.2	1015	6.2	10	2	70
2026-02-26T05:29	11.2	1015	6.0	10	2	70
2026-02-26T05:30	11.2	1015	6.0	10	2	70
2026-02-26T05:31	11.3	1015	6.0	10	2	70
2026-02-26T05:32	11.2	1015	6.0	10	2	70
2026-02-26T05:33	11.3	1015	6.0	10	2	70
2026-02-26T05:34	11.2	1015	6.0	10	2	70
2026-02-26T05:35	11.2	1015	6.0	10	2	70
2026-02-26T05:36	11.3	1015	6.3	10	2	70
2026-02-26T05:37	11.2	1015	5.7	10	2	70
2026-02-26T05:38	11.2	1015	6.0	10	2	70
2026-02-26T05:39	11.2	1015	6.0	10	2	70
2026-02-26T05:40	11.2	1015	6.0	10	2	70
2026-02-26T05:41	11.2	1015	6.0	10	2	70
2026-02-26T05:42	11.2	1015	6.0	10	2	70
2026-02-26T05:43	11.3	1015	6.0	10	2	70
2026-02-26T05:44	11.2	1015	6.0	10	2	70
2026-02-26T05:45	11.3	1015	6.0	10	2	70
2026-02-26T05:46	11.4	1015	6.1	360	2	70
2026-02-26T05:47	11.3	1015	6.0	360	2	70
2026-02-26T05:48	11.4	1015	6.3	360	2	70
2026-02-26T05:49	11.4	1015	6.1	350	2	70
2026-02-26T05:50	11.4	1015	6.1	350	2	70
2026-02-26T05:51	11.4	1015	6.1	350	3	70
2026-02-26T05:52	11.3	1015	6.0	350	3	70
2026-02-26T05:53	11.4	1015	6.1	350	3	70
2026-02-26T05:54	11.4	1015	6.1	350	3	70
2026-02-26T05:55	11.4	1015	6.1	350	3	70
2026-02-26T05:56	11.3	1015	6.0	350	3	70
2026-02-26T05:57	11.2	1015	5.7	350	3	70
2026-02-26T05:58	11.2	1015	6.0	350	3	70
2026-02-26T05:59	11.2	1015	5.7	350	3	70
2026-02-26T06:00	11.2	1015	6.0	350	3	70
2026-02-26T06:01	11.3	1015	6.0	350	3	70
2026-02-26T06:02	11.3	1015	6.3	350	3	70
2026-02-26T06:03	11.4	1015	6.3	350	3	70
2026-02-26T06:04	11.3	1015	6.0	350	3	70
2026-02-26T06:05	11.3	1015	5.8	350	3	70
2026-02-26T06:06	11.3	1015	5.8	350	3	70
2026-02-26T06:07	11.3	1015	6.0	350	3	70
2026-02-26T06:08	11.3	1015	5.8	350	3	70
2026-02-26T06:09	11.4	1015	6.1	350	3	70
2026-02-26T06:10	11.4	1015	6.1	350	3	70
2026-02-26T06:11	11.5	1015	6.4	350	3	70
2026-02-26T06:12	11.4	1015	6.1	350	3	70
2026-02-26T06:13	11.4	1015	6.1	350	3	70
2026-02-26T06:14	11.4	1015	5.9	350	2	70
2026-02-26T06:15	11.4	1015	6.1	350	2	70
2026-02-26T06:16	11.4	1015	6.1	350	2	70
2026-02-26T06:17	11.4	1015	6.1	350	2	70
2026-02-26T06:18	11.4	1015	6.1	350	2	70
2026-02-26T06:19	11.4	1015	6.1	350	2	70
2026-02-26T06:20	11.4	1015	6.1	350	3	70
2026-02-26T06:21	11.4	1015	6.1	350	3	70
2026-02-26T06:22	11.3	1015	6.0	350	3	70
2026-02-26T06:23	11.3	1015	6.0	350	3	70
2026-02-26T06:24	11.3	1015	6.0	350	3	70
2026-02-26T06:25	11.3	1015	6.0	350	3	70
2026-02-26T06:26	11.3	1015	6.0	350	3	70
2026-02-26T06:27	11.2	1015	5.7	350	3	70
2026-02-26T06:28	11.2	1015	6.0	360	3	70
2026-02-26T06:29	11.2	1015	6.0	360	3	70
2026-02-26T06:30	11.3	1015	6.3	360	3	70
2026-02-26T06:31	11.2	1015	6.2	360	3	70
2026-02-26T06:32	11.2	1015	6.2	360	3	70
2026-02-26T06:33	11.3	1015	6.3	360	3	70
2026-02-26T06:34	11.3	1015	6.3	360	3	70
2026-02-26T06:35	11.3	1015	6.3	360	3	70
2026-02-26T06:36	11.3	1015	6.3	10	3	70
2026-02-26T06:37	11.3	1015	6.3	10	3	70
2026-02-26T06:38	11.3	1015	6.3	360	3	70
2026-02-26T06:39	11.3	1015	6.3	360	3	70
2026-02-26T06:40	11.3	1015	6.3	360	3	70
2026-02-26T06:41	11.2	1015	5.7	360	3	70
2026-02-26T06:42	11.1	1015	5.9	360	3	70
2026-02-26T06:43	11.1	1015	5.9	350	3	70
2026-02-26T06:44	11.1	1015	5.9	350	3	70
2026-02-26T06:45	11.1	1015	5.9	350	3	70
2026-02-26T06:46	11.1	1015	6.1	350	3	70
2026-02-26T06:47	11.1	1015	6.1	350	3	70
2026-02-26T06:48	11.0	1015	5.8	350	3	70
2026-02-26T06:49	11.0	1015	5.8	340	3	70
2026-02-26T06:50	11.0	1015	5.8	340	3	70
2026-02-26T06:51	10.9	1015	5.7	340	3	70
2026-02-26T06:52	10.9	1015	5.7	340	3	70
2026-02-26T06:53	10.9	1015	5.9	340	3	70
2026-02-26T06:54	10.9	1015	5.9	340	3	70
2026-02-26T06:55	10.9	1016	5.9	340	3	70
2026-02-26T06:56	10.9	1016	5.9	340	3	70
2026-02-26T06:57	10.9	1016	6.1	340	3	70
2026-02-26T06:58	10.9	1016	5.9	340	3	70
2026-02-26T06:59	10.8	1016	5.8	340	3	70
2026-02-26T07:00	10.8	1016	5.8	340	3	70
2026-02-26T07:01	10.9	1016	5.9	340	3	70
2026-02-26T07:02	10.9	1016	5.9	340	3	70
2026-02-26T07:03	10.9	1016	6.1	340	3	70
2026-02-26T07:04	10.8	1016	6.0	350	3	70
2026-02-26T07:05	10.8	1016	5.8	350	3	70
2026-02-26T07:06	10.8	1016	5.8	350	3	70
2026-02-26T07:07	10.8	1016	5.8	350	3	70
2026-02-26T07:08	10.8	1016	5.8	340	3	70
2026-02-26T07:09	10.8	1016	5.8	350	3	70
2026-02-26T07:10	10.7	1016	5.7	350	3	70
2026-02-26T07:11	10.7	1016	5.9	350	3	70
2026-02-26T07:12	10.7	1016	5.9	350	3	70
2026-02-26T07:13	10.7	1016	5.9	350	3	70
2026-02-26T07:14	10.7	1016	5.9	350	3	70
2026-02-26T07:15	10.7	1016	5.9	350	3	70
2026-02-26T07:16	10.7	1016	5.9	350	3	70
2026-02-26T07:17	10.6	1016	5.8	350	3	70
2026-02-26T07:18	10.6	1016	5.8	350	3	70
2026-02-26T07:19	10.6	1016	5.8	350	3	70
2026-02-26T07:20	10.6	1016	5.8	350	3	70
2026-02-26T07:21	10.6	1016	5.8	350	3	70
2026-02-26T07:22	10.6	1016	5.8	340	3	70
2026-02-26T07:23	10.6	1016	6.0	340	3	70
2026-02-26T07:24	10.6	1016	5.8	340	3	70
2026-02-26T07:25	10.6	1016	6.0	340	3	70
2026-02-26T07:26	10.6	1016	6.0	340	3	70
2026-02-26T07:27	10.5	1016	5.7	340	3	70
2026-02-26T07:28	10.5	1016	5.9	340	3	70
2026-02-26T07:29	10.5	1016	6.1	350	3	70
2026-02-26T07:30	10.4	1016	5.8	350	3	70
2026-02-26T07:31	10.4	1016	6.0	350	3	70
2026-02-26T07:32	10.4	1016	5.8	350	3	70
2026-02-26T07:33	10.4	1015	5.8	350	3	70
2026-02-26T07:34	10.3	1015	5.7	350	3	70
2026-02-26T07:35	10.3	1015	5.7	350	3	70
2026-02-26T07:36	10.3	1015	5.7	350	3	70
2026-02-26T07:37	10.3	1015	5.7	350	3	70
2026-02-26T07:38	10.3	1015	5.9	350	3	70
2026-02-26T07:39	10.3	1015	5.9	350	3	70
2026-02-26T07:40	10.3	1015	5.7	350	3	70
2026-02-26T07:41	10.3	1015	5.9	350	3	70
2026-02-26T07:42	10.3	1015	5.9	350	3	70
2026-02-26T07:43	10.3	1015	5.9	350	3	70
2026-02-26T07:44	10.3	1015	5.9	350	3	70
2026-02-26T07:45	10.2	1015	6.0	350	2	70
2026-02-26T07:46	10.2	1015	5.8	350	2	70
2026-02-26T07:47	10.2	1016	6.0	350	2	70
2026-02-26T07:48	10.2	1016	5.8	350	2	70
2026-02-26T07:49	10.2	1016	5.8	350	2	70
2026-02-26T07:50	10.2	1016	5.8	350	2	70
2026-02-26T07:51	10.2	1016	5.8	350	2	70
2026-02-26T07:52	10.2	1016	5.8	350	2	70
2026-02-26T07:53	10.2	1016	5.8	350	2	70
2026-02-26T07:54	10.1	1016	5.7	350	2	70
2026-02-26T07:55	10.1	1016	5.7	350	2	70
2026-02-26T07:56	10.1	1016	5.9	350	2	70
2026-02-26T07:57	10.1	1016	5.9	340	2	70
2026-02-26T07:58	10.1	1016	5.7	340	2	70
2026-02-26T07:59	10.1	1016	5.7	340	3	70
2026-02-26T08:00	10.0	1016	5.6	340	3	70
2026-02-26T08:01	10.0	1016	5.6	340	3	70
2026-02-26T08:02	10.0	1016	5.8	340	3	70
2026-02-26T08:03	10.0	1016	5.8	340	2	70
2026-02-26T08:04	10.0	1016	5.8	340	3	70
2026-02-26T08:05	10.0	1016	5.8	340	3	70
2026-02-26T08:06	9.9	1016	5.9	340	3	70
2026-02-26T08:07	10.0	1016	5.8	340	2	70
2026-02-26T08:08	10.0	1016	5.8	340	2	70
2026-02-26T08:09	10.0	1016	5.8	340	2	70
2026-02-26T08:10	9.9	1016	5.9	340	2	70
2026-02-26T08:11	9.9	1016	5.7	350	2	70
2026-02-26T08:12	9.9	1016	5.7	340	2	70
2026-02-26T08:13	9.9	1016	5.7	340	2	70
2026-02-26T08:14	9.9	1016	5.7	340	2	70
2026-02-26T08:15	9.9	1016	5.7	340	2	70
2026-02-26T08:16	9.9	1016	5.7	350	2	70
2026-02-26T08:17	9.9	1016	5.7	350	2	70
2026-02-26T08:18	9.9	1016	5.7	350	2	70
2026-02-26T08:19	9.9	1016	5.9	350	2	70
2026-02-26T08:20	9.8	1016	5.8	350	2	70
2026-02-26T08:21	9.8	1016	5.8	350	2	70
2026-02-26T08:22	9.8	1016	5.8	350	2	70
2026-02-26T08:23	9.8	1016	5.8	350	2	70
2026-02-26T08:24	9.8	1016	5.8	350	2	70
2026-02-26T08:25	9.8	1016	5.8	340	2	70
2026-02-26T08:26	9.8	1016	5.8	340	2	70
2026-02-26T08:27	9.8	1016	5.8	340	2	70
2026-02-26T08:28	9.8	1016	5.8	340	2	70
2026-02-26T08:29	9.7	1016	5.9	340	2	70
2026-02-26T08:30	9.7	1016	5.9	340	2	70
2026-02-26T08:31	9.7	1016	5.9	340	2	70
2026-02-26T08:32	9.7	1016	5.7	330	2	70
2026-02-26T08:33	9.7	1016	5.9	330	2	70
2026-02-26T08:34	9.7	1016	5.7	330	2	70
2026-02-26T08:35	9.8	1016	5.8	330	2	70
2026-02-26T08:36	9.7	1016	5.9	340	2	70
2026-02-26T08:37	9.7	1016	5.9	340	2	70
2026-02-26T08:38	9.7	1016	5.9	340	2	70
2026-02-26T08:39	9.7	1016	5.9	340	2	70
2026-02-26T08:40	9.6	1016	6.0	340	2	70
2026-02-26T08:41	9.7	1016	5.9	350	2	70
2026-02-26T08:42	9.6	1016	5.8	350	2	70
2026-02-26T08:43	9.7	1016	5.9	340	2	70
2026-02-26T08:44	9.7	1016	5.9	350	2	70
2026-02-26T08:45	9.7	1016	5.9	350	2	70
2026-02-26T08:46	9.6	1016	6.0	350	2	70
2026-02-26T08:47	9.6	1016	5.8	350	2	70
2026-02-26T08:48	9.6	1016	5.8	350	2	70
2026-02-26T08:49	9.6	1016	5.8	350	2	70
2026-02-26T08:50	9.7	1016	5.7	340	2	70
2026-02-26T08:51	9.6	1016	5.8	340	2	70
2026-02-26T08:52	9.6	1016	5.8	340	2	70
2026-02-26T08:53	9.6	1016	5.8	350	2	70
2026-02-26T08:54	9.6	1016	5.8	340	2	70
2026-02-26T08:55	9.6	1016	5.6	340	2	70
2026-02-26T08:56	9.6	1016	5.8	350	2	70
2026-02-26T08:57	9.6	1016	5.6	350	2	70
2026-02-26T08:58	9.6	1016	5.6	350	2	70
2026-02-26T08:59	9.6	1016	5.6	350	2	70
2026-02-26T09:00	9.5	1016	5.7	350	2	70
2026-02-26T09:01	9.5	1016	5.7	350	2	70
2026-02-26T09:02	9.6	1016	5.6	350	2	70
2026-02-26T09:03	9.5	1016	5.7	350	2	70
2026-02-26T09:04	9.5	1016	5.7	350	2	70
2026-02-26T09:05	9.5	1016	5.7	350	2	70
2026-02-26T09:06	9.4	1016	5.6	350	2	70
2026-02-26T09:07	9.5	1016	5.7	350	2	70
2026-02-26T09:08	9.5	1016	5.7	350	2	70
2026-02-26T09:09	9.4	1016	5.8	350	2	70
2026-02-26T09:10	9.4	1016	5.6	350	2	70
2026-02-26T09:11	9.4	1016	5.8	350	2	70
2026-02-26T09:12	9.4	1016	5.8	350	2	70
2026-02-26T09:13	9.4	1016	5.8	360	2	70
2026-02-26T09:14	9.4	1016	5.8	360	2	70
2026-02-26T09:15	9.4	1016	5.8	350	2	70
2026-02-26T09:16	9.4	1016	5.8	360	2	70
2026-02-26T09:17	9.4	1016	5.6	360	2	70
2026-02-26T09:18	9.4	1016	5.6	350	1	70
2026-02-26T09:19	9.4	1016	5.6	350	1	70
2026-02-26T09:20	9.3	1016	5.7	350	1	70
2026-02-26T09:21	9.3	1016	5.7	350	1	70
2026-02-26T09:22	9.3	1016	5.7	350	1	70
2026-02-26T09:23	9.3	1016	5.7	350	1	70
2026-02-26T09:24	9.3	1016	5.7	350	1	70
2026-02-26T09:25	9.2	1016	5.6	350	1	70
2026-02-26T09:26	9.2	1016	5.6	350	1	70
2026-02-26T09:27	9.1	1016	5.7	340	1	70
2026-02-26T09:28	9.1	1016	5.7	340	1	70
2026-02-26T09:29	8.9	1016	5.7	350	1	70
2026-02-26T09:30	8.9	1016	5.8	350	1	70
2026-02-26T09:31	8.9	1016	5.7	350	1	70
2026-02-26T09:32	9.0	1016	5.8	350	1	70
2026-02-26T09:33	9.1	1016	5.7	350	1	70
2026-02-26T09:34	8.9	1016	5.7	350	1	70
2026-02-26T09:35	9.0	1016	5.8	350	1	70
2026-02-26T09:36	8.9	1016	5.7	350	2	70
2026-02-26T09:37	9.0	1016	5.8	350	2	70
2026-02-26T09:38	9.1	1016	5.7	350	2	70
2026-02-26T09:39	9.1	1016	5.7	350	2	70
2026-02-26T09:40	9.1	1016	5.7	360	2	70
2026-02-26T09:41	9.0	1016	5.6	360	2	70
2026-02-26T09:42	8.8	1016	5.6	360	2	70
2026-02-26T09:43	8.9	1016	5.7	360	2	70
2026-02-26T09:44	8.9	1016	5.5	360	1	70
2026-02-26T09:45	8.9	1016	5.7	360	1	70
2026-02-26T09:46	8.8	1016	5.6	360	1	70
2026-02-26T09:47	8.8	1016	5.6	360	1	70
2026-02-26T09:48	8.9	1016	5.7	360	1	70
2026-02-26T09:49	9.1	1016	5.7	360	1	70
2026-02-26T09:50	9.0	1016	5.6	360	1	70
2026-02-26T09:51	8.9	1016	5.7	360	1	70
2026-02-26T09:52	8.7	1016	5.6	360	1	70
2026-02-26T09:53	8.5	1016	5.6	360	1	70
2026-02-26T09:54	8.8	1016	5.9	350	1	70
2026-02-26T09:55	8.9	1016	5.8	350	1	70
2026-02-26T09:56	8.7	1016	5.6	350	1	70
2026-02-26T09:57	8.5	1016	5.4	350	1	70
2026-02-26T09:58	8.5	1016	5.6	360	1	70
2026-02-26T09:59	8.5	1016	5.6	360	1	70
2026-02-26T10:00	8.6	1016	5.7	350	1	70
2026-02-26T10:01	8.8	1016	5.7	350	2	70
2026-02-26T10:02	8.5	1016	5.6	350	2	70
2026-02-26T10:03	8.4	1016	5.7	350	1	70
2026-02-26T10:04	8.4	1016	5.7	350	1	70
2026-02-26T10:05	8.6	1016	5.7	350	1	70
2026-02-26T10:06	8.4	1016	5.5	350	1	70
2026-02-26T10:07	8.3	1016	5.6	350	1	70
2026-02-26T10:08	8.5	1016	5.8	350	1	70
2026-02-26T10:09	8.5	1016	5.8	350	1	70
2026-02-26T10:10	8.4	1016	5.7	350	1	70
2026-02-26T10:11	8.4	1016	5.7	350	1	70
2026-02-26T10:12	8.3	1016	5.6	360	1	70
2026-02-26T10:13	8.6	1016	5.9	350	1	70
2026-02-26T10:14	8.4	1016	5.7	350	1	70
2026-02-26T10:15	8.4	1016	5.7	350	1	70
2026-02-26T10:16	8.5	1016	5.8	350	1	70
2026-02-26T10:17	8.5	1016	5.8	350	1	70
2026-02-26T10:18	8.6	1016	5.7	350	2	70
2026-02-26T10:19	8.3	1016	5.6	350	2	70
2026-02-26T10:20	8.2	1016	5.7	350	2	70
2026-02-26T10:21	8.5	1016	5.8	350	2	70
2026-02-26T10:22	8.7	1016	5.8	350	2	70
2026-02-26T10:23	8.6	1016	5.7	350	2	70
2026-02-26T10:24	8.6	1016	5.7	350	2	70
2026-02-26T10:25	8.4	1016	5.7	350	2	70
2026-02-26T10:26	8.4	1016	5.7	350	2	70
2026-02-26T10:27	8.6	1016	5.7	350	2	70
2026-02-26T10:28	8.7	1016	5.6	350	2	70
2026-02-26T10:29	8.7	1016	5.6	350	1	70
2026-02-26T10:30	8.7	1016	5.6	350	1	70
2026-02-26T10:31	8.6	1016	5.5	350	1	70
2026-02-26T10:32	8.5	1016	5.6	350	1	70
2026-02-26T10:33	8.5	1016	5.6	350	1	70
2026-02-26T10:34	8.5	1016	5.6	350	1	70
2026-02-26T10:35	8.4	1016	5.7	350	1	70
2026-02-26T10:36	8.5	1016	5.6	350	1	70
2026-02-26T10:37	8.4	1016	5.5	350	1	70
2026-02-26T10:38	8.5	1016	5.6	350	1	70
2026-02-26T10:39	8.5	1016	5.6	350	1	70
2026-02-26T10:40	8.6	1016	5.7	350	1	70
2026-02-26T10:41	8.7	1016	5.6	350	1	70
2026-02-26T10:42	8.6	1016	5.5	350	1	70
2026-02-26T10:43	8.4	1016	5.5	350	1	70
2026-02-26T10:44	8.5	1016	5.6	350	1	70
2026-02-26T10:45	8.5	1016	5.6	350	1	70
2026-02-26T10:46	8.4	1016	5.5	350	1	70
2026-02-26T10:47	8.4	1016	5.5	350	1	70
2026-02-26T10:48	8.5	1016	5.6	350	1	70
2026-02-26T10:49	8.6	1016	5.5	350	1	70
2026-02-26T10:50	8.6	1016	5.5	350	1	70
2026-02-26T10:51	8.5	1016	5.4	350	1	70
2026-02-26T10:52	8.3	1016	5.4	350	1	70
2026-02-26T10:53	8.3	1016	5.6	350	1	70
2026-02-26T10:54	8.3	1016	5.6	360	1	70
2026-02-26T10:55	8.4	1016	5.7	360	1	70
2026-02-26T10:56	8.4	1016	5.5	360	1	70
2026-02-26T10:57	8.4	1016	5.5	360	2	70
2026-02-26T10:58	8.5	1016	5.6	360	2	70
2026-02-26T10:59	8.4	1016	5.5	360	2	70
2026-02-26T11:00	8.5	1016	5.6	360	2	70
2026-02-26T11:01	8.5	1016	5.6	350	2	70
2026-02-26T11:02	8.5	1016	5.4	350	2	70
2026-02-26T11:03	8.5	1016	5.4	350	2	70
2026-02-26T11:04	8.4	1016	5.5	350	2	70
2026-02-26T11:05	8.5	1016	5.6	350	2	70
2026-02-26T11:06	8.5	1016	5.6	350	2	70
2026-02-26T11:07	8.5	1016	5.6	350	2	70
2026-02-26T11:08	8.4	1016	5.5	340	2	70
2026-02-26T11:09	8.5	1016	5.6	350	2	70
2026-02-26T11:10	8.4	1016	5.5	350	2	70
2026-02-26T11:11	8.5	1016	5.6	350	2	70
2026-02-26T11:12	8.5	1016	5.4	350	2	70
2026-02-26T11:13	8.5	1016	5.6	350	2	70
2026-02-26T11:14	8.6	1016	5.5	360	2	70
2026-02-26T11:15	8.6	1016	5.5	350	2	70
2026-02-26T11:16	8.6	1016	5.5	350	2	70
2026-02-26T11:17	8.6	1016	5.4	350	2	70
2026-02-26T11:18	8.5	1016	5.4	350	2	70
2026-02-26T11:19	8.3	1016	5.4	350	2	70
2026-02-26T11:20	8.4	1016	5.5	350	2	70
2026-02-26T11:21	8.4	1016	5.5	350	2	70
2026-02-26T11:22	8.4	1016	5.5	350	2	70
2026-02-26T11:23	8.5	1016	5.6	350	2	70
2026-02-26T11:24	8.6	1016	5.5	350	2	70
2026-02-26T11:25	8.6	1016	5.5	350	2	70
2026-02-26T11:26	8.6	1016	5.4	360	2	70
2026-02-26T11:27	8.6	1016	5.4	360	2	70
2026-02-26T11:28	8.6	1016	5.4	360	2	70
2026-02-26T11:29	8.7	1016	5.5	360	2	70
2026-02-26T11:30	8.7	1016	5.3	360	2	70
2026-02-26T11:31	8.7	1016	5.3	360	2	70
2026-02-26T11:32	8.8	1016	5.4	360	2	70
2026-02-26T11:33	8.7	1016	5.3	360	2	70
2026-02-26T11:34	8.7	1016	5.3	360	2	70
2026-02-26T11:35	8.7	1016	5.3	350	2	70
2026-02-26T11:36	8.6	1016	5.2	360	2	70
2026-02-26T11:37	8.7	1016	5.3	350	2	70
2026-02-26T11:38	8.8	1016	5.4	350	2	70
2026-02-26T11:39	8.7	1016	5.3	360	2	70
2026-02-26T11:40	8.7	1016	5.3	350	2	70
2026-02-26T11:41	8.7	1016	5.3	350	2	70
2026-02-26T11:42	8.7	1016	5.3	350	2	70
2026-02-26T11:43	8.7	1016	5.3	340	2	70
2026-02-26T11:44	8.7	1016	5.3	340	2	70
2026-02-26T11:45	8.7	1016	5.5	330	1	70
2026-02-26T11:46	8.5	1016	5.3	320	1	70
2026-02-26T11:47	8.5	1016	5.3	320	1	70
2026-02-26T11:48	8.4	1016	5.3	310	1	70
2026-02-26T11:49	8.4	1016	5.3	300	1	70
2026-02-26T11:50	8.4	1016	5.3	300	1	70
2026-02-26T11:51	8.4	1016	5.3	290	1	70
2026-02-26T11:52	8.4	1016	5.2	290	1	70
2026-02-26T11:53	8.4	1016	5.2	300	1	70
2026-02-26T11:54	8.3	1016	5.2	300	1	70
2026-02-26T11:55	8.2	1016	5.3	300	1	70
2026-02-26T11:56	8.3	1016	5.2	300	1	70
2026-02-26T11:57	8.3	1016	5.2	310	1	70
2026-02-26T11:58	8.3	1016	5.1	310	1	70
2026-02-26T11:59	8.3	1016	5.1	310	1	70
2026-02-26T12:00	8.3	1016	5.1	310	1	70
2026-02-26T12:01	8.3	1016	5.1	310	1	70
2026-02-26T12:02	8.3	1016	5.1	310	1	70
2026-02-26T12:03	8.3	1016	5.1	310	1	70
2026-02-26T12:04	8.2	1016	5.0	310	1	70
2026-02-26T12:05	8.2	1016	5.0	310	1	70
2026-02-26T12:06	8.3	1016	5.1	310	1	70
2026-02-26T12:07	8.2	1016	5.0	310	1	70
2026-02-26T12:08	8.2	1016	5.2	310	1	70
2026-02-26T12:09	8.1	1016	5.2	310	1	70
2026-02-26T12:10	8.1	1016	5.2	310	2	70
2026-02-26T12:11	8.1	1016	5.1	310	2	70
2026-02-26T12:12	8.2	1016	5.2	310	2	70
2026-02-26T12:13	8.1	1016	5.2	310	2	70
2026-02-26T12:14	8.2	1016	5.2	310	2	70
2026-02-26T12:15	8.2	1016	5.3	310	2	70
2026-02-26T12:16	8.1	1016	5.2	310	2	70
2026-02-26T12:17	8.2	1016	5.2	310	2	70
2026-02-26T12:18	8.2	1016	5.2	320	2	70
2026-02-26T12:19	8.4	1016	5.2	320	2	70
2026-02-26T12:20	8.5	1016	5.3	320	2	70
2026-02-26T12:21	8.6	1016	5.4	320	1	70
2026-02-26T12:22	8.6	1016	5.2	330	1	70
2026-02-26T12:23	8.6	1016	5.2	330	1	70
2026-02-26T12:24	8.6	1016	5.2	340	2	70
2026-02-26T12:25	8.6	1016	5.2	350	2	70
2026-02-26T12:26	8.6	1016	5.2	350	2	70
2026-02-26T12:27	8.6	1016	5.2	360	2	70
2026-02-26T12:28	8.7	1016	5.3	360	2	70
2026-02-26T12:29	8.7	1016	5.3	360	2	70
2026-02-26T12:30	8.7	1016	5.3	360	2	70
2026-02-26T12:31	8.8	1016	5.2	360	2	70
2026-02-26T12:32	8.7	1016	5.1	350	2	70
2026-02-26T12:33	8.7	1016	5.3	350	2	70
2026-02-26T12:34	8.7	1016	5.3	340	2	70
2026-02-26T12:35	8.5	1016	5.1	340	2	70
2026-02-26T12:36	8.5	1016	5.3	340	2	70
2026-02-26T12:37	8.5	1016	5.3	330	2	70
2026-02-26T12:38	8.6	1016	5.4	330	2	70
2026-02-26T12:39	8.4	1016	5.3	330	1	70
2026-02-26T12:40	8.4	1016	5.3	330	1	70
2026-02-26T12:41	8.4	1016	5.3	330	1	70
2026-02-26T12:42	8.3	1016	5.6	330	1	70
2026-02-26T12:43	8.3	1016	5.4	340	1	70
2026-02-26T12:44	8.5	1016	5.4	330	1	70
2026-02-26T12:45	8.6	1016	5.2	330	1	70
2026-02-26T12:46	8.5	1016	5.3	340	1	70
2026-02-26T12:47	8.5	1016	5.3	350	1	70
2026-02-26T12:48	8.5	1016	5.3	350	1	70
2026-02-26T12:49	8.4	1016	5.3	350	1	70
2026-02-26T12:50	8.5	1016	5.3	340	1	70
2026-02-26T12:51	8.7	1016	5.3	350	2	70
2026-02-26T12:52	8.7	1016	5.3	350	2	70
2026-02-26T12:53	8.7	1016	5.1	350	2	70
2026-02-26T12:54	8.7	1016	5.1	350	2	70
2026-02-26T12:55	8.5	1016	5.1	360	2	70
2026-02-26T12:56	8.5	1016	5.1	350	2	70
2026-02-26T12:57	8.5	1016	5.1	350	2	70
2026-02-26T12:58	8.5	1016	5.3	350	2	70
2026-02-26T12:59	8.4	1015	5.2	350	2	70
2026-02-26T13:00	8.4	1015	5.3	350	2	70
2026-02-26T13:01	8.3	1015	5.2	350	2	70
2026-02-26T13:02	8.3	1015	5.1	350	2	70
2026-02-26T13:03	8.3	1015	5.1	350	2	70
2026-02-26T13:04	8.3	1015	4.9	340	2	70
2026-02-26T13:05	8.4	1015	5.0	340	2	70
2026-02-26T13:06	8.3	1015	4.9	330	2	70
2026-02-26T13:07	8.4	1015	5.0	330	2	70
2026-02-26T13:08	8.4	1015	5.0	330	2	70
2026-02-26T13:09	8.3	1015	5.1	330	2	70
2026-02-26T13:10	8.3	1015	4.9	320	2	70
2026-02-26T13:11	8.3	1015	4.9	320	2	70
2026-02-26T13:12	8.3	1015	4.9	320	2	70
2026-02-26T13:13	8.4	1015	5.0	310	2	70
2026-02-26T13:14	8.4	1015	5.0	310	2	70
2026-02-26T13:15	8.2	1015	5.2	310	1	70
2026-02-26T13:16	8.2	1015	5.2	320	1	70
2026-02-26T13:17	8.2	1015	5.2	320	1	70
2026-02-26T13:18	8.2	1015	5.2	310	1	70
2026-02-26T13:19	8.2	1015	5.2	320	1	70
2026-02-26T13:20	8.1	1015	5.1	320	1	70
2026-02-26T13:21	8.2	1015	5.2	320	1	70
2026-02-26T13:22	8.1	1015	5.1	320	1	70
2026-02-26T13:23	8.2	1015	5.0	330	1	70
2026-02-26T13:24	8.1	1015	5.1	330	1	70
2026-02-26T13:25	8.2	1015	5.0	330	1	70
2026-02-26T13:26	8.2	1015	5.2	330	1	70
2026-02-26T13:27	8.2	1015	5.0	330	1	70
2026-02-26T13:28	8.3	1015	5.1	330	1	70
2026-02-26T13:29	8.1	1015	5.2	330	1	70
2026-02-26T13:30	8.1	1015	5.2	330	1	70
2026-02-26T13:31	8.1	1015	5.1	330	1	70
2026-02-26T13:32	8.1	1015	5.1	330	1	70
2026-02-26T13:33	8.2	1015	5.2	330	1	70
2026-02-26T13:34	8.2	1015	5.0	330	2	70
2026-02-26T13:35	8.2	1015	5.0	330	1	70
2026-02-26T13:36	8.1	1015	5.1	330	1	70
2026-02-26T13:37	8.2	1015	5.2	330	1	70
2026-02-26T13:38	8.2	1015	5.2	320	1	70
2026-02-26T13:39	8.2	1015	5.2	320	1	70
2026-02-26T13:40	8.2	1015	5.0	320	1	70
2026-02-26T13:41	8.2	1015	5.0	320	1	70
2026-02-26T13:42	8.2	1015	5.0	310	1	70
2026-02-26T13:43	8.2	1015	5.2	320	1	70
2026-02-26T13:44	8.2	1015	5.2	320	1	70
2026-02-26T13:45	8.3	1015	5.1	320	1	70
2026-02-26T13:46	8.3	1015	5.1	320	1	70
2026-02-26T13:47	8.3	1015	5.2	320	1	70
2026-02-26T13:48	8.3	1015	5.2	330	1	70
2026-02-26T13:49	8.3	1015	5.2	330	2	70
2026-02-26T13:50	8.4	1015	5.2	330	2	70
2026-02-26T13:51	8.3	1015	5.1	340	2	70
2026-02-26T13:52	8.3	1015	5.2	340	2	70
2026-02-26T13:53	8.4	1015	5.2	340	2	70
2026-02-26T13:54	8.5	1015	5.3	340	2	70
2026-02-26T13:55	8.4	1015	5.2	340	2	70
2026-02-26T13:56	8.4	1015	5.3	340	2	70
2026-02-26T13:57	8.5	1015	5.3	340	2	70
2026-02-26T13:58	8.5	1016	5.3	340	2	70
2026-02-26T13:59	8.5	1016	5.1	340	2	70
2026-02-26T14:00	8.5	1016	5.1	340	2	70
2026-02-26T14:01	8.5	1016	5.1	330	2	70
2026-02-26T14:02	8.5	1015	5.1	330	2	70
2026-02-26T14:03	8.4	1015	5.0	320	2	70
2026-02-26T14:04	8.4	1016	5.0	320	2	70
2026-02-26T14:05	8.4	1016	5.0	320	2	70
2026-02-26T14:06	8.4	1016	5.0	310	2	70
2026-02-26T14:07	8.4	1016	5.0	310	1	70
2026-02-26T14:08	8.4	1016	5.0	310	1	70
2026-02-26T14:09	8.3	1016	4.9	310	2	70
2026-02-26T14:10	8.3	1016	4.9	310	2	70
2026-02-26T14:11	8.3	1016	4.9	310	2	70
2026-02-26T14:12	8.3	1016	4.9	310	2	70
2026-02-26T14:13	8.2	1016	5.0	320	2	70
2026-02-26T14:14	8.2	1016	5.0	320	2	70
2026-02-26T14:15	8.2	1016	5.0	310	2	70
2026-02-26T14:16	8.2	1016	4.8	320	2	70
2026-02-26T14:17	8.2	1016	4.8	320	2	70
2026-02-26T14:18	8.2	1016	4.8	310	2	70
2026-02-26T14:19	8.1	1016	4.7	310	2	70
2026-02-26T14:20	8.1	1016	4.7	310	2	70
2026-02-26T14:21	8.1	1016	4.7	310	2	70
2026-02-26T14:22	8.1	1016	4.7	310	2	70
2026-02-26T14:23	8.1	1016	4.7	310	2	70
2026-02-26T14:24	8.1	1016	4.7	310	2	70
2026-02-26T14:25	8.0	1016	4.6	320	2	70
2026-02-26T14:26	8.0	1016	4.6	320	2	70
2026-02-26T14:27	8.0	1016	4.8	320	2	70
2026-02-26T14:28	8.0	1016	4.6	320	2	70
2026-02-26T14:29	7.9	1016	4.5	320	2	70
2026-02-26T14:30	7.9	1016	4.5	320	2	70
2026-02-26T14:31	7.9	1016	4.5	320	2	70
2026-02-26T14:32	7.9	1016	4.5	330	2	70
2026-02-26T14:33	7.9	1016	4.5	320	2	70
2026-02-26T14:34	7.9	1016	4.5	320	2	70
2026-02-26T14:35	7.9	1016	4.5	320	2	70
2026-02-26T14:36	7.8	1016	4.4	320	2	70
2026-02-26T14:37	7.8	1016	4.4	320	2	70
2026-02-26T14:38	7.8	1016	4.4	320	3	70
2026-02-26T14:39	7.8	1016	4.6	320	3	70
2026-02-26T14:40	7.8	1016	4.6	320	3	70
2026-02-26T14:41	7.7	1016	4.7	320	3	70
2026-02-26T14:42	7.7	1016	4.7	310	3	70
2026-02-26T14:43	7.7	1016	4.5	310	2	70
2026-02-26T14:44	7.7	1016	4.5	310	2	70
2026-02-26T14:45	7.7	1016	4.5	300	2	70
2026-02-26T14:46	7.7	1016	4.5	300	2	70
2026-02-26T14:47	7.7	1016	4.5	300	2	70
2026-02-26T14:48	7.7	1016	4.7	300	2	70
2026-02-26T14:49	7.7	1016	4.5	300	2	70
2026-02-26T14:50	7.7	1016	4.5	300	2	70
2026-02-26T14:51	7.7	1016	4.5	310	2	70
2026-02-26T14:52	7.7	1016	4.5	300	2	70
2026-02-26T14:53	7.7	1016	4.7	310	2	70
2026-02-26T14:54	7.7	1016	4.7	310	2	70
2026-02-26T14:55	7.7	1016	4.7	310	2	70
2026-02-26T14:56	7.7	1016	4.7	310	2	70
2026-02-26T14:57	7.6	1016	4.6	310	2	70
2026-02-26T14:58	7.7	1016	4.5	310	2	70
2026-02-26T14:59	7.7	1016	4.7	310	2	70
2026-02-26T15:00	7.7	1016	4.7	310	2	70
2026-02-26T15:01	7.6	1016	4.6	300	2	70
2026-02-26T15:02	7.6	1016	4.6	300	2	70
2026-02-26T15:03	7.6	1016	4.6	300	2	70
2026-02-26T15:04	7.6	1016	4.6	300	2	70
2026-02-26T15:05	7.6	1016	4.6	300	2	70
2026-02-26T15:06	7.6	1016	4.6	300	2	70
2026-02-26T15:07	7.6	1016	4.6	300	2	70
2026-02-26T15:08	7.6	1016	4.6	300	2	70
2026-02-26T15:09	7.6	1016	4.7	300	2	70
2026-02-26T15:10	7.6	1016	4.6	300	2	70
2026-02-26T15:11	7.6	1016	4.6	300	2	70
2026-02-26T15:12	7.6	1016	4.6	300	2	70
2026-02-26T15:13	7.6	1016	4.6	310	2	70
2026-02-26T15:14	7.6	1016	4.6	310	2	70
2026-02-26T15:15	7.6	1016	4.6	310	2	70
2026-02-26T15:16	7.6	1016	4.6	310	2	70
2026-02-26T15:17	7.6	1016	4.6	310	2	70
2026-02-26T15:18	7.6	1016	4.6	310	3	70
2026-02-26T15:19	7.6	1016	4.6	310	2	70
2026-02-26T15:20	7.6	1016	4.6	310	2	70
2026-02-26T15:21	7.6	1016	4.6	310	2	70
2026-02-26T15:22	7.6	1016	4.6	310	3	70
2026-02-26T15:23	7.6	1016	4.6	310	3	70
2026-02-26T15:24	7.6	1016	4.6	310	3	70
2026-02-26T15:25	7.6	1016	4.6	310	2	70
2026-02-26T15:26	7.6	1016	4.6	310	2	70
2026-02-26T15:27	7.6	1016	4.6	310	2	70
2026-02-26T15:28	7.6	1016	4.6	310	2	70
2026-02-26T15:29	7.6	1016	4.6	310	2	70
2026-02-26T15:30	7.6	1016	4.6	310	2	70
2026-02-26T15:31	7.6	1016	4.6	310	2	70
2026-02-26T15:32	7.6	1016	4.6	310	2	70
2026-02-26T15:33	7.6	1016	4.6	310	2	70
2026-02-26T15:34	7.6	1016	4.6	310	2	70
2026-02-26T15:35	7.6	1016	4.6	310	2	70
2026-02-26T15:36	7.6	1016	4.7	310	2	70
2026-02-26T15:37	7.6	1016	4.6	320	2	70
2026-02-26T15:38	7.7	1016	4.7	320	2	70
2026-02-26T15:39	7.6	1016	4.6	310	2	70
2026-02-26T15:40	7.7	1016	4.7	320	2	70
2026-02-26T15:41	7.7	1016	4.7	320	2	70
2026-02-26T15:42	7.7	1016	4.7	320	2	70
2026-02-26T15:43	7.7	1016	4.7	320	2	70
2026-02-26T15:44	7.7	1016	4.7	320	2	70
2026-02-26T15:45	7.7	1016	4.7	330	2	70
2026-02-26T15:46	7.8	1016	4.8	330	2	70
2026-02-26T15:47	7.8	1016	4.6	330	2	70
2026-02-26T15:48	7.8	1016	4.6	330	2	70
2026-02-26T15:49	7.8	1016	4.6	330	2	70
2026-02-26T15:50	7.8	1015	4.6	330	2	70
2026-02-26T15:51	7.8	1015	4.6	330	2	70
2026-02-26T15:52	7.8	1015	4.6	330	2	70
2026-02-26T15:53	7.7	1015	4.7	330	2	70
2026-02-26T15:54	7.8	1015	4.6	330	2	70
2026-02-26T15:55	7.8	1015	4.6	330	2	70
2026-02-26T15:56	7.8	1015	4.6	330	2	70
2026-02-26T15:57	7.8	1015	4.6	330	2	70
2026-02-26T15:58	7.8	1015	4.6	330	2	70
2026-02-26T15:59	7.8	1015	4.6	330	2	70
2026-02-26T16:00	7.8	1015	4.6	330	2	70
2026-02-26T16:01	7.9	1015	4.7	330	2	70
2026-02-26T16:02	7.9	1015	4.7	330	2	70
2026-02-26T16:03	7.9	1015	4.7	330	2	70
2026-02-26T16:04	7.9	1015	4.7	320	2	70
2026-02-26T16:05	7.8	1015	4.6	320	2	70
2026-02-26T16:06	7.9	1015	4.7	320	2	70
2026-02-26T16:07	7.9	1015	4.7	320	2	70
2026-02-26T16:08	7.9	1015	4.7	320	2	70
2026-02-26T16:09	7.8	1015	4.6	320	2	70
2026-02-26T16:10	7.8	1015	4.6	320	2	70
2026-02-26T16:11	7.8	1015	4.6	320	2	70
2026-02-26T16:12	7.9	1015	4.7	310	2	70
2026-02-26T16:13	7.9	1015	4.7	320	2	70
2026-02-26T16:14	7.9	1015	4.7	320	2	70
2026-02-26T16:15	7.9	1015	4.7	320	2	70
2026-02-26T16:16	7.9	1015	4.7	320	2	70
2026-02-26T16:17	7.9	1015	4.9	320	2	70
2026-02-26T16:18	7.9	1015	4.7	320	2	70
2026-02-26T16:19	7.9	1015	4.7	320	2	70
2026-02-26T16:20	7.9	1015	4.7	320	2	70
2026-02-26T16:21	7.9	1015	4.7	320	2	70
2026-02-26T16:22	7.9	1015	4.7	320	2	70
2026-02-26T16:23	7.8	1015	4.8	320	2	70
2026-02-26T16:24	7.9	1015	4.9	320	2	70
2026-02-26T16:25	7.9	1015	4.7	320	2	70
2026-02-26T16:26	7.9	1015	4.9	310	2	70
2026-02-26T16:27	7.9	1015	4.7	310	2	70
2026-02-26T16:28	7.9	1015	4.7	310	2	70
2026-02-26T16:29	7.9	1015	4.7	300	2	70
2026-02-26T16:30	7.8	1015	4.8	300	2	70
2026-02-26T16:31	7.9	1015	4.7	300	2	70
2026-02-26T16:32	7.9	1015	4.9	300	2	70
2026-02-26T16:33	7.9	1015	4.7	300	2	70
2026-02-26T16:34	8.0	1015	4.8	300	2	70
2026-02-26T16:35	8.0	1015	4.8	300	1	70
2026-02-26T16:36	7.9	1015	4.7	300	1	70
2026-02-26T16:37	7.9	1015	4.7	300	1	70
2026-02-26T16:38	8.0	1015	4.8	300	1	70
2026-02-26T16:39	8.0	1015	4.8	300	1	70
2026-02-26T16:40	7.9	1015	4.7	300	1	70
2026-02-26T16:41	8.0	1015	4.8	300	1	70
2026-02-26T16:42	7.9	1015	4.7	300	1	70
2026-02-26T16:43	7.9	1015	4.7	300	1	70
2026-02-26T16:44	7.9	1015	4.7	300	2	70
2026-02-26T16:45	7.9	1015	4.7	300	2	70
2026-02-26T16:46	7.9	1015	4.7	300	2	70
2026-02-26T16:47	8.0	1015	4.8	300	2	70
2026-02-26T16:48	8.0	1015	5.0	300	2	70
2026-02-26T16:49	8.0	1015	4.8	300	2	70
2026-02-26T16:50	8.0	1015	4.8	300	2	70
2026-02-26T16:51	8.0	1015	4.8	300	2	70
2026-02-26T16:52	8.0	1015	4.8	300	2	70
2026-02-26T16:53	8.0	1015	4.8	300	2	70
2026-02-26T16:54	8.0	1015	4.8	300	1	70
2026-02-26T16:55	8.0	1015	4.8	290	1	70
2026-02-26T16:56	7.9	1015	4.9	290	2	70
2026-02-26T16:57	7.9	1015	4.9	290	1	70
2026-02-26T16:58	7.9	1015	4.9	290	2	70
2026-02-26T16:59	8.0	1015	4.8	290	2	70
2026-02-26T17:00	7.9	1015	4.9	300	2	70
2026-02-26T17:01	7.9	1015	4.9	300	2	70
2026-02-26T17:02	7.9	1015	4.9	300	2	70
2026-02-26T17:03	7.9	1015	4.9	300	2	70
2026-02-26T17:04	7.9	1015	4.9	300	2	70
2026-02-26T17:05	7.9	1015	4.9	300	2	70
2026-02-26T17:06	7.9	1015	4.9	300	2	70
2026-02-26T17:07	7.9	1015	4.9	300	2	70
2026-02-26T17:08	7.9	1015	4.9	300	2	70
2026-02-26T17:09	7.9	1015	4.9	310	2	70
2026-02-26T17:10	7.9	1015	4.9	310	2	70
2026-02-26T17:11	8.0	1015	5.0	310	2	70
2026-02-26T17:12	8.0	1015	5.0	310	2	70
2026-02-26T17:13	8.0	1015	4.8	310	2	70
2026-02-26T17:14	7.9	1015	4.9	320	2	70
2026-02-26T17:15	8.0	1015	5.0	320	2	70
2026-02-26T17:16	8.0	1015	5.0	320	2	70
2026-02-26T17:17	8.0	1015	5.0	320	2	70
2026-02-26T17:18	8.0	1015	4.8	320	2	70
2026-02-26T17:19	8.0	1015	4.8	320	2	70
2026-02-26T17:20	8.0	1015	4.8	320	2	70
2026-02-26T17:21	8.0	1015	4.8	320	2	70
2026-02-26T17:22	8.0	1015	4.8	320	2	70
2026-02-26T17:23	8.0	1015	4.8	320	2	70
2026-02-26T17:24	8.0	1015	5.0	320	2	70
2026-02-26T17:25	8.0	1015	4.8	320	2	70
2026-02-26T17:26	8.0	1015	4.8	320	2	70
2026-02-26T17:27	8.0	1015	4.8	310	2	70
2026-02-26T17:28	8.0	1015	4.8	320	2	70
2026-02-26T17:29	8.0	1015	4.8	320	2	70
2026-02-26T17:30	8.0	1015	5.0	310	2	70
2026-02-26T17:31	7.9	1015	4.9	310	2	70
2026-02-26T17:32	8.0	1015	5.0	310	2	70
2026-02-26T17:33	8.0	1015	4.8	310	2	70
2026-02-26T17:34	8.0	1015	4.8	310	2	70
2026-02-26T17:35	8.0	1015	4.8	310	2	70
2026-02-26T17:36	8.0	1015	4.8	310	2	70
2026-02-26T17:37	8.0	1015	4.8	310	2	70
2026-02-26T17:38	8.0	1015	4.8	310	2	70
2026-02-26T17:39	8.0	1015	4.8	310	2	70
2026-02-26T17:40	8.0	1015	4.8	310	2	70
2026-02-26T17:41	8.0	1014	4.8	310	2	70
2026-02-26T17:42	8.0	1014	4.8	310	2	70
2026-02-26T17:43	8.0	1014	4.8	310	2	70
2026-02-26T17:44	8.1	1014	4.9	310	2	70
2026-02-26T17:45	8.1	1014	4.9	310	2	70
2026-02-26T17:46	8.1	1014	4.9	310	2	70
2026-02-26T17:47	8.1	1014	4.9	310	2	70
2026-02-26T17:48	8.1	1014	4.9	320	2	70
2026-02-26T17:49	8.1	1015	4.9	320	2	70
2026-02-26T17:50	8.1	1015	4.9	320	2	70
2026-02-26T17:51	8.0	1015	4.8	320	2	70
2026-02-26T17:52	8.0	1015	4.8	320	2	70
2026-02-26T17:53	8.1	1015	4.9	320	2	70
2026-02-26T17:54	8.1	1015	4.9	320	2	70
2026-02-26T17:55	8.0	1015	4.8	320	2	70
2026-02-26T17:56	8.1	1015	5.1	320	2	70
2026-02-26T17:57	8.1	1015	5.1	320	2	70
2026-02-26T17:58	8.1	1015	4.9	320	2	70
2026-02-26T17:59	8.2	1015	5.0	320	2	70
2026-02-26T18:00	8.1	1014	4.9	320	2	70
2026-02-26T18:01	8.1	1014	4.9	320	2	70
2026-02-26T18:02	8.1	1014	4.9	320	2	70
2026-02-26T18:03	8.1	1014	4.9	320	2	70
2026-02-26T18:04	8.1	1014	4.9	320	2	70
2026-02-26T18:05	8.2	1014	5.0	310	2	70
2026-02-26T18:06	8.2	1014	5.0	320	2	70
2026-02-26T18:07	8.1	1014	4.9	320	2	70
2026-02-26T18:08	8.2	1014	5.0	320	2	70
2026-02-26T18:09	8.2	1014	5.0	310	2	70
2026-02-26T18:10	8.2	1014	5.0	320	1	70
2026-02-26T18:11	8.2	1014	5.0	320	1	70
2026-02-26T18:12	8.1	1014	4.9	330	1	70
2026-02-26T18:13	8.1	1014	4.9	330	1	70
2026-02-26T18:14	8.1	1014	4.9	320	1	70
2026-02-26T18:15	8.1	1014	4.9	330	1	70
2026-02-26T18:16	8.2	1014	5.0	330	1	70
2026-02-26T18:17	8.2	1014	5.0	320	1	70
2026-02-26T18:18	8.2	1014	5.0	330	1	70
2026-02-26T18:19	8.2	1014	5.0	330	2	70
2026-02-26T18:20	8.2	1014	5.0	330	2	70
2026-02-26T18:21	8.1	1014	5.1	330	2	70
2026-02-26T18:22	8.1	1014	5.1	330	2	70
2026-02-26T18:23	8.0	1014	5.0	340	1	70
2026-02-26T18:24	8.1	1014	5.1	350	1	70
2026-02-26T18:25	8.1	1014	5.1	350	1	70
2026-02-26T18:26	8.1	1014	5.1	360	1	70
2026-02-26T18:27	8.0	1014	5.1	360	1	70
2026-02-26T18:28	8.1	1014	5.2	350	1	70
2026-02-26T18:29	8.0	1014	5.1	350	1	70
2026-02-26T18:30	7.9	1014	5.0	350	1	70
2026-02-26T18:31	8.0	1014	5.1	350	1	70
2026-02-26T18:32	8.0	1014	5.1	340	1	70
2026-02-26T18:33	8.0	1014	5.1	330	1	70
2026-02-26T18:34	7.9	1014	5.2	320	1	70
2026-02-26T18:35	7.9	1014	5.2	310	1	70
2026-02-26T18:36	7.9	1014	5.2	310	1	70
2026-02-26T18:37	7.9	1014	5.2	310	1	70
2026-02-26T18:38	8.0	1014	5.3	310	1	70
2026-02-26T18:39	8.0	1014	5.3	310	1	70
2026-02-26T18:40	8.0	1014	5.3	300	1	70
2026-02-26T18:41	8.1	1014	5.4	300	1	70
2026-02-26T18:42	8.0	1014	5.3	300	1	70
2026-02-26T18:43	7.9	1014	5.2	300	1	70
2026-02-26T18:44	8.1	1014	5.4	300	1	70
2026-02-26T18:45	7.8	1014	5.3	300	1	70
2026-02-26T18:46	7.7	1014	5.2	300	1	70
2026-02-26T18:47	7.9	1014	5.4	300	1	70
2026-02-26T18:48	7.9	1014	5.4	300	1	70
2026-02-26T18:49	7.9	1014	5.4	300	1	70
2026-02-26T18:50	8.1	1014	5.4	300	1	70
2026-02-26T18:51	8.0	1014	5.3	300	1	70
2026-02-26T18:52	8.1	1014	5.4	300	1	70
2026-02-26T18:53	7.9	1014	5.2	300	1	70
2026-02-26T18:54	7.7	1014	5.2	300	1	70
2026-02-26T18:55	7.6	1014	5.3	300	1	70
2026-02-26T18:56	7.4	1014	5.1	310	1	70
2026-02-26T18:57	7.5	1014	5.3	310	1	70
2026-02-26T18:58	7.7	1014	5.5	310	1	70
2026-02-26T18:59	7.8	1014	5.5	310	1	70
2026-02-26T19:00	7.7	1014	5.4	320	1	70
2026-02-26T19:01	7.7	1014	5.4	320	1	70
2026-02-26T19:02	7.6	1014	5.3	330	1	70
2026-02-26T19:03	7.5	1014	5.3	340	1	70
2026-02-26T19:04	7.4	1014	5.2	340	1	70
2026-02-26T19:05	7.5	1014	5.5	350	1	70
2026-02-26T19:06	7.4	1014	5.6	360	1	70
2026-02-26T19:07	7.4	1014	5.7	10	1	70
2026-02-26T19:08	7.4	1014	5.7	10	1	70
2026-02-26T19:09	7.4	1014	5.7	20	1	70
2026-02-26T19:10	7.4	1014	5.7	30	1	70
2026-02-26T19:11	7.4	1014	5.7	30	1	70
2026-02-26T19:12	7.3	1014	5.6	30	1	70
2026-02-26T19:13	7.2	1014	5.5	40	1	70
2026-02-26T19:14	7.4	1013	5.7	40	1	70
2026-02-26T19:15	7.4	1013	5.6	40	1	70
2026-02-26T19:16	7.3	1014	5.6	40	1	70
2026-02-26T19:17	7.3	1014	5.6	50	1	70
2026-02-26T19:18	7.4	1014	5.7	50	1	70
2026-02-26T19:19	7.3	1014	5.6	40	1	70
2026-02-26T19:20	7.2	1014	5.5	40	1	70
2026-02-26T19:21	7.3	1014	5.6	30	1	70
2026-02-26T19:22	7.4	1014	5.6	10	1	70
2026-02-26T19:23	7.3	1014	5.5	360	1	70
2026-02-26T19:24	7.3	1014	5.5	350	1	70
2026-02-26T19:25	7.3	1014	5.5	350	1	70
2026-02-26T19:26	7.3	1014	5.5	350	1	70
2026-02-26T19:27	7.4	1014	5.7	350	1	70
2026-02-26T19:28	7.3	1014	5.6	350	1	70
2026-02-26T19:29	7.4	1014	5.7	360	1	70
2026-02-26T19:30	7.3	1014	5.8	10	1	70
2026-02-26T19:31	7.3	1014	5.8	20	1	70
2026-02-26T19:32	7.4	1014	5.9	20	1	70
2026-02-26T19:33	7.6	1014	5.9	20	1	70
2026-02-26T19:34	7.7	1014	5.9	20	1	70
2026-02-26T19:35	7.6	1014	5.8	20	1	70
2026-02-26T19:36	7.5	1014	5.7	10	1	70
2026-02-26T19:37	7.6	1014	5.8	10	1	70
2026-02-26T19:38	7.6	1014	5.8	10	1	70
2026-02-26T19:39	7.6	1014	5.8	360	1	70
2026-02-26T19:40	7.6	1014	5.8	360	1	70
2026-02-26T19:41	7.6	1014	5.8	360	1	70
2026-02-26T19:42	7.5	1014	5.7	360	1	70
2026-02-26T19:43	7.5	1014	5.7	360	1	70
2026-02-26T19:44	7.5	1014	5.7	360	1	70
2026-02-26T19:45	7.4	1014	5.6	360	1	70
2026-02-26T19:46	7.5	1014	5.8	360	1	70
2026-02-26T19:47	7.5	1014	5.8	360	1	70
2026-02-26T19:48	7.5	1014	5.8	350	1	70
2026-02-26T19:49	7.3	1014	5.6	350	1	70
2026-02-26T19:50	7.2	1014	5.7	350	1	70
2026-02-26T19:51	7.2	1014	5.7	350	1	70
2026-02-26T19:52	7.2	1014	5.7	350	1	70
2026-02-26T19:53	7.3	1014	5.8	350	1	70
2026-02-26T19:54	7.3	1014	5.8	350	1	70
2026-02-26T19:55	7.2	1014	5.7	360	1	70
2026-02-26T19:56	7.2	1013	5.8	360	1	70
2026-02-26T19:57	7.1	1013	5.7	360	1	70
2026-02-26T19:58	7.1	1014	5.7	360	1	70
2026-02-26T19:59	7.1	1014	5.6	360	1	70
2026-02-26T20:00	7.3	1014	5.8	360	1	70
2026-02-26T20:01	7.4	1014	5.9	360	1	70
2026-02-26T20:02	7.4	1014	5.7	360	1	70
2026-02-26T20:03	7.3	1014	5.6	360	1	70
2026-02-26T20:04	7.1	1014	5.4	350	1	70
2026-02-26T20:05	7.1	1014	5.6	350	1	70
2026-02-26T20:06	7.1	1014	5.6	350	1	70
2026-02-26T20:07	6.9	1014	5.5	350	1	70
2026-02-26T20:08	6.9	1014	5.5	360	1	70
2026-02-26T20:09	6.9	1013	5.5	360	1	70
2026-02-26T20:10	7.0	1013	5.6	360	1	70
2026-02-26T20:11	7.1	1013	5.7	360	1	70
2026-02-26T20:12	7.2	1013	5.7	360	1	70
2026-02-26T20:13	7.0	1013	5.3	360	1	70
2026-02-26T20:14	6.8	1013	5.3	360	1	70
2026-02-26T20:15	6.6	1013	5.3	360	1	70
2026-02-26T20:16	6.7	1013	5.5	360	1	70
2026-02-26T20:17	6.7	1013	5.5	350	1	70
2026-02-26T20:18	6.7	1013	5.5	350	1	70
2026-02-26T20:19	6.6	1013	5.4	340	1	70
2026-02-26T20:20	6.4	1013	5.2	340	1	70
2026-02-26T20:21	6.5	1013	5.5	330	1	70
2026-02-26T20:22	6.6	1013	5.6	330	1	70
2026-02-26T20:23	6.7	1013	5.7	320	1	70
2026-02-26T20:24	6.4	1013	5.2	310	1	70
2026-02-26T20:25	6.3	1013	5.3	290	1	70
2026-02-26T20:26	6.1	1013	5.1	280	1	70
2026-02-26T20:27	6.1	1013	5.2	280	1	70
2026-02-26T20:28	6.2	1013	5.3	270	1	70
2026-02-26T20:29	6.1	1013	5.2	270	1	70
2026-02-26T20:30	6.1	1013	5.2	260	1	70
2026-02-26T20:31	6.1	1013	5.4	260	1	70
2026-02-26T20:32	6.2	1013	5.5	270	0	70
2026-02-26T20:33	6.1	1013	5.4	270	0	70
2026-02-26T20:34	6.1	1013	5.2	60	0	70
2026-02-26T20:35	6.1	1013	5.4	80	0	70
2026-02-26T20:36	6.1	1013	5.4	80	0	70
2026-02-26T20:37	6.0	1013	5.3	30	0	70
2026-02-26T20:38	6.0	1013	5.3	40	0	70
2026-02-26T20:39	6.0	1013	5.4	40	1	70
2026-02-26T20:40	6.1	1013	5.5	40	1	70
2026-02-26T20:41	6.2	1013	5.6	40	1	70
2026-02-26T20:42	6.1	1013	5.5	40	1	70
2026-02-26T20:43	6.0	1013	5.3	40	1	70
2026-02-26T20:44	5.9	1013	5.2	20	1	70
2026-02-26T20:45	6.1	1013	5.4	10	1	70
2026-02-26T20:46	6.2	1013	5.5	350	1	70
2026-02-26T20:47	6.3	1013	5.6	330	1	70
2026-02-26T20:48	6.2	1013	5.5	320	1	70
2026-02-26T20:49	6.1	1013	5.4	300	1	70
2026-02-26T20:50	6.1	1013	5.2	290	1	70
2026-02-26T20:51	6.1	1013	5.4	290	1	70
2026-02-26T20:52	6.1	1013	5.4	290	1	70
2026-02-26T20:53	6.1	1013	5.4	290	1	70
2026-02-26T20:54	6.1	1013	5.4	280	1	70
2026-02-26T20:55	6.1	1013	5.4	280	1	70
2026-02-26T20:56	6.2	1013	5.5	280	1	70
2026-02-26T20:57	6.1	1013	5.4	270	1	70
2026-02-26T20:58	6.1	1013	5.4	270	1	70
2026-02-26T20:59	6.1	1013	5.2	270	1	70
2026-02-26T21:00	6.2	1013	5.5	270	1	70
2026-02-26T21:01	6.3	1013	5.6	270	1	70
2026-02-26T21:02	6.3	1013	5.4	270	1	70
2026-02-26T21:03	6.3	1013	5.4	260	1	70
2026-02-26T21:04	6.3	1013	5.4	260	1	70
2026-02-26T21:05	6.4	1013	5.5	270	1	70
2026-02-26T21:06	6.5	1013	5.5	270	1	70
2026-02-26T21:07	6.6	1013	5.6	270	2	70
2026-02-26T21:08	6.6	1013	5.4	270	2	70
2026-02-26T21:09	6.5	1013	5.2	270	2	70
2026-02-26T21:10	6.6	1013	5.3	270	2	70
2026-02-26T21:11	6.6	1013	5.3	270	2	70
2026-02-26T21:12	6.6	1013	5.3	270	2	70
2026-02-26T21:13	6.6	1013	5.1	270	2	70
2026-02-26T21:14	6.6	1013	5.1	270	2	70
2026-02-26T21:15	6.5	1013	5.0	260	2	70
2026-02-26T21:16	6.5	1013	5.0	270	2	70
2026-02-26T21:17	6.4	1013	5.1	270	2	70
2026-02-26T21:18	6.3	1013	5.0	270	2	70
2026-02-26T21:19	6.4	1013	5.1	270	2	70
2026-02-26T21:20	6.4	1013	5.1	270	2	70
2026-02-26T21:21	6.4	1013	5.1	270	2	70
2026-02-26T21:22	6.4	1013	5.1	270	2	70
2026-02-26T21:23	6.4	1014	5.1	270	2	70
2026-02-26T21:24	6.4	1014	5.1	270	2	70
2026-02-26T21:25	6.4	1014	4.9	270	2	70
2026-02-26T21:26	6.4	1014	4.9	270	2	70
2026-02-26T21:27	6.4	1014	4.9	270	2	70
2026-02-26T21:28	6.5	1014	5.0	270	2	70
2026-02-26T21:29	6.4	1014	4.9	270	2	70
2026-02-26T21:30	6.5	1014	5.0	270	2	70
2026-02-26T21:31	6.6	1014	5.1	270	2	70
2026-02-26T21:32	6.6	1014	4.9	270	2	70
2026-02-26T21:33	6.7	1014	5.0	270	2	70
2026-02-26T21:34	6.6	1014	4.9	270	2	70
2026-02-26T21:35	6.6	1014	4.9	270	2	70
2026-02-26T21:36	6.7	1014	5.0	270	2	70
2026-02-26T21:37	6.7	1014	4.9	270	2	70
2026-02-26T21:38	6.8	1014	5.0	270	1	70
2026-02-26T21:39	6.8	1014	5.0	270	1	70
2026-02-26T21:40	6.9	1014	5.1	270	1	70
2026-02-26T21:41	6.9	1014	5.1	270	1	70
2026-02-26T21:42	6.9	1014	5.1	270	1	70
2026-02-26T21:43	6.8	1014	5.0	270	1	70
2026-02-26T21:44	6.9	1014	5.1	270	1	70
2026-02-26T21:45	6.8	1014	5.1	270	1	70
2026-02-26T21:46	7.0	1014	5.3	270	1	70
2026-02-26T21:47	7.1	1014	5.4	270	1	70
2026-02-26T21:48	7.2	1014	5.5	270	1	70
2026-02-26T21:49	7.2	1014	5.4	270	2	70
2026-02-26T21:50	7.2	1014	5.2	270	2	70
2026-02-26T21:51	7.2	1014	5.4	270	2	70
2026-02-26T21:52	7.2	1014	5.4	270	2	70
2026-02-26T21:53	7.3	1014	5.5	270	1	70
2026-02-26T21:54	7.3	1014	5.3	270	1	70
2026-02-26T21:55	7.4	1014	5.2	270	1	70
2026-02-26T21:56	7.5	1014	5.3	270	1	70
2026-02-26T21:57	7.6	1014	5.6	270	1	70
2026-02-26T21:58	7.5	1014	5.2	280	1	70
2026-02-26T21:59	7.6	1014	5.4	280	1	70
2026-02-26T22:00	7.6	1014	5.3	280	1	70
2026-02-26T22:01	7.6	1014	5.1	280	1	70
2026-02-26T22:02	7.7	1014	5.2	280	1	70
2026-02-26T22:03	7.7	1014	5.2	290	1	70
2026-02-26T22:04	7.7	1014	5.2	290	1	70
2026-02-26T22:05	7.7	1014	5.4	300	1	70
2026-02-26T22:06	7.8	1014	5.3	290	1	70
2026-02-26T22:07	7.8	1014	5.3	290	1	70
2026-02-26T22:08	7.8	1014	5.3	290	2	70
2026-02-26T22:09	7.8	1013	5.1	300	2	70
2026-02-26T22:10	7.8	1013	5.1	300	2	70
2026-02-26T22:11	7.8	1013	5.1	300	2	70
2026-02-26T22:12	7.9	1013	5.2	300	2	70
2026-02-26T22:13	7.9	1013	5.4	290	2	70
2026-02-26T22:14	7.9	1013	5.4	290	2	70
2026-02-26T22:15	7.9	1013	5.0	290	2	70
2026-02-26T22:16	8.0	1013	5.3	300	1	70
2026-02-26T22:17	8.0	1013	5.3	300	1	70
2026-02-26T22:18	8.1	1013	5.6	300	2	70
2026-02-26T22:19	8.0	1013	5.1	300	2	70
2026-02-26T22:20	8.1	1013	5.2	300	2	70
2026-02-26T22:21	8.0	1013	5.1	310	2	70
2026-02-26T22:22	8.1	1013	5.2	310	2	70
2026-02-26T22:23	8.0	1013	5.1	310	2	70
2026-02-26T22:24	8.0	1013	5.0	310	2	70
2026-02-26T22:25	8.1	1013	5.2	310	2	70
2026-02-26T22:26	8.1	1013	5.1	310	2	70
2026-02-26T22:27	8.1	1013	5.1	300	2	70
2026-02-26T22:28	8.1	1013	5.1	300	2	70
2026-02-26T22:29	8.2	1013	5.2	300	2	70
2026-02-26T22:30	8.3	1013	5.2	290	2	70
2026-02-26T22:31	8.3	1013	5.2	290	2	70
2026-02-26T22:32	8.2	1013	5.2	290	2	70
2026-02-26T22:33	8.3	1013	5.2	280	2	70
2026-02-26T22:34	8.4	1013	5.3	280	2	70
2026-02-26T22:35	8.3	1013	5.2	280	2	70
2026-02-26T22:36	8.2	1013	5.0	270	2	70
2026-02-26T22:37	8.2	1013	5.0	280	2	70
2026-02-26T22:38	8.2	1013	5.0	280	2	70
2026-02-26T22:39	8.3	1013	5.1	280	2	70
2026-02-26T22:40	8.3	1013	5.2	280	2	70
2026-02-26T22:41	8.3	1013	5.1	280	2	70
2026-02-26T22:42	8.2	1013	5.0	290	2	70
2026-02-26T22:43	8.3	1013	5.2	290	2	70
2026-02-26T22:44	8.3	1013	5.2	290	2	70
2026-02-26T22:45	8.4	1013	5.2	300	2	70
2026-02-26T22:46	8.3	1013	5.1	300	2	70
2026-02-26T22:47	8.3	1013	5.1	300	2	70
2026-02-26T22:48	8.4	1013	5.2	300	2	70
2026-02-26T22:49	8.5	1013	5.3	300	2	70
2026-02-26T22:50	8.6	1013	5.4	310	2	70
2026-02-26T22:51	8.8	1013	5.7	310	2	70
2026-02-26T22:52	8.8	1013	5.4	310	2	70
2026-02-26T22:53	8.9	1013	5.5	310	2	70
2026-02-26T22:54	8.9	1013	5.3	310	2	70
2026-02-26T22:55	9.0	1013	5.4	310	2	70
2026-02-26T22:56	9.2	1013	5.6	310	2	70
2026-02-26T22:57	9.4	1013	5.8	300	2	70
2026-02-26T22:58	9.3	1013	5.5	300	2	70
2026-02-26T22:59	9.0	1013	5.0	300	2	70
2026-02-26T23:00	9.0	1013	5.0	300	2	70
2026-02-26T23:01	8.8	1013	5.0	300	2	70
2026-02-26T23:02	8.8	1013	5.0	300	2	70
2026-02-26T23:03	8.8	1013	5.0	300	2	70
2026-02-26T23:04	8.8	1013	5.0	300	2	70
2026-02-26T23:05	8.8	1013	5.2	300	2	70
2026-02-26T23:06	8.9	1013	5.3	300	2	70
2026-02-26T23:07	8.8	1013	5.2	300	2	70
2026-02-26T23:08	8.8	1013	5.2	300	2	70
2026-02-26T23:09	8.9	1013	5.3	290	2	70
2026-02-26T23:10	9.0	1013	5.4	290	2	70
2026-02-26T23:11	8.9	1013	5.3	290	1	70
2026-02-26T23:12	8.9	1013	5.1	290	1	70
2026-02-26T23:13	8.9	1013	5.1	290	1	70
2026-02-26T23:14	8.9	1013	5.3	290	1	70
2026-02-26T23:15	9.1	1013	5.5	290	1	70
2026-02-26T23:16	9.1	1013	5.3	300	1	70
2026-02-26T23:17	9.3	1013	5.5	300	1	70
2026-02-26T23:18	9.4	1013	5.6	300	2	70
2026-02-26T23:19	9.7	1013	6.1	300	2	70
2026-02-26T23:20	9.7	1013	5.7	300	2	70
2026-02-26T23:21	9.8	1013	5.8	290	2	70
2026-02-26T23:22	9.5	1013	5.3	290	2	70
2026-02-26T23:23	9.3	1013	4.9	290	2	70
2026-02-26T23:24	9.5	1013	5.3	290	2	70
2026-02-26T23:25	9.8	1013	5.8	290	2	70
2026-02-26T23:26	9.9	1013	5.7	290	2	70
2026-02-26T23:27	9.8	1013	5.4	290	2	70
2026-02-26T23:28	10.1	1013	5.9	300	2	70
2026-02-26T23:29	10.0	1013	5.6	290	2	70
2026-02-26T23:30	10.1	1013	5.7	290	2	70
2026-02-26T23:31	10.2	1013	5.8	290	2	70
2026-02-26T23:32	9.9	1013	5.3	290	3	70
2026-02-26T23:33	10.1	1013	5.7	280	3	70
2026-02-26T23:34	10.0	1013	5.6	280	2	70
2026-02-26T23:35	10.0	1013	5.6	280	2	70
2026-02-26T23:36	10.2	1013	5.8	280	2	70
2026-02-26T23:37	10.4	1013	6.0	280	2	70
2026-02-26T23:38	10.2	1013	5.6	280	2	70
2026-02-26T23:39	10.0	1013	5.4	290	2	70
2026-02-26T23:40	9.9	1013	5.3	300	2	70
2026-02-26T23:41	9.9	1013	5.3	300	2	70
2026-02-26T23:42	10.0	1013	5.6	310	2	70
2026-02-26T23:43	10.3	1013	6.1	310	2	70
2026-02-26T23:44	10.4	1013	6.0	300	2	70
2026-02-26T23:45	10.4	1013	5.8	300	2	70
2026-02-26T23:46	10.0	1013	5.2	310	2	70
2026-02-26T23:47	10.1	1013	5.5	310	2	70
2026-02-26T23:48	10.1	1013	5.5	310	2	70
2026-02-26T23:49	10.0	1013	5.4	310	2	70
2026-02-26T23:50	10.1	1013	5.7	310	2	70
2026-02-26T23:51	10.1	1013	5.7	300	2	70
2026-02-26T23:52	9.9	1013	5.3	300	2	70
2026-02-26T23:53	10.0	1013	5.6	310	2	70
2026-02-26T23:54	9.9	1013	5.5	310	2	70
2026-02-26T23:55	10.1	1013	5.7	320	2	70
2026-02-26T23:56	10.0	1013	5.6	310	2	70
2026-02-26T23:57	9.9	1013	5.5	310	2	70
2026-02-26T23:58	9.9	1013	5.5	310	2	70
2026-02-26T23:59	10.3	1013	6.1	300	2	70
2026-02-27T00:00	10.5	1013	6.1	300	2	70
2026-02-27T00:01	10.3	1013	5.7	310	2	70
2026-02-27T00:02	10.0	1013	5.4	310	2	70
2026-02-27T00:03	9.9	1013	5.3	310	2	70
2026-02-27T00:04	9.8	1013	5.2	300	2	70
2026-02-27T00:05	9.7	1013	5.3	300	2	70
2026-02-27T00:06	9.7	1013	5.3	300	2	70
2026-02-27T00:07	10.1	1013	5.9	310	2	70
2026-02-27T00:08	10.2	1013	5.8	310	2	70
2026-02-27T00:09	10.2	1013	5.8	310	2	70
2026-02-27T00:10	10.1	1013	5.7	310	2	70
2026-02-27T00:11	10.2	1013	5.8	310	2	70
2026-02-27T00:12	10.2	1013	5.6	310	2	70
2026-02-27T00:13	10.5	1013	6.1	300	2	70
2026-02-27T00:14	10.3	1013	5.7	300	2	70
2026-02-27T00:15	10.1	1013	5.5	300	2	70
2026-02-27T00:16	10.1	1013	5.5	300	2	70
2026-02-27T00:17	10.0	1013	5.4	300	2	70
2026-02-27T00:18	10.2	1013	5.8	300	1	70
2026-02-27T00:19	10.3	1013	5.9	300	1	70
2026-02-27T00:20	10.0	1013	5.4	290	1	70
2026-02-27T00:21	10.1	1013	5.5	290	1	70
2026-02-27T00:22	10.2	1013	5.6	300	1	70
2026-02-27T00:23	10.3	1013	5.7	300	1	70
2026-02-27T00:24	10.5	1013	5.9	300	1	70
2026-02-27T00:25	10.7	1013	6.3	310	1	70
2026-02-27T00:26	10.6	1013	5.8	310	1	70
2026-02-27T00:27	10.4	1013	5.6	310	1	70
2026-02-27T00:28	10.4	1013	5.6	310	1	70
2026-02-27T00:29	10.3	1013	5.5	320	1	70
2026-02-27T00:30	10.2	1013	5.4	320	1	70
2026-02-27T00:31	10.4	1013	5.8	330	1	70
2026-02-27T00:32	10.7	1013	6.1	340	1	70
2026-02-27T00:33	11.0	1013	6.4	340	1	70
2026-02-27T00:34	10.6	1013	5.6	330	1	70
2026-02-27T00:35	10.4	1013	5.4	320	1	70
2026-02-27T00:36	10.6	1013	5.8	320	1	70
2026-02-27T00:37	10.9	1013	6.3	320	1	70
2026-02-27T00:38	10.7	1013	5.9	330	1	70
2026-02-27T00:39	10.7	1013	5.7	320	1	70
2026-02-27T00:40	11.2	1013	6.6	310	1	70
2026-02-27T00:41	11.2	1013	6.2	300	1	70
2026-02-27T00:42	11.4	1013	6.3	280	1	70
2026-02-27T00:43	11.4	1013	6.3	270	1	70
2026-02-27T00:44	11.6	1013	6.5	260	1	70
2026-02-27T00:45	11.5	1013	6.2	250	1	70
2026-02-27T00:46	11.4	1013	5.9	230	1	70
2026-02-27T00:47	11.1	1013	5.9	220	1	70
2026-02-27T00:48	11.3	1013	6.0	210	1	70
2026-02-27T00:49	11.0	1013	5.8	210	1	70
2026-02-27T00:50	10.9	1013	5.7	210	1	70
2026-02-27T00:51	11.2	1013	6.2	210	1	70
2026-02-27T00:52	11.4	1013	6.3	210	1	70
2026-02-27T00:53	11.6	1013	6.5	210	1	70
2026-02-27T00:54	11.5	1013	6.2	220	1	70
2026-02-27T00:55	11.3	1013	6.0	220	1	70
2026-02-27T00:56	11.3	1013	6.0	220	2	70
2026-02-27T00:57	11.4	1013	6.1	220	2	70
2026-02-27T00:58	11.2	1013	6.0	230	1	70
2026-02-27T00:59	11.1	1013	5.9	230	1	70
2026-02-27T01:00	11.2	1013	6.0	240	1	70
2026-02-27T01:01	11.1	1013	5.9	240	1	70
2026-02-27T01:02	11.3	1013	6.3	250	1	70
2026-02-27T01:03	11.1	1013	5.9	250	1	70
2026-02-27T01:04	11.2	1013	6.2	240	1	70
2026-02-27T01:05	10.9	1013	5.7	240	1	70
2026-02-27T01:06	11.0	1013	6.0	250	1	70
2026-02-27T01:07	11.0	1013	6.0	250	1	70
2026-02-27T01:08	11.0	1013	6.0	250	1	70
2026-02-27T01:09	11.0	1013	6.0	260	1	70
2026-02-27T01:10	10.9	1013	5.9	260	1	70
2026-02-27T01:11	10.9	1013	5.9	270	1	70
2026-02-27T01:12	11.0	1013	6.2	280	1	70
2026-02-27T01:13	11.3	1013	6.5	290	1	70
2026-02-27T01:14	11.2	1013	6.2	290	1	70
2026-02-27T01:15	11.4	1013	6.3	290	1	70
2026-02-27T01:16	11.5	1013	6.4	290	1	70
2026-02-27T01:17	11.9	1013	6.8	290	1	70
2026-02-27T01:18	11.6	1013	6.1	270	1	70
2026-02-27T01:19	11.3	1013	5.8	260	1	70
2026-02-27T01:20	11.4	1013	6.1	250	1	70
2026-02-27T01:21	11.6	1013	6.3	240	1	70
2026-02-27T01:22	11.9	1012	6.6	240	1	70
2026-02-27T01:23	12.0	1012	6.7	240	1	70
2026-02-27T01:24	12.0	1012	6.5	350	1	70
2026-02-27T01:25	12.0	1012	6.3	360	1	70
2026-02-27T01:26	11.9	1012	6.2	280	1	70
2026-02-27T01:27	11.9	1012	6.4	300	1	70
2026-02-27T01:28	12.0	1012	6.5	310	1	70
2026-02-27T01:29	11.9	1012	6.2	310	1	70
2026-02-27T01:30	12.2	1012	6.7	310	1	70
2026-02-27T01:31	12.3	1012	6.8	290	1	70
2026-02-27T01:32	12.5	1012	7.0	270	1	70
2026-02-27T01:33	12.4	1012	6.7	270	1	70
2026-02-27T01:34	12.3	1012	6.6	270	1	70
2026-02-27T01:35	12.4	1012	6.7	280	1	70
2026-02-27T01:36	12.0	1012	6.1	280	1	70
2026-02-27T01:37	12.1	1012	6.4	280	1	70
2026-02-27T01:38	12.2	1012	6.5	310	1	70
2026-02-27T01:39	12.4	1012	6.9	360	1	70
2026-02-27T01:40	12.2	1012	6.5	40	1	70
2026-02-27T01:41	12.4	1012	6.9	40	1	70
2026-02-27T01:42	12.3	1012	6.6	30	1	70
2026-02-27T01:43	12.2	1012	6.5	30	1	70
2026-02-27T01:44	12.3	1012	6.8	30	1	70
2026-02-27T01:45	12.8	1012	7.3	270	1	70
2026-02-27T01:46	12.8	1012	6.8	290	1	70
2026-02-27T01:47	13.0	1012	7.2	250	1	70
2026-02-27T01:48	12.7	1012	6.7	240	1	70
2026-02-27T01:49	12.6	1012	6.7	250	2	70
2026-02-27T01:50	12.5	1012	6.6	240	2	70
2026-02-27T01:51	12.9	1012	7.2	230	2	70
2026-02-27T01:52	13.1	1012	7.3	220	2	70
2026-02-27T01:53	13.0	1012	7.0	210	2	70
2026-02-27T01:54	12.6	1012	6.4	200	2	70
2026-02-27T01:55	12.5	1012	6.6	210	2	70
2026-02-27T01:56	12.6	1012	6.7	210	2	70
2026-02-27T01:57	12.6	1012	6.7	220	1	70
2026-02-27T01:58	12.6	1012	6.7	220	1	70
2026-02-27T01:59	12.7	1012	6.7	220	1	70
2026-02-27T02:00	12.8	1012	6.8	220	1	70
2026-02-27T02:01	12.7	1012	6.7	240	1	70
2026-02-27T02:02	13.0	1012	7.0	240	1	70
2026-02-27T02:03	12.8	1012	6.6	250	1	70
2026-02-27T02:04	13.2	1012	7.2	240	1	70
2026-02-27T02:05	13.1	1012	6.9	220	1	70
2026-02-27T02:06	13.2	1012	7.2	220	1	70
2026-02-27T02:07	12.8	1012	6.6	210	1	70
2026-02-27T02:08	12.6	1012	6.7	210	1	70
2026-02-27T02:09	12.8	1012	6.8	210	1	70
2026-02-27T02:10	13.1	1012	7.3	200	1	70
2026-02-27T02:11	13.3	1012	7.3	190	1	70
2026-02-27T02:12	13.5	1012	7.5	170	1	70
2026-02-27T02:13	13.2	1012	7.0	150	1	70
2026-02-27T02:14	12.9	1012	6.7	160	1	70
2026-02-27T02:15	13.0	1012	7.0	160	1	70
2026-02-27T02:16	13.3	1011	7.3	150	1	70
2026-02-27T02:17	13.4	1011	7.4	130	1	70
2026-02-27T02:18	13.0	1011	6.8	100	1	70
2026-02-27T02:19	12.8	1011	6.6	100	1	70
2026-02-27T02:20	13.1	1011	7.1	90	1	70
2026-02-27T02:21	13.2	1011	7.2	90	1	70
2026-02-27T02:22	13.3	1011	7.3	110	1	70
2026-02-27T02:23	13.4	1011	7.2	120	1	70
2026-02-27T02:24	13.5	1011	7.3	120	1	70
2026-02-27T02:25	13.2	1011	6.8	120	1	70
2026-02-27T02:26	13.2	1011	7.0	130	1	70
2026-02-27T02:27	13.2	1011	7.0	130	1	70
2026-02-27T02:28	13.2	1011	7.2	130	1	70
2026-02-27T02:29	13.1	1011	7.1	320	1	70
2026-02-27T02:30	13.3	1011	7.3	330	1	70
2026-02-27T02:31	13.4	1011	7.4	350	1	70
2026-02-27T02:32	13.7	1011	7.7	70	1	70
2026-02-27T02:33	13.3	1011	7.1	50	1	70
2026-02-27T02:34	13.2	1011	7.0	40	1	70
2026-02-27T02:35	13.1	1011	7.1	30	1	70
2026-02-27T02:36	13.1	1011	7.1	30	1	70
2026-02-27T02:37	13.1	1011	7.1	40	1	70
2026-02-27T02:38	13.0	1011	7.0	50	1	70
2026-02-27T02:39	13.0	1011	7.0	50	1	70
2026-02-27T02:40	13.3	1011	7.5	50	1	70
2026-02-27T02:41	13.3	1011	7.3	40	1	70
2026-02-27T02:42	13.6	1011	7.8	30	1	70
2026-02-27T02:43	13.6	1011	7.6	40	1	70
2026-02-27T02:44	13.5	1011	7.5	40	1	70
2026-02-27T02:45	13.5	1011	7.5	50	1	70
2026-02-27T02:46	13.5	1011	7.5	50	1	70
2026-02-27T02:47	13.3	1011	7.3	60	1	70
2026-02-27T02:48	13.3	1011	7.5	70	1	70
2026-02-27T02:49	13.4	1011	7.6	90	1	70
2026-02-27T02:50	13.4	1011	7.6	120	1	70
2026-02-27T02:51	13.7	1011	7.9	140	1	70
2026-02-27T02:52	13.9	1011	7.9	150	1	70
2026-02-27T02:53	14.5	1011	8.5	170	1	70
2026-02-27T02:54	14.5	1011	8.2	170	1	70
2026-02-27T02:55	14.5	1011	8.0	170	1	70
2026-02-27T02:56	14.4	1010	7.7	170	1	70
2026-02-27T02:57	14.3	1010	7.6	170	1	70
2026-02-27T02:58	14.2	1010	7.5	160	1	70
2026-02-27T02:59	14.3	1010	7.8	50	1	70
2026-02-27T03:00	14.2	1010	7.5	120	1	70
2026-02-27T03:01	14.7	1010	8.2	60	1	70
2026-02-27T03:02	15.0	1010	8.3	50	1	70
2026-02-27T03:03	14.9	1010	7.9	40	1	70
2026-02-27T03:04	14.8	1010	7.8	30	1	70
2026-02-27T03:05	14.5	1010	7.3	20	1	70
2026-02-27T03:06	14.1	1010	7.2	20	2	70
2026-02-27T03:07	14.4	1010	7.7	20	1	70
2026-02-27T03:08	14.6	1010	7.9	20	1	70
2026-02-27T03:09	14.4	1010	7.5	30	1	70
2026-02-27T03:10	14.4	1010	7.7	30	2	70
2026-02-27T03:11	14.5	1010	7.8	40	2	70
2026-02-27T03:12	14.4	1010	7.7	50	2	70
2026-02-27T03:13	14.4	1010	7.7	50	2	70
2026-02-27T03:14	14.3	1010	7.6	60	2	70
2026-02-27T03:15	14.2	1010	7.5	60	2	70
2026-02-27T03:16	14.4	1010	7.9	70	2	70
2026-02-27T03:17	14.5	1010	8.0	70	2	70
2026-02-27T03:18	14.7	1010	8.2	70	2	70
2026-02-27T03:19	14.8	1010	8.1	70	2	70
2026-02-27T03:20	14.4	1010	7.5	80	2	70
2026-02-27T03:21	14.1	1010	7.4	80	2	70
2026-02-27T03:22	14.2	1010	7.7	80	2	70
2026-02-27T03:23	14.2	1010	7.7	90	2	70
2026-02-27T03:24	14.3	1010	7.8	90	2	70
2026-02-27T03:25	14.5	1010	8.0	80	2	70
2026-02-27T03:26	14.3	1010	7.8	80	2	70
2026-02-27T03:27	14.5	1010	8.0	70	2	70
2026-02-27T03:28	14.4	1010	7.7	70	2	70
2026-02-27T03:29	14.4	1010	7.7	350	2	70
2026-02-27T03:30	15.3	1010	9.0	70	1	70
2026-02-27T03:31	15.5	1010	8.7	50	1	70
2026-02-27T03:32	15.2	1010	8.0	30	1	70
2026-02-27T03:33	14.6	1010	7.4	20	1	70
2026-02-27T03:34	14.6	1010	7.9	20	1	70
2026-02-27T03:35	14.8	1010	8.1	30	1	70
2026-02-27T03:36	14.9	1010	8.2	50	1	70
2026-02-27T03:37	15.4	1010	8.6	70	1	70
2026-02-27T03:38	15.3	1009	8.3	80	1	70
2026-02-27T03:39	15.2	1009	8.0	80	2	70
2026-02-27T03:40	15.1	1009	8.1	90	1	70
2026-02-27T03:41	14.9	1009	7.7	90	2	70
2026-02-27T03:42	14.9	1009	7.9	100	2	70
2026-02-27T03:43	15.0	1009	8.0	100	2	70
2026-02-27T03:44	15.3	1009	8.3	100	2	70
2026-02-27T03:45	15.7	1009	8.7	100	2	70
2026-02-27T03:46	15.6	1009	8.4	100	2	70
2026-02-27T03:47	15.4	1009	8.2	100	2	70
2026-02-27T03:48	15.4	1009	8.2	90	2	70
2026-02-27T03:49	15.5	1009	8.3	90	2	70
2026-02-27T03:50	15.1	1009	7.9	90	2	70
2026-02-27T03:51	15.1	1009	7.9	80	2	70
2026-02-27T03:52	15.2	1009	8.2	70	2	70
2026-02-27T03:53	15.0	1009	7.8	50	2	70
2026-02-27T03:54	14.9	1009	7.7	30	2	70
2026-02-27T03:55	15.6	1009	8.6	30	1	70
2026-02-27T03:56	15.9	1009	8.6	10	1	70
2026-02-27T03:57	16.1	1009	8.6	350	1	70
2026-02-27T03:58	15.7	1009	8.0	350	1	70
2026-02-27T03:59	15.5	1009	8.0	350	1	70
2026-02-27T04:00	15.2	1009	7.7	350	1	70
2026-02-27T04:01	15.0	1009	7.8	360	1	70
2026-02-27T04:02	15.0	1009	7.8	10	1	70
2026-02-27T04:03	15.1	1009	8.1	20	1	70
2026-02-27T04:04	15.7	1009	8.7	40	1	70
2026-02-27T04:05	16.0	1009	9.0	40	1	70
2026-02-27T04:06	16.4	1009	9.1	50	2	70
2026-02-27T04:07	17.1	1009	9.8	70	2	70
2026-02-27T04:08	16.7	1009	8.7	60	2	70
2026-02-27T04:09	16.9	1009	9.1	60	2	70
2026-02-27T04:10	16.6	1009	8.6	70	2	70
2026-02-27T04:11	16.7	1009	8.7	70	2	70
2026-02-27T04:12	17.0	1009	8.9	70	2	70
2026-02-27T04:13	16.3	1009	8.0	70	2	70
2026-02-27T04:14	16.3	1009	8.5	60	2	70
2026-02-27T04:15	16.3	1009	8.3	60	2	70
2026-02-27T04:16	16.4	1009	8.6	50	2	70
2026-02-27T04:17	16.3	1009	8.3	50	2	70
2026-02-27T04:18	16.1	1009	8.3	50	2	70
2026-02-27T04:19	16.5	1008	9.0	60	2	70
2026-02-27T04:20	16.8	1009	9.0	60	2	70
2026-02-27T04:21	16.3	1009	8.3	50	2	70
2026-02-27T04:22	16.5	1009	8.7	50	2	70
2026-02-27T04:23	16.3	1009	8.3	50	2	70
2026-02-27T04:24	17.1	1009	9.3	50	2	70
2026-02-27T04:25	17.2	1009	9.1	50	2	70
2026-02-27T04:26	17.3	1009	9.0	40	2	70
2026-02-27T04:27	16.9	1009	8.6	40	2	70
2026-02-27T04:28	16.6	1009	8.3	40	2	70
2026-02-27T04:29	16.7	1009	8.7	40	2	70
2026-02-27T04:30	17.2	1009	9.1	50	3	70
2026-02-27T04:31	17.3	1009	9.0	50	3	70
2026-02-27T04:32	16.3	1009	7.8	60	3	70
2026-02-27T04:33	16.4	1009	8.4	60	3	70
2026-02-27T04:34	16.7	1009	8.9	50	3	70
2026-02-27T04:35	17.3	1008	9.5	50	2	70
2026-02-27T04:36	16.9	1008	8.6	50	2	70
2026-02-27T04:37	16.7	1008	8.7	50	2	70
2026-02-27T04:38	17.1	1008	9.0	50	2	70
2026-02-27T04:39	17.5	1008	9.4	50	2	70
2026-02-27T04:40	17.6	1008	9.3	50	2	70
2026-02-27T04:41	17.4	1008	9.1	60	2	70
2026-02-27T04:42	17.4	1008	9.1	60	2	70
2026-02-27T04:43	16.8	1008	8.2	60	2	70
2026-02-27T04:44	16.6	1008	8.3	80	2	70
2026-02-27T04:45	16.4	1008	8.4	80	2	70
2026-02-27T04:46	16.7	1008	8.9	80	2	70
2026-02-27T04:47	16.5	1008	8.5	80	2	70
2026-02-27T04:48	16.6	1008	8.8	80	2	70
2026-02-27T04:49	16.4	1008	8.6	80	2	70
2026-02-27T04:50	16.1	1008	8.3	60	2	70
2026-02-27T04:51	16.1	1008	8.6	60	2	70
2026-02-27T04:52	16.2	1008	8.7	70	2	70
2026-02-27T04:53	16.4	1008	8.9	70	2	70
2026-02-27T04:54	16.5	1008	9.0	60	2	70
2026-02-27T04:55	16.4	1008	8.6	60	1	70
2026-02-27T04:56	16.4	1008	8.9	60	1	70
2026-02-27T04:57	16.2	1008	8.4	60	1	70
2026-02-27T04:58	16.3	1008	8.8	60	1	70
2026-02-27T04:59	16.3	1008	8.8	60	1	70
2026-02-27T05:00	16.5	1008	9.0	80	2	70
2026-02-27T05:01	16.6	1008	9.1	80	1	70
2026-02-27T05:02	16.6	1008	9.1	70	1	70
2026-02-27T05:03	16.3	1008	8.5	70	1	70
2026-02-27T05:04	16.3	1008	8.8	80	1	70
2026-02-27T05:05	16.3	1008	8.8	80	2	70
2026-02-27T05:06	16.3	1008	8.8	80	1	70
2026-02-27T05:07	16.2	1008	8.7	70	2	70
2026-02-27T05:08	16.2	1008	8.7	70	1	70
2026-02-27T05:09	16.2	1008	8.7	80	1	70
2026-02-27T05:10	16.4	1008	9.1	70	2	70
2026-02-27T05:11	16.4	1008	8.9	70	2	70
2026-02-27T05:12	16.3	1008	8.8	70	2	70
2026-02-27T05:13	16.3	1008	8.8	70	2	70
2026-02-27T05:14	16.4	1008	8.9	70	2	70
2026-02-27T05:15	16.2	1008	8.7	70	2	70
2026-02-27T05:16	16.4	1008	9.1	80	1	70
2026-02-27T05:17	16.3	1008	8.8	90	1	70
2026-02-27T05:18	16.4	1008	9.1	80	1	70
2026-02-27T05:19	16.4	1008	8.9	80	2	70
2026-02-27T05:20	16.3	1008	8.8	80	1	70
2026-02-27T05:21	16.3	1008	8.8	80	1	70
2026-02-27T05:22	16.4	1008	9.1	70	1	70
2026-02-27T05:23	16.5	1008	9.2	70	1	70
2026-02-27T05:24	16.6	1008	9.3	80	1	70
2026-02-27T05:25	16.8	1008	9.5	80	1	70
2026-02-27T05:26	16.6	1008	9.1	80	1	70
2026-02-27T05:27	16.5	1008	9.0	80	1	70
2026-02-27T05:28	16.5	1008	9.0	90	1	70
2026-02-27T05:29	16.3	1008	8.8	100	1	70
2026-02-27T05:30	16.2	1008	8.9	110	1	70
2026-02-27T05:31	16.2	1008	8.9	120	1	70
2026-02-27T05:32	16.2	1008	9.2	130	1	70
2026-02-27T05:33	16.3	1008	9.3	120	1	70
2026-02-27T05:34	16.7	1008	9.6	130	1	70
2026-02-27T05:35	16.6	1008	9.3	120	2	70
2026-02-27T05:36	16.4	1008	9.1	120	2	70
2026-02-27T05:37	16.5	1008	9.2	110	2	70
2026-02-27T05:38	16.7	1008	9.4	100	2	70
2026-02-27T05:39	16.6	1008	9.3	80	2	70
2026-02-27T05:40	16.7	1007	9.4	80	2	70
2026-02-27T05:41	17.4	1007	10.1	80	2	70
2026-02-27T05:42	17.0	1007	9.2	70	2	70
2026-02-27T05:43	16.7	1007	9.2	70	2	70
2026-02-27T05:44	16.6	1007	9.1	60	2	70
2026-02-27T05:45	16.5	1007	9.0	70	2	70
2026-02-27T05:46	16.5	1007	9.2	80	2	70
2026-02-27T05:47	16.6	1007	9.3	90	2	70
2026-02-27T05:48	16.4	1008	9.1	90	2	70
2026-02-27T05:49	16.5	1008	9.5	100	1	70
2026-02-27T05:50	16.4	1008	9.1	100	1	70
2026-02-27T05:51	16.1	1008	8.8	100	1	70
2026-02-27T05:52	16.1	1007	9.1	100	1	70
2026-02-27T05:53	16.2	1007	9.4	110	1	70
2026-02-27T05:54	16.3	1007	9.5	100	1	70
2026-02-27T05:55	16.3	1007	9.5	100	2	70
2026-02-27T05:56	16.1	1007	9.3	100	2	70
2026-02-27T05:57	15.8	1007	9.0	100	2	70
2026-02-27T05:58	15.8	1007	9.3	110	2	70
2026-02-27T05:59	15.8	1008	9.3	110	2	70
2026-02-27T06:00	15.7	1008	9.4	100	2	70
2026-02-27T06:01	15.7	1008	9.4	100	2	70
2026-02-27T06:02	15.6	1008	9.3	100	2	70
2026-02-27T06:03	15.6	1008	9.3	100	2	70
2026-02-27T06:04	15.5	1008	9.2	100	2	70
2026-02-27T06:05	15.4	1008	9.1	100	2	70
2026-02-27T06:06	15.4	1008	9.1	100	2	70
2026-02-27T06:07	15.5	1008	9.4	100	2	70
2026-02-27T06:08	15.3	1008	9.0	90	2	70
2026-02-27T06:09	15.3	1008	9.2	90	2	70
2026-02-27T06:10	15.4	1008	9.3	90	2	70
2026-02-27T06:11	15.3	1008	9.2	90	2	70
2026-02-27T06:12	15.3	1008	9.2	100	2	70
2026-02-27T06:13	15.3	1007	9.2	90	2	70
2026-02-27T06:14	15.3	1007	9.2	90	2	70
2026-02-27T06:15	15.3	1007	9.4	90	2	70
2026-02-27T06:16	15.2	1007	9.3	100	2	70
2026-02-27T06:17	15.2	1007	9.3	100	2	70
2026-02-27T06:18	15.2	1007	9.3	100	2	70
2026-02-27T06:19	15.2	1007	9.3	110	2	70
2026-02-27T06:20	15.1	1008	9.5	110	2	70
2026-02-27T06:21	15.0	1008	9.4	110	2	70
2026-02-27T06:22	15.0	1008	9.6	120	2	70
2026-02-27T06:23	15.1	1008	9.7	120	2	70
2026-02-27T06:24	15.1	1008	9.7	130	2	70
2026-02-27T06:25	15.1	1008	9.7	130	2	70
2026-02-27T06:26	15.0	1008	9.4	130	2	70
2026-02-27T06:27	15.1	1008	9.7	130	2	70
2026-02-27T06:28	15.0	1008	9.6	130	2	70
2026-02-27T06:29	15.0	1007	9.6	130	2	70
2026-02-27T06:30	14.9	1007	9.5	130	2	70
2026-02-27T06:31	14.8	1007	9.4	130	2	70
2026-02-27T06:32	14.8	1007	9.6	120	2	70
2026-02-27T06:33	14.9	1007	9.7	120	2	70
2026-02-27T06:34	14.8	1007	9.6	110	2	70
2026-02-27T06:35	14.7	1007	9.5	100	2	70
2026-02-27T06:36	14.7	1007	9.7	100	2	70
2026-02-27T06:37	14.6	1007	9.6	100	2	70
2026-02-27T06:38	14.6	1007	9.6	100	2	70
2026-02-27T06:39	14.7	1007	9.9	100	2	70
2026-02-27T06:40	14.8	1007	10.0	100	2	70
2026-02-27T06:41	14.8	1007	9.8	100	2	70
2026-02-27T06:42	14.7	1007	9.7	100	2	70
2026-02-27T06:43	14.7	1007	9.9	100	2	70
2026-02-27T06:44	14.7	1007	9.7	100	2	70
2026-02-27T06:45	14.5	1007	9.5	110	2	70
2026-02-27T06:46	14.5	1007	9.7	110	2	70
2026-02-27T06:47	14.4	1007	9.6	110	2	70
2026-02-27T06:48	14.4	1007	9.6	110	2	70
2026-02-27T06:49	14.4	1007	9.8	110	2	70
2026-02-27T06:50	14.3	1007	9.7	110	2	70
2026-02-27T06:51	14.4	1007	9.8	110	2	70
2026-02-27T06:52	14.3	1007	9.7	110	1	70
2026-02-27T06:53	14.4	1007	9.8	120	1	70
2026-02-27T06:54	14.3	1007	9.7	120	1	70
2026-02-27T06:55	14.3	1007	9.7	120	1	70
2026-02-27T06:56	14.3	1007	9.7	120	1	70
2026-02-27T06:57	14.2	1007	9.7	120	1	70
2026-02-27T06:58	14.3	1007	10.0	120	1	70
2026-02-27T06:59	14.4	1008	10.0	120	1	70
2026-02-27T07:00	14.3	1007	10.0	130	2	70
2026-02-27T07:01	14.2	1007	9.9	130	2	70
2026-02-27T07:02	14.2	1007	9.9	130	2	70
2026-02-27T07:03	14.2	1007	9.9	130	2	70
2026-02-27T07:04	14.2	1007	9.9	130	2	70
2026-02-27T07:05	14.2	1007	9.9	120	2	70
2026-02-27T07:06	14.2	1007	9.9	120	2	70
2026-02-27T07:07	14.2	1007	9.9	120	2	70
2026-02-27T07:08	14.2	1007	10.1	120	2	70
2026-02-27T07:09	14.1	1007	10.0	120	2	70
2026-02-27T07:10	14.1	1007	10.0	110	2	70
2026-02-27T07:11	14.0	1007	9.9	110	2	70
2026-02-27T07:12	14.0	1007	9.9	110	2	70
2026-02-27T07:13	14.0	1007	9.9	110	2	70
2026-02-27T07:14	13.9	1007	9.8	110	2	70
2026-02-27T07:15	13.9	1007	9.8	110	2	70
2026-02-27T07:16	13.9	1007	9.8	110	2	70
2026-02-27T07:17	13.9	1007	10.0	110	2	70
2026-02-27T07:18	13.8	1007	9.9	110	1	70
2026-02-27T07:19	13.8	1007	9.9	110	1	70
2026-02-27T07:20	13.8	1007	9.9	110	1	70
2026-02-27T07:21	13.8	1007	9.9	110	1	70
2026-02-27T07:22	13.8	1007	9.9	100	1	70
2026-02-27T07:23	13.7	1007	9.8	110	2	70
2026-02-27T07:24	13.8	1007	9.9	110	2	70
2026-02-27T07:25	13.7	1008	9.8	120	2	70
2026-02-27T07:26	13.7	1008	9.8	120	2	70
2026-02-27T07:27	13.7	1008	9.8	130	2	70
2026-02-27T07:28	13.7	1008	9.8	130	2	70
2026-02-27T07:29	13.7	1008	10.0	130	2	70
2026-02-27T07:30	13.7	1008	10.0	130	2	70
2026-02-27T07:31	13.7	1008	10.0	130	2	70
2026-02-27T07:32	13.7	1008	10.0	130	2	70
2026-02-27T07:33	13.7	1008	10.0	130	1	70
2026-02-27T07:34	13.7	1008	10.0	130	1	70
2026-02-27T07:35	13.7	1008	10.0	130	1	70
2026-02-27T07:36	13.7	1008	10.0	130	1	70
2026-02-27T07:37	13.7	1008	10.0	130	1	70
2026-02-27T07:38	13.7	1008	10.0	130	1	70
2026-02-27T07:39	13.6	1008	9.9	130	1	70
2026-02-27T07:40	13.6	1008	9.9	130	1	70
2026-02-27T07:41	13.6	1008	9.9	130	1	70
2026-02-27T07:42	13.6	1008	9.9	130	2	70
2026-02-27T07:43	13.6	1008	9.9	130	2	70
2026-02-27T07:44	13.6	1008	9.9	130	2	70
2026-02-27T07:45	13.6	1007	9.9	130	2	70
2026-02-27T07:46	13.6	1007	9.9	130	2	70
2026-02-27T07:47	13.6	1007	10.0	130	2	70
2026-02-27T07:48	13.6	1007	10.0	130	2	70
2026-02-27T07:49	13.6	1007	9.9	130	1	70
2026-02-27T07:50	13.6	1007	9.9	130	1	70
2026-02-27T07:51	13.5	1007	10.0	130	1	70
2026-02-27T07:52	13.5	1007	10.0	130	1	70
2026-02-27T07:53	13.5	1007	10.0	130	1	70
2026-02-27T07:54	13.5	1007	10.0	120	1	70
2026-02-27T07:55	13.5	1007	10.0	130	1	70
2026-02-27T07:56	13.5	1007	10.0	130	1	70
2026-02-27T07:57	13.5	1007	10.0	130	1	70
2026-02-27T07:58	13.5	1007	10.0	130	1	70
2026-02-27T07:59	13.5	1007	10.0	130	1	70
2026-02-27T08:00	13.5	1007	10.0	130	1	70
2026-02-27T08:01	13.4	1007	9.9	130	1	70
2026-02-27T08:02	13.4	1007	9.9	120	1	70
2026-02-27T08:03	13.4	1007	9.9	120	1	70
2026-02-27T08:04	13.4	1007	10.0	120	1	70
2026-02-27T08:05	13.3	1007	9.9	120	1	70
2026-02-27T08:06	13.3	1007	9.9	110	1	70
2026-02-27T08:07	13.3	1007	9.9	110	1	70
2026-02-27T08:08	13.2	1007	9.8	110	1	70
2026-02-27T08:09	13.2	1007	9.8	110	1	70
2026-02-27T08:10	13.2	1007	9.8	110	1	70
2026-02-27T08:11	13.1	1007	9.7	110	1	70
2026-02-27T08:12	13.1	1007	9.9	110	1	70
2026-02-27T08:13	13.1	1007	9.9	110	1	70
2026-02-27T08:14	13.1	1007	9.9	110	2	70
2026-02-27T08:15	13.1	1007	9.9	110	2	70
2026-02-27T08:16	13.1	1007	9.9	120	1	70
2026-02-27T08:17	13.1	1007	9.9	120	1	70
2026-02-27T08:18	13.1	1007	9.9	120	1	70
2026-02-27T08:19	13.0	1007	9.8	120	1	70
2026-02-27T08:20	13.0	1007	9.8	120	1	70
2026-02-27T08:21	13.0	1007	9.8	110	1	70
2026-02-27T08:22	13.0	1007	9.8	110	1	70
2026-02-27T08:23	13.0	1007	9.8	110	1	70
2026-02-27T08:24	13.0	1007	9.8	110	1	70
2026-02-27T08:25	13.0	1007	9.8	120	1	70
2026-02-27T08:26	13.0	1007	9.8	110	1	70
2026-02-27T08:27	13.0	1007	9.8	110	2	70
2026-02-27T08:28	12.9	1007	9.9	120	2	70
2026-02-27T08:29	12.9	1007	9.9	120	2	70
2026-02-27T08:30	12.9	1007	9.9	130	2	70
2026-02-27T08:31	13.0	1008	10.0	130	2	70
2026-02-27T08:32	13.0	1008	10.0	130	2	70
2026-02-27T08:33	12.9	1008	9.9	140	2	70
2026-02-27T08:34	12.9	1008	9.9	140	2	70
2026-02-27T08:35	12.9	1008	9.9	140	2	70
2026-02-27T08:36	12.9	1008	9.9	140	2	70
2026-02-27T08:37	12.9	1008	9.9	140	2	70
2026-02-27T08:38	12.9	1008	9.9	140	2	70
2026-02-27T08:39	12.9	1008	9.9	140	2	70
2026-02-27T08:40	12.9	1008	9.9	140	2	70
2026-02-27T08:41	12.9	1008	9.9	140	1	70
2026-02-27T08:42	12.9	1008	9.9	140	1	70
2026-02-27T08:43	12.9	1008	9.9	140	1	70
2026-02-27T08:44	12.8	1008	9.8	140	1	70
2026-02-27T08:45	12.8	1008	10.0	140	1	70
2026-02-27T08:46	12.7	1008	9.9	140	1	70
2026-02-27T08:47	12.7	1008	9.9	140	1	70
2026-02-27T08:48	12.7	1008	9.9	140	1	70
2026-02-27T08:49	12.7	1008	9.9	140	1	70
2026-02-27T08:50	12.7	1008	9.9	140	2	70
2026-02-27T08:51	12.7	1008	9.9	130	2	70
2026-02-27T08:52	12.6	1008	9.8	130	2	70
2026-02-27T08:53	12.6	1008	9.8	130	2	70
2026-02-27T08:54	12.6	1008	10.0	130	2	70
2026-02-27T08:55	12.6	1008	10.0	140	1	70
2026-02-27T08:56	12.6	1008	10.0	140	1	70
2026-02-27T08:57	12.6	1008	10.0	140	1	70
2026-02-27T08:58	12.6	1008	10.0	140	1	70
2026-02-27T08:59	12.6	1008	10.0	140	1	70
2026-02-27T09:00	12.6	1008	10.0	140	1	70
2026-02-27T09:01	12.5	1008	9.9	140	1	70
2026-02-27T09:02	12.5	1008	9.9	150	1	70
2026-02-27T09:03	12.5	1008	9.9	150	1	70
2026-02-27T09:04	12.5	1008	9.9	150	1	70
2026-02-27T09:05	12.5	1008	9.9	140	1	70
2026-02-27T09:06	12.4	1008	10.0	150	2	70
2026-02-27T09:07	12.4	1008	10.0	150	2	70
2026-02-27T09:08	12.4	1008	10.0	150	2	70
2026-02-27T09:09	12.4	1008	10.0	150	2	70
2026-02-27T09:10	12.3	1008	9.9	150	2	70
2026-02-27T09:11	12.4	1008	10.0	150	1	70
2026-02-27T09:12	12.3	1008	9.9	140	1	70
2026-02-27T09:13	12.3	1008	9.9	140	1	70
2026-02-27T09:14	12.3	1008	9.9	140	1	70
2026-02-27T09:15	12.3	1008	9.9	140	1	70
2026-02-27T09:16	12.3	1008	9.9	140	1	70
2026-02-27T09:17	12.3	1008	9.9	140	1	70
2026-02-27T09:18	12.2	1008	9.8	140	1	70
2026-02-27T09:19	12.2	1008	9.8	140	1	70
2026-02-27T09:20	12.2	1008	9.9	140	1	70
2026-02-27T09:21	12.2	1008	9.9	140	1	70
2026-02-27T09:22	12.2	1008	9.9	140	1	70
2026-02-27T09:23	12.1	1008	9.8	150	1	69
2026-02-27T09:24	12.2	1008	9.9	150	1	69
2026-02-27T09:25	12.2	1008	9.9	150	1	69
2026-02-27T09:26	12.1	1008	9.8	160	1	69
2026-02-27T09:27	12.2	1008	9.9	160	1	69
2026-02-27T09:28	12.1	1008	9.8	160	1	69
2026-02-27T09:29	12.1	1008	9.8	170	1	69
2026-02-27T09:30	12.2	1008	9.9	170	1	69
2026-02-27T09:31	12.1	1008	9.8	170	1	70
2026-02-27T09:32	12.0	1008	9.7	170	1	70
2026-02-27T09:33	11.9	1008	9.6	160	1	70
2026-02-27T09:34	11.9	1008	9.6	150	1	70
2026-02-27T09:35	11.9	1008	9.8	150	1	70
2026-02-27T09:36	12.0	1008	9.9	140	1	70
2026-02-27T09:37	12.0	1008	9.9	140	1	70
2026-02-27T09:38	11.9	1008	9.8	140	1	70
2026-02-27T09:39	12.0	1008	9.9	140	1	70
2026-02-27T09:40	12.0	1008	9.9	130	1	70
2026-02-27T09:41	12.0	1008	9.9	130	1	70
2026-02-27T09:42	12.0	1008	9.9	130	1	70
2026-02-27T09:43	12.0	1008	9.9	130	1	70
2026-02-27T09:44	12.0	1008	9.9	130	1	70
2026-02-27T09:45	11.8	1008	9.7	130	1	70
2026-02-27T09:46	11.8	1008	9.7	120	1	70
2026-02-27T09:47	11.8	1008	9.7	120	1	70
2026-02-27T09:48	11.9	1008	9.8	120	1	70
2026-02-27T09:49	11.8	1008	9.7	120	1	70
2026-02-27T09:50	11.8	1008	9.7	120	1	70
2026-02-27T09:51	11.8	1008	9.7	130	1	70
2026-02-27T09:52	11.8	1008	9.9	130	1	70
2026-02-27T09:53	11.8	1008	9.9	140	1	70
2026-02-27T09:54	11.8	1008	9.9	150	1	70
2026-02-27T09:55	11.9	1008	10.0	150	1	70
2026-02-27T09:56	11.9	1008	10.0	150	1	70
2026-02-27T09:57	11.9	1008	10.0	150	1	70
2026-02-27T09:58	11.9	1008	10.0	160	1	70
2026-02-27T09:59	11.9	1008	10.0	160	1	70
2026-02-27T10:00	11.9	1008	9.8	160	1	70
2026-02-27T10:01	11.9	1008	9.8	150	1	70
2026-02-27T10:02	11.9	1008	9.8	140	1	70
2026-02-27T10:03	11.9	1008	9.8	130	1	70
2026-02-27T10:04	11.9	1007	9.8	120	1	70
2026-02-27T10:05	11.8	1007	9.9	120	1	70
2026-02-27T10:06	11.8	1008	9.9	120	1	70
2026-02-27T10:07	11.9	1008	10.0	110	1	70
2026-02-27T10:08	11.9	1008	10.0	110	1	70
2026-02-27T10:09	11.9	1008	9.8	110	1	70
2026-02-27T10:10	11.9	1008	9.8	120	1	70
2026-02-27T10:11	11.9	1008	9.8	120	1	70
2026-02-27T10:12	12.0	1008	9.9	130	1	70
2026-02-27T10:13	11.9	1008	9.8	150	1	70
2026-02-27T10:14	11.9	1008	9.8	150	1	70
2026-02-27T10:15	12.0	1008	9.9	150	1	70
2026-02-27T10:16	12.0	1008	9.9	150	1	70
2026-02-27T10:17	11.9	1008	9.8	150	1	70
2026-02-27T10:18	11.9	1008	9.8	150	1	70
2026-02-27T10:19	11.9	1008	9.8	140	1	70
2026-02-27T10:20	11.9	1008	9.8	130	1	70
2026-02-27T10:21	11.9	1008	9.8	120	1	62
2026-02-27T10:22	12.0	1008	9.9	120	1	62
2026-02-27T10:23	12.0	1008	9.9	120	1	62
2026-02-27T10:24	11.9	1008	9.8	120	0	62
2026-02-27T10:25	11.9	1008	9.8	120	0	62
2026-02-27T10:26	11.9	1008	9.8	120	1	62
2026-02-27T10:27	11.9	1008	9.8	110	1	62
2026-02-27T10:28	12.0	1008	9.9	110	0	62
2026-02-27T10:29	12.0	1008	9.9	110	0	62
2026-02-27T10:30	12.1	1008	10.0	120	0	62
2026-02-27T10:31	12.1	1008	10.0	120	1	70
2026-02-27T10:32	12.0	1008	9.9	120	1	70
2026-02-27T10:33	12.0	1008	9.9	120	1	70
2026-02-27T10:34	12.0	1008	9.9	120	1	70
2026-02-27T10:35	12.0	1008	9.9	120	1	70
2026-02-27T10:36	12.0	1008	9.9	120	1	70
2026-02-27T10:37	12.0	1008	9.9	130	1	70
2026-02-27T10:38	12.0	1008	9.9	130	1	70
2026-02-27T10:39	12.0	1008	9.9	140	1	70
2026-02-27T10:40	12.0	1008	9.9	150	1	70
2026-02-27T10:41	12.0	1008	9.9	150	1	70
2026-02-27T10:42	12.0	1008	9.9	150	1	70
2026-02-27T10:43	12.0	1008	9.9	150	1	70
2026-02-27T10:44	12.0	1008	9.9	150	1	70
2026-02-27T10:45	12.0	1008	9.9	150	1	70
2026-02-27T10:46	12.0	1008	9.9	150	1	70
2026-02-27T10:47	11.9	1008	9.8	150	1	70
2026-02-27T10:48	11.9	1008	9.8	140	1	70
2026-02-27T10:49	11.9	1008	9.8	140	1	70
2026-02-27T10:50	11.9	1008	9.8	130	1	70
2026-02-27T10:51	12.0	1008	9.9	130	1	70
2026-02-27T10:52	12.0	1008	9.9	130	1	70
2026-02-27T10:53	12.0	1008	9.9	140	1	70
2026-02-27T10:54	12.0	1008	9.9	140	1	70
2026-02-27T10:55	12.0	1008	9.9	140	1	70
2026-02-27T10:56	12.0	1008	9.9	140	1	70
2026-02-27T10:57	11.9	1008	9.8	150	1	70
2026-02-27T10:58	11.9	1008	9.8	150	1	70
2026-02-27T10:59	11.9	1008	9.8	150	1	70
2026-02-27T11:00	11.9	1008	9.8	150	1	70
2026-02-27T11:01	11.9	1008	9.8	150	1	70
2026-02-27T11:02	11.9	1008	10.0	140	1	70
2026-02-27T11:03	11.9	1008	10.0	140	1	70
2026-02-27T11:04	11.9	1008	10.0	140	1	70
2026-02-27T11:05	11.9	1008	10.0	140	1	70
2026-02-27T11:06	11.8	1008	9.9	130	1	70
2026-02-27T11:07	11.9	1008	10.0	120	1	70
2026-02-27T11:08	11.8	1008	9.9	110	1	70
2026-02-27T11:09	11.8	1008	9.9	100	1	70
2026-02-27T11:10	11.8	1008	9.9	90	1	70
2026-02-27T11:11	11.6	1008	9.7	80	1	70
2026-02-27T11:12	11.6	1008	9.7	90	1	70
2026-02-27T11:13	11.6	1008	9.9	80	1	70
2026-02-27T11:14	11.6	1008	9.9	80	1	70
2026-02-27T11:15	11.6	1008	9.9	90	1	70
2026-02-27T11:16	11.6	1008	9.9	100	1	70
2026-02-27T11:17	11.7	1008	10.0	100	1	70
2026-02-27T11:18	11.8	1008	10.1	110	1	70
2026-02-27T11:19	11.8	1008	10.1	110	1	70
2026-02-27T11:20	11.8	1008	9.9	110	1	70
2026-02-27T11:21	11.8	1008	9.9	120	1	70
2026-02-27T11:22	11.9	1008	10.0	120	1	70
2026-02-27T11:23	11.8	1008	9.9	130	1	70
2026-02-27T11:24	11.6	1008	9.7	140	0	70
2026-02-27T11:25	11.6	1008	9.9	130	0	70
2026-02-27T11:26	11.6	1008	9.9	130	0	70
2026-02-27T11:27	11.5	1008	9.8	120	0	70
2026-02-27T11:28	11.6	1008	9.9	120	0	70
2026-02-27T11:29	11.5	1008	9.8	130	0	70
2026-02-27T11:30	11.5	1008	9.8	130	0	70
2026-02-27T11:31	11.5	1008	9.8	120	1	70
2026-02-27T11:32	11.6	1008	10.0	120	1	70
2026-02-27T11:33	11.6	1008	10.0	110	1	70
2026-02-27T11:34	11.7	1008	10.1	100	1	70
2026-02-27T11:35	11.5	1008	9.8	100	1	70
2026-02-27T11:36	11.5	1008	9.8	100	1	70
2026-02-27T11:37	11.7	1008	10.0	100	1	70
2026-02-27T11:38	11.6	1008	9.9	100	1	70
2026-02-27T11:39	11.5	1008	9.8	100	1	70
2026-02-27T11:40	11.6	1008	9.9	100	1	70
2026-02-27T11:41	11.3	1008	9.6	100	1	70
2026-02-27T11:42	11.4	1008	9.8	100	0	70
2026-02-27T11:43	11.3	1008	9.7	100	0	70
2026-02-27T11:44	11.2	1008	9.6	110	0	70
2026-02-27T11:45	11.2	1008	9.8	110	0	70
2026-02-27T11:46	11.2	1007	9.8	110	0	70
2026-02-27T11:47	11.3	1007	9.9	110	0	70
2026-02-27T11:48	11.2	1007	9.8	110	0	70
2026-02-27T11:49	11.3	1007	9.9	110	0	70
2026-02-27T11:50	11.2	1007	9.8	110	0	70
2026-02-27T11:51	11.3	1007	9.9	110	0	70
2026-02-27T11:52	11.3	1007	9.9	110	0	70
2026-02-27T11:53	11.3	1007	9.9	110	0	70
2026-02-27T11:54	11.2	1007	9.6	110	1	70
2026-02-27T11:55	11.3	1007	9.7	110	1	70
2026-02-27T11:56	11.3	1007	9.9	100	1	70
2026-02-27T11:57	11.3	1007	9.9	100	1	70
2026-02-27T11:58	11.2	1007	9.6	100	1	70
2026-02-27T11:59	11.0	1007	9.4	100	1	70
2026-02-27T12:00	11.0	1007	9.6	100	1	70
2026-02-27T12:01	11.0	1007	9.6	100	1	70
2026-02-27T12:02	11.0	1007	9.8	100	1	70
2026-02-27T12:03	11.1	1007	9.9	90	1	70
2026-02-27T12:04	11.1	1007	9.9	80	1	70
2026-02-27T12:05	11.1	1007	9.9	70	1	70
2026-02-27T12:06	11.2	1007	9.8	60	1	70
2026-02-27T12:07	11.1	1007	9.7	50	1	70
2026-02-27T12:08	11.2	1007	9.8	50	1	70
2026-02-27T12:09	11.2	1007	9.8	40	1	70
2026-02-27T12:10	11.2	1007	9.8	30	1	70
2026-02-27T12:11	11.3	1007	9.9	30	1	70
2026-02-27T12:12	11.4	1007	10.0	30	1	70
2026-02-27T12:13	11.3	1007	9.9	40	1	70
2026-02-27T12:14	11.3	1007	9.7	50	1	70
2026-02-27T12:15	11.1	1007	9.5	60	1	70
2026-02-27T12:16	10.9	1007	9.3	70	1	70
2026-02-27T12:17	11.0	1007	9.6	80	1	70
2026-02-27T12:18	11.1	1007	9.9	90	1	70
2026-02-27T12:19	11.1	1007	9.7	100	1	70
2026-02-27T12:20	11.0	1006	9.6	90	1	70
2026-02-27T12:21	11.1	1006	9.9	90	1	70
2026-02-27T12:22	11.2	1006	10.0	70	1	70
2026-02-27T12:23	11.2	1006	9.8	60	1	70
2026-02-27T12:24	11.1	1006	9.7	50	1	70
2026-02-27T12:25	11.2	1006	9.8	40	1	70
2026-02-27T12:26	11.2	1006	9.8	30	1	70
2026-02-27T12:27	11.2	1006	9.8	20	1	70
2026-02-27T12:28	11.1	1006	9.7	10	1	70
2026-02-27T12:29	11.1	1006	9.7	360	1	70
2026-02-27T12:30	11.0	1006	9.6	360	1	70
2026-02-27T12:31	11.0	1006	9.6	360	1	70
2026-02-27T12:32	10.8	1006	9.4	360	1	70
2026-02-27T12:33	10.9	1006	9.7	10	1	70
2026-02-27T12:34	10.9	1006	9.7	20	1	70
2026-02-27T12:35	11.0	1006	9.8	20	1	70
2026-02-27T12:36	11.0	1006	9.8	20	1	70
2026-02-27T12:37	11.1	1006	9.9	20	1	70
2026-02-27T12:38	11.1	1006	9.9	20	1	70
2026-02-27T12:39	11.1	1006	9.7	20	1	70
2026-02-27T12:40	11.1	1006	9.7	10	1	70
2026-02-27T12:41	11.1	1006	9.7	10	1	70
2026-02-27T12:42	11.0	1006	9.6	360	1	70
2026-02-27T12:43	10.8	1006	9.4	360	1	70
2026-02-27T12:44	10.8	1006	9.4	350	1	70
2026-02-27T12:45	10.9	1006	9.7	350	1	70
2026-02-27T12:46	10.9	1006	9.7	350	1	70
2026-02-27T12:47	10.9	1006	9.7	350	1	70
2026-02-27T12:48	10.7	1006	9.5	340	1	70
2026-02-27T12:49	10.4	1006	9.2	340	1	70
2026-02-27T12:50	10.3	1006	9.1	340	1	70
2026-02-27T12:51	10.4	1006	9.3	340	1	70
2026-02-27T12:52	10.4	1006	9.5	340	1	70
2026-02-27T12:53	10.3	1006	9.4	330	1	69
2026-02-27T12:54	10.1	1006	9.2	320	1	69
2026-02-27T12:55	10.1	1006	9.2	320	1	70
2026-02-27T12:56	9.9	1006	9.0	310	1	69
2026-02-27T12:57	10.0	1006	9.2	300	1	69
2026-02-27T12:58	10.0	1006	9.2	280	0	69
2026-02-27T12:59	10.1	1006	9.5	270	0	69
2026-02-27T13:00	10.1	1006	9.5	250	0	69
2026-02-27T13:01	10.1	1006	9.5	240	0	68
2026-02-27T13:02	10.0	1006	9.4	230	1	68
2026-02-27T13:03	9.9	1006	9.3	230	1	68
2026-02-27T13:04	9.8	1006	9.2	230	1	68
2026-02-27T13:05	9.8	1006	9.2	220	1	68
2026-02-27T13:06	9.8	1006	9.2	220	1	68
2026-02-27T13:07	9.8	1006	9.2	230	1	68
2026-02-27T13:08	9.8	1006	9.2	230	1	67
2026-02-27T13:09	9.9	1006	9.5	230	1	67
2026-02-27T13:10	9.8	1006	9.4	230	1	67
2026-02-27T13:11	9.8	1006	9.4	240	0	67
2026-02-27T13:12	9.8	1006	9.4	240	0	67
2026-02-27T13:13	9.9	1006	9.5	240	0	67
2026-02-27T13:14	9.9	1006	9.5	250	0	67
2026-02-27T13:15	9.8	1006	9.4	0	0	66
2026-02-27T13:16	9.8	1006	9.4	0	0	66
2026-02-27T13:17	9.7	1007	9.3	0	0	65
2026-02-27T13:18	9.5	1007	9.1	260	0	66
2026-02-27T13:19	9.6	1007	9.2	270	0	66
2026-02-27T13:20	9.7	1007	9.3	270	0	66
2026-02-27T13:21	9.7	1007	9.3	270	1	66
2026-02-27T13:22	9.7	1007	9.3	270	1	66
2026-02-27T13:23	9.7	1007	9.3	270	1	66
2026-02-27T13:24	9.7	1007	9.3	260	1	66
2026-02-27T13:25	9.6	1006	9.2	260	1	66
2026-02-27T13:26	9.7	1006	9.3	250	1	66
2026-02-27T13:27	9.7	1007	9.3	240	1	66
2026-02-27T13:28	9.6	1007	9.2	230	1	66
2026-02-27T13:29	9.5	1007	9.1	230	1	66
2026-02-27T13:30	9.7	1007	9.3	220	1	66
2026-02-27T13:31	10.0	1007	9.7	220	1	66
2026-02-27T13:32	9.9	1007	9.6	210	1	66
2026-02-27T13:33	9.8	1007	9.4	210	1	66
2026-02-27T13:34	9.9	1007	9.5	200	1	67
2026-02-27T13:35	10.0	1007	9.6	200	1	67
2026-02-27T13:36	10.1	1007	9.7	200	1	67
2026-02-27T13:37	10.0	1007	9.6	200	1	67
2026-02-27T13:38	9.8	1007	9.2	190	1	67
2026-02-27T13:39	9.8	1007	9.2	190	1	67
2026-02-27T13:40	9.9	1007	9.5	190	1	68
2026-02-27T13:41	10.1	1007	9.7	190	1	68
2026-02-27T13:42	10.3	1007	9.9	190	1	68
2026-02-27T13:43	10.3	1007	9.9	190	1	68
2026-02-27T13:44	10.4	1007	10.0	200	1	68
2026-02-27T13:45	10.5	1007	10.1	200	1	67
2026-02-27T13:46	10.6	1007	10.0	200	1	68
2026-02-27T13:47	10.7	1007	10.1	200	1	68
2026-02-27T13:48	10.7	1007	10.1	190	1	68
2026-02-27T13:49	10.7	1007	10.0	190	1	68
2026-02-27T13:50	10.7	1007	10.0	190	1	68
2026-02-27T13:51	10.7	1007	9.8	190	1	68
2026-02-27T13:52	10.8	1007	9.9	180	1	68
2026-02-27T13:53	10.8	1007	9.9	180	1	68
2026-02-27T13:54	10.8	1007	9.9	180	1	69
2026-02-27T13:55	10.8	1007	9.9	180	1	69
2026-02-27T13:56	10.8	1007	9.9	180	1	69
2026-02-27T13:57	10.8	1007	9.9	170	1	69
2026-02-27T13:58	10.8	1007	9.9	180	1	69
2026-02-27T13:59	10.8	1007	9.9	180	1	69
2026-02-27T14:00	10.9	1007	9.8	180	1	69
2026-02-27T14:01	10.9	1007	9.8	180	1	69
2026-02-27T14:02	10.9	1007	9.8	190	1	69
2026-02-27T14:03	10.9	1007	9.8	190	1	69
2026-02-27T14:04	10.9	1007	9.8	190	1	69
2026-02-27T14:05	10.9	1007	9.8	200	1	69
2026-02-27T14:06	10.9	1007	9.8	200	1	69
2026-02-27T14:07	10.9	1007	9.8	200	1	69
2026-02-27T14:08	11.0	1007	9.9	200	1	69
2026-02-27T14:09	11.0	1007	9.8	210	1	69
2026-02-27T14:10	10.9	1007	9.7	210	1	70
2026-02-27T14:11	10.9	1006	9.8	220	1	70
2026-02-27T14:12	10.9	1006	9.8	230	1	70
2026-02-27T14:13	10.8	1006	9.7	240	1	70
2026-02-27T14:14	10.6	1006	9.5	250	1	69
2026-02-27T14:15	10.6	1006	9.5	260	1	69
2026-02-27T14:16	10.5	1006	9.6	270	1	69
2026-02-27T14:17	10.5	1006	9.6	280	1	69
2026-02-27T14:18	10.4	1006	9.5	290	1	68
2026-02-27T14:19	10.4	1006	9.5	290	1	68
2026-02-27T14:20	10.4	1006	9.5	290	1	68
2026-02-27T14:21	10.4	1006	9.6	280	1	68
2026-02-27T14:22	10.5	1006	9.7	280	1	68
2026-02-27T14:23	10.4	1006	9.6	280	1	68
2026-02-27T14:24	10.3	1006	9.4	270	1	68
2026-02-27T14:25	10.3	1006	9.5	270	1	68
2026-02-27T14:26	10.4	1006	9.6	270	1	68
2026-02-27T14:27	10.3	1006	9.5	260	1	68
2026-02-27T14:28	10.3	1006	9.5	260	1	68
2026-02-27T14:29	10.2	1006	9.4	260	1	68
2026-02-27T14:30	10.1	1006	9.3	270	1	67
2026-02-27T14:31	10.0	1006	9.2	280	1	67
2026-02-27T14:32	9.9	1006	9.3	280	1	67
2026-02-27T14:33	10.0	1006	9.4	290	1	67
2026-02-27T14:34	9.9	1006	9.3	290	1	67
2026-02-27T14:35	9.9	1006	9.3	300	1	67
2026-02-27T14:36	9.9	1006	9.5	300	1	67
2026-02-27T14:37	9.9	1006	9.5	310	1	66
2026-02-27T14:38	9.9	1006	9.5	310	1	66
2026-02-27T14:39	9.9	1006	9.5	310	1	66
2026-02-27T14:40	10.2	1006	9.8	300	1	66
2026-02-27T14:41	10.3	1006	9.9	300	1	66
2026-02-27T14:42	10.0	1006	9.6	290	1	67
2026-02-27T14:43	10.0	1006	9.4	290	1	66
2026-02-27T14:44	10.3	1006	9.9	280	1	66
2026-02-27T14:45	10.4	1006	10.0	260	0	67
2026-02-27T14:46	10.3	1006	9.9	250	0	66
2026-02-27T14:47	10.1	1006	9.5	230	0	67
2026-02-27T14:48	10.0	1006	9.4	220	1	67
2026-02-27T14:49	10.0	1006	9.4	220	1	67
2026-02-27T14:50	10.0	1006	9.4	210	1	67
2026-02-27T14:51	10.1	1006	9.7	200	1	67
2026-02-27T14:52	10.1	1006	9.7	190	1	67
2026-02-27T14:53	10.1	1006	9.7	190	1	67
2026-02-27T14:54	10.2	1007	9.8	190	1	67
2026-02-27T14:55	10.3	1007	9.9	190	1	67
2026-02-27T14:56	10.3	1006	9.9	190	1	67
2026-02-27T14:57	10.4	1006	10.0	190	1	67
2026-02-27T14:58	10.5	1006	10.1	190	1	67
2026-02-27T14:59	10.5	1006	10.1	190	1	67
2026-02-27T15:00	10.5	1006	9.9	200	1	67
2026-02-27T15:01	10.5	1006	9.9	200	1	67
2026-02-27T15:02	10.5	1006	9.9	200	1	67
2026-02-27T15:03	10.5	1006	9.9	200	1	67
2026-02-27T15:04	10.5	1006	9.9	200	1	67
2026-02-27T15:05	10.5	1006	9.9	200	1	67
2026-02-27T15:06	10.5	1006	9.9	200	1	67
2026-02-27T15:07	10.5	1006	9.9	200	1	67
2026-02-27T15:08	10.6	1006	10.0	200	1	67
2026-02-27T15:09	10.6	1006	10.0	200	1	67
2026-02-27T15:10	10.6	1006	9.8	200	1	67
2026-02-27T15:11	10.6	1006	9.8	210	1	67
2026-02-27T15:12	10.6	1006	9.8	210	1	68
2026-02-27T15:13	10.7	1006	10.0	210	1	68
2026-02-27T15:14	10.7	1006	10.0	210	1	67
2026-02-27T15:15	10.7	1006	10.0	220	1	68
2026-02-27T15:16	10.6	1006	9.8	230	1	68
2026-02-27T15:17	10.5	1006	9.7	230	1	68
2026-02-27T15:18	10.5	1006	9.7	230	1	68
2026-02-27T15:19	10.5	1006	9.7	230	1	68
2026-02-27T15:20	10.5	1006	9.7	230	1	67
2026-02-27T15:21	10.4	1006	9.6	230	1	67
2026-02-27T15:22	10.5	1006	9.7	240	1	67
2026-02-27T15:23	10.4	1006	9.6	230	1	67
2026-02-27T15:24	10.4	1006	9.8	240	1	68
2026-02-27T15:25	10.4	1006	9.8	240	1	67
2026-02-27T15:26	10.5	1006	9.9	240	1	67
2026-02-27T15:27	10.5	1006	9.9	240	1	67
2026-02-27T15:28	10.4	1006	9.8	250	1	67
2026-02-27T15:29	10.4	1006	9.8	260	1	67
2026-02-27T15:30	10.3	1006	9.7	270	1	67
2026-02-27T15:31	10.3	1006	9.7	280	1	67
2026-02-27T15:32	10.3	1006	9.7	290	1	67
2026-02-27T15:33	10.4	1006	9.8	290	1	67
2026-02-27T15:34	10.5	1006	9.9	300	1	67
2026-02-27T15:35	10.5	1006	9.9	300	1	67
2026-02-27T15:36	10.4	1006	9.8	300	1	67
2026-02-27T15:37	10.5	1006	9.9	300	1	67
2026-02-27T15:38	10.5	1006	9.9	290	1	67
2026-02-27T15:39	10.5	1006	9.9	290	1	67
2026-02-27T15:40	10.4	1006	9.8	280	1	66
2026-02-27T15:41	10.4	1006	9.8	280	1	67
2026-02-27T15:42	10.5	1006	9.9	280	1	67
2026-02-27T15:43	10.5	1006	9.9	280	1	67
2026-02-27T15:44	10.5	1006	9.9	280	1	67
2026-02-27T15:45	10.5	1006	9.9	280	1	67
2026-02-27T15:46	10.5	1006	9.9	280	1	67
2026-02-27T15:47	10.4	1006	9.8	280	1	67
2026-02-27T15:48	10.4	1006	9.8	280	1	66
2026-02-27T15:49	10.4	1006	9.8	280	1	66
2026-02-27T15:50	10.5	1006	9.9	280	1	67
2026-02-27T15:51	10.5	1006	9.9	280	1	66
2026-02-27T15:52	10.5	1006	9.9	280	1	66
2026-02-27T15:53	10.5	1006	9.9	280	1	66
2026-02-27T15:54	10.5	1006	9.9	280	1	66
2026-02-27T15:55	10.4	1006	9.8	280	1	66
2026-02-27T15:56	10.4	1006	9.8	280	1	66
2026-02-27T15:57	10.4	1006	9.8	270	1	66
2026-02-27T15:58	10.5	1006	9.9	270	1	67
2026-02-27T15:59	10.5	1006	9.9	280	1	67
2026-02-27T16:00	10.5	1006	9.9	280	1	67
2026-02-27T16:01	10.5	1006	9.9	270	1	67
2026-02-27T16:02	10.5	1006	9.9	270	1	67
2026-02-27T16:03	10.5	1006	9.9	270	1	67
2026-02-27T16:04	10.6	1006	10.0	270	1	66
2026-02-27T16:05	10.6	1006	10.0	270	1	66
2026-02-27T16:06	10.5	1006	9.9	270	1	66
2026-02-27T16:07	10.5	1006	9.9	270	1	66
2026-02-27T16:08	10.5	1006	9.9	270	1	66
2026-02-27T16:09	10.5	1006	9.9	270	1	66
2026-02-27T16:10	10.5	1006	9.9	270	1	65
2026-02-27T16:11	10.5	1006	9.9	270	1	66
2026-02-27T16:12	10.6	1006	10.0	260	1	66
2026-02-27T16:13	10.6	1006	10.0	260	1	66
2026-02-27T16:14	10.6	1006	10.0	260	1	66
2026-02-27T16:15	10.6	1006	10.0	260	1	66
2026-02-27T16:16	10.6	1006	10.0	260	1	66
2026-02-27T16:17	10.6	1006	10.0	260	1	66
2026-02-27T16:18	10.5	1006	9.9	260	1	66
2026-02-27T16:19	10.5	1006	9.9	260	1	66
2026-02-27T16:20	10.5	1006	9.9	270	1	66
2026-02-27T16:21	10.5	1006	9.9	270	1	65
2026-02-27T16:22	10.4	1006	9.8	280	1	65
2026-02-27T16:23	10.3	1006	9.7	280	1	65
2026-02-27T16:24	10.4	1006	9.8	280	1	65
2026-02-27T16:25	10.4	1006	9.8	280	1	64
2026-02-27T16:26	10.3	1006	9.7	280	1	64
2026-02-27T16:27	10.4	1006	9.8	290	1	64
2026-02-27T16:28	10.4	1006	9.8	290	1	64
2026-02-27T16:29	10.4	1006	9.8	290	1	64
2026-02-27T16:30	10.4	1006	9.8	290	1	64
2026-02-27T16:31	10.4	1006	9.8	290	1	64
2026-02-27T16:32	10.4	1006	9.8	300	1	64
2026-02-27T16:33	10.5	1006	9.9	290	1	65
2026-02-27T16:34	10.5	1006	9.9	290	1	65
2026-02-27T16:35	10.5	1006	9.9	280	1	65
2026-02-27T16:36	10.5	1006	9.7	270	1	65
2026-02-27T16:37	10.5	1006	9.7	260	1	66
2026-02-27T16:38	10.5	1006	9.7	240	1	66
2026-02-27T16:39	10.5	1006	9.7	230	1	66
2026-02-27T16:40	10.4	1006	9.6	210	1	66
2026-02-27T16:41	10.3	1006	9.5	200	1	66
2026-02-27T16:42	10.3	1006	9.5	190	1	66
2026-02-27T16:43	10.3	1006	9.7	180	1	66
2026-02-27T16:44	10.3	1006	9.7	180	1	66
2026-02-27T16:45	10.2	1006	9.6	170	0	65
2026-02-27T16:46	10.2	1006	9.6	170	0	65
2026-02-27T16:47	10.2	1006	9.6	160	0	65
2026-02-27T16:48	10.2	1006	9.6	160	0	65
2026-02-27T16:49	10.2	1006	9.6	0	0	65
2026-02-27T16:50	10.2	1006	9.6	0	0	65
2026-02-27T16:51	10.2	1006	9.8	0	0	65
2026-02-27T16:52	10.1	1006	9.7	0	0	65
2026-02-27T16:53	10.2	1006	9.8	0	0	64
2026-02-27T16:54	10.1	1006	9.7	0	0	64
2026-02-27T16:55	10.2	1006	9.8	350	0	64
2026-02-27T16:56	10.1	1006	9.7	340	0	64
2026-02-27T16:57	10.1	1006	9.7	340	0	64
2026-02-27T16:58	10.1	1006	9.7	330	1	65
2026-02-27T16:59	10.1	1006	9.7	330	1	64
2026-02-27T17:00	10.1	1006	9.7	330	1	64
2026-02-27T17:01	10.1	1006	9.7	330	1	64
2026-02-27T17:02	10.0	1006	9.6	330	1	64
2026-02-27T17:03	10.0	1006	9.6	330	1	64
2026-02-27T17:04	10.0	1005	9.6	330	1	65
2026-02-27T17:05	10.0	1005	9.6	330	1	64
2026-02-27T17:06	10.1	1005	9.7	330	1	65
2026-02-27T17:07	10.1	1005	9.7	340	1	65
2026-02-27T17:08	10.1	1005	9.7	340	1	65
2026-02-27T17:09	10.1	1005	9.5	350	1	65
2026-02-27T17:10	10.2	1005	9.6	350	1	66
2026-02-27T17:11	10.1	1005	9.3	350	1	66
2026-02-27T17:12	10.1	1005	9.5	350	1	66
2026-02-27T17:13	9.9	1005	9.3	360	1	67
2026-02-27T17:14	10.1	1005	9.5	360	1	67
2026-02-27T17:15	10.0	1005	9.6	360	1	67
2026-02-27T17:16	10.0	1005	9.6	360	1	67
2026-02-27T17:17	9.9	1005	9.3	360	1	67
2026-02-27T17:18	9.9	1005	9.3	360	1	67
2026-02-27T17:19	9.9	1005	9.3	360	1	67
2026-02-27T17:20	9.9	1005	9.5	360	1	67
2026-02-27T17:21	9.9	1005	9.5	360	1	68
2026-02-27T17:22	9.9	1005	9.5	360	1	67
2026-02-27T17:23	9.8	1005	9.4	360	1	67
2026-02-27T17:24	9.7	1005	9.3	360	1	67
2026-02-27T17:25	9.7	1005	9.3	350	1	68
2026-02-27T17:26	9.7	1005	9.3	350	1	68
2026-02-27T17:27	9.7	1005	9.1	350	1	68
2026-02-27T17:28	9.7	1005	9.1	350	1	68
2026-02-27T17:29	9.7	1005	9.1	350	1	68
2026-02-27T17:30	9.7	1005	9.1	350	1	68
2026-02-27T17:31	9.7	1005	9.3	360	1	68
2026-02-27T17:32	9.6	1005	9.2	360	1	68
2026-02-27T17:33	9.6	1005	9.2	360	1	68
2026-02-27T17:34	9.5	1005	9.1	360	1	68
2026-02-27T17:35	9.5	1005	9.1	360	1	68
2026-02-27T17:36	9.5	1005	9.1	360	1	68
2026-02-27T17:37	9.4	1005	9.0	360	1	69
2026-02-27T17:38	9.6	1005	9.2	360	1	68
2026-02-27T17:39	9.6	1005	9.0	10	1	69
2026-02-27T17:40	9.6	1005	9.0	10	1	69
2026-02-27T17:41	9.5	1005	8.9	10	1	69
2026-02-27T17:42	9.5	1005	8.9	10	1	68
2026-02-27T17:43	9.5	1005	8.9	10	1	69
2026-02-27T17:44	9.6	1005	9.0	10	1	69
2026-02-27T17:45	9.6	1005	9.0	10	1	69
2026-02-27T17:46	9.6	1005	8.8	10	1	70
2026-02-27T17:47	9.7	1005	8.8	10	1	70
2026-02-27T17:48	9.7	1005	8.6	10	1	70
2026-02-27T17:49	9.7	1005	8.6	10	1	70
2026-02-27T17:50	9.7	1005	8.5	10	1	70
2026-02-27T17:51	9.7	1005	8.5	360	1	70
2026-02-27T17:52	9.5	1005	8.4	360	1	70
2026-02-27T17:53	9.6	1005	8.5	360	1	70
2026-02-27T17:54	9.7	1005	8.6	360	1	70
2026-02-27T17:55	9.7	1005	8.5	350	1	70
2026-02-27T17:56	9.6	1005	8.4	350	1	70
2026-02-27T17:57	9.5	1005	8.4	350	1	70
2026-02-27T17:58	9.4	1005	8.3	350	1	70
2026-02-27T17:59	9.3	1005	8.2	350	1	70
2026-02-27T18:00	9.4	1005	8.5	340	1	70
2026-02-27T18:01	9.3	1005	8.4	340	1	70
2026-02-27T18:02	9.4	1005	8.5	340	1	70
2026-02-27T18:03	9.3	1005	8.4	350	1	70
2026-02-27T18:04	9.3	1005	8.4	350	1	70
2026-02-27T18:05	9.3	1005	8.4	350	1	70
2026-02-27T18:06	9.5	1005	8.6	350	1	70
2026-02-27T18:07	9.3	1005	8.4	360	1	70
2026-02-27T18:08	9.4	1005	8.5	10	0	70
2026-02-27T18:09	9.5	1005	8.4	0	0	70
2026-02-27T18:10	9.2	1005	8.1	0	0	70
2026-02-27T18:11	9.2	1005	8.1	0	0	70
2026-02-27T18:12	9.3	1005	8.2	0	0	70
2026-02-27T18:13	9.2	1005	8.1	0	0	70
2026-02-27T18:14	9.2	1005	8.1	0	0	70
2026-02-27T18:15	9.2	1005	8.1	0	0	70
2026-02-27T18:16	9.2	1005	8.1	350	0	70
2026-02-27T18:17	9.2	1005	8.3	340	0	70
2026-02-27T18:18	9.1	1005	8.2	320	0	70
2026-02-27T18:19	9.1	1005	8.2	320	0	70
2026-02-27T18:20	9.1	1005	8.2	320	0	70
2026-02-27T18:21	9.1	1005	8.3	320	0	70
2026-02-27T18:22	9.1	1005	8.3	320	0	70
2026-02-27T18:23	9.1	1005	8.3	320	0	70
2026-02-27T18:24	9.1	1005	8.3	310	0	70
2026-02-27T18:25	9.0	1005	8.2	300	0	70
2026-02-27T18:26	9.1	1005	8.3	280	0	70
2026-02-27T18:27	9.0	1005	8.2	260	0	70
2026-02-27T18:28	9.0	1004	8.2	230	0	70
2026-02-27T18:29	8.9	1004	8.1	210	0	70
2026-02-27T18:30	8.8	1004	8.1	190	0	70
2026-02-27T18:31	8.9	1004	8.1	190	0	70
2026-02-27T18:32	8.8	1004	8.1	190	0	70
2026-02-27T18:33	8.9	1004	8.3	190	0	70
2026-02-27T18:34	8.9	1004	8.3	0	0	70
2026-02-27T18:35	8.8	1004	8.2	0	0	70
2026-02-27T18:36	8.8	1004	8.2	0	0	70
2026-02-27T18:37	8.8	1004	8.2	200	0	70
2026-02-27T18:38	8.9	1004	8.3	210	0	70
2026-02-27T18:39	8.9	1004	8.3	210	0	70
2026-02-27T18:40	9.0	1005	8.4	220	1	70
2026-02-27T18:41	9.0	1005	8.4	220	1	70
2026-02-27T18:42	8.8	1005	8.1	220	1	70
2026-02-27T18:43	8.7	1005	8.0	230	1	70
2026-02-27T18:44	8.8	1005	8.2	230	1	70
2026-02-27T18:45	8.7	1005	8.1	230	1	70
2026-02-27T18:46	8.6	1005	8.0	230	1	70
2026-02-27T18:47	8.7	1005	8.1	240	1	70
2026-02-27T18:48	8.8	1005	8.2	230	1	70
2026-02-27T18:49	8.8	1005	8.4	230	1	70
2026-02-27T18:50	8.8	1005	8.2	230	1	70
2026-02-27T18:51	8.8	1005	8.2	230	1	70
2026-02-27T18:52	8.8	1005	8.2	230	1	70
2026-02-27T18:53	8.7	1005	8.1	220	1	70
2026-02-27T18:54	8.8	1005	8.2	230	1	70
2026-02-27T18:55	8.7	1005	8.1	230	1	70
2026-02-27T18:56	8.7	1005	8.1	230	1	70
2026-02-27T18:57	8.8	1005	8.2	230	1	70
2026-02-27T18:58	8.8	1005	8.2	240	1	70
2026-02-27T18:59	8.9	1005	8.3	240	1	70
2026-02-27T19:00	8.9	1005	8.3	250	1	70
2026-02-27T19:01	9.0	1005	8.4	250	1	70
2026-02-27T19:02	8.9	1005	8.3	260	1	70
2026-02-27T19:03	9.0	1005	8.2	270	1	70
2026-02-27T19:04	9.0	1005	8.2	280	1	70
2026-02-27T19:05	9.1	1005	8.3	280	1	70
2026-02-27T19:06	9.1	1005	8.3	290	1	70
2026-02-27T19:07	9.1	1005	8.3	300	1	70
2026-02-27T19:08	9.1	1005	8.3	320	1	70
2026-02-27T19:09	9.1	1005	8.3	330	1	70
2026-02-27T19:10	9.1	1005	8.3	330	0	70
2026-02-27T19:11	9.0	1005	8.2	340	0	70
2026-02-27T19:12	9.0	1005	8.2	350	0	70
2026-02-27T19:13	9.1	1005	8.5	0	0	70
2026-02-27T19:14	9.1	1005	8.5	0	0	70
2026-02-27T19:15	9.2	1005	8.4	0	0	70
2026-02-27T19:16	9.2	1005	8.4	0	0	70
2026-02-27T19:17	9.2	1005	8.4	0	0	70
2026-02-27T19:18	9.2	1005	8.4	0	0	70
2026-02-27T19:19	9.2	1005	8.4	0	0	70
2026-02-27T19:20	9.2	1005	8.4	0	0	70
2026-02-27T19:21	9.2	1005	8.4	0	0	70
2026-02-27T19:22	9.3	1005	8.5	0	0	70
2026-02-27T19:23	9.3	1005	8.4	0	0	70
2026-02-27T19:24	9.3	1005	8.4	0	0	70
2026-02-27T19:25	9.3	1005	8.4	180	0	70
2026-02-27T19:26	9.3	1005	8.4	180	0	70
2026-02-27T19:27	9.4	1005	8.3	170	0	70
2026-02-27T19:28	9.3	1005	8.2	170	0	70
2026-02-27T19:29	9.3	1005	8.4	170	0	70
2026-02-27T19:30	9.3	1005	8.4	160	0	70
2026-02-27T19:31	9.3	1005	8.4	160	1	70
2026-02-27T19:32	9.3	1005	8.4	160	1	70
2026-02-27T19:33	9.3	1005	8.4	160	1	70
2026-02-27T19:34	9.3	1005	8.4	160	1	70
2026-02-27T19:35	9.4	1005	8.5	160	1	70
2026-02-27T19:36	9.4	1005	8.5	160	1	70
2026-02-27T19:37	9.4	1004	8.5	160	1	70
2026-02-27T19:38	9.4	1004	8.5	170	1	70
2026-02-27T19:39	9.4	1005	8.5	170	1	70
2026-02-27T19:40	9.5	1005	8.6	180	1	70
2026-02-27T19:41	9.5	1005	8.6	190	1	70
2026-02-27T19:42	9.4	1005	8.5	200	1	70
2026-02-27T19:43	9.4	1005	8.5	210	1	70
2026-02-27T19:44	9.4	1005	8.5	220	1	70
2026-02-27T19:45	9.4	1005	8.5	240	1	70
2026-02-27T19:46	9.3	1005	8.4	250	1	70
2026-02-27T19:47	9.3	1005	8.4	260	1	70
2026-02-27T19:48	9.3	1005	8.5	260	1	70
2026-02-27T19:49	9.2	1005	8.4	270	1	70
2026-02-27T19:50	9.2	1005	8.4	280	1	70
2026-02-27T19:51	9.3	1005	8.5	280	1	70
2026-02-27T19:52	9.3	1005	8.5	270	1	70
2026-02-27T19:53	9.3	1005	8.5	270	1	70
2026-02-27T19:54	9.3	1005	8.5	270	1	70
2026-02-27T19:55	9.2	1004	8.4	270	1	70
2026-02-27T19:56	9.2	1004	8.4	270	1	70
2026-02-27T19:57	9.3	1004	8.5	270	1	70
2026-02-27T19:58	9.5	1004	8.7	260	1	70
2026-02-27T19:59	9.5	1004	8.6	260	1	70
2026-02-27T20:00	9.4	1004	8.5	260	1	70
2026-02-27T20:01	9.4	1004	8.5	260	1	70
2026-02-27T20:02	9.5	1004	8.4	260	1	69
2026-02-27T20:03	9.3	1004	8.2	260	1	68
2026-02-27T20:04	9.4	1004	8.3	260	1	68
2026-02-27T20:05	9.4	1004	8.3	260	1	67
2026-02-27T20:06	9.3	1004	8.2	260	1	67
2026-02-27T20:07	9.4	1004	8.3	260	1	66
2026-02-27T20:08	9.4	1004	8.3	260	1	66
2026-02-27T20:09	9.5	1004	8.4	260	1	66
2026-02-27T20:10	9.5	1004	8.3	270	1	66
2026-02-27T20:11	9.5	1004	8.3	270	1	66
2026-02-27T20:12	9.5	1004	8.3	270	1	66
2026-02-27T20:13	9.5	1004	8.3	270	1	65
2026-02-27T20:14	9.5	1004	8.3	280	1	65
2026-02-27T20:15	9.4	1004	8.2	290	0	65
2026-02-27T20:16	9.4	1004	8.3	310	0	65
2026-02-27T20:17	9.3	1004	8.2	0	0	65
2026-02-27T20:18	9.2	1004	8.1	0	0	65
2026-02-27T20:19	9.2	1004	8.1	0	0	64
2026-02-27T20:20	9.2	1004	8.3	0	0	65
2026-02-27T20:21	9.1	1004	8.0	0	0	65
2026-02-27T20:22	9.1	1004	8.0	0	0	65
2026-02-27T20:23	9.2	1004	8.3	0	0	64
2026-02-27T20:24	9.1	1004	8.2	0	0	64
2026-02-27T20:25	9.1	1004	8.2	210	0	64
2026-02-27T20:26	9.1	1004	8.2	210	0	64
2026-02-27T20:27	9.1	1004	8.2	200	0	64
2026-02-27T20:28	8.9	1004	8.0	200	0	64
2026-02-27T20:29	8.8	1004	7.9	200	0	64
2026-02-27T20:30	8.9	1004	8.1	210	0	64
2026-02-27T20:31	9.0	1004	8.2	210	1	63
2026-02-27T20:32	9.0	1004	8.2	220	1	63
2026-02-27T20:33	9.0	1005	8.2	220	1	63
2026-02-27T20:34	9.0	1005	8.2	230	1	63
2026-02-27T20:35	9.0	1005	8.2	230	1	64
2026-02-27T20:36	9.0	1005	8.2	240	1	64
2026-02-27T20:37	9.0	1005	8.2	250	1	64
2026-02-27T20:38	9.1	1005	8.3	250	1	64
2026-02-27T20:39	9.1	1005	8.3	250	1	64
2026-02-27T20:40	9.2	1005	8.3	240	1	64
2026-02-27T20:41	9.2	1005	8.3	240	1	64
2026-02-27T20:42	9.3	1005	8.4	110	1	64
2026-02-27T20:43	9.3	1005	8.2	70	1	63
2026-02-27T20:44	9.3	1005	8.2	50	1	63
2026-02-27T20:45	9.3	1005	8.2	350	1	63
2026-02-27T20:46	9.3	1005	8.2	360	1	63
2026-02-27T20:47	9.4	1005	8.3	40	0	63
2026-02-27T20:48	9.4	1005	8.3	260	0	63
2026-02-27T20:49	9.3	1005	8.1	200	0	63
2026-02-27T20:50	9.1	1005	7.9	0	0	63
2026-02-27T20:51	9.0	1005	7.9	0	0	63
2026-02-27T20:52	9.0	1005	7.9	0	0	63
2026-02-27T20:53	9.1	1005	8.2	0	0	63
2026-02-27T20:54	9.1	1005	8.2	0	0	63
2026-02-27T20:55	9.1	1005	8.2	0	0	63
2026-02-27T20:56	8.9	1005	8.0	0	0	63
2026-02-27T20:57	9.0	1005	8.1	0	0	62
2026-02-27T20:58	9.0	1005	8.1	0	0	62
2026-02-27T20:59	8.9	1005	8.0	0	0	62
2026-02-27T21:00	8.9	1005	8.1	0	0	62
2026-02-27T21:01	8.9	1005	8.1	0	0	62
2026-02-27T21:02	8.8	1005	8.1	0	0	62
2026-02-27T21:03	8.8	1005	8.1	350	0	62
2026-02-27T21:04	8.8	1005	8.1	360	0	62
2026-02-27T21:05	8.8	1005	8.2	360	0	62
2026-02-27T21:06	8.8	1005	8.1	360	1	62
2026-02-27T21:07	8.8	1005	8.1	350	1	62
2026-02-27T21:08	8.8	1005	8.1	350	1	62
2026-02-27T21:09	8.7	1005	8.0	340	1	63
2026-02-27T21:10	8.7	1005	8.0	330	1	63
2026-02-27T21:11	8.6	1005	7.9	320	1	63
2026-02-27T21:12	8.6	1005	8.0	310	1	63
2026-02-27T21:13	8.6	1005	8.0	300	1	63
2026-02-27T21:14	8.5	1005	7.9	290	1	63
2026-02-27T21:15	8.4	1005	7.8	290	1	62
2026-02-27T21:16	8.4	1005	7.8	280	1	62
2026-02-27T21:17	8.4	1005	8.0	280	1	62
2026-02-27T21:18	8.4	1005	8.0	280	1	62
2026-02-27T21:19	8.4	1005	8.0	280	1	61
2026-02-27T21:20	8.3	1005	7.9	280	1	61
2026-02-27T21:21	8.4	1005	8.0	280	1	61
2026-02-27T21:22	8.4	1005	8.0	280	1	61
2026-02-27T21:23	8.5	1005	8.1	280	1	61
2026-02-27T21:24	8.6	1005	8.2	280	1	61
2026-02-27T21:25	8.5	1005	8.1	280	1	61
2026-02-27T21:26	8.6	1005	8.2	280	1	62
2026-02-27T21:27	8.7	1005	8.3	290	1	62
2026-02-27T21:28	8.5	1005	7.9	290	1	63
2026-02-27T21:29	8.6	1005	8.0	300	1	63
2026-02-27T21:30	8.6	1005	8.0	310	0	63
2026-02-27T21:31	8.6	1005	8.0	320	0	63
2026-02-27T21:32	8.5	1005	7.9	340	0	63
2026-02-27T21:33	8.5	1005	7.9	360	0	63
2026-02-27T21:34	8.4	1005	8.0	10	0	63
2026-02-27T21:35	8.4	1005	8.0	20	0	62
2026-02-27T21:36	8.5	1005	8.1	20	0	62
2026-02-27T21:37	8.5	1005	8.1	30	1	62
2026-02-27T21:38	8.5	1005	8.1	20	1	62
2026-02-27T21:39	8.5	1005	8.1	20	1	62
2026-02-27T21:40	8.5	1005	8.1	10	1	63
2026-02-27T21:41	8.6	1005	8.2	360	1	63
2026-02-27T21:42	8.6	1005	8.0	360	1	63
2026-02-27T21:43	8.5	1005	7.9	360	1	63
2026-02-27T21:44	8.5	1005	7.9	360	1	63
2026-02-27T21:45	8.4	1005	8.0	360	1	63
2026-02-27T21:46	8.4	1005	8.0	360	0	63
2026-02-27T21:47	8.4	1005	8.0	360	0	63
2026-02-27T21:48	8.5	1005	8.1	360	0	63
2026-02-27T21:49	8.5	1005	8.1	360	0	64
2026-02-27T21:50	8.5	1005	8.1	350	0	63
2026-02-27T21:51	8.5	1005	8.1	340	0	63
2026-02-27T21:52	8.7	1005	8.3	330	0	64
2026-02-27T21:53	8.7	1005	8.1	310	0	64
2026-02-27T21:54	8.6	1005	8.0	300	0	64
2026-02-27T21:55	8.4	1005	7.8	290	0	64
2026-02-27T21:56	8.3	1005	7.7	280	0	64
2026-02-27T21:57	8.4	1005	8.0	270	0	64
2026-02-27T21:58	8.4	1005	8.0	260	0	65
2026-02-27T21:59	8.4	1005	8.0	260	1	65
2026-02-27T22:00	8.5	1005	8.1	250	0	65
2026-02-27T22:01	8.5	1005	8.1	250	0	65
2026-02-27T22:02	8.5	1005	8.1	250	0	65
2026-02-27T22:03	8.5	1005	8.1	0	0	65
2026-02-27T22:04	8.5	1005	7.9	0	0	66
2026-02-27T22:05	8.6	1005	8.0	0	0	66
2026-02-27T22:06	8.6	1005	8.0	0	0	66
2026-02-27T22:07	8.7	1005	8.1	240	0	67
2026-02-27T22:08	8.7	1005	8.1	240	0	67
2026-02-27T22:09	8.7	1005	8.1	240	0	67
2026-02-27T22:10	8.7	1005	8.1	240	0	67
2026-02-27T22:11	8.7	1005	8.1	240	0	67
2026-02-27T22:12	8.7	1005	8.1	230	0	67
2026-02-27T22:13	8.7	1005	8.1	230	0	67
2026-02-27T22:14	8.8	1005	8.2	230	0	67
2026-02-27T22:15	8.8	1005	8.2	230	0	67
2026-02-27T22:16	8.9	1005	8.3	220	0	67
2026-02-27T22:17	8.9	1005	8.3	0	0	67
2026-02-27T22:18	8.9	1005	8.3	0	0	68
2026-02-27T22:19	9.0	1005	8.4	0	0	68
2026-02-27T22:20	9.2	1005	8.6	0	0	68
2026-02-27T22:21	9.1	1005	8.5	0	0	68
2026-02-27T22:22	9.1	1005	8.5	0	0	68
2026-02-27T22:23	9.1	1005	8.3	0	0	68
2026-02-27T22:24	9.1	1005	8.3	0	0	68
2026-02-27T22:25	9.2	1005	8.3	220	0	67
2026-02-27T22:26	9.3	1005	8.4	240	0	67
2026-02-27T22:27	9.3	1005	8.4	250	1	68
2026-02-27T22:28	9.3	1005	8.4	250	1	68
2026-02-27T22:29	9.4	1005	8.5	260	1	68
2026-02-27T22:30	9.3	1005	8.4	260	1	68
2026-02-27T22:31	9.4	1005	8.3	260	1	68
2026-02-27T22:32	9.5	1006	8.6	250	1	69
2026-02-27T22:33	9.5	1006	8.6	250	1	69
2026-02-27T22:34	9.5	1006	8.4	250	1	69
2026-02-27T22:35	9.5	1006	8.4	250	0	70
2026-02-27T22:36	9.5	1006	8.4	250	0	70
2026-02-27T22:37	9.5	1006	8.4	250	0	70
2026-02-27T22:38	9.6	1006	8.4	260	0	70
2026-02-27T22:39	9.7	1006	8.6	260	0	70
2026-02-27T22:40	9.7	1006	8.6	250	0	70
2026-02-27T22:41	9.7	1006	8.5	260	0	70
2026-02-27T22:42	9.8	1006	8.7	260	1	70
2026-02-27T22:43	9.8	1006	8.7	270	1	70
2026-02-27T22:44	9.8	1006	8.7	280	1	70
2026-02-27T22:45	9.8	1006	8.7	290	1	70
2026-02-27T22:46	9.8	1006	8.6	290	1	70
2026-02-27T22:47	9.9	1006	8.7	300	1	70
2026-02-27T22:48	9.9	1006	8.7	310	1	70
2026-02-27T22:49	9.9	1006	8.7	320	1	70
2026-02-27T22:50	9.9	1006	8.5	330	1	70
2026-02-27T22:51	9.9	1006	8.3	340	1	70
2026-02-27T22:52	9.9	1006	8.3	340	1	70
2026-02-27T22:53	9.9	1006	8.2	340	1	70
2026-02-27T22:54	10.0	1006	8.3	340	0	70
2026-02-27T22:55	10.0	1006	8.3	350	0	70
2026-02-27T22:56	10.1	1005	8.4	360	0	70
2026-02-27T22:57	10.1	1005	8.4	360	0	69
2026-02-27T22:58	10.1	1005	8.4	360	0	69
2026-02-27T22:59	10.2	1005	8.5	360	0	68
2026-02-27T23:00	10.2	1005	8.5	10	0	68
2026-02-27T23:01	10.2	1005	8.3	20	0	67
2026-02-27T23:02	10.2	1005	8.3	40	0	66
2026-02-27T23:03	10.3	1005	8.2	60	1	66
2026-02-27T23:04	10.3	1005	8.4	60	1	65
2026-02-27T23:05	10.4	1005	8.5	70	1	64
2026-02-27T23:06	10.4	1005	8.3	70	1	64
2026-02-27T23:07	10.5	1005	8.4	80	1	63
2026-02-27T23:08	10.5	1005	8.4	80	1	63
2026-02-27T23:09	10.5	1005	8.4	80	1	63
2026-02-27T23:10	10.5	1005	8.3	70	1	62
2026-02-27T23:11	10.7	1005	8.6	70	1	62
2026-02-27T23:12	10.7	1005	8.6	60	1	62
2026-02-27T23:13	10.7	1005	8.5	60	1	62
2026-02-27T23:14	10.7	1005	8.5	60	1	62
2026-02-27T23:15	10.8	1005	8.7	60	1	63
2026-02-27T23:16	10.9	1005	8.8	60	1	63
2026-02-27T23:17	11.0	1005	8.9	60	1	63
2026-02-27T23:18	10.9	1005	8.7	70	1	63
2026-02-27T23:19	10.9	1005	8.7	70	1	63
2026-02-27T23:20	10.9	1005	8.7	70	1	63
2026-02-27T23:21	10.9	1005	8.7	70	1	64
2026-02-27T23:22	10.9	1005	8.5	60	1	64
2026-02-27T23:23	11.0	1005	8.8	60	1	63
2026-02-27T23:24	11.0	1005	8.6	70	1	63
2026-02-27T23:25	10.9	1005	8.5	70	1	63
2026-02-27T23:26	10.9	1005	8.5	60	1	63
2026-02-27T23:27	11.0	1005	8.6	60	1	64
2026-02-27T23:28	11.0	1005	8.6	60	1	64
2026-02-27T23:29	10.9	1005	8.5	60	2	64
2026-02-27T23:30	11.0	1005	8.6	60	2	64
2026-02-27T23:31	11.0	1006	8.8	60	1	64
2026-02-27T23:32	11.0	1006	8.6	70	1	64
2026-02-27T23:33	11.1	1006	8.9	70	1	64
2026-02-27T23:34	11.2	1006	9.0	70	1	64
2026-02-27T23:35	11.1	1006	8.7	70	1	64
2026-02-27T23:36	11.0	1006	8.6	70	1	64
2026-02-27T23:37	11.0	1006	8.6	60	1	65
2026-02-27T23:38	11.1	1005	8.9	60	1	65
2026-02-27T23:39	11.2	1005	9.0	60	1	65
2026-02-27T23:40	11.2	1005	9.0	50	1	64
2026-02-27T23:41	11.1	1005	8.7	50	1	64
2026-02-27T23:42	11.3	1005	9.1	50	1	63
2026-02-27T23:43	11.3	1005	9.1	60	1	62
2026-02-27T23:44	11.4	1005	9.0	50	1	61
2026-02-27T23:45	11.4	1005	9.0	50	1	60
2026-02-27T23:46	11.3	1005	8.7	50	1	59
2026-02-27T23:47	11.4	1005	9.0	60	1	59
2026-02-27T23:48	11.5	1005	9.1	60	1	58
2026-02-27T23:49	11.5	1005	9.1	60	1	57
2026-02-27T23:50	11.5	1005	8.9	60	1	57
2026-02-27T23:51	11.4	1005	8.8	60	1	57
2026-02-27T23:52	11.5	1005	8.9	60	1	57
2026-02-27T23:53	11.5	1005	8.9	60	1	56
2026-02-27T23:54	11.5	1005	8.9	60	1	56
2026-02-27T23:55	11.5	1005	8.9	50	1	56
2026-02-27T23:56	11.5	1005	8.9	40	0	56
2026-02-27T23:57	11.5	1005	8.9	50	0	55
2026-02-27T23:58	12.0	1005	9.6	60	0	55
2026-02-27T23:59	12.0	1005	9.4	50	0	55
2026-02-28T00:00	11.9	1006	8.9	50	0	55
2026-02-28T00:01	12.2	1005	9.4	40	0	55
2026-02-28T00:02	12.0	1005	9.0	10	1	55
2026-02-28T00:03	12.2	1005	9.2	340	1	55
2026-02-28T00:04	12.1	1005	9.1	320	1	55
2026-02-28T00:05	12.2	1006	9.2	310	1	55
2026-02-28T00:06	12.3	1006	9.3	300	1	55
2026-02-28T00:07	12.2	1006	9.0	290	1	55
2026-02-28T00:08	12.2	1006	9.0	280	1	55
2026-02-28T00:09	12.2	1006	9.0	270	1	55
2026-02-28T00:10	12.1	1006	8.9	260	1	55
2026-02-28T00:11	12.2	1006	9.0	250	1	56
2026-02-28T00:12	12.4	1006	9.2	240	1	56
2026-02-28T00:13	12.3	1006	9.1	240	1	56
2026-02-28T00:14	12.4	1006	9.2	230	1	56
2026-02-28T00:15	12.3	1006	9.0	210	1	56
2026-02-28T00:16	12.4	1006	9.2	220	1	56
2026-02-28T00:17	12.5	1006	9.3	220	1	56
2026-02-28T00:18	12.6	1006	9.4	220	1	56
2026-02-28T00:19	12.7	1006	9.4	220	1	56
2026-02-28T00:20	12.7	1006	9.2	210	1	56
2026-02-28T00:21	12.8	1006	9.3	200	1	56
2026-02-28T00:22	12.9	1006	9.4	200	1	56
2026-02-28T00:23	12.7	1006	9.0	80	1	57
2026-02-28T00:24	12.6	1006	8.9	50	1	57
2026-02-28T00:25	12.8	1006	9.3	300	1	57
2026-02-28T00:26	13.0	1006	9.3	300	1	57
2026-02-28T00:27	13.2	1006	9.5	300	1	57
2026-02-28T00:28	13.2	1006	9.3	290	1	57
2026-02-28T00:29	13.1	1006	9.0	290	1	57
2026-02-28T00:30	13.0	1006	8.9	300	1	57
2026-02-28T00:31	13.2	1006	9.3	290	1	58
2026-02-28T00:32	13.3	1006	9.2	280	1	58
2026-02-28T00:33	13.7	1006	9.8	270	1	58
2026-02-28T00:34	13.8	1006	9.7	270	1	58
2026-02-28T00:35	13.7	1006	9.2	270	1	59
2026-02-28T00:36	14.0	1006	9.7	280	0	59
2026-02-28T00:37	14.1	1006	9.1	30	1	59
2026-02-28T00:38	14.0	1006	9.0	60	1	60
2026-02-28T00:39	14.1	1006	9.3	350	1	60
2026-02-28T00:40	14.6	1005	9.6	40	1	61
2026-02-28T00:41	14.5	1005	9.3	60	1	61
2026-02-28T00:42	14.9	1005	9.9	80	1	61
2026-02-28T00:43	15.1	1005	9.7	80	1	61
2026-02-28T00:44	14.8	1005	9.0	80	1	61
2026-02-28T00:45	14.8	1005	8.7	90	1	62
2026-02-28T00:46	15.0	1006	8.9	90	1	63
2026-02-28T00:47	14.7	1006	8.2	70	1	63
2026-02-28T00:48	14.7	1006	8.4	70	1	63
2026-02-28T00:49	14.6	1006	8.1	60	1	64
2026-02-28T00:50	15.0	1006	8.7	60	1	64
2026-02-28T00:51	14.9	1006	8.4	50	1	66
2026-02-28T00:52	14.9	1006	8.4	50	1	69
2026-02-28T00:53	15.0	1006	8.5	60	1	69
2026-02-28T00:54	15.1	1006	8.6	70	1	69
2026-02-28T00:55	15.0	1006	8.0	60	1	69
2026-02-28T00:56	15.1	1006	8.4	70	1	70
2026-02-28T00:57	15.1	1006	8.4	80	1	70
2026-02-28T00:58	15.2	1006	8.4	90	1	70
2026-02-28T00:59	14.9	1006	8.2	90	1	70
2026-02-28T01:00	14.8	1006	8.1	90	1	70
2026-02-28T01:01	14.8	1006	7.8	80	1	70
2026-02-28T01:02	15.1	1005	8.1	70	1	70
2026-02-28T01:03	15.4	1005	8.2	60	1	70
2026-02-28T01:04	15.6	1005	7.9	60	1	70
2026-02-28T01:05	15.4	1005	7.2	50	1	70
2026-02-28T01:06	15.4	1005	7.2	50	1	70
2026-02-28T01:07	15.2	1005	7.0	50	1	70
2026-02-28T01:08	15.5	1005	7.5	50	1	70
2026-02-28T01:09	15.6	1005	7.4	60	1	70
2026-02-28T01:10	15.6	1005	7.6	70	1	70
2026-02-28T01:11	15.9	1005	7.9	80	1	70
2026-02-28T01:12	16.0	1005	7.8	80	1	70
2026-02-28T01:13	15.7	1005	7.5	80	2	70
2026-02-28T01:14	15.6	1005	7.6	80	2	70
2026-02-28T01:15	15.7	1005	8.0	90	2	70
2026-02-28T01:16	15.4	1005	7.4	90	2	70
2026-02-28T01:17	15.5	1005	7.8	90	2	70
2026-02-28T01:18	15.9	1005	8.2	90	2	70
2026-02-28T01:19	15.9	1005	7.9	80	2	70
2026-02-28T01:20	15.7	1005	7.7	70	2	70
2026-02-28T01:21	15.3	1005	7.4	70	2	70
2026-02-28T01:22	15.3	1005	7.6	80	1	70
2026-02-28T01:23	15.9	1005	8.2	280	2	70
2026-02-28T01:24	15.8	1005	7.8	230	1	70
2026-02-28T01:25	16.4	1005	8.4	140	1	70
2026-02-28T01:26	16.4	1005	8.1	210	1	70
2026-02-28T01:27	16.1	1005	7.6	240	1	70
2026-02-28T01:28	16.0	1005	7.8	240	1	70
2026-02-28T01:29	16.2	1005	7.9	230	2	70
2026-02-28T01:30	16.3	1005	8.0	230	2	70
2026-02-28T01:31	16.2	1005	7.9	220	2	70
2026-02-28T01:32	16.3	1005	8.0	230	2	70
2026-02-28T01:33	16.1	1005	7.6	230	2	70
2026-02-28T01:34	16.1	1005	7.6	230	2	70
2026-02-28T01:35	16.1	1005	7.9	230	2	70
2026-02-28T01:36	16.0	1005	7.5	230	2	70
2026-02-28T01:37	15.9	1005	7.7	240	2	70
2026-02-28T01:38	16.1	1005	7.9	230	2	70
2026-02-28T01:39	16.4	1005	8.1	230	2	70
2026-02-28T01:40	16.4	1005	7.9	230	2	70
2026-02-28T01:41	16.5	1005	8.0	230	2	70
2026-02-28T01:42	16.2	1005	7.4	230	2	70
2026-02-28T01:43	16.6	1005	8.1	230	2	70
2026-02-28T01:44	16.5	1005	8.0	220	2	70
2026-02-28T01:45	17.6	1005	9.0	220	2	70
2026-02-28T01:46	17.5	1005	8.4	210	2	70
2026-02-28T01:47	17.1	1005	7.7	210	2	70
2026-02-28T01:48	16.7	1005	7.4	220	2	70
2026-02-28T01:49	16.5	1005	7.4	220	2	70
2026-02-28T01:50	16.7	1005	7.9	230	2	70
2026-02-28T01:51	16.6	1005	7.5	230	2	70
2026-02-28T01:52	16.2	1005	7.2	260	2	70
2026-02-28T01:53	16.1	1005	7.3	280	1	70
2026-02-28T01:54	16.1	1005	7.3	310	1	70
2026-02-28T01:55	16.5	1005	8.0	340	1	70
2026-02-28T01:56	16.8	1005	8.2	360	1	70
2026-02-28T01:57	16.5	1005	7.4	20	1	70
2026-02-28T01:58	16.6	1005	7.8	30	1	70
2026-02-28T01:59	16.6	1005	7.8	40	1	70
2026-02-28T02:00	16.9	1005	8.1	40	1	70
2026-02-28T02:01	16.9	1005	8.1	30	1	70
2026-02-28T02:02	16.5	1005	7.7	290	1	70
2026-02-28T02:03	16.6	1005	7.8	270	1	70
2026-02-28T02:04	17.0	1005	8.4	260	1	70
2026-02-28T02:05	17.0	1005	8.2	270	1	70
2026-02-28T02:06	16.6	1005	7.5	260	1	70
2026-02-28T02:07	16.6	1005	7.8	260	2	70
2026-02-28T02:08	16.8	1006	8.0	260	2	70
2026-02-28T02:09	17.3	1006	8.5	260	2	70
2026-02-28T02:10	17.6	1006	8.5	260	2	70
2026-02-28T02:11	17.9	1006	8.7	260	2	70
2026-02-28T02:12	17.3	1006	7.6	260	2	70
2026-02-28T02:13	16.9	1006	7.3	260	2	70
2026-02-28T02:14	16.7	1006	7.4	260	2	70
2026-02-28T02:15	16.6	1005	7.3	270	2	70
2026-02-28T02:16	17.0	1005	7.9	270	2	70
2026-02-28T02:17	16.8	1005	7.5	280	2	70
2026-02-28T02:18	17.1	1005	8.0	290	2	70
2026-02-28T02:19	17.3	1005	8.2	300	2	70
2026-02-28T02:20	17.1	1005	8.0	300	1	70
2026-02-28T02:21	17.1	1005	8.0	60	1	70
2026-02-28T02:22	17.4	1005	8.3	110	1	70
2026-02-28T02:23	17.4	1005	8.0	200	1	70
2026-02-28T02:24	17.4	1005	8.3	280	1	70
2026-02-28T02:25	17.4	1005	8.3	260	1	70
2026-02-28T02:26	17.4	1005	8.3	250	2	70
2026-02-28T02:27	17.2	1005	8.1	230	2	70
2026-02-28T02:28	17.1	1005	8.0	220	2	70
2026-02-28T02:29	17.1	1005	8.0	220	2	70
2026-02-28T02:30	17.2	1005	8.1	230	2	70
2026-02-28T02:31	17.3	1005	7.9	230	2	70
2026-02-28T02:32	17.4	1005	8.0	230	1	70
2026-02-28T02:33	17.4	1005	8.0	230	1	70
2026-02-28T02:34	17.5	1005	7.8	240	1	70
2026-02-28T02:35	17.5	1005	7.8	240	1	70
2026-02-28T02:36	17.4	1005	7.5	260	1	70
2026-02-28T02:37	17.2	1005	7.6	270	1	70
2026-02-28T02:38	17.4	1005	7.7	300	1	70
2026-02-28T02:39	17.2	1005	7.6	320	1	70
2026-02-28T02:40	17.4	1005	7.7	320	2	70
2026-02-28T02:41	17.3	1005	7.6	340	2	70
2026-02-28T02:42	17.6	1005	7.9	340	2	70
2026-02-28T02:43	17.4	1005	7.7	350	2	70
2026-02-28T02:44	17.6	1005	7.9	350	2	70
2026-02-28T02:45	17.6	1005	7.9	350	2	70
2026-02-28T02:46	17.5	1005	7.6	360	2	70
2026-02-28T02:47	17.5	1005	7.6	10	2	70
2026-02-28T02:48	17.5	1005	7.8	10	2	70
2026-02-28T02:49	17.7	1005	8.0	10	2	70
2026-02-28T02:50	17.8	1005	7.8	10	1	70
2026-02-28T02:51	17.9	1005	7.6	10	1	70
2026-02-28T02:52	18.2	1005	7.9	360	2	70
2026-02-28T02:53	18.5	1005	8.2	350	2	70
2026-02-28T02:54	18.6	1005	8.0	340	2	70
2026-02-28T02:55	18.2	1005	7.3	320	2	70
2026-02-28T02:56	18.0	1005	7.1	310	2	70
2026-02-28T02:57	17.9	1005	7.1	300	2	70
2026-02-28T02:58	17.9	1005	7.4	300	2	70
2026-02-28T02:59	18.2	1005	7.6	300	2	70
2026-02-28T03:00	18.0	1005	7.4	300	2	70
2026-02-28T03:01	18.1	1005	7.8	300	2	70
2026-02-28T03:02	18.5	1005	8.2	300	2	70
2026-02-28T03:03	18.0	1005	7.1	300	2	70
2026-02-28T03:04	17.9	1005	7.4	310	2	70
2026-02-28T03:05	17.8	1005	7.0	310	2	70
2026-02-28T03:06	17.8	1005	7.3	310	2	70
2026-02-28T03:07	17.7	1005	7.2	310	2	70
2026-02-28T03:08	18.0	1005	7.7	310	2	70
2026-02-28T03:09	17.9	1005	7.4	320	2	70
2026-02-28T03:10	17.4	1005	6.9	320	2	70
2026-02-28T03:11	17.3	1005	6.8	330	2	70
2026-02-28T03:12	17.3	1005	7.1	330	2	70
2026-02-28T03:13	17.2	1005	7.0	340	1	70
2026-02-28T03:14	17.3	1005	7.1	350	1	70
2026-02-28T03:15	17.6	1005	7.4	360	1	70
2026-02-28T03:16	17.9	1005	7.6	120	1	70
2026-02-28T03:17	18.2	1005	7.6	50	1	70
2026-02-28T03:18	18.4	1005	7.8	70	1	70
2026-02-28T03:19	18.7	1005	7.8	100	1	70
2026-02-28T03:20	18.6	1005	7.4	120	1	70
2026-02-28T03:21	18.4	1005	7.2	140	1	70
2026-02-28T03:22	18.4	1005	7.2	150	1	70
2026-02-28T03:23	17.8	1005	6.7	180	1	70
2026-02-28T03:24	18.6	1005	8.0	190	1	70
2026-02-28T03:25	18.4	1005	7.2	210	1	70
2026-02-28T03:26	19.0	1005	8.1	210	1	70
2026-02-28T03:27	19.2	1005	7.9	230	1	70
2026-02-28T03:28	19.0	1005	7.8	240	2	70
2026-02-28T03:29	18.9	1005	7.4	250	2	70
2026-02-28T03:30	18.6	1005	7.1	250	2	70
2026-02-28T03:31	18.8	1005	7.3	250	2	70
2026-02-28T03:32	19.3	1005	8.0	240	2	70
2026-02-28T03:33	19.4	1005	7.5	250	2	70
2026-02-28T03:34	18.9	1005	7.0	260	2	70
2026-02-28T03:35	19.3	1005	7.7	270	3	70
2026-02-28T03:36	19.6	1005	7.7	290	3	70
2026-02-28T03:37	19.1	1005	6.9	300	3	70
2026-02-28T03:38	18.8	1005	7.0	310	3	70
2026-02-28T03:39	19.0	1005	7.5	320	3	70
2026-02-28T03:40	19.6	1005	7.7	320	3	70
2026-02-28T03:41	19.5	1005	7.6	320	3	70
2026-02-28T03:42	19.5	1005	7.3	320	3	70
2026-02-28T03:43	19.9	1005	8.0	320	3	70
2026-02-28T03:44	19.1	1005	6.9	320	2	70
2026-02-28T03:45	18.5	1005	6.4	310	2	70
2026-02-28T03:46	18.8	1005	7.3	300	2	70
2026-02-28T03:47	18.7	1005	6.9	280	2	70
2026-02-28T03:48	18.8	1005	7.3	170	2	70
2026-02-28T03:49	19.0	1005	7.5	240	2	70
2026-02-28T03:50	19.1	1005	7.5	240	2	70
2026-02-28T03:51	19.5	1005	7.9	220	1	70
2026-02-28T03:52	19.0	1005	7.1	210	1	70
2026-02-28T03:53	18.4	1005	6.6	200	1	70
2026-02-28T03:54	18.5	1005	7.3	190	1	70
2026-02-28T03:55	18.9	1005	7.7	180	1	70
2026-02-28T03:56	19.1	1005	7.5	170	1	70
2026-02-28T03:57	18.6	1005	7.1	180	1	70
2026-02-28T03:58	19.1	1005	7.9	200	1	70
2026-02-28T03:59	19.5	1005	8.2	210	2	70
2026-02-28T04:00	19.4	1005	7.8	220	2	70
2026-02-28T04:01	19.4	1005	7.8	230	2	70
2026-02-28T04:02	19.1	1005	7.2	240	2	70
2026-02-28T04:03	19.1	1005	7.5	250	2	70
2026-02-28T04:04	19.1	1005	7.2	250	2	70
2026-02-28T04:05	19.2	1005	7.3	270	2	70
2026-02-28T04:06	19.7	1005	8.1	290	2	70
2026-02-28T04:07	20.0	1005	8.0	280	2	70
2026-02-28T04:08	19.8	1005	7.5	270	2	70
2026-02-28T04:09	19.9	1005	7.6	270	2	70
2026-02-28T04:10	20.1	1005	7.8	270	2	70
2026-02-28T04:11	19.9	1005	7.3	280	2	70
2026-02-28T04:12	19.9	1005	7.3	280	2	70
2026-02-28T04:13	19.7	1005	7.1	280	3	70
2026-02-28T04:14	19.9	1005	7.3	290	3	70
2026-02-28T04:15	19.4	1005	6.9	290	3	70
2026-02-28T04:16	19.3	1005	6.8	290	3	70
2026-02-28T04:17	19.6	1005	7.4	280	3	70
2026-02-28T04:18	20.0	1005	7.7	290	3	70
2026-02-28T04:19	19.5	1005	6.6	290	3	70
2026-02-28T04:20	19.1	1005	6.3	290	3	70
2026-02-28T04:21	19.2	1005	6.7	300	3	70
2026-02-28T04:22	19.7	1005	7.1	300	3	70
2026-02-28T04:23	19.8	1005	7.2	300	2	70
2026-02-28T04:24	19.6	1005	6.7	300	2	70
2026-02-28T04:25	19.8	1005	6.9	310	2	70
2026-02-28T04:26	19.8	1005	6.9	310	3	70
2026-02-28T04:27	19.6	1005	6.7	320	3	70
2026-02-28T04:28	19.9	1005	7.3	320	3	70
2026-02-28T04:29	19.9	1005	7.3	320	3	70
2026-02-28T04:30	20.4	1005	7.8	320	3	70
2026-02-28T04:31	20.1	1005	6.8	320	3	70
2026-02-28T04:32	19.7	1005	6.5	320	3	70
2026-02-28T04:33	19.6	1005	6.7	310	3	70
2026-02-28T04:34	20.5	1005	7.8	300	3	70
2026-02-28T04:35	20.3	1005	7.0	300	3	70
2026-02-28T04:36	20.1	1005	6.5	300	3	70
2026-02-28T04:37	19.9	1005	6.3	290	3	70
2026-02-28T04:38	20.3	1005	7.0	290	3	70
2026-02-28T04:39	20.2	1005	6.6	280	3	70
2026-02-28T04:40	20.5	1005	7.2	280	3	69
2026-02-28T04:41	20.5	1005	7.2	270	3	69
2026-02-28T04:42	20.7	1005	7.4	270	4	68
2026-02-28T04:43	20.3	1005	6.6	280	4	67
2026-02-28T04:44	20.3	1005	6.6	280	4	66
2026-02-28T04:45	20.1	1005	6.5	280	4	68
2026-02-28T04:46	20.4	1005	7.1	280	4	70
2026-02-28T04:47	20.7	1005	7.4	280	4	70
2026-02-28T04:48	20.4	1005	6.7	280	4	70
2026-02-28T04:49	20.5	1005	6.8	280	4	70
2026-02-28T04:50	20.7	1005	7.4	280	4	70
2026-02-28T04:51	20.4	1005	6.4	280	4	70
2026-02-28T04:52	20.0	1005	6.0	280	4	70
2026-02-28T04:53	19.9	1005	5.9	280	4	70
2026-02-28T04:54	20.2	1005	6.9	280	4	70
2026-02-28T04:55	20.8	1005	7.4	280	4	70
2026-02-28T04:56	20.7	1005	7.0	280	4	70
2026-02-28T04:57	20.7	1005	7.0	280	4	70
2026-02-28T04:58	20.6	1005	6.6	280	4	70
2026-02-28T04:59	20.3	1005	6.3	290	4	70
2026-02-28T05:00	20.4	1005	6.4	290	4	70
2026-02-28T05:01	20.3	1005	6.3	290	4	70
2026-02-28T05:02	20.4	1005	6.4	290	4	70
2026-02-28T05:03	20.7	1005	7.0	300	4	70
2026-02-28T05:04	20.4	1005	6.4	300	3	70
2026-02-28T05:05	20.1	1005	6.1	300	3	70
2026-02-28T05:06	20.3	1005	6.6	310	3	70
2026-02-28T05:07	20.7	1005	7.0	310	3	70
2026-02-28T05:08	20.2	1005	5.8	310	3	70
2026-02-28T05:09	20.3	1005	6.6	310	3	70
2026-02-28T05:10	20.6	1005	6.6	300	3	70
2026-02-28T05:11	20.3	1005	6.3	300	3	70
2026-02-28T05:12	20.3	1005	6.3	310	3	70
2026-02-28T05:13	20.4	1005	6.7	310	3	70
2026-02-28T05:14	20.6	1005	6.6	310	3	70
2026-02-28T05:15	20.7	1005	6.6	310	4	70
2026-02-28T05:16	20.5	1005	6.5	310	4	70
2026-02-28T05:17	20.7	1005	6.6	300	4	70
2026-02-28T05:18	20.5	1005	6.5	300	4	70
2026-02-28T05:19	20.3	1005	6.3	300	4	70
2026-02-28T05:20	20.4	1005	6.4	300	4	70
2026-02-28T05:21	20.7	1005	6.6	300	4	70
2026-02-28T05:22	20.8	1005	6.7	300	4	70
2026-02-28T05:23	20.7	1005	6.6	290	4	70
2026-02-28T05:24	20.6	1005	6.6	290	4	70
2026-02-28T05:25	20.4	1005	6.0	300	4	70
2026-02-28T05:26	20.3	1005	6.3	300	3	70
2026-02-28T05:27	20.2	1005	6.2	300	3	70
2026-02-28T05:28	20.4	1005	6.7	300	3	70
2026-02-28T05:29	20.1	1005	6.1	300	3	70
2026-02-28T05:30	20.0	1005	6.4	300	3	70
2026-02-28T05:31	20.0	1005	6.4	290	4	70
2026-02-28T05:32	20.4	1005	6.7	300	4	70
2026-02-28T05:33	20.5	1005	6.8	290	4	70
2026-02-28T05:34	20.6	1005	6.9	290	4	70
2026-02-28T05:35	20.4	1005	6.4	290	4	70
2026-02-28T05:36	20.5	1005	6.5	290	3	70
2026-02-28T05:37	20.4	1005	6.4	290	3	70
2026-02-28T05:38	20.3	1005	6.3	290	3	70
2026-02-28T05:39	20.5	1005	6.8	300	3	70
2026-02-28T05:40	20.8	1005	7.1	300	3	70
2026-02-28T05:41	21.0	1005	6.9	300	3	70
2026-02-28T05:42	20.9	1005	6.8	300	3	70
2026-02-28T05:43	20.7	1005	6.6	300	3	70
2026-02-28T05:44	20.6	1005	6.2	300	3	70
2026-02-28T05:45	20.6	1005	6.6	290	3	70
2026-02-28T05:46	20.7	1005	6.6	290	4	70
2026-02-28T05:47	20.8	1005	6.7	280	4	70
2026-02-28T05:48	20.6	1005	6.2	280	4	70
2026-02-28T05:49	20.5	1005	6.5	280	4	70
2026-02-28T05:50	20.4	1005	6.0	280	4	70
2026-02-28T05:51	20.5	1005	6.1	280	4	70
2026-02-28T05:52	20.3	1005	5.9	290	4	70
2026-02-28T05:53	20.2	1005	5.8	290	4	70
2026-02-28T05:54	20.3	1005	5.9	300	3	70
2026-02-28T05:55	20.4	1005	6.4	300	3	70
2026-02-28T05:56	20.4	1005	6.4	300	3	70
2026-02-28T05:57	20.2	1005	6.2	310	3	70
2026-02-28T05:58	19.9	1005	5.9	310	3	70
2026-02-28T05:59	19.8	1006	5.8	320	3	70
2026-02-28T06:00	20.1	1006	6.5	320	3	70
2026-02-28T06:01	20.2	1006	6.2	320	3	70
2026-02-28T06:02	20.2	1006	6.6	320	3	70
2026-02-28T06:03	20.1	1006	6.1	310	3	70
2026-02-28T06:04	20.1	1006	6.1	310	3	70
2026-02-28T06:05	20.0	1006	6.0	310	3	70
2026-02-28T06:06	19.8	1006	5.8	310	3	70
2026-02-28T06:07	19.6	1006	5.7	310	3	70
2026-02-28T06:08	19.6	1006	5.7	310	3	70
2026-02-28T06:09	19.9	1006	6.3	310	3	70
2026-02-28T06:10	20.1	1006	6.5	310	3	70
2026-02-28T06:11	20.1	1006	6.5	310	3	70
2026-02-28T06:12	20.1	1006	6.1	310	3	70
2026-02-28T06:13	20.1	1006	6.1	310	3	70
2026-02-28T06:14	20.2	1006	6.2	310	3	70
2026-02-28T06:15	20.1	1006	5.7	310	3	70
2026-02-28T06:16	20.2	1006	6.2	310	3	70
2026-02-28T06:17	20.3	1006	6.3	310	3	70
2026-02-28T06:18	20.5	1006	6.5	300	3	70
2026-02-28T06:19	20.5	1006	6.1	300	3	70
2026-02-28T06:20	20.7	1006	6.6	300	3	70
2026-02-28T06:21	20.9	1006	6.8	300	3	70
2026-02-28T06:22	21.3	1006	6.8	300	2	70
2026-02-28T06:23	20.9	1006	6.1	300	2	70
2026-02-28T06:24	20.9	1006	6.5	290	2	70
2026-02-28T06:25	21.0	1006	6.5	290	2	70
2026-02-28T06:26	20.9	1006	6.5	290	2	70
2026-02-28T06:27	20.6	1006	6.2	300	2	70
2026-02-28T06:28	20.5	1006	6.1	300	2	70
2026-02-28T06:29	20.7	1006	6.3	300	2	70
2026-02-28T06:30	20.3	1006	5.9	310	2	70
2026-02-28T06:31	19.6	1006	7.7	320	2	70
2026-02-28T06:32	18.8	1006	8.5	80	2	70
2026-02-28T06:33	18.0	1006	8.6	90	2	70
2026-02-28T06:34	17.6	1006	9.0	40	2	70
2026-02-28T06:35	17.4	1006	9.1	50	2	70
2026-02-28T06:36	17.2	1006	9.1	70	2	70
2026-02-28T06:37	17.2	1006	9.4	80	2	70
2026-02-28T06:38	17.2	1006	9.6	80	2	70
2026-02-28T06:39	17.2	1006	9.6	80	2	70
2026-02-28T06:40	17.2	1006	9.6	80	2	70
2026-02-28T06:41	17.3	1006	9.7	80	2	70
2026-02-28T06:42	17.5	1006	9.9	80	2	70
2026-02-28T06:43	17.6	1006	10.0	80	2	70
2026-02-28T06:44	17.4	1006	9.8	80	2	70
2026-02-28T06:45	17.4	1006	9.8	80	2	70
2026-02-28T06:46	17.3	1006	9.7	80	2	70
2026-02-28T06:47	17.3	1006	9.5	80	2	70
2026-02-28T06:48	17.3	1006	9.5	90	2	70
2026-02-28T06:49	17.3	1006	9.7	90	2	70
2026-02-28T06:50	17.2	1006	9.6	80	2	70
2026-02-28T06:51	17.1	1006	9.8	80	2	70
2026-02-28T06:52	17.0	1006	9.7	80	1	70
2026-02-28T06:53	16.9	1006	9.8	80	1	70
2026-02-28T06:54	16.7	1006	9.6	80	1	70
2026-02-28T06:55	16.6	1006	9.8	80	2	70
2026-02-28T06:56	16.6	1006	9.8	80	1	70
2026-02-28T06:57	16.5	1006	9.7	80	2	70
2026-02-28T06:58	16.5	1007	9.9	80	2	70
2026-02-28T06:59	16.5	1007	9.9	80	2	70
2026-02-28T07:00	16.6	1007	10.0	80	2	70
2026-02-28T07:01	16.7	1007	10.1	90	2	70
2026-02-28T07:02	16.7	1007	10.1	80	2	70
2026-02-28T07:03	16.6	1007	9.8	80	1	70
2026-02-28T07:04	16.5	1007	9.9	80	1	70
2026-02-28T07:05	16.5	1007	9.9	80	1	70
2026-02-28T07:06	16.5	1007	9.9	80	1	70
2026-02-28T07:07	16.5	1007	9.9	80	1	70
2026-02-28T07:08	16.7	1007	10.1	90	1	70
2026-02-28T07:09	16.8	1007	10.2	90	1	70
2026-02-28T07:10	17.0	1007	10.4	90	1	70
2026-02-28T07:11	17.0	1007	10.2	80	1	70
2026-02-28T07:12	17.0	1007	10.2	90	1	70
2026-02-28T07:13	16.9	1007	10.1	90	1	70
2026-02-28T07:14	16.9	1007	10.1	80	1	70
2026-02-28T07:15	16.9	1007	10.1	80	1	70
2026-02-28T07:16	17.0	1007	10.2	90	1	70
2026-02-28T07:17	17.0	1007	9.9	90	1	70
2026-02-28T07:18	16.9	1007	9.8	90	1	70
2026-02-28T07:19	17.1	1007	10.0	90	1	70
2026-02-28T07:20	17.1	1007	9.8	100	1	70
2026-02-28T07:21	17.1	1007	9.8	140	1	70
2026-02-28T07:22	16.9	1007	9.6	160	1	70
2026-02-28T07:23	17.1	1007	9.8	190	1	70
2026-02-28T07:24	17.3	1007	10.0	210	1	70
2026-02-28T07:25	17.2	1007	9.6	200	1	70
2026-02-28T07:26	17.2	1007	9.6	200	1	70
2026-02-28T07:27	17.3	1007	10.0	210	1	70
2026-02-28T07:28	17.5	1007	10.2	210	1	70
2026-02-28T07:29	17.4	1007	9.8	210	1	70
2026-02-28T07:30	17.3	1007	9.5	220	1	70
2026-02-28T07:31	17.4	1007	9.8	230	1	70
2026-02-28T07:32	17.4	1007	9.8	230	1	70
2026-02-28T07:33	17.3	1007	9.5	230	1	70
2026-02-28T07:34	17.4	1007	9.6	230	1	70
2026-02-28T07:35	17.5	1007	9.7	240	1	70
2026-02-28T07:36	17.5	1007	9.4	240	1	70
2026-02-28T07:37	17.6	1007	9.5	250	1	70
2026-02-28T07:38	17.6	1007	9.8	240	1	70
2026-02-28T07:39	17.4	1007	9.1	240	1	70
2026-02-28T07:40	17.4	1007	9.1	230	1	70
2026-02-28T07:41	17.3	1007	9.2	230	1	70
2026-02-28T07:42	17.4	1007	9.6	220	1	70
2026-02-28T07:43	17.4	1007	9.6	210	1	70
2026-02-28T07:44	17.4	1007	9.6	190	1	70
2026-02-28T07:45	17.4	1007	9.6	170	1	70
2026-02-28T07:46	17.2	1007	9.4	160	1	70
2026-02-28T07:47	17.3	1007	9.7	160	1	70
2026-02-28T07:48	17.3	1007	10.0	150	1	70
2026-02-28T07:49	17.1	1007	9.8	140	1	70
2026-02-28T07:50	17.1	1008	9.8	140	1	70
2026-02-28T07:51	17.1	1008	9.8	130	1	70
2026-02-28T07:52	17.1	1008	9.8	140	1	70
2026-02-28T07:53	17.1	1008	9.8	140	1	70
2026-02-28T07:54	17.1	1008	9.8	140	1	70
2026-02-28T07:55	17.1	1008	9.8	140	1	70
2026-02-28T07:56	17.1	1008	9.8	140	1	70
2026-02-28T07:57	17.1	1008	9.5	130	1	70
2026-02-28T07:58	17.1	1008	9.5	130	1	70
2026-02-28T07:59	17.2	1008	9.6	130	1	70
2026-02-28T08:00	17.1	1008	9.8	130	1	70
2026-02-28T08:01	17.1	1008	9.8	140	1	70
2026-02-28T08:02	17.1	1008	9.8	140	1	70
2026-02-28T08:03	17.1	1008	9.5	140	1	70
2026-02-28T08:04	17.1	1008	9.5	140	1	70
2026-02-28T08:05	17.0	1008	9.4	150	1	70
2026-02-28T08:06	17.0	1008	9.4	150	1	70
2026-02-28T08:07	17.0	1008	9.2	150	1	70
2026-02-28T08:08	17.1	1008	6.6	160	1	70
2026-02-28T08:09	17.3	1008	4.3	160	1	70
2026-02-28T08:10	17.2	1008	4.5	160	1	70
2026-02-28T08:11	17.2	1008	5.2	170	1	70
2026-02-28T08:12	17.1	1008	4.4	190	1	70
2026-02-28T08:13	17.1	1008	4.1	220	1	70
2026-02-28T08:14	17.0	1008	4.0	260	1	70
2026-02-28T08:15	16.9	1008	4.6	280	2	70
2026-02-28T08:16	16.9	1008	5.5	300	2	70
2026-02-28T08:17	16.9	1008	6.1	290	2	70
2026-02-28T08:18	16.9	1008	6.1	290	2	70
2026-02-28T08:19	16.8	1008	6.0	300	2	70
2026-02-28T08:20	16.8	1008	6.0	310	2	70
2026-02-28T08:21	16.8	1008	6.0	310	2	70
2026-02-28T08:22	16.7	1008	6.0	320	2	70
2026-02-28T08:23	16.5	1008	5.8	320	2	70
2026-02-28T08:24	16.6	1008	5.0	320	2	70
2026-02-28T08:25	16.6	1008	5.6	320	2	70
2026-02-28T08:26	16.6	1008	5.0	320	2	70
2026-02-28T08:27	16.6	1008	4.6	320	2	70
2026-02-28T08:28	16.6	1008	4.0	320	2	70
2026-02-28T08:29	16.5	1008	3.9	320	2	70
2026-02-28T08:30	16.5	1008	3.6	320	2	70
2026-02-28T08:31	16.5	1008	3.2	310	2	70
2026-02-28T08:32	16.3	1008	3.4	310	2	70
2026-02-28T08:33	16.0	1008	3.8	310	2	70
2026-02-28T08:34	16.0	1008	3.8	310	2	70
2026-02-28T08:35	16.0	1008	3.8	300	2	70
2026-02-28T08:36	15.8	1008	3.9	300	2	70
2026-02-28T08:37	15.7	1008	3.5	300	2	70
2026-02-28T08:38	15.7	1009	3.5	300	2	70
2026-02-28T08:39	15.4	1009	3.5	300	2	70
2026-02-28T08:40	15.6	1009	3.4	300	2	70
2026-02-28T08:41	15.8	1009	3.3	290	2	70
2026-02-28T08:42	15.8	1009	3.3	290	2	70
2026-02-28T08:43	15.5	1009	3.3	290	2	70
2026-02-28T08:44	15.6	1009	3.4	290	2	70
2026-02-28T08:45	15.7	1009	3.2	290	2	70
2026-02-28T08:46	15.5	1009	3.0	290	2	70
2026-02-28T08:47	15.2	1009	3.0	280	2	70
2026-02-28T08:48	14.3	1009	3.2	280	2	70
2026-02-28T08:49	14.3	1009	3.5	280	2	70
2026-02-28T08:50	14.8	1009	3.6	280	2	70
2026-02-28T08:51	15.1	1009	3.6	290	1	70
2026-02-28T08:52	14.6	1009	3.4	280	1	70
2026-02-28T08:53	14.4	1009	3.5	280	1	70
2026-02-28T08:54	14.6	1009	3.4	280	1	70
2026-02-28T08:55	14.9	1009	3.4	290	1	70
2026-02-28T08:56	14.2	1009	3.4	50	1	70
2026-02-28T08:57	13.9	1009	3.7	70	1	70
2026-02-28T08:58	14.1	1009	3.6	360	1	70
2026-02-28T08:59	14.2	1009	3.7	30	0	70
2026-02-28T09:00	14.2	1009	3.4	50	0	70
2026-02-28T09:01	14.2	1009	3.4	50	0	70
2026-02-28T09:02	14.2	1009	3.4	50	0	70
2026-02-28T09:03	14.1	1009	3.6	40	0	70
2026-02-28T09:04	13.9	1009	3.4	40	1	70
2026-02-28T09:05	14.1	1009	3.6	30	1	70
2026-02-28T09:06	14.4	1009	3.5	20	1	70
2026-02-28T09:07	14.3	1009	3.8	10	1	70
2026-02-28T09:08	14.3	1009	3.2	10	1	70
2026-02-28T09:09	14.4	1009	3.2	360	1	70
2026-02-28T09:10	14.9	1009	3.4	360	1	70
2026-02-28T09:11	14.3	1009	3.8	360	2	70
2026-02-28T09:12	14.2	1009	3.7	360	2	70
2026-02-28T09:13	14.4	1009	3.5	360	2	70
2026-02-28T09:14	14.1	1009	3.6	360	2	70
2026-02-28T09:15	14.0	1009	3.8	360	2	70
2026-02-28T09:16	14.1	1009	3.6	360	2	70
2026-02-28T09:17	13.9	1009	3.7	360	2	70
2026-02-28T09:18	14.2	1009	3.7	360	2	70
2026-02-28T09:19	13.7	1009	3.8	360	2	70
2026-02-28T09:20	13.6	1009	3.7	360	2	70
2026-02-28T09:21	13.9	1009	4.0	360	2	70
2026-02-28T09:22	13.7	1009	3.8	360	2	70
2026-02-28T09:23	13.6	1009	3.7	350	1	70
2026-02-28T09:24	13.6	1009	3.7	350	1	70
2026-02-28T09:25	13.4	1009	3.5	340	1	70
2026-02-28T09:26	13.5	1009	3.6	340	1	70
2026-02-28T09:27	13.4	1009	3.5	340	1	70
2026-02-28T09:28	13.5	1009	3.6	340	1	70
2026-02-28T09:29	13.5	1009	3.6	330	1	70
2026-02-28T09:30	13.2	1009	3.6	330	1	70
2026-02-28T09:31	12.8	1009	3.5	330	0	70
2026-02-28T09:32	13.0	1009	3.7	330	0	70
2026-02-28T09:33	13.1	1009	4.3	320	0	70
2026-02-28T09:34	13.2	1009	3.8	320	0	70
2026-02-28T09:35	13.2	1009	3.8	320	1	70
2026-02-28T09:36	13.7	1009	3.2	310	1	70
2026-02-28T09:37	13.6	1009	3.1	300	1	70
2026-02-28T09:38	13.2	1009	3.6	300	1	70
2026-02-28T09:39	12.4	1009	3.1	290	1	70
2026-02-28T09:40	12.5	1009	3.2	280	1	70
2026-02-28T09:41	13.1	1009	2.9	280	1	70
2026-02-28T09:42	13.2	1009	3.0	270	2	70
2026-02-28T09:43	13.2	1009	2.4	270	2	70
2026-02-28T09:44	13.7	1009	2.3	270	2	70
2026-02-28T09:45	13.7	1009	2.3	270	2	70
2026-02-28T09:46	13.5	1009	2.1	280	2	70
2026-02-28T09:47	13.6	1009	2.2	280	2	70
2026-02-28T09:48	13.5	1010	1.8	280	2	70
2026-02-28T09:49	13.3	1010	1.9	280	2	70
2026-02-28T09:50	13.5	1010	1.8	280	2	70
2026-02-28T09:51	13.2	1010	2.2	280	2	70
2026-02-28T09:52	13.4	1010	2.0	290	2	70
2026-02-28T09:53	13.2	1010	2.2	290	2	70
2026-02-28T09:54	13.4	1010	2.0	290	2	70
2026-02-28T09:55	13.6	1010	1.9	290	2	70
2026-02-28T09:56	13.6	1010	1.9	290	2	70
2026-02-28T09:57	13.7	1010	2.0	290	2	70
2026-02-28T09:58	13.7	1010	2.0	290	2	70
2026-02-28T09:59	13.6	1010	1.9	290	2	70
2026-02-28T10:00	13.5	1010	1.8	290	2	70
2026-02-28T10:01	13.4	1010	1.7	280	2	70
2026-02-28T10:02	13.5	1010	1.8	290	2	70
2026-02-28T10:03	13.3	1010	1.6	290	2	70
2026-02-28T10:04	13.2	1010	1.8	290	2	70
2026-02-28T10:05	12.9	1010	1.9	290	2	70
2026-02-28T10:06	13.1	1010	2.1	290	2	70
2026-02-28T10:07	13.2	1010	2.2	290	2	70
2026-02-28T10:08	13.2	1010	1.8	290	2	70
2026-02-28T10:09	13.3	1010	1.9	290	2	70
2026-02-28T10:10	13.3	1010	1.9	300	2	70
2026-02-28T10:11	13.1	1010	2.1	300	2	70
2026-02-28T10:12	13.1	1010	2.1	300	2	70
2026-02-28T10:13	13.1	1010	2.1	300	2	70
2026-02-28T10:14	13.1	1010	2.1	300	2	70
2026-02-28T10:15	13.2	1010	2.2	300	2	70
2026-02-28T10:16	13.3	1010	2.2	300	2	70
2026-02-28T10:17	13.3	1010	1.9	300	2	70
2026-02-28T10:18	12.7	1010	2.3	300	2	70
2026-02-28T10:19	12.7	1010	2.0	300	2	70
2026-02-28T10:20	12.7	1010	2.3	300	2	70
2026-02-28T10:21	13.1	1010	2.1	300	2	70
2026-02-28T10:22	13.1	1010	2.4	300	2	70
2026-02-28T10:23	12.7	1010	2.0	300	2	70
2026-02-28T10:24	12.9	1010	2.2	300	2	70
2026-02-28T10:25	13.1	1010	2.1	300	2	70
2026-02-28T10:26	12.4	1010	2.0	300	2	70
2026-02-28T10:27	12.5	1010	2.1	300	2	70
2026-02-28T10:28	12.6	1010	2.2	300	2	70
2026-02-28T10:29	12.7	1010	2.3	300	2	70
2026-02-28T10:30	12.0	1010	2.2	300	2	70
2026-02-28T10:31	12.5	1010	2.4	300	2	70
2026-02-28T10:32	12.5	1010	2.4	300	2	70
2026-02-28T10:33	12.5	1010	2.4	290	2	70
2026-02-28T10:34	12.5	1010	2.1	290	2	70
2026-02-28T10:35	12.7	1010	2.3	290	2	70
2026-02-28T10:36	12.6	1010	2.2	290	2	70
2026-02-28T10:37	12.7	1010	2.3	290	2	70
2026-02-28T10:38	12.9	1010	2.2	290	2	70
2026-02-28T10:39	12.7	1010	2.0	290	2	70
2026-02-28T10:40	12.9	1010	1.9	290	2	70
2026-02-28T10:41	12.8	1010	2.1	290	2	70
2026-02-28T10:42	12.8	1010	1.8	290	2	70
2026-02-28T10:43	12.7	1010	1.7	290	2	70
2026-02-28T10:44	12.5	1010	1.8	290	2	70
2026-02-28T10:45	12.3	1010	1.9	290	2	70
2026-02-28T10:46	12.7	1010	2.0	290	2	70
2026-02-28T10:47	12.2	1010	1.8	290	2	70
2026-02-28T10:48	12.3	1010	1.9	290	2	70
2026-02-28T10:49	12.3	1010	1.9	290	2	70
2026-02-28T10:50	12.2	1010	2.1	290	2	70
2026-02-28T10:51	11.9	1010	2.1	300	2	70
2026-02-28T10:52	12.2	1010	2.1	300	2	70
2026-02-28T10:53	12.1	1010	2.0	300	2	70
2026-02-28T10:54	12.3	1010	2.2	300	2	70
2026-02-28T10:55	12.4	1010	2.3	300	2	70
2026-02-28T10:56	12.3	1010	2.2	300	2	70
2026-02-28T10:57	12.2	1010	2.1	290	2	70
2026-02-28T10:58	12.3	1010	1.9	290	2	70
2026-02-28T10:59	12.4	1010	2.0	290	2	70
2026-02-28T11:00	12.5	1010	2.1	290	2	70
2026-02-28T11:01	12.2	1010	1.8	300	2	70
2026-02-28T11:02	11.8	1010	1.7	300	2	70
2026-02-28T11:03	12.2	1010	2.1	300	2	70
2026-02-28T11:04	12.4	1010	2.0	300	2	70
2026-02-28T11:05	12.2	1010	1.8	300	2	70
2026-02-28T11:06	12.5	1010	2.1	300	2	70
2026-02-28T11:07	12.3	1010	1.9	300	2	70
2026-02-28T11:08	12.2	1011	1.8	300	2	70
2026-02-28T11:09	12.2	1011	1.8	300	2	70
2026-02-28T11:10	12.1	1011	2.0	300	2	70
2026-02-28T11:11	12.2	1011	2.1	290	2	70
2026-02-28T11:12	12.2	1011	2.1	290	2	70
2026-02-28T11:13	11.8	1011	1.7	290	2	70
2026-02-28T11:14	12.0	1011	1.9	290	2	70
2026-02-28T11:15	12.1	1011	2.0	290	2	70
2026-02-28T11:16	11.8	1011	2.0	300	2	70
2026-02-28T11:17	11.8	1011	2.0	300	2	70
2026-02-28T11:18	12.1	1011	2.0	300	2	70
2026-02-28T11:19	12.0	1011	2.2	300	2	70
2026-02-28T11:20	12.2	1011	2.1	300	2	70
2026-02-28T11:21	12.2	1011	2.1	300	2	70
2026-02-28T11:22	12.3	1011	2.2	300	2	70
2026-02-28T11:23	12.3	1011	1.9	290	2	70
2026-02-28T11:24	11.9	1011	1.8	290	2	70
2026-02-28T11:25	11.7	1011	1.9	280	2	70
2026-02-28T11:26	11.8	1011	2.0	270	2	70
2026-02-28T11:27	11.9	1011	2.4	270	2	70
2026-02-28T11:28	11.7	1011	2.2	260	2	70
2026-02-28T11:29	11.3	1011	2.1	260	2	70
2026-02-28T11:30	11.0	1011	2.1	260	2	70
2026-02-28T11:31	11.1	1011	2.4	260	2	70
2026-02-28T11:32	11.3	1011	2.6	250	2	70
2026-02-28T11:33	11.1	1011	2.2	250	2	70
2026-02-28T11:34	10.9	1011	2.2	260	2	70
2026-02-28T11:35	10.7	1011	2.0	260	2	70
2026-02-28T11:36	10.9	1011	2.7	260	2	70
2026-02-28T11:37	10.8	1011	2.9	260	2	70
2026-02-28T11:38	10.6	1011	2.7	260	2	70
2026-02-28T11:39	10.6	1011	2.7	260	2	70
2026-02-28T11:40	10.6	1011	2.7	260	2	70
2026-02-28T11:41	10.7	1011	2.8	260	2	70
2026-02-28T11:42	10.4	1011	2.7	260	2	70
2026-02-28T11:43	10.4	1011	3.0	260	2	70
2026-02-28T11:44	10.4	1011	2.7	260	2	70
2026-02-28T11:45	10.4	1011	3.0	260	2	70
2026-02-28T11:46	10.4	1011	2.7	260	2	70
2026-02-28T11:47	10.4	1011	2.7	260	2	70
2026-02-28T11:48	10.3	1011	2.7	260	2	70
2026-02-28T11:49	10.5	1011	2.8	260	2	70
2026-02-28T11:50	10.7	1011	2.8	260	2	70
2026-02-28T11:51	10.7	1011	2.8	260	2	70
2026-02-28T11:52	10.6	1011	2.7	260	2	70
2026-02-28T11:53	10.8	1011	2.9	260	2	70
2026-02-28T11:54	10.8	1011	2.6	260	2	70
2026-02-28T11:55	10.6	1011	2.4	260	2	70
2026-02-28T11:56	10.7	1011	2.5	260	2	70
2026-02-28T11:57	10.9	1011	2.7	260	2	70
2026-02-28T11:58	10.7	1011	2.3	260	2	70
2026-02-28T11:59	10.4	1011	2.3	260	2	70
2026-02-28T12:00	10.3	1011	2.4	260	2	70
2026-02-28T12:01	10.5	1011	2.6	260	2	70
2026-02-28T12:02	10.6	1011	2.7	270	2	70
2026-02-28T12:03	10.6	1011	2.4	270	2	70
2026-02-28T12:04	10.6	1011	2.4	270	2	70
2026-02-28T12:05	10.3	1011	2.2	270	2	70
2026-02-28T12:06	10.2	1011	2.3	270	2	70
2026-02-28T12:07	10.4	1011	2.5	260	2	70
2026-02-28T12:08	10.7	1011	2.5	260	2	70
2026-02-28T12:09	10.7	1011	2.5	260	2	70
2026-02-28T12:10	10.6	1011	2.4	260	2	70
2026-02-28T12:11	10.5	1011	2.4	260	2	70
2026-02-28T12:12	10.5	1011	2.4	260	2	70
2026-02-28T12:13	10.6	1011	2.4	260	2	70
2026-02-28T12:14	10.7	1011	2.3	260	2	70
2026-02-28T12:15	10.7	1011	2.3	260	2	70
2026-02-28T12:16	10.8	1011	2.4	250	2	70
2026-02-28T12:17	10.7	1011	2.3	260	1	70
2026-02-28T12:18	10.7	1011	2.3	250	1	70
2026-02-28T12:19	10.5	1011	2.1	250	1	70
2026-02-28T12:20	10.5	1011	2.1	260	1	70
2026-02-28T12:21	10.5	1011	2.1	260	1	70
2026-02-28T12:22	10.5	1011	2.1	260	1	70
2026-02-28T12:23	10.4	1011	2.0	260	1	70
2026-02-28T12:24	10.6	1011	2.2	260	1	70
2026-02-28T12:25	10.6	1011	2.2	260	1	70
2026-02-28T12:26	10.6	1011	2.2	260	1	70
2026-02-28T12:27	10.1	1011	2.0	260	1	70
2026-02-28T12:28	10.2	1011	2.1	260	1	70
2026-02-28T12:29	10.3	1011	2.2	250	1	70
2026-02-28T12:30	10.3	1011	2.2	250	1	70
2026-02-28T12:31	10.2	1011	2.1	250	1	70
2026-02-28T12:32	10.5	1011	2.4	250	1	70
2026-02-28T12:33	10.5	1011	2.1	250	1	70
2026-02-28T12:34	10.3	1011	1.9	260	1	70
2026-02-28T12:35	10.3	1011	2.2	250	1	70
2026-02-28T12:36	10.2	1012	2.1	260	1	70
2026-02-28T12:37	10.1	1012	2.0	260	1	70
2026-02-28T12:38	9.9	1012	1.8	260	1	70
2026-02-28T12:39	9.7	1012	1.8	270	1	70
2026-02-28T12:40	9.5	1012	1.9	270	2	70
2026-02-28T12:41	9.8	1012	2.2	270	2	70
2026-02-28T12:42	9.9	1012	2.3	270	2	70
2026-02-28T12:43	9.9	1012	2.3	270	2	70
2026-02-28T12:44	9.6	1012	2.0	270	2	70
2026-02-28T12:45	9.8	1012	2.2	270	2	70
2026-02-28T12:46	9.9	1012	2.3	270	2	70
2026-02-28T12:47	9.8	1012	1.9	270	2	70
2026-02-28T12:48	9.8	1012	2.2	270	2	70
2026-02-28T12:49	9.9	1012	2.0	270	2	70
2026-02-28T12:50	10.0	1012	2.4	270	2	70
2026-02-28T12:51	9.9	1012	2.0	260	2	70
2026-02-28T12:52	9.5	1012	1.9	260	2	70
2026-02-28T12:53	9.6	1012	2.2	260	2	70
2026-02-28T12:54	9.7	1012	2.3	260	2	70
2026-02-28T12:55	9.7	1012	2.1	260	2	70
2026-02-28T12:56	9.5	1012	1.9	260	2	70
2026-02-28T12:57	9.1	1012	1.8	270	2	70
2026-02-28T12:58	9.4	1012	2.3	270	2	70
2026-02-28T12:59	9.2	1012	2.1	270	2	70
2026-02-28T13:00	9.8	1012	2.4	270	2	70
2026-02-28T13:01	9.3	1012	1.9	270	2	70
2026-02-28T13:02	9.3	1012	1.9	270	2	70
2026-02-28T13:03	9.4	1012	2.0	270	2	70
2026-02-28T13:04	9.9	1012	2.3	270	2	70
2026-02-28T13:05	10.1	1012	2.2	270	2	70
2026-02-28T13:06	9.9	1012	2.0	270	2	70
2026-02-28T13:07	9.8	1012	1.9	270	2	70
2026-02-28T13:08	9.7	1012	1.8	270	2	70
2026-02-28T13:09	9.9	1012	2.0	270	2	70
2026-02-28T13:10	9.6	1012	2.0	270	2	70
2026-02-28T13:11	9.6	1012	2.0	270	2	70
2026-02-28T13:12	9.7	1012	2.1	270	2	70
2026-02-28T13:13	9.8	1012	2.2	270	2	70
2026-02-28T13:14	9.8	1012	1.9	270	2	70
2026-02-28T13:15	9.7	1012	2.1	270	2	70
2026-02-28T13:16	9.7	1012	1.8	270	2	70
2026-02-28T13:17	9.8	1012	1.9	260	2	70
2026-02-28T13:18	9.8	1012	1.9	270	2	70
2026-02-28T13:19	9.8	1012	1.9	270	2	70
2026-02-28T13:20	9.7	1012	1.8	270	2	70
2026-02-28T13:21	9.8	1012	1.9	270	3	70
2026-02-28T13:22	9.5	1012	1.9	270	3	70
2026-02-28T13:23	9.4	1012	1.8	270	3	70
2026-02-28T13:24	9.6	1012	2.0	270	3	70
2026-02-28T13:25	9.7	1012	2.1	270	3	70
2026-02-28T13:26	9.5	1012	1.9	270	3	70
2026-02-28T13:27	9.3	1012	1.7	270	3	70
2026-02-28T13:28	9.3	1012	1.9	270	3	70
2026-02-28T13:29	9.3	1012	1.9	270	3	70
2026-02-28T13:30	9.3	1012	1.9	270	3	70
2026-02-28T13:31	9.4	1012	2.0	270	3	70
2026-02-28T13:32	9.3	1012	1.9	270	3	70
2026-02-28T13:33	9.4	1012	2.0	270	3	70
2026-02-28T13:34	9.6	1012	2.0	270	3	70
2026-02-28T13:35	9.7	1012	2.1	270	3	70
2026-02-28T13:36	9.6	1012	2.0	270	3	70
2026-02-28T13:37	9.6	1012	2.0	270	3	70
2026-02-28T13:38	9.7	1012	2.1	260	3	70
2026-02-28T13:39	9.6	1012	2.0	270	3	70
2026-02-28T13:40	9.4	1012	1.8	270	2	70
2026-02-28T13:41	9.4	1012	1.8	260	2	70
2026-02-28T13:42	9.4	1012	1.8	260	2	70
2026-02-28T13:43	9.3	1012	1.9	260	2	70
2026-02-28T13:44	9.3	1012	1.9	260	2	70
2026-02-28T13:45	8.9	1012	1.6	260	2	70
2026-02-28T13:46	8.5	1012	1.4	270	2	70
2026-02-28T13:47	8.5	1012	1.6	270	2	70
2026-02-28T13:48	8.6	1012	1.7	270	2	70
2026-02-28T13:49	8.8	1012	1.9	270	2	70
2026-02-28T13:50	9.1	1012	2.0	270	2	70
2026-02-28T13:51	9.0	1012	1.9	270	2	70
2026-02-28T13:52	8.9	1012	1.8	270	2	70
2026-02-28T13:53	9.0	1012	1.9	270	2	70
2026-02-28T13:54	9.0	1012	1.9	270	2	70
2026-02-28T13:55	8.7	1012	1.6	270	2	70
2026-02-28T13:56	9.1	1012	2.0	270	2	70
2026-02-28T13:57	9.1	1012	1.8	270	2	70
2026-02-28T13:58	9.0	1012	1.7	260	2	70
2026-02-28T13:59	8.8	1012	1.7	260	2	70
2026-02-28T14:00	8.8	1012	1.7	260	2	70
2026-02-28T14:01	8.7	1012	1.8	260	2	70
2026-02-28T14:02	8.1	1012	1.3	260	2	70
2026-02-28T14:03	8.2	1012	1.6	260	2	70
2026-02-28T14:04	8.6	1012	1.7	260	2	70
2026-02-28T14:05	8.7	1012	1.8	260	2	70
2026-02-28T14:06	8.7	1012	1.8	260	2	70
2026-02-28T14:07	8.9	1012	1.8	260	2	70
2026-02-28T14:08	8.8	1012	1.7	260	2	70
2026-02-28T14:09	8.5	1012	1.6	260	2	70
2026-02-28T14:10	8.7	1012	1.6	260	2	70
2026-02-28T14:11	8.7	1012	1.6	260	2	70
2026-02-28T14:12	8.7	1012	1.6	260	2	70
2026-02-28T14:13	8.7	1012	1.6	270	2	70
2026-02-28T14:14	8.6	1012	1.5	270	2	70
2026-02-28T14:15	8.8	1012	1.5	270	2	70
2026-02-28T14:16	8.9	1012	1.3	270	2	70
2026-02-28T14:17	9.1	1012	1.3	270	2	70
2026-02-28T14:18	8.9	1012	1.1	270	2	70
2026-02-28T14:19	8.9	1012	1.1	270	2	70
2026-02-28T14:20	9.0	1012	1.2	270	2	70
2026-02-28T14:21	8.8	1012	1.0	270	3	70
2026-02-28T14:22	9.0	1012	1.2	270	2	70
2026-02-28T14:23	8.9	1012	1.1	270	2	70
2026-02-28T14:24	8.9	1012	1.1	270	3	70
2026-02-28T14:25	9.0	1012	1.0	270	3	70
2026-02-28T14:26	8.9	1012	0.9	270	2	70
2026-02-28T14:27	8.7	1012	0.9	270	2	70
2026-02-28T14:28	8.7	1012	0.9	270	2	70
2026-02-28T14:29	8.8	1012	1.0	270	2	70
2026-02-28T14:30	9.0	1012	1.2	270	2	70
2026-02-28T14:31	8.9	1012	0.9	270	3	70
2026-02-28T14:32	8.9	1012	0.9	270	3	70
2026-02-28T14:33	8.5	1012	0.7	270	3	70
2026-02-28T14:34	8.7	1012	0.9	270	3	70
2026-02-28T14:35	9.1	1012	1.0	270	3	70
2026-02-28T14:36	8.8	1012	1.0	270	3	70
2026-02-28T14:37	9.0	1012	1.0	270	3	70
2026-02-28T14:38	8.8	1013	0.8	270	3	70
2026-02-28T14:39	9.2	1013	0.9	270	3	70
2026-02-28T14:40	9.4	1013	0.8	270	3	70
2026-02-28T14:41	9.2	1013	0.6	280	3	70
2026-02-28T14:42	9.0	1013	0.7	270	3	70
2026-02-28T14:43	8.9	1013	0.6	270	3	70
2026-02-28T14:44	9.0	1013	0.7	270	3	70
2026-02-28T14:45	9.1	1013	0.6	270	3	70
2026-02-28T14:46	9.1	1013	0.6	270	3	70
2026-02-28T14:47	9.1	1013	0.6	270	3	70
2026-02-28T14:48	9.2	1013	0.6	270	3	70
2026-02-28T14:49	9.2	1013	0.6	270	3	70
2026-02-28T14:50	9.4	1013	0.6	270	3	70
2026-02-28T14:51	9.2	1013	0.4	270	3	70
2026-02-28T14:52	9.3	1013	0.5	280	3	70
2026-02-28T14:53	9.4	1013	0.6	280	3	70
2026-02-28T14:54	9.4	1013	0.6	280	3	70
2026-02-28T14:55	9.3	1013	0.5	280	3	70
2026-02-28T14:56	9.4	1013	0.3	280	3	70
2026-02-28T14:57	9.2	1013	0.4	280	3	70
2026-02-28T14:58	9.3	1013	0.5	270	3	70
2026-02-28T14:59	9.0	1013	0.5	280	3	70
2026-02-28T15:00	9.2	1013	0.4	270	3	70
2026-02-28T15:01	9.3	1013	0.5	280	3	70
2026-02-28T15:02	9.2	1013	0.4	280	3	70
2026-02-28T15:03	9.0	1013	0.2	280	3	70
2026-02-28T15:04	9.0	1013	0.2	270	3	70
2026-02-28T15:05	9.3	1013	0.5	270	2	70
2026-02-28T15:06	9.2	1013	0.4	270	2	70
2026-02-28T15:07	8.9	1013	0.4	270	2	70
2026-02-28T15:08	8.9	1013	0.4	270	2	70
2026-02-28T15:09	9.0	1013	0.5	270	2	70
2026-02-28T15:10	9.0	1013	0.5	270	2	70
2026-02-28T15:11	8.8	1013	0.3	270	2	70
2026-02-28T15:12	8.6	1013	0.3	270	2	70
2026-02-28T15:13	8.6	1013	0.3	270	2	70
2026-02-28T15:14	8.4	1013	0.4	270	2	70
2026-02-28T15:15	8.6	1013	0.6	270	2	70
2026-02-28T15:16	8.6	1013	0.6	270	2	70
2026-02-28T15:17	8.7	1013	0.7	270	2	70
2026-02-28T15:18	8.5	1013	0.5	270	2	70
2026-02-28T15:19	8.5	1013	0.5	260	2	70
2026-02-28T15:20	8.2	1013	0.4	270	3	70
2026-02-28T15:21	8.4	1013	0.6	270	3	70
2026-02-28T15:22	8.7	1013	0.7	270	3	70
2026-02-28T15:23	8.8	1013	0.8	270	3	70
2026-02-28T15:24	8.7	1013	0.7	270	3	70
2026-02-28T15:25	8.6	1013	0.6	270	3	70
2026-02-28T15:26	8.5	1013	0.5	270	3	70
2026-02-28T15:27	8.6	1013	0.6	270	3	70
2026-02-28T15:28	8.8	1013	0.8	270	3	70
2026-02-28T15:29	8.7	1013	0.7	270	3	70
2026-02-28T15:30	8.6	1013	0.6	270	3	70
2026-02-28T15:31	8.9	1013	0.6	280	3	70
2026-02-28T15:32	9.0	1013	0.7	280	3	70
2026-02-28T15:33	9.0	1013	0.7	280	3	70
2026-02-28T15:34	8.7	1013	0.4	280	3	70
2026-02-28T15:35	8.7	1013	0.4	280	3	70
2026-02-28T15:36	8.8	1013	0.5	280	3	70
2026-02-28T15:37	8.8	1013	0.5	280	3	70
2026-02-28T15:38	8.4	1013	0.4	280	2	70
2026-02-28T15:39	8.7	1013	0.7	280	2	70
2026-02-28T15:40	8.9	1013	0.6	280	3	70
2026-02-28T15:41	8.9	1013	0.6	280	3	70
2026-02-28T15:42	8.7	1013	0.4	280	3	70
2026-02-28T15:43	8.7	1013	0.4	280	3	70
2026-02-28T15:44	8.6	1013	0.3	280	3	70
2026-02-28T15:45	8.6	1013	0.6	280	3	70
2026-02-28T15:46	8.3	1013	0.3	280	3	70
2026-02-28T15:47	8.5	1013	0.5	280	3	70
2026-02-28T15:48	8.3	1013	0.3	280	3	70
2026-02-28T15:49	8.2	1013	0.4	280	3	70
2026-02-28T15:50	8.7	1013	0.7	280	3	70
2026-02-28T15:51	8.7	1013	0.7	280	2	70
2026-02-28T15:52	8.5	1013	0.2	270	2	70
2026-02-28T15:53	8.1	1013	0.4	270	2	70
2026-02-28T15:54	7.8	1013	0.3	270	2	70
2026-02-28T15:55	7.8	1013	0.3	270	2	70
2026-02-28T15:56	7.6	1013	0.4	270	2	70
2026-02-28T15:57	7.9	1013	0.6	270	2	70
2026-02-28T15:58	8.0	1013	0.5	280	2	70
2026-02-28T15:59	8.2	1013	0.7	280	2	70
2026-02-28T16:00	8.4	1013	0.6	280	2	70
2026-02-28T16:01	8.3	1013	0.5	280	2	70
2026-02-28T16:02	8.2	1013	0.4	280	2	70
2026-02-28T16:03	8.1	1013	0.4	290	2	70
2026-02-28T16:04	8.0	1013	0.3	290	2	70
2026-02-28T16:05	7.9	1013	0.4	290	2	70
2026-02-28T16:06	8.1	1013	0.6	290	2	70
2026-02-28T16:07	8.2	1013	0.7	290	1	70
2026-02-28T16:08	8.5	1013	0.7	300	1	70
2026-02-28T16:09	8.3	1013	0.3	300	1	70
2026-02-28T16:10	7.9	1013	0.2	300	1	70
2026-02-28T16:11	8.1	1013	0.6	300	1	70
2026-02-28T16:12	8.1	1013	0.4	300	1	70
2026-02-28T16:13	7.9	1013	0.2	300	1	70
2026-02-28T16:14	7.2	1013	0.0	300	1	70
2026-02-28T16:15	7.2	1013	0.2	300	1	70
2026-02-28T16:16	7.2	1013	0.4	300	1	70
2026-02-28T16:17	7.7	1013	0.9	290	1	70
2026-02-28T16:18	8.0	1013	0.7	290	1	70
2026-02-28T16:19	8.0	1013	0.7	290	2	70
2026-02-28T16:20	7.7	1013	0.2	290	2	70
2026-02-28T16:21	7.6	1013	0.4	280	2	70
2026-02-28T16:22	7.7	1013	0.4	280	2	70
2026-02-28T16:23	7.8	1013	0.5	280	2	70
2026-02-28T16:24	7.7	1013	0.4	280	2	70
2026-02-28T16:25	7.5	1013	0.3	280	2	70
2026-02-28T16:26	7.6	1013	0.4	280	2	70
2026-02-28T16:27	7.2	1013	0.2	280	2	70
2026-02-28T16:28	7.4	1013	0.4	280	2	70
2026-02-28T16:29	7.2	1013	0.2	280	1	70
2026-02-28T16:30	7.2	1013	0.2	280	1	70
2026-02-28T16:31	7.7	1013	0.7	280	1	70
2026-02-28T16:32	7.4	1013	0.4	280	1	70
2026-02-28T16:33	7.5	1013	0.5	280	1	70
2026-02-28T16:34	7.5	1013	0.3	280	1	70
2026-02-28T16:35	7.4	1013	0.4	280	1	70
2026-02-28T16:36	7.8	1013	0.5	280	1	70
2026-02-28T16:37	7.6	1013	0.4	280	1	70
2026-02-28T16:38	7.5	1013	0.3	280	1	70
2026-02-28T16:39	7.3	1013	0.1	280	1	70
2026-02-28T16:40	7.1	1013	0.1	280	1	70
2026-02-28T16:41	7.1	1013	0.1	270	1	70
2026-02-28T16:42	7.1	1013	0.3	280	1	70
2026-02-28T16:43	7.0	1013	0.2	280	1	70
2026-02-28T16:44	6.9	1013	0.4	280	1	70
2026-02-28T16:45	6.7	1013	0.2	280	1	70
2026-02-28T16:46	6.7	1013	0.2	280	1	70
2026-02-28T16:47	6.6	1013	0.3	280	1	70
2026-02-28T16:48	6.6	1013	0.3	280	1	70
2026-02-28T16:49	6.9	1013	0.4	290	1	70
2026-02-28T16:50	6.8	1013	0.3	290	1	70
2026-02-28T16:51	6.8	1013	0.3	290	1	70
2026-02-28T16:52	6.8	1013	0.3	290	1	70
2026-02-28T16:53	6.6	1013	0.3	290	1	70
2026-02-28T16:54	6.6	1013	0.3	290	1	70
2026-02-28T16:55	6.4	1013	0.1	290	1	70
2026-02-28T16:56	6.3	1013	0.2	290	1	70
2026-02-28T16:57	6.3	1013	0.0	290	1	70
2026-02-28T16:58	6.4	1013	0.1	290	1	70
2026-02-28T16:59	6.1	1013	-0.2	290	1	70
2026-02-28T17:00	6.2	1013	0.1	290	1	70
2026-02-28T17:01	6.1	1013	0.0	280	1	70
2026-02-28T17:02	6.0	1013	0.2	280	1	70
2026-02-28T17:03	6.1	1013	0.5	280	1	70
2026-02-28T17:04	6.1	1013	0.7	270	1	70
2026-02-28T17:05	6.1	1013	0.5	270	1	70
2026-02-28T17:06	6.2	1013	0.5	260	1	70
2026-02-28T17:07	5.9	1013	0.3	260	1	70
2026-02-28T17:08	5.6	1013	0.4	250	1	70
2026-02-28T17:09	5.7	1013	0.5	250	1	70
2026-02-28T17:10	6.0	1013	0.8	250	1	70
2026-02-28T17:11	5.9	1013	0.5	240	1	70
2026-02-28T17:12	5.8	1013	0.4	250	1	70
2026-02-28T17:13	5.9	1013	0.5	250	1	70
2026-02-28T17:14	5.5	1013	0.1	250	1	70
2026-02-28T17:15	5.4	1013	0.0	250	1	70
2026-02-28T17:16	5.7	1013	0.5	250	1	70
2026-02-28T17:17	5.8	1013	0.6	260	1	70
2026-02-28T17:18	6.0	1013	0.6	260	1	70
2026-02-28T17:19	5.9	1013	0.5	260	1	70
2026-02-28T17:20	5.7	1013	0.5	270	1	70
2026-02-28T17:21	5.8	1013	0.8	270	1	70
2026-02-28T17:22	5.5	1013	0.7	260	1	70
2026-02-28T17:23	5.5	1013	0.9	260	1	70
2026-02-28T17:24	5.4	1013	0.4	260	1	70
2026-02-28T17:25	5.0	1013	0.2	260	1	70
2026-02-28T17:26	5.3	1013	0.7	260	1	70
2026-02-28T17:27	5.4	1013	0.8	260	1	70
2026-02-28T17:28	5.4	1013	0.6	260	1	70
2026-02-28T17:29	5.5	1013	0.5	260	1	70
2026-02-28T17:30	5.5	1013	0.5	260	1	70
2026-02-28T17:31	5.7	1013	0.7	260	1	70
2026-02-28T17:32	5.8	1013	0.6	260	1	70
2026-02-28T17:33	6.1	1013	0.7	270	2	70
2026-02-28T17:34	6.2	1013	0.5	260	2	70
2026-02-28T17:35	6.1	1013	0.2	260	2	70
2026-02-28T17:36	6.1	1013	0.2	260	2	70
2026-02-28T17:37	6.2	1013	0.1	260	2	70
2026-02-28T17:38	6.3	1013	0.2	260	2	70
2026-02-28T17:39	6.4	1013	0.3	260	2	70
2026-02-28T17:40	6.5	1013	0.2	260	2	70
2026-02-28T17:41	6.7	1013	0.2	260	2	70
2026-02-28T17:42	6.9	1013	0.1	260	2	70
2026-02-28T17:43	6.7	1013	0.0	260	2	70
2026-02-28T17:44	6.6	1013	-0.1	260	2	70
2026-02-28T17:45	6.7	1013	0.0	270	2	70
2026-02-28T17:46	6.4	1013	-0.6	260	2	70
2026-02-28T17:47	6.6	1013	-0.1	270	2	70
2026-02-28T17:48	6.4	1013	-0.3	270	2	70
2026-02-28T17:49	6.7	1013	-0.3	270	2	70
2026-02-28T17:50	6.6	1013	-0.1	260	2	70
2026-02-28T17:51	6.8	1013	-0.2	270	2	70
2026-02-28T17:52	6.9	1013	-0.3	270	2	70
2026-02-28T17:53	6.7	1013	-0.5	270	2	70
2026-02-28T17:54	6.7	1013	-0.5	270	2	70
2026-02-28T17:55	6.8	1013	-0.4	270	2	70
2026-02-28T17:56	6.6	1013	-0.6	270	2	70
2026-02-28T17:57	6.5	1013	-0.5	270	2	70
2026-02-28T17:58	6.3	1013	-0.7	270	2	70
2026-02-28T17:59	6.6	1013	-0.4	270	2	70
2026-02-28T18:00	6.4	1013	-0.6	270	2	70
2026-02-28T18:01	6.7	1013	-0.3	270	2	70
2026-02-28T18:02	6.7	1013	-0.5	280	2	70
2026-02-28T18:03	6.8	1013	-0.4	280	2	70
2026-02-28T18:04	7.0	1013	-0.4	280	2	70
2026-02-28T18:05	6.4	1013	-0.8	280	2	70
2026-02-28T18:06	6.7	1013	-0.5	280	2	70
2026-02-28T18:07	7.0	1013	-0.4	280	2	70
2026-02-28T18:08	7.1	1013	-0.3	280	2	70
2026-02-28T18:09	7.2	1013	-0.5	280	2	70
2026-02-28T18:10	7.1	1014	-0.6	280	2	70
2026-02-28T18:11	7.0	1014	-0.7	280	2	70
2026-02-28T18:12	7.0	1014	-0.7	280	2	70
2026-02-28T18:13	6.8	1014	-0.6	280	2	70
2026-02-28T18:14	7.0	1014	-0.7	280	2	70
2026-02-28T18:15	7.0	1014	-0.7	280	2	70
2026-02-28T18:16	6.7	1014	-0.7	280	2	70
2026-02-28T18:17	7.0	1014	-0.7	290	2	70
2026-02-28T18:18	7.0	1014	-0.7	280	2	70
2026-02-28T18:19	6.9	1014	-0.8	290	2	70
2026-02-28T18:20	6.6	1014	-0.8	290	2	70
2026-02-28T18:21	6.6	1014	-0.8	290	2	70
2026-02-28T18:22	6.8	1014	-0.6	290	2	70
2026-02-28T18:23	6.4	1014	-0.8	290	2	70
2026-02-28T18:24	6.8	1014	-0.6	290	2	70
2026-02-28T18:25	6.9	1014	-0.5	300	2	70
2026-02-28T18:26	6.9	1014	-0.8	300	1	70
2026-02-28T18:27	6.3	1014	-0.9	300	1	70
2026-02-28T18:28	6.2	1014	-1.0	300	1	70
2026-02-28T18:29	6.2	1014	-0.7	300	1	70
2026-02-28T18:30	6.4	1014	-0.6	300	2	70
2026-02-28T18:31	6.9	1014	-0.3	300	2	70
2026-02-28T18:32	6.6	1014	-0.6	290	2	70
2026-02-28T18:33	6.7	1014	-0.5	290	2	70
2026-02-28T18:34	6.5	1014	-0.5	290	2	70
2026-02-28T18:35	6.7	1014	-0.5	290	2	70
2026-02-28T18:36	6.5	1014	-0.7	290	2	70
2026-02-28T18:37	6.8	1014	-0.6	290	2	70
2026-02-28T18:38	6.9	1014	-0.5	280	2	70
2026-02-28T18:39	6.6	1014	-0.8	290	2	70
2026-02-28T18:40	6.7	1014	-0.7	290	2	70
2026-02-28T18:41	6.4	1014	-0.8	290	2	70
2026-02-28T18:42	6.6	1014	-0.6	290	2	70
2026-02-28T18:43	6.5	1014	-0.7	290	2	70
2026-02-28T18:44	6.7	1014	-0.5	280	2	70
2026-02-28T18:45	6.9	1014	-0.5	290	2	70
2026-02-28T18:46	6.7	1014	-0.5	290	2	70
2026-02-28T18:47	6.7	1014	-0.7	290	2	70
2026-02-28T18:48	6.8	1014	-0.6	290	2	70
2026-02-28T18:49	6.8	1014	-0.6	280	2	70
2026-02-28T18:50	6.7	1014	-0.7	280	2	70
2026-02-28T18:51	6.5	1014	-0.7	280	2	70
2026-02-28T18:52	6.4	1014	-0.8	280	2	70
2026-02-28T18:53	6.0	1014	-0.7	280	2	70
2026-02-28T18:54	6.3	1014	-0.7	280	2	70
2026-02-28T18:55	6.1	1014	-0.6	280	2	70
2026-02-28T18:56	6.4	1014	-0.6	280	2	70
2026-02-28T18:57	6.3	1014	-0.7	280	2	70
2026-02-28T18:58	6.5	1014	-0.7	290	2	70
2026-02-28T18:59	6.4	1014	-0.8	290	2	70
2026-02-28T19:00	6.1	1014	-0.8	290	2	70
2026-02-28T19:01	6.3	1014	-0.7	300	2	70
2026-02-28T19:02	6.2	1014	-0.7	300	2	70
2026-02-28T19:03	6.4	1014	-0.6	300	2	70
2026-02-28T19:04	6.2	1014	-0.7	300	2	70
2026-02-28T19:05	5.9	1014	-1.0	300	2	70
2026-02-28T19:06	6.3	1014	-0.7	300	2	70
2026-02-28T19:07	6.3	1014	-0.4	300	2	70
2026-02-28T19:08	5.9	1014	-0.8	300	2	70
2026-02-28T19:09	6.0	1014	-0.5	300	2	70
2026-02-28T19:10	6.1	1014	-0.6	300	2	70
2026-02-28T19:11	6.2	1014	-0.5	300	2	70
2026-02-28T19:12	5.9	1014	-0.8	300	2	70
2026-02-28T19:13	6.1	1014	-0.6	300	2	70
2026-02-28T19:14	5.7	1014	-0.8	300	2	70
2026-02-28T19:15	5.8	1014	-0.7	310	2	70
2026-02-28T19:16	5.7	1014	-0.6	310	1	70
2026-02-28T19:17	5.6	1014	-0.2	320	1	70
2026-02-28T19:18	5.7	1014	-0.3	320	1	70
2026-02-28T19:19	5.7	1014	-0.3	320	1	70
2026-02-28T19:20	5.4	1014	-0.2	320	2	70
2026-02-28T19:21	5.5	1014	-0.1	330	2	70
2026-02-28T19:22	5.5	1014	0.1	330	1	70
2026-02-28T19:23	5.4	1014	0.0	330	1	70
2026-02-28T19:24	5.4	1014	0.0	330	1	70
2026-02-28T19:25	5.4	1014	-0.4	330	1	70
2026-02-28T19:26	5.2	1014	-0.2	340	1	70
2026-02-28T19:27	5.3	1014	-0.1	330	1	70
2026-02-28T19:28	5.4	1014	0.0	340	1	70
2026-02-28T19:29	5.5	1014	-0.1	340	1	70
2026-02-28T19:30	5.3	1014	-0.3	340	1	70
2026-02-28T19:31	5.0	1014	-0.4	340	1	70
2026-02-28T19:32	5.0	1014	-0.2	340	1	70
2026-02-28T19:33	5.1	1014	-0.1	340	1	70
2026-02-28T19:34	5.0	1014	0.0	340	1	70
2026-02-28T19:35	5.1	1014	-0.1	340	1	70
2026-02-28T19:36	4.9	1014	-0.3	340	1	70
2026-02-28T19:37	4.4	1014	-0.6	340	1	70
2026-02-28T19:38	4.6	1014	-0.2	340	1	70
2026-02-28T19:39	5.0	1014	0.2	340	1	70
2026-02-28T19:40	5.3	1014	0.1	350	1	70
2026-02-28T19:41	5.0	1014	-0.2	350	1	70
2026-02-28T19:42	5.2	1014	0.0	350	1	70
2026-02-28T19:43	5.1	1014	-0.3	350	1	70
2026-02-28T19:44	5.2	1014	-0.4	350	1	70
2026-02-28T19:45	5.3	1014	-0.5	350	1	70
2026-02-28T19:46	5.4	1014	-0.4	340	1	70
2026-02-28T19:47	5.2	1014	-0.6	340	1	70
2026-02-28T19:48	4.8	1014	-0.6	330	1	70
2026-02-28T19:49	4.7	1014	-0.5	320	1	70
2026-02-28T19:50	4.9	1014	-0.7	310	1	70
2026-02-28T19:51	4.6	1015	-0.6	310	1	70
2026-02-28T19:52	4.7	1015	-0.5	300	1	70
2026-02-28T19:53	4.5	1015	-0.3	290	1	70
2026-02-28T19:54	4.3	1015	-0.1	290	1	70
2026-02-28T19:55	4.2	1015	-0.2	290	1	70
2026-02-28T19:56	4.4	1015	-0.4	290	1	70
2026-02-28T19:57	4.4	1015	-0.4	290	1	70
2026-02-28T19:58	4.5	1015	-0.5	280	1	70
2026-02-28T19:59	4.7	1015	-0.5	290	1	70
2026-02-28T20:00	4.5	1015	-0.7	290	1	70
2026-02-28T20:01	4.5	1015	-0.7	290	1	70
2026-02-28T20:02	4.6	1015	-0.6	290	1	70
2026-02-28T20:03	4.7	1015	-0.5	290	1	70
2026-02-28T20:04	4.7	1015	-0.7	290	1	70
2026-02-28T20:05	4.5	1015	-0.9	290	1	70
2026-02-28T20:06	4.5	1015	-0.9	290	1	70
2026-02-28T20:07	4.4	1015	-0.8	290	1	70
2026-02-28T20:08	4.6	1015	-0.6	290	1	70
2026-02-28T20:09	4.4	1015	-0.8	290	1	70
2026-02-28T20:10	4.6	1015	-0.4	290	1	70
2026-02-28T20:11	4.6	1015	-0.4	290	1	70
2026-02-28T20:12	4.8	1015	-0.2	290	1	70
2026-02-28T20:13	4.7	1015	-0.5	280	1	70
2026-02-28T20:14	4.5	1015	-0.5	280	2	70
2026-02-28T20:15	4.5	1015	-0.5	280	2	70
2026-02-28T20:16	4.4	1015	-0.4	270	2	70
2026-02-28T20:17	4.4	1015	-0.6	270	2	70
2026-02-28T20:18	4.2	1015	-0.8	270	2	70
2026-02-28T20:19	4.6	1015	-0.4	270	2	70
2026-02-28T20:20	4.8	1015	-0.4	270	2	70
2026-02-28T20:21	4.6	1015	-0.8	280	2	70
2026-02-28T20:22	4.4	1015	-0.8	280	2	70
2026-02-28T20:23	4.5	1015	-0.5	280	2	70
2026-02-28T20:24	4.8	1015	-0.2	280	2	70
2026-02-28T20:25	5.2	1015	-0.2	280	2	70
2026-02-28T20:26	5.0	1015	-0.6	280	2	70
2026-02-28T20:27	5.1	1015	-0.7	280	2	70
2026-02-28T20:28	4.9	1015	-0.9	280	2	70
2026-02-28T20:29	5.1	1015	-0.7	280	2	70
2026-02-28T20:30	5.1	1015	-0.7	280	2	70
2026-02-28T20:31	4.9	1015	-0.7	270	2	70
2026-02-28T20:32	4.8	1015	-0.8	270	2	70
2026-02-28T20:33	4.7	1016	-0.9	280	2	70
2026-02-28T20:34	4.6	1016	-1.0	280	1	70
2026-02-28T20:35	4.8	1016	-0.6	290	1	70
2026-02-28T20:36	5.2	1016	-0.4	290	1	70
2026-02-28T20:37	4.7	1016	-0.9	300	1	70
2026-02-28T20:38	4.9	1016	-0.5	300	1	70
2026-02-28T20:39	4.9	1016	-0.7	300	1	70
2026-02-28T20:40	4.7	1016	-0.9	300	1	70
2026-02-28T20:41	4.7	1016	-0.9	310	1	70
2026-02-28T20:42	4.4	1016	-1.0	310	1	70
2026-02-28T20:43	4.5	1016	-0.9	310	1	70
2026-02-28T20:44	4.5	1016	-0.7	310	1	70
2026-02-28T20:45	4.5	1016	-0.7	310	1	70
2026-02-28T20:46	4.4	1016	-0.8	310	1	70
2026-02-28T20:47	4.2	1016	-0.6	310	1	70
2026-02-28T20:48	4.2	1016	-0.2	320	1	70
2026-02-28T20:49	4.3	1016	0.3	320	1	70
2026-02-28T20:50	4.3	1016	0.5	330	1	70
2026-02-28T20:51	4.4	1016	0.4	330	1	70
2026-02-28T20:52	4.5	1016	0.1	330	1	70
2026-02-28T20:53	4.4	1016	-0.6	330	1	70
2026-02-28T20:54	4.3	1016	-0.7	330	1	70
2026-02-28T20:55	4.3	1016	-0.3	330	1	70
2026-02-28T20:56	4.3	1016	-0.1	330	1	70
2026-02-28T20:57	4.1	1016	-0.3	330	1	70
2026-02-28T20:58	3.9	1016	-0.1	330	1	70
2026-02-28T20:59	4.2	1016	0.2	330	1	70
2026-02-28T21:00	4.0	1016	0.0	330	1	70
2026-02-28T21:01	4.0	1016	0.2	330	1	70
2026-02-28T21:02	4.1	1016	0.1	330	1	70
2026-02-28T21:03	4.0	1016	0.0	330	1	70
2026-02-28T21:04	3.9	1016	-0.1	330	1	70
2026-02-28T21:05	4.0	1016	-0.2	330	1	70
2026-02-28T21:06	3.8	1016	-0.4	320	1	70
2026-02-28T21:07	3.8	1016	-0.6	320	1	70
2026-02-28T21:08	3.7	1016	-0.7	320	1	70
2026-02-28T21:09	3.6	1016	-0.6	320	1	70
2026-02-28T21:10	3.5	1016	-0.1	320	1	70
2026-02-28T21:11	3.5	1016	-0.1	320	1	70
2026-02-28T21:12	3.7	1016	-0.3	320	1	70
2026-02-28T21:13	3.9	1016	-0.5	320	1	70
2026-02-28T21:14	3.8	1016	-0.6	320	1	70
2026-02-28T21:15	3.8	1016	-0.8	320	1	70
2026-02-28T21:16	3.5	1016	-1.1	320	1	70
2026-02-28T21:17	3.5	1016	-0.9	310	0	70
2026-02-28T21:18	3.5	1016	-0.7	310	0	70
2026-02-28T21:19	3.5	1016	-0.7	310	0	70
2026-02-28T21:20	3.4	1016	-0.8	310	0	70
2026-02-28T21:21	3.4	1016	-0.8	320	0	70
2026-02-28T21:22	3.5	1016	-0.5	330	0	70
2026-02-28T21:23	3.7	1016	-0.1	340	1	70
2026-02-28T21:24	3.8	1016	0.2	350	1	70
2026-02-28T21:25	3.6	1016	0.1	10	1	70
2026-02-28T21:26	3.5	1016	0.0	20	1	70
2026-02-28T21:27	3.7	1016	0.1	30	1	70
2026-02-28T21:28	3.8	1016	0.0	30	1	70
2026-02-28T21:29	4.0	1016	0.2	40	1	70
2026-02-28T21:30	3.9	1016	-0.1	40	1	70
2026-02-28T21:31	3.4	1016	-0.4	40	1	70
2026-02-28T21:32	3.6	1016	0.0	30	1	70
2026-02-28T21:33	4.0	1016	0.2	30	1	70
2026-02-28T21:34	4.0	1016	-0.2	20	1	70
2026-02-28T21:35	3.6	1016	-0.2	360	1	70
2026-02-28T21:36	3.2	1016	-0.1	340	1	70
2026-02-28T21:37	2.8	1016	-0.1	320	1	70
2026-02-28T21:38	2.9	1016	0.3	300	1	70
2026-02-28T21:39	2.9	1016	0.2	290	1	70
2026-02-28T21:40	3.0	1016	0.1	280	1	70
2026-02-28T21:41	2.9	1016	-0.4	270	1	70
2026-02-28T21:42	3.1	1016	-0.3	260	1	70
2026-02-28T21:43	3.4	1016	0.0	260	1	70
2026-02-28T21:44	3.5	1016	0.0	250	1	70
2026-02-28T21:45	3.5	1016	0.0	250	1	70
2026-02-28T21:46	3.5	1016	-0.1	250	1	70
2026-02-28T21:47	3.3	1017	-0.3	250	1	70
2026-02-28T21:48	3.2	1017	-0.4	240	1	70
2026-02-28T21:49	3.5	1017	-0.1	240	1	70
2026-02-28T21:50	3.9	1017	0.1	240	1	70
2026-02-28T21:51	3.4	1017	-0.6	240	1	70
2026-02-28T21:52	2.8	1017	-1.0	250	1	70
2026-02-28T21:53	3.2	1017	-0.4	250	1	70
2026-02-28T21:54	3.5	1017	-0.1	250	1	70
2026-02-28T21:55	3.7	1017	0.1	250	1	70
2026-02-28T21:56	3.7	1017	-0.1	260	1	70
2026-02-28T21:57	3.9	1017	0.3	270	1	70
2026-02-28T21:58	3.9	1017	0.3	280	1	70
2026-02-28T21:59	3.9	1017	0.3	300	1	70
2026-02-28T22:00	4.0	1017	0.4	310	1	70
2026-02-28T22:01	4.1	1017	0.3	320	1	70
2026-02-28T22:02	4.3	1017	0.3	330	1	70
2026-02-28T22:03	4.4	1017	0.4	330	1	70
2026-02-28T22:04	4.5	1017	0.3	340	1	70
2026-02-28T22:05	4.3	1017	0.1	340	1	70
2026-02-28T22:06	4.1	1017	-0.1	320	1	70
2026-02-28T22:07	4.2	1017	0.2	310	1	70
2026-02-28T22:08	4.4	1017	0.4	300	1	70
2026-02-28T22:09	4.6	1017	0.2	290	1	70
2026-02-28T22:10	4.8	1017	0.2	280	1	70
2026-02-28T22:11	4.9	1017	0.3	270	1	70
2026-02-28T22:12	5.0	1017	0.4	260	1	70
2026-02-28T22:13	5.0	1017	0.6	250	1	70
2026-02-28T22:14	5.0	1017	1.0	250	1	70
2026-02-28T22:15	5.2	1017	1.3	240	1	70
2026-02-28T22:16	5.1	1017	1.0	240	1	70
2026-02-28T22:17	5.4	1017	1.0	240	1	70
2026-02-28T22:18	5.8	1017	0.8	240	1	70
2026-02-28T22:19	6.0	1017	0.6	240	1	70
2026-02-28T22:20	6.1	1017	0.5	240	1	70
2026-02-28T22:21	6.2	1017	0.5	240	1	70
2026-02-28T22:22	6.3	1017	0.4	250	1	70
2026-02-28T22:23	6.4	1017	0.7	250	1	70
2026-02-28T22:24	6.4	1017	0.5	250	1	70
2026-02-28T22:25	6.5	1017	0.4	250	1	70
2026-02-28T22:26	6.6	1017	0.3	250	1	70
2026-02-28T22:27	6.6	1017	0.1	240	1	70
2026-02-28T22:28	6.8	1017	0.3	250	1	70
2026-02-28T22:29	6.8	1017	0.5	250	1	70
2026-02-28T22:30	6.8	1017	0.3	250	1	70
2026-02-28T22:31	6.9	1017	-0.1	250	1	70
2026-02-28T22:32	6.9	1017	-0.1	250	1	70
2026-02-28T22:33	7.0	1017	0.2	250	1	70
2026-02-28T22:34	6.9	1017	-0.1	250	1	70
2026-02-28T22:35	6.9	1017	-0.1	250	1	70
2026-02-28T22:36	6.9	1018	-0.1	250	1	70
2026-02-28T22:37	6.9	1018	-0.1	250	1	70
2026-02-28T22:38	6.9	1018	-0.1	250	1	70
2026-02-28T22:39	6.9	1018	-0.1	250	1	70
2026-02-28T22:40	7.0	1018	0.0	250	1	70
2026-02-28T22:41	7.0	1018	0.0	250	1	70
2026-02-28T22:42	7.1	1018	0.1	250	1	70
2026-02-28T22:43	7.2	1018	0.4	250	1	70
2026-02-28T22:44	7.2	1018	0.0	250	1	70
2026-02-28T22:45	7.3	1018	0.3	260	1	70
2026-02-28T22:46	7.3	1018	0.1	270	1	70
2026-02-28T22:47	7.3	1018	0.3	280	1	70
2026-02-28T22:48	7.2	1018	0.4	290	1	70
2026-02-28T22:49	7.2	1018	0.6	300	1	70
2026-02-28T22:50	7.5	1018	0.7	320	1	70
2026-02-28T22:51	7.7	1018	0.4	330	1	70
2026-02-28T22:52	7.6	1018	0.4	340	1	70
2026-02-28T22:53	7.7	1018	0.2	350	1	70
2026-02-28T22:54	7.8	1018	0.3	350	1	70
2026-02-28T22:55	7.9	1017	0.4	350	1	70
2026-02-28T22:56	7.9	1018	0.2	350	1	70
2026-02-28T22:57	8.0	1018	0.3	350	1	70
2026-02-28T22:58	8.0	1018	0.0	350	1	70
2026-02-28T22:59	8.0	1018	-0.2	350	1	70
2026-02-28T23:00	8.2	1018	1.1	360	1	70
2026-02-28T23:01	8.2	1018	0.2	360	1	70
2026-02-28T23:02	8.3	1018	0.1	350	1	70
2026-02-28T23:03	8.3	1018	-0.2	350	1	70
2026-02-28T23:04	8.4	1018	-0.1	350	1	70
2026-02-28T23:05	8.4	1018	-0.1	350	1	70
2026-02-28T23:06	8.7	1018	0.4	350	1	70
2026-02-28T23:07	9.0	1018	1.0	350	1	70
2026-02-28T23:08	8.9	1018	0.1	340	1	70
2026-02-28T23:09	8.9	1018	0.4	340	1	70
2026-02-28T23:10	8.5	1018	-0.5	330	1	70
2026-02-28T23:11	8.5	1018	-0.5	320	1	70
2026-02-28T23:12	8.7	1018	0.2	310	1	70
2026-02-28T23:13	8.9	1018	0.4	310	1	70
2026-02-28T23:14	9.0	1018	0.2	300	1	70
2026-02-28T23:15	8.8	1018	-0.2	290	1	70
2026-02-28T23:16	8.8	1018	-0.2	280	1	70
2026-02-28T23:17	8.9	1018	-0.1	270	1	70
2026-02-28T23:18	8.8	1018	-0.2	260	1	70
2026-02-28T23:19	8.8	1018	-0.2	240	1	70
2026-02-28T23:20	9.0	1018	0.2	240	1	70
2026-02-28T23:21	9.2	1018	0.4	230	1	70
2026-02-28T23:22	9.3	1018	0.2	230	1	70
2026-02-28T23:23	9.1	1018	-0.5	230	1	70
2026-02-28T23:24	9.2	1018	-0.1	240	1	70
2026-02-28T23:25	9.5	1018	0.2	240	1	70
2026-02-28T23:26	9.5	1018	-0.1	250	1	70
2026-02-28T23:27	9.2	1018	-0.7	260	1	70
2026-02-28T23:28	9.2	1018	-0.9	280	1	70
2026-02-28T23:29	9.2	1018	-0.9	300	1	70
2026-02-28T23:30	9.4	1018	-0.5	320	1	70
2026-02-28T23:31	9.8	1018	0.2	330	1	70
2026-02-28T23:32	9.8	1018	-0.1	350	1	70
2026-02-28T23:33	9.6	1018	-0.3	20	1	70
2026-02-28T23:34	9.7	1018	-0.2	40	1	70
2026-02-28T23:35	9.7	1018	-0.2	60	1	70
2026-02-28T23:36	9.6	1018	-0.6	70	1	70
2026-02-28T23:37	9.5	1018	-0.4	80	1	70
2026-02-28T23:38	9.8	1018	0.2	100	1	70
2026-02-28T23:39	9.7	1018	-0.2	110	1	70
2026-02-28T23:40	9.6	1018	-0.3	120	1	70
2026-02-28T23:41	9.7	1018	-0.2	130	1	70
2026-02-28T23:42	9.5	1018	-0.4	140	1	70
2026-02-28T23:43	9.6	1018	-0.3	160	1	70
2026-02-28T23:44	9.6	1018	-0.3	180	1	70
2026-02-28T23:45	9.7	1018	-0.2	180	1	70
2026-02-28T23:46	9.9	1018	0.0	180	1	70
2026-02-28T23:47	9.9	1018	0.0	180	1	70
2026-02-28T23:48	10.1	1018	0.2	190	1	70
2026-02-28T23:49	9.8	1018	-0.7	190	1	70
2026-02-28T23:50	9.8	1018	-0.7	190	1	70
2026-02-28T23:51	10.0	1018	-0.2	190	1	70
2026-02-28T23:52	10.4	1018	0.4	190	1	70
2026-02-28T23:53	10.5	1018	0.3	190	1	70
2026-02-28T23:54	10.2	1018	-0.3	180	1	70
2026-02-28T23:55	10.2	1018	-0.3	180	1	70
2026-02-28T23:56	10.6	1018	0.4	190	1	70
2026-02-28T23:57	10.6	1018	0.1	200	1	70
2026-02-28T23:58	10.3	1018	-0.5	210	1	70
2026-02-28T23:59	10.2	1018	-0.6	220	1	70
